<?xml version="1.0" encoding="UTF-8" standalone="no" ?>
<gpx xmlns="http://www.topografix.com/GPX/1/1" xmlns:xsi="http://www.w3.org/2001/XMLSchema-instance" xsi:schemaLocation="http://www.topografix.com/GPX/1/1 http://www.topografix.com/GPX/1/1/gpx.xsd" version="1.1" creator="VisuGPX - https://www.visugpx.com">
  <metadata>
    <name>2018-10-20 Bike ride-Dombes O-Medium v58k</name>
    <desc><![CDATA[2018-10-20 Bike ride-Dombes O-Medium v58k]]></desc>
  </metadata>
  <wpt lat="45.92454" lon="4.73721">
    <ele>174</ele>
    <name><![CDATA[2018-10-20 10:23 (Start)]]></name>
  </wpt>
  <wpt lat="45.92455" lon="4.73712">
    <ele>174</ele>
    <name><![CDATA[2018-10-20 10:23 (End)]]></name>
  </wpt>
  <trk>
    <name><![CDATA[2018-10-20 10:23]]></name>
    <trkseg>
      <trkpt lat="45.92454" lon="4.73721">
        <ele>174</ele>
        <time>2018-10-20T08:23:24.784Z</time>
      </trkpt>
      <trkpt lat="45.92461" lon="4.73712">
        <ele>174</ele>
        <time>2018-10-20T08:23:44Z</time>
      </trkpt>
      <trkpt lat="45.92462" lon="4.7371">
        <ele>174</ele>
        <time>2018-10-20T08:23:45Z</time>
      </trkpt>
      <trkpt lat="45.92466" lon="4.73702">
        <ele>174</ele>
        <time>2018-10-20T08:23:48Z</time>
      </trkpt>
      <trkpt lat="45.92467" lon="4.73698">
        <ele>174</ele>
        <time>2018-10-20T08:23:49Z</time>
      </trkpt>
      <trkpt lat="45.92467" lon="4.73688">
        <ele>174</ele>
        <time>2018-10-20T08:23:52Z</time>
      </trkpt>
      <trkpt lat="45.92467" lon="4.73685">
        <ele>174</ele>
        <time>2018-10-20T08:23:53Z</time>
      </trkpt>
      <trkpt lat="45.92468" lon="4.73676">
        <ele>174</ele>
        <time>2018-10-20T08:23:56Z</time>
      </trkpt>
      <trkpt lat="45.92469" lon="4.73663">
        <ele>174</ele>
        <time>2018-10-20T08:23:57Z</time>
      </trkpt>
      <trkpt lat="45.9247" lon="4.73652">
        <ele>174</ele>
        <time>2018-10-20T08:24:00Z</time>
      </trkpt>
      <trkpt lat="45.92471" lon="4.73648">
        <ele>174</ele>
        <time>2018-10-20T08:24:01Z</time>
      </trkpt>
      <trkpt lat="45.92476" lon="4.73638">
        <ele>174</ele>
        <time>2018-10-20T08:24:04Z</time>
      </trkpt>
      <trkpt lat="45.92483" lon="4.73633">
        <ele>174</ele>
        <time>2018-10-20T08:24:05Z</time>
      </trkpt>
      <trkpt lat="45.92492" lon="4.73635">
        <ele>174</ele>
        <time>2018-10-20T08:24:07Z</time>
      </trkpt>
      <trkpt lat="45.92496" lon="4.73636">
        <ele>174</ele>
        <time>2018-10-20T08:24:08Z</time>
      </trkpt>
      <trkpt lat="45.92504" lon="4.73639">
        <ele>174</ele>
        <time>2018-10-20T08:24:10Z</time>
      </trkpt>
      <trkpt lat="45.9251" lon="4.73639">
        <ele>174</ele>
        <time>2018-10-20T08:24:11Z</time>
      </trkpt>
      <trkpt lat="45.92514" lon="4.73639">
        <ele>173</ele>
        <time>2018-10-20T08:24:12Z</time>
      </trkpt>
      <trkpt lat="45.92519" lon="4.73638">
        <ele>173</ele>
        <time>2018-10-20T08:24:13Z</time>
      </trkpt>
      <trkpt lat="45.92525" lon="4.73638">
        <ele>173</ele>
        <time>2018-10-20T08:24:14Z</time>
      </trkpt>
      <trkpt lat="45.92531" lon="4.73637">
        <ele>173</ele>
        <time>2018-10-20T08:24:15Z</time>
      </trkpt>
      <trkpt lat="45.92536" lon="4.73636">
        <ele>173</ele>
        <time>2018-10-20T08:24:16Z</time>
      </trkpt>
      <trkpt lat="45.92542" lon="4.73635">
        <ele>173</ele>
        <time>2018-10-20T08:24:17Z</time>
      </trkpt>
      <trkpt lat="45.92551" lon="4.73634">
        <ele>173</ele>
        <time>2018-10-20T08:24:19Z</time>
      </trkpt>
      <trkpt lat="45.92556" lon="4.73632">
        <ele>173</ele>
        <time>2018-10-20T08:24:20Z</time>
      </trkpt>
      <trkpt lat="45.9256" lon="4.73631">
        <ele>173</ele>
        <time>2018-10-20T08:24:21Z</time>
      </trkpt>
      <trkpt lat="45.92567" lon="4.73628">
        <ele>173</ele>
        <time>2018-10-20T08:24:22Z</time>
      </trkpt>
      <trkpt lat="45.92575" lon="4.73625">
        <ele>173</ele>
        <time>2018-10-20T08:24:24Z</time>
      </trkpt>
      <trkpt lat="45.9258" lon="4.73622">
        <ele>173</ele>
        <time>2018-10-20T08:24:25Z</time>
      </trkpt>
      <trkpt lat="45.92586" lon="4.73621">
        <ele>173</ele>
        <time>2018-10-20T08:24:26Z</time>
      </trkpt>
      <trkpt lat="45.92591" lon="4.73619">
        <ele>173</ele>
        <time>2018-10-20T08:24:27Z</time>
      </trkpt>
      <trkpt lat="45.92596" lon="4.73618">
        <ele>173</ele>
        <time>2018-10-20T08:24:28Z</time>
      </trkpt>
      <trkpt lat="45.926" lon="4.73619">
        <ele>173</ele>
        <time>2018-10-20T08:24:29Z</time>
      </trkpt>
      <trkpt lat="45.92604" lon="4.73619">
        <ele>173</ele>
        <time>2018-10-20T08:24:30Z</time>
      </trkpt>
      <trkpt lat="45.92611" lon="4.73619">
        <ele>173</ele>
        <time>2018-10-20T08:24:31Z</time>
      </trkpt>
      <trkpt lat="45.92618" lon="4.73625">
        <ele>173</ele>
        <time>2018-10-20T08:24:33Z</time>
      </trkpt>
      <trkpt lat="45.92624" lon="4.73631">
        <ele>173</ele>
        <time>2018-10-20T08:24:34Z</time>
      </trkpt>
      <trkpt lat="45.92625" lon="4.73637">
        <ele>173</ele>
        <time>2018-10-20T08:24:35Z</time>
      </trkpt>
      <trkpt lat="45.92628" lon="4.73645">
        <ele>173</ele>
        <time>2018-10-20T08:24:36Z</time>
      </trkpt>
      <trkpt lat="45.9263" lon="4.73655">
        <ele>173</ele>
        <time>2018-10-20T08:24:37Z</time>
      </trkpt>
      <trkpt lat="45.92633" lon="4.73662">
        <ele>173</ele>
        <time>2018-10-20T08:24:38Z</time>
      </trkpt>
      <trkpt lat="45.92636" lon="4.73668">
        <ele>173</ele>
        <time>2018-10-20T08:24:39Z</time>
      </trkpt>
      <trkpt lat="45.9264" lon="4.73672">
        <ele>173</ele>
        <time>2018-10-20T08:24:40Z</time>
      </trkpt>
      <trkpt lat="45.92643" lon="4.73679">
        <ele>173</ele>
        <time>2018-10-20T08:24:41Z</time>
      </trkpt>
      <trkpt lat="45.92648" lon="4.73683">
        <ele>173</ele>
        <time>2018-10-20T08:24:42Z</time>
      </trkpt>
      <trkpt lat="45.92652" lon="4.73688">
        <ele>173</ele>
        <time>2018-10-20T08:24:43Z</time>
      </trkpt>
      <trkpt lat="45.92655" lon="4.73693">
        <ele>173</ele>
        <time>2018-10-20T08:24:44Z</time>
      </trkpt>
      <trkpt lat="45.9266" lon="4.73696">
        <ele>173</ele>
        <time>2018-10-20T08:24:45Z</time>
      </trkpt>
      <trkpt lat="45.92665" lon="4.73699">
        <ele>173</ele>
        <time>2018-10-20T08:24:46Z</time>
      </trkpt>
      <trkpt lat="45.92671" lon="4.73701">
        <ele>174</ele>
        <time>2018-10-20T08:24:47Z</time>
      </trkpt>
      <trkpt lat="45.92676" lon="4.73704">
        <ele>173</ele>
        <time>2018-10-20T08:24:48Z</time>
      </trkpt>
      <trkpt lat="45.92681" lon="4.73706">
        <ele>173</ele>
        <time>2018-10-20T08:24:49Z</time>
      </trkpt>
      <trkpt lat="45.92686" lon="4.73707">
        <ele>173</ele>
        <time>2018-10-20T08:24:50Z</time>
      </trkpt>
      <trkpt lat="45.92692" lon="4.73709">
        <ele>173</ele>
        <time>2018-10-20T08:24:51Z</time>
      </trkpt>
      <trkpt lat="45.92698" lon="4.7371">
        <ele>173</ele>
        <time>2018-10-20T08:24:52Z</time>
      </trkpt>
      <trkpt lat="45.92702" lon="4.73711">
        <ele>173</ele>
        <time>2018-10-20T08:24:53Z</time>
      </trkpt>
      <trkpt lat="45.92708" lon="4.73711">
        <ele>173</ele>
        <time>2018-10-20T08:24:54Z</time>
      </trkpt>
      <trkpt lat="45.92713" lon="4.73712">
        <ele>173</ele>
        <time>2018-10-20T08:24:55Z</time>
      </trkpt>
      <trkpt lat="45.92719" lon="4.73712">
        <ele>173</ele>
        <time>2018-10-20T08:24:56Z</time>
      </trkpt>
      <trkpt lat="45.92727" lon="4.73715">
        <ele>173</ele>
        <time>2018-10-20T08:24:58Z</time>
      </trkpt>
      <trkpt lat="45.92732" lon="4.73716">
        <ele>173</ele>
        <time>2018-10-20T08:24:59Z</time>
      </trkpt>
      <trkpt lat="45.92737" lon="4.73718">
        <ele>173</ele>
        <time>2018-10-20T08:25:00Z</time>
      </trkpt>
      <trkpt lat="45.92742" lon="4.73719">
        <ele>173</ele>
        <time>2018-10-20T08:25:01Z</time>
      </trkpt>
      <trkpt lat="45.92748" lon="4.7372">
        <ele>173</ele>
        <time>2018-10-20T08:25:02Z</time>
      </trkpt>
      <trkpt lat="45.92754" lon="4.73722">
        <ele>172</ele>
        <time>2018-10-20T08:25:03Z</time>
      </trkpt>
      <trkpt lat="45.92758" lon="4.73723">
        <ele>172</ele>
        <time>2018-10-20T08:25:04Z</time>
      </trkpt>
      <trkpt lat="45.92763" lon="4.73728">
        <ele>172</ele>
        <time>2018-10-20T08:25:05Z</time>
      </trkpt>
      <trkpt lat="45.92768" lon="4.73729">
        <ele>172</ele>
        <time>2018-10-20T08:25:06Z</time>
      </trkpt>
      <trkpt lat="45.92772" lon="4.73731">
        <ele>172</ele>
        <time>2018-10-20T08:25:07Z</time>
      </trkpt>
      <trkpt lat="45.92778" lon="4.73733">
        <ele>172</ele>
        <time>2018-10-20T08:25:08Z</time>
      </trkpt>
      <trkpt lat="45.92783" lon="4.73736">
        <ele>172</ele>
        <time>2018-10-20T08:25:09Z</time>
      </trkpt>
      <trkpt lat="45.92786" lon="4.73746">
        <ele>172</ele>
        <time>2018-10-20T08:25:13Z</time>
      </trkpt>
      <trkpt lat="45.92792" lon="4.73754">
        <ele>173</ele>
        <time>2018-10-20T08:25:14Z</time>
      </trkpt>
      <trkpt lat="45.92797" lon="4.73756">
        <ele>173</ele>
        <time>2018-10-20T08:25:16Z</time>
      </trkpt>
      <trkpt lat="45.92801" lon="4.73758">
        <ele>173</ele>
        <time>2018-10-20T08:25:17Z</time>
      </trkpt>
      <trkpt lat="45.92808" lon="4.73763">
        <ele>173</ele>
        <time>2018-10-20T08:25:19Z</time>
      </trkpt>
      <trkpt lat="45.92813" lon="4.73765">
        <ele>173</ele>
        <time>2018-10-20T08:25:20Z</time>
      </trkpt>
      <trkpt lat="45.92818" lon="4.73768">
        <ele>173</ele>
        <time>2018-10-20T08:25:21Z</time>
      </trkpt>
      <trkpt lat="45.92823" lon="4.7377">
        <ele>173</ele>
        <time>2018-10-20T08:25:22Z</time>
      </trkpt>
      <trkpt lat="45.92827" lon="4.73774">
        <ele>173</ele>
        <time>2018-10-20T08:25:23Z</time>
      </trkpt>
      <trkpt lat="45.92833" lon="4.73777">
        <ele>173</ele>
        <time>2018-10-20T08:25:24Z</time>
      </trkpt>
      <trkpt lat="45.92838" lon="4.73781">
        <ele>173</ele>
        <time>2018-10-20T08:25:25Z</time>
      </trkpt>
      <trkpt lat="45.92843" lon="4.73785">
        <ele>173</ele>
        <time>2018-10-20T08:25:26Z</time>
      </trkpt>
      <trkpt lat="45.92847" lon="4.73789">
        <ele>173</ele>
        <time>2018-10-20T08:25:27Z</time>
      </trkpt>
      <trkpt lat="45.92852" lon="4.73793">
        <ele>173</ele>
        <time>2018-10-20T08:25:28Z</time>
      </trkpt>
      <trkpt lat="45.92857" lon="4.73801">
        <ele>173</ele>
        <time>2018-10-20T08:25:29Z</time>
      </trkpt>
      <trkpt lat="45.92859" lon="4.73807">
        <ele>173</ele>
        <time>2018-10-20T08:25:30Z</time>
      </trkpt>
      <trkpt lat="45.92861" lon="4.73815">
        <ele>173</ele>
        <time>2018-10-20T08:25:31Z</time>
      </trkpt>
      <trkpt lat="45.92864" lon="4.73821">
        <ele>173</ele>
        <time>2018-10-20T08:25:32Z</time>
      </trkpt>
      <trkpt lat="45.92866" lon="4.73829">
        <ele>173</ele>
        <time>2018-10-20T08:25:33Z</time>
      </trkpt>
      <trkpt lat="45.92867" lon="4.73835">
        <ele>173</ele>
        <time>2018-10-20T08:25:34Z</time>
      </trkpt>
      <trkpt lat="45.92869" lon="4.73842">
        <ele>173</ele>
        <time>2018-10-20T08:25:35Z</time>
      </trkpt>
      <trkpt lat="45.92871" lon="4.7385">
        <ele>173</ele>
        <time>2018-10-20T08:25:36Z</time>
      </trkpt>
      <trkpt lat="45.92873" lon="4.73858">
        <ele>173</ele>
        <time>2018-10-20T08:25:37Z</time>
      </trkpt>
      <trkpt lat="45.92876" lon="4.73865">
        <ele>173</ele>
        <time>2018-10-20T08:25:38Z</time>
      </trkpt>
      <trkpt lat="45.92876" lon="4.73874">
        <ele>173</ele>
        <time>2018-10-20T08:25:39Z</time>
      </trkpt>
      <trkpt lat="45.92876" lon="4.73882">
        <ele>173</ele>
        <time>2018-10-20T08:25:40Z</time>
      </trkpt>
      <trkpt lat="45.92878" lon="4.73889">
        <ele>173</ele>
        <time>2018-10-20T08:25:41Z</time>
      </trkpt>
      <trkpt lat="45.92881" lon="4.73897">
        <ele>173</ele>
        <time>2018-10-20T08:25:42Z</time>
      </trkpt>
      <trkpt lat="45.92883" lon="4.73904">
        <ele>173</ele>
        <time>2018-10-20T08:25:43Z</time>
      </trkpt>
      <trkpt lat="45.92883" lon="4.73912">
        <ele>173</ele>
        <time>2018-10-20T08:25:44Z</time>
      </trkpt>
      <trkpt lat="45.92883" lon="4.73919">
        <ele>172</ele>
        <time>2018-10-20T08:25:45Z</time>
      </trkpt>
      <trkpt lat="45.92883" lon="4.73927">
        <ele>172</ele>
        <time>2018-10-20T08:25:46Z</time>
      </trkpt>
      <trkpt lat="45.92885" lon="4.73934">
        <ele>172</ele>
        <time>2018-10-20T08:25:47Z</time>
      </trkpt>
      <trkpt lat="45.92884" lon="4.73941">
        <ele>172</ele>
        <time>2018-10-20T08:25:48Z</time>
      </trkpt>
      <trkpt lat="45.92886" lon="4.73953">
        <ele>172</ele>
        <time>2018-10-20T08:25:50Z</time>
      </trkpt>
      <trkpt lat="45.92887" lon="4.7396">
        <ele>172</ele>
        <time>2018-10-20T08:25:51Z</time>
      </trkpt>
      <trkpt lat="45.92888" lon="4.73967">
        <ele>172</ele>
        <time>2018-10-20T08:25:52Z</time>
      </trkpt>
      <trkpt lat="45.92888" lon="4.73973">
        <ele>172</ele>
        <time>2018-10-20T08:25:53Z</time>
      </trkpt>
      <trkpt lat="45.92887" lon="4.73985">
        <ele>172</ele>
        <time>2018-10-20T08:25:55Z</time>
      </trkpt>
      <trkpt lat="45.92887" lon="4.73992">
        <ele>172</ele>
        <time>2018-10-20T08:25:56Z</time>
      </trkpt>
      <trkpt lat="45.92886" lon="4.73999">
        <ele>172</ele>
        <time>2018-10-20T08:25:57Z</time>
      </trkpt>
      <trkpt lat="45.92886" lon="4.74006">
        <ele>172</ele>
        <time>2018-10-20T08:25:58Z</time>
      </trkpt>
      <trkpt lat="45.92885" lon="4.74011">
        <ele>172</ele>
        <time>2018-10-20T08:25:59Z</time>
      </trkpt>
      <trkpt lat="45.92884" lon="4.74019">
        <ele>172</ele>
        <time>2018-10-20T08:26:00Z</time>
      </trkpt>
      <trkpt lat="45.92883" lon="4.74025">
        <ele>172</ele>
        <time>2018-10-20T08:26:01Z</time>
      </trkpt>
      <trkpt lat="45.92882" lon="4.74033">
        <ele>172</ele>
        <time>2018-10-20T08:26:02Z</time>
      </trkpt>
      <trkpt lat="45.92881" lon="4.74039">
        <ele>172</ele>
        <time>2018-10-20T08:26:03Z</time>
      </trkpt>
      <trkpt lat="45.92877" lon="4.74045">
        <ele>172</ele>
        <time>2018-10-20T08:26:04Z</time>
      </trkpt>
      <trkpt lat="45.92874" lon="4.7405">
        <ele>172</ele>
        <time>2018-10-20T08:26:05Z</time>
      </trkpt>
      <trkpt lat="45.92869" lon="4.74054">
        <ele>172</ele>
        <time>2018-10-20T08:26:06Z</time>
      </trkpt>
      <trkpt lat="45.92867" lon="4.74059">
        <ele>172</ele>
        <time>2018-10-20T08:26:07Z</time>
      </trkpt>
      <trkpt lat="45.92862" lon="4.74064">
        <ele>172</ele>
        <time>2018-10-20T08:26:08Z</time>
      </trkpt>
      <trkpt lat="45.92857" lon="4.74069">
        <ele>172</ele>
        <time>2018-10-20T08:26:09Z</time>
      </trkpt>
      <trkpt lat="45.92852" lon="4.74073">
        <ele>172</ele>
        <time>2018-10-20T08:26:10Z</time>
      </trkpt>
      <trkpt lat="45.92849" lon="4.74079">
        <ele>172</ele>
        <time>2018-10-20T08:26:11Z</time>
      </trkpt>
      <trkpt lat="45.92846" lon="4.74084">
        <ele>171</ele>
        <time>2018-10-20T08:26:12Z</time>
      </trkpt>
      <trkpt lat="45.92842" lon="4.74089">
        <ele>171</ele>
        <time>2018-10-20T08:26:13Z</time>
      </trkpt>
      <trkpt lat="45.92838" lon="4.74093">
        <ele>171</ele>
        <time>2018-10-20T08:26:14Z</time>
      </trkpt>
      <trkpt lat="45.92833" lon="4.74096">
        <ele>171</ele>
        <time>2018-10-20T08:26:15Z</time>
      </trkpt>
      <trkpt lat="45.92829" lon="4.74101">
        <ele>171</ele>
        <time>2018-10-20T08:26:16Z</time>
      </trkpt>
      <trkpt lat="45.92824" lon="4.74105">
        <ele>171</ele>
        <time>2018-10-20T08:26:17Z</time>
      </trkpt>
      <trkpt lat="45.9282" lon="4.7411">
        <ele>172</ele>
        <time>2018-10-20T08:26:18Z</time>
      </trkpt>
      <trkpt lat="45.92816" lon="4.74113">
        <ele>172</ele>
        <time>2018-10-20T08:26:19Z</time>
      </trkpt>
      <trkpt lat="45.92811" lon="4.74118">
        <ele>172</ele>
        <time>2018-10-20T08:26:20Z</time>
      </trkpt>
      <trkpt lat="45.92807" lon="4.74122">
        <ele>172</ele>
        <time>2018-10-20T08:26:21Z</time>
      </trkpt>
      <trkpt lat="45.92802" lon="4.74126">
        <ele>172</ele>
        <time>2018-10-20T08:26:22Z</time>
      </trkpt>
      <trkpt lat="45.92798" lon="4.7413">
        <ele>172</ele>
        <time>2018-10-20T08:26:23Z</time>
      </trkpt>
      <trkpt lat="45.92793" lon="4.74133">
        <ele>172</ele>
        <time>2018-10-20T08:26:24Z</time>
      </trkpt>
      <trkpt lat="45.92789" lon="4.74137">
        <ele>172</ele>
        <time>2018-10-20T08:26:25Z</time>
      </trkpt>
      <trkpt lat="45.92785" lon="4.74141">
        <ele>172</ele>
        <time>2018-10-20T08:26:26Z</time>
      </trkpt>
      <trkpt lat="45.92781" lon="4.74147">
        <ele>172</ele>
        <time>2018-10-20T08:26:27Z</time>
      </trkpt>
      <trkpt lat="45.92777" lon="4.74151">
        <ele>172</ele>
        <time>2018-10-20T08:26:28Z</time>
      </trkpt>
      <trkpt lat="45.92773" lon="4.74155">
        <ele>172</ele>
        <time>2018-10-20T08:26:29Z</time>
      </trkpt>
      <trkpt lat="45.92768" lon="4.7416">
        <ele>172</ele>
        <time>2018-10-20T08:26:30Z</time>
      </trkpt>
      <trkpt lat="45.92764" lon="4.74164">
        <ele>172</ele>
        <time>2018-10-20T08:26:31Z</time>
      </trkpt>
      <trkpt lat="45.92759" lon="4.74169">
        <ele>172</ele>
        <time>2018-10-20T08:26:32Z</time>
      </trkpt>
      <trkpt lat="45.92755" lon="4.74174">
        <ele>172</ele>
        <time>2018-10-20T08:26:33Z</time>
      </trkpt>
      <trkpt lat="45.92752" lon="4.74178">
        <ele>172</ele>
        <time>2018-10-20T08:26:34Z</time>
      </trkpt>
      <trkpt lat="45.92746" lon="4.74185">
        <ele>172</ele>
        <time>2018-10-20T08:26:36Z</time>
      </trkpt>
      <trkpt lat="45.92743" lon="4.74189">
        <ele>172</ele>
        <time>2018-10-20T08:26:37Z</time>
      </trkpt>
      <trkpt lat="45.92739" lon="4.74193">
        <ele>171</ele>
        <time>2018-10-20T08:26:38Z</time>
      </trkpt>
      <trkpt lat="45.92737" lon="4.742">
        <ele>171</ele>
        <time>2018-10-20T08:26:39Z</time>
      </trkpt>
      <trkpt lat="45.92732" lon="4.74206">
        <ele>171</ele>
        <time>2018-10-20T08:26:40Z</time>
      </trkpt>
      <trkpt lat="45.92728" lon="4.7421">
        <ele>171</ele>
        <time>2018-10-20T08:26:41Z</time>
      </trkpt>
      <trkpt lat="45.92724" lon="4.74216">
        <ele>171</ele>
        <time>2018-10-20T08:26:42Z</time>
      </trkpt>
      <trkpt lat="45.92721" lon="4.74221">
        <ele>171</ele>
        <time>2018-10-20T08:26:43Z</time>
      </trkpt>
      <trkpt lat="45.92717" lon="4.74229">
        <ele>171</ele>
        <time>2018-10-20T08:26:44Z</time>
      </trkpt>
      <trkpt lat="45.92713" lon="4.74234">
        <ele>171</ele>
        <time>2018-10-20T08:26:45Z</time>
      </trkpt>
      <trkpt lat="45.9271" lon="4.74239">
        <ele>171</ele>
        <time>2018-10-20T08:26:46Z</time>
      </trkpt>
      <trkpt lat="45.92706" lon="4.74243">
        <ele>171</ele>
        <time>2018-10-20T08:26:47Z</time>
      </trkpt>
      <trkpt lat="45.92703" lon="4.7425">
        <ele>171</ele>
        <time>2018-10-20T08:26:48Z</time>
      </trkpt>
      <trkpt lat="45.927" lon="4.74256">
        <ele>171</ele>
        <time>2018-10-20T08:26:49Z</time>
      </trkpt>
      <trkpt lat="45.92696" lon="4.74263">
        <ele>171</ele>
        <time>2018-10-20T08:26:50Z</time>
      </trkpt>
      <trkpt lat="45.92692" lon="4.74268">
        <ele>171</ele>
        <time>2018-10-20T08:26:51Z</time>
      </trkpt>
      <trkpt lat="45.92689" lon="4.74275">
        <ele>171</ele>
        <time>2018-10-20T08:26:52Z</time>
      </trkpt>
      <trkpt lat="45.92686" lon="4.74282">
        <ele>171</ele>
        <time>2018-10-20T08:26:53Z</time>
      </trkpt>
      <trkpt lat="45.92682" lon="4.74288">
        <ele>171</ele>
        <time>2018-10-20T08:26:54Z</time>
      </trkpt>
      <trkpt lat="45.92679" lon="4.74293">
        <ele>171</ele>
        <time>2018-10-20T08:26:55Z</time>
      </trkpt>
      <trkpt lat="45.92675" lon="4.74299">
        <ele>171</ele>
        <time>2018-10-20T08:26:56Z</time>
      </trkpt>
      <trkpt lat="45.92672" lon="4.74304">
        <ele>171</ele>
        <time>2018-10-20T08:26:57Z</time>
      </trkpt>
      <trkpt lat="45.92669" lon="4.7431">
        <ele>171</ele>
        <time>2018-10-20T08:26:58Z</time>
      </trkpt>
      <trkpt lat="45.92666" lon="4.74316">
        <ele>171</ele>
        <time>2018-10-20T08:26:59Z</time>
      </trkpt>
      <trkpt lat="45.92662" lon="4.74322">
        <ele>171</ele>
        <time>2018-10-20T08:27:00Z</time>
      </trkpt>
      <trkpt lat="45.92661" lon="4.74329">
        <ele>171</ele>
        <time>2018-10-20T08:27:01Z</time>
      </trkpt>
      <trkpt lat="45.92658" lon="4.74335">
        <ele>171</ele>
        <time>2018-10-20T08:27:02Z</time>
      </trkpt>
      <trkpt lat="45.92654" lon="4.74341">
        <ele>171</ele>
        <time>2018-10-20T08:27:03Z</time>
      </trkpt>
      <trkpt lat="45.92651" lon="4.74348">
        <ele>171</ele>
        <time>2018-10-20T08:27:04Z</time>
      </trkpt>
      <trkpt lat="45.92648" lon="4.74356">
        <ele>171</ele>
        <time>2018-10-20T08:27:05Z</time>
      </trkpt>
      <trkpt lat="45.92644" lon="4.74363">
        <ele>171</ele>
        <time>2018-10-20T08:27:06Z</time>
      </trkpt>
      <trkpt lat="45.92641" lon="4.74369">
        <ele>171</ele>
        <time>2018-10-20T08:27:07Z</time>
      </trkpt>
      <trkpt lat="45.92638" lon="4.74374">
        <ele>171</ele>
        <time>2018-10-20T08:27:08Z</time>
      </trkpt>
      <trkpt lat="45.92634" lon="4.74381">
        <ele>170</ele>
        <time>2018-10-20T08:27:09Z</time>
      </trkpt>
      <trkpt lat="45.9263" lon="4.74388">
        <ele>170</ele>
        <time>2018-10-20T08:27:10Z</time>
      </trkpt>
      <trkpt lat="45.92627" lon="4.74394">
        <ele>170</ele>
        <time>2018-10-20T08:27:11Z</time>
      </trkpt>
      <trkpt lat="45.92624" lon="4.74401">
        <ele>170</ele>
        <time>2018-10-20T08:27:12Z</time>
      </trkpt>
      <trkpt lat="45.92621" lon="4.74406">
        <ele>170</ele>
        <time>2018-10-20T08:27:13Z</time>
      </trkpt>
      <trkpt lat="45.92617" lon="4.74411">
        <ele>170</ele>
        <time>2018-10-20T08:27:14Z</time>
      </trkpt>
      <trkpt lat="45.92614" lon="4.74417">
        <ele>170</ele>
        <time>2018-10-20T08:27:15Z</time>
      </trkpt>
      <trkpt lat="45.9261" lon="4.74423">
        <ele>170</ele>
        <time>2018-10-20T08:27:16Z</time>
      </trkpt>
      <trkpt lat="45.92608" lon="4.7443">
        <ele>170</ele>
        <time>2018-10-20T08:27:17Z</time>
      </trkpt>
      <trkpt lat="45.92604" lon="4.74436">
        <ele>170</ele>
        <time>2018-10-20T08:27:18Z</time>
      </trkpt>
      <trkpt lat="45.926" lon="4.74441">
        <ele>170</ele>
        <time>2018-10-20T08:27:19Z</time>
      </trkpt>
      <trkpt lat="45.92596" lon="4.74447">
        <ele>170</ele>
        <time>2018-10-20T08:27:20Z</time>
      </trkpt>
      <trkpt lat="45.92594" lon="4.74452">
        <ele>170</ele>
        <time>2018-10-20T08:27:21Z</time>
      </trkpt>
      <trkpt lat="45.9259" lon="4.74459">
        <ele>170</ele>
        <time>2018-10-20T08:27:22Z</time>
      </trkpt>
      <trkpt lat="45.92587" lon="4.74466">
        <ele>170</ele>
        <time>2018-10-20T08:27:23Z</time>
      </trkpt>
      <trkpt lat="45.92583" lon="4.74472">
        <ele>170</ele>
        <time>2018-10-20T08:27:24Z</time>
      </trkpt>
      <trkpt lat="45.9258" lon="4.74478">
        <ele>170</ele>
        <time>2018-10-20T08:27:25Z</time>
      </trkpt>
      <trkpt lat="45.92574" lon="4.74488">
        <ele>170</ele>
        <time>2018-10-20T08:27:27Z</time>
      </trkpt>
      <trkpt lat="45.9257" lon="4.74493">
        <ele>170</ele>
        <time>2018-10-20T08:27:28Z</time>
      </trkpt>
      <trkpt lat="45.92564" lon="4.74503">
        <ele>170</ele>
        <time>2018-10-20T08:27:30Z</time>
      </trkpt>
      <trkpt lat="45.92561" lon="4.74509">
        <ele>170</ele>
        <time>2018-10-20T08:27:31Z</time>
      </trkpt>
      <trkpt lat="45.92558" lon="4.74516">
        <ele>170</ele>
        <time>2018-10-20T08:27:32Z</time>
      </trkpt>
      <trkpt lat="45.92554" lon="4.74522">
        <ele>170</ele>
        <time>2018-10-20T08:27:33Z</time>
      </trkpt>
      <trkpt lat="45.9255" lon="4.7453">
        <ele>170</ele>
        <time>2018-10-20T08:27:34Z</time>
      </trkpt>
      <trkpt lat="45.92547" lon="4.74536">
        <ele>170</ele>
        <time>2018-10-20T08:27:35Z</time>
      </trkpt>
      <trkpt lat="45.92543" lon="4.74543">
        <ele>170</ele>
        <time>2018-10-20T08:27:36Z</time>
      </trkpt>
      <trkpt lat="45.9254" lon="4.74547">
        <ele>171</ele>
        <time>2018-10-20T08:27:37Z</time>
      </trkpt>
      <trkpt lat="45.92536" lon="4.74553">
        <ele>171</ele>
        <time>2018-10-20T08:27:38Z</time>
      </trkpt>
      <trkpt lat="45.92531" lon="4.7456">
        <ele>171</ele>
        <time>2018-10-20T08:27:39Z</time>
      </trkpt>
      <trkpt lat="45.92527" lon="4.74565">
        <ele>171</ele>
        <time>2018-10-20T08:27:40Z</time>
      </trkpt>
      <trkpt lat="45.92524" lon="4.74571">
        <ele>171</ele>
        <time>2018-10-20T08:27:41Z</time>
      </trkpt>
      <trkpt lat="45.92521" lon="4.74575">
        <ele>171</ele>
        <time>2018-10-20T08:27:42Z</time>
      </trkpt>
      <trkpt lat="45.92517" lon="4.7458">
        <ele>171</ele>
        <time>2018-10-20T08:27:43Z</time>
      </trkpt>
      <trkpt lat="45.92513" lon="4.74585">
        <ele>171</ele>
        <time>2018-10-20T08:27:44Z</time>
      </trkpt>
      <trkpt lat="45.92509" lon="4.7459">
        <ele>171</ele>
        <time>2018-10-20T08:27:45Z</time>
      </trkpt>
      <trkpt lat="45.92506" lon="4.74597">
        <ele>171</ele>
        <time>2018-10-20T08:27:46Z</time>
      </trkpt>
      <trkpt lat="45.92502" lon="4.74603">
        <ele>171</ele>
        <time>2018-10-20T08:27:47Z</time>
      </trkpt>
      <trkpt lat="45.92498" lon="4.74607">
        <ele>171</ele>
        <time>2018-10-20T08:27:48Z</time>
      </trkpt>
      <trkpt lat="45.92494" lon="4.74612">
        <ele>171</ele>
        <time>2018-10-20T08:27:49Z</time>
      </trkpt>
      <trkpt lat="45.9249" lon="4.74617">
        <ele>171</ele>
        <time>2018-10-20T08:27:50Z</time>
      </trkpt>
      <trkpt lat="45.92486" lon="4.74622">
        <ele>171</ele>
        <time>2018-10-20T08:27:51Z</time>
      </trkpt>
      <trkpt lat="45.92483" lon="4.74626">
        <ele>171</ele>
        <time>2018-10-20T08:27:52Z</time>
      </trkpt>
      <trkpt lat="45.92479" lon="4.74632">
        <ele>171</ele>
        <time>2018-10-20T08:27:53Z</time>
      </trkpt>
      <trkpt lat="45.92476" lon="4.74638">
        <ele>171</ele>
        <time>2018-10-20T08:27:54Z</time>
      </trkpt>
      <trkpt lat="45.92472" lon="4.74643">
        <ele>171</ele>
        <time>2018-10-20T08:27:55Z</time>
      </trkpt>
      <trkpt lat="45.92469" lon="4.74648">
        <ele>171</ele>
        <time>2018-10-20T08:27:56Z</time>
      </trkpt>
      <trkpt lat="45.92466" lon="4.74654">
        <ele>171</ele>
        <time>2018-10-20T08:27:57Z</time>
      </trkpt>
      <trkpt lat="45.92463" lon="4.7466">
        <ele>171</ele>
        <time>2018-10-20T08:27:58Z</time>
      </trkpt>
      <trkpt lat="45.92459" lon="4.74666">
        <ele>171</ele>
        <time>2018-10-20T08:27:59Z</time>
      </trkpt>
      <trkpt lat="45.92456" lon="4.74672">
        <ele>171</ele>
        <time>2018-10-20T08:28:00Z</time>
      </trkpt>
      <trkpt lat="45.92453" lon="4.74677">
        <ele>171</ele>
        <time>2018-10-20T08:28:01Z</time>
      </trkpt>
      <trkpt lat="45.92448" lon="4.74685">
        <ele>171</ele>
        <time>2018-10-20T08:28:03Z</time>
      </trkpt>
      <trkpt lat="45.92445" lon="4.74691">
        <ele>171</ele>
        <time>2018-10-20T08:28:04Z</time>
      </trkpt>
      <trkpt lat="45.92443" lon="4.74696">
        <ele>171</ele>
        <time>2018-10-20T08:28:05Z</time>
      </trkpt>
      <trkpt lat="45.9244" lon="4.74703">
        <ele>171</ele>
        <time>2018-10-20T08:28:06Z</time>
      </trkpt>
      <trkpt lat="45.92436" lon="4.74713">
        <ele>171</ele>
        <time>2018-10-20T08:28:08Z</time>
      </trkpt>
      <trkpt lat="45.92433" lon="4.7472">
        <ele>171</ele>
        <time>2018-10-20T08:28:09Z</time>
      </trkpt>
      <trkpt lat="45.92432" lon="4.74727">
        <ele>171</ele>
        <time>2018-10-20T08:28:10Z</time>
      </trkpt>
      <trkpt lat="45.92429" lon="4.74734">
        <ele>171</ele>
        <time>2018-10-20T08:28:11Z</time>
      </trkpt>
      <trkpt lat="45.92428" lon="4.74741">
        <ele>171</ele>
        <time>2018-10-20T08:28:12Z</time>
      </trkpt>
      <trkpt lat="45.92426" lon="4.74748">
        <ele>172</ele>
        <time>2018-10-20T08:28:13Z</time>
      </trkpt>
      <trkpt lat="45.92423" lon="4.74756">
        <ele>172</ele>
        <time>2018-10-20T08:28:14Z</time>
      </trkpt>
      <trkpt lat="45.92421" lon="4.74763">
        <ele>171</ele>
        <time>2018-10-20T08:28:15Z</time>
      </trkpt>
      <trkpt lat="45.9242" lon="4.7477">
        <ele>171</ele>
        <time>2018-10-20T08:28:16Z</time>
      </trkpt>
      <trkpt lat="45.92418" lon="4.74778">
        <ele>171</ele>
        <time>2018-10-20T08:28:17Z</time>
      </trkpt>
      <trkpt lat="45.92417" lon="4.74787">
        <ele>171</ele>
        <time>2018-10-20T08:28:18Z</time>
      </trkpt>
      <trkpt lat="45.92415" lon="4.74795">
        <ele>171</ele>
        <time>2018-10-20T08:28:19Z</time>
      </trkpt>
      <trkpt lat="45.92414" lon="4.74803">
        <ele>171</ele>
        <time>2018-10-20T08:28:20Z</time>
      </trkpt>
      <trkpt lat="45.92412" lon="4.74811">
        <ele>171</ele>
        <time>2018-10-20T08:28:21Z</time>
      </trkpt>
      <trkpt lat="45.9241" lon="4.7482">
        <ele>171</ele>
        <time>2018-10-20T08:28:22Z</time>
      </trkpt>
      <trkpt lat="45.92408" lon="4.74828">
        <ele>171</ele>
        <time>2018-10-20T08:28:23Z</time>
      </trkpt>
      <trkpt lat="45.92407" lon="4.74836">
        <ele>171</ele>
        <time>2018-10-20T08:28:24Z</time>
      </trkpt>
      <trkpt lat="45.92404" lon="4.74844">
        <ele>171</ele>
        <time>2018-10-20T08:28:25Z</time>
      </trkpt>
      <trkpt lat="45.924" lon="4.74851">
        <ele>171</ele>
        <time>2018-10-20T08:28:26Z</time>
      </trkpt>
      <trkpt lat="45.92398" lon="4.74859">
        <ele>171</ele>
        <time>2018-10-20T08:28:27Z</time>
      </trkpt>
      <trkpt lat="45.92394" lon="4.74867">
        <ele>171</ele>
        <time>2018-10-20T08:28:28Z</time>
      </trkpt>
      <trkpt lat="45.92391" lon="4.74874">
        <ele>171</ele>
        <time>2018-10-20T08:28:29Z</time>
      </trkpt>
      <trkpt lat="45.92388" lon="4.74881">
        <ele>171</ele>
        <time>2018-10-20T08:28:30Z</time>
      </trkpt>
      <trkpt lat="45.92385" lon="4.74886">
        <ele>171</ele>
        <time>2018-10-20T08:28:31Z</time>
      </trkpt>
      <trkpt lat="45.92383" lon="4.74893">
        <ele>171</ele>
        <time>2018-10-20T08:28:32Z</time>
      </trkpt>
      <trkpt lat="45.9238" lon="4.74899">
        <ele>171</ele>
        <time>2018-10-20T08:28:33Z</time>
      </trkpt>
      <trkpt lat="45.92377" lon="4.74904">
        <ele>171</ele>
        <time>2018-10-20T08:28:34Z</time>
      </trkpt>
      <trkpt lat="45.92373" lon="4.74912">
        <ele>171</ele>
        <time>2018-10-20T08:28:35Z</time>
      </trkpt>
      <trkpt lat="45.92373" lon="4.74919">
        <ele>170</ele>
        <time>2018-10-20T08:28:36Z</time>
      </trkpt>
      <trkpt lat="45.9237" lon="4.74925">
        <ele>170</ele>
        <time>2018-10-20T08:28:37Z</time>
      </trkpt>
      <trkpt lat="45.92367" lon="4.74933">
        <ele>170</ele>
        <time>2018-10-20T08:28:38Z</time>
      </trkpt>
      <trkpt lat="45.92364" lon="4.74939">
        <ele>170</ele>
        <time>2018-10-20T08:28:39Z</time>
      </trkpt>
      <trkpt lat="45.92361" lon="4.74946">
        <ele>170</ele>
        <time>2018-10-20T08:28:40Z</time>
      </trkpt>
      <trkpt lat="45.92357" lon="4.74951">
        <ele>170</ele>
        <time>2018-10-20T08:28:41Z</time>
      </trkpt>
      <trkpt lat="45.92354" lon="4.74958">
        <ele>170</ele>
        <time>2018-10-20T08:28:42Z</time>
      </trkpt>
      <trkpt lat="45.92354" lon="4.74967">
        <ele>170</ele>
        <time>2018-10-20T08:28:43Z</time>
      </trkpt>
      <trkpt lat="45.92352" lon="4.74974">
        <ele>170</ele>
        <time>2018-10-20T08:28:44Z</time>
      </trkpt>
      <trkpt lat="45.92349" lon="4.74981">
        <ele>170</ele>
        <time>2018-10-20T08:28:45Z</time>
      </trkpt>
      <trkpt lat="45.92345" lon="4.74989">
        <ele>170</ele>
        <time>2018-10-20T08:28:46Z</time>
      </trkpt>
      <trkpt lat="45.92342" lon="4.74995">
        <ele>170</ele>
        <time>2018-10-20T08:28:47Z</time>
      </trkpt>
      <trkpt lat="45.92341" lon="4.75003">
        <ele>170</ele>
        <time>2018-10-20T08:28:48Z</time>
      </trkpt>
      <trkpt lat="45.92338" lon="4.75011">
        <ele>170</ele>
        <time>2018-10-20T08:28:49Z</time>
      </trkpt>
      <trkpt lat="45.92335" lon="4.75017">
        <ele>170</ele>
        <time>2018-10-20T08:28:50Z</time>
      </trkpt>
      <trkpt lat="45.92331" lon="4.75023">
        <ele>171</ele>
        <time>2018-10-20T08:28:51Z</time>
      </trkpt>
      <trkpt lat="45.92327" lon="4.75029">
        <ele>171</ele>
        <time>2018-10-20T08:28:52Z</time>
      </trkpt>
      <trkpt lat="45.92325" lon="4.75036">
        <ele>171</ele>
        <time>2018-10-20T08:28:53Z</time>
      </trkpt>
      <trkpt lat="45.92321" lon="4.75041">
        <ele>172</ele>
        <time>2018-10-20T08:28:54Z</time>
      </trkpt>
      <trkpt lat="45.92318" lon="4.75048">
        <ele>172</ele>
        <time>2018-10-20T08:28:55Z</time>
      </trkpt>
      <trkpt lat="45.92313" lon="4.75053">
        <ele>172</ele>
        <time>2018-10-20T08:28:56Z</time>
      </trkpt>
      <trkpt lat="45.92309" lon="4.75058">
        <ele>172</ele>
        <time>2018-10-20T08:28:57Z</time>
      </trkpt>
      <trkpt lat="45.92306" lon="4.75062">
        <ele>172</ele>
        <time>2018-10-20T08:28:58Z</time>
      </trkpt>
      <trkpt lat="45.92302" lon="4.75067">
        <ele>172</ele>
        <time>2018-10-20T08:28:59Z</time>
      </trkpt>
      <trkpt lat="45.92299" lon="4.75072">
        <ele>172</ele>
        <time>2018-10-20T08:29:00Z</time>
      </trkpt>
      <trkpt lat="45.92294" lon="4.75076">
        <ele>172</ele>
        <time>2018-10-20T08:29:01Z</time>
      </trkpt>
      <trkpt lat="45.92291" lon="4.7508">
        <ele>172</ele>
        <time>2018-10-20T08:29:02Z</time>
      </trkpt>
      <trkpt lat="45.92286" lon="4.75083">
        <ele>172</ele>
        <time>2018-10-20T08:29:03Z</time>
      </trkpt>
      <trkpt lat="45.92282" lon="4.75087">
        <ele>173</ele>
        <time>2018-10-20T08:29:04Z</time>
      </trkpt>
      <trkpt lat="45.92277" lon="4.75092">
        <ele>173</ele>
        <time>2018-10-20T08:29:05Z</time>
      </trkpt>
      <trkpt lat="45.92272" lon="4.75096">
        <ele>173</ele>
        <time>2018-10-20T08:29:06Z</time>
      </trkpt>
      <trkpt lat="45.92268" lon="4.751">
        <ele>173</ele>
        <time>2018-10-20T08:29:07Z</time>
      </trkpt>
      <trkpt lat="45.92264" lon="4.75105">
        <ele>174</ele>
        <time>2018-10-20T08:29:08Z</time>
      </trkpt>
      <trkpt lat="45.9226" lon="4.7511">
        <ele>174</ele>
        <time>2018-10-20T08:29:09Z</time>
      </trkpt>
      <trkpt lat="45.92257" lon="4.75114">
        <ele>174</ele>
        <time>2018-10-20T08:29:10Z</time>
      </trkpt>
      <trkpt lat="45.92253" lon="4.75118">
        <ele>174</ele>
        <time>2018-10-20T08:29:11Z</time>
      </trkpt>
      <trkpt lat="45.92249" lon="4.75122">
        <ele>174</ele>
        <time>2018-10-20T08:29:12Z</time>
      </trkpt>
      <trkpt lat="45.92245" lon="4.75126">
        <ele>174</ele>
        <time>2018-10-20T08:29:13Z</time>
      </trkpt>
      <trkpt lat="45.92241" lon="4.75131">
        <ele>174</ele>
        <time>2018-10-20T08:29:14Z</time>
      </trkpt>
      <trkpt lat="45.92237" lon="4.75136">
        <ele>174</ele>
        <time>2018-10-20T08:29:15Z</time>
      </trkpt>
      <trkpt lat="45.92234" lon="4.7514">
        <ele>174</ele>
        <time>2018-10-20T08:29:16Z</time>
      </trkpt>
      <trkpt lat="45.9223" lon="4.75147">
        <ele>174</ele>
        <time>2018-10-20T08:29:17Z</time>
      </trkpt>
      <trkpt lat="45.92228" lon="4.75153">
        <ele>174</ele>
        <time>2018-10-20T08:29:18Z</time>
      </trkpt>
      <trkpt lat="45.92226" lon="4.75159">
        <ele>174</ele>
        <time>2018-10-20T08:29:19Z</time>
      </trkpt>
      <trkpt lat="45.92224" lon="4.75166">
        <ele>174</ele>
        <time>2018-10-20T08:29:20Z</time>
      </trkpt>
      <trkpt lat="45.92222" lon="4.75172">
        <ele>175</ele>
        <time>2018-10-20T08:29:21Z</time>
      </trkpt>
      <trkpt lat="45.9222" lon="4.75178">
        <ele>175</ele>
        <time>2018-10-20T08:29:22Z</time>
      </trkpt>
      <trkpt lat="45.92218" lon="4.75184">
        <ele>175</ele>
        <time>2018-10-20T08:29:23Z</time>
      </trkpt>
      <trkpt lat="45.92216" lon="4.7519">
        <ele>175</ele>
        <time>2018-10-20T08:29:24Z</time>
      </trkpt>
      <trkpt lat="45.92215" lon="4.75198">
        <ele>175</ele>
        <time>2018-10-20T08:29:25Z</time>
      </trkpt>
      <trkpt lat="45.92214" lon="4.75204">
        <ele>175</ele>
        <time>2018-10-20T08:29:26Z</time>
      </trkpt>
      <trkpt lat="45.92212" lon="4.75212">
        <ele>175</ele>
        <time>2018-10-20T08:29:27Z</time>
      </trkpt>
      <trkpt lat="45.92211" lon="4.75224">
        <ele>175</ele>
        <time>2018-10-20T08:29:29Z</time>
      </trkpt>
      <trkpt lat="45.92211" lon="4.75232">
        <ele>175</ele>
        <time>2018-10-20T08:29:30Z</time>
      </trkpt>
      <trkpt lat="45.92211" lon="4.75239">
        <ele>175</ele>
        <time>2018-10-20T08:29:31Z</time>
      </trkpt>
      <trkpt lat="45.92211" lon="4.75246">
        <ele>175</ele>
        <time>2018-10-20T08:29:32Z</time>
      </trkpt>
      <trkpt lat="45.92209" lon="4.75258">
        <ele>175</ele>
        <time>2018-10-20T08:29:34Z</time>
      </trkpt>
      <trkpt lat="45.92209" lon="4.75265">
        <ele>176</ele>
        <time>2018-10-20T08:29:35Z</time>
      </trkpt>
      <trkpt lat="45.92209" lon="4.75272">
        <ele>176</ele>
        <time>2018-10-20T08:29:36Z</time>
      </trkpt>
      <trkpt lat="45.92209" lon="4.75278">
        <ele>176</ele>
        <time>2018-10-20T08:29:37Z</time>
      </trkpt>
      <trkpt lat="45.92209" lon="4.75286">
        <ele>176</ele>
        <time>2018-10-20T08:29:38Z</time>
      </trkpt>
      <trkpt lat="45.92208" lon="4.75292">
        <ele>176</ele>
        <time>2018-10-20T08:29:39Z</time>
      </trkpt>
      <trkpt lat="45.92208" lon="4.75299">
        <ele>176</ele>
        <time>2018-10-20T08:29:40Z</time>
      </trkpt>
      <trkpt lat="45.92208" lon="4.75306">
        <ele>176</ele>
        <time>2018-10-20T08:29:41Z</time>
      </trkpt>
      <trkpt lat="45.92206" lon="4.75317">
        <ele>176</ele>
        <time>2018-10-20T08:29:44Z</time>
      </trkpt>
      <trkpt lat="45.92203" lon="4.75328">
        <ele>176</ele>
        <time>2018-10-20T08:29:45Z</time>
      </trkpt>
      <trkpt lat="45.92201" lon="4.75335">
        <ele>177</ele>
        <time>2018-10-20T08:29:46Z</time>
      </trkpt>
      <trkpt lat="45.92202" lon="4.75342">
        <ele>177</ele>
        <time>2018-10-20T08:29:47Z</time>
      </trkpt>
      <trkpt lat="45.922" lon="4.7535">
        <ele>177</ele>
        <time>2018-10-20T08:29:48Z</time>
      </trkpt>
      <trkpt lat="45.922" lon="4.75358">
        <ele>177</ele>
        <time>2018-10-20T08:29:49Z</time>
      </trkpt>
      <trkpt lat="45.92198" lon="4.75363">
        <ele>177</ele>
        <time>2018-10-20T08:29:50Z</time>
      </trkpt>
      <trkpt lat="45.92196" lon="4.75369">
        <ele>177</ele>
        <time>2018-10-20T08:29:51Z</time>
      </trkpt>
      <trkpt lat="45.92194" lon="4.75375">
        <ele>177</ele>
        <time>2018-10-20T08:29:52Z</time>
      </trkpt>
      <trkpt lat="45.92191" lon="4.75381">
        <ele>177</ele>
        <time>2018-10-20T08:29:53Z</time>
      </trkpt>
      <trkpt lat="45.92189" lon="4.75389">
        <ele>177</ele>
        <time>2018-10-20T08:29:54Z</time>
      </trkpt>
      <trkpt lat="45.92186" lon="4.75395">
        <ele>177</ele>
        <time>2018-10-20T08:29:55Z</time>
      </trkpt>
      <trkpt lat="45.92184" lon="4.75401">
        <ele>177</ele>
        <time>2018-10-20T08:29:56Z</time>
      </trkpt>
      <trkpt lat="45.9218" lon="4.75407">
        <ele>177</ele>
        <time>2018-10-20T08:29:57Z</time>
      </trkpt>
      <trkpt lat="45.92179" lon="4.75415">
        <ele>177</ele>
        <time>2018-10-20T08:29:58Z</time>
      </trkpt>
      <trkpt lat="45.92177" lon="4.75421">
        <ele>177</ele>
        <time>2018-10-20T08:29:59Z</time>
      </trkpt>
      <trkpt lat="45.92175" lon="4.75428">
        <ele>177</ele>
        <time>2018-10-20T08:30:00Z</time>
      </trkpt>
      <trkpt lat="45.92169" lon="4.75432">
        <ele>177</ele>
        <time>2018-10-20T08:30:01Z</time>
      </trkpt>
      <trkpt lat="45.9217" lon="4.7544">
        <ele>177</ele>
        <time>2018-10-20T08:30:02Z</time>
      </trkpt>
      <trkpt lat="45.92167" lon="4.75446">
        <ele>176</ele>
        <time>2018-10-20T08:30:03Z</time>
      </trkpt>
      <trkpt lat="45.92164" lon="4.75454">
        <ele>176</ele>
        <time>2018-10-20T08:30:04Z</time>
      </trkpt>
      <trkpt lat="45.92162" lon="4.75461">
        <ele>176</ele>
        <time>2018-10-20T08:30:05Z</time>
      </trkpt>
      <trkpt lat="45.92158" lon="4.75466">
        <ele>176</ele>
        <time>2018-10-20T08:30:06Z</time>
      </trkpt>
      <trkpt lat="45.92155" lon="4.75469">
        <ele>176</ele>
        <time>2018-10-20T08:30:07Z</time>
      </trkpt>
      <trkpt lat="45.9215" lon="4.75476">
        <ele>176</ele>
        <time>2018-10-20T08:30:08Z</time>
      </trkpt>
      <trkpt lat="45.92148" lon="4.75485">
        <ele>176</ele>
        <time>2018-10-20T08:30:09Z</time>
      </trkpt>
      <trkpt lat="45.92147" lon="4.75492">
        <ele>176</ele>
        <time>2018-10-20T08:30:10Z</time>
      </trkpt>
      <trkpt lat="45.92144" lon="4.75499">
        <ele>175</ele>
        <time>2018-10-20T08:30:11Z</time>
      </trkpt>
      <trkpt lat="45.9214" lon="4.75504">
        <ele>174</ele>
        <time>2018-10-20T08:30:12Z</time>
      </trkpt>
      <trkpt lat="45.92136" lon="4.7551">
        <ele>174</ele>
        <time>2018-10-20T08:30:13Z</time>
      </trkpt>
      <trkpt lat="45.92133" lon="4.75518">
        <ele>174</ele>
        <time>2018-10-20T08:30:14Z</time>
      </trkpt>
      <trkpt lat="45.92129" lon="4.75524">
        <ele>174</ele>
        <time>2018-10-20T08:30:15Z</time>
      </trkpt>
      <trkpt lat="45.92127" lon="4.75529">
        <ele>174</ele>
        <time>2018-10-20T08:30:16Z</time>
      </trkpt>
      <trkpt lat="45.92124" lon="4.75535">
        <ele>174</ele>
        <time>2018-10-20T08:30:17Z</time>
      </trkpt>
      <trkpt lat="45.9212" lon="4.7554">
        <ele>174</ele>
        <time>2018-10-20T08:30:18Z</time>
      </trkpt>
      <trkpt lat="45.92118" lon="4.75548">
        <ele>174</ele>
        <time>2018-10-20T08:30:19Z</time>
      </trkpt>
      <trkpt lat="45.92114" lon="4.75554">
        <ele>174</ele>
        <time>2018-10-20T08:30:20Z</time>
      </trkpt>
      <trkpt lat="45.92112" lon="4.75559">
        <ele>174</ele>
        <time>2018-10-20T08:30:21Z</time>
      </trkpt>
      <trkpt lat="45.92111" lon="4.75567">
        <ele>174</ele>
        <time>2018-10-20T08:30:22Z</time>
      </trkpt>
      <trkpt lat="45.92112" lon="4.75573">
        <ele>174</ele>
        <time>2018-10-20T08:30:23Z</time>
      </trkpt>
      <trkpt lat="45.92114" lon="4.7558">
        <ele>174</ele>
        <time>2018-10-20T08:30:24Z</time>
      </trkpt>
      <trkpt lat="45.92117" lon="4.75587">
        <ele>174</ele>
        <time>2018-10-20T08:30:25Z</time>
      </trkpt>
      <trkpt lat="45.92121" lon="4.75591">
        <ele>174</ele>
        <time>2018-10-20T08:30:26Z</time>
      </trkpt>
      <trkpt lat="45.92125" lon="4.75595">
        <ele>174</ele>
        <time>2018-10-20T08:30:27Z</time>
      </trkpt>
      <trkpt lat="45.92129" lon="4.75599">
        <ele>174</ele>
        <time>2018-10-20T08:30:28Z</time>
      </trkpt>
      <trkpt lat="45.92133" lon="4.75603">
        <ele>174</ele>
        <time>2018-10-20T08:30:29Z</time>
      </trkpt>
      <trkpt lat="45.92138" lon="4.75607">
        <ele>174</ele>
        <time>2018-10-20T08:30:30Z</time>
      </trkpt>
      <trkpt lat="45.92143" lon="4.75611">
        <ele>174</ele>
        <time>2018-10-20T08:30:31Z</time>
      </trkpt>
      <trkpt lat="45.92147" lon="4.75615">
        <ele>174</ele>
        <time>2018-10-20T08:30:32Z</time>
      </trkpt>
      <trkpt lat="45.92152" lon="4.75621">
        <ele>174</ele>
        <time>2018-10-20T08:30:33Z</time>
      </trkpt>
      <trkpt lat="45.92157" lon="4.75626">
        <ele>174</ele>
        <time>2018-10-20T08:30:34Z</time>
      </trkpt>
      <trkpt lat="45.92161" lon="4.75631">
        <ele>174</ele>
        <time>2018-10-20T08:30:35Z</time>
      </trkpt>
      <trkpt lat="45.92165" lon="4.75634">
        <ele>174</ele>
        <time>2018-10-20T08:30:36Z</time>
      </trkpt>
      <trkpt lat="45.9217" lon="4.75636">
        <ele>174</ele>
        <time>2018-10-20T08:30:37Z</time>
      </trkpt>
      <trkpt lat="45.92174" lon="4.7564">
        <ele>174</ele>
        <time>2018-10-20T08:30:38Z</time>
      </trkpt>
      <trkpt lat="45.92178" lon="4.75644">
        <ele>174</ele>
        <time>2018-10-20T08:30:39Z</time>
      </trkpt>
      <trkpt lat="45.92182" lon="4.75648">
        <ele>174</ele>
        <time>2018-10-20T08:30:40Z</time>
      </trkpt>
      <trkpt lat="45.92186" lon="4.75653">
        <ele>174</ele>
        <time>2018-10-20T08:30:41Z</time>
      </trkpt>
      <trkpt lat="45.9219" lon="4.75657">
        <ele>174</ele>
        <time>2018-10-20T08:30:42Z</time>
      </trkpt>
      <trkpt lat="45.92195" lon="4.75661">
        <ele>174</ele>
        <time>2018-10-20T08:30:43Z</time>
      </trkpt>
      <trkpt lat="45.92198" lon="4.75668">
        <ele>174</ele>
        <time>2018-10-20T08:30:44Z</time>
      </trkpt>
      <trkpt lat="45.92203" lon="4.75672">
        <ele>174</ele>
        <time>2018-10-20T08:30:45Z</time>
      </trkpt>
      <trkpt lat="45.92209" lon="4.75678">
        <ele>174</ele>
        <time>2018-10-20T08:30:47Z</time>
      </trkpt>
      <trkpt lat="45.92214" lon="4.75678">
        <ele>174</ele>
        <time>2018-10-20T08:30:48Z</time>
      </trkpt>
      <trkpt lat="45.92218" lon="4.75682">
        <ele>174</ele>
        <time>2018-10-20T08:30:49Z</time>
      </trkpt>
      <trkpt lat="45.92223" lon="4.75684">
        <ele>174</ele>
        <time>2018-10-20T08:30:50Z</time>
      </trkpt>
      <trkpt lat="45.92227" lon="4.7569">
        <ele>174</ele>
        <time>2018-10-20T08:30:52Z</time>
      </trkpt>
      <trkpt lat="45.92234" lon="4.75698">
        <ele>174</ele>
        <time>2018-10-20T08:30:53Z</time>
      </trkpt>
      <trkpt lat="45.92237" lon="4.75705">
        <ele>174</ele>
        <time>2018-10-20T08:30:54Z</time>
      </trkpt>
      <trkpt lat="45.92241" lon="4.75712">
        <ele>174</ele>
        <time>2018-10-20T08:30:55Z</time>
      </trkpt>
      <trkpt lat="45.92244" lon="4.75718">
        <ele>174</ele>
        <time>2018-10-20T08:30:56Z</time>
      </trkpt>
      <trkpt lat="45.92247" lon="4.75725">
        <ele>174</ele>
        <time>2018-10-20T08:30:57Z</time>
      </trkpt>
      <trkpt lat="45.92249" lon="4.75731">
        <ele>174</ele>
        <time>2018-10-20T08:30:58Z</time>
      </trkpt>
      <trkpt lat="45.9225" lon="4.75738">
        <ele>174</ele>
        <time>2018-10-20T08:30:59Z</time>
      </trkpt>
      <trkpt lat="45.92252" lon="4.75746">
        <ele>174</ele>
        <time>2018-10-20T08:31:00Z</time>
      </trkpt>
      <trkpt lat="45.92255" lon="4.75751">
        <ele>174</ele>
        <time>2018-10-20T08:31:01Z</time>
      </trkpt>
      <trkpt lat="45.92256" lon="4.75757">
        <ele>174</ele>
        <time>2018-10-20T08:31:02Z</time>
      </trkpt>
      <trkpt lat="45.92258" lon="4.75765">
        <ele>174</ele>
        <time>2018-10-20T08:31:03Z</time>
      </trkpt>
      <trkpt lat="45.92259" lon="4.75772">
        <ele>174</ele>
        <time>2018-10-20T08:31:04Z</time>
      </trkpt>
      <trkpt lat="45.9226" lon="4.75779">
        <ele>174</ele>
        <time>2018-10-20T08:31:05Z</time>
      </trkpt>
      <trkpt lat="45.92261" lon="4.75785">
        <ele>174</ele>
        <time>2018-10-20T08:31:06Z</time>
      </trkpt>
      <trkpt lat="45.92263" lon="4.75791">
        <ele>174</ele>
        <time>2018-10-20T08:31:07Z</time>
      </trkpt>
      <trkpt lat="45.92265" lon="4.75799">
        <ele>174</ele>
        <time>2018-10-20T08:31:08Z</time>
      </trkpt>
      <trkpt lat="45.92269" lon="4.75806">
        <ele>174</ele>
        <time>2018-10-20T08:31:09Z</time>
      </trkpt>
      <trkpt lat="45.92273" lon="4.75814">
        <ele>174</ele>
        <time>2018-10-20T08:31:10Z</time>
      </trkpt>
      <trkpt lat="45.92277" lon="4.75819">
        <ele>174</ele>
        <time>2018-10-20T08:31:11Z</time>
      </trkpt>
      <trkpt lat="45.92282" lon="4.75825">
        <ele>174</ele>
        <time>2018-10-20T08:31:12Z</time>
      </trkpt>
      <trkpt lat="45.92287" lon="4.75829">
        <ele>174</ele>
        <time>2018-10-20T08:31:13Z</time>
      </trkpt>
      <trkpt lat="45.92293" lon="4.75833">
        <ele>174</ele>
        <time>2018-10-20T08:31:14Z</time>
      </trkpt>
      <trkpt lat="45.92298" lon="4.75836">
        <ele>173</ele>
        <time>2018-10-20T08:31:15Z</time>
      </trkpt>
      <trkpt lat="45.92303" lon="4.7584">
        <ele>173</ele>
        <time>2018-10-20T08:31:16Z</time>
      </trkpt>
      <trkpt lat="45.92308" lon="4.75844">
        <ele>173</ele>
        <time>2018-10-20T08:31:17Z</time>
      </trkpt>
      <trkpt lat="45.92314" lon="4.75847">
        <ele>174</ele>
        <time>2018-10-20T08:31:18Z</time>
      </trkpt>
      <trkpt lat="45.92319" lon="4.75851">
        <ele>174</ele>
        <time>2018-10-20T08:31:19Z</time>
      </trkpt>
      <trkpt lat="45.92324" lon="4.75852">
        <ele>174</ele>
        <time>2018-10-20T08:31:20Z</time>
      </trkpt>
      <trkpt lat="45.9233" lon="4.75856">
        <ele>174</ele>
        <time>2018-10-20T08:31:21Z</time>
      </trkpt>
      <trkpt lat="45.92334" lon="4.75861">
        <ele>173</ele>
        <time>2018-10-20T08:31:22Z</time>
      </trkpt>
      <trkpt lat="45.9234" lon="4.75864">
        <ele>173</ele>
        <time>2018-10-20T08:31:23Z</time>
      </trkpt>
      <trkpt lat="45.92345" lon="4.75868">
        <ele>173</ele>
        <time>2018-10-20T08:31:24Z</time>
      </trkpt>
      <trkpt lat="45.9235" lon="4.75872">
        <ele>173</ele>
        <time>2018-10-20T08:31:25Z</time>
      </trkpt>
      <trkpt lat="45.92355" lon="4.75876">
        <ele>173</ele>
        <time>2018-10-20T08:31:26Z</time>
      </trkpt>
      <trkpt lat="45.9236" lon="4.75879">
        <ele>173</ele>
        <time>2018-10-20T08:31:27Z</time>
      </trkpt>
      <trkpt lat="45.92366" lon="4.75881">
        <ele>173</ele>
        <time>2018-10-20T08:31:28Z</time>
      </trkpt>
      <trkpt lat="45.9237" lon="4.75884">
        <ele>173</ele>
        <time>2018-10-20T08:31:29Z</time>
      </trkpt>
      <trkpt lat="45.92375" lon="4.75887">
        <ele>173</ele>
        <time>2018-10-20T08:31:30Z</time>
      </trkpt>
      <trkpt lat="45.9238" lon="4.75891">
        <ele>173</ele>
        <time>2018-10-20T08:31:31Z</time>
      </trkpt>
      <trkpt lat="45.92385" lon="4.75894">
        <ele>173</ele>
        <time>2018-10-20T08:31:32Z</time>
      </trkpt>
      <trkpt lat="45.92389" lon="4.75897">
        <ele>173</ele>
        <time>2018-10-20T08:31:33Z</time>
      </trkpt>
      <trkpt lat="45.92395" lon="4.75901">
        <ele>173</ele>
        <time>2018-10-20T08:31:34Z</time>
      </trkpt>
      <trkpt lat="45.92401" lon="4.75902">
        <ele>173</ele>
        <time>2018-10-20T08:31:35Z</time>
      </trkpt>
      <trkpt lat="45.92405" lon="4.75905">
        <ele>172</ele>
        <time>2018-10-20T08:31:36Z</time>
      </trkpt>
      <trkpt lat="45.92409" lon="4.75909">
        <ele>172</ele>
        <time>2018-10-20T08:31:37Z</time>
      </trkpt>
      <trkpt lat="45.92414" lon="4.75913">
        <ele>172</ele>
        <time>2018-10-20T08:31:38Z</time>
      </trkpt>
      <trkpt lat="45.92418" lon="4.75916">
        <ele>172</ele>
        <time>2018-10-20T08:31:39Z</time>
      </trkpt>
      <trkpt lat="45.92423" lon="4.75919">
        <ele>172</ele>
        <time>2018-10-20T08:31:40Z</time>
      </trkpt>
      <trkpt lat="45.92427" lon="4.75924">
        <ele>172</ele>
        <time>2018-10-20T08:31:41Z</time>
      </trkpt>
      <trkpt lat="45.9243" lon="4.75927">
        <ele>172</ele>
        <time>2018-10-20T08:31:42Z</time>
      </trkpt>
      <trkpt lat="45.92435" lon="4.7593">
        <ele>172</ele>
        <time>2018-10-20T08:31:43Z</time>
      </trkpt>
      <trkpt lat="45.92439" lon="4.75934">
        <ele>172</ele>
        <time>2018-10-20T08:31:44Z</time>
      </trkpt>
      <trkpt lat="45.92446" lon="4.75939">
        <ele>172</ele>
        <time>2018-10-20T08:31:45Z</time>
      </trkpt>
      <trkpt lat="45.92453" lon="4.75945">
        <ele>172</ele>
        <time>2018-10-20T08:31:47Z</time>
      </trkpt>
      <trkpt lat="45.92457" lon="4.75948">
        <ele>172</ele>
        <time>2018-10-20T08:31:48Z</time>
      </trkpt>
      <trkpt lat="45.92462" lon="4.7595">
        <ele>172</ele>
        <time>2018-10-20T08:31:49Z</time>
      </trkpt>
      <trkpt lat="45.92465" lon="4.75954">
        <ele>172</ele>
        <time>2018-10-20T08:31:50Z</time>
      </trkpt>
      <trkpt lat="45.9247" lon="4.75955">
        <ele>172</ele>
        <time>2018-10-20T08:31:51Z</time>
      </trkpt>
      <trkpt lat="45.92474" lon="4.75959">
        <ele>172</ele>
        <time>2018-10-20T08:31:52Z</time>
      </trkpt>
      <trkpt lat="45.92481" lon="4.75965">
        <ele>172</ele>
        <time>2018-10-20T08:31:54Z</time>
      </trkpt>
      <trkpt lat="45.92485" lon="4.75968">
        <ele>172</ele>
        <time>2018-10-20T08:31:55Z</time>
      </trkpt>
      <trkpt lat="45.92489" lon="4.75971">
        <ele>172</ele>
        <time>2018-10-20T08:31:56Z</time>
      </trkpt>
      <trkpt lat="45.92493" lon="4.75975">
        <ele>172</ele>
        <time>2018-10-20T08:31:57Z</time>
      </trkpt>
      <trkpt lat="45.92501" lon="4.75981">
        <ele>172</ele>
        <time>2018-10-20T08:31:59Z</time>
      </trkpt>
      <trkpt lat="45.92506" lon="4.75984">
        <ele>172</ele>
        <time>2018-10-20T08:32:00Z</time>
      </trkpt>
      <trkpt lat="45.9251" lon="4.75987">
        <ele>172</ele>
        <time>2018-10-20T08:32:01Z</time>
      </trkpt>
      <trkpt lat="45.92515" lon="4.75992">
        <ele>172</ele>
        <time>2018-10-20T08:32:02Z</time>
      </trkpt>
      <trkpt lat="45.9252" lon="4.75994">
        <ele>172</ele>
        <time>2018-10-20T08:32:03Z</time>
      </trkpt>
      <trkpt lat="45.92524" lon="4.75997">
        <ele>172</ele>
        <time>2018-10-20T08:32:04Z</time>
      </trkpt>
      <trkpt lat="45.92529" lon="4.76">
        <ele>172</ele>
        <time>2018-10-20T08:32:05Z</time>
      </trkpt>
      <trkpt lat="45.92533" lon="4.76003">
        <ele>172</ele>
        <time>2018-10-20T08:32:06Z</time>
      </trkpt>
      <trkpt lat="45.92537" lon="4.76006">
        <ele>172</ele>
        <time>2018-10-20T08:32:07Z</time>
      </trkpt>
      <trkpt lat="45.92541" lon="4.76009">
        <ele>172</ele>
        <time>2018-10-20T08:32:08Z</time>
      </trkpt>
      <trkpt lat="45.92546" lon="4.76015">
        <ele>172</ele>
        <time>2018-10-20T08:32:10Z</time>
      </trkpt>
      <trkpt lat="45.9255" lon="4.76018">
        <ele>172</ele>
        <time>2018-10-20T08:32:11Z</time>
      </trkpt>
      <trkpt lat="45.92553" lon="4.76022">
        <ele>172</ele>
        <time>2018-10-20T08:32:12Z</time>
      </trkpt>
      <trkpt lat="45.92558" lon="4.76025">
        <ele>172</ele>
        <time>2018-10-20T08:32:13Z</time>
      </trkpt>
      <trkpt lat="45.92562" lon="4.76028">
        <ele>172</ele>
        <time>2018-10-20T08:32:14Z</time>
      </trkpt>
      <trkpt lat="45.92566" lon="4.76032">
        <ele>172</ele>
        <time>2018-10-20T08:32:15Z</time>
      </trkpt>
      <trkpt lat="45.9257" lon="4.76036">
        <ele>172</ele>
        <time>2018-10-20T08:32:16Z</time>
      </trkpt>
      <trkpt lat="45.92576" lon="4.76035">
        <ele>172</ele>
        <time>2018-10-20T08:32:17Z</time>
      </trkpt>
      <trkpt lat="45.92581" lon="4.76038">
        <ele>172</ele>
        <time>2018-10-20T08:32:18Z</time>
      </trkpt>
      <trkpt lat="45.92586" lon="4.76041">
        <ele>171</ele>
        <time>2018-10-20T08:32:19Z</time>
      </trkpt>
      <trkpt lat="45.92592" lon="4.76043">
        <ele>171</ele>
        <time>2018-10-20T08:32:20Z</time>
      </trkpt>
      <trkpt lat="45.92597" lon="4.76046">
        <ele>171</ele>
        <time>2018-10-20T08:32:21Z</time>
      </trkpt>
      <trkpt lat="45.92602" lon="4.76049">
        <ele>171</ele>
        <time>2018-10-20T08:32:22Z</time>
      </trkpt>
      <trkpt lat="45.92606" lon="4.76053">
        <ele>171</ele>
        <time>2018-10-20T08:32:23Z</time>
      </trkpt>
      <trkpt lat="45.92611" lon="4.76056">
        <ele>171</ele>
        <time>2018-10-20T08:32:24Z</time>
      </trkpt>
      <trkpt lat="45.92615" lon="4.7606">
        <ele>171</ele>
        <time>2018-10-20T08:32:25Z</time>
      </trkpt>
      <trkpt lat="45.9262" lon="4.76065">
        <ele>171</ele>
        <time>2018-10-20T08:32:26Z</time>
      </trkpt>
      <trkpt lat="45.92626" lon="4.76067">
        <ele>170</ele>
        <time>2018-10-20T08:32:27Z</time>
      </trkpt>
      <trkpt lat="45.9263" lon="4.7607">
        <ele>170</ele>
        <time>2018-10-20T08:32:28Z</time>
      </trkpt>
      <trkpt lat="45.92636" lon="4.76074">
        <ele>170</ele>
        <time>2018-10-20T08:32:29Z</time>
      </trkpt>
      <trkpt lat="45.92641" lon="4.76076">
        <ele>170</ele>
        <time>2018-10-20T08:32:30Z</time>
      </trkpt>
      <trkpt lat="45.92647" lon="4.76079">
        <ele>170</ele>
        <time>2018-10-20T08:32:31Z</time>
      </trkpt>
      <trkpt lat="45.92653" lon="4.76083">
        <ele>170</ele>
        <time>2018-10-20T08:32:32Z</time>
      </trkpt>
      <trkpt lat="45.92658" lon="4.76087">
        <ele>170</ele>
        <time>2018-10-20T08:32:33Z</time>
      </trkpt>
      <trkpt lat="45.92664" lon="4.76091">
        <ele>170</ele>
        <time>2018-10-20T08:32:34Z</time>
      </trkpt>
      <trkpt lat="45.92671" lon="4.76095">
        <ele>169</ele>
        <time>2018-10-20T08:32:35Z</time>
      </trkpt>
      <trkpt lat="45.92678" lon="4.76099">
        <ele>169</ele>
        <time>2018-10-20T08:32:36Z</time>
      </trkpt>
      <trkpt lat="45.92683" lon="4.76103">
        <ele>169</ele>
        <time>2018-10-20T08:32:37Z</time>
      </trkpt>
      <trkpt lat="45.9269" lon="4.76108">
        <ele>169</ele>
        <time>2018-10-20T08:32:38Z</time>
      </trkpt>
      <trkpt lat="45.92696" lon="4.76112">
        <ele>169</ele>
        <time>2018-10-20T08:32:39Z</time>
      </trkpt>
      <trkpt lat="45.92702" lon="4.76117">
        <ele>169</ele>
        <time>2018-10-20T08:32:40Z</time>
      </trkpt>
      <trkpt lat="45.92709" lon="4.76121">
        <ele>168</ele>
        <time>2018-10-20T08:32:41Z</time>
      </trkpt>
      <trkpt lat="45.92715" lon="4.76124">
        <ele>168</ele>
        <time>2018-10-20T08:32:42Z</time>
      </trkpt>
      <trkpt lat="45.92721" lon="4.76128">
        <ele>168</ele>
        <time>2018-10-20T08:32:43Z</time>
      </trkpt>
      <trkpt lat="45.92728" lon="4.76133">
        <ele>168</ele>
        <time>2018-10-20T08:32:44Z</time>
      </trkpt>
      <trkpt lat="45.92734" lon="4.76138">
        <ele>168</ele>
        <time>2018-10-20T08:32:45Z</time>
      </trkpt>
      <trkpt lat="45.9274" lon="4.76143">
        <ele>168</ele>
        <time>2018-10-20T08:32:46Z</time>
      </trkpt>
      <trkpt lat="45.92746" lon="4.7615">
        <ele>168</ele>
        <time>2018-10-20T08:32:47Z</time>
      </trkpt>
      <trkpt lat="45.92752" lon="4.76155">
        <ele>167</ele>
        <time>2018-10-20T08:32:48Z</time>
      </trkpt>
      <trkpt lat="45.92758" lon="4.76159">
        <ele>167</ele>
        <time>2018-10-20T08:32:49Z</time>
      </trkpt>
      <trkpt lat="45.92764" lon="4.76167">
        <ele>167</ele>
        <time>2018-10-20T08:32:50Z</time>
      </trkpt>
      <trkpt lat="45.92769" lon="4.76169">
        <ele>167</ele>
        <time>2018-10-20T08:32:51Z</time>
      </trkpt>
      <trkpt lat="45.92773" lon="4.76174">
        <ele>167</ele>
        <time>2018-10-20T08:32:52Z</time>
      </trkpt>
      <trkpt lat="45.92778" lon="4.76176">
        <ele>167</ele>
        <time>2018-10-20T08:32:53Z</time>
      </trkpt>
      <trkpt lat="45.92783" lon="4.76181">
        <ele>168</ele>
        <time>2018-10-20T08:32:54Z</time>
      </trkpt>
      <trkpt lat="45.92787" lon="4.76185">
        <ele>168</ele>
        <time>2018-10-20T08:32:55Z</time>
      </trkpt>
      <trkpt lat="45.92791" lon="4.76189">
        <ele>168</ele>
        <time>2018-10-20T08:32:56Z</time>
      </trkpt>
      <trkpt lat="45.92795" lon="4.76193">
        <ele>168</ele>
        <time>2018-10-20T08:32:57Z</time>
      </trkpt>
      <trkpt lat="45.928" lon="4.76199">
        <ele>168</ele>
        <time>2018-10-20T08:32:58Z</time>
      </trkpt>
      <trkpt lat="45.92804" lon="4.76205">
        <ele>168</ele>
        <time>2018-10-20T08:32:59Z</time>
      </trkpt>
      <trkpt lat="45.92809" lon="4.7621">
        <ele>168</ele>
        <time>2018-10-20T08:33:00Z</time>
      </trkpt>
      <trkpt lat="45.92814" lon="4.76215">
        <ele>168</ele>
        <time>2018-10-20T08:33:01Z</time>
      </trkpt>
      <trkpt lat="45.92819" lon="4.7622">
        <ele>168</ele>
        <time>2018-10-20T08:33:02Z</time>
      </trkpt>
      <trkpt lat="45.92824" lon="4.76225">
        <ele>168</ele>
        <time>2018-10-20T08:33:03Z</time>
      </trkpt>
      <trkpt lat="45.9283" lon="4.76229">
        <ele>168</ele>
        <time>2018-10-20T08:33:04Z</time>
      </trkpt>
      <trkpt lat="45.92835" lon="4.76234">
        <ele>169</ele>
        <time>2018-10-20T08:33:05Z</time>
      </trkpt>
      <trkpt lat="45.92841" lon="4.76239">
        <ele>169</ele>
        <time>2018-10-20T08:33:06Z</time>
      </trkpt>
      <trkpt lat="45.92845" lon="4.76245">
        <ele>169</ele>
        <time>2018-10-20T08:33:07Z</time>
      </trkpt>
      <trkpt lat="45.9285" lon="4.7625">
        <ele>169</ele>
        <time>2018-10-20T08:33:08Z</time>
      </trkpt>
      <trkpt lat="45.92853" lon="4.76252">
        <ele>169</ele>
        <time>2018-10-20T08:33:09Z</time>
      </trkpt>
      <trkpt lat="45.92858" lon="4.76258">
        <ele>169</ele>
        <time>2018-10-20T08:33:10Z</time>
      </trkpt>
      <trkpt lat="45.92863" lon="4.76262">
        <ele>169</ele>
        <time>2018-10-20T08:33:11Z</time>
      </trkpt>
      <trkpt lat="45.92868" lon="4.76268">
        <ele>169</ele>
        <time>2018-10-20T08:33:13Z</time>
      </trkpt>
      <trkpt lat="45.92875" lon="4.76276">
        <ele>169</ele>
        <time>2018-10-20T08:33:14Z</time>
      </trkpt>
      <trkpt lat="45.92879" lon="4.7628">
        <ele>169</ele>
        <time>2018-10-20T08:33:15Z</time>
      </trkpt>
      <trkpt lat="45.92883" lon="4.76284">
        <ele>169</ele>
        <time>2018-10-20T08:33:16Z</time>
      </trkpt>
      <trkpt lat="45.92887" lon="4.76289">
        <ele>169</ele>
        <time>2018-10-20T08:33:17Z</time>
      </trkpt>
      <trkpt lat="45.92892" lon="4.76294">
        <ele>169</ele>
        <time>2018-10-20T08:33:18Z</time>
      </trkpt>
      <trkpt lat="45.92896" lon="4.76297">
        <ele>169</ele>
        <time>2018-10-20T08:33:19Z</time>
      </trkpt>
      <trkpt lat="45.929" lon="4.76301">
        <ele>169</ele>
        <time>2018-10-20T08:33:20Z</time>
      </trkpt>
      <trkpt lat="45.92904" lon="4.76306">
        <ele>169</ele>
        <time>2018-10-20T08:33:21Z</time>
      </trkpt>
      <trkpt lat="45.92909" lon="4.7631">
        <ele>169</ele>
        <time>2018-10-20T08:33:22Z</time>
      </trkpt>
      <trkpt lat="45.92914" lon="4.76314">
        <ele>169</ele>
        <time>2018-10-20T08:33:23Z</time>
      </trkpt>
      <trkpt lat="45.92918" lon="4.76317">
        <ele>169</ele>
        <time>2018-10-20T08:33:24Z</time>
      </trkpt>
      <trkpt lat="45.92922" lon="4.76323">
        <ele>169</ele>
        <time>2018-10-20T08:33:25Z</time>
      </trkpt>
      <trkpt lat="45.92925" lon="4.76327">
        <ele>169</ele>
        <time>2018-10-20T08:33:26Z</time>
      </trkpt>
      <trkpt lat="45.9293" lon="4.76332">
        <ele>169</ele>
        <time>2018-10-20T08:33:27Z</time>
      </trkpt>
      <trkpt lat="45.92934" lon="4.76334">
        <ele>169</ele>
        <time>2018-10-20T08:33:28Z</time>
      </trkpt>
      <trkpt lat="45.92939" lon="4.76339">
        <ele>169</ele>
        <time>2018-10-20T08:33:29Z</time>
      </trkpt>
      <trkpt lat="45.92944" lon="4.76343">
        <ele>169</ele>
        <time>2018-10-20T08:33:30Z</time>
      </trkpt>
      <trkpt lat="45.92948" lon="4.76348">
        <ele>169</ele>
        <time>2018-10-20T08:33:31Z</time>
      </trkpt>
      <trkpt lat="45.92952" lon="4.76353">
        <ele>169</ele>
        <time>2018-10-20T08:33:32Z</time>
      </trkpt>
      <trkpt lat="45.92956" lon="4.76357">
        <ele>169</ele>
        <time>2018-10-20T08:33:33Z</time>
      </trkpt>
      <trkpt lat="45.9296" lon="4.76361">
        <ele>169</ele>
        <time>2018-10-20T08:33:34Z</time>
      </trkpt>
      <trkpt lat="45.92964" lon="4.76366">
        <ele>169</ele>
        <time>2018-10-20T08:33:35Z</time>
      </trkpt>
      <trkpt lat="45.92968" lon="4.76369">
        <ele>169</ele>
        <time>2018-10-20T08:33:36Z</time>
      </trkpt>
      <trkpt lat="45.92975" lon="4.76376">
        <ele>169</ele>
        <time>2018-10-20T08:33:38Z</time>
      </trkpt>
      <trkpt lat="45.9298" lon="4.76379">
        <ele>169</ele>
        <time>2018-10-20T08:33:39Z</time>
      </trkpt>
      <trkpt lat="45.92984" lon="4.76383">
        <ele>169</ele>
        <time>2018-10-20T08:33:40Z</time>
      </trkpt>
      <trkpt lat="45.92989" lon="4.76389">
        <ele>169</ele>
        <time>2018-10-20T08:33:41Z</time>
      </trkpt>
      <trkpt lat="45.92994" lon="4.76394">
        <ele>169</ele>
        <time>2018-10-20T08:33:42Z</time>
      </trkpt>
      <trkpt lat="45.92999" lon="4.76398">
        <ele>169</ele>
        <time>2018-10-20T08:33:43Z</time>
      </trkpt>
      <trkpt lat="45.93005" lon="4.76402">
        <ele>169</ele>
        <time>2018-10-20T08:33:44Z</time>
      </trkpt>
      <trkpt lat="45.9301" lon="4.76408">
        <ele>169</ele>
        <time>2018-10-20T08:33:45Z</time>
      </trkpt>
      <trkpt lat="45.93015" lon="4.76413">
        <ele>169</ele>
        <time>2018-10-20T08:33:46Z</time>
      </trkpt>
      <trkpt lat="45.9302" lon="4.76415">
        <ele>169</ele>
        <time>2018-10-20T08:33:47Z</time>
      </trkpt>
      <trkpt lat="45.93024" lon="4.7642">
        <ele>169</ele>
        <time>2018-10-20T08:33:48Z</time>
      </trkpt>
      <trkpt lat="45.93029" lon="4.76425">
        <ele>169</ele>
        <time>2018-10-20T08:33:49Z</time>
      </trkpt>
      <trkpt lat="45.93034" lon="4.76429">
        <ele>169</ele>
        <time>2018-10-20T08:33:50Z</time>
      </trkpt>
      <trkpt lat="45.93038" lon="4.76435">
        <ele>169</ele>
        <time>2018-10-20T08:33:51Z</time>
      </trkpt>
      <trkpt lat="45.93043" lon="4.7644">
        <ele>169</ele>
        <time>2018-10-20T08:33:52Z</time>
      </trkpt>
      <trkpt lat="45.93048" lon="4.76445">
        <ele>169</ele>
        <time>2018-10-20T08:33:53Z</time>
      </trkpt>
      <trkpt lat="45.93052" lon="4.7645">
        <ele>169</ele>
        <time>2018-10-20T08:33:54Z</time>
      </trkpt>
      <trkpt lat="45.93057" lon="4.76454">
        <ele>169</ele>
        <time>2018-10-20T08:33:55Z</time>
      </trkpt>
      <trkpt lat="45.93061" lon="4.76458">
        <ele>169</ele>
        <time>2018-10-20T08:33:56Z</time>
      </trkpt>
      <trkpt lat="45.93067" lon="4.76462">
        <ele>169</ele>
        <time>2018-10-20T08:33:57Z</time>
      </trkpt>
      <trkpt lat="45.93071" lon="4.76467">
        <ele>169</ele>
        <time>2018-10-20T08:33:58Z</time>
      </trkpt>
      <trkpt lat="45.93074" lon="4.7647">
        <ele>169</ele>
        <time>2018-10-20T08:33:59Z</time>
      </trkpt>
      <trkpt lat="45.93078" lon="4.76473">
        <ele>169</ele>
        <time>2018-10-20T08:34:00Z</time>
      </trkpt>
      <trkpt lat="45.93081" lon="4.76478">
        <ele>169</ele>
        <time>2018-10-20T08:34:01Z</time>
      </trkpt>
      <trkpt lat="45.93086" lon="4.76482">
        <ele>169</ele>
        <time>2018-10-20T08:34:02Z</time>
      </trkpt>
      <trkpt lat="45.93089" lon="4.76486">
        <ele>170</ele>
        <time>2018-10-20T08:34:03Z</time>
      </trkpt>
      <trkpt lat="45.93093" lon="4.7649">
        <ele>170</ele>
        <time>2018-10-20T08:34:04Z</time>
      </trkpt>
      <trkpt lat="45.93098" lon="4.76495">
        <ele>170</ele>
        <time>2018-10-20T08:34:05Z</time>
      </trkpt>
      <trkpt lat="45.93103" lon="4.765">
        <ele>170</ele>
        <time>2018-10-20T08:34:06Z</time>
      </trkpt>
      <trkpt lat="45.93108" lon="4.76505">
        <ele>170</ele>
        <time>2018-10-20T08:34:07Z</time>
      </trkpt>
      <trkpt lat="45.93113" lon="4.7651">
        <ele>170</ele>
        <time>2018-10-20T08:34:08Z</time>
      </trkpt>
      <trkpt lat="45.93118" lon="4.76515">
        <ele>170</ele>
        <time>2018-10-20T08:34:09Z</time>
      </trkpt>
      <trkpt lat="45.93122" lon="4.76518">
        <ele>170</ele>
        <time>2018-10-20T08:34:10Z</time>
      </trkpt>
      <trkpt lat="45.93127" lon="4.76523">
        <ele>170</ele>
        <time>2018-10-20T08:34:11Z</time>
      </trkpt>
      <trkpt lat="45.93131" lon="4.76528">
        <ele>170</ele>
        <time>2018-10-20T08:34:12Z</time>
      </trkpt>
      <trkpt lat="45.93135" lon="4.76531">
        <ele>170</ele>
        <time>2018-10-20T08:34:13Z</time>
      </trkpt>
      <trkpt lat="45.9314" lon="4.7654">
        <ele>170</ele>
        <time>2018-10-20T08:34:15Z</time>
      </trkpt>
      <trkpt lat="45.93144" lon="4.76543">
        <ele>170</ele>
        <time>2018-10-20T08:34:16Z</time>
      </trkpt>
      <trkpt lat="45.9315" lon="4.7655">
        <ele>170</ele>
        <time>2018-10-20T08:34:18Z</time>
      </trkpt>
      <trkpt lat="45.93151" lon="4.76551">
        <ele>170</ele>
        <time>2018-10-20T08:34:19Z</time>
      </trkpt>
      <trkpt lat="45.93155" lon="4.76558">
        <ele>170</ele>
        <time>2018-10-20T08:34:22Z</time>
      </trkpt>
      <trkpt lat="45.93166" lon="4.76568">
        <ele>170</ele>
        <time>2018-10-20T08:34:23Z</time>
      </trkpt>
      <trkpt lat="45.93172" lon="4.76576">
        <ele>170</ele>
        <time>2018-10-20T08:34:24Z</time>
      </trkpt>
      <trkpt lat="45.93175" lon="4.76581">
        <ele>170</ele>
        <time>2018-10-20T08:34:25Z</time>
      </trkpt>
      <trkpt lat="45.9318" lon="4.76585">
        <ele>171</ele>
        <time>2018-10-20T08:34:26Z</time>
      </trkpt>
      <trkpt lat="45.93185" lon="4.7659">
        <ele>171</ele>
        <time>2018-10-20T08:34:27Z</time>
      </trkpt>
      <trkpt lat="45.93191" lon="4.76593">
        <ele>170</ele>
        <time>2018-10-20T08:34:28Z</time>
      </trkpt>
      <trkpt lat="45.93196" lon="4.76598">
        <ele>170</ele>
        <time>2018-10-20T08:34:29Z</time>
      </trkpt>
      <trkpt lat="45.93201" lon="4.76602">
        <ele>170</ele>
        <time>2018-10-20T08:34:30Z</time>
      </trkpt>
      <trkpt lat="45.93206" lon="4.76607">
        <ele>170</ele>
        <time>2018-10-20T08:34:31Z</time>
      </trkpt>
      <trkpt lat="45.9321" lon="4.76611">
        <ele>170</ele>
        <time>2018-10-20T08:34:32Z</time>
      </trkpt>
      <trkpt lat="45.93216" lon="4.76616">
        <ele>170</ele>
        <time>2018-10-20T08:34:33Z</time>
      </trkpt>
      <trkpt lat="45.93223" lon="4.76622">
        <ele>170</ele>
        <time>2018-10-20T08:34:35Z</time>
      </trkpt>
      <trkpt lat="45.93228" lon="4.76627">
        <ele>170</ele>
        <time>2018-10-20T08:34:36Z</time>
      </trkpt>
      <trkpt lat="45.93235" lon="4.76634">
        <ele>171</ele>
        <time>2018-10-20T08:34:38Z</time>
      </trkpt>
      <trkpt lat="45.93239" lon="4.76638">
        <ele>171</ele>
        <time>2018-10-20T08:34:39Z</time>
      </trkpt>
      <trkpt lat="45.93243" lon="4.76644">
        <ele>171</ele>
        <time>2018-10-20T08:34:40Z</time>
      </trkpt>
      <trkpt lat="45.93249" lon="4.76648">
        <ele>171</ele>
        <time>2018-10-20T08:34:41Z</time>
      </trkpt>
      <trkpt lat="45.93256" lon="4.76653">
        <ele>171</ele>
        <time>2018-10-20T08:34:42Z</time>
      </trkpt>
      <trkpt lat="45.9326" lon="4.76658">
        <ele>171</ele>
        <time>2018-10-20T08:34:43Z</time>
      </trkpt>
      <trkpt lat="45.93264" lon="4.76662">
        <ele>171</ele>
        <time>2018-10-20T08:34:44Z</time>
      </trkpt>
      <trkpt lat="45.9327" lon="4.76666">
        <ele>171</ele>
        <time>2018-10-20T08:34:45Z</time>
      </trkpt>
      <trkpt lat="45.93276" lon="4.76674">
        <ele>172</ele>
        <time>2018-10-20T08:34:47Z</time>
      </trkpt>
      <trkpt lat="45.9328" lon="4.76678">
        <ele>172</ele>
        <time>2018-10-20T08:34:48Z</time>
      </trkpt>
      <trkpt lat="45.93285" lon="4.76683">
        <ele>172</ele>
        <time>2018-10-20T08:34:49Z</time>
      </trkpt>
      <trkpt lat="45.93287" lon="4.76687">
        <ele>172</ele>
        <time>2018-10-20T08:34:50Z</time>
      </trkpt>
      <trkpt lat="45.93293" lon="4.76695">
        <ele>172</ele>
        <time>2018-10-20T08:34:52Z</time>
      </trkpt>
      <trkpt lat="45.93296" lon="4.76698">
        <ele>172</ele>
        <time>2018-10-20T08:34:53Z</time>
      </trkpt>
      <trkpt lat="45.933" lon="4.767">
        <ele>172</ele>
        <time>2018-10-20T08:34:54Z</time>
      </trkpt>
      <trkpt lat="45.93305" lon="4.76706">
        <ele>172</ele>
        <time>2018-10-20T08:34:55Z</time>
      </trkpt>
      <trkpt lat="45.93309" lon="4.76709">
        <ele>172</ele>
        <time>2018-10-20T08:34:56Z</time>
      </trkpt>
      <trkpt lat="45.93313" lon="4.76713">
        <ele>172</ele>
        <time>2018-10-20T08:34:57Z</time>
      </trkpt>
      <trkpt lat="45.93317" lon="4.76718">
        <ele>172</ele>
        <time>2018-10-20T08:34:58Z</time>
      </trkpt>
      <trkpt lat="45.93322" lon="4.76723">
        <ele>172</ele>
        <time>2018-10-20T08:34:59Z</time>
      </trkpt>
      <trkpt lat="45.93327" lon="4.76727">
        <ele>172</ele>
        <time>2018-10-20T08:35:00Z</time>
      </trkpt>
      <trkpt lat="45.9333" lon="4.76731">
        <ele>172</ele>
        <time>2018-10-20T08:35:01Z</time>
      </trkpt>
      <trkpt lat="45.93335" lon="4.76737">
        <ele>172</ele>
        <time>2018-10-20T08:35:02Z</time>
      </trkpt>
      <trkpt lat="45.93339" lon="4.76742">
        <ele>173</ele>
        <time>2018-10-20T08:35:03Z</time>
      </trkpt>
      <trkpt lat="45.93344" lon="4.76746">
        <ele>173</ele>
        <time>2018-10-20T08:35:04Z</time>
      </trkpt>
      <trkpt lat="45.93347" lon="4.7675">
        <ele>172</ele>
        <time>2018-10-20T08:35:05Z</time>
      </trkpt>
      <trkpt lat="45.93352" lon="4.76754">
        <ele>172</ele>
        <time>2018-10-20T08:35:06Z</time>
      </trkpt>
      <trkpt lat="45.93356" lon="4.76759">
        <ele>172</ele>
        <time>2018-10-20T08:35:07Z</time>
      </trkpt>
      <trkpt lat="45.9336" lon="4.76763">
        <ele>172</ele>
        <time>2018-10-20T08:35:08Z</time>
      </trkpt>
      <trkpt lat="45.93365" lon="4.76767">
        <ele>172</ele>
        <time>2018-10-20T08:35:09Z</time>
      </trkpt>
      <trkpt lat="45.93369" lon="4.76772">
        <ele>172</ele>
        <time>2018-10-20T08:35:10Z</time>
      </trkpt>
      <trkpt lat="45.93374" lon="4.76776">
        <ele>172</ele>
        <time>2018-10-20T08:35:11Z</time>
      </trkpt>
      <trkpt lat="45.93379" lon="4.76781">
        <ele>172</ele>
        <time>2018-10-20T08:35:12Z</time>
      </trkpt>
      <trkpt lat="45.93384" lon="4.76785">
        <ele>172</ele>
        <time>2018-10-20T08:35:13Z</time>
      </trkpt>
      <trkpt lat="45.93388" lon="4.7679">
        <ele>172</ele>
        <time>2018-10-20T08:35:14Z</time>
      </trkpt>
      <trkpt lat="45.93393" lon="4.76795">
        <ele>172</ele>
        <time>2018-10-20T08:35:15Z</time>
      </trkpt>
      <trkpt lat="45.93397" lon="4.76801">
        <ele>172</ele>
        <time>2018-10-20T08:35:16Z</time>
      </trkpt>
      <trkpt lat="45.93402" lon="4.76807">
        <ele>172</ele>
        <time>2018-10-20T08:35:17Z</time>
      </trkpt>
      <trkpt lat="45.93406" lon="4.76812">
        <ele>172</ele>
        <time>2018-10-20T08:35:18Z</time>
      </trkpt>
      <trkpt lat="45.9341" lon="4.76817">
        <ele>172</ele>
        <time>2018-10-20T08:35:19Z</time>
      </trkpt>
      <trkpt lat="45.93413" lon="4.76821">
        <ele>172</ele>
        <time>2018-10-20T08:35:20Z</time>
      </trkpt>
      <trkpt lat="45.93416" lon="4.76827">
        <ele>172</ele>
        <time>2018-10-20T08:35:21Z</time>
      </trkpt>
      <trkpt lat="45.93421" lon="4.76831">
        <ele>172</ele>
        <time>2018-10-20T08:35:22Z</time>
      </trkpt>
      <trkpt lat="45.93425" lon="4.76837">
        <ele>171</ele>
        <time>2018-10-20T08:35:23Z</time>
      </trkpt>
      <trkpt lat="45.93428" lon="4.76843">
        <ele>171</ele>
        <time>2018-10-20T08:35:24Z</time>
      </trkpt>
      <trkpt lat="45.93431" lon="4.7685">
        <ele>171</ele>
        <time>2018-10-20T08:35:25Z</time>
      </trkpt>
      <trkpt lat="45.93434" lon="4.76857">
        <ele>171</ele>
        <time>2018-10-20T08:35:26Z</time>
      </trkpt>
      <trkpt lat="45.93438" lon="4.76864">
        <ele>171</ele>
        <time>2018-10-20T08:35:27Z</time>
      </trkpt>
      <trkpt lat="45.9344" lon="4.76871">
        <ele>171</ele>
        <time>2018-10-20T08:35:28Z</time>
      </trkpt>
      <trkpt lat="45.93443" lon="4.76878">
        <ele>170</ele>
        <time>2018-10-20T08:35:29Z</time>
      </trkpt>
      <trkpt lat="45.93446" lon="4.76885">
        <ele>170</ele>
        <time>2018-10-20T08:35:30Z</time>
      </trkpt>
      <trkpt lat="45.93448" lon="4.76892">
        <ele>170</ele>
        <time>2018-10-20T08:35:31Z</time>
      </trkpt>
      <trkpt lat="45.9345" lon="4.769">
        <ele>170</ele>
        <time>2018-10-20T08:35:32Z</time>
      </trkpt>
      <trkpt lat="45.93451" lon="4.76908">
        <ele>170</ele>
        <time>2018-10-20T08:35:33Z</time>
      </trkpt>
      <trkpt lat="45.93453" lon="4.76915">
        <ele>170</ele>
        <time>2018-10-20T08:35:34Z</time>
      </trkpt>
      <trkpt lat="45.93454" lon="4.76923">
        <ele>170</ele>
        <time>2018-10-20T08:35:35Z</time>
      </trkpt>
      <trkpt lat="45.93458" lon="4.76928">
        <ele>170</ele>
        <time>2018-10-20T08:35:36Z</time>
      </trkpt>
      <trkpt lat="45.9346" lon="4.76935">
        <ele>170</ele>
        <time>2018-10-20T08:35:37Z</time>
      </trkpt>
      <trkpt lat="45.9346" lon="4.76944">
        <ele>170</ele>
        <time>2018-10-20T08:35:38Z</time>
      </trkpt>
      <trkpt lat="45.93461" lon="4.76951">
        <ele>170</ele>
        <time>2018-10-20T08:35:39Z</time>
      </trkpt>
      <trkpt lat="45.93463" lon="4.76959">
        <ele>170</ele>
        <time>2018-10-20T08:35:40Z</time>
      </trkpt>
      <trkpt lat="45.93464" lon="4.76967">
        <ele>170</ele>
        <time>2018-10-20T08:35:41Z</time>
      </trkpt>
      <trkpt lat="45.93466" lon="4.76973">
        <ele>170</ele>
        <time>2018-10-20T08:35:42Z</time>
      </trkpt>
      <trkpt lat="45.93467" lon="4.76979">
        <ele>170</ele>
        <time>2018-10-20T08:35:43Z</time>
      </trkpt>
      <trkpt lat="45.93467" lon="4.76987">
        <ele>170</ele>
        <time>2018-10-20T08:35:44Z</time>
      </trkpt>
      <trkpt lat="45.93468" lon="4.76994">
        <ele>170</ele>
        <time>2018-10-20T08:35:45Z</time>
      </trkpt>
      <trkpt lat="45.93469" lon="4.77">
        <ele>170</ele>
        <time>2018-10-20T08:35:46Z</time>
      </trkpt>
      <trkpt lat="45.93469" lon="4.77008">
        <ele>170</ele>
        <time>2018-10-20T08:35:47Z</time>
      </trkpt>
      <trkpt lat="45.93472" lon="4.77016">
        <ele>170</ele>
        <time>2018-10-20T08:35:48Z</time>
      </trkpt>
      <trkpt lat="45.93474" lon="4.77022">
        <ele>170</ele>
        <time>2018-10-20T08:35:49Z</time>
      </trkpt>
      <trkpt lat="45.93476" lon="4.77029">
        <ele>170</ele>
        <time>2018-10-20T08:35:50Z</time>
      </trkpt>
      <trkpt lat="45.93476" lon="4.77036">
        <ele>170</ele>
        <time>2018-10-20T08:35:51Z</time>
      </trkpt>
      <trkpt lat="45.93477" lon="4.77043">
        <ele>170</ele>
        <time>2018-10-20T08:35:52Z</time>
      </trkpt>
      <trkpt lat="45.93478" lon="4.7705">
        <ele>170</ele>
        <time>2018-10-20T08:35:53Z</time>
      </trkpt>
      <trkpt lat="45.93479" lon="4.77058">
        <ele>170</ele>
        <time>2018-10-20T08:35:54Z</time>
      </trkpt>
      <trkpt lat="45.93481" lon="4.77067">
        <ele>170</ele>
        <time>2018-10-20T08:35:55Z</time>
      </trkpt>
      <trkpt lat="45.93482" lon="4.77075">
        <ele>170</ele>
        <time>2018-10-20T08:35:56Z</time>
      </trkpt>
      <trkpt lat="45.93483" lon="4.77084">
        <ele>169</ele>
        <time>2018-10-20T08:35:57Z</time>
      </trkpt>
      <trkpt lat="45.93484" lon="4.77092">
        <ele>169</ele>
        <time>2018-10-20T08:35:58Z</time>
      </trkpt>
      <trkpt lat="45.93484" lon="4.77099">
        <ele>169</ele>
        <time>2018-10-20T08:35:59Z</time>
      </trkpt>
      <trkpt lat="45.93485" lon="4.77105">
        <ele>169</ele>
        <time>2018-10-20T08:36:00Z</time>
      </trkpt>
      <trkpt lat="45.93487" lon="4.77113">
        <ele>169</ele>
        <time>2018-10-20T08:36:01Z</time>
      </trkpt>
      <trkpt lat="45.93489" lon="4.77119">
        <ele>169</ele>
        <time>2018-10-20T08:36:02Z</time>
      </trkpt>
      <trkpt lat="45.9349" lon="4.77127">
        <ele>169</ele>
        <time>2018-10-20T08:36:03Z</time>
      </trkpt>
      <trkpt lat="45.93492" lon="4.77133">
        <ele>169</ele>
        <time>2018-10-20T08:36:04Z</time>
      </trkpt>
      <trkpt lat="45.93492" lon="4.7714">
        <ele>169</ele>
        <time>2018-10-20T08:36:05Z</time>
      </trkpt>
      <trkpt lat="45.93494" lon="4.77147">
        <ele>169</ele>
        <time>2018-10-20T08:36:06Z</time>
      </trkpt>
      <trkpt lat="45.93495" lon="4.77154">
        <ele>169</ele>
        <time>2018-10-20T08:36:07Z</time>
      </trkpt>
      <trkpt lat="45.93497" lon="4.77161">
        <ele>169</ele>
        <time>2018-10-20T08:36:08Z</time>
      </trkpt>
      <trkpt lat="45.93498" lon="4.77169">
        <ele>169</ele>
        <time>2018-10-20T08:36:09Z</time>
      </trkpt>
      <trkpt lat="45.935" lon="4.77177">
        <ele>169</ele>
        <time>2018-10-20T08:36:10Z</time>
      </trkpt>
      <trkpt lat="45.935" lon="4.77184">
        <ele>169</ele>
        <time>2018-10-20T08:36:11Z</time>
      </trkpt>
      <trkpt lat="45.93502" lon="4.77192">
        <ele>169</ele>
        <time>2018-10-20T08:36:12Z</time>
      </trkpt>
      <trkpt lat="45.93504" lon="4.77199">
        <ele>169</ele>
        <time>2018-10-20T08:36:13Z</time>
      </trkpt>
      <trkpt lat="45.93505" lon="4.77208">
        <ele>169</ele>
        <time>2018-10-20T08:36:14Z</time>
      </trkpt>
      <trkpt lat="45.93507" lon="4.77217">
        <ele>169</ele>
        <time>2018-10-20T08:36:15Z</time>
      </trkpt>
      <trkpt lat="45.9351" lon="4.77225">
        <ele>169</ele>
        <time>2018-10-20T08:36:16Z</time>
      </trkpt>
      <trkpt lat="45.93512" lon="4.77232">
        <ele>169</ele>
        <time>2018-10-20T08:36:17Z</time>
      </trkpt>
      <trkpt lat="45.93513" lon="4.7724">
        <ele>169</ele>
        <time>2018-10-20T08:36:18Z</time>
      </trkpt>
      <trkpt lat="45.93514" lon="4.77248">
        <ele>169</ele>
        <time>2018-10-20T08:36:19Z</time>
      </trkpt>
      <trkpt lat="45.93516" lon="4.77255">
        <ele>170</ele>
        <time>2018-10-20T08:36:20Z</time>
      </trkpt>
      <trkpt lat="45.93519" lon="4.77264">
        <ele>170</ele>
        <time>2018-10-20T08:36:21Z</time>
      </trkpt>
      <trkpt lat="45.9352" lon="4.77271">
        <ele>170</ele>
        <time>2018-10-20T08:36:22Z</time>
      </trkpt>
      <trkpt lat="45.93521" lon="4.77278">
        <ele>170</ele>
        <time>2018-10-20T08:36:23Z</time>
      </trkpt>
      <trkpt lat="45.93523" lon="4.77283">
        <ele>170</ele>
        <time>2018-10-20T08:36:24Z</time>
      </trkpt>
      <trkpt lat="45.93524" lon="4.77291">
        <ele>170</ele>
        <time>2018-10-20T08:36:25Z</time>
      </trkpt>
      <trkpt lat="45.93527" lon="4.77303">
        <ele>170</ele>
        <time>2018-10-20T08:36:27Z</time>
      </trkpt>
      <trkpt lat="45.93529" lon="4.7731">
        <ele>170</ele>
        <time>2018-10-20T08:36:28Z</time>
      </trkpt>
      <trkpt lat="45.93531" lon="4.77321">
        <ele>170</ele>
        <time>2018-10-20T08:36:30Z</time>
      </trkpt>
      <trkpt lat="45.93532" lon="4.77328">
        <ele>170</ele>
        <time>2018-10-20T08:36:31Z</time>
      </trkpt>
      <trkpt lat="45.93533" lon="4.77334">
        <ele>170</ele>
        <time>2018-10-20T08:36:32Z</time>
      </trkpt>
      <trkpt lat="45.93535" lon="4.77341">
        <ele>170</ele>
        <time>2018-10-20T08:36:33Z</time>
      </trkpt>
      <trkpt lat="45.93535" lon="4.77349">
        <ele>170</ele>
        <time>2018-10-20T08:36:34Z</time>
      </trkpt>
      <trkpt lat="45.93535" lon="4.77356">
        <ele>170</ele>
        <time>2018-10-20T08:36:35Z</time>
      </trkpt>
      <trkpt lat="45.93536" lon="4.77363">
        <ele>170</ele>
        <time>2018-10-20T08:36:36Z</time>
      </trkpt>
      <trkpt lat="45.93538" lon="4.77371">
        <ele>170</ele>
        <time>2018-10-20T08:36:37Z</time>
      </trkpt>
      <trkpt lat="45.93539" lon="4.77382">
        <ele>170</ele>
        <time>2018-10-20T08:36:39Z</time>
      </trkpt>
      <trkpt lat="45.93541" lon="4.7739">
        <ele>170</ele>
        <time>2018-10-20T08:36:40Z</time>
      </trkpt>
      <trkpt lat="45.93543" lon="4.77396">
        <ele>170</ele>
        <time>2018-10-20T08:36:41Z</time>
      </trkpt>
      <trkpt lat="45.93543" lon="4.77403">
        <ele>170</ele>
        <time>2018-10-20T08:36:42Z</time>
      </trkpt>
      <trkpt lat="45.93548" lon="4.77412">
        <ele>170</ele>
        <time>2018-10-20T08:36:43Z</time>
      </trkpt>
      <trkpt lat="45.93546" lon="4.77418">
        <ele>170</ele>
        <time>2018-10-20T08:36:44Z</time>
      </trkpt>
      <trkpt lat="45.93548" lon="4.77425">
        <ele>170</ele>
        <time>2018-10-20T08:36:45Z</time>
      </trkpt>
      <trkpt lat="45.93549" lon="4.77432">
        <ele>169</ele>
        <time>2018-10-20T08:36:46Z</time>
      </trkpt>
      <trkpt lat="45.93551" lon="4.77439">
        <ele>169</ele>
        <time>2018-10-20T08:36:47Z</time>
      </trkpt>
      <trkpt lat="45.93552" lon="4.77446">
        <ele>169</ele>
        <time>2018-10-20T08:36:48Z</time>
      </trkpt>
      <trkpt lat="45.93554" lon="4.77453">
        <ele>169</ele>
        <time>2018-10-20T08:36:49Z</time>
      </trkpt>
      <trkpt lat="45.93554" lon="4.7746">
        <ele>169</ele>
        <time>2018-10-20T08:36:50Z</time>
      </trkpt>
      <trkpt lat="45.93555" lon="4.77467">
        <ele>169</ele>
        <time>2018-10-20T08:36:51Z</time>
      </trkpt>
      <trkpt lat="45.93559" lon="4.77473">
        <ele>169</ele>
        <time>2018-10-20T08:36:52Z</time>
      </trkpt>
      <trkpt lat="45.9356" lon="4.77479">
        <ele>169</ele>
        <time>2018-10-20T08:36:53Z</time>
      </trkpt>
      <trkpt lat="45.93565" lon="4.77487">
        <ele>169</ele>
        <time>2018-10-20T08:36:54Z</time>
      </trkpt>
      <trkpt lat="45.93568" lon="4.77494">
        <ele>169</ele>
        <time>2018-10-20T08:36:55Z</time>
      </trkpt>
      <trkpt lat="45.93572" lon="4.77502">
        <ele>169</ele>
        <time>2018-10-20T08:36:56Z</time>
      </trkpt>
      <trkpt lat="45.93574" lon="4.77513">
        <ele>169</ele>
        <time>2018-10-20T08:36:58Z</time>
      </trkpt>
      <trkpt lat="45.93574" lon="4.77519">
        <ele>169</ele>
        <time>2018-10-20T08:36:59Z</time>
      </trkpt>
      <trkpt lat="45.93576" lon="4.77524">
        <ele>169</ele>
        <time>2018-10-20T08:37:00Z</time>
      </trkpt>
      <trkpt lat="45.93578" lon="4.77531">
        <ele>169</ele>
        <time>2018-10-20T08:37:01Z</time>
      </trkpt>
      <trkpt lat="45.93581" lon="4.77536">
        <ele>169</ele>
        <time>2018-10-20T08:37:02Z</time>
      </trkpt>
      <trkpt lat="45.93583" lon="4.77543">
        <ele>169</ele>
        <time>2018-10-20T08:37:03Z</time>
      </trkpt>
      <trkpt lat="45.93585" lon="4.77551">
        <ele>170</ele>
        <time>2018-10-20T08:37:04Z</time>
      </trkpt>
      <trkpt lat="45.93586" lon="4.77557">
        <ele>170</ele>
        <time>2018-10-20T08:37:05Z</time>
      </trkpt>
      <trkpt lat="45.93589" lon="4.77565">
        <ele>170</ele>
        <time>2018-10-20T08:37:06Z</time>
      </trkpt>
      <trkpt lat="45.93591" lon="4.77574">
        <ele>170</ele>
        <time>2018-10-20T08:37:07Z</time>
      </trkpt>
      <trkpt lat="45.93593" lon="4.7758">
        <ele>170</ele>
        <time>2018-10-20T08:37:08Z</time>
      </trkpt>
      <trkpt lat="45.93595" lon="4.77587">
        <ele>170</ele>
        <time>2018-10-20T08:37:09Z</time>
      </trkpt>
      <trkpt lat="45.93598" lon="4.77596">
        <ele>170</ele>
        <time>2018-10-20T08:37:10Z</time>
      </trkpt>
      <trkpt lat="45.936" lon="4.77604">
        <ele>170</ele>
        <time>2018-10-20T08:37:11Z</time>
      </trkpt>
      <trkpt lat="45.93603" lon="4.77612">
        <ele>170</ele>
        <time>2018-10-20T08:37:12Z</time>
      </trkpt>
      <trkpt lat="45.93606" lon="4.7762">
        <ele>170</ele>
        <time>2018-10-20T08:37:13Z</time>
      </trkpt>
      <trkpt lat="45.93609" lon="4.77628">
        <ele>169</ele>
        <time>2018-10-20T08:37:14Z</time>
      </trkpt>
      <trkpt lat="45.93611" lon="4.77637">
        <ele>169</ele>
        <time>2018-10-20T08:37:15Z</time>
      </trkpt>
      <trkpt lat="45.93614" lon="4.77643">
        <ele>169</ele>
        <time>2018-10-20T08:37:16Z</time>
      </trkpt>
      <trkpt lat="45.93617" lon="4.7765">
        <ele>169</ele>
        <time>2018-10-20T08:37:17Z</time>
      </trkpt>
      <trkpt lat="45.93619" lon="4.77658">
        <ele>169</ele>
        <time>2018-10-20T08:37:18Z</time>
      </trkpt>
      <trkpt lat="45.93622" lon="4.77665">
        <ele>169</ele>
        <time>2018-10-20T08:37:19Z</time>
      </trkpt>
      <trkpt lat="45.93626" lon="4.77671">
        <ele>169</ele>
        <time>2018-10-20T08:37:20Z</time>
      </trkpt>
      <trkpt lat="45.93628" lon="4.77678">
        <ele>169</ele>
        <time>2018-10-20T08:37:21Z</time>
      </trkpt>
      <trkpt lat="45.93631" lon="4.77683">
        <ele>169</ele>
        <time>2018-10-20T08:37:22Z</time>
      </trkpt>
      <trkpt lat="45.93633" lon="4.77689">
        <ele>169</ele>
        <time>2018-10-20T08:37:23Z</time>
      </trkpt>
      <trkpt lat="45.93636" lon="4.77695">
        <ele>169</ele>
        <time>2018-10-20T08:37:24Z</time>
      </trkpt>
      <trkpt lat="45.9364" lon="4.77702">
        <ele>170</ele>
        <time>2018-10-20T08:37:25Z</time>
      </trkpt>
      <trkpt lat="45.93644" lon="4.77711">
        <ele>170</ele>
        <time>2018-10-20T08:37:27Z</time>
      </trkpt>
      <trkpt lat="45.93646" lon="4.77717">
        <ele>170</ele>
        <time>2018-10-20T08:37:28Z</time>
      </trkpt>
      <trkpt lat="45.93651" lon="4.77727">
        <ele>170</ele>
        <time>2018-10-20T08:37:30Z</time>
      </trkpt>
      <trkpt lat="45.93654" lon="4.77732">
        <ele>170</ele>
        <time>2018-10-20T08:37:31Z</time>
      </trkpt>
      <trkpt lat="45.93659" lon="4.7774">
        <ele>170</ele>
        <time>2018-10-20T08:37:33Z</time>
      </trkpt>
      <trkpt lat="45.93661" lon="4.77744">
        <ele>171</ele>
        <time>2018-10-20T08:37:34Z</time>
      </trkpt>
      <trkpt lat="45.93667" lon="4.77752">
        <ele>171</ele>
        <time>2018-10-20T08:37:36Z</time>
      </trkpt>
      <trkpt lat="45.9367" lon="4.77756">
        <ele>171</ele>
        <time>2018-10-20T08:37:37Z</time>
      </trkpt>
      <trkpt lat="45.93673" lon="4.7776">
        <ele>170</ele>
        <time>2018-10-20T08:37:39Z</time>
      </trkpt>
      <trkpt lat="45.93677" lon="4.77767">
        <ele>170</ele>
        <time>2018-10-20T08:37:40Z</time>
      </trkpt>
      <trkpt lat="45.93681" lon="4.77773">
        <ele>170</ele>
        <time>2018-10-20T08:37:42Z</time>
      </trkpt>
      <trkpt lat="45.93684" lon="4.77778">
        <ele>170</ele>
        <time>2018-10-20T08:37:43Z</time>
      </trkpt>
      <trkpt lat="45.9369" lon="4.77786">
        <ele>170</ele>
        <time>2018-10-20T08:37:45Z</time>
      </trkpt>
      <trkpt lat="45.93692" lon="4.77789">
        <ele>170</ele>
        <time>2018-10-20T08:37:46Z</time>
      </trkpt>
      <trkpt lat="45.93698" lon="4.77796">
        <ele>169</ele>
        <time>2018-10-20T08:37:48Z</time>
      </trkpt>
      <trkpt lat="45.93701" lon="4.778">
        <ele>169</ele>
        <time>2018-10-20T08:37:49Z</time>
      </trkpt>
      <trkpt lat="45.93707" lon="4.77808">
        <ele>169</ele>
        <time>2018-10-20T08:37:51Z</time>
      </trkpt>
      <trkpt lat="45.9371" lon="4.77811">
        <ele>169</ele>
        <time>2018-10-20T08:37:52Z</time>
      </trkpt>
      <trkpt lat="45.93716" lon="4.77818">
        <ele>169</ele>
        <time>2018-10-20T08:37:54Z</time>
      </trkpt>
      <trkpt lat="45.93719" lon="4.77822">
        <ele>169</ele>
        <time>2018-10-20T08:37:55Z</time>
      </trkpt>
      <trkpt lat="45.93725" lon="4.77829">
        <ele>168</ele>
        <time>2018-10-20T08:37:57Z</time>
      </trkpt>
      <trkpt lat="45.93728" lon="4.77833">
        <ele>168</ele>
        <time>2018-10-20T08:37:58Z</time>
      </trkpt>
      <trkpt lat="45.93734" lon="4.7784">
        <ele>167</ele>
        <time>2018-10-20T08:38:00Z</time>
      </trkpt>
      <trkpt lat="45.93737" lon="4.77844">
        <ele>167</ele>
        <time>2018-10-20T08:38:01Z</time>
      </trkpt>
      <trkpt lat="45.93743" lon="4.77851">
        <ele>167</ele>
        <time>2018-10-20T08:38:03Z</time>
      </trkpt>
      <trkpt lat="45.93746" lon="4.77855">
        <ele>167</ele>
        <time>2018-10-20T08:38:04Z</time>
      </trkpt>
      <trkpt lat="45.93752" lon="4.77863">
        <ele>166</ele>
        <time>2018-10-20T08:38:06Z</time>
      </trkpt>
      <trkpt lat="45.93755" lon="4.77868">
        <ele>166</ele>
        <time>2018-10-20T08:38:07Z</time>
      </trkpt>
      <trkpt lat="45.93761" lon="4.77876">
        <ele>166</ele>
        <time>2018-10-20T08:38:09Z</time>
      </trkpt>
      <trkpt lat="45.93765" lon="4.7788">
        <ele>166</ele>
        <time>2018-10-20T08:38:10Z</time>
      </trkpt>
      <trkpt lat="45.93768" lon="4.77885">
        <ele>166</ele>
        <time>2018-10-20T08:38:11Z</time>
      </trkpt>
      <trkpt lat="45.93772" lon="4.7789">
        <ele>166</ele>
        <time>2018-10-20T08:38:12Z</time>
      </trkpt>
      <trkpt lat="45.93776" lon="4.77896">
        <ele>166</ele>
        <time>2018-10-20T08:38:13Z</time>
      </trkpt>
      <trkpt lat="45.93779" lon="4.77901">
        <ele>166</ele>
        <time>2018-10-20T08:38:14Z</time>
      </trkpt>
      <trkpt lat="45.93783" lon="4.77906">
        <ele>166</ele>
        <time>2018-10-20T08:38:15Z</time>
      </trkpt>
      <trkpt lat="45.93787" lon="4.77911">
        <ele>166</ele>
        <time>2018-10-20T08:38:16Z</time>
      </trkpt>
      <trkpt lat="45.9379" lon="4.77916">
        <ele>166</ele>
        <time>2018-10-20T08:38:17Z</time>
      </trkpt>
      <trkpt lat="45.93792" lon="4.77921">
        <ele>168</ele>
        <time>2018-10-20T08:38:18Z</time>
      </trkpt>
      <trkpt lat="45.93797" lon="4.77926">
        <ele>168</ele>
        <time>2018-10-20T08:38:19Z</time>
      </trkpt>
      <trkpt lat="45.938" lon="4.77931">
        <ele>168</ele>
        <time>2018-10-20T08:38:20Z</time>
      </trkpt>
      <trkpt lat="45.93804" lon="4.77936">
        <ele>169</ele>
        <time>2018-10-20T08:38:21Z</time>
      </trkpt>
      <trkpt lat="45.93807" lon="4.77941">
        <ele>169</ele>
        <time>2018-10-20T08:38:22Z</time>
      </trkpt>
      <trkpt lat="45.9381" lon="4.77946">
        <ele>169</ele>
        <time>2018-10-20T08:38:23Z</time>
      </trkpt>
      <trkpt lat="45.93814" lon="4.77951">
        <ele>169</ele>
        <time>2018-10-20T08:38:24Z</time>
      </trkpt>
      <trkpt lat="45.93818" lon="4.77956">
        <ele>170</ele>
        <time>2018-10-20T08:38:25Z</time>
      </trkpt>
      <trkpt lat="45.93822" lon="4.77961">
        <ele>171</ele>
        <time>2018-10-20T08:38:26Z</time>
      </trkpt>
      <trkpt lat="45.93825" lon="4.77966">
        <ele>171</ele>
        <time>2018-10-20T08:38:27Z</time>
      </trkpt>
      <trkpt lat="45.93829" lon="4.7797">
        <ele>172</ele>
        <time>2018-10-20T08:38:28Z</time>
      </trkpt>
      <trkpt lat="45.93833" lon="4.77974">
        <ele>173</ele>
        <time>2018-10-20T08:38:29Z</time>
      </trkpt>
      <trkpt lat="45.93836" lon="4.77979">
        <ele>178</ele>
        <time>2018-10-20T08:38:30Z</time>
      </trkpt>
      <trkpt lat="45.93839" lon="4.77985">
        <ele>178</ele>
        <time>2018-10-20T08:38:31Z</time>
      </trkpt>
      <trkpt lat="45.93842" lon="4.7799">
        <ele>179</ele>
        <time>2018-10-20T08:38:32Z</time>
      </trkpt>
      <trkpt lat="45.93844" lon="4.77996">
        <ele>179</ele>
        <time>2018-10-20T08:38:33Z</time>
      </trkpt>
      <trkpt lat="45.93844" lon="4.78003">
        <ele>181</ele>
        <time>2018-10-20T08:38:34Z</time>
      </trkpt>
      <trkpt lat="45.93846" lon="4.78011">
        <ele>181</ele>
        <time>2018-10-20T08:38:35Z</time>
      </trkpt>
      <trkpt lat="45.93847" lon="4.78019">
        <ele>182</ele>
        <time>2018-10-20T08:38:36Z</time>
      </trkpt>
      <trkpt lat="45.93848" lon="4.78031">
        <ele>182</ele>
        <time>2018-10-20T08:38:38Z</time>
      </trkpt>
      <trkpt lat="45.93851" lon="4.78036">
        <ele>183</ele>
        <time>2018-10-20T08:38:39Z</time>
      </trkpt>
      <trkpt lat="45.93851" lon="4.78048">
        <ele>183</ele>
        <time>2018-10-20T08:38:41Z</time>
      </trkpt>
      <trkpt lat="45.93852" lon="4.78056">
        <ele>183</ele>
        <time>2018-10-20T08:38:42Z</time>
      </trkpt>
      <trkpt lat="45.93851" lon="4.78067">
        <ele>182</ele>
        <time>2018-10-20T08:38:44Z</time>
      </trkpt>
      <trkpt lat="45.9385" lon="4.78075">
        <ele>182</ele>
        <time>2018-10-20T08:38:45Z</time>
      </trkpt>
      <trkpt lat="45.9385" lon="4.78083">
        <ele>182</ele>
        <time>2018-10-20T08:38:46Z</time>
      </trkpt>
      <trkpt lat="45.93847" lon="4.78089">
        <ele>183</ele>
        <time>2018-10-20T08:38:47Z</time>
      </trkpt>
      <trkpt lat="45.93846" lon="4.78095">
        <ele>183</ele>
        <time>2018-10-20T08:38:48Z</time>
      </trkpt>
      <trkpt lat="45.93846" lon="4.78103">
        <ele>184</ele>
        <time>2018-10-20T08:38:49Z</time>
      </trkpt>
      <trkpt lat="45.93844" lon="4.7811">
        <ele>184</ele>
        <time>2018-10-20T08:38:50Z</time>
      </trkpt>
      <trkpt lat="45.93841" lon="4.78118">
        <ele>184</ele>
        <time>2018-10-20T08:38:51Z</time>
      </trkpt>
      <trkpt lat="45.93839" lon="4.78125">
        <ele>184</ele>
        <time>2018-10-20T08:38:52Z</time>
      </trkpt>
      <trkpt lat="45.93838" lon="4.78133">
        <ele>184</ele>
        <time>2018-10-20T08:38:53Z</time>
      </trkpt>
      <trkpt lat="45.93836" lon="4.7814">
        <ele>184</ele>
        <time>2018-10-20T08:38:54Z</time>
      </trkpt>
      <trkpt lat="45.93832" lon="4.78147">
        <ele>180</ele>
        <time>2018-10-20T08:38:55Z</time>
      </trkpt>
      <trkpt lat="45.9383" lon="4.78152">
        <ele>181</ele>
        <time>2018-10-20T08:38:56Z</time>
      </trkpt>
      <trkpt lat="45.93828" lon="4.7816">
        <ele>181</ele>
        <time>2018-10-20T08:38:57Z</time>
      </trkpt>
      <trkpt lat="45.93828" lon="4.78165">
        <ele>181</ele>
        <time>2018-10-20T08:38:58Z</time>
      </trkpt>
      <trkpt lat="45.93827" lon="4.78173">
        <ele>182</ele>
        <time>2018-10-20T08:38:59Z</time>
      </trkpt>
      <trkpt lat="45.93826" lon="4.78182">
        <ele>182</ele>
        <time>2018-10-20T08:39:00Z</time>
      </trkpt>
      <trkpt lat="45.93825" lon="4.78186">
        <ele>182</ele>
        <time>2018-10-20T08:39:01Z</time>
      </trkpt>
      <trkpt lat="45.93823" lon="4.78192">
        <ele>182</ele>
        <time>2018-10-20T08:39:02Z</time>
      </trkpt>
      <trkpt lat="45.93821" lon="4.78198">
        <ele>182</ele>
        <time>2018-10-20T08:39:03Z</time>
      </trkpt>
      <trkpt lat="45.93818" lon="4.78203">
        <ele>182</ele>
        <time>2018-10-20T08:39:04Z</time>
      </trkpt>
      <trkpt lat="45.93816" lon="4.7821">
        <ele>182</ele>
        <time>2018-10-20T08:39:05Z</time>
      </trkpt>
      <trkpt lat="45.93811" lon="4.7822">
        <ele>182</ele>
        <time>2018-10-20T08:39:07Z</time>
      </trkpt>
      <trkpt lat="45.93808" lon="4.78226">
        <ele>182</ele>
        <time>2018-10-20T08:39:08Z</time>
      </trkpt>
      <trkpt lat="45.93807" lon="4.78233">
        <ele>182</ele>
        <time>2018-10-20T08:39:09Z</time>
      </trkpt>
      <trkpt lat="45.93803" lon="4.78238">
        <ele>182</ele>
        <time>2018-10-20T08:39:10Z</time>
      </trkpt>
      <trkpt lat="45.93801" lon="4.78244">
        <ele>182</ele>
        <time>2018-10-20T08:39:11Z</time>
      </trkpt>
      <trkpt lat="45.93799" lon="4.7825">
        <ele>182</ele>
        <time>2018-10-20T08:39:12Z</time>
      </trkpt>
      <trkpt lat="45.93799" lon="4.78256">
        <ele>183</ele>
        <time>2018-10-20T08:39:13Z</time>
      </trkpt>
      <trkpt lat="45.93798" lon="4.78264">
        <ele>183</ele>
        <time>2018-10-20T08:39:14Z</time>
      </trkpt>
      <trkpt lat="45.93797" lon="4.78272">
        <ele>183</ele>
        <time>2018-10-20T08:39:15Z</time>
      </trkpt>
      <trkpt lat="45.93795" lon="4.78279">
        <ele>183</ele>
        <time>2018-10-20T08:39:16Z</time>
      </trkpt>
      <trkpt lat="45.93793" lon="4.78286">
        <ele>183</ele>
        <time>2018-10-20T08:39:17Z</time>
      </trkpt>
      <trkpt lat="45.93792" lon="4.78293">
        <ele>183</ele>
        <time>2018-10-20T08:39:18Z</time>
      </trkpt>
      <trkpt lat="45.93791" lon="4.783">
        <ele>183</ele>
        <time>2018-10-20T08:39:19Z</time>
      </trkpt>
      <trkpt lat="45.93789" lon="4.78306">
        <ele>183</ele>
        <time>2018-10-20T08:39:20Z</time>
      </trkpt>
      <trkpt lat="45.93786" lon="4.78317">
        <ele>183</ele>
        <time>2018-10-20T08:39:22Z</time>
      </trkpt>
      <trkpt lat="45.93785" lon="4.7832">
        <ele>183</ele>
        <time>2018-10-20T08:39:23Z</time>
      </trkpt>
      <trkpt lat="45.93782" lon="4.78329">
        <ele>183</ele>
        <time>2018-10-20T08:39:24Z</time>
      </trkpt>
      <trkpt lat="45.93781" lon="4.78335">
        <ele>183</ele>
        <time>2018-10-20T08:39:25Z</time>
      </trkpt>
      <trkpt lat="45.93778" lon="4.7834">
        <ele>183</ele>
        <time>2018-10-20T08:39:26Z</time>
      </trkpt>
      <trkpt lat="45.93776" lon="4.78347">
        <ele>183</ele>
        <time>2018-10-20T08:39:27Z</time>
      </trkpt>
      <trkpt lat="45.93774" lon="4.78354">
        <ele>183</ele>
        <time>2018-10-20T08:39:28Z</time>
      </trkpt>
      <trkpt lat="45.93774" lon="4.78362">
        <ele>183</ele>
        <time>2018-10-20T08:39:29Z</time>
      </trkpt>
      <trkpt lat="45.93773" lon="4.78371">
        <ele>183</ele>
        <time>2018-10-20T08:39:30Z</time>
      </trkpt>
      <trkpt lat="45.93766" lon="4.78373">
        <ele>183</ele>
        <time>2018-10-20T08:39:31Z</time>
      </trkpt>
      <trkpt lat="45.93764" lon="4.78379">
        <ele>183</ele>
        <time>2018-10-20T08:39:32Z</time>
      </trkpt>
      <trkpt lat="45.93763" lon="4.78388">
        <ele>183</ele>
        <time>2018-10-20T08:39:33Z</time>
      </trkpt>
      <trkpt lat="45.93761" lon="4.78396">
        <ele>183</ele>
        <time>2018-10-20T08:39:34Z</time>
      </trkpt>
      <trkpt lat="45.93759" lon="4.78405">
        <ele>182</ele>
        <time>2018-10-20T08:39:35Z</time>
      </trkpt>
      <trkpt lat="45.93758" lon="4.78411">
        <ele>182</ele>
        <time>2018-10-20T08:39:36Z</time>
      </trkpt>
      <trkpt lat="45.93755" lon="4.78418">
        <ele>182</ele>
        <time>2018-10-20T08:39:37Z</time>
      </trkpt>
      <trkpt lat="45.93754" lon="4.78425">
        <ele>182</ele>
        <time>2018-10-20T08:39:38Z</time>
      </trkpt>
      <trkpt lat="45.93752" lon="4.78432">
        <ele>183</ele>
        <time>2018-10-20T08:39:39Z</time>
      </trkpt>
      <trkpt lat="45.93749" lon="4.78438">
        <ele>180</ele>
        <time>2018-10-20T08:39:40Z</time>
      </trkpt>
      <trkpt lat="45.93746" lon="4.7845">
        <ele>180</ele>
        <time>2018-10-20T08:39:41Z</time>
      </trkpt>
      <trkpt lat="45.93744" lon="4.78457">
        <ele>180</ele>
        <time>2018-10-20T08:39:42Z</time>
      </trkpt>
      <trkpt lat="45.93743" lon="4.78463">
        <ele>180</ele>
        <time>2018-10-20T08:39:43Z</time>
      </trkpt>
      <trkpt lat="45.93739" lon="4.78471">
        <ele>180</ele>
        <time>2018-10-20T08:39:44Z</time>
      </trkpt>
      <trkpt lat="45.93735" lon="4.78479">
        <ele>180</ele>
        <time>2018-10-20T08:39:45Z</time>
      </trkpt>
      <trkpt lat="45.93734" lon="4.78489">
        <ele>180</ele>
        <time>2018-10-20T08:39:46Z</time>
      </trkpt>
      <trkpt lat="45.93732" lon="4.78498">
        <ele>180</ele>
        <time>2018-10-20T08:39:47Z</time>
      </trkpt>
      <trkpt lat="45.93729" lon="4.78504">
        <ele>179</ele>
        <time>2018-10-20T08:39:48Z</time>
      </trkpt>
      <trkpt lat="45.93728" lon="4.78512">
        <ele>179</ele>
        <time>2018-10-20T08:39:49Z</time>
      </trkpt>
      <trkpt lat="45.93725" lon="4.7852">
        <ele>179</ele>
        <time>2018-10-20T08:39:50Z</time>
      </trkpt>
      <trkpt lat="45.93725" lon="4.78528">
        <ele>178</ele>
        <time>2018-10-20T08:39:51Z</time>
      </trkpt>
      <trkpt lat="45.93723" lon="4.78537">
        <ele>178</ele>
        <time>2018-10-20T08:39:52Z</time>
      </trkpt>
      <trkpt lat="45.93721" lon="4.78545">
        <ele>178</ele>
        <time>2018-10-20T08:39:53Z</time>
      </trkpt>
      <trkpt lat="45.93719" lon="4.78553">
        <ele>178</ele>
        <time>2018-10-20T08:39:54Z</time>
      </trkpt>
      <trkpt lat="45.93717" lon="4.78562">
        <ele>178</ele>
        <time>2018-10-20T08:39:55Z</time>
      </trkpt>
      <trkpt lat="45.93715" lon="4.78571">
        <ele>178</ele>
        <time>2018-10-20T08:39:56Z</time>
      </trkpt>
      <trkpt lat="45.93712" lon="4.78578">
        <ele>177</ele>
        <time>2018-10-20T08:39:57Z</time>
      </trkpt>
      <trkpt lat="45.93711" lon="4.78586">
        <ele>176</ele>
        <time>2018-10-20T08:39:58Z</time>
      </trkpt>
      <trkpt lat="45.93709" lon="4.78594">
        <ele>176</ele>
        <time>2018-10-20T08:39:59Z</time>
      </trkpt>
      <trkpt lat="45.93706" lon="4.78602">
        <ele>176</ele>
        <time>2018-10-20T08:40:00Z</time>
      </trkpt>
      <trkpt lat="45.93703" lon="4.78608">
        <ele>176</ele>
        <time>2018-10-20T08:40:01Z</time>
      </trkpt>
      <trkpt lat="45.93702" lon="4.78615">
        <ele>176</ele>
        <time>2018-10-20T08:40:02Z</time>
      </trkpt>
      <trkpt lat="45.93701" lon="4.78622">
        <ele>176</ele>
        <time>2018-10-20T08:40:03Z</time>
      </trkpt>
      <trkpt lat="45.93706" lon="4.78632">
        <ele>176</ele>
        <time>2018-10-20T08:40:05Z</time>
      </trkpt>
      <trkpt lat="45.9371" lon="4.78633">
        <ele>176</ele>
        <time>2018-10-20T08:40:06Z</time>
      </trkpt>
      <trkpt lat="45.93718" lon="4.78631">
        <ele>176</ele>
        <time>2018-10-20T08:40:08Z</time>
      </trkpt>
      <trkpt lat="45.93722" lon="4.78628">
        <ele>177</ele>
        <time>2018-10-20T08:40:09Z</time>
      </trkpt>
      <trkpt lat="45.93729" lon="4.78627">
        <ele>177</ele>
        <time>2018-10-20T08:40:11Z</time>
      </trkpt>
      <trkpt lat="45.93734" lon="4.78625">
        <ele>177</ele>
        <time>2018-10-20T08:40:12Z</time>
      </trkpt>
      <trkpt lat="45.93741" lon="4.78624">
        <ele>177</ele>
        <time>2018-10-20T08:40:15Z</time>
      </trkpt>
      <trkpt lat="45.93743" lon="4.78623">
        <ele>177</ele>
        <time>2018-10-20T08:40:16Z</time>
      </trkpt>
      <trkpt lat="45.93749" lon="4.78621">
        <ele>177</ele>
        <time>2018-10-20T08:40:18Z</time>
      </trkpt>
      <trkpt lat="45.93753" lon="4.78621">
        <ele>181</ele>
        <time>2018-10-20T08:40:19Z</time>
      </trkpt>
      <trkpt lat="45.93761" lon="4.78618">
        <ele>181</ele>
        <time>2018-10-20T08:40:22Z</time>
      </trkpt>
      <trkpt lat="45.93764" lon="4.78617">
        <ele>181</ele>
        <time>2018-10-20T08:40:23Z</time>
      </trkpt>
      <trkpt lat="45.93771" lon="4.78615">
        <ele>181</ele>
        <time>2018-10-20T08:40:25Z</time>
      </trkpt>
      <trkpt lat="45.93774" lon="4.78614">
        <ele>181</ele>
        <time>2018-10-20T08:40:26Z</time>
      </trkpt>
      <trkpt lat="45.9378" lon="4.78613">
        <ele>181</ele>
        <time>2018-10-20T08:40:28Z</time>
      </trkpt>
      <trkpt lat="45.93784" lon="4.78612">
        <ele>182</ele>
        <time>2018-10-20T08:40:29Z</time>
      </trkpt>
      <trkpt lat="45.93791" lon="4.78609">
        <ele>182</ele>
        <time>2018-10-20T08:40:31Z</time>
      </trkpt>
      <trkpt lat="45.93799" lon="4.78606">
        <ele>182</ele>
        <time>2018-10-20T08:40:32Z</time>
      </trkpt>
      <trkpt lat="45.93807" lon="4.78603">
        <ele>183</ele>
        <time>2018-10-20T08:40:34Z</time>
      </trkpt>
      <trkpt lat="45.93811" lon="4.78602">
        <ele>183</ele>
        <time>2018-10-20T08:40:35Z</time>
      </trkpt>
      <trkpt lat="45.93817" lon="4.786">
        <ele>184</ele>
        <time>2018-10-20T08:40:38Z</time>
      </trkpt>
      <trkpt lat="45.93821" lon="4.78599">
        <ele>184</ele>
        <time>2018-10-20T08:40:39Z</time>
      </trkpt>
      <trkpt lat="45.93827" lon="4.78597">
        <ele>185</ele>
        <time>2018-10-20T08:40:41Z</time>
      </trkpt>
      <trkpt lat="45.93829" lon="4.78596">
        <ele>185</ele>
        <time>2018-10-20T08:40:42Z</time>
      </trkpt>
      <trkpt lat="45.93838" lon="4.78594">
        <ele>187</ele>
        <time>2018-10-20T08:40:45Z</time>
      </trkpt>
      <trkpt lat="45.93841" lon="4.78593">
        <ele>187</ele>
        <time>2018-10-20T08:40:46Z</time>
      </trkpt>
      <trkpt lat="45.93848" lon="4.78592">
        <ele>188</ele>
        <time>2018-10-20T08:40:49Z</time>
      </trkpt>
      <trkpt lat="45.93851" lon="4.78592">
        <ele>188</ele>
        <time>2018-10-20T08:40:50Z</time>
      </trkpt>
      <trkpt lat="45.93859" lon="4.78592">
        <ele>188</ele>
        <time>2018-10-20T08:40:53Z</time>
      </trkpt>
      <trkpt lat="45.93861" lon="4.78592">
        <ele>188</ele>
        <time>2018-10-20T08:40:54Z</time>
      </trkpt>
      <trkpt lat="45.93869" lon="4.78592">
        <ele>189</ele>
        <time>2018-10-20T08:40:57Z</time>
      </trkpt>
      <trkpt lat="45.93871" lon="4.78591">
        <ele>189</ele>
        <time>2018-10-20T08:40:58Z</time>
      </trkpt>
      <trkpt lat="45.93879" lon="4.7859">
        <ele>189</ele>
        <time>2018-10-20T08:41:01Z</time>
      </trkpt>
      <trkpt lat="45.93882" lon="4.78589">
        <ele>189</ele>
        <time>2018-10-20T08:41:02Z</time>
      </trkpt>
      <trkpt lat="45.9389" lon="4.78587">
        <ele>190</ele>
        <time>2018-10-20T08:41:05Z</time>
      </trkpt>
      <trkpt lat="45.93893" lon="4.78586">
        <ele>190</ele>
        <time>2018-10-20T08:41:06Z</time>
      </trkpt>
      <trkpt lat="45.93899" lon="4.78584">
        <ele>191</ele>
        <time>2018-10-20T08:41:09Z</time>
      </trkpt>
      <trkpt lat="45.93902" lon="4.78582">
        <ele>192</ele>
        <time>2018-10-20T08:41:10Z</time>
      </trkpt>
      <trkpt lat="45.93911" lon="4.78579">
        <ele>193</ele>
        <time>2018-10-20T08:41:14Z</time>
      </trkpt>
      <trkpt lat="45.93913" lon="4.78578">
        <ele>193</ele>
        <time>2018-10-20T08:41:15Z</time>
      </trkpt>
      <trkpt lat="45.93919" lon="4.7857">
        <ele>195</ele>
        <time>2018-10-20T08:41:19Z</time>
      </trkpt>
      <trkpt lat="45.9392" lon="4.78569">
        <ele>195</ele>
        <time>2018-10-20T08:41:20Z</time>
      </trkpt>
      <trkpt lat="45.93928" lon="4.78567">
        <ele>196</ele>
        <time>2018-10-20T08:41:24Z</time>
      </trkpt>
      <trkpt lat="45.9393" lon="4.78568">
        <ele>196</ele>
        <time>2018-10-20T08:41:25Z</time>
      </trkpt>
      <trkpt lat="45.93933" lon="4.78578">
        <ele>196</ele>
        <time>2018-10-20T08:41:28Z</time>
      </trkpt>
      <trkpt lat="45.93933" lon="4.78582">
        <ele>196</ele>
        <time>2018-10-20T08:41:29Z</time>
      </trkpt>
      <trkpt lat="45.93933" lon="4.78592">
        <ele>195</ele>
        <time>2018-10-20T08:41:31Z</time>
      </trkpt>
      <trkpt lat="45.93933" lon="4.78597">
        <ele>195</ele>
        <time>2018-10-20T08:41:32Z</time>
      </trkpt>
      <trkpt lat="45.93933" lon="4.78606">
        <ele>195</ele>
        <time>2018-10-20T08:41:35Z</time>
      </trkpt>
      <trkpt lat="45.93934" lon="4.7861">
        <ele>195</ele>
        <time>2018-10-20T08:41:36Z</time>
      </trkpt>
      <trkpt lat="45.93934" lon="4.78614">
        <ele>195</ele>
        <time>2018-10-20T08:41:37Z</time>
      </trkpt>
      <trkpt lat="45.93936" lon="4.78629">
        <ele>195</ele>
        <time>2018-10-20T08:41:38Z</time>
      </trkpt>
      <trkpt lat="45.93937" lon="4.78642">
        <ele>195</ele>
        <time>2018-10-20T08:41:40Z</time>
      </trkpt>
      <trkpt lat="45.93937" lon="4.78648">
        <ele>195</ele>
        <time>2018-10-20T08:41:41Z</time>
      </trkpt>
      <trkpt lat="45.93938" lon="4.78659">
        <ele>194</ele>
        <time>2018-10-20T08:41:43Z</time>
      </trkpt>
      <trkpt lat="45.93938" lon="4.78665">
        <ele>194</ele>
        <time>2018-10-20T08:41:44Z</time>
      </trkpt>
      <trkpt lat="45.93938" lon="4.7867">
        <ele>193</ele>
        <time>2018-10-20T08:41:46Z</time>
      </trkpt>
      <trkpt lat="45.93939" lon="4.78681">
        <ele>194</ele>
        <time>2018-10-20T08:41:47Z</time>
      </trkpt>
      <trkpt lat="45.93939" lon="4.78693">
        <ele>194</ele>
        <time>2018-10-20T08:41:49Z</time>
      </trkpt>
      <trkpt lat="45.93939" lon="4.78698">
        <ele>194</ele>
        <time>2018-10-20T08:41:50Z</time>
      </trkpt>
      <trkpt lat="45.93939" lon="4.78704">
        <ele>194</ele>
        <time>2018-10-20T08:41:51Z</time>
      </trkpt>
      <trkpt lat="45.93942" lon="4.78712">
        <ele>194</ele>
        <time>2018-10-20T08:41:52Z</time>
      </trkpt>
      <trkpt lat="45.93943" lon="4.78725">
        <ele>194</ele>
        <time>2018-10-20T08:41:54Z</time>
      </trkpt>
      <trkpt lat="45.93942" lon="4.78731">
        <ele>194</ele>
        <time>2018-10-20T08:41:55Z</time>
      </trkpt>
      <trkpt lat="45.93941" lon="4.78738">
        <ele>194</ele>
        <time>2018-10-20T08:41:57Z</time>
      </trkpt>
      <trkpt lat="45.9394" lon="4.78745">
        <ele>193</ele>
        <time>2018-10-20T08:41:58Z</time>
      </trkpt>
      <trkpt lat="45.93938" lon="4.78754">
        <ele>193</ele>
        <time>2018-10-20T08:42:00Z</time>
      </trkpt>
      <trkpt lat="45.9394" lon="4.78762">
        <ele>193</ele>
        <time>2018-10-20T08:42:01Z</time>
      </trkpt>
      <trkpt lat="45.93939" lon="4.78767">
        <ele>194</ele>
        <time>2018-10-20T08:42:02Z</time>
      </trkpt>
      <trkpt lat="45.93939" lon="4.78775">
        <ele>194</ele>
        <time>2018-10-20T08:42:03Z</time>
      </trkpt>
      <trkpt lat="45.93938" lon="4.78786">
        <ele>194</ele>
        <time>2018-10-20T08:42:05Z</time>
      </trkpt>
      <trkpt lat="45.93939" lon="4.78791">
        <ele>194</ele>
        <time>2018-10-20T08:42:06Z</time>
      </trkpt>
      <trkpt lat="45.93939" lon="4.78799">
        <ele>194</ele>
        <time>2018-10-20T08:42:07Z</time>
      </trkpt>
      <trkpt lat="45.93938" lon="4.78805">
        <ele>194</ele>
        <time>2018-10-20T08:42:08Z</time>
      </trkpt>
      <trkpt lat="45.93939" lon="4.78812">
        <ele>194</ele>
        <time>2018-10-20T08:42:09Z</time>
      </trkpt>
      <trkpt lat="45.93939" lon="4.78818">
        <ele>194</ele>
        <time>2018-10-20T08:42:10Z</time>
      </trkpt>
      <trkpt lat="45.93941" lon="4.7883">
        <ele>194</ele>
        <time>2018-10-20T08:42:12Z</time>
      </trkpt>
      <trkpt lat="45.93941" lon="4.78835">
        <ele>193</ele>
        <time>2018-10-20T08:42:13Z</time>
      </trkpt>
      <trkpt lat="45.93941" lon="4.78842">
        <ele>194</ele>
        <time>2018-10-20T08:42:14Z</time>
      </trkpt>
      <trkpt lat="45.93942" lon="4.78849">
        <ele>194</ele>
        <time>2018-10-20T08:42:15Z</time>
      </trkpt>
      <trkpt lat="45.93942" lon="4.78861">
        <ele>194</ele>
        <time>2018-10-20T08:42:17Z</time>
      </trkpt>
      <trkpt lat="45.93942" lon="4.78867">
        <ele>194</ele>
        <time>2018-10-20T08:42:18Z</time>
      </trkpt>
      <trkpt lat="45.93943" lon="4.78879">
        <ele>194</ele>
        <time>2018-10-20T08:42:20Z</time>
      </trkpt>
      <trkpt lat="45.93943" lon="4.78882">
        <ele>194</ele>
        <time>2018-10-20T08:42:21Z</time>
      </trkpt>
      <trkpt lat="45.93942" lon="4.78889">
        <ele>194</ele>
        <time>2018-10-20T08:42:23Z</time>
      </trkpt>
      <trkpt lat="45.93942" lon="4.78898">
        <ele>193</ele>
        <time>2018-10-20T08:42:24Z</time>
      </trkpt>
      <trkpt lat="45.93942" lon="4.78909">
        <ele>193</ele>
        <time>2018-10-20T08:42:26Z</time>
      </trkpt>
      <trkpt lat="45.93943" lon="4.78914">
        <ele>193</ele>
        <time>2018-10-20T08:42:27Z</time>
      </trkpt>
      <trkpt lat="45.93944" lon="4.78925">
        <ele>193</ele>
        <time>2018-10-20T08:42:29Z</time>
      </trkpt>
      <trkpt lat="45.93944" lon="4.78932">
        <ele>194</ele>
        <time>2018-10-20T08:42:30Z</time>
      </trkpt>
      <trkpt lat="45.93945" lon="4.78942">
        <ele>194</ele>
        <time>2018-10-20T08:42:31Z</time>
      </trkpt>
      <trkpt lat="45.93946" lon="4.78949">
        <ele>194</ele>
        <time>2018-10-20T08:42:32Z</time>
      </trkpt>
      <trkpt lat="45.93948" lon="4.78961">
        <ele>194</ele>
        <time>2018-10-20T08:42:35Z</time>
      </trkpt>
      <trkpt lat="45.93948" lon="4.78963">
        <ele>194</ele>
        <time>2018-10-20T08:42:36Z</time>
      </trkpt>
      <trkpt lat="45.9395" lon="4.78975">
        <ele>194</ele>
        <time>2018-10-20T08:42:37Z</time>
      </trkpt>
      <trkpt lat="45.9395" lon="4.78978">
        <ele>194</ele>
        <time>2018-10-20T08:42:38Z</time>
      </trkpt>
      <trkpt lat="45.9395" lon="4.7899">
        <ele>194</ele>
        <time>2018-10-20T08:42:40Z</time>
      </trkpt>
      <trkpt lat="45.93949" lon="4.78992">
        <ele>194</ele>
        <time>2018-10-20T08:42:41Z</time>
      </trkpt>
      <trkpt lat="45.93949" lon="4.79">
        <ele>195</ele>
        <time>2018-10-20T08:42:42Z</time>
      </trkpt>
      <trkpt lat="45.93949" lon="4.79006">
        <ele>195</ele>
        <time>2018-10-20T08:42:43Z</time>
      </trkpt>
      <trkpt lat="45.93948" lon="4.79016">
        <ele>195</ele>
        <time>2018-10-20T08:42:45Z</time>
      </trkpt>
      <trkpt lat="45.93949" lon="4.79023">
        <ele>195</ele>
        <time>2018-10-20T08:42:46Z</time>
      </trkpt>
      <trkpt lat="45.93949" lon="4.79033">
        <ele>196</ele>
        <time>2018-10-20T08:42:48Z</time>
      </trkpt>
      <trkpt lat="45.93949" lon="4.79037">
        <ele>196</ele>
        <time>2018-10-20T08:42:49Z</time>
      </trkpt>
      <trkpt lat="45.93949" lon="4.79049">
        <ele>196</ele>
        <time>2018-10-20T08:42:52Z</time>
      </trkpt>
      <trkpt lat="45.93949" lon="4.79052">
        <ele>196</ele>
        <time>2018-10-20T08:42:53Z</time>
      </trkpt>
      <trkpt lat="45.93949" lon="4.7906">
        <ele>196</ele>
        <time>2018-10-20T08:42:55Z</time>
      </trkpt>
      <trkpt lat="45.93951" lon="4.79077">
        <ele>196</ele>
        <time>2018-10-20T08:42:56Z</time>
      </trkpt>
      <trkpt lat="45.93952" lon="4.79089">
        <ele>197</ele>
        <time>2018-10-20T08:42:58Z</time>
      </trkpt>
      <trkpt lat="45.93952" lon="4.79095">
        <ele>197</ele>
        <time>2018-10-20T08:42:59Z</time>
      </trkpt>
      <trkpt lat="45.93952" lon="4.79106">
        <ele>197</ele>
        <time>2018-10-20T08:43:02Z</time>
      </trkpt>
      <trkpt lat="45.93952" lon="4.79109">
        <ele>197</ele>
        <time>2018-10-20T08:43:03Z</time>
      </trkpt>
      <trkpt lat="45.93952" lon="4.79121">
        <ele>197</ele>
        <time>2018-10-20T08:43:04Z</time>
      </trkpt>
      <trkpt lat="45.93952" lon="4.79123">
        <ele>197</ele>
        <time>2018-10-20T08:43:05Z</time>
      </trkpt>
      <trkpt lat="45.93952" lon="4.79132">
        <ele>197</ele>
        <time>2018-10-20T08:43:06Z</time>
      </trkpt>
      <trkpt lat="45.93952" lon="4.79139">
        <ele>197</ele>
        <time>2018-10-20T08:43:07Z</time>
      </trkpt>
      <trkpt lat="45.93952" lon="4.79149">
        <ele>197</ele>
        <time>2018-10-20T08:43:09Z</time>
      </trkpt>
      <trkpt lat="45.93952" lon="4.79155">
        <ele>197</ele>
        <time>2018-10-20T08:43:10Z</time>
      </trkpt>
      <trkpt lat="45.93952" lon="4.79166">
        <ele>197</ele>
        <time>2018-10-20T08:43:12Z</time>
      </trkpt>
      <trkpt lat="45.93953" lon="4.79172">
        <ele>197</ele>
        <time>2018-10-20T08:43:13Z</time>
      </trkpt>
      <trkpt lat="45.93953" lon="4.79183">
        <ele>197</ele>
        <time>2018-10-20T08:43:15Z</time>
      </trkpt>
      <trkpt lat="45.93954" lon="4.79189">
        <ele>197</ele>
        <time>2018-10-20T08:43:16Z</time>
      </trkpt>
      <trkpt lat="45.93954" lon="4.79199">
        <ele>197</ele>
        <time>2018-10-20T08:43:18Z</time>
      </trkpt>
      <trkpt lat="45.93954" lon="4.79205">
        <ele>197</ele>
        <time>2018-10-20T08:43:19Z</time>
      </trkpt>
      <trkpt lat="45.93954" lon="4.79216">
        <ele>197</ele>
        <time>2018-10-20T08:43:21Z</time>
      </trkpt>
      <trkpt lat="45.93954" lon="4.79219">
        <ele>197</ele>
        <time>2018-10-20T08:43:22Z</time>
      </trkpt>
      <trkpt lat="45.93954" lon="4.79227">
        <ele>197</ele>
        <time>2018-10-20T08:43:23Z</time>
      </trkpt>
      <trkpt lat="45.93953" lon="4.79233">
        <ele>197</ele>
        <time>2018-10-20T08:43:24Z</time>
      </trkpt>
      <trkpt lat="45.93954" lon="4.79245">
        <ele>197</ele>
        <time>2018-10-20T08:43:26Z</time>
      </trkpt>
      <trkpt lat="45.93955" lon="4.79251">
        <ele>198</ele>
        <time>2018-10-20T08:43:27Z</time>
      </trkpt>
      <trkpt lat="45.93956" lon="4.79263">
        <ele>198</ele>
        <time>2018-10-20T08:43:29Z</time>
      </trkpt>
      <trkpt lat="45.93957" lon="4.7927">
        <ele>198</ele>
        <time>2018-10-20T08:43:30Z</time>
      </trkpt>
      <trkpt lat="45.93958" lon="4.7928">
        <ele>199</ele>
        <time>2018-10-20T08:43:32Z</time>
      </trkpt>
      <trkpt lat="45.93958" lon="4.79286">
        <ele>199</ele>
        <time>2018-10-20T08:43:33Z</time>
      </trkpt>
      <trkpt lat="45.93957" lon="4.79297">
        <ele>199</ele>
        <time>2018-10-20T08:43:35Z</time>
      </trkpt>
      <trkpt lat="45.93957" lon="4.79302">
        <ele>199</ele>
        <time>2018-10-20T08:43:36Z</time>
      </trkpt>
      <trkpt lat="45.93958" lon="4.79315">
        <ele>199</ele>
        <time>2018-10-20T08:43:38Z</time>
      </trkpt>
      <trkpt lat="45.93958" lon="4.79321">
        <ele>199</ele>
        <time>2018-10-20T08:43:39Z</time>
      </trkpt>
      <trkpt lat="45.93958" lon="4.79332">
        <ele>199</ele>
        <time>2018-10-20T08:43:41Z</time>
      </trkpt>
      <trkpt lat="45.93958" lon="4.79337">
        <ele>201</ele>
        <time>2018-10-20T08:43:42Z</time>
      </trkpt>
      <trkpt lat="45.93956" lon="4.79347">
        <ele>201</ele>
        <time>2018-10-20T08:43:44Z</time>
      </trkpt>
      <trkpt lat="45.93956" lon="4.79353">
        <ele>201</ele>
        <time>2018-10-20T08:43:45Z</time>
      </trkpt>
      <trkpt lat="45.93956" lon="4.79364">
        <ele>201</ele>
        <time>2018-10-20T08:43:47Z</time>
      </trkpt>
      <trkpt lat="45.93956" lon="4.7937">
        <ele>201</ele>
        <time>2018-10-20T08:43:48Z</time>
      </trkpt>
      <trkpt lat="45.93954" lon="4.79378">
        <ele>201</ele>
        <time>2018-10-20T08:43:51Z</time>
      </trkpt>
      <trkpt lat="45.93952" lon="4.79388">
        <ele>201</ele>
        <time>2018-10-20T08:43:52Z</time>
      </trkpt>
      <trkpt lat="45.93953" lon="4.79395">
        <ele>201</ele>
        <time>2018-10-20T08:43:53Z</time>
      </trkpt>
      <trkpt lat="45.93954" lon="4.79401">
        <ele>201</ele>
        <time>2018-10-20T08:43:54Z</time>
      </trkpt>
      <trkpt lat="45.93955" lon="4.79413">
        <ele>201</ele>
        <time>2018-10-20T08:43:57Z</time>
      </trkpt>
      <trkpt lat="45.93955" lon="4.79416">
        <ele>201</ele>
        <time>2018-10-20T08:43:58Z</time>
      </trkpt>
      <trkpt lat="45.93955" lon="4.79427">
        <ele>202</ele>
        <time>2018-10-20T08:44:01Z</time>
      </trkpt>
      <trkpt lat="45.93953" lon="4.79438">
        <ele>202</ele>
        <time>2018-10-20T08:44:02Z</time>
      </trkpt>
      <trkpt lat="45.93952" lon="4.79448">
        <ele>202</ele>
        <time>2018-10-20T08:44:04Z</time>
      </trkpt>
      <trkpt lat="45.93952" lon="4.79454">
        <ele>202</ele>
        <time>2018-10-20T08:44:05Z</time>
      </trkpt>
      <trkpt lat="45.93953" lon="4.79467">
        <ele>203</ele>
        <time>2018-10-20T08:44:08Z</time>
      </trkpt>
      <trkpt lat="45.93953" lon="4.79477">
        <ele>203</ele>
        <time>2018-10-20T08:44:09Z</time>
      </trkpt>
      <trkpt lat="45.93954" lon="4.79489">
        <ele>203</ele>
        <time>2018-10-20T08:44:11Z</time>
      </trkpt>
      <trkpt lat="45.93954" lon="4.79494">
        <ele>203</ele>
        <time>2018-10-20T08:44:12Z</time>
      </trkpt>
      <trkpt lat="45.93955" lon="4.79504">
        <ele>204</ele>
        <time>2018-10-20T08:44:15Z</time>
      </trkpt>
      <trkpt lat="45.93956" lon="4.79508">
        <ele>204</ele>
        <time>2018-10-20T08:44:16Z</time>
      </trkpt>
      <trkpt lat="45.93957" lon="4.79516">
        <ele>204</ele>
        <time>2018-10-20T08:44:18Z</time>
      </trkpt>
      <trkpt lat="45.93958" lon="4.79531">
        <ele>205</ele>
        <time>2018-10-20T08:44:19Z</time>
      </trkpt>
      <trkpt lat="45.93959" lon="4.7954">
        <ele>205</ele>
        <time>2018-10-20T08:44:22Z</time>
      </trkpt>
      <trkpt lat="45.93959" lon="4.79551">
        <ele>205</ele>
        <time>2018-10-20T08:44:23Z</time>
      </trkpt>
      <trkpt lat="45.9396" lon="4.79561">
        <ele>205</ele>
        <time>2018-10-20T08:44:26Z</time>
      </trkpt>
      <trkpt lat="45.93961" lon="4.79564">
        <ele>206</ele>
        <time>2018-10-20T08:44:27Z</time>
      </trkpt>
      <trkpt lat="45.93962" lon="4.79576">
        <ele>206</ele>
        <time>2018-10-20T08:44:28Z</time>
      </trkpt>
      <trkpt lat="45.93962" lon="4.79579">
        <ele>206</ele>
        <time>2018-10-20T08:44:29Z</time>
      </trkpt>
      <trkpt lat="45.93963" lon="4.79592">
        <ele>207</ele>
        <time>2018-10-20T08:44:31Z</time>
      </trkpt>
      <trkpt lat="45.93964" lon="4.79594">
        <ele>207</ele>
        <time>2018-10-20T08:44:32Z</time>
      </trkpt>
      <trkpt lat="45.93964" lon="4.79603">
        <ele>207</ele>
        <time>2018-10-20T08:44:35Z</time>
      </trkpt>
      <trkpt lat="45.93966" lon="4.79616">
        <ele>207</ele>
        <time>2018-10-20T08:44:36Z</time>
      </trkpt>
      <trkpt lat="45.93967" lon="4.79628">
        <ele>207</ele>
        <time>2018-10-20T08:44:38Z</time>
      </trkpt>
      <trkpt lat="45.93968" lon="4.79634">
        <ele>207</ele>
        <time>2018-10-20T08:44:39Z</time>
      </trkpt>
      <trkpt lat="45.93968" lon="4.79641">
        <ele>207</ele>
        <time>2018-10-20T08:44:40Z</time>
      </trkpt>
      <trkpt lat="45.93969" lon="4.79647">
        <ele>208</ele>
        <time>2018-10-20T08:44:41Z</time>
      </trkpt>
      <trkpt lat="45.93975" lon="4.79659">
        <ele>208</ele>
        <time>2018-10-20T08:44:42Z</time>
      </trkpt>
      <trkpt lat="45.93974" lon="4.79666">
        <ele>208</ele>
        <time>2018-10-20T08:44:44Z</time>
      </trkpt>
      <trkpt lat="45.93976" lon="4.79675">
        <ele>208</ele>
        <time>2018-10-20T08:44:45Z</time>
      </trkpt>
      <trkpt lat="45.93976" lon="4.79686">
        <ele>208</ele>
        <time>2018-10-20T08:44:48Z</time>
      </trkpt>
      <trkpt lat="45.93974" lon="4.79693">
        <ele>207</ele>
        <time>2018-10-20T08:44:49Z</time>
      </trkpt>
      <trkpt lat="45.93973" lon="4.79698">
        <ele>207</ele>
        <time>2018-10-20T08:44:51Z</time>
      </trkpt>
      <trkpt lat="45.93975" lon="4.79708">
        <ele>207</ele>
        <time>2018-10-20T08:44:52Z</time>
      </trkpt>
      <trkpt lat="45.93976" lon="4.7972">
        <ele>207</ele>
        <time>2018-10-20T08:44:56Z</time>
      </trkpt>
      <trkpt lat="45.93976" lon="4.79732">
        <ele>207</ele>
        <time>2018-10-20T08:44:57Z</time>
      </trkpt>
      <trkpt lat="45.93977" lon="4.79743">
        <ele>207</ele>
        <time>2018-10-20T08:44:59Z</time>
      </trkpt>
      <trkpt lat="45.93978" lon="4.79748">
        <ele>207</ele>
        <time>2018-10-20T08:45:00Z</time>
      </trkpt>
      <trkpt lat="45.93978" lon="4.7976">
        <ele>207</ele>
        <time>2018-10-20T08:45:02Z</time>
      </trkpt>
      <trkpt lat="45.93979" lon="4.79767">
        <ele>207</ele>
        <time>2018-10-20T08:45:03Z</time>
      </trkpt>
      <trkpt lat="45.93978" lon="4.79778">
        <ele>207</ele>
        <time>2018-10-20T08:45:05Z</time>
      </trkpt>
      <trkpt lat="45.93978" lon="4.79784">
        <ele>207</ele>
        <time>2018-10-20T08:45:06Z</time>
      </trkpt>
      <trkpt lat="45.93977" lon="4.79795">
        <ele>207</ele>
        <time>2018-10-20T08:45:08Z</time>
      </trkpt>
      <trkpt lat="45.93977" lon="4.79801">
        <ele>207</ele>
        <time>2018-10-20T08:45:09Z</time>
      </trkpt>
      <trkpt lat="45.93976" lon="4.79812">
        <ele>207</ele>
        <time>2018-10-20T08:45:11Z</time>
      </trkpt>
      <trkpt lat="45.93976" lon="4.79819">
        <ele>207</ele>
        <time>2018-10-20T08:45:12Z</time>
      </trkpt>
      <trkpt lat="45.93975" lon="4.79825">
        <ele>207</ele>
        <time>2018-10-20T08:45:13Z</time>
      </trkpt>
      <trkpt lat="45.93974" lon="4.79832">
        <ele>207</ele>
        <time>2018-10-20T08:45:14Z</time>
      </trkpt>
      <trkpt lat="45.93972" lon="4.79839">
        <ele>207</ele>
        <time>2018-10-20T08:45:15Z</time>
      </trkpt>
      <trkpt lat="45.93971" lon="4.79846">
        <ele>207</ele>
        <time>2018-10-20T08:45:16Z</time>
      </trkpt>
      <trkpt lat="45.93969" lon="4.79852">
        <ele>206</ele>
        <time>2018-10-20T08:45:17Z</time>
      </trkpt>
      <trkpt lat="45.93967" lon="4.79858">
        <ele>206</ele>
        <time>2018-10-20T08:45:18Z</time>
      </trkpt>
      <trkpt lat="45.93964" lon="4.7987">
        <ele>206</ele>
        <time>2018-10-20T08:45:20Z</time>
      </trkpt>
      <trkpt lat="45.93964" lon="4.79876">
        <ele>206</ele>
        <time>2018-10-20T08:45:21Z</time>
      </trkpt>
      <trkpt lat="45.93961" lon="4.79887">
        <ele>206</ele>
        <time>2018-10-20T08:45:23Z</time>
      </trkpt>
      <trkpt lat="45.9396" lon="4.79892">
        <ele>206</ele>
        <time>2018-10-20T08:45:24Z</time>
      </trkpt>
      <trkpt lat="45.93958" lon="4.79897">
        <ele>206</ele>
        <time>2018-10-20T08:45:25Z</time>
      </trkpt>
      <trkpt lat="45.93956" lon="4.79903">
        <ele>205</ele>
        <time>2018-10-20T08:45:26Z</time>
      </trkpt>
      <trkpt lat="45.93953" lon="4.7991">
        <ele>205</ele>
        <time>2018-10-20T08:45:27Z</time>
      </trkpt>
      <trkpt lat="45.93952" lon="4.79917">
        <ele>205</ele>
        <time>2018-10-20T08:45:28Z</time>
      </trkpt>
      <trkpt lat="45.9395" lon="4.79923">
        <ele>205</ele>
        <time>2018-10-20T08:45:29Z</time>
      </trkpt>
      <trkpt lat="45.93949" lon="4.7993">
        <ele>205</ele>
        <time>2018-10-20T08:45:30Z</time>
      </trkpt>
      <trkpt lat="45.93947" lon="4.79936">
        <ele>205</ele>
        <time>2018-10-20T08:45:31Z</time>
      </trkpt>
      <trkpt lat="45.93946" lon="4.79942">
        <ele>205</ele>
        <time>2018-10-20T08:45:32Z</time>
      </trkpt>
      <trkpt lat="45.93946" lon="4.79955">
        <ele>205</ele>
        <time>2018-10-20T08:45:34Z</time>
      </trkpt>
      <trkpt lat="45.93945" lon="4.79961">
        <ele>205</ele>
        <time>2018-10-20T08:45:35Z</time>
      </trkpt>
      <trkpt lat="45.93944" lon="4.79973">
        <ele>205</ele>
        <time>2018-10-20T08:45:37Z</time>
      </trkpt>
      <trkpt lat="45.93943" lon="4.79979">
        <ele>205</ele>
        <time>2018-10-20T08:45:38Z</time>
      </trkpt>
      <trkpt lat="45.93942" lon="4.79985">
        <ele>204</ele>
        <time>2018-10-20T08:45:39Z</time>
      </trkpt>
      <trkpt lat="45.93941" lon="4.79992">
        <ele>204</ele>
        <time>2018-10-20T08:45:40Z</time>
      </trkpt>
      <trkpt lat="45.9394" lon="4.80004">
        <ele>206</ele>
        <time>2018-10-20T08:45:42Z</time>
      </trkpt>
      <trkpt lat="45.93941" lon="4.8001">
        <ele>206</ele>
        <time>2018-10-20T08:45:43Z</time>
      </trkpt>
      <trkpt lat="45.93938" lon="4.80022">
        <ele>206</ele>
        <time>2018-10-20T08:45:45Z</time>
      </trkpt>
      <trkpt lat="45.93939" lon="4.80029">
        <ele>207</ele>
        <time>2018-10-20T08:45:46Z</time>
      </trkpt>
      <trkpt lat="45.93938" lon="4.80035">
        <ele>207</ele>
        <time>2018-10-20T08:45:47Z</time>
      </trkpt>
      <trkpt lat="45.93937" lon="4.80042">
        <ele>207</ele>
        <time>2018-10-20T08:45:48Z</time>
      </trkpt>
      <trkpt lat="45.93939" lon="4.80048">
        <ele>207</ele>
        <time>2018-10-20T08:45:49Z</time>
      </trkpt>
      <trkpt lat="45.93942" lon="4.80055">
        <ele>208</ele>
        <time>2018-10-20T08:45:50Z</time>
      </trkpt>
      <trkpt lat="45.93941" lon="4.80062">
        <ele>208</ele>
        <time>2018-10-20T08:45:51Z</time>
      </trkpt>
      <trkpt lat="45.9394" lon="4.80069">
        <ele>207</ele>
        <time>2018-10-20T08:45:52Z</time>
      </trkpt>
      <trkpt lat="45.9394" lon="4.80077">
        <ele>207</ele>
        <time>2018-10-20T08:45:53Z</time>
      </trkpt>
      <trkpt lat="45.9394" lon="4.80085">
        <ele>208</ele>
        <time>2018-10-20T08:45:54Z</time>
      </trkpt>
      <trkpt lat="45.93942" lon="4.80091">
        <ele>208</ele>
        <time>2018-10-20T08:45:55Z</time>
      </trkpt>
      <trkpt lat="45.93942" lon="4.80099">
        <ele>208</ele>
        <time>2018-10-20T08:45:56Z</time>
      </trkpt>
      <trkpt lat="45.93941" lon="4.80107">
        <ele>208</ele>
        <time>2018-10-20T08:45:57Z</time>
      </trkpt>
      <trkpt lat="45.93942" lon="4.80113">
        <ele>209</ele>
        <time>2018-10-20T08:45:58Z</time>
      </trkpt>
      <trkpt lat="45.93943" lon="4.80119">
        <ele>209</ele>
        <time>2018-10-20T08:45:59Z</time>
      </trkpt>
      <trkpt lat="45.93945" lon="4.80126">
        <ele>209</ele>
        <time>2018-10-20T08:46:00Z</time>
      </trkpt>
      <trkpt lat="45.93946" lon="4.80138">
        <ele>209</ele>
        <time>2018-10-20T08:46:02Z</time>
      </trkpt>
      <trkpt lat="45.93947" lon="4.80144">
        <ele>209</ele>
        <time>2018-10-20T08:46:03Z</time>
      </trkpt>
      <trkpt lat="45.93948" lon="4.80155">
        <ele>208</ele>
        <time>2018-10-20T08:46:05Z</time>
      </trkpt>
      <trkpt lat="45.93949" lon="4.80161">
        <ele>208</ele>
        <time>2018-10-20T08:46:06Z</time>
      </trkpt>
      <trkpt lat="45.93951" lon="4.80168">
        <ele>206</ele>
        <time>2018-10-20T08:46:07Z</time>
      </trkpt>
      <trkpt lat="45.93953" lon="4.80174">
        <ele>206</ele>
        <time>2018-10-20T08:46:08Z</time>
      </trkpt>
      <trkpt lat="45.93955" lon="4.80181">
        <ele>206</ele>
        <time>2018-10-20T08:46:09Z</time>
      </trkpt>
      <trkpt lat="45.93956" lon="4.80187">
        <ele>206</ele>
        <time>2018-10-20T08:46:10Z</time>
      </trkpt>
      <trkpt lat="45.93958" lon="4.80195">
        <ele>206</ele>
        <time>2018-10-20T08:46:11Z</time>
      </trkpt>
      <trkpt lat="45.93959" lon="4.80202">
        <ele>206</ele>
        <time>2018-10-20T08:46:12Z</time>
      </trkpt>
      <trkpt lat="45.93961" lon="4.80208">
        <ele>205</ele>
        <time>2018-10-20T08:46:13Z</time>
      </trkpt>
      <trkpt lat="45.93965" lon="4.80215">
        <ele>205</ele>
        <time>2018-10-20T08:46:14Z</time>
      </trkpt>
      <trkpt lat="45.93966" lon="4.80222">
        <ele>205</ele>
        <time>2018-10-20T08:46:15Z</time>
      </trkpt>
      <trkpt lat="45.93968" lon="4.80229">
        <ele>205</ele>
        <time>2018-10-20T08:46:16Z</time>
      </trkpt>
      <trkpt lat="45.9397" lon="4.80236">
        <ele>205</ele>
        <time>2018-10-20T08:46:17Z</time>
      </trkpt>
      <trkpt lat="45.93973" lon="4.80243">
        <ele>205</ele>
        <time>2018-10-20T08:46:18Z</time>
      </trkpt>
      <trkpt lat="45.93975" lon="4.8025">
        <ele>204</ele>
        <time>2018-10-20T08:46:19Z</time>
      </trkpt>
      <trkpt lat="45.93977" lon="4.80256">
        <ele>203</ele>
        <time>2018-10-20T08:46:20Z</time>
      </trkpt>
      <trkpt lat="45.93979" lon="4.80262">
        <ele>203</ele>
        <time>2018-10-20T08:46:21Z</time>
      </trkpt>
      <trkpt lat="45.93982" lon="4.80268">
        <ele>203</ele>
        <time>2018-10-20T08:46:22Z</time>
      </trkpt>
      <trkpt lat="45.93983" lon="4.80274">
        <ele>203</ele>
        <time>2018-10-20T08:46:23Z</time>
      </trkpt>
      <trkpt lat="45.93985" lon="4.8028">
        <ele>203</ele>
        <time>2018-10-20T08:46:24Z</time>
      </trkpt>
      <trkpt lat="45.93987" lon="4.80291">
        <ele>203</ele>
        <time>2018-10-20T08:46:26Z</time>
      </trkpt>
      <trkpt lat="45.9399" lon="4.80298">
        <ele>203</ele>
        <time>2018-10-20T08:46:27Z</time>
      </trkpt>
      <trkpt lat="45.93992" lon="4.80307">
        <ele>203</ele>
        <time>2018-10-20T08:46:29Z</time>
      </trkpt>
      <trkpt lat="45.93994" lon="4.80316">
        <ele>204</ele>
        <time>2018-10-20T08:46:30Z</time>
      </trkpt>
      <trkpt lat="45.93998" lon="4.80326">
        <ele>205</ele>
        <time>2018-10-20T08:46:33Z</time>
      </trkpt>
      <trkpt lat="45.94" lon="4.8033">
        <ele>205</ele>
        <time>2018-10-20T08:46:34Z</time>
      </trkpt>
      <trkpt lat="45.94002" lon="4.80338">
        <ele>208</ele>
        <time>2018-10-20T08:46:36Z</time>
      </trkpt>
      <trkpt lat="45.94004" lon="4.80342">
        <ele>210</ele>
        <time>2018-10-20T08:46:37Z</time>
      </trkpt>
      <trkpt lat="45.94007" lon="4.80353">
        <ele>213</ele>
        <time>2018-10-20T08:46:40Z</time>
      </trkpt>
      <trkpt lat="45.94008" lon="4.80356">
        <ele>214</ele>
        <time>2018-10-20T08:46:41Z</time>
      </trkpt>
      <trkpt lat="45.94011" lon="4.80366">
        <ele>215</ele>
        <time>2018-10-20T08:46:44Z</time>
      </trkpt>
      <trkpt lat="45.94012" lon="4.80369">
        <ele>216</ele>
        <time>2018-10-20T08:46:45Z</time>
      </trkpt>
      <trkpt lat="45.94014" lon="4.80377">
        <ele>217</ele>
        <time>2018-10-20T08:46:47Z</time>
      </trkpt>
      <trkpt lat="45.94015" lon="4.80382">
        <ele>217</ele>
        <time>2018-10-20T08:46:48Z</time>
      </trkpt>
      <trkpt lat="45.94016" lon="4.80394">
        <ele>218</ele>
        <time>2018-10-20T08:46:51Z</time>
      </trkpt>
      <trkpt lat="45.94016" lon="4.80397">
        <ele>218</ele>
        <time>2018-10-20T08:46:52Z</time>
      </trkpt>
      <trkpt lat="45.94017" lon="4.80408">
        <ele>218</ele>
        <time>2018-10-20T08:46:55Z</time>
      </trkpt>
      <trkpt lat="45.94018" lon="4.80411">
        <ele>218</ele>
        <time>2018-10-20T08:46:56Z</time>
      </trkpt>
      <trkpt lat="45.9402" lon="4.80421">
        <ele>221</ele>
        <time>2018-10-20T08:46:59Z</time>
      </trkpt>
      <trkpt lat="45.94021" lon="4.80425">
        <ele>222</ele>
        <time>2018-10-20T08:47:00Z</time>
      </trkpt>
      <trkpt lat="45.94023" lon="4.80435">
        <ele>223</ele>
        <time>2018-10-20T08:47:03Z</time>
      </trkpt>
      <trkpt lat="45.94024" lon="4.80439">
        <ele>223</ele>
        <time>2018-10-20T08:47:04Z</time>
      </trkpt>
      <trkpt lat="45.94026" lon="4.80449">
        <ele>223</ele>
        <time>2018-10-20T08:47:07Z</time>
      </trkpt>
      <trkpt lat="45.94026" lon="4.80452">
        <ele>224</ele>
        <time>2018-10-20T08:47:08Z</time>
      </trkpt>
      <trkpt lat="45.94027" lon="4.80464">
        <ele>224</ele>
        <time>2018-10-20T08:47:11Z</time>
      </trkpt>
      <trkpt lat="45.94027" lon="4.80467">
        <ele>224</ele>
        <time>2018-10-20T08:47:12Z</time>
      </trkpt>
      <trkpt lat="45.94027" lon="4.8048">
        <ele>224</ele>
        <time>2018-10-20T08:47:15Z</time>
      </trkpt>
      <trkpt lat="45.94027" lon="4.80484">
        <ele>224</ele>
        <time>2018-10-20T08:47:16Z</time>
      </trkpt>
      <trkpt lat="45.94027" lon="4.80495">
        <ele>224</ele>
        <time>2018-10-20T08:47:19Z</time>
      </trkpt>
      <trkpt lat="45.94028" lon="4.80499">
        <ele>224</ele>
        <time>2018-10-20T08:47:20Z</time>
      </trkpt>
      <trkpt lat="45.94029" lon="4.80511">
        <ele>225</ele>
        <time>2018-10-20T08:47:24Z</time>
      </trkpt>
      <trkpt lat="45.9403" lon="4.80515">
        <ele>225</ele>
        <time>2018-10-20T08:47:25Z</time>
      </trkpt>
      <trkpt lat="45.9403" lon="4.80526">
        <ele>225</ele>
        <time>2018-10-20T08:47:28Z</time>
      </trkpt>
      <trkpt lat="45.9403" lon="4.80528">
        <ele>226</ele>
        <time>2018-10-20T08:47:29Z</time>
      </trkpt>
      <trkpt lat="45.9403" lon="4.8054">
        <ele>226</ele>
        <time>2018-10-20T08:47:32Z</time>
      </trkpt>
      <trkpt lat="45.9403" lon="4.80543">
        <ele>226</ele>
        <time>2018-10-20T08:47:33Z</time>
      </trkpt>
      <trkpt lat="45.9403" lon="4.80553">
        <ele>226</ele>
        <time>2018-10-20T08:47:35Z</time>
      </trkpt>
      <trkpt lat="45.9403" lon="4.80556">
        <ele>226</ele>
        <time>2018-10-20T08:47:36Z</time>
      </trkpt>
      <trkpt lat="45.9403" lon="4.80568">
        <ele>225</ele>
        <time>2018-10-20T08:47:39Z</time>
      </trkpt>
      <trkpt lat="45.9403" lon="4.80572">
        <ele>225</ele>
        <time>2018-10-20T08:47:40Z</time>
      </trkpt>
      <trkpt lat="45.9403" lon="4.80581">
        <ele>225</ele>
        <time>2018-10-20T08:47:43Z</time>
      </trkpt>
      <trkpt lat="45.94029" lon="4.80585">
        <ele>225</ele>
        <time>2018-10-20T08:47:44Z</time>
      </trkpt>
      <trkpt lat="45.94027" lon="4.80596">
        <ele>224</ele>
        <time>2018-10-20T08:47:48Z</time>
      </trkpt>
      <trkpt lat="45.94027" lon="4.80599">
        <ele>225</ele>
        <time>2018-10-20T08:47:49Z</time>
      </trkpt>
      <trkpt lat="45.94025" lon="4.80611">
        <ele>225</ele>
        <time>2018-10-20T08:47:54Z</time>
      </trkpt>
      <trkpt lat="45.94025" lon="4.80614">
        <ele>225</ele>
        <time>2018-10-20T08:47:55Z</time>
      </trkpt>
      <trkpt lat="45.94025" lon="4.80624">
        <ele>225</ele>
        <time>2018-10-20T08:47:58Z</time>
      </trkpt>
      <trkpt lat="45.94025" lon="4.80628">
        <ele>225</ele>
        <time>2018-10-20T08:47:59Z</time>
      </trkpt>
      <trkpt lat="45.94026" lon="4.8064">
        <ele>224</ele>
        <time>2018-10-20T08:48:02Z</time>
      </trkpt>
      <trkpt lat="45.94026" lon="4.80643">
        <ele>224</ele>
        <time>2018-10-20T08:48:03Z</time>
      </trkpt>
      <trkpt lat="45.94027" lon="4.80655">
        <ele>224</ele>
        <time>2018-10-20T08:48:06Z</time>
      </trkpt>
      <trkpt lat="45.94026" lon="4.80658">
        <ele>224</ele>
        <time>2018-10-20T08:48:07Z</time>
      </trkpt>
      <trkpt lat="45.94027" lon="4.8067">
        <ele>224</ele>
        <time>2018-10-20T08:48:10Z</time>
      </trkpt>
      <trkpt lat="45.94028" lon="4.80674">
        <ele>224</ele>
        <time>2018-10-20T08:48:11Z</time>
      </trkpt>
      <trkpt lat="45.9403" lon="4.80686">
        <ele>225</ele>
        <time>2018-10-20T08:48:14Z</time>
      </trkpt>
      <trkpt lat="45.94031" lon="4.80691">
        <ele>225</ele>
        <time>2018-10-20T08:48:15Z</time>
      </trkpt>
      <trkpt lat="45.94033" lon="4.80699">
        <ele>226</ele>
        <time>2018-10-20T08:48:17Z</time>
      </trkpt>
      <trkpt lat="45.94033" lon="4.80703">
        <ele>226</ele>
        <time>2018-10-20T08:48:18Z</time>
      </trkpt>
      <trkpt lat="45.94035" lon="4.80711">
        <ele>226</ele>
        <time>2018-10-20T08:48:20Z</time>
      </trkpt>
      <trkpt lat="45.94035" lon="4.80716">
        <ele>226</ele>
        <time>2018-10-20T08:48:21Z</time>
      </trkpt>
      <trkpt lat="45.94037" lon="4.80728">
        <ele>226</ele>
        <time>2018-10-20T08:48:24Z</time>
      </trkpt>
      <trkpt lat="45.94038" lon="4.80732">
        <ele>226</ele>
        <time>2018-10-20T08:48:25Z</time>
      </trkpt>
      <trkpt lat="45.9404" lon="4.80743">
        <ele>227</ele>
        <time>2018-10-20T08:48:28Z</time>
      </trkpt>
      <trkpt lat="45.94041" lon="4.80747">
        <ele>227</ele>
        <time>2018-10-20T08:48:29Z</time>
      </trkpt>
      <trkpt lat="45.94043" lon="4.80759">
        <ele>228</ele>
        <time>2018-10-20T08:48:32Z</time>
      </trkpt>
      <trkpt lat="45.94044" lon="4.80763">
        <ele>228</ele>
        <time>2018-10-20T08:48:33Z</time>
      </trkpt>
      <trkpt lat="45.94045" lon="4.80771">
        <ele>228</ele>
        <time>2018-10-20T08:48:35Z</time>
      </trkpt>
      <trkpt lat="45.94046" lon="4.80775">
        <ele>228</ele>
        <time>2018-10-20T08:48:36Z</time>
      </trkpt>
      <trkpt lat="45.94047" lon="4.80787">
        <ele>229</ele>
        <time>2018-10-20T08:48:39Z</time>
      </trkpt>
      <trkpt lat="45.94047" lon="4.8079">
        <ele>229</ele>
        <time>2018-10-20T08:48:40Z</time>
      </trkpt>
      <trkpt lat="45.94048" lon="4.80802">
        <ele>229</ele>
        <time>2018-10-20T08:48:43Z</time>
      </trkpt>
      <trkpt lat="45.94049" lon="4.80806">
        <ele>229</ele>
        <time>2018-10-20T08:48:44Z</time>
      </trkpt>
      <trkpt lat="45.94051" lon="4.80817">
        <ele>230</ele>
        <time>2018-10-20T08:48:47Z</time>
      </trkpt>
      <trkpt lat="45.94052" lon="4.80821">
        <ele>230</ele>
        <time>2018-10-20T08:48:48Z</time>
      </trkpt>
      <trkpt lat="45.94054" lon="4.80833">
        <ele>231</ele>
        <time>2018-10-20T08:48:51Z</time>
      </trkpt>
      <trkpt lat="45.94054" lon="4.80837">
        <ele>231</ele>
        <time>2018-10-20T08:48:52Z</time>
      </trkpt>
      <trkpt lat="45.94056" lon="4.80848">
        <ele>231</ele>
        <time>2018-10-20T08:48:55Z</time>
      </trkpt>
      <trkpt lat="45.94056" lon="4.80852">
        <ele>231</ele>
        <time>2018-10-20T08:48:56Z</time>
      </trkpt>
      <trkpt lat="45.94058" lon="4.80862">
        <ele>231</ele>
        <time>2018-10-20T08:48:59Z</time>
      </trkpt>
      <trkpt lat="45.94058" lon="4.80866">
        <ele>231</ele>
        <time>2018-10-20T08:49:00Z</time>
      </trkpt>
      <trkpt lat="45.94059" lon="4.80877">
        <ele>231</ele>
        <time>2018-10-20T08:49:03Z</time>
      </trkpt>
      <trkpt lat="45.9406" lon="4.80881">
        <ele>231</ele>
        <time>2018-10-20T08:49:04Z</time>
      </trkpt>
      <trkpt lat="45.94061" lon="4.80891">
        <ele>231</ele>
        <time>2018-10-20T08:49:07Z</time>
      </trkpt>
      <trkpt lat="45.94061" lon="4.80895">
        <ele>231</ele>
        <time>2018-10-20T08:49:08Z</time>
      </trkpt>
      <trkpt lat="45.94063" lon="4.80906">
        <ele>232</ele>
        <time>2018-10-20T08:49:11Z</time>
      </trkpt>
      <trkpt lat="45.94064" lon="4.8091">
        <ele>233</ele>
        <time>2018-10-20T08:49:12Z</time>
      </trkpt>
      <trkpt lat="45.94066" lon="4.80921">
        <ele>234</ele>
        <time>2018-10-20T08:49:15Z</time>
      </trkpt>
      <trkpt lat="45.94067" lon="4.80925">
        <ele>234</ele>
        <time>2018-10-20T08:49:16Z</time>
      </trkpt>
      <trkpt lat="45.94069" lon="4.80937">
        <ele>233</ele>
        <time>2018-10-20T08:49:18Z</time>
      </trkpt>
      <trkpt lat="45.9407" lon="4.80939">
        <ele>233</ele>
        <time>2018-10-20T08:49:19Z</time>
      </trkpt>
      <trkpt lat="45.94071" lon="4.80948">
        <ele>233</ele>
        <time>2018-10-20T08:49:22Z</time>
      </trkpt>
      <trkpt lat="45.94072" lon="4.80951">
        <ele>233</ele>
        <time>2018-10-20T08:49:23Z</time>
      </trkpt>
      <trkpt lat="45.94073" lon="4.80961">
        <ele>233</ele>
        <time>2018-10-20T08:49:26Z</time>
      </trkpt>
      <trkpt lat="45.94074" lon="4.80965">
        <ele>233</ele>
        <time>2018-10-20T08:49:27Z</time>
      </trkpt>
      <trkpt lat="45.94076" lon="4.80975">
        <ele>234</ele>
        <time>2018-10-20T08:49:30Z</time>
      </trkpt>
      <trkpt lat="45.94076" lon="4.80978">
        <ele>234</ele>
        <time>2018-10-20T08:49:31Z</time>
      </trkpt>
      <trkpt lat="45.94078" lon="4.80988">
        <ele>236</ele>
        <time>2018-10-20T08:49:34Z</time>
      </trkpt>
      <trkpt lat="45.94078" lon="4.80991">
        <ele>237</ele>
        <time>2018-10-20T08:49:35Z</time>
      </trkpt>
      <trkpt lat="45.94079" lon="4.81003">
        <ele>238</ele>
        <time>2018-10-20T08:49:39Z</time>
      </trkpt>
      <trkpt lat="45.94079" lon="4.81007">
        <ele>237</ele>
        <time>2018-10-20T08:49:40Z</time>
      </trkpt>
      <trkpt lat="45.9408" lon="4.81017">
        <ele>236</ele>
        <time>2018-10-20T08:49:42Z</time>
      </trkpt>
      <trkpt lat="45.94081" lon="4.8102">
        <ele>235</ele>
        <time>2018-10-20T08:49:43Z</time>
      </trkpt>
      <trkpt lat="45.94083" lon="4.81033">
        <ele>234</ele>
        <time>2018-10-20T08:49:47Z</time>
      </trkpt>
      <trkpt lat="45.94084" lon="4.81036">
        <ele>244</ele>
        <time>2018-10-20T08:49:48Z</time>
      </trkpt>
      <trkpt lat="45.94087" lon="4.81045">
        <ele>243</ele>
        <time>2018-10-20T08:49:51Z</time>
      </trkpt>
      <trkpt lat="45.94088" lon="4.81048">
        <ele>243</ele>
        <time>2018-10-20T08:49:52Z</time>
      </trkpt>
      <trkpt lat="45.94091" lon="4.81056">
        <ele>243</ele>
        <time>2018-10-20T08:49:55Z</time>
      </trkpt>
      <trkpt lat="45.94093" lon="4.81059">
        <ele>243</ele>
        <time>2018-10-20T08:49:56Z</time>
      </trkpt>
      <trkpt lat="45.94098" lon="4.81069">
        <ele>242</ele>
        <time>2018-10-20T08:49:59Z</time>
      </trkpt>
      <trkpt lat="45.94099" lon="4.81072">
        <ele>242</ele>
        <time>2018-10-20T08:50:00Z</time>
      </trkpt>
      <trkpt lat="45.94103" lon="4.81081">
        <ele>242</ele>
        <time>2018-10-20T08:50:03Z</time>
      </trkpt>
      <trkpt lat="45.94105" lon="4.81084">
        <ele>241</ele>
        <time>2018-10-20T08:50:04Z</time>
      </trkpt>
      <trkpt lat="45.94109" lon="4.81094">
        <ele>242</ele>
        <time>2018-10-20T08:50:08Z</time>
      </trkpt>
      <trkpt lat="45.94111" lon="4.81097">
        <ele>242</ele>
        <time>2018-10-20T08:50:09Z</time>
      </trkpt>
      <trkpt lat="45.94115" lon="4.81107">
        <ele>243</ele>
        <time>2018-10-20T08:50:12Z</time>
      </trkpt>
      <trkpt lat="45.94117" lon="4.8111">
        <ele>243</ele>
        <time>2018-10-20T08:50:13Z</time>
      </trkpt>
      <trkpt lat="45.94121" lon="4.81118">
        <ele>243</ele>
        <time>2018-10-20T08:50:16Z</time>
      </trkpt>
      <trkpt lat="45.94123" lon="4.81121">
        <ele>243</ele>
        <time>2018-10-20T08:50:17Z</time>
      </trkpt>
      <trkpt lat="45.94127" lon="4.8113">
        <ele>243</ele>
        <time>2018-10-20T08:50:20Z</time>
      </trkpt>
      <trkpt lat="45.94128" lon="4.81133">
        <ele>243</ele>
        <time>2018-10-20T08:50:21Z</time>
      </trkpt>
      <trkpt lat="45.94133" lon="4.81144">
        <ele>244</ele>
        <time>2018-10-20T08:50:24Z</time>
      </trkpt>
      <trkpt lat="45.94135" lon="4.81147">
        <ele>244</ele>
        <time>2018-10-20T08:50:25Z</time>
      </trkpt>
      <trkpt lat="45.9414" lon="4.81156">
        <ele>244</ele>
        <time>2018-10-20T08:50:28Z</time>
      </trkpt>
      <trkpt lat="45.94141" lon="4.81159">
        <ele>244</ele>
        <time>2018-10-20T08:50:29Z</time>
      </trkpt>
      <trkpt lat="45.94146" lon="4.81169">
        <ele>245</ele>
        <time>2018-10-20T08:50:33Z</time>
      </trkpt>
      <trkpt lat="45.94147" lon="4.81172">
        <ele>245</ele>
        <time>2018-10-20T08:50:34Z</time>
      </trkpt>
      <trkpt lat="45.9415" lon="4.81183">
        <ele>245</ele>
        <time>2018-10-20T08:50:37Z</time>
      </trkpt>
      <trkpt lat="45.94151" lon="4.81186">
        <ele>245</ele>
        <time>2018-10-20T08:50:38Z</time>
      </trkpt>
      <trkpt lat="45.94154" lon="4.81195">
        <ele>245</ele>
        <time>2018-10-20T08:50:41Z</time>
      </trkpt>
      <trkpt lat="45.94155" lon="4.81198">
        <ele>245</ele>
        <time>2018-10-20T08:50:42Z</time>
      </trkpt>
      <trkpt lat="45.94157" lon="4.81207">
        <ele>245</ele>
        <time>2018-10-20T08:50:45Z</time>
      </trkpt>
      <trkpt lat="45.94158" lon="4.81211">
        <ele>245</ele>
        <time>2018-10-20T08:50:46Z</time>
      </trkpt>
      <trkpt lat="45.94162" lon="4.81222">
        <ele>245</ele>
        <time>2018-10-20T08:50:49Z</time>
      </trkpt>
      <trkpt lat="45.94162" lon="4.81224">
        <ele>246</ele>
        <time>2018-10-20T08:50:50Z</time>
      </trkpt>
      <trkpt lat="45.94165" lon="4.81234">
        <ele>247</ele>
        <time>2018-10-20T08:50:53Z</time>
      </trkpt>
      <trkpt lat="45.94166" lon="4.81238">
        <ele>247</ele>
        <time>2018-10-20T08:50:54Z</time>
      </trkpt>
      <trkpt lat="45.94169" lon="4.8125">
        <ele>251</ele>
        <time>2018-10-20T08:50:57Z</time>
      </trkpt>
      <trkpt lat="45.94169" lon="4.81254">
        <ele>251</ele>
        <time>2018-10-20T08:50:58Z</time>
      </trkpt>
      <trkpt lat="45.94171" lon="4.81266">
        <ele>254</ele>
        <time>2018-10-20T08:51:01Z</time>
      </trkpt>
      <trkpt lat="45.94171" lon="4.81269">
        <ele>254</ele>
        <time>2018-10-20T08:51:02Z</time>
      </trkpt>
      <trkpt lat="45.94173" lon="4.81279">
        <ele>255</ele>
        <time>2018-10-20T08:51:05Z</time>
      </trkpt>
      <trkpt lat="45.94174" lon="4.81283">
        <ele>255</ele>
        <time>2018-10-20T08:51:06Z</time>
      </trkpt>
      <trkpt lat="45.94174" lon="4.81292">
        <ele>256</ele>
        <time>2018-10-20T08:51:10Z</time>
      </trkpt>
      <trkpt lat="45.94174" lon="4.81295">
        <ele>256</ele>
        <time>2018-10-20T08:51:11Z</time>
      </trkpt>
      <trkpt lat="45.94174" lon="4.81299">
        <ele>256</ele>
        <time>2018-10-20T08:51:12Z</time>
      </trkpt>
      <trkpt lat="45.94174" lon="4.81316">
        <ele>255</ele>
        <time>2018-10-20T08:51:13Z</time>
      </trkpt>
      <trkpt lat="45.94172" lon="4.81328">
        <ele>254</ele>
        <time>2018-10-20T08:51:18Z</time>
      </trkpt>
      <trkpt lat="45.94172" lon="4.8133">
        <ele>253</ele>
        <time>2018-10-20T08:51:19Z</time>
      </trkpt>
      <trkpt lat="45.94172" lon="4.81343">
        <ele>255</ele>
        <time>2018-10-20T08:51:23Z</time>
      </trkpt>
      <trkpt lat="45.94171" lon="4.81346">
        <ele>255</ele>
        <time>2018-10-20T08:51:24Z</time>
      </trkpt>
      <trkpt lat="45.94169" lon="4.81357">
        <ele>256</ele>
        <time>2018-10-20T08:51:27Z</time>
      </trkpt>
      <trkpt lat="45.94169" lon="4.8136">
        <ele>257</ele>
        <time>2018-10-20T08:51:28Z</time>
      </trkpt>
      <trkpt lat="45.94166" lon="4.81371">
        <ele>251</ele>
        <time>2018-10-20T08:51:31Z</time>
      </trkpt>
      <trkpt lat="45.94166" lon="4.81374">
        <ele>251</ele>
        <time>2018-10-20T08:51:32Z</time>
      </trkpt>
      <trkpt lat="45.94164" lon="4.81387">
        <ele>251</ele>
        <time>2018-10-20T08:51:36Z</time>
      </trkpt>
      <trkpt lat="45.94164" lon="4.8139">
        <ele>252</ele>
        <time>2018-10-20T08:51:37Z</time>
      </trkpt>
      <trkpt lat="45.94163" lon="4.814">
        <ele>253</ele>
        <time>2018-10-20T08:51:40Z</time>
      </trkpt>
      <trkpt lat="45.94162" lon="4.81404">
        <ele>253</ele>
        <time>2018-10-20T08:51:41Z</time>
      </trkpt>
      <trkpt lat="45.94159" lon="4.81416">
        <ele>254</ele>
        <time>2018-10-20T08:51:44Z</time>
      </trkpt>
      <trkpt lat="45.94159" lon="4.8142">
        <ele>256</ele>
        <time>2018-10-20T08:51:45Z</time>
      </trkpt>
      <trkpt lat="45.94157" lon="4.81432">
        <ele>256</ele>
        <time>2018-10-20T08:51:48Z</time>
      </trkpt>
      <trkpt lat="45.94157" lon="4.81436">
        <ele>256</ele>
        <time>2018-10-20T08:51:49Z</time>
      </trkpt>
      <trkpt lat="45.94156" lon="4.81448">
        <ele>257</ele>
        <time>2018-10-20T08:51:52Z</time>
      </trkpt>
      <trkpt lat="45.94156" lon="4.81453">
        <ele>257</ele>
        <time>2018-10-20T08:51:53Z</time>
      </trkpt>
      <trkpt lat="45.94155" lon="4.81464">
        <ele>257</ele>
        <time>2018-10-20T08:51:56Z</time>
      </trkpt>
      <trkpt lat="45.94155" lon="4.81468">
        <ele>258</ele>
        <time>2018-10-20T08:51:57Z</time>
      </trkpt>
      <trkpt lat="45.94155" lon="4.8147">
        <ele>258</ele>
        <time>2018-10-20T08:51:58Z</time>
      </trkpt>
      <trkpt lat="45.94154" lon="4.81482">
        <ele>259</ele>
        <time>2018-10-20T08:51:59Z</time>
      </trkpt>
      <trkpt lat="45.94151" lon="4.81493">
        <ele>260</ele>
        <time>2018-10-20T08:52:04Z</time>
      </trkpt>
      <trkpt lat="45.9415" lon="4.81496">
        <ele>260</ele>
        <time>2018-10-20T08:52:05Z</time>
      </trkpt>
      <trkpt lat="45.94151" lon="4.81506">
        <ele>263</ele>
        <time>2018-10-20T08:52:08Z</time>
      </trkpt>
      <trkpt lat="45.94152" lon="4.8151">
        <ele>263</ele>
        <time>2018-10-20T08:52:09Z</time>
      </trkpt>
      <trkpt lat="45.94152" lon="4.8152">
        <ele>263</ele>
        <time>2018-10-20T08:52:12Z</time>
      </trkpt>
      <trkpt lat="45.94152" lon="4.81524">
        <ele>263</ele>
        <time>2018-10-20T08:52:13Z</time>
      </trkpt>
      <trkpt lat="45.94154" lon="4.81537">
        <ele>264</ele>
        <time>2018-10-20T08:52:16Z</time>
      </trkpt>
      <trkpt lat="45.94154" lon="4.8154">
        <ele>264</ele>
        <time>2018-10-20T08:52:17Z</time>
      </trkpt>
      <trkpt lat="45.94154" lon="4.81553">
        <ele>264</ele>
        <time>2018-10-20T08:52:20Z</time>
      </trkpt>
      <trkpt lat="45.94155" lon="4.81556">
        <ele>265</ele>
        <time>2018-10-20T08:52:21Z</time>
      </trkpt>
      <trkpt lat="45.94155" lon="4.81567">
        <ele>265</ele>
        <time>2018-10-20T08:52:24Z</time>
      </trkpt>
      <trkpt lat="45.94156" lon="4.81571">
        <ele>265</ele>
        <time>2018-10-20T08:52:25Z</time>
      </trkpt>
      <trkpt lat="45.94157" lon="4.81582">
        <ele>266</ele>
        <time>2018-10-20T08:52:28Z</time>
      </trkpt>
      <trkpt lat="45.94157" lon="4.81586">
        <ele>267</ele>
        <time>2018-10-20T08:52:29Z</time>
      </trkpt>
      <trkpt lat="45.94158" lon="4.81595">
        <ele>267</ele>
        <time>2018-10-20T08:52:31Z</time>
      </trkpt>
      <trkpt lat="45.94158" lon="4.81599">
        <ele>267</ele>
        <time>2018-10-20T08:52:32Z</time>
      </trkpt>
      <trkpt lat="45.9416" lon="4.81611">
        <ele>267</ele>
        <time>2018-10-20T08:52:35Z</time>
      </trkpt>
      <trkpt lat="45.94161" lon="4.81615">
        <ele>268</ele>
        <time>2018-10-20T08:52:36Z</time>
      </trkpt>
      <trkpt lat="45.94163" lon="4.81626">
        <ele>268</ele>
        <time>2018-10-20T08:52:39Z</time>
      </trkpt>
      <trkpt lat="45.94164" lon="4.8163">
        <ele>268</ele>
        <time>2018-10-20T08:52:40Z</time>
      </trkpt>
      <trkpt lat="45.94167" lon="4.81641">
        <ele>268</ele>
        <time>2018-10-20T08:52:43Z</time>
      </trkpt>
      <trkpt lat="45.94168" lon="4.81645">
        <ele>268</ele>
        <time>2018-10-20T08:52:44Z</time>
      </trkpt>
      <trkpt lat="45.94169" lon="4.81654">
        <ele>268</ele>
        <time>2018-10-20T08:52:47Z</time>
      </trkpt>
      <trkpt lat="45.9417" lon="4.81658">
        <ele>268</ele>
        <time>2018-10-20T08:52:48Z</time>
      </trkpt>
      <trkpt lat="45.94172" lon="4.81668">
        <ele>269</ele>
        <time>2018-10-20T08:52:51Z</time>
      </trkpt>
      <trkpt lat="45.94172" lon="4.81672">
        <ele>268</ele>
        <time>2018-10-20T08:52:52Z</time>
      </trkpt>
      <trkpt lat="45.94174" lon="4.81682">
        <ele>268</ele>
        <time>2018-10-20T08:52:55Z</time>
      </trkpt>
      <trkpt lat="45.94175" lon="4.81685">
        <ele>268</ele>
        <time>2018-10-20T08:52:56Z</time>
      </trkpt>
      <trkpt lat="45.94179" lon="4.81697">
        <ele>267</ele>
        <time>2018-10-20T08:52:59Z</time>
      </trkpt>
      <trkpt lat="45.9418" lon="4.817">
        <ele>267</ele>
        <time>2018-10-20T08:53:00Z</time>
      </trkpt>
      <trkpt lat="45.94183" lon="4.81708">
        <ele>267</ele>
        <time>2018-10-20T08:53:02Z</time>
      </trkpt>
      <trkpt lat="45.94184" lon="4.81712">
        <ele>267</ele>
        <time>2018-10-20T08:53:03Z</time>
      </trkpt>
      <trkpt lat="45.94186" lon="4.81727">
        <ele>267</ele>
        <time>2018-10-20T08:53:04Z</time>
      </trkpt>
      <trkpt lat="45.94187" lon="4.81736">
        <ele>267</ele>
        <time>2018-10-20T08:53:07Z</time>
      </trkpt>
      <trkpt lat="45.94188" lon="4.81741">
        <ele>267</ele>
        <time>2018-10-20T08:53:08Z</time>
      </trkpt>
      <trkpt lat="45.9419" lon="4.81749">
        <ele>267</ele>
        <time>2018-10-20T08:53:10Z</time>
      </trkpt>
      <trkpt lat="45.94194" lon="4.81761">
        <ele>266</ele>
        <time>2018-10-20T08:53:11Z</time>
      </trkpt>
      <trkpt lat="45.94198" lon="4.81771">
        <ele>266</ele>
        <time>2018-10-20T08:53:13Z</time>
      </trkpt>
      <trkpt lat="45.94199" lon="4.81775">
        <ele>266</ele>
        <time>2018-10-20T08:53:14Z</time>
      </trkpt>
      <trkpt lat="45.94201" lon="4.81786">
        <ele>266</ele>
        <time>2018-10-20T08:53:16Z</time>
      </trkpt>
      <trkpt lat="45.94201" lon="4.81792">
        <ele>266</ele>
        <time>2018-10-20T08:53:17Z</time>
      </trkpt>
      <trkpt lat="45.942" lon="4.81804">
        <ele>266</ele>
        <time>2018-10-20T08:53:19Z</time>
      </trkpt>
      <trkpt lat="45.942" lon="4.81808">
        <ele>266</ele>
        <time>2018-10-20T08:53:20Z</time>
      </trkpt>
      <trkpt lat="45.94201" lon="4.81817">
        <ele>266</ele>
        <time>2018-10-20T08:53:23Z</time>
      </trkpt>
      <trkpt lat="45.94201" lon="4.81821">
        <ele>266</ele>
        <time>2018-10-20T08:53:24Z</time>
      </trkpt>
      <trkpt lat="45.94205" lon="4.81832">
        <ele>266</ele>
        <time>2018-10-20T08:53:27Z</time>
      </trkpt>
      <trkpt lat="45.94207" lon="4.81837">
        <ele>266</ele>
        <time>2018-10-20T08:53:28Z</time>
      </trkpt>
      <trkpt lat="45.94209" lon="4.81846">
        <ele>265</ele>
        <time>2018-10-20T08:53:30Z</time>
      </trkpt>
      <trkpt lat="45.94211" lon="4.81857">
        <ele>265</ele>
        <time>2018-10-20T08:53:31Z</time>
      </trkpt>
      <trkpt lat="45.94213" lon="4.81868">
        <ele>265</ele>
        <time>2018-10-20T08:53:33Z</time>
      </trkpt>
      <trkpt lat="45.94213" lon="4.81873">
        <ele>265</ele>
        <time>2018-10-20T08:53:34Z</time>
      </trkpt>
      <trkpt lat="45.94215" lon="4.81883">
        <ele>265</ele>
        <time>2018-10-20T08:53:37Z</time>
      </trkpt>
      <trkpt lat="45.94216" lon="4.81893">
        <ele>265</ele>
        <time>2018-10-20T08:53:38Z</time>
      </trkpt>
      <trkpt lat="45.94219" lon="4.81904">
        <ele>265</ele>
        <time>2018-10-20T08:53:40Z</time>
      </trkpt>
      <trkpt lat="45.9422" lon="4.8191">
        <ele>264</ele>
        <time>2018-10-20T08:53:41Z</time>
      </trkpt>
      <trkpt lat="45.94222" lon="4.81921">
        <ele>264</ele>
        <time>2018-10-20T08:53:43Z</time>
      </trkpt>
      <trkpt lat="45.94224" lon="4.81926">
        <ele>264</ele>
        <time>2018-10-20T08:53:44Z</time>
      </trkpt>
      <trkpt lat="45.94226" lon="4.81938">
        <ele>264</ele>
        <time>2018-10-20T08:53:46Z</time>
      </trkpt>
      <trkpt lat="45.94227" lon="4.81944">
        <ele>264</ele>
        <time>2018-10-20T08:53:47Z</time>
      </trkpt>
      <trkpt lat="45.9423" lon="4.81955">
        <ele>264</ele>
        <time>2018-10-20T08:53:49Z</time>
      </trkpt>
      <trkpt lat="45.94231" lon="4.8196">
        <ele>264</ele>
        <time>2018-10-20T08:53:50Z</time>
      </trkpt>
      <trkpt lat="45.94233" lon="4.81971">
        <ele>264</ele>
        <time>2018-10-20T08:53:52Z</time>
      </trkpt>
      <trkpt lat="45.94235" lon="4.81976">
        <ele>263</ele>
        <time>2018-10-20T08:53:53Z</time>
      </trkpt>
      <trkpt lat="45.94238" lon="4.81987">
        <ele>263</ele>
        <time>2018-10-20T08:53:55Z</time>
      </trkpt>
      <trkpt lat="45.94239" lon="4.81992">
        <ele>263</ele>
        <time>2018-10-20T08:53:56Z</time>
      </trkpt>
      <trkpt lat="45.94241" lon="4.81998">
        <ele>263</ele>
        <time>2018-10-20T08:53:57Z</time>
      </trkpt>
      <trkpt lat="45.94243" lon="4.82004">
        <ele>263</ele>
        <time>2018-10-20T08:53:58Z</time>
      </trkpt>
      <trkpt lat="45.94244" lon="4.82015">
        <ele>263</ele>
        <time>2018-10-20T08:54:00Z</time>
      </trkpt>
      <trkpt lat="45.94245" lon="4.82021">
        <ele>263</ele>
        <time>2018-10-20T08:54:01Z</time>
      </trkpt>
      <trkpt lat="45.94246" lon="4.82029">
        <ele>263</ele>
        <time>2018-10-20T08:54:02Z</time>
      </trkpt>
      <trkpt lat="45.94247" lon="4.82035">
        <ele>263</ele>
        <time>2018-10-20T08:54:03Z</time>
      </trkpt>
      <trkpt lat="45.94249" lon="4.82045">
        <ele>263</ele>
        <time>2018-10-20T08:54:05Z</time>
      </trkpt>
      <trkpt lat="45.94249" lon="4.82048">
        <ele>263</ele>
        <time>2018-10-20T08:54:06Z</time>
      </trkpt>
      <trkpt lat="45.94252" lon="4.8206">
        <ele>262</ele>
        <time>2018-10-20T08:54:09Z</time>
      </trkpt>
      <trkpt lat="45.94253" lon="4.82065">
        <ele>262</ele>
        <time>2018-10-20T08:54:10Z</time>
      </trkpt>
      <trkpt lat="45.94255" lon="4.82077">
        <ele>262</ele>
        <time>2018-10-20T08:54:11Z</time>
      </trkpt>
      <trkpt lat="45.94256" lon="4.8209">
        <ele>262</ele>
        <time>2018-10-20T08:54:13Z</time>
      </trkpt>
      <trkpt lat="45.94256" lon="4.82097">
        <ele>262</ele>
        <time>2018-10-20T08:54:14Z</time>
      </trkpt>
      <trkpt lat="45.94257" lon="4.82103">
        <ele>262</ele>
        <time>2018-10-20T08:54:15Z</time>
      </trkpt>
      <trkpt lat="45.94259" lon="4.8211">
        <ele>263</ele>
        <time>2018-10-20T08:54:16Z</time>
      </trkpt>
      <trkpt lat="45.94259" lon="4.82117">
        <ele>263</ele>
        <time>2018-10-20T08:54:17Z</time>
      </trkpt>
      <trkpt lat="45.94261" lon="4.82125">
        <ele>263</ele>
        <time>2018-10-20T08:54:18Z</time>
      </trkpt>
      <trkpt lat="45.94264" lon="4.82133">
        <ele>263</ele>
        <time>2018-10-20T08:54:19Z</time>
      </trkpt>
      <trkpt lat="45.94265" lon="4.8214">
        <ele>263</ele>
        <time>2018-10-20T08:54:20Z</time>
      </trkpt>
      <trkpt lat="45.94267" lon="4.82146">
        <ele>263</ele>
        <time>2018-10-20T08:54:21Z</time>
      </trkpt>
      <trkpt lat="45.94267" lon="4.82153">
        <ele>263</ele>
        <time>2018-10-20T08:54:22Z</time>
      </trkpt>
      <trkpt lat="45.94269" lon="4.82159">
        <ele>263</ele>
        <time>2018-10-20T08:54:23Z</time>
      </trkpt>
      <trkpt lat="45.94271" lon="4.82165">
        <ele>263</ele>
        <time>2018-10-20T08:54:24Z</time>
      </trkpt>
      <trkpt lat="45.94274" lon="4.82177">
        <ele>264</ele>
        <time>2018-10-20T08:54:26Z</time>
      </trkpt>
      <trkpt lat="45.94275" lon="4.82184">
        <ele>264</ele>
        <time>2018-10-20T08:54:27Z</time>
      </trkpt>
      <trkpt lat="45.94277" lon="4.8219">
        <ele>264</ele>
        <time>2018-10-20T08:54:28Z</time>
      </trkpt>
      <trkpt lat="45.94278" lon="4.82196">
        <ele>264</ele>
        <time>2018-10-20T08:54:29Z</time>
      </trkpt>
      <trkpt lat="45.94278" lon="4.82203">
        <ele>264</ele>
        <time>2018-10-20T08:54:30Z</time>
      </trkpt>
      <trkpt lat="45.94279" lon="4.82209">
        <ele>264</ele>
        <time>2018-10-20T08:54:31Z</time>
      </trkpt>
      <trkpt lat="45.9428" lon="4.82216">
        <ele>264</ele>
        <time>2018-10-20T08:54:32Z</time>
      </trkpt>
      <trkpt lat="45.9428" lon="4.82223">
        <ele>264</ele>
        <time>2018-10-20T08:54:33Z</time>
      </trkpt>
      <trkpt lat="45.9428" lon="4.82236">
        <ele>264</ele>
        <time>2018-10-20T08:54:35Z</time>
      </trkpt>
      <trkpt lat="45.94282" lon="4.82241">
        <ele>264</ele>
        <time>2018-10-20T08:54:36Z</time>
      </trkpt>
      <trkpt lat="45.94284" lon="4.82247">
        <ele>264</ele>
        <time>2018-10-20T08:54:37Z</time>
      </trkpt>
      <trkpt lat="45.94284" lon="4.82254">
        <ele>265</ele>
        <time>2018-10-20T08:54:38Z</time>
      </trkpt>
      <trkpt lat="45.94285" lon="4.82266">
        <ele>265</ele>
        <time>2018-10-20T08:54:40Z</time>
      </trkpt>
      <trkpt lat="45.94286" lon="4.82273">
        <ele>265</ele>
        <time>2018-10-20T08:54:41Z</time>
      </trkpt>
      <trkpt lat="45.94286" lon="4.82279">
        <ele>265</ele>
        <time>2018-10-20T08:54:42Z</time>
      </trkpt>
      <trkpt lat="45.94287" lon="4.82287">
        <ele>265</ele>
        <time>2018-10-20T08:54:43Z</time>
      </trkpt>
      <trkpt lat="45.94287" lon="4.82294">
        <ele>265</ele>
        <time>2018-10-20T08:54:44Z</time>
      </trkpt>
      <trkpt lat="45.94288" lon="4.82301">
        <ele>265</ele>
        <time>2018-10-20T08:54:45Z</time>
      </trkpt>
      <trkpt lat="45.94289" lon="4.82308">
        <ele>265</ele>
        <time>2018-10-20T08:54:46Z</time>
      </trkpt>
      <trkpt lat="45.94289" lon="4.82314">
        <ele>265</ele>
        <time>2018-10-20T08:54:47Z</time>
      </trkpt>
      <trkpt lat="45.9429" lon="4.82326">
        <ele>265</ele>
        <time>2018-10-20T08:54:49Z</time>
      </trkpt>
      <trkpt lat="45.9429" lon="4.82333">
        <ele>265</ele>
        <time>2018-10-20T08:54:50Z</time>
      </trkpt>
      <trkpt lat="45.9429" lon="4.82339">
        <ele>264</ele>
        <time>2018-10-20T08:54:51Z</time>
      </trkpt>
      <trkpt lat="45.94289" lon="4.82346">
        <ele>264</ele>
        <time>2018-10-20T08:54:52Z</time>
      </trkpt>
      <trkpt lat="45.9429" lon="4.82353">
        <ele>264</ele>
        <time>2018-10-20T08:54:53Z</time>
      </trkpt>
      <trkpt lat="45.9429" lon="4.82359">
        <ele>264</ele>
        <time>2018-10-20T08:54:54Z</time>
      </trkpt>
      <trkpt lat="45.9429" lon="4.82372">
        <ele>264</ele>
        <time>2018-10-20T08:54:56Z</time>
      </trkpt>
      <trkpt lat="45.9429" lon="4.82378">
        <ele>264</ele>
        <time>2018-10-20T08:54:57Z</time>
      </trkpt>
      <trkpt lat="45.94292" lon="4.82383">
        <ele>264</ele>
        <time>2018-10-20T08:54:58Z</time>
      </trkpt>
      <trkpt lat="45.94293" lon="4.82391">
        <ele>264</ele>
        <time>2018-10-20T08:54:59Z</time>
      </trkpt>
      <trkpt lat="45.94294" lon="4.82403">
        <ele>264</ele>
        <time>2018-10-20T08:55:01Z</time>
      </trkpt>
      <trkpt lat="45.94296" lon="4.82409">
        <ele>264</ele>
        <time>2018-10-20T08:55:02Z</time>
      </trkpt>
      <trkpt lat="45.94297" lon="4.82421">
        <ele>264</ele>
        <time>2018-10-20T08:55:04Z</time>
      </trkpt>
      <trkpt lat="45.94297" lon="4.82427">
        <ele>264</ele>
        <time>2018-10-20T08:55:05Z</time>
      </trkpt>
      <trkpt lat="45.94297" lon="4.82437">
        <ele>264</ele>
        <time>2018-10-20T08:55:07Z</time>
      </trkpt>
      <trkpt lat="45.94298" lon="4.82444">
        <ele>264</ele>
        <time>2018-10-20T08:55:08Z</time>
      </trkpt>
      <trkpt lat="45.94297" lon="4.8245">
        <ele>264</ele>
        <time>2018-10-20T08:55:09Z</time>
      </trkpt>
      <trkpt lat="45.94297" lon="4.82457">
        <ele>264</ele>
        <time>2018-10-20T08:55:10Z</time>
      </trkpt>
      <trkpt lat="45.94298" lon="4.82464">
        <ele>264</ele>
        <time>2018-10-20T08:55:11Z</time>
      </trkpt>
      <trkpt lat="45.94298" lon="4.82471">
        <ele>264</ele>
        <time>2018-10-20T08:55:12Z</time>
      </trkpt>
      <trkpt lat="45.94298" lon="4.82478">
        <ele>264</ele>
        <time>2018-10-20T08:55:13Z</time>
      </trkpt>
      <trkpt lat="45.94298" lon="4.82484">
        <ele>264</ele>
        <time>2018-10-20T08:55:14Z</time>
      </trkpt>
      <trkpt lat="45.94298" lon="4.82497">
        <ele>264</ele>
        <time>2018-10-20T08:55:16Z</time>
      </trkpt>
      <trkpt lat="45.943" lon="4.82503">
        <ele>264</ele>
        <time>2018-10-20T08:55:17Z</time>
      </trkpt>
      <trkpt lat="45.943" lon="4.82511">
        <ele>264</ele>
        <time>2018-10-20T08:55:18Z</time>
      </trkpt>
      <trkpt lat="45.94301" lon="4.82517">
        <ele>264</ele>
        <time>2018-10-20T08:55:19Z</time>
      </trkpt>
      <trkpt lat="45.94301" lon="4.82523">
        <ele>264</ele>
        <time>2018-10-20T08:55:20Z</time>
      </trkpt>
      <trkpt lat="45.94301" lon="4.8253">
        <ele>264</ele>
        <time>2018-10-20T08:55:21Z</time>
      </trkpt>
      <trkpt lat="45.94301" lon="4.82537">
        <ele>264</ele>
        <time>2018-10-20T08:55:22Z</time>
      </trkpt>
      <trkpt lat="45.943" lon="4.82544">
        <ele>264</ele>
        <time>2018-10-20T08:55:23Z</time>
      </trkpt>
      <trkpt lat="45.94299" lon="4.82551">
        <ele>264</ele>
        <time>2018-10-20T08:55:24Z</time>
      </trkpt>
      <trkpt lat="45.943" lon="4.82558">
        <ele>264</ele>
        <time>2018-10-20T08:55:25Z</time>
      </trkpt>
      <trkpt lat="45.943" lon="4.82565">
        <ele>264</ele>
        <time>2018-10-20T08:55:26Z</time>
      </trkpt>
      <trkpt lat="45.94301" lon="4.82571">
        <ele>264</ele>
        <time>2018-10-20T08:55:27Z</time>
      </trkpt>
      <trkpt lat="45.94301" lon="4.82582">
        <ele>264</ele>
        <time>2018-10-20T08:55:29Z</time>
      </trkpt>
      <trkpt lat="45.94302" lon="4.82587">
        <ele>265</ele>
        <time>2018-10-20T08:55:30Z</time>
      </trkpt>
      <trkpt lat="45.94301" lon="4.82594">
        <ele>265</ele>
        <time>2018-10-20T08:55:32Z</time>
      </trkpt>
      <trkpt lat="45.94301" lon="4.82602">
        <ele>265</ele>
        <time>2018-10-20T08:55:33Z</time>
      </trkpt>
      <trkpt lat="45.94301" lon="4.82613">
        <ele>265</ele>
        <time>2018-10-20T08:55:35Z</time>
      </trkpt>
      <trkpt lat="45.94301" lon="4.82619">
        <ele>265</ele>
        <time>2018-10-20T08:55:36Z</time>
      </trkpt>
      <trkpt lat="45.94302" lon="4.82631">
        <ele>265</ele>
        <time>2018-10-20T08:55:38Z</time>
      </trkpt>
      <trkpt lat="45.94302" lon="4.82639">
        <ele>265</ele>
        <time>2018-10-20T08:55:39Z</time>
      </trkpt>
      <trkpt lat="45.94303" lon="4.82646">
        <ele>265</ele>
        <time>2018-10-20T08:55:40Z</time>
      </trkpt>
      <trkpt lat="45.94302" lon="4.82653">
        <ele>265</ele>
        <time>2018-10-20T08:55:41Z</time>
      </trkpt>
      <trkpt lat="45.94302" lon="4.8266">
        <ele>265</ele>
        <time>2018-10-20T08:55:42Z</time>
      </trkpt>
      <trkpt lat="45.94302" lon="4.82667">
        <ele>265</ele>
        <time>2018-10-20T08:55:43Z</time>
      </trkpt>
      <trkpt lat="45.94301" lon="4.82674">
        <ele>265</ele>
        <time>2018-10-20T08:55:44Z</time>
      </trkpt>
      <trkpt lat="45.94301" lon="4.82681">
        <ele>265</ele>
        <time>2018-10-20T08:55:45Z</time>
      </trkpt>
      <trkpt lat="45.94301" lon="4.82693">
        <ele>265</ele>
        <time>2018-10-20T08:55:47Z</time>
      </trkpt>
      <trkpt lat="45.943" lon="4.82699">
        <ele>265</ele>
        <time>2018-10-20T08:55:48Z</time>
      </trkpt>
      <trkpt lat="45.943" lon="4.82711">
        <ele>265</ele>
        <time>2018-10-20T08:55:50Z</time>
      </trkpt>
      <trkpt lat="45.94301" lon="4.82716">
        <ele>265</ele>
        <time>2018-10-20T08:55:51Z</time>
      </trkpt>
      <trkpt lat="45.94301" lon="4.82723">
        <ele>265</ele>
        <time>2018-10-20T08:55:52Z</time>
      </trkpt>
      <trkpt lat="45.94301" lon="4.8273">
        <ele>265</ele>
        <time>2018-10-20T08:55:53Z</time>
      </trkpt>
      <trkpt lat="45.943" lon="4.82741">
        <ele>265</ele>
        <time>2018-10-20T08:55:55Z</time>
      </trkpt>
      <trkpt lat="45.943" lon="4.82747">
        <ele>265</ele>
        <time>2018-10-20T08:55:56Z</time>
      </trkpt>
      <trkpt lat="45.943" lon="4.82754">
        <ele>265</ele>
        <time>2018-10-20T08:55:57Z</time>
      </trkpt>
      <trkpt lat="45.943" lon="4.82761">
        <ele>265</ele>
        <time>2018-10-20T08:55:58Z</time>
      </trkpt>
      <trkpt lat="45.943" lon="4.82767">
        <ele>265</ele>
        <time>2018-10-20T08:55:59Z</time>
      </trkpt>
      <trkpt lat="45.943" lon="4.82774">
        <ele>265</ele>
        <time>2018-10-20T08:56:00Z</time>
      </trkpt>
      <trkpt lat="45.943" lon="4.82781">
        <ele>265</ele>
        <time>2018-10-20T08:56:01Z</time>
      </trkpt>
      <trkpt lat="45.94301" lon="4.82787">
        <ele>265</ele>
        <time>2018-10-20T08:56:02Z</time>
      </trkpt>
      <trkpt lat="45.943" lon="4.82794">
        <ele>265</ele>
        <time>2018-10-20T08:56:03Z</time>
      </trkpt>
      <trkpt lat="45.943" lon="4.82801">
        <ele>265</ele>
        <time>2018-10-20T08:56:04Z</time>
      </trkpt>
      <trkpt lat="45.943" lon="4.8281">
        <ele>265</ele>
        <time>2018-10-20T08:56:05Z</time>
      </trkpt>
      <trkpt lat="45.943" lon="4.82817">
        <ele>265</ele>
        <time>2018-10-20T08:56:06Z</time>
      </trkpt>
      <trkpt lat="45.94299" lon="4.82825">
        <ele>265</ele>
        <time>2018-10-20T08:56:07Z</time>
      </trkpt>
      <trkpt lat="45.943" lon="4.82833">
        <ele>265</ele>
        <time>2018-10-20T08:56:08Z</time>
      </trkpt>
      <trkpt lat="45.943" lon="4.8284">
        <ele>265</ele>
        <time>2018-10-20T08:56:09Z</time>
      </trkpt>
      <trkpt lat="45.94299" lon="4.82847">
        <ele>265</ele>
        <time>2018-10-20T08:56:10Z</time>
      </trkpt>
      <trkpt lat="45.94299" lon="4.82859">
        <ele>265</ele>
        <time>2018-10-20T08:56:12Z</time>
      </trkpt>
      <trkpt lat="45.94299" lon="4.82865">
        <ele>265</ele>
        <time>2018-10-20T08:56:13Z</time>
      </trkpt>
      <trkpt lat="45.94298" lon="4.82872">
        <ele>265</ele>
        <time>2018-10-20T08:56:14Z</time>
      </trkpt>
      <trkpt lat="45.94297" lon="4.82878">
        <ele>265</ele>
        <time>2018-10-20T08:56:15Z</time>
      </trkpt>
      <trkpt lat="45.94296" lon="4.82885">
        <ele>265</ele>
        <time>2018-10-20T08:56:16Z</time>
      </trkpt>
      <trkpt lat="45.94296" lon="4.82892">
        <ele>265</ele>
        <time>2018-10-20T08:56:17Z</time>
      </trkpt>
      <trkpt lat="45.94297" lon="4.82904">
        <ele>265</ele>
        <time>2018-10-20T08:56:19Z</time>
      </trkpt>
      <trkpt lat="45.94296" lon="4.82911">
        <ele>265</ele>
        <time>2018-10-20T08:56:20Z</time>
      </trkpt>
      <trkpt lat="45.94294" lon="4.82918">
        <ele>265</ele>
        <time>2018-10-20T08:56:21Z</time>
      </trkpt>
      <trkpt lat="45.94293" lon="4.82925">
        <ele>265</ele>
        <time>2018-10-20T08:56:22Z</time>
      </trkpt>
      <trkpt lat="45.94292" lon="4.82933">
        <ele>265</ele>
        <time>2018-10-20T08:56:23Z</time>
      </trkpt>
      <trkpt lat="45.94291" lon="4.8294">
        <ele>265</ele>
        <time>2018-10-20T08:56:24Z</time>
      </trkpt>
      <trkpt lat="45.9429" lon="4.82947">
        <ele>265</ele>
        <time>2018-10-20T08:56:25Z</time>
      </trkpt>
      <trkpt lat="45.94289" lon="4.82955">
        <ele>265</ele>
        <time>2018-10-20T08:56:26Z</time>
      </trkpt>
      <trkpt lat="45.9429" lon="4.82962">
        <ele>265</ele>
        <time>2018-10-20T08:56:27Z</time>
      </trkpt>
      <trkpt lat="45.94292" lon="4.82968">
        <ele>265</ele>
        <time>2018-10-20T08:56:28Z</time>
      </trkpt>
      <trkpt lat="45.94296" lon="4.8298">
        <ele>265</ele>
        <time>2018-10-20T08:56:30Z</time>
      </trkpt>
      <trkpt lat="45.94298" lon="4.82987">
        <ele>265</ele>
        <time>2018-10-20T08:56:31Z</time>
      </trkpt>
      <trkpt lat="45.94299" lon="4.82994">
        <ele>265</ele>
        <time>2018-10-20T08:56:32Z</time>
      </trkpt>
      <trkpt lat="45.94301" lon="4.83">
        <ele>266</ele>
        <time>2018-10-20T08:56:33Z</time>
      </trkpt>
      <trkpt lat="45.94301" lon="4.83012">
        <ele>266</ele>
        <time>2018-10-20T08:56:35Z</time>
      </trkpt>
      <trkpt lat="45.94303" lon="4.83018">
        <ele>266</ele>
        <time>2018-10-20T08:56:36Z</time>
      </trkpt>
      <trkpt lat="45.94306" lon="4.83024">
        <ele>266</ele>
        <time>2018-10-20T08:56:37Z</time>
      </trkpt>
      <trkpt lat="45.94307" lon="4.8303">
        <ele>266</ele>
        <time>2018-10-20T08:56:38Z</time>
      </trkpt>
      <trkpt lat="45.9431" lon="4.83037">
        <ele>266</ele>
        <time>2018-10-20T08:56:39Z</time>
      </trkpt>
      <trkpt lat="45.94311" lon="4.83044">
        <ele>266</ele>
        <time>2018-10-20T08:56:40Z</time>
      </trkpt>
      <trkpt lat="45.94315" lon="4.83051">
        <ele>266</ele>
        <time>2018-10-20T08:56:41Z</time>
      </trkpt>
      <trkpt lat="45.94317" lon="4.83057">
        <ele>266</ele>
        <time>2018-10-20T08:56:42Z</time>
      </trkpt>
      <trkpt lat="45.94318" lon="4.83065">
        <ele>266</ele>
        <time>2018-10-20T08:56:43Z</time>
      </trkpt>
      <trkpt lat="45.94319" lon="4.83072">
        <ele>266</ele>
        <time>2018-10-20T08:56:44Z</time>
      </trkpt>
      <trkpt lat="45.94321" lon="4.83079">
        <ele>266</ele>
        <time>2018-10-20T08:56:45Z</time>
      </trkpt>
      <trkpt lat="45.94323" lon="4.83086">
        <ele>266</ele>
        <time>2018-10-20T08:56:46Z</time>
      </trkpt>
      <trkpt lat="45.94325" lon="4.83093">
        <ele>266</ele>
        <time>2018-10-20T08:56:47Z</time>
      </trkpt>
      <trkpt lat="45.94326" lon="4.83099">
        <ele>266</ele>
        <time>2018-10-20T08:56:48Z</time>
      </trkpt>
      <trkpt lat="45.94328" lon="4.83105">
        <ele>266</ele>
        <time>2018-10-20T08:56:49Z</time>
      </trkpt>
      <trkpt lat="45.9433" lon="4.83112">
        <ele>266</ele>
        <time>2018-10-20T08:56:50Z</time>
      </trkpt>
      <trkpt lat="45.94332" lon="4.83123">
        <ele>266</ele>
        <time>2018-10-20T08:56:52Z</time>
      </trkpt>
      <trkpt lat="45.94335" lon="4.83128">
        <ele>266</ele>
        <time>2018-10-20T08:56:53Z</time>
      </trkpt>
      <trkpt lat="45.94339" lon="4.83139">
        <ele>266</ele>
        <time>2018-10-20T08:56:55Z</time>
      </trkpt>
      <trkpt lat="45.94341" lon="4.83146">
        <ele>266</ele>
        <time>2018-10-20T08:56:56Z</time>
      </trkpt>
      <trkpt lat="45.94344" lon="4.83153">
        <ele>266</ele>
        <time>2018-10-20T08:56:57Z</time>
      </trkpt>
      <trkpt lat="45.94347" lon="4.83159">
        <ele>266</ele>
        <time>2018-10-20T08:56:58Z</time>
      </trkpt>
      <trkpt lat="45.9435" lon="4.83166">
        <ele>266</ele>
        <time>2018-10-20T08:56:59Z</time>
      </trkpt>
      <trkpt lat="45.94352" lon="4.83172">
        <ele>266</ele>
        <time>2018-10-20T08:57:00Z</time>
      </trkpt>
      <trkpt lat="45.94354" lon="4.83179">
        <ele>266</ele>
        <time>2018-10-20T08:57:01Z</time>
      </trkpt>
      <trkpt lat="45.94356" lon="4.83186">
        <ele>266</ele>
        <time>2018-10-20T08:57:02Z</time>
      </trkpt>
      <trkpt lat="45.94359" lon="4.83192">
        <ele>266</ele>
        <time>2018-10-20T08:57:03Z</time>
      </trkpt>
      <trkpt lat="45.94361" lon="4.83198">
        <ele>266</ele>
        <time>2018-10-20T08:57:04Z</time>
      </trkpt>
      <trkpt lat="45.94364" lon="4.83205">
        <ele>266</ele>
        <time>2018-10-20T08:57:05Z</time>
      </trkpt>
      <trkpt lat="45.94365" lon="4.83211">
        <ele>266</ele>
        <time>2018-10-20T08:57:06Z</time>
      </trkpt>
      <trkpt lat="45.94368" lon="4.83217">
        <ele>266</ele>
        <time>2018-10-20T08:57:07Z</time>
      </trkpt>
      <trkpt lat="45.9437" lon="4.83223">
        <ele>266</ele>
        <time>2018-10-20T08:57:08Z</time>
      </trkpt>
      <trkpt lat="45.94372" lon="4.83229">
        <ele>266</ele>
        <time>2018-10-20T08:57:09Z</time>
      </trkpt>
      <trkpt lat="45.94375" lon="4.83236">
        <ele>266</ele>
        <time>2018-10-20T08:57:10Z</time>
      </trkpt>
      <trkpt lat="45.94378" lon="4.83244">
        <ele>265</ele>
        <time>2018-10-20T08:57:11Z</time>
      </trkpt>
      <trkpt lat="45.9438" lon="4.83252">
        <ele>265</ele>
        <time>2018-10-20T08:57:12Z</time>
      </trkpt>
      <trkpt lat="45.94382" lon="4.83258">
        <ele>265</ele>
        <time>2018-10-20T08:57:13Z</time>
      </trkpt>
      <trkpt lat="45.94385" lon="4.83266">
        <ele>264</ele>
        <time>2018-10-20T08:57:14Z</time>
      </trkpt>
      <trkpt lat="45.94387" lon="4.83274">
        <ele>264</ele>
        <time>2018-10-20T08:57:15Z</time>
      </trkpt>
      <trkpt lat="45.94391" lon="4.83279">
        <ele>264</ele>
        <time>2018-10-20T08:57:16Z</time>
      </trkpt>
      <trkpt lat="45.94394" lon="4.83286">
        <ele>264</ele>
        <time>2018-10-20T08:57:17Z</time>
      </trkpt>
      <trkpt lat="45.94396" lon="4.83294">
        <ele>264</ele>
        <time>2018-10-20T08:57:18Z</time>
      </trkpt>
      <trkpt lat="45.944" lon="4.83302">
        <ele>264</ele>
        <time>2018-10-20T08:57:19Z</time>
      </trkpt>
      <trkpt lat="45.94402" lon="4.8331">
        <ele>264</ele>
        <time>2018-10-20T08:57:20Z</time>
      </trkpt>
      <trkpt lat="45.94404" lon="4.83316">
        <ele>264</ele>
        <time>2018-10-20T08:57:21Z</time>
      </trkpt>
      <trkpt lat="45.94405" lon="4.83324">
        <ele>264</ele>
        <time>2018-10-20T08:57:22Z</time>
      </trkpt>
      <trkpt lat="45.94407" lon="4.83331">
        <ele>263</ele>
        <time>2018-10-20T08:57:23Z</time>
      </trkpt>
      <trkpt lat="45.94409" lon="4.83338">
        <ele>263</ele>
        <time>2018-10-20T08:57:24Z</time>
      </trkpt>
      <trkpt lat="45.94413" lon="4.83344">
        <ele>263</ele>
        <time>2018-10-20T08:57:25Z</time>
      </trkpt>
      <trkpt lat="45.94415" lon="4.8335">
        <ele>263</ele>
        <time>2018-10-20T08:57:26Z</time>
      </trkpt>
      <trkpt lat="45.94417" lon="4.83355">
        <ele>263</ele>
        <time>2018-10-20T08:57:27Z</time>
      </trkpt>
      <trkpt lat="45.9442" lon="4.83361">
        <ele>264</ele>
        <time>2018-10-20T08:57:28Z</time>
      </trkpt>
      <trkpt lat="45.94421" lon="4.83368">
        <ele>264</ele>
        <time>2018-10-20T08:57:29Z</time>
      </trkpt>
      <trkpt lat="45.94424" lon="4.83374">
        <ele>264</ele>
        <time>2018-10-20T08:57:30Z</time>
      </trkpt>
      <trkpt lat="45.94427" lon="4.8338">
        <ele>264</ele>
        <time>2018-10-20T08:57:31Z</time>
      </trkpt>
      <trkpt lat="45.9443" lon="4.83387">
        <ele>264</ele>
        <time>2018-10-20T08:57:32Z</time>
      </trkpt>
      <trkpt lat="45.94433" lon="4.83395">
        <ele>264</ele>
        <time>2018-10-20T08:57:33Z</time>
      </trkpt>
      <trkpt lat="45.94436" lon="4.83402">
        <ele>264</ele>
        <time>2018-10-20T08:57:34Z</time>
      </trkpt>
      <trkpt lat="45.94439" lon="4.83408">
        <ele>264</ele>
        <time>2018-10-20T08:57:35Z</time>
      </trkpt>
      <trkpt lat="45.94442" lon="4.83413">
        <ele>264</ele>
        <time>2018-10-20T08:57:36Z</time>
      </trkpt>
      <trkpt lat="45.94445" lon="4.8342">
        <ele>264</ele>
        <time>2018-10-20T08:57:37Z</time>
      </trkpt>
      <trkpt lat="45.94449" lon="4.83426">
        <ele>264</ele>
        <time>2018-10-20T08:57:38Z</time>
      </trkpt>
      <trkpt lat="45.94452" lon="4.83432">
        <ele>263</ele>
        <time>2018-10-20T08:57:39Z</time>
      </trkpt>
      <trkpt lat="45.94454" lon="4.83437">
        <ele>263</ele>
        <time>2018-10-20T08:57:40Z</time>
      </trkpt>
      <trkpt lat="45.94457" lon="4.83443">
        <ele>263</ele>
        <time>2018-10-20T08:57:41Z</time>
      </trkpt>
      <trkpt lat="45.94459" lon="4.83448">
        <ele>263</ele>
        <time>2018-10-20T08:57:42Z</time>
      </trkpt>
      <trkpt lat="45.94463" lon="4.83454">
        <ele>263</ele>
        <time>2018-10-20T08:57:43Z</time>
      </trkpt>
      <trkpt lat="45.94468" lon="4.83461">
        <ele>263</ele>
        <time>2018-10-20T08:57:44Z</time>
      </trkpt>
      <trkpt lat="45.94471" lon="4.83466">
        <ele>263</ele>
        <time>2018-10-20T08:57:45Z</time>
      </trkpt>
      <trkpt lat="45.94474" lon="4.83472">
        <ele>263</ele>
        <time>2018-10-20T08:57:46Z</time>
      </trkpt>
      <trkpt lat="45.94478" lon="4.8348">
        <ele>263</ele>
        <time>2018-10-20T08:57:47Z</time>
      </trkpt>
      <trkpt lat="45.94482" lon="4.83486">
        <ele>263</ele>
        <time>2018-10-20T08:57:48Z</time>
      </trkpt>
      <trkpt lat="45.94486" lon="4.83493">
        <ele>263</ele>
        <time>2018-10-20T08:57:49Z</time>
      </trkpt>
      <trkpt lat="45.9449" lon="4.83499">
        <ele>263</ele>
        <time>2018-10-20T08:57:50Z</time>
      </trkpt>
      <trkpt lat="45.94493" lon="4.83506">
        <ele>263</ele>
        <time>2018-10-20T08:57:51Z</time>
      </trkpt>
      <trkpt lat="45.94497" lon="4.83512">
        <ele>262</ele>
        <time>2018-10-20T08:57:52Z</time>
      </trkpt>
      <trkpt lat="45.94501" lon="4.83517">
        <ele>262</ele>
        <time>2018-10-20T08:57:53Z</time>
      </trkpt>
      <trkpt lat="45.94504" lon="4.83523">
        <ele>262</ele>
        <time>2018-10-20T08:57:54Z</time>
      </trkpt>
      <trkpt lat="45.94508" lon="4.83529">
        <ele>262</ele>
        <time>2018-10-20T08:57:55Z</time>
      </trkpt>
      <trkpt lat="45.94511" lon="4.83534">
        <ele>262</ele>
        <time>2018-10-20T08:57:56Z</time>
      </trkpt>
      <trkpt lat="45.94514" lon="4.8354">
        <ele>262</ele>
        <time>2018-10-20T08:57:57Z</time>
      </trkpt>
      <trkpt lat="45.94516" lon="4.83546">
        <ele>261</ele>
        <time>2018-10-20T08:57:58Z</time>
      </trkpt>
      <trkpt lat="45.94519" lon="4.83552">
        <ele>261</ele>
        <time>2018-10-20T08:57:59Z</time>
      </trkpt>
      <trkpt lat="45.94522" lon="4.83558">
        <ele>261</ele>
        <time>2018-10-20T08:58:00Z</time>
      </trkpt>
      <trkpt lat="45.94526" lon="4.83567">
        <ele>261</ele>
        <time>2018-10-20T08:58:02Z</time>
      </trkpt>
      <trkpt lat="45.94529" lon="4.83574">
        <ele>261</ele>
        <time>2018-10-20T08:58:03Z</time>
      </trkpt>
      <trkpt lat="45.9453" lon="4.83582">
        <ele>261</ele>
        <time>2018-10-20T08:58:04Z</time>
      </trkpt>
      <trkpt lat="45.94532" lon="4.83591">
        <ele>261</ele>
        <time>2018-10-20T08:58:05Z</time>
      </trkpt>
      <trkpt lat="45.94534" lon="4.83599">
        <ele>261</ele>
        <time>2018-10-20T08:58:06Z</time>
      </trkpt>
      <trkpt lat="45.94536" lon="4.83607">
        <ele>261</ele>
        <time>2018-10-20T08:58:07Z</time>
      </trkpt>
      <trkpt lat="45.94538" lon="4.83616">
        <ele>261</ele>
        <time>2018-10-20T08:58:08Z</time>
      </trkpt>
      <trkpt lat="45.9454" lon="4.83624">
        <ele>261</ele>
        <time>2018-10-20T08:58:09Z</time>
      </trkpt>
      <trkpt lat="45.94541" lon="4.83633">
        <ele>261</ele>
        <time>2018-10-20T08:58:10Z</time>
      </trkpt>
      <trkpt lat="45.94541" lon="4.83641">
        <ele>261</ele>
        <time>2018-10-20T08:58:11Z</time>
      </trkpt>
      <trkpt lat="45.94544" lon="4.83649">
        <ele>261</ele>
        <time>2018-10-20T08:58:12Z</time>
      </trkpt>
      <trkpt lat="45.94544" lon="4.83657">
        <ele>261</ele>
        <time>2018-10-20T08:58:13Z</time>
      </trkpt>
      <trkpt lat="45.94546" lon="4.83664">
        <ele>261</ele>
        <time>2018-10-20T08:58:14Z</time>
      </trkpt>
      <trkpt lat="45.94547" lon="4.83672">
        <ele>262</ele>
        <time>2018-10-20T08:58:15Z</time>
      </trkpt>
      <trkpt lat="45.94548" lon="4.83681">
        <ele>262</ele>
        <time>2018-10-20T08:58:16Z</time>
      </trkpt>
      <trkpt lat="45.9455" lon="4.83688">
        <ele>262</ele>
        <time>2018-10-20T08:58:17Z</time>
      </trkpt>
      <trkpt lat="45.94551" lon="4.83696">
        <ele>262</ele>
        <time>2018-10-20T08:58:18Z</time>
      </trkpt>
      <trkpt lat="45.94553" lon="4.83703">
        <ele>262</ele>
        <time>2018-10-20T08:58:19Z</time>
      </trkpt>
      <trkpt lat="45.94554" lon="4.83711">
        <ele>262</ele>
        <time>2018-10-20T08:58:20Z</time>
      </trkpt>
      <trkpt lat="45.94554" lon="4.83718">
        <ele>262</ele>
        <time>2018-10-20T08:58:21Z</time>
      </trkpt>
      <trkpt lat="45.94556" lon="4.83725">
        <ele>262</ele>
        <time>2018-10-20T08:58:22Z</time>
      </trkpt>
      <trkpt lat="45.94556" lon="4.83733">
        <ele>262</ele>
        <time>2018-10-20T08:58:23Z</time>
      </trkpt>
      <trkpt lat="45.94558" lon="4.8374">
        <ele>262</ele>
        <time>2018-10-20T08:58:24Z</time>
      </trkpt>
      <trkpt lat="45.94559" lon="4.83747">
        <ele>262</ele>
        <time>2018-10-20T08:58:25Z</time>
      </trkpt>
      <trkpt lat="45.94561" lon="4.83753">
        <ele>263</ele>
        <time>2018-10-20T08:58:26Z</time>
      </trkpt>
      <trkpt lat="45.94562" lon="4.8376">
        <ele>263</ele>
        <time>2018-10-20T08:58:27Z</time>
      </trkpt>
      <trkpt lat="45.94563" lon="4.83768">
        <ele>263</ele>
        <time>2018-10-20T08:58:28Z</time>
      </trkpt>
      <trkpt lat="45.94565" lon="4.83775">
        <ele>263</ele>
        <time>2018-10-20T08:58:29Z</time>
      </trkpt>
      <trkpt lat="45.94567" lon="4.83782">
        <ele>264</ele>
        <time>2018-10-20T08:58:30Z</time>
      </trkpt>
      <trkpt lat="45.94568" lon="4.83789">
        <ele>264</ele>
        <time>2018-10-20T08:58:31Z</time>
      </trkpt>
      <trkpt lat="45.94569" lon="4.83795">
        <ele>264</ele>
        <time>2018-10-20T08:58:32Z</time>
      </trkpt>
      <trkpt lat="45.9457" lon="4.83802">
        <ele>264</ele>
        <time>2018-10-20T08:58:33Z</time>
      </trkpt>
      <trkpt lat="45.94572" lon="4.83808">
        <ele>264</ele>
        <time>2018-10-20T08:58:34Z</time>
      </trkpt>
      <trkpt lat="45.94574" lon="4.83816">
        <ele>264</ele>
        <time>2018-10-20T08:58:35Z</time>
      </trkpt>
      <trkpt lat="45.94577" lon="4.83823">
        <ele>265</ele>
        <time>2018-10-20T08:58:36Z</time>
      </trkpt>
      <trkpt lat="45.94578" lon="4.8383">
        <ele>265</ele>
        <time>2018-10-20T08:58:37Z</time>
      </trkpt>
      <trkpt lat="45.9458" lon="4.83842">
        <ele>266</ele>
        <time>2018-10-20T08:58:39Z</time>
      </trkpt>
      <trkpt lat="45.94581" lon="4.83848">
        <ele>266</ele>
        <time>2018-10-20T08:58:40Z</time>
      </trkpt>
      <trkpt lat="45.94581" lon="4.83861">
        <ele>267</ele>
        <time>2018-10-20T08:58:42Z</time>
      </trkpt>
      <trkpt lat="45.94582" lon="4.83866">
        <ele>267</ele>
        <time>2018-10-20T08:58:43Z</time>
      </trkpt>
      <trkpt lat="45.94584" lon="4.83877">
        <ele>266</ele>
        <time>2018-10-20T08:58:45Z</time>
      </trkpt>
      <trkpt lat="45.94585" lon="4.83882">
        <ele>267</ele>
        <time>2018-10-20T08:58:46Z</time>
      </trkpt>
      <trkpt lat="45.94586" lon="4.83893">
        <ele>267</ele>
        <time>2018-10-20T08:58:48Z</time>
      </trkpt>
      <trkpt lat="45.94587" lon="4.83899">
        <ele>267</ele>
        <time>2018-10-20T08:58:49Z</time>
      </trkpt>
      <trkpt lat="45.94589" lon="4.8391">
        <ele>267</ele>
        <time>2018-10-20T08:58:51Z</time>
      </trkpt>
      <trkpt lat="45.9459" lon="4.83915">
        <ele>268</ele>
        <time>2018-10-20T08:58:52Z</time>
      </trkpt>
      <trkpt lat="45.94592" lon="4.83927">
        <ele>268</ele>
        <time>2018-10-20T08:58:54Z</time>
      </trkpt>
      <trkpt lat="45.94593" lon="4.83932">
        <ele>268</ele>
        <time>2018-10-20T08:58:55Z</time>
      </trkpt>
      <trkpt lat="45.94595" lon="4.83943">
        <ele>268</ele>
        <time>2018-10-20T08:58:57Z</time>
      </trkpt>
      <trkpt lat="45.94595" lon="4.83949">
        <ele>268</ele>
        <time>2018-10-20T08:58:58Z</time>
      </trkpt>
      <trkpt lat="45.94596" lon="4.8396">
        <ele>268</ele>
        <time>2018-10-20T08:59:00Z</time>
      </trkpt>
      <trkpt lat="45.94598" lon="4.83967">
        <ele>268</ele>
        <time>2018-10-20T08:59:01Z</time>
      </trkpt>
      <trkpt lat="45.94598" lon="4.83979">
        <ele>268</ele>
        <time>2018-10-20T08:59:03Z</time>
      </trkpt>
      <trkpt lat="45.94598" lon="4.83985">
        <ele>268</ele>
        <time>2018-10-20T08:59:04Z</time>
      </trkpt>
      <trkpt lat="45.946" lon="4.83992">
        <ele>268</ele>
        <time>2018-10-20T08:59:05Z</time>
      </trkpt>
      <trkpt lat="45.94601" lon="4.83998">
        <ele>268</ele>
        <time>2018-10-20T08:59:06Z</time>
      </trkpt>
      <trkpt lat="45.94603" lon="4.84011">
        <ele>269</ele>
        <time>2018-10-20T08:59:08Z</time>
      </trkpt>
      <trkpt lat="45.94603" lon="4.84018">
        <ele>269</ele>
        <time>2018-10-20T08:59:09Z</time>
      </trkpt>
      <trkpt lat="45.94604" lon="4.84025">
        <ele>269</ele>
        <time>2018-10-20T08:59:10Z</time>
      </trkpt>
      <trkpt lat="45.94605" lon="4.84032">
        <ele>269</ele>
        <time>2018-10-20T08:59:11Z</time>
      </trkpt>
      <trkpt lat="45.94606" lon="4.84037">
        <ele>269</ele>
        <time>2018-10-20T08:59:12Z</time>
      </trkpt>
      <trkpt lat="45.94608" lon="4.84045">
        <ele>269</ele>
        <time>2018-10-20T08:59:13Z</time>
      </trkpt>
      <trkpt lat="45.94609" lon="4.84053">
        <ele>269</ele>
        <time>2018-10-20T08:59:14Z</time>
      </trkpt>
      <trkpt lat="45.9461" lon="4.8406">
        <ele>269</ele>
        <time>2018-10-20T08:59:15Z</time>
      </trkpt>
      <trkpt lat="45.94614" lon="4.8407">
        <ele>269</ele>
        <time>2018-10-20T08:59:16Z</time>
      </trkpt>
      <trkpt lat="45.94615" lon="4.84076">
        <ele>269</ele>
        <time>2018-10-20T08:59:17Z</time>
      </trkpt>
      <trkpt lat="45.94615" lon="4.84083">
        <ele>269</ele>
        <time>2018-10-20T08:59:18Z</time>
      </trkpt>
      <trkpt lat="45.94617" lon="4.84089">
        <ele>269</ele>
        <time>2018-10-20T08:59:19Z</time>
      </trkpt>
      <trkpt lat="45.94619" lon="4.84101">
        <ele>269</ele>
        <time>2018-10-20T08:59:21Z</time>
      </trkpt>
      <trkpt lat="45.9462" lon="4.84107">
        <ele>269</ele>
        <time>2018-10-20T08:59:22Z</time>
      </trkpt>
      <trkpt lat="45.94622" lon="4.8412">
        <ele>269</ele>
        <time>2018-10-20T08:59:24Z</time>
      </trkpt>
      <trkpt lat="45.94623" lon="4.84126">
        <ele>269</ele>
        <time>2018-10-20T08:59:25Z</time>
      </trkpt>
      <trkpt lat="45.94624" lon="4.84133">
        <ele>269</ele>
        <time>2018-10-20T08:59:26Z</time>
      </trkpt>
      <trkpt lat="45.94625" lon="4.84139">
        <ele>268</ele>
        <time>2018-10-20T08:59:27Z</time>
      </trkpt>
      <trkpt lat="45.94627" lon="4.84146">
        <ele>268</ele>
        <time>2018-10-20T08:59:28Z</time>
      </trkpt>
      <trkpt lat="45.94628" lon="4.84154">
        <ele>268</ele>
        <time>2018-10-20T08:59:29Z</time>
      </trkpt>
      <trkpt lat="45.94629" lon="4.84161">
        <ele>268</ele>
        <time>2018-10-20T08:59:30Z</time>
      </trkpt>
      <trkpt lat="45.9463" lon="4.84168">
        <ele>269</ele>
        <time>2018-10-20T08:59:31Z</time>
      </trkpt>
      <trkpt lat="45.94631" lon="4.84174">
        <ele>269</ele>
        <time>2018-10-20T08:59:32Z</time>
      </trkpt>
      <trkpt lat="45.94632" lon="4.84181">
        <ele>269</ele>
        <time>2018-10-20T08:59:33Z</time>
      </trkpt>
      <trkpt lat="45.94632" lon="4.8419">
        <ele>269</ele>
        <time>2018-10-20T08:59:35Z</time>
      </trkpt>
      <trkpt lat="45.94633" lon="4.84196">
        <ele>269</ele>
        <time>2018-10-20T08:59:36Z</time>
      </trkpt>
      <trkpt lat="45.94634" lon="4.84202">
        <ele>269</ele>
        <time>2018-10-20T08:59:37Z</time>
      </trkpt>
      <trkpt lat="45.94635" lon="4.84209">
        <ele>269</ele>
        <time>2018-10-20T08:59:38Z</time>
      </trkpt>
      <trkpt lat="45.94636" lon="4.84216">
        <ele>269</ele>
        <time>2018-10-20T08:59:39Z</time>
      </trkpt>
      <trkpt lat="45.94637" lon="4.84223">
        <ele>269</ele>
        <time>2018-10-20T08:59:40Z</time>
      </trkpt>
      <trkpt lat="45.94637" lon="4.8423">
        <ele>269</ele>
        <time>2018-10-20T08:59:41Z</time>
      </trkpt>
      <trkpt lat="45.94639" lon="4.84237">
        <ele>269</ele>
        <time>2018-10-20T08:59:42Z</time>
      </trkpt>
      <trkpt lat="45.9464" lon="4.8425">
        <ele>269</ele>
        <time>2018-10-20T08:59:44Z</time>
      </trkpt>
      <trkpt lat="45.94641" lon="4.84257">
        <ele>269</ele>
        <time>2018-10-20T08:59:45Z</time>
      </trkpt>
      <trkpt lat="45.94642" lon="4.84269">
        <ele>269</ele>
        <time>2018-10-20T08:59:47Z</time>
      </trkpt>
      <trkpt lat="45.94644" lon="4.84276">
        <ele>269</ele>
        <time>2018-10-20T08:59:48Z</time>
      </trkpt>
      <trkpt lat="45.94645" lon="4.84283">
        <ele>269</ele>
        <time>2018-10-20T08:59:49Z</time>
      </trkpt>
      <trkpt lat="45.94646" lon="4.84291">
        <ele>269</ele>
        <time>2018-10-20T08:59:50Z</time>
      </trkpt>
      <trkpt lat="45.94648" lon="4.84298">
        <ele>269</ele>
        <time>2018-10-20T08:59:51Z</time>
      </trkpt>
      <trkpt lat="45.9465" lon="4.84305">
        <ele>269</ele>
        <time>2018-10-20T08:59:52Z</time>
      </trkpt>
      <trkpt lat="45.94651" lon="4.84312">
        <ele>268</ele>
        <time>2018-10-20T08:59:53Z</time>
      </trkpt>
      <trkpt lat="45.94652" lon="4.84319">
        <ele>268</ele>
        <time>2018-10-20T08:59:54Z</time>
      </trkpt>
      <trkpt lat="45.94653" lon="4.84329">
        <ele>268</ele>
        <time>2018-10-20T08:59:56Z</time>
      </trkpt>
      <trkpt lat="45.94654" lon="4.84335">
        <ele>268</ele>
        <time>2018-10-20T08:59:57Z</time>
      </trkpt>
      <trkpt lat="45.94654" lon="4.84342">
        <ele>268</ele>
        <time>2018-10-20T08:59:58Z</time>
      </trkpt>
      <trkpt lat="45.94659" lon="4.84365">
        <ele>268</ele>
        <time>2018-10-20T09:00:01Z</time>
      </trkpt>
      <trkpt lat="45.9466" lon="4.84372">
        <ele>268</ele>
        <time>2018-10-20T09:00:02Z</time>
      </trkpt>
      <trkpt lat="45.9466" lon="4.8438">
        <ele>268</ele>
        <time>2018-10-20T09:00:03Z</time>
      </trkpt>
      <trkpt lat="45.94661" lon="4.84392">
        <ele>268</ele>
        <time>2018-10-20T09:00:05Z</time>
      </trkpt>
      <trkpt lat="45.94662" lon="4.84399">
        <ele>268</ele>
        <time>2018-10-20T09:00:06Z</time>
      </trkpt>
      <trkpt lat="45.94664" lon="4.84407">
        <ele>268</ele>
        <time>2018-10-20T09:00:07Z</time>
      </trkpt>
      <trkpt lat="45.94665" lon="4.84413">
        <ele>268</ele>
        <time>2018-10-20T09:00:08Z</time>
      </trkpt>
      <trkpt lat="45.94666" lon="4.84419">
        <ele>268</ele>
        <time>2018-10-20T09:00:09Z</time>
      </trkpt>
      <trkpt lat="45.94667" lon="4.84426">
        <ele>268</ele>
        <time>2018-10-20T09:00:10Z</time>
      </trkpt>
      <trkpt lat="45.94668" lon="4.84438">
        <ele>268</ele>
        <time>2018-10-20T09:00:12Z</time>
      </trkpt>
      <trkpt lat="45.94668" lon="4.84444">
        <ele>268</ele>
        <time>2018-10-20T09:00:13Z</time>
      </trkpt>
      <trkpt lat="45.94669" lon="4.84455">
        <ele>268</ele>
        <time>2018-10-20T09:00:15Z</time>
      </trkpt>
      <trkpt lat="45.94669" lon="4.84462">
        <ele>268</ele>
        <time>2018-10-20T09:00:16Z</time>
      </trkpt>
      <trkpt lat="45.94669" lon="4.84474">
        <ele>268</ele>
        <time>2018-10-20T09:00:18Z</time>
      </trkpt>
      <trkpt lat="45.9467" lon="4.84481">
        <ele>268</ele>
        <time>2018-10-20T09:00:19Z</time>
      </trkpt>
      <trkpt lat="45.94671" lon="4.84489">
        <ele>268</ele>
        <time>2018-10-20T09:00:20Z</time>
      </trkpt>
      <trkpt lat="45.94671" lon="4.84496">
        <ele>268</ele>
        <time>2018-10-20T09:00:21Z</time>
      </trkpt>
      <trkpt lat="45.94675" lon="4.84507">
        <ele>268</ele>
        <time>2018-10-20T09:00:22Z</time>
      </trkpt>
      <trkpt lat="45.94676" lon="4.84514">
        <ele>268</ele>
        <time>2018-10-20T09:00:23Z</time>
      </trkpt>
      <trkpt lat="45.94678" lon="4.84522">
        <ele>268</ele>
        <time>2018-10-20T09:00:24Z</time>
      </trkpt>
      <trkpt lat="45.9468" lon="4.84531">
        <ele>268</ele>
        <time>2018-10-20T09:00:25Z</time>
      </trkpt>
      <trkpt lat="45.9468" lon="4.84537">
        <ele>268</ele>
        <time>2018-10-20T09:00:26Z</time>
      </trkpt>
      <trkpt lat="45.9468" lon="4.84544">
        <ele>268</ele>
        <time>2018-10-20T09:00:27Z</time>
      </trkpt>
      <trkpt lat="45.94681" lon="4.84552">
        <ele>268</ele>
        <time>2018-10-20T09:00:28Z</time>
      </trkpt>
      <trkpt lat="45.94681" lon="4.84558">
        <ele>268</ele>
        <time>2018-10-20T09:00:29Z</time>
      </trkpt>
      <trkpt lat="45.94682" lon="4.8457">
        <ele>268</ele>
        <time>2018-10-20T09:00:31Z</time>
      </trkpt>
      <trkpt lat="45.94682" lon="4.84578">
        <ele>268</ele>
        <time>2018-10-20T09:00:32Z</time>
      </trkpt>
      <trkpt lat="45.94681" lon="4.84584">
        <ele>268</ele>
        <time>2018-10-20T09:00:33Z</time>
      </trkpt>
      <trkpt lat="45.94681" lon="4.84591">
        <ele>268</ele>
        <time>2018-10-20T09:00:34Z</time>
      </trkpt>
      <trkpt lat="45.94682" lon="4.84599">
        <ele>268</ele>
        <time>2018-10-20T09:00:35Z</time>
      </trkpt>
      <trkpt lat="45.94681" lon="4.84606">
        <ele>268</ele>
        <time>2018-10-20T09:00:36Z</time>
      </trkpt>
      <trkpt lat="45.94682" lon="4.84613">
        <ele>268</ele>
        <time>2018-10-20T09:00:37Z</time>
      </trkpt>
      <trkpt lat="45.94681" lon="4.8462">
        <ele>268</ele>
        <time>2018-10-20T09:00:38Z</time>
      </trkpt>
      <trkpt lat="45.94683" lon="4.84627">
        <ele>268</ele>
        <time>2018-10-20T09:00:39Z</time>
      </trkpt>
      <trkpt lat="45.94682" lon="4.84634">
        <ele>268</ele>
        <time>2018-10-20T09:00:40Z</time>
      </trkpt>
      <trkpt lat="45.94682" lon="4.84642">
        <ele>268</ele>
        <time>2018-10-20T09:00:41Z</time>
      </trkpt>
      <trkpt lat="45.94682" lon="4.84649">
        <ele>268</ele>
        <time>2018-10-20T09:00:42Z</time>
      </trkpt>
      <trkpt lat="45.94681" lon="4.84662">
        <ele>268</ele>
        <time>2018-10-20T09:00:44Z</time>
      </trkpt>
      <trkpt lat="45.94681" lon="4.84668">
        <ele>269</ele>
        <time>2018-10-20T09:00:45Z</time>
      </trkpt>
      <trkpt lat="45.94683" lon="4.84679">
        <ele>268</ele>
        <time>2018-10-20T09:00:47Z</time>
      </trkpt>
      <trkpt lat="45.94684" lon="4.84687">
        <ele>268</ele>
        <time>2018-10-20T09:00:48Z</time>
      </trkpt>
      <trkpt lat="45.94684" lon="4.84694">
        <ele>268</ele>
        <time>2018-10-20T09:00:49Z</time>
      </trkpt>
      <trkpt lat="45.94684" lon="4.84702">
        <ele>268</ele>
        <time>2018-10-20T09:00:50Z</time>
      </trkpt>
      <trkpt lat="45.94685" lon="4.84708">
        <ele>268</ele>
        <time>2018-10-20T09:00:51Z</time>
      </trkpt>
      <trkpt lat="45.94685" lon="4.84716">
        <ele>268</ele>
        <time>2018-10-20T09:00:52Z</time>
      </trkpt>
      <trkpt lat="45.94685" lon="4.84725">
        <ele>269</ele>
        <time>2018-10-20T09:00:53Z</time>
      </trkpt>
      <trkpt lat="45.94684" lon="4.84733">
        <ele>269</ele>
        <time>2018-10-20T09:00:54Z</time>
      </trkpt>
      <trkpt lat="45.94685" lon="4.84741">
        <ele>269</ele>
        <time>2018-10-20T09:00:55Z</time>
      </trkpt>
      <trkpt lat="45.94685" lon="4.84747">
        <ele>269</ele>
        <time>2018-10-20T09:00:56Z</time>
      </trkpt>
      <trkpt lat="45.94686" lon="4.84759">
        <ele>269</ele>
        <time>2018-10-20T09:00:58Z</time>
      </trkpt>
      <trkpt lat="45.94688" lon="4.84766">
        <ele>269</ele>
        <time>2018-10-20T09:00:59Z</time>
      </trkpt>
      <trkpt lat="45.94688" lon="4.84772">
        <ele>269</ele>
        <time>2018-10-20T09:01:00Z</time>
      </trkpt>
      <trkpt lat="45.94689" lon="4.84779">
        <ele>269</ele>
        <time>2018-10-20T09:01:01Z</time>
      </trkpt>
      <trkpt lat="45.9469" lon="4.84785">
        <ele>269</ele>
        <time>2018-10-20T09:01:02Z</time>
      </trkpt>
      <trkpt lat="45.94691" lon="4.84791">
        <ele>269</ele>
        <time>2018-10-20T09:01:03Z</time>
      </trkpt>
      <trkpt lat="45.94691" lon="4.84798">
        <ele>268</ele>
        <time>2018-10-20T09:01:04Z</time>
      </trkpt>
      <trkpt lat="45.94692" lon="4.84805">
        <ele>268</ele>
        <time>2018-10-20T09:01:05Z</time>
      </trkpt>
      <trkpt lat="45.94691" lon="4.84812">
        <ele>268</ele>
        <time>2018-10-20T09:01:06Z</time>
      </trkpt>
      <trkpt lat="45.94691" lon="4.84819">
        <ele>268</ele>
        <time>2018-10-20T09:01:07Z</time>
      </trkpt>
      <trkpt lat="45.94692" lon="4.84827">
        <ele>268</ele>
        <time>2018-10-20T09:01:08Z</time>
      </trkpt>
      <trkpt lat="45.94692" lon="4.84835">
        <ele>268</ele>
        <time>2018-10-20T09:01:09Z</time>
      </trkpt>
      <trkpt lat="45.94693" lon="4.84842">
        <ele>268</ele>
        <time>2018-10-20T09:01:10Z</time>
      </trkpt>
      <trkpt lat="45.94693" lon="4.8485">
        <ele>268</ele>
        <time>2018-10-20T09:01:11Z</time>
      </trkpt>
      <trkpt lat="45.94694" lon="4.84858">
        <ele>268</ele>
        <time>2018-10-20T09:01:12Z</time>
      </trkpt>
      <trkpt lat="45.94694" lon="4.84865">
        <ele>268</ele>
        <time>2018-10-20T09:01:13Z</time>
      </trkpt>
      <trkpt lat="45.94695" lon="4.84874">
        <ele>268</ele>
        <time>2018-10-20T09:01:14Z</time>
      </trkpt>
      <trkpt lat="45.94696" lon="4.84882">
        <ele>268</ele>
        <time>2018-10-20T09:01:15Z</time>
      </trkpt>
      <trkpt lat="45.94698" lon="4.84889">
        <ele>268</ele>
        <time>2018-10-20T09:01:16Z</time>
      </trkpt>
      <trkpt lat="45.947" lon="4.84898">
        <ele>268</ele>
        <time>2018-10-20T09:01:17Z</time>
      </trkpt>
      <trkpt lat="45.947" lon="4.84906">
        <ele>268</ele>
        <time>2018-10-20T09:01:18Z</time>
      </trkpt>
      <trkpt lat="45.94702" lon="4.84914">
        <ele>268</ele>
        <time>2018-10-20T09:01:19Z</time>
      </trkpt>
      <trkpt lat="45.94703" lon="4.84921">
        <ele>269</ele>
        <time>2018-10-20T09:01:20Z</time>
      </trkpt>
      <trkpt lat="45.94704" lon="4.84929">
        <ele>269</ele>
        <time>2018-10-20T09:01:21Z</time>
      </trkpt>
      <trkpt lat="45.94704" lon="4.84937">
        <ele>269</ele>
        <time>2018-10-20T09:01:22Z</time>
      </trkpt>
      <trkpt lat="45.94705" lon="4.84945">
        <ele>269</ele>
        <time>2018-10-20T09:01:23Z</time>
      </trkpt>
      <trkpt lat="45.94706" lon="4.84953">
        <ele>269</ele>
        <time>2018-10-20T09:01:24Z</time>
      </trkpt>
      <trkpt lat="45.94706" lon="4.84962">
        <ele>269</ele>
        <time>2018-10-20T09:01:25Z</time>
      </trkpt>
      <trkpt lat="45.94708" lon="4.84971">
        <ele>269</ele>
        <time>2018-10-20T09:01:26Z</time>
      </trkpt>
      <trkpt lat="45.94709" lon="4.8498">
        <ele>269</ele>
        <time>2018-10-20T09:01:27Z</time>
      </trkpt>
      <trkpt lat="45.94709" lon="4.84987">
        <ele>269</ele>
        <time>2018-10-20T09:01:28Z</time>
      </trkpt>
      <trkpt lat="45.94708" lon="4.84996">
        <ele>269</ele>
        <time>2018-10-20T09:01:29Z</time>
      </trkpt>
      <trkpt lat="45.94709" lon="4.85003">
        <ele>269</ele>
        <time>2018-10-20T09:01:30Z</time>
      </trkpt>
      <trkpt lat="45.94708" lon="4.8501">
        <ele>269</ele>
        <time>2018-10-20T09:01:31Z</time>
      </trkpt>
      <trkpt lat="45.94709" lon="4.85017">
        <ele>269</ele>
        <time>2018-10-20T09:01:32Z</time>
      </trkpt>
      <trkpt lat="45.9471" lon="4.85024">
        <ele>269</ele>
        <time>2018-10-20T09:01:33Z</time>
      </trkpt>
      <trkpt lat="45.94711" lon="4.85029">
        <ele>269</ele>
        <time>2018-10-20T09:01:34Z</time>
      </trkpt>
      <trkpt lat="45.94713" lon="4.85037">
        <ele>269</ele>
        <time>2018-10-20T09:01:35Z</time>
      </trkpt>
      <trkpt lat="45.94714" lon="4.85049">
        <ele>269</ele>
        <time>2018-10-20T09:01:37Z</time>
      </trkpt>
      <trkpt lat="45.94715" lon="4.85055">
        <ele>269</ele>
        <time>2018-10-20T09:01:38Z</time>
      </trkpt>
      <trkpt lat="45.94715" lon="4.85063">
        <ele>269</ele>
        <time>2018-10-20T09:01:39Z</time>
      </trkpt>
      <trkpt lat="45.94715" lon="4.85069">
        <ele>269</ele>
        <time>2018-10-20T09:01:40Z</time>
      </trkpt>
      <trkpt lat="45.94716" lon="4.85082">
        <ele>269</ele>
        <time>2018-10-20T09:01:42Z</time>
      </trkpt>
      <trkpt lat="45.94717" lon="4.85088">
        <ele>269</ele>
        <time>2018-10-20T09:01:43Z</time>
      </trkpt>
      <trkpt lat="45.94718" lon="4.85096">
        <ele>269</ele>
        <time>2018-10-20T09:01:44Z</time>
      </trkpt>
      <trkpt lat="45.94718" lon="4.85104">
        <ele>269</ele>
        <time>2018-10-20T09:01:45Z</time>
      </trkpt>
      <trkpt lat="45.94719" lon="4.85111">
        <ele>269</ele>
        <time>2018-10-20T09:01:46Z</time>
      </trkpt>
      <trkpt lat="45.9472" lon="4.8512">
        <ele>269</ele>
        <time>2018-10-20T09:01:47Z</time>
      </trkpt>
      <trkpt lat="45.94721" lon="4.85128">
        <ele>269</ele>
        <time>2018-10-20T09:01:48Z</time>
      </trkpt>
      <trkpt lat="45.94722" lon="4.85134">
        <ele>269</ele>
        <time>2018-10-20T09:01:49Z</time>
      </trkpt>
      <trkpt lat="45.94723" lon="4.85142">
        <ele>269</ele>
        <time>2018-10-20T09:01:50Z</time>
      </trkpt>
      <trkpt lat="45.94724" lon="4.85149">
        <ele>269</ele>
        <time>2018-10-20T09:01:51Z</time>
      </trkpt>
      <trkpt lat="45.94725" lon="4.85161">
        <ele>269</ele>
        <time>2018-10-20T09:01:53Z</time>
      </trkpt>
      <trkpt lat="45.94725" lon="4.85167">
        <ele>269</ele>
        <time>2018-10-20T09:01:54Z</time>
      </trkpt>
      <trkpt lat="45.94726" lon="4.85178">
        <ele>269</ele>
        <time>2018-10-20T09:01:56Z</time>
      </trkpt>
      <trkpt lat="45.94726" lon="4.85186">
        <ele>269</ele>
        <time>2018-10-20T09:01:57Z</time>
      </trkpt>
      <trkpt lat="45.94727" lon="4.85197">
        <ele>269</ele>
        <time>2018-10-20T09:01:59Z</time>
      </trkpt>
      <trkpt lat="45.94727" lon="4.85204">
        <ele>269</ele>
        <time>2018-10-20T09:02:00Z</time>
      </trkpt>
      <trkpt lat="45.94728" lon="4.85208">
        <ele>269</ele>
        <time>2018-10-20T09:02:01Z</time>
      </trkpt>
      <trkpt lat="45.94729" lon="4.85216">
        <ele>269</ele>
        <time>2018-10-20T09:02:02Z</time>
      </trkpt>
      <trkpt lat="45.9473" lon="4.85223">
        <ele>269</ele>
        <time>2018-10-20T09:02:03Z</time>
      </trkpt>
      <trkpt lat="45.9473" lon="4.8523">
        <ele>269</ele>
        <time>2018-10-20T09:02:04Z</time>
      </trkpt>
      <trkpt lat="45.94731" lon="4.85237">
        <ele>269</ele>
        <time>2018-10-20T09:02:05Z</time>
      </trkpt>
      <trkpt lat="45.94732" lon="4.85245">
        <ele>269</ele>
        <time>2018-10-20T09:02:06Z</time>
      </trkpt>
      <trkpt lat="45.94733" lon="4.85252">
        <ele>269</ele>
        <time>2018-10-20T09:02:07Z</time>
      </trkpt>
      <trkpt lat="45.94734" lon="4.8526">
        <ele>269</ele>
        <time>2018-10-20T09:02:08Z</time>
      </trkpt>
      <trkpt lat="45.94736" lon="4.85267">
        <ele>269</ele>
        <time>2018-10-20T09:02:09Z</time>
      </trkpt>
      <trkpt lat="45.94736" lon="4.85275">
        <ele>269</ele>
        <time>2018-10-20T09:02:10Z</time>
      </trkpt>
      <trkpt lat="45.94737" lon="4.85282">
        <ele>269</ele>
        <time>2018-10-20T09:02:11Z</time>
      </trkpt>
      <trkpt lat="45.94737" lon="4.85289">
        <ele>269</ele>
        <time>2018-10-20T09:02:12Z</time>
      </trkpt>
      <trkpt lat="45.94738" lon="4.85296">
        <ele>270</ele>
        <time>2018-10-20T09:02:13Z</time>
      </trkpt>
      <trkpt lat="45.94739" lon="4.85305">
        <ele>270</ele>
        <time>2018-10-20T09:02:14Z</time>
      </trkpt>
      <trkpt lat="45.9474" lon="4.85313">
        <ele>270</ele>
        <time>2018-10-20T09:02:15Z</time>
      </trkpt>
      <trkpt lat="45.9474" lon="4.85321">
        <ele>270</ele>
        <time>2018-10-20T09:02:16Z</time>
      </trkpt>
      <trkpt lat="45.94741" lon="4.85329">
        <ele>270</ele>
        <time>2018-10-20T09:02:17Z</time>
      </trkpt>
      <trkpt lat="45.94741" lon="4.85338">
        <ele>270</ele>
        <time>2018-10-20T09:02:18Z</time>
      </trkpt>
      <trkpt lat="45.94742" lon="4.85346">
        <ele>271</ele>
        <time>2018-10-20T09:02:19Z</time>
      </trkpt>
      <trkpt lat="45.94742" lon="4.85353">
        <ele>271</ele>
        <time>2018-10-20T09:02:20Z</time>
      </trkpt>
      <trkpt lat="45.94743" lon="4.8536">
        <ele>271</ele>
        <time>2018-10-20T09:02:21Z</time>
      </trkpt>
      <trkpt lat="45.94744" lon="4.85369">
        <ele>271</ele>
        <time>2018-10-20T09:02:22Z</time>
      </trkpt>
      <trkpt lat="45.94745" lon="4.85376">
        <ele>271</ele>
        <time>2018-10-20T09:02:23Z</time>
      </trkpt>
      <trkpt lat="45.94746" lon="4.85384">
        <ele>272</ele>
        <time>2018-10-20T09:02:24Z</time>
      </trkpt>
      <trkpt lat="45.94747" lon="4.85391">
        <ele>272</ele>
        <time>2018-10-20T09:02:25Z</time>
      </trkpt>
      <trkpt lat="45.94748" lon="4.85399">
        <ele>272</ele>
        <time>2018-10-20T09:02:26Z</time>
      </trkpt>
      <trkpt lat="45.94749" lon="4.85404">
        <ele>272</ele>
        <time>2018-10-20T09:02:27Z</time>
      </trkpt>
      <trkpt lat="45.9475" lon="4.85412">
        <ele>273</ele>
        <time>2018-10-20T09:02:28Z</time>
      </trkpt>
      <trkpt lat="45.94752" lon="4.8542">
        <ele>273</ele>
        <time>2018-10-20T09:02:29Z</time>
      </trkpt>
      <trkpt lat="45.94752" lon="4.85426">
        <ele>274</ele>
        <time>2018-10-20T09:02:30Z</time>
      </trkpt>
      <trkpt lat="45.94754" lon="4.85439">
        <ele>274</ele>
        <time>2018-10-20T09:02:32Z</time>
      </trkpt>
      <trkpt lat="45.94755" lon="4.85444">
        <ele>274</ele>
        <time>2018-10-20T09:02:33Z</time>
      </trkpt>
      <trkpt lat="45.94758" lon="4.85455">
        <ele>275</ele>
        <time>2018-10-20T09:02:35Z</time>
      </trkpt>
      <trkpt lat="45.94759" lon="4.8546">
        <ele>275</ele>
        <time>2018-10-20T09:02:36Z</time>
      </trkpt>
      <trkpt lat="45.9476" lon="4.85472">
        <ele>275</ele>
        <time>2018-10-20T09:02:38Z</time>
      </trkpt>
      <trkpt lat="45.94761" lon="4.85477">
        <ele>275</ele>
        <time>2018-10-20T09:02:39Z</time>
      </trkpt>
      <trkpt lat="45.94762" lon="4.85488">
        <ele>275</ele>
        <time>2018-10-20T09:02:42Z</time>
      </trkpt>
      <trkpt lat="45.94763" lon="4.85492">
        <ele>276</ele>
        <time>2018-10-20T09:02:43Z</time>
      </trkpt>
      <trkpt lat="45.94765" lon="4.85502">
        <ele>277</ele>
        <time>2018-10-20T09:02:45Z</time>
      </trkpt>
      <trkpt lat="45.94766" lon="4.85506">
        <ele>277</ele>
        <time>2018-10-20T09:02:46Z</time>
      </trkpt>
      <trkpt lat="45.94767" lon="4.85515">
        <ele>277</ele>
        <time>2018-10-20T09:02:48Z</time>
      </trkpt>
      <trkpt lat="45.94767" lon="4.8552">
        <ele>277</ele>
        <time>2018-10-20T09:02:49Z</time>
      </trkpt>
      <trkpt lat="45.94768" lon="4.85528">
        <ele>278</ele>
        <time>2018-10-20T09:02:51Z</time>
      </trkpt>
      <trkpt lat="45.94769" lon="4.85533">
        <ele>278</ele>
        <time>2018-10-20T09:02:52Z</time>
      </trkpt>
      <trkpt lat="45.9477" lon="4.85543">
        <ele>278</ele>
        <time>2018-10-20T09:02:54Z</time>
      </trkpt>
      <trkpt lat="45.94771" lon="4.85548">
        <ele>278</ele>
        <time>2018-10-20T09:02:55Z</time>
      </trkpt>
      <trkpt lat="45.94772" lon="4.85557">
        <ele>278</ele>
        <time>2018-10-20T09:02:57Z</time>
      </trkpt>
      <trkpt lat="45.94772" lon="4.85562">
        <ele>278</ele>
        <time>2018-10-20T09:02:58Z</time>
      </trkpt>
      <trkpt lat="45.94774" lon="4.85574">
        <ele>279</ele>
        <time>2018-10-20T09:03:01Z</time>
      </trkpt>
      <trkpt lat="45.94775" lon="4.85579">
        <ele>279</ele>
        <time>2018-10-20T09:03:02Z</time>
      </trkpt>
      <trkpt lat="45.94777" lon="4.85593">
        <ele>280</ele>
        <time>2018-10-20T09:03:03Z</time>
      </trkpt>
      <trkpt lat="45.94778" lon="4.85603">
        <ele>280</ele>
        <time>2018-10-20T09:03:06Z</time>
      </trkpt>
      <trkpt lat="45.9478" lon="4.85613">
        <ele>280</ele>
        <time>2018-10-20T09:03:07Z</time>
      </trkpt>
      <trkpt lat="45.94782" lon="4.85624">
        <ele>280</ele>
        <time>2018-10-20T09:03:09Z</time>
      </trkpt>
      <trkpt lat="45.94783" lon="4.85627">
        <ele>280</ele>
        <time>2018-10-20T09:03:10Z</time>
      </trkpt>
      <trkpt lat="45.94785" lon="4.85638">
        <ele>281</ele>
        <time>2018-10-20T09:03:12Z</time>
      </trkpt>
      <trkpt lat="45.94787" lon="4.85643">
        <ele>281</ele>
        <time>2018-10-20T09:03:13Z</time>
      </trkpt>
      <trkpt lat="45.94789" lon="4.85653">
        <ele>281</ele>
        <time>2018-10-20T09:03:15Z</time>
      </trkpt>
      <trkpt lat="45.9479" lon="4.85658">
        <ele>281</ele>
        <time>2018-10-20T09:03:16Z</time>
      </trkpt>
      <trkpt lat="45.94792" lon="4.85669">
        <ele>280</ele>
        <time>2018-10-20T09:03:18Z</time>
      </trkpt>
      <trkpt lat="45.94794" lon="4.85674">
        <ele>280</ele>
        <time>2018-10-20T09:03:19Z</time>
      </trkpt>
      <trkpt lat="45.94796" lon="4.85685">
        <ele>280</ele>
        <time>2018-10-20T09:03:21Z</time>
      </trkpt>
      <trkpt lat="45.94797" lon="4.8569">
        <ele>280</ele>
        <time>2018-10-20T09:03:22Z</time>
      </trkpt>
      <trkpt lat="45.94799" lon="4.85702">
        <ele>280</ele>
        <time>2018-10-20T09:03:24Z</time>
      </trkpt>
      <trkpt lat="45.94801" lon="4.85707">
        <ele>280</ele>
        <time>2018-10-20T09:03:25Z</time>
      </trkpt>
      <trkpt lat="45.94802" lon="4.85713">
        <ele>280</ele>
        <time>2018-10-20T09:03:26Z</time>
      </trkpt>
      <trkpt lat="45.94804" lon="4.85719">
        <ele>280</ele>
        <time>2018-10-20T09:03:27Z</time>
      </trkpt>
      <trkpt lat="45.94806" lon="4.85731">
        <ele>280</ele>
        <time>2018-10-20T09:03:29Z</time>
      </trkpt>
      <trkpt lat="45.94808" lon="4.85737">
        <ele>279</ele>
        <time>2018-10-20T09:03:30Z</time>
      </trkpt>
      <trkpt lat="45.9481" lon="4.85748">
        <ele>279</ele>
        <time>2018-10-20T09:03:32Z</time>
      </trkpt>
      <trkpt lat="45.94812" lon="4.85755">
        <ele>278</ele>
        <time>2018-10-20T09:03:33Z</time>
      </trkpt>
      <trkpt lat="45.94813" lon="4.85761">
        <ele>278</ele>
        <time>2018-10-20T09:03:34Z</time>
      </trkpt>
      <trkpt lat="45.94814" lon="4.85768">
        <ele>278</ele>
        <time>2018-10-20T09:03:35Z</time>
      </trkpt>
      <trkpt lat="45.94817" lon="4.85776">
        <ele>278</ele>
        <time>2018-10-20T09:03:36Z</time>
      </trkpt>
      <trkpt lat="45.94819" lon="4.85782">
        <ele>278</ele>
        <time>2018-10-20T09:03:37Z</time>
      </trkpt>
      <trkpt lat="45.94821" lon="4.85789">
        <ele>278</ele>
        <time>2018-10-20T09:03:38Z</time>
      </trkpt>
      <trkpt lat="45.94824" lon="4.85796">
        <ele>278</ele>
        <time>2018-10-20T09:03:39Z</time>
      </trkpt>
      <trkpt lat="45.94827" lon="4.85807">
        <ele>278</ele>
        <time>2018-10-20T09:03:41Z</time>
      </trkpt>
      <trkpt lat="45.94828" lon="4.85813">
        <ele>278</ele>
        <time>2018-10-20T09:03:42Z</time>
      </trkpt>
      <trkpt lat="45.9483" lon="4.8582">
        <ele>278</ele>
        <time>2018-10-20T09:03:43Z</time>
      </trkpt>
      <trkpt lat="45.94832" lon="4.85826">
        <ele>277</ele>
        <time>2018-10-20T09:03:44Z</time>
      </trkpt>
      <trkpt lat="45.94833" lon="4.85833">
        <ele>277</ele>
        <time>2018-10-20T09:03:45Z</time>
      </trkpt>
      <trkpt lat="45.94835" lon="4.8584">
        <ele>277</ele>
        <time>2018-10-20T09:03:46Z</time>
      </trkpt>
      <trkpt lat="45.94836" lon="4.85847">
        <ele>277</ele>
        <time>2018-10-20T09:03:47Z</time>
      </trkpt>
      <trkpt lat="45.94839" lon="4.85852">
        <ele>276</ele>
        <time>2018-10-20T09:03:48Z</time>
      </trkpt>
      <trkpt lat="45.94841" lon="4.85858">
        <ele>276</ele>
        <time>2018-10-20T09:03:49Z</time>
      </trkpt>
      <trkpt lat="45.94843" lon="4.85865">
        <ele>276</ele>
        <time>2018-10-20T09:03:50Z</time>
      </trkpt>
      <trkpt lat="45.94844" lon="4.85872">
        <ele>276</ele>
        <time>2018-10-20T09:03:51Z</time>
      </trkpt>
      <trkpt lat="45.94847" lon="4.85878">
        <ele>276</ele>
        <time>2018-10-20T09:03:52Z</time>
      </trkpt>
      <trkpt lat="45.94849" lon="4.85885">
        <ele>276</ele>
        <time>2018-10-20T09:03:53Z</time>
      </trkpt>
      <trkpt lat="45.94852" lon="4.85892">
        <ele>276</ele>
        <time>2018-10-20T09:03:54Z</time>
      </trkpt>
      <trkpt lat="45.94854" lon="4.85899">
        <ele>276</ele>
        <time>2018-10-20T09:03:55Z</time>
      </trkpt>
      <trkpt lat="45.94856" lon="4.85906">
        <ele>276</ele>
        <time>2018-10-20T09:03:56Z</time>
      </trkpt>
      <trkpt lat="45.94858" lon="4.85912">
        <ele>276</ele>
        <time>2018-10-20T09:03:57Z</time>
      </trkpt>
      <trkpt lat="45.94859" lon="4.85919">
        <ele>275</ele>
        <time>2018-10-20T09:03:58Z</time>
      </trkpt>
      <trkpt lat="45.94861" lon="4.85927">
        <ele>275</ele>
        <time>2018-10-20T09:03:59Z</time>
      </trkpt>
      <trkpt lat="45.94862" lon="4.85935">
        <ele>275</ele>
        <time>2018-10-20T09:04:00Z</time>
      </trkpt>
      <trkpt lat="45.94864" lon="4.85942">
        <ele>275</ele>
        <time>2018-10-20T09:04:01Z</time>
      </trkpt>
      <trkpt lat="45.94867" lon="4.8595">
        <ele>275</ele>
        <time>2018-10-20T09:04:02Z</time>
      </trkpt>
      <trkpt lat="45.9487" lon="4.85957">
        <ele>275</ele>
        <time>2018-10-20T09:04:03Z</time>
      </trkpt>
      <trkpt lat="45.94871" lon="4.85964">
        <ele>275</ele>
        <time>2018-10-20T09:04:04Z</time>
      </trkpt>
      <trkpt lat="45.94873" lon="4.85973">
        <ele>275</ele>
        <time>2018-10-20T09:04:05Z</time>
      </trkpt>
      <trkpt lat="45.94876" lon="4.8598">
        <ele>275</ele>
        <time>2018-10-20T09:04:06Z</time>
      </trkpt>
      <trkpt lat="45.94877" lon="4.85987">
        <ele>275</ele>
        <time>2018-10-20T09:04:07Z</time>
      </trkpt>
      <trkpt lat="45.94879" lon="4.85994">
        <ele>275</ele>
        <time>2018-10-20T09:04:08Z</time>
      </trkpt>
      <trkpt lat="45.9488" lon="4.86">
        <ele>274</ele>
        <time>2018-10-20T09:04:09Z</time>
      </trkpt>
      <trkpt lat="45.94883" lon="4.86007">
        <ele>274</ele>
        <time>2018-10-20T09:04:10Z</time>
      </trkpt>
      <trkpt lat="45.94885" lon="4.86013">
        <ele>274</ele>
        <time>2018-10-20T09:04:11Z</time>
      </trkpt>
      <trkpt lat="45.94886" lon="4.86019">
        <ele>274</ele>
        <time>2018-10-20T09:04:12Z</time>
      </trkpt>
      <trkpt lat="45.94888" lon="4.86026">
        <ele>274</ele>
        <time>2018-10-20T09:04:13Z</time>
      </trkpt>
      <trkpt lat="45.94889" lon="4.86032">
        <ele>274</ele>
        <time>2018-10-20T09:04:14Z</time>
      </trkpt>
      <trkpt lat="45.94891" lon="4.86039">
        <ele>274</ele>
        <time>2018-10-20T09:04:15Z</time>
      </trkpt>
      <trkpt lat="45.94893" lon="4.86045">
        <ele>274</ele>
        <time>2018-10-20T09:04:16Z</time>
      </trkpt>
      <trkpt lat="45.94896" lon="4.86051">
        <ele>274</ele>
        <time>2018-10-20T09:04:17Z</time>
      </trkpt>
      <trkpt lat="45.94898" lon="4.86058">
        <ele>274</ele>
        <time>2018-10-20T09:04:18Z</time>
      </trkpt>
      <trkpt lat="45.94899" lon="4.86065">
        <ele>274</ele>
        <time>2018-10-20T09:04:19Z</time>
      </trkpt>
      <trkpt lat="45.94901" lon="4.86072">
        <ele>274</ele>
        <time>2018-10-20T09:04:20Z</time>
      </trkpt>
      <trkpt lat="45.94902" lon="4.86079">
        <ele>274</ele>
        <time>2018-10-20T09:04:21Z</time>
      </trkpt>
      <trkpt lat="45.94905" lon="4.86085">
        <ele>273</ele>
        <time>2018-10-20T09:04:22Z</time>
      </trkpt>
      <trkpt lat="45.94908" lon="4.86093">
        <ele>274</ele>
        <time>2018-10-20T09:04:23Z</time>
      </trkpt>
      <trkpt lat="45.9491" lon="4.86101">
        <ele>274</ele>
        <time>2018-10-20T09:04:24Z</time>
      </trkpt>
      <trkpt lat="45.94912" lon="4.86108">
        <ele>274</ele>
        <time>2018-10-20T09:04:25Z</time>
      </trkpt>
      <trkpt lat="45.94915" lon="4.86115">
        <ele>274</ele>
        <time>2018-10-20T09:04:26Z</time>
      </trkpt>
      <trkpt lat="45.9492" lon="4.86125">
        <ele>273</ele>
        <time>2018-10-20T09:04:28Z</time>
      </trkpt>
      <trkpt lat="45.94923" lon="4.86131">
        <ele>273</ele>
        <time>2018-10-20T09:04:29Z</time>
      </trkpt>
      <trkpt lat="45.94925" lon="4.86137">
        <ele>273</ele>
        <time>2018-10-20T09:04:30Z</time>
      </trkpt>
      <trkpt lat="45.9493" lon="4.86143">
        <ele>273</ele>
        <time>2018-10-20T09:04:31Z</time>
      </trkpt>
      <trkpt lat="45.94934" lon="4.86148">
        <ele>273</ele>
        <time>2018-10-20T09:04:32Z</time>
      </trkpt>
      <trkpt lat="45.94937" lon="4.86151">
        <ele>273</ele>
        <time>2018-10-20T09:04:33Z</time>
      </trkpt>
      <trkpt lat="45.94941" lon="4.86157">
        <ele>273</ele>
        <time>2018-10-20T09:04:34Z</time>
      </trkpt>
      <trkpt lat="45.94945" lon="4.86162">
        <ele>273</ele>
        <time>2018-10-20T09:04:35Z</time>
      </trkpt>
      <trkpt lat="45.94948" lon="4.86167">
        <ele>273</ele>
        <time>2018-10-20T09:04:36Z</time>
      </trkpt>
      <trkpt lat="45.94952" lon="4.86172">
        <ele>273</ele>
        <time>2018-10-20T09:04:37Z</time>
      </trkpt>
      <trkpt lat="45.94959" lon="4.8618">
        <ele>272</ele>
        <time>2018-10-20T09:04:39Z</time>
      </trkpt>
      <trkpt lat="45.94962" lon="4.86184">
        <ele>272</ele>
        <time>2018-10-20T09:04:40Z</time>
      </trkpt>
      <trkpt lat="45.94966" lon="4.86187">
        <ele>272</ele>
        <time>2018-10-20T09:04:41Z</time>
      </trkpt>
      <trkpt lat="45.9497" lon="4.86193">
        <ele>272</ele>
        <time>2018-10-20T09:04:42Z</time>
      </trkpt>
      <trkpt lat="45.94973" lon="4.86198">
        <ele>272</ele>
        <time>2018-10-20T09:04:43Z</time>
      </trkpt>
      <trkpt lat="45.94977" lon="4.86203">
        <ele>272</ele>
        <time>2018-10-20T09:04:44Z</time>
      </trkpt>
      <trkpt lat="45.94982" lon="4.86208">
        <ele>272</ele>
        <time>2018-10-20T09:04:45Z</time>
      </trkpt>
      <trkpt lat="45.94985" lon="4.86213">
        <ele>272</ele>
        <time>2018-10-20T09:04:46Z</time>
      </trkpt>
      <trkpt lat="45.94989" lon="4.86219">
        <ele>272</ele>
        <time>2018-10-20T09:04:47Z</time>
      </trkpt>
      <trkpt lat="45.94993" lon="4.86224">
        <ele>272</ele>
        <time>2018-10-20T09:04:48Z</time>
      </trkpt>
      <trkpt lat="45.94998" lon="4.86229">
        <ele>272</ele>
        <time>2018-10-20T09:04:49Z</time>
      </trkpt>
      <trkpt lat="45.95002" lon="4.86235">
        <ele>272</ele>
        <time>2018-10-20T09:04:50Z</time>
      </trkpt>
      <trkpt lat="45.95007" lon="4.8624">
        <ele>272</ele>
        <time>2018-10-20T09:04:51Z</time>
      </trkpt>
      <trkpt lat="45.95011" lon="4.86245">
        <ele>272</ele>
        <time>2018-10-20T09:04:52Z</time>
      </trkpt>
      <trkpt lat="45.95016" lon="4.86251">
        <ele>272</ele>
        <time>2018-10-20T09:04:53Z</time>
      </trkpt>
      <trkpt lat="45.95019" lon="4.86257">
        <ele>271</ele>
        <time>2018-10-20T09:04:54Z</time>
      </trkpt>
      <trkpt lat="45.95024" lon="4.86261">
        <ele>271</ele>
        <time>2018-10-20T09:04:55Z</time>
      </trkpt>
      <trkpt lat="45.95028" lon="4.86265">
        <ele>271</ele>
        <time>2018-10-20T09:04:56Z</time>
      </trkpt>
      <trkpt lat="45.95033" lon="4.86272">
        <ele>271</ele>
        <time>2018-10-20T09:04:57Z</time>
      </trkpt>
      <trkpt lat="45.95037" lon="4.86276">
        <ele>271</ele>
        <time>2018-10-20T09:04:58Z</time>
      </trkpt>
      <trkpt lat="45.95042" lon="4.86282">
        <ele>271</ele>
        <time>2018-10-20T09:04:59Z</time>
      </trkpt>
      <trkpt lat="45.95046" lon="4.86288">
        <ele>271</ele>
        <time>2018-10-20T09:05:00Z</time>
      </trkpt>
      <trkpt lat="45.95051" lon="4.86294">
        <ele>271</ele>
        <time>2018-10-20T09:05:01Z</time>
      </trkpt>
      <trkpt lat="45.95055" lon="4.863">
        <ele>271</ele>
        <time>2018-10-20T09:05:02Z</time>
      </trkpt>
      <trkpt lat="45.95059" lon="4.86305">
        <ele>271</ele>
        <time>2018-10-20T09:05:03Z</time>
      </trkpt>
      <trkpt lat="45.95064" lon="4.86311">
        <ele>270</ele>
        <time>2018-10-20T09:05:04Z</time>
      </trkpt>
      <trkpt lat="45.95069" lon="4.86314">
        <ele>270</ele>
        <time>2018-10-20T09:05:05Z</time>
      </trkpt>
      <trkpt lat="45.95073" lon="4.8632">
        <ele>270</ele>
        <time>2018-10-20T09:05:06Z</time>
      </trkpt>
      <trkpt lat="45.95077" lon="4.86325">
        <ele>270</ele>
        <time>2018-10-20T09:05:07Z</time>
      </trkpt>
      <trkpt lat="45.95081" lon="4.86331">
        <ele>269</ele>
        <time>2018-10-20T09:05:08Z</time>
      </trkpt>
      <trkpt lat="45.95086" lon="4.86336">
        <ele>269</ele>
        <time>2018-10-20T09:05:09Z</time>
      </trkpt>
      <trkpt lat="45.95089" lon="4.86342">
        <ele>269</ele>
        <time>2018-10-20T09:05:10Z</time>
      </trkpt>
      <trkpt lat="45.95094" lon="4.86348">
        <ele>269</ele>
        <time>2018-10-20T09:05:11Z</time>
      </trkpt>
      <trkpt lat="45.95097" lon="4.86353">
        <ele>269</ele>
        <time>2018-10-20T09:05:12Z</time>
      </trkpt>
      <trkpt lat="45.95102" lon="4.86358">
        <ele>269</ele>
        <time>2018-10-20T09:05:13Z</time>
      </trkpt>
      <trkpt lat="45.95106" lon="4.86363">
        <ele>269</ele>
        <time>2018-10-20T09:05:14Z</time>
      </trkpt>
      <trkpt lat="45.95109" lon="4.86368">
        <ele>269</ele>
        <time>2018-10-20T09:05:15Z</time>
      </trkpt>
      <trkpt lat="45.95114" lon="4.86373">
        <ele>269</ele>
        <time>2018-10-20T09:05:16Z</time>
      </trkpt>
      <trkpt lat="45.95118" lon="4.86378">
        <ele>269</ele>
        <time>2018-10-20T09:05:17Z</time>
      </trkpt>
      <trkpt lat="45.95123" lon="4.86383">
        <ele>269</ele>
        <time>2018-10-20T09:05:18Z</time>
      </trkpt>
      <trkpt lat="45.95126" lon="4.86389">
        <ele>268</ele>
        <time>2018-10-20T09:05:19Z</time>
      </trkpt>
      <trkpt lat="45.95131" lon="4.86395">
        <ele>268</ele>
        <time>2018-10-20T09:05:20Z</time>
      </trkpt>
      <trkpt lat="45.95137" lon="4.86401">
        <ele>268</ele>
        <time>2018-10-20T09:05:21Z</time>
      </trkpt>
      <trkpt lat="45.9514" lon="4.86407">
        <ele>268</ele>
        <time>2018-10-20T09:05:22Z</time>
      </trkpt>
      <trkpt lat="45.95144" lon="4.86413">
        <ele>268</ele>
        <time>2018-10-20T09:05:23Z</time>
      </trkpt>
      <trkpt lat="45.95149" lon="4.86419">
        <ele>268</ele>
        <time>2018-10-20T09:05:24Z</time>
      </trkpt>
      <trkpt lat="45.95153" lon="4.86423">
        <ele>268</ele>
        <time>2018-10-20T09:05:25Z</time>
      </trkpt>
      <trkpt lat="45.95157" lon="4.86428">
        <ele>268</ele>
        <time>2018-10-20T09:05:26Z</time>
      </trkpt>
      <trkpt lat="45.95161" lon="4.86432">
        <ele>268</ele>
        <time>2018-10-20T09:05:27Z</time>
      </trkpt>
      <trkpt lat="45.95165" lon="4.86436">
        <ele>268</ele>
        <time>2018-10-20T09:05:28Z</time>
      </trkpt>
      <trkpt lat="45.95168" lon="4.8644">
        <ele>267</ele>
        <time>2018-10-20T09:05:29Z</time>
      </trkpt>
      <trkpt lat="45.95172" lon="4.86446">
        <ele>267</ele>
        <time>2018-10-20T09:05:30Z</time>
      </trkpt>
      <trkpt lat="45.95176" lon="4.86451">
        <ele>268</ele>
        <time>2018-10-20T09:05:31Z</time>
      </trkpt>
      <trkpt lat="45.95179" lon="4.86455">
        <ele>268</ele>
        <time>2018-10-20T09:05:32Z</time>
      </trkpt>
      <trkpt lat="45.95183" lon="4.8646">
        <ele>268</ele>
        <time>2018-10-20T09:05:33Z</time>
      </trkpt>
      <trkpt lat="45.95187" lon="4.86464">
        <ele>268</ele>
        <time>2018-10-20T09:05:34Z</time>
      </trkpt>
      <trkpt lat="45.95191" lon="4.86469">
        <ele>268</ele>
        <time>2018-10-20T09:05:35Z</time>
      </trkpt>
      <trkpt lat="45.95196" lon="4.86474">
        <ele>268</ele>
        <time>2018-10-20T09:05:36Z</time>
      </trkpt>
      <trkpt lat="45.952" lon="4.86479">
        <ele>268</ele>
        <time>2018-10-20T09:05:37Z</time>
      </trkpt>
      <trkpt lat="45.95205" lon="4.86484">
        <ele>268</ele>
        <time>2018-10-20T09:05:38Z</time>
      </trkpt>
      <trkpt lat="45.9521" lon="4.86489">
        <ele>268</ele>
        <time>2018-10-20T09:05:39Z</time>
      </trkpt>
      <trkpt lat="45.95214" lon="4.86495">
        <ele>268</ele>
        <time>2018-10-20T09:05:40Z</time>
      </trkpt>
      <trkpt lat="45.9522" lon="4.86501">
        <ele>268</ele>
        <time>2018-10-20T09:05:41Z</time>
      </trkpt>
      <trkpt lat="45.95224" lon="4.86506">
        <ele>268</ele>
        <time>2018-10-20T09:05:42Z</time>
      </trkpt>
      <trkpt lat="45.9523" lon="4.86511">
        <ele>268</ele>
        <time>2018-10-20T09:05:43Z</time>
      </trkpt>
      <trkpt lat="45.95236" lon="4.86516">
        <ele>268</ele>
        <time>2018-10-20T09:05:44Z</time>
      </trkpt>
      <trkpt lat="45.95241" lon="4.86523">
        <ele>268</ele>
        <time>2018-10-20T09:05:45Z</time>
      </trkpt>
      <trkpt lat="45.95246" lon="4.86529">
        <ele>268</ele>
        <time>2018-10-20T09:05:46Z</time>
      </trkpt>
      <trkpt lat="45.95252" lon="4.86533">
        <ele>267</ele>
        <time>2018-10-20T09:05:47Z</time>
      </trkpt>
      <trkpt lat="45.95256" lon="4.86537">
        <ele>267</ele>
        <time>2018-10-20T09:05:48Z</time>
      </trkpt>
      <trkpt lat="45.95263" lon="4.86546">
        <ele>267</ele>
        <time>2018-10-20T09:05:50Z</time>
      </trkpt>
      <trkpt lat="45.95266" lon="4.86552">
        <ele>267</ele>
        <time>2018-10-20T09:05:51Z</time>
      </trkpt>
      <trkpt lat="45.95267" lon="4.86559">
        <ele>267</ele>
        <time>2018-10-20T09:05:52Z</time>
      </trkpt>
      <trkpt lat="45.95267" lon="4.86566">
        <ele>267</ele>
        <time>2018-10-20T09:05:53Z</time>
      </trkpt>
      <trkpt lat="45.95264" lon="4.86572">
        <ele>267</ele>
        <time>2018-10-20T09:05:54Z</time>
      </trkpt>
      <trkpt lat="45.9526" lon="4.86576">
        <ele>267</ele>
        <time>2018-10-20T09:05:55Z</time>
      </trkpt>
      <trkpt lat="45.95256" lon="4.8658">
        <ele>268</ele>
        <time>2018-10-20T09:05:56Z</time>
      </trkpt>
      <trkpt lat="45.95247" lon="4.86582">
        <ele>268</ele>
        <time>2018-10-20T09:05:58Z</time>
      </trkpt>
      <trkpt lat="45.95244" lon="4.86582">
        <ele>268</ele>
        <time>2018-10-20T09:05:59Z</time>
      </trkpt>
      <trkpt lat="45.95236" lon="4.86578">
        <ele>268</ele>
        <time>2018-10-20T09:06:01Z</time>
      </trkpt>
      <trkpt lat="45.95232" lon="4.86577">
        <ele>268</ele>
        <time>2018-10-20T09:06:02Z</time>
      </trkpt>
      <trkpt lat="45.95224" lon="4.86575">
        <ele>268</ele>
        <time>2018-10-20T09:06:04Z</time>
      </trkpt>
      <trkpt lat="45.95219" lon="4.86577">
        <ele>268</ele>
        <time>2018-10-20T09:06:05Z</time>
      </trkpt>
      <trkpt lat="45.9521" lon="4.86574">
        <ele>268</ele>
        <time>2018-10-20T09:06:07Z</time>
      </trkpt>
      <trkpt lat="45.95206" lon="4.86574">
        <ele>268</ele>
        <time>2018-10-20T09:06:08Z</time>
      </trkpt>
      <trkpt lat="45.95199" lon="4.86576">
        <ele>268</ele>
        <time>2018-10-20T09:06:10Z</time>
      </trkpt>
      <trkpt lat="45.95196" lon="4.86576">
        <ele>268</ele>
        <time>2018-10-20T09:06:11Z</time>
      </trkpt>
      <trkpt lat="45.95188" lon="4.86578">
        <ele>269</ele>
        <time>2018-10-20T09:06:13Z</time>
      </trkpt>
      <trkpt lat="45.95184" lon="4.86578">
        <ele>269</ele>
        <time>2018-10-20T09:06:14Z</time>
      </trkpt>
      <trkpt lat="45.95176" lon="4.86578">
        <ele>269</ele>
        <time>2018-10-20T09:06:16Z</time>
      </trkpt>
      <trkpt lat="45.95172" lon="4.86577">
        <ele>269</ele>
        <time>2018-10-20T09:06:17Z</time>
      </trkpt>
      <trkpt lat="45.95163" lon="4.86578">
        <ele>269</ele>
        <time>2018-10-20T09:06:19Z</time>
      </trkpt>
      <trkpt lat="45.95159" lon="4.86578">
        <ele>269</ele>
        <time>2018-10-20T09:06:20Z</time>
      </trkpt>
      <trkpt lat="45.9515" lon="4.8658">
        <ele>270</ele>
        <time>2018-10-20T09:06:22Z</time>
      </trkpt>
      <trkpt lat="45.95146" lon="4.86581">
        <ele>270</ele>
        <time>2018-10-20T09:06:23Z</time>
      </trkpt>
      <trkpt lat="45.95137" lon="4.86583">
        <ele>270</ele>
        <time>2018-10-20T09:06:25Z</time>
      </trkpt>
      <trkpt lat="45.95133" lon="4.86583">
        <ele>270</ele>
        <time>2018-10-20T09:06:26Z</time>
      </trkpt>
      <trkpt lat="45.95124" lon="4.86584">
        <ele>270</ele>
        <time>2018-10-20T09:06:28Z</time>
      </trkpt>
      <trkpt lat="45.9512" lon="4.86584">
        <ele>270</ele>
        <time>2018-10-20T09:06:29Z</time>
      </trkpt>
      <trkpt lat="45.95112" lon="4.86585">
        <ele>271</ele>
        <time>2018-10-20T09:06:31Z</time>
      </trkpt>
      <trkpt lat="45.95108" lon="4.86586">
        <ele>271</ele>
        <time>2018-10-20T09:06:32Z</time>
      </trkpt>
      <trkpt lat="45.951" lon="4.86588">
        <ele>271</ele>
        <time>2018-10-20T09:06:34Z</time>
      </trkpt>
      <trkpt lat="45.95096" lon="4.86589">
        <ele>271</ele>
        <time>2018-10-20T09:06:35Z</time>
      </trkpt>
      <trkpt lat="45.95088" lon="4.8659">
        <ele>271</ele>
        <time>2018-10-20T09:06:37Z</time>
      </trkpt>
      <trkpt lat="45.95084" lon="4.86592">
        <ele>271</ele>
        <time>2018-10-20T09:06:38Z</time>
      </trkpt>
      <trkpt lat="45.95076" lon="4.86596">
        <ele>272</ele>
        <time>2018-10-20T09:06:40Z</time>
      </trkpt>
      <trkpt lat="45.95072" lon="4.86596">
        <ele>272</ele>
        <time>2018-10-20T09:06:41Z</time>
      </trkpt>
      <trkpt lat="45.95064" lon="4.86599">
        <ele>272</ele>
        <time>2018-10-20T09:06:43Z</time>
      </trkpt>
      <trkpt lat="45.9506" lon="4.866">
        <ele>272</ele>
        <time>2018-10-20T09:06:44Z</time>
      </trkpt>
      <trkpt lat="45.95051" lon="4.86601">
        <ele>272</ele>
        <time>2018-10-20T09:06:46Z</time>
      </trkpt>
      <trkpt lat="45.95047" lon="4.86602">
        <ele>272</ele>
        <time>2018-10-20T09:06:47Z</time>
      </trkpt>
      <trkpt lat="45.95039" lon="4.86606">
        <ele>273</ele>
        <time>2018-10-20T09:06:49Z</time>
      </trkpt>
      <trkpt lat="45.95035" lon="4.86607">
        <ele>273</ele>
        <time>2018-10-20T09:06:50Z</time>
      </trkpt>
      <trkpt lat="45.95027" lon="4.86609">
        <ele>273</ele>
        <time>2018-10-20T09:06:52Z</time>
      </trkpt>
      <trkpt lat="45.95023" lon="4.86611">
        <ele>273</ele>
        <time>2018-10-20T09:06:53Z</time>
      </trkpt>
      <trkpt lat="45.95015" lon="4.86613">
        <ele>273</ele>
        <time>2018-10-20T09:06:55Z</time>
      </trkpt>
      <trkpt lat="45.95011" lon="4.86614">
        <ele>273</ele>
        <time>2018-10-20T09:06:56Z</time>
      </trkpt>
      <trkpt lat="45.95003" lon="4.86615">
        <ele>273</ele>
        <time>2018-10-20T09:06:58Z</time>
      </trkpt>
      <trkpt lat="45.94999" lon="4.86616">
        <ele>275</ele>
        <time>2018-10-20T09:06:59Z</time>
      </trkpt>
      <trkpt lat="45.94991" lon="4.86617">
        <ele>275</ele>
        <time>2018-10-20T09:07:01Z</time>
      </trkpt>
      <trkpt lat="45.94986" lon="4.86617">
        <ele>275</ele>
        <time>2018-10-20T09:07:02Z</time>
      </trkpt>
      <trkpt lat="45.94978" lon="4.86619">
        <ele>275</ele>
        <time>2018-10-20T09:07:04Z</time>
      </trkpt>
      <trkpt lat="45.94974" lon="4.8662">
        <ele>275</ele>
        <time>2018-10-20T09:07:05Z</time>
      </trkpt>
      <trkpt lat="45.94965" lon="4.86625">
        <ele>275</ele>
        <time>2018-10-20T09:07:07Z</time>
      </trkpt>
      <trkpt lat="45.94962" lon="4.86629">
        <ele>275</ele>
        <time>2018-10-20T09:07:08Z</time>
      </trkpt>
      <trkpt lat="45.94959" lon="4.86635">
        <ele>275</ele>
        <time>2018-10-20T09:07:09Z</time>
      </trkpt>
      <trkpt lat="45.94956" lon="4.8664">
        <ele>276</ele>
        <time>2018-10-20T09:07:10Z</time>
      </trkpt>
      <trkpt lat="45.94953" lon="4.86646">
        <ele>276</ele>
        <time>2018-10-20T09:07:11Z</time>
      </trkpt>
      <trkpt lat="45.94951" lon="4.86652">
        <ele>276</ele>
        <time>2018-10-20T09:07:12Z</time>
      </trkpt>
      <trkpt lat="45.94949" lon="4.86659">
        <ele>276</ele>
        <time>2018-10-20T09:07:13Z</time>
      </trkpt>
      <trkpt lat="45.94949" lon="4.86666">
        <ele>276</ele>
        <time>2018-10-20T09:07:14Z</time>
      </trkpt>
      <trkpt lat="45.9495" lon="4.86678">
        <ele>276</ele>
        <time>2018-10-20T09:07:16Z</time>
      </trkpt>
      <trkpt lat="45.94952" lon="4.86686">
        <ele>275</ele>
        <time>2018-10-20T09:07:17Z</time>
      </trkpt>
      <trkpt lat="45.94952" lon="4.86694">
        <ele>275</ele>
        <time>2018-10-20T09:07:18Z</time>
      </trkpt>
      <trkpt lat="45.94954" lon="4.86701">
        <ele>275</ele>
        <time>2018-10-20T09:07:19Z</time>
      </trkpt>
      <trkpt lat="45.94954" lon="4.86708">
        <ele>275</ele>
        <time>2018-10-20T09:07:20Z</time>
      </trkpt>
      <trkpt lat="45.94956" lon="4.86715">
        <ele>275</ele>
        <time>2018-10-20T09:07:21Z</time>
      </trkpt>
      <trkpt lat="45.94958" lon="4.86722">
        <ele>275</ele>
        <time>2018-10-20T09:07:22Z</time>
      </trkpt>
      <trkpt lat="45.9496" lon="4.86728">
        <ele>275</ele>
        <time>2018-10-20T09:07:23Z</time>
      </trkpt>
      <trkpt lat="45.94963" lon="4.86734">
        <ele>275</ele>
        <time>2018-10-20T09:07:24Z</time>
      </trkpt>
      <trkpt lat="45.94966" lon="4.8674">
        <ele>275</ele>
        <time>2018-10-20T09:07:25Z</time>
      </trkpt>
      <trkpt lat="45.94968" lon="4.86745">
        <ele>275</ele>
        <time>2018-10-20T09:07:26Z</time>
      </trkpt>
      <trkpt lat="45.94971" lon="4.86751">
        <ele>275</ele>
        <time>2018-10-20T09:07:27Z</time>
      </trkpt>
      <trkpt lat="45.94976" lon="4.86761">
        <ele>275</ele>
        <time>2018-10-20T09:07:29Z</time>
      </trkpt>
      <trkpt lat="45.94978" lon="4.86765">
        <ele>275</ele>
        <time>2018-10-20T09:07:30Z</time>
      </trkpt>
      <trkpt lat="45.94985" lon="4.86773">
        <ele>275</ele>
        <time>2018-10-20T09:07:32Z</time>
      </trkpt>
      <trkpt lat="45.94988" lon="4.86777">
        <ele>275</ele>
        <time>2018-10-20T09:07:33Z</time>
      </trkpt>
      <trkpt lat="45.94993" lon="4.86785">
        <ele>275</ele>
        <time>2018-10-20T09:07:35Z</time>
      </trkpt>
      <trkpt lat="45.94994" lon="4.8679">
        <ele>275</ele>
        <time>2018-10-20T09:07:36Z</time>
      </trkpt>
      <trkpt lat="45.94999" lon="4.86799">
        <ele>276</ele>
        <time>2018-10-20T09:07:38Z</time>
      </trkpt>
      <trkpt lat="45.95002" lon="4.86803">
        <ele>275</ele>
        <time>2018-10-20T09:07:39Z</time>
      </trkpt>
      <trkpt lat="45.95005" lon="4.86808">
        <ele>275</ele>
        <time>2018-10-20T09:07:40Z</time>
      </trkpt>
      <trkpt lat="45.95008" lon="4.86814">
        <ele>275</ele>
        <time>2018-10-20T09:07:41Z</time>
      </trkpt>
      <trkpt lat="45.9501" lon="4.86821">
        <ele>275</ele>
        <time>2018-10-20T09:07:42Z</time>
      </trkpt>
      <trkpt lat="45.95013" lon="4.86827">
        <ele>275</ele>
        <time>2018-10-20T09:07:43Z</time>
      </trkpt>
      <trkpt lat="45.95015" lon="4.86834">
        <ele>276</ele>
        <time>2018-10-20T09:07:44Z</time>
      </trkpt>
      <trkpt lat="45.95018" lon="4.86841">
        <ele>275</ele>
        <time>2018-10-20T09:07:45Z</time>
      </trkpt>
      <trkpt lat="45.9502" lon="4.86847">
        <ele>275</ele>
        <time>2018-10-20T09:07:46Z</time>
      </trkpt>
      <trkpt lat="45.95022" lon="4.86853">
        <ele>275</ele>
        <time>2018-10-20T09:07:47Z</time>
      </trkpt>
      <trkpt lat="45.95025" lon="4.86863">
        <ele>275</ele>
        <time>2018-10-20T09:07:48Z</time>
      </trkpt>
      <trkpt lat="45.95027" lon="4.86868">
        <ele>275</ele>
        <time>2018-10-20T09:07:49Z</time>
      </trkpt>
      <trkpt lat="45.95029" lon="4.86875">
        <ele>275</ele>
        <time>2018-10-20T09:07:50Z</time>
      </trkpt>
      <trkpt lat="45.95032" lon="4.86881">
        <ele>275</ele>
        <time>2018-10-20T09:07:51Z</time>
      </trkpt>
      <trkpt lat="45.95034" lon="4.86888">
        <ele>275</ele>
        <time>2018-10-20T09:07:52Z</time>
      </trkpt>
      <trkpt lat="45.95036" lon="4.86895">
        <ele>275</ele>
        <time>2018-10-20T09:07:53Z</time>
      </trkpt>
      <trkpt lat="45.95038" lon="4.86902">
        <ele>275</ele>
        <time>2018-10-20T09:07:54Z</time>
      </trkpt>
      <trkpt lat="45.9504" lon="4.86909">
        <ele>275</ele>
        <time>2018-10-20T09:07:55Z</time>
      </trkpt>
      <trkpt lat="45.95043" lon="4.86917">
        <ele>276</ele>
        <time>2018-10-20T09:07:56Z</time>
      </trkpt>
      <trkpt lat="45.95045" lon="4.86924">
        <ele>276</ele>
        <time>2018-10-20T09:07:57Z</time>
      </trkpt>
      <trkpt lat="45.95047" lon="4.86935">
        <ele>276</ele>
        <time>2018-10-20T09:07:59Z</time>
      </trkpt>
      <trkpt lat="45.9505" lon="4.86943">
        <ele>276</ele>
        <time>2018-10-20T09:08:00Z</time>
      </trkpt>
      <trkpt lat="45.9505" lon="4.86955">
        <ele>276</ele>
        <time>2018-10-20T09:08:02Z</time>
      </trkpt>
      <trkpt lat="45.95052" lon="4.86959">
        <ele>276</ele>
        <time>2018-10-20T09:08:03Z</time>
      </trkpt>
      <trkpt lat="45.95054" lon="4.86969">
        <ele>276</ele>
        <time>2018-10-20T09:08:05Z</time>
      </trkpt>
      <trkpt lat="45.95056" lon="4.86976">
        <ele>276</ele>
        <time>2018-10-20T09:08:06Z</time>
      </trkpt>
      <trkpt lat="45.95058" lon="4.86984">
        <ele>276</ele>
        <time>2018-10-20T09:08:08Z</time>
      </trkpt>
      <trkpt lat="45.9506" lon="4.86991">
        <ele>276</ele>
        <time>2018-10-20T09:08:09Z</time>
      </trkpt>
      <trkpt lat="45.95063" lon="4.86998">
        <ele>277</ele>
        <time>2018-10-20T09:08:10Z</time>
      </trkpt>
      <trkpt lat="45.95066" lon="4.87003">
        <ele>277</ele>
        <time>2018-10-20T09:08:11Z</time>
      </trkpt>
      <trkpt lat="45.95071" lon="4.87013">
        <ele>277</ele>
        <time>2018-10-20T09:08:13Z</time>
      </trkpt>
      <trkpt lat="45.95074" lon="4.87018">
        <ele>277</ele>
        <time>2018-10-20T09:08:14Z</time>
      </trkpt>
      <trkpt lat="45.95078" lon="4.87027">
        <ele>277</ele>
        <time>2018-10-20T09:08:16Z</time>
      </trkpt>
      <trkpt lat="45.95081" lon="4.87032">
        <ele>277</ele>
        <time>2018-10-20T09:08:17Z</time>
      </trkpt>
      <trkpt lat="45.95084" lon="4.87037">
        <ele>277</ele>
        <time>2018-10-20T09:08:18Z</time>
      </trkpt>
      <trkpt lat="45.95087" lon="4.87041">
        <ele>277</ele>
        <time>2018-10-20T09:08:19Z</time>
      </trkpt>
      <trkpt lat="45.95093" lon="4.87051">
        <ele>277</ele>
        <time>2018-10-20T09:08:21Z</time>
      </trkpt>
      <trkpt lat="45.95095" lon="4.87055">
        <ele>277</ele>
        <time>2018-10-20T09:08:22Z</time>
      </trkpt>
      <trkpt lat="45.95098" lon="4.87063">
        <ele>277</ele>
        <time>2018-10-20T09:08:23Z</time>
      </trkpt>
      <trkpt lat="45.95101" lon="4.87069">
        <ele>277</ele>
        <time>2018-10-20T09:08:24Z</time>
      </trkpt>
      <trkpt lat="45.95103" lon="4.87075">
        <ele>277</ele>
        <time>2018-10-20T09:08:25Z</time>
      </trkpt>
      <trkpt lat="45.95105" lon="4.87083">
        <ele>277</ele>
        <time>2018-10-20T09:08:26Z</time>
      </trkpt>
      <trkpt lat="45.95107" lon="4.87093">
        <ele>277</ele>
        <time>2018-10-20T09:08:28Z</time>
      </trkpt>
      <trkpt lat="45.9511" lon="4.87101">
        <ele>277</ele>
        <time>2018-10-20T09:08:29Z</time>
      </trkpt>
      <trkpt lat="45.95112" lon="4.87107">
        <ele>277</ele>
        <time>2018-10-20T09:08:30Z</time>
      </trkpt>
      <trkpt lat="45.95114" lon="4.87113">
        <ele>277</ele>
        <time>2018-10-20T09:08:31Z</time>
      </trkpt>
      <trkpt lat="45.95118" lon="4.87121">
        <ele>276</ele>
        <time>2018-10-20T09:08:32Z</time>
      </trkpt>
      <trkpt lat="45.95118" lon="4.87127">
        <ele>276</ele>
        <time>2018-10-20T09:08:33Z</time>
      </trkpt>
      <trkpt lat="45.95119" lon="4.87134">
        <ele>276</ele>
        <time>2018-10-20T09:08:34Z</time>
      </trkpt>
      <trkpt lat="45.95119" lon="4.8714">
        <ele>276</ele>
        <time>2018-10-20T09:08:35Z</time>
      </trkpt>
      <trkpt lat="45.9512" lon="4.87146">
        <ele>276</ele>
        <time>2018-10-20T09:08:36Z</time>
      </trkpt>
      <trkpt lat="45.95125" lon="4.87153">
        <ele>276</ele>
        <time>2018-10-20T09:08:37Z</time>
      </trkpt>
      <trkpt lat="45.95126" lon="4.87161">
        <ele>276</ele>
        <time>2018-10-20T09:08:38Z</time>
      </trkpt>
      <trkpt lat="45.95133" lon="4.87172">
        <ele>276</ele>
        <time>2018-10-20T09:08:39Z</time>
      </trkpt>
      <trkpt lat="45.95134" lon="4.87179">
        <ele>276</ele>
        <time>2018-10-20T09:08:40Z</time>
      </trkpt>
      <trkpt lat="45.95137" lon="4.87187">
        <ele>276</ele>
        <time>2018-10-20T09:08:41Z</time>
      </trkpt>
      <trkpt lat="45.95137" lon="4.87192">
        <ele>276</ele>
        <time>2018-10-20T09:08:42Z</time>
      </trkpt>
      <trkpt lat="45.95139" lon="4.87201">
        <ele>276</ele>
        <time>2018-10-20T09:08:43Z</time>
      </trkpt>
      <trkpt lat="45.95139" lon="4.87208">
        <ele>276</ele>
        <time>2018-10-20T09:08:44Z</time>
      </trkpt>
      <trkpt lat="45.95142" lon="4.87218">
        <ele>276</ele>
        <time>2018-10-20T09:08:45Z</time>
      </trkpt>
      <trkpt lat="45.95145" lon="4.8723">
        <ele>275</ele>
        <time>2018-10-20T09:08:46Z</time>
      </trkpt>
      <trkpt lat="45.95145" lon="4.87237">
        <ele>275</ele>
        <time>2018-10-20T09:08:47Z</time>
      </trkpt>
      <trkpt lat="45.95147" lon="4.87246">
        <ele>275</ele>
        <time>2018-10-20T09:08:48Z</time>
      </trkpt>
      <trkpt lat="45.95148" lon="4.87254">
        <ele>274</ele>
        <time>2018-10-20T09:08:49Z</time>
      </trkpt>
      <trkpt lat="45.95149" lon="4.87262">
        <ele>274</ele>
        <time>2018-10-20T09:08:50Z</time>
      </trkpt>
      <trkpt lat="45.95151" lon="4.87272">
        <ele>274</ele>
        <time>2018-10-20T09:08:51Z</time>
      </trkpt>
      <trkpt lat="45.95155" lon="4.87283">
        <ele>274</ele>
        <time>2018-10-20T09:08:52Z</time>
      </trkpt>
      <trkpt lat="45.95157" lon="4.87293">
        <ele>274</ele>
        <time>2018-10-20T09:08:53Z</time>
      </trkpt>
      <trkpt lat="45.95161" lon="4.87303">
        <ele>273</ele>
        <time>2018-10-20T09:08:54Z</time>
      </trkpt>
      <trkpt lat="45.95162" lon="4.87311">
        <ele>273</ele>
        <time>2018-10-20T09:08:55Z</time>
      </trkpt>
      <trkpt lat="45.95164" lon="4.8732">
        <ele>272</ele>
        <time>2018-10-20T09:08:56Z</time>
      </trkpt>
      <trkpt lat="45.95168" lon="4.87332">
        <ele>271</ele>
        <time>2018-10-20T09:08:57Z</time>
      </trkpt>
      <trkpt lat="45.95171" lon="4.87342">
        <ele>271</ele>
        <time>2018-10-20T09:08:58Z</time>
      </trkpt>
      <trkpt lat="45.95172" lon="4.87352">
        <ele>271</ele>
        <time>2018-10-20T09:08:59Z</time>
      </trkpt>
      <trkpt lat="45.95173" lon="4.87359">
        <ele>271</ele>
        <time>2018-10-20T09:09:00Z</time>
      </trkpt>
      <trkpt lat="45.95176" lon="4.87367">
        <ele>271</ele>
        <time>2018-10-20T09:09:01Z</time>
      </trkpt>
      <trkpt lat="45.95177" lon="4.87375">
        <ele>271</ele>
        <time>2018-10-20T09:09:02Z</time>
      </trkpt>
      <trkpt lat="45.95178" lon="4.87384">
        <ele>271</ele>
        <time>2018-10-20T09:09:03Z</time>
      </trkpt>
      <trkpt lat="45.9518" lon="4.87391">
        <ele>271</ele>
        <time>2018-10-20T09:09:04Z</time>
      </trkpt>
      <trkpt lat="45.95181" lon="4.87398">
        <ele>271</ele>
        <time>2018-10-20T09:09:05Z</time>
      </trkpt>
      <trkpt lat="45.95182" lon="4.87405">
        <ele>271</ele>
        <time>2018-10-20T09:09:06Z</time>
      </trkpt>
      <trkpt lat="45.95183" lon="4.87412">
        <ele>271</ele>
        <time>2018-10-20T09:09:07Z</time>
      </trkpt>
      <trkpt lat="45.95183" lon="4.87419">
        <ele>271</ele>
        <time>2018-10-20T09:09:08Z</time>
      </trkpt>
      <trkpt lat="45.95183" lon="4.87426">
        <ele>271</ele>
        <time>2018-10-20T09:09:09Z</time>
      </trkpt>
      <trkpt lat="45.95185" lon="4.87434">
        <ele>271</ele>
        <time>2018-10-20T09:09:10Z</time>
      </trkpt>
      <trkpt lat="45.95186" lon="4.8744">
        <ele>272</ele>
        <time>2018-10-20T09:09:11Z</time>
      </trkpt>
      <trkpt lat="45.95189" lon="4.87448">
        <ele>272</ele>
        <time>2018-10-20T09:09:12Z</time>
      </trkpt>
      <trkpt lat="45.95191" lon="4.87455">
        <ele>272</ele>
        <time>2018-10-20T09:09:13Z</time>
      </trkpt>
      <trkpt lat="45.95193" lon="4.87462">
        <ele>272</ele>
        <time>2018-10-20T09:09:14Z</time>
      </trkpt>
      <trkpt lat="45.95194" lon="4.87468">
        <ele>272</ele>
        <time>2018-10-20T09:09:15Z</time>
      </trkpt>
      <trkpt lat="45.95195" lon="4.87474">
        <ele>272</ele>
        <time>2018-10-20T09:09:16Z</time>
      </trkpt>
      <trkpt lat="45.95197" lon="4.87481">
        <ele>272</ele>
        <time>2018-10-20T09:09:17Z</time>
      </trkpt>
      <trkpt lat="45.952" lon="4.87493">
        <ele>272</ele>
        <time>2018-10-20T09:09:19Z</time>
      </trkpt>
      <trkpt lat="45.95201" lon="4.875">
        <ele>273</ele>
        <time>2018-10-20T09:09:20Z</time>
      </trkpt>
      <trkpt lat="45.95201" lon="4.87508">
        <ele>273</ele>
        <time>2018-10-20T09:09:21Z</time>
      </trkpt>
      <trkpt lat="45.95203" lon="4.87515">
        <ele>273</ele>
        <time>2018-10-20T09:09:22Z</time>
      </trkpt>
      <trkpt lat="45.95204" lon="4.87522">
        <ele>274</ele>
        <time>2018-10-20T09:09:23Z</time>
      </trkpt>
      <trkpt lat="45.95205" lon="4.87528">
        <ele>274</ele>
        <time>2018-10-20T09:09:24Z</time>
      </trkpt>
      <trkpt lat="45.95207" lon="4.87536">
        <ele>274</ele>
        <time>2018-10-20T09:09:25Z</time>
      </trkpt>
      <trkpt lat="45.95208" lon="4.87544">
        <ele>274</ele>
        <time>2018-10-20T09:09:26Z</time>
      </trkpt>
      <trkpt lat="45.9521" lon="4.87554">
        <ele>274</ele>
        <time>2018-10-20T09:09:28Z</time>
      </trkpt>
      <trkpt lat="45.9521" lon="4.87563">
        <ele>274</ele>
        <time>2018-10-20T09:09:29Z</time>
      </trkpt>
      <trkpt lat="45.95212" lon="4.87569">
        <ele>274</ele>
        <time>2018-10-20T09:09:30Z</time>
      </trkpt>
      <trkpt lat="45.95212" lon="4.87575">
        <ele>274</ele>
        <time>2018-10-20T09:09:31Z</time>
      </trkpt>
      <trkpt lat="45.95215" lon="4.87586">
        <ele>276</ele>
        <time>2018-10-20T09:09:33Z</time>
      </trkpt>
      <trkpt lat="45.95215" lon="4.87594">
        <ele>276</ele>
        <time>2018-10-20T09:09:34Z</time>
      </trkpt>
      <trkpt lat="45.95216" lon="4.87604">
        <ele>276</ele>
        <time>2018-10-20T09:09:36Z</time>
      </trkpt>
      <trkpt lat="45.95217" lon="4.87608">
        <ele>276</ele>
        <time>2018-10-20T09:09:37Z</time>
      </trkpt>
      <trkpt lat="45.95217" lon="4.87617">
        <ele>276</ele>
        <time>2018-10-20T09:09:40Z</time>
      </trkpt>
      <trkpt lat="45.95218" lon="4.87621">
        <ele>276</ele>
        <time>2018-10-20T09:09:41Z</time>
      </trkpt>
      <trkpt lat="45.95218" lon="4.87625">
        <ele>276</ele>
        <time>2018-10-20T09:09:42Z</time>
      </trkpt>
      <trkpt lat="45.95219" lon="4.87638">
        <ele>276</ele>
        <time>2018-10-20T09:09:43Z</time>
      </trkpt>
      <trkpt lat="45.9522" lon="4.87646">
        <ele>276</ele>
        <time>2018-10-20T09:09:45Z</time>
      </trkpt>
      <trkpt lat="45.95221" lon="4.87653">
        <ele>276</ele>
        <time>2018-10-20T09:09:46Z</time>
      </trkpt>
      <trkpt lat="45.95222" lon="4.87661">
        <ele>276</ele>
        <time>2018-10-20T09:09:48Z</time>
      </trkpt>
      <trkpt lat="45.95223" lon="4.87668">
        <ele>278</ele>
        <time>2018-10-20T09:09:49Z</time>
      </trkpt>
      <trkpt lat="45.95223" lon="4.87676">
        <ele>278</ele>
        <time>2018-10-20T09:09:52Z</time>
      </trkpt>
      <trkpt lat="45.95224" lon="4.87686">
        <ele>279</ele>
        <time>2018-10-20T09:09:53Z</time>
      </trkpt>
      <trkpt lat="45.95225" lon="4.87696">
        <ele>279</ele>
        <time>2018-10-20T09:09:57Z</time>
      </trkpt>
      <trkpt lat="45.95227" lon="4.87706">
        <ele>279</ele>
        <time>2018-10-20T09:09:58Z</time>
      </trkpt>
      <trkpt lat="45.95229" lon="4.87715">
        <ele>279</ele>
        <time>2018-10-20T09:10:01Z</time>
      </trkpt>
      <trkpt lat="45.95232" lon="4.87728">
        <ele>280</ele>
        <time>2018-10-20T09:10:02Z</time>
      </trkpt>
      <trkpt lat="45.95234" lon="4.87734">
        <ele>280</ele>
        <time>2018-10-20T09:10:03Z</time>
      </trkpt>
      <trkpt lat="45.95235" lon="4.8774">
        <ele>280</ele>
        <time>2018-10-20T09:10:04Z</time>
      </trkpt>
      <trkpt lat="45.95238" lon="4.87753">
        <ele>281</ele>
        <time>2018-10-20T09:10:06Z</time>
      </trkpt>
      <trkpt lat="45.95239" lon="4.87758">
        <ele>281</ele>
        <time>2018-10-20T09:10:07Z</time>
      </trkpt>
      <trkpt lat="45.95242" lon="4.8777">
        <ele>282</ele>
        <time>2018-10-20T09:10:09Z</time>
      </trkpt>
      <trkpt lat="45.95242" lon="4.87777">
        <ele>282</ele>
        <time>2018-10-20T09:10:10Z</time>
      </trkpt>
      <trkpt lat="45.95243" lon="4.8778">
        <ele>282</ele>
        <time>2018-10-20T09:10:11Z</time>
      </trkpt>
      <trkpt lat="45.95247" lon="4.87791">
        <ele>282</ele>
        <time>2018-10-20T09:10:12Z</time>
      </trkpt>
      <trkpt lat="45.95248" lon="4.87802">
        <ele>282</ele>
        <time>2018-10-20T09:10:14Z</time>
      </trkpt>
      <trkpt lat="45.95249" lon="4.87804">
        <ele>282</ele>
        <time>2018-10-20T09:10:15Z</time>
      </trkpt>
      <trkpt lat="45.95249" lon="4.87814">
        <ele>282</ele>
        <time>2018-10-20T09:10:17Z</time>
      </trkpt>
      <trkpt lat="45.95251" lon="4.87821">
        <ele>281</ele>
        <time>2018-10-20T09:10:18Z</time>
      </trkpt>
      <trkpt lat="45.95251" lon="4.87823">
        <ele>281</ele>
        <time>2018-10-20T09:10:19Z</time>
      </trkpt>
      <trkpt lat="45.95252" lon="4.87833">
        <ele>282</ele>
        <time>2018-10-20T09:10:20Z</time>
      </trkpt>
      <trkpt lat="45.95252" lon="4.87844">
        <ele>281</ele>
        <time>2018-10-20T09:10:23Z</time>
      </trkpt>
      <trkpt lat="45.95253" lon="4.87853">
        <ele>281</ele>
        <time>2018-10-20T09:10:24Z</time>
      </trkpt>
      <trkpt lat="45.95256" lon="4.87864">
        <ele>281</ele>
        <time>2018-10-20T09:10:26Z</time>
      </trkpt>
      <trkpt lat="45.95257" lon="4.8787">
        <ele>281</ele>
        <time>2018-10-20T09:10:27Z</time>
      </trkpt>
      <trkpt lat="45.9526" lon="4.87881">
        <ele>281</ele>
        <time>2018-10-20T09:10:29Z</time>
      </trkpt>
      <trkpt lat="45.95261" lon="4.87886">
        <ele>281</ele>
        <time>2018-10-20T09:10:30Z</time>
      </trkpt>
      <trkpt lat="45.95263" lon="4.87894">
        <ele>281</ele>
        <time>2018-10-20T09:10:32Z</time>
      </trkpt>
      <trkpt lat="45.95264" lon="4.87902">
        <ele>281</ele>
        <time>2018-10-20T09:10:33Z</time>
      </trkpt>
      <trkpt lat="45.95264" lon="4.87911">
        <ele>281</ele>
        <time>2018-10-20T09:10:35Z</time>
      </trkpt>
      <trkpt lat="45.95265" lon="4.8792">
        <ele>281</ele>
        <time>2018-10-20T09:10:36Z</time>
      </trkpt>
      <trkpt lat="45.95264" lon="4.87928">
        <ele>281</ele>
        <time>2018-10-20T09:10:38Z</time>
      </trkpt>
      <trkpt lat="45.95263" lon="4.87937">
        <ele>280</ele>
        <time>2018-10-20T09:10:39Z</time>
      </trkpt>
      <trkpt lat="45.95262" lon="4.87946">
        <ele>280</ele>
        <time>2018-10-20T09:10:41Z</time>
      </trkpt>
      <trkpt lat="45.9526" lon="4.87954">
        <ele>280</ele>
        <time>2018-10-20T09:10:42Z</time>
      </trkpt>
      <trkpt lat="45.95258" lon="4.87959">
        <ele>280</ele>
        <time>2018-10-20T09:10:43Z</time>
      </trkpt>
      <trkpt lat="45.95256" lon="4.87966">
        <ele>280</ele>
        <time>2018-10-20T09:10:44Z</time>
      </trkpt>
      <trkpt lat="45.95253" lon="4.87971">
        <ele>280</ele>
        <time>2018-10-20T09:10:45Z</time>
      </trkpt>
      <trkpt lat="45.9525" lon="4.87976">
        <ele>282</ele>
        <time>2018-10-20T09:10:46Z</time>
      </trkpt>
      <trkpt lat="45.95246" lon="4.87981">
        <ele>281</ele>
        <time>2018-10-20T09:10:47Z</time>
      </trkpt>
      <trkpt lat="45.95243" lon="4.87985">
        <ele>281</ele>
        <time>2018-10-20T09:10:48Z</time>
      </trkpt>
      <trkpt lat="45.95237" lon="4.87994">
        <ele>281</ele>
        <time>2018-10-20T09:10:50Z</time>
      </trkpt>
      <trkpt lat="45.95234" lon="4.87998">
        <ele>281</ele>
        <time>2018-10-20T09:10:51Z</time>
      </trkpt>
      <trkpt lat="45.95231" lon="4.88003">
        <ele>280</ele>
        <time>2018-10-20T09:10:52Z</time>
      </trkpt>
      <trkpt lat="45.95227" lon="4.88008">
        <ele>281</ele>
        <time>2018-10-20T09:10:53Z</time>
      </trkpt>
      <trkpt lat="45.95221" lon="4.88016">
        <ele>281</ele>
        <time>2018-10-20T09:10:55Z</time>
      </trkpt>
      <trkpt lat="45.95218" lon="4.88021">
        <ele>281</ele>
        <time>2018-10-20T09:10:56Z</time>
      </trkpt>
      <trkpt lat="45.95212" lon="4.8803">
        <ele>281</ele>
        <time>2018-10-20T09:10:58Z</time>
      </trkpt>
      <trkpt lat="45.9521" lon="4.88035">
        <ele>281</ele>
        <time>2018-10-20T09:10:59Z</time>
      </trkpt>
      <trkpt lat="45.95205" lon="4.88044">
        <ele>281</ele>
        <time>2018-10-20T09:11:01Z</time>
      </trkpt>
      <trkpt lat="45.95203" lon="4.8805">
        <ele>281</ele>
        <time>2018-10-20T09:11:02Z</time>
      </trkpt>
      <trkpt lat="45.95201" lon="4.88056">
        <ele>281</ele>
        <time>2018-10-20T09:11:03Z</time>
      </trkpt>
      <trkpt lat="45.952" lon="4.88063">
        <ele>281</ele>
        <time>2018-10-20T09:11:04Z</time>
      </trkpt>
      <trkpt lat="45.95197" lon="4.88071">
        <ele>281</ele>
        <time>2018-10-20T09:11:05Z</time>
      </trkpt>
      <trkpt lat="45.95197" lon="4.88077">
        <ele>281</ele>
        <time>2018-10-20T09:11:06Z</time>
      </trkpt>
      <trkpt lat="45.95194" lon="4.88084">
        <ele>282</ele>
        <time>2018-10-20T09:11:07Z</time>
      </trkpt>
      <trkpt lat="45.95193" lon="4.88092">
        <ele>282</ele>
        <time>2018-10-20T09:11:08Z</time>
      </trkpt>
      <trkpt lat="45.95191" lon="4.881">
        <ele>282</ele>
        <time>2018-10-20T09:11:09Z</time>
      </trkpt>
      <trkpt lat="45.95189" lon="4.88106">
        <ele>282</ele>
        <time>2018-10-20T09:11:10Z</time>
      </trkpt>
      <trkpt lat="45.95187" lon="4.88119">
        <ele>282</ele>
        <time>2018-10-20T09:11:12Z</time>
      </trkpt>
      <trkpt lat="45.95185" lon="4.88125">
        <ele>282</ele>
        <time>2018-10-20T09:11:13Z</time>
      </trkpt>
      <trkpt lat="45.95182" lon="4.88135">
        <ele>282</ele>
        <time>2018-10-20T09:11:16Z</time>
      </trkpt>
      <trkpt lat="45.95181" lon="4.88143">
        <ele>283</ele>
        <time>2018-10-20T09:11:17Z</time>
      </trkpt>
      <trkpt lat="45.95181" lon="4.88151">
        <ele>283</ele>
        <time>2018-10-20T09:11:19Z</time>
      </trkpt>
      <trkpt lat="45.95179" lon="4.88159">
        <ele>284</ele>
        <time>2018-10-20T09:11:20Z</time>
      </trkpt>
      <trkpt lat="45.95178" lon="4.88171">
        <ele>285</ele>
        <time>2018-10-20T09:11:22Z</time>
      </trkpt>
      <trkpt lat="45.95176" lon="4.88176">
        <ele>285</ele>
        <time>2018-10-20T09:11:23Z</time>
      </trkpt>
      <trkpt lat="45.95171" lon="4.88182">
        <ele>285</ele>
        <time>2018-10-20T09:11:25Z</time>
      </trkpt>
      <trkpt lat="45.95166" lon="4.88185">
        <ele>286</ele>
        <time>2018-10-20T09:11:26Z</time>
      </trkpt>
      <trkpt lat="45.95158" lon="4.88186">
        <ele>286</ele>
        <time>2018-10-20T09:11:29Z</time>
      </trkpt>
      <trkpt lat="45.9515" lon="4.88188">
        <ele>286</ele>
        <time>2018-10-20T09:11:30Z</time>
      </trkpt>
      <trkpt lat="45.95143" lon="4.88192">
        <ele>286</ele>
        <time>2018-10-20T09:11:32Z</time>
      </trkpt>
      <trkpt lat="45.95141" lon="4.88194">
        <ele>286</ele>
        <time>2018-10-20T09:11:33Z</time>
      </trkpt>
      <trkpt lat="45.95135" lon="4.882">
        <ele>287</ele>
        <time>2018-10-20T09:11:36Z</time>
      </trkpt>
      <trkpt lat="45.95133" lon="4.88203">
        <ele>287</ele>
        <time>2018-10-20T09:11:37Z</time>
      </trkpt>
      <trkpt lat="45.95129" lon="4.88209">
        <ele>287</ele>
        <time>2018-10-20T09:11:39Z</time>
      </trkpt>
      <trkpt lat="45.95123" lon="4.88219">
        <ele>287</ele>
        <time>2018-10-20T09:11:40Z</time>
      </trkpt>
      <trkpt lat="45.95119" lon="4.88227">
        <ele>287</ele>
        <time>2018-10-20T09:11:42Z</time>
      </trkpt>
      <trkpt lat="45.95118" lon="4.88234">
        <ele>287</ele>
        <time>2018-10-20T09:11:43Z</time>
      </trkpt>
      <trkpt lat="45.9512" lon="4.88242">
        <ele>287</ele>
        <time>2018-10-20T09:11:45Z</time>
      </trkpt>
      <trkpt lat="45.95121" lon="4.88247">
        <ele>287</ele>
        <time>2018-10-20T09:11:46Z</time>
      </trkpt>
      <trkpt lat="45.95124" lon="4.88259">
        <ele>289</ele>
        <time>2018-10-20T09:11:48Z</time>
      </trkpt>
      <trkpt lat="45.95124" lon="4.88261">
        <ele>289</ele>
        <time>2018-10-20T09:11:49Z</time>
      </trkpt>
      <trkpt lat="45.95129" lon="4.88271">
        <ele>289</ele>
        <time>2018-10-20T09:11:50Z</time>
      </trkpt>
      <trkpt lat="45.9513" lon="4.88276">
        <ele>289</ele>
        <time>2018-10-20T09:11:51Z</time>
      </trkpt>
      <trkpt lat="45.9513" lon="4.88287">
        <ele>289</ele>
        <time>2018-10-20T09:11:53Z</time>
      </trkpt>
      <trkpt lat="45.9513" lon="4.88292">
        <ele>289</ele>
        <time>2018-10-20T09:11:54Z</time>
      </trkpt>
      <trkpt lat="45.95128" lon="4.88303">
        <ele>289</ele>
        <time>2018-10-20T09:11:56Z</time>
      </trkpt>
      <trkpt lat="45.95127" lon="4.88306">
        <ele>289</ele>
        <time>2018-10-20T09:11:57Z</time>
      </trkpt>
      <trkpt lat="45.95126" lon="4.88311">
        <ele>289</ele>
        <time>2018-10-20T09:11:59Z</time>
      </trkpt>
      <trkpt lat="45.95124" lon="4.88321">
        <ele>289</ele>
        <time>2018-10-20T09:12:00Z</time>
      </trkpt>
      <trkpt lat="45.95122" lon="4.88331">
        <ele>289</ele>
        <time>2018-10-20T09:12:03Z</time>
      </trkpt>
      <trkpt lat="45.95121" lon="4.88335">
        <ele>290</ele>
        <time>2018-10-20T09:12:04Z</time>
      </trkpt>
      <trkpt lat="45.95119" lon="4.88345">
        <ele>290</ele>
        <time>2018-10-20T09:12:07Z</time>
      </trkpt>
      <trkpt lat="45.95119" lon="4.88348">
        <ele>290</ele>
        <time>2018-10-20T09:12:08Z</time>
      </trkpt>
      <trkpt lat="45.95117" lon="4.88356">
        <ele>290</ele>
        <time>2018-10-20T09:12:10Z</time>
      </trkpt>
      <trkpt lat="45.95116" lon="4.88361">
        <ele>290</ele>
        <time>2018-10-20T09:12:11Z</time>
      </trkpt>
      <trkpt lat="45.95115" lon="4.88367">
        <ele>290</ele>
        <time>2018-10-20T09:12:12Z</time>
      </trkpt>
      <trkpt lat="45.95114" lon="4.88382">
        <ele>291</ele>
        <time>2018-10-20T09:12:13Z</time>
      </trkpt>
      <trkpt lat="45.95112" lon="4.88392">
        <ele>291</ele>
        <time>2018-10-20T09:12:15Z</time>
      </trkpt>
      <trkpt lat="45.95111" lon="4.88398">
        <ele>291</ele>
        <time>2018-10-20T09:12:16Z</time>
      </trkpt>
      <trkpt lat="45.9511" lon="4.88409">
        <ele>291</ele>
        <time>2018-10-20T09:12:18Z</time>
      </trkpt>
      <trkpt lat="45.95109" lon="4.88415">
        <ele>291</ele>
        <time>2018-10-20T09:12:19Z</time>
      </trkpt>
      <trkpt lat="45.95109" lon="4.88426">
        <ele>291</ele>
        <time>2018-10-20T09:12:20Z</time>
      </trkpt>
      <trkpt lat="45.95108" lon="4.88432">
        <ele>291</ele>
        <time>2018-10-20T09:12:21Z</time>
      </trkpt>
      <trkpt lat="45.95107" lon="4.88439">
        <ele>291</ele>
        <time>2018-10-20T09:12:22Z</time>
      </trkpt>
      <trkpt lat="45.95107" lon="4.88446">
        <ele>291</ele>
        <time>2018-10-20T09:12:23Z</time>
      </trkpt>
      <trkpt lat="45.95106" lon="4.88458">
        <ele>291</ele>
        <time>2018-10-20T09:12:25Z</time>
      </trkpt>
      <trkpt lat="45.95106" lon="4.88466">
        <ele>291</ele>
        <time>2018-10-20T09:12:26Z</time>
      </trkpt>
      <trkpt lat="45.95106" lon="4.88473">
        <ele>291</ele>
        <time>2018-10-20T09:12:29Z</time>
      </trkpt>
      <trkpt lat="45.95106" lon="4.88483">
        <ele>291</ele>
        <time>2018-10-20T09:12:30Z</time>
      </trkpt>
      <trkpt lat="45.95108" lon="4.88489">
        <ele>291</ele>
        <time>2018-10-20T09:12:31Z</time>
      </trkpt>
      <trkpt lat="45.95109" lon="4.88495">
        <ele>291</ele>
        <time>2018-10-20T09:12:32Z</time>
      </trkpt>
      <trkpt lat="45.9511" lon="4.88502">
        <ele>291</ele>
        <time>2018-10-20T09:12:33Z</time>
      </trkpt>
      <trkpt lat="45.95111" lon="4.88509">
        <ele>291</ele>
        <time>2018-10-20T09:12:34Z</time>
      </trkpt>
      <trkpt lat="45.95113" lon="4.88514">
        <ele>291</ele>
        <time>2018-10-20T09:12:35Z</time>
      </trkpt>
      <trkpt lat="45.95113" lon="4.88522">
        <ele>291</ele>
        <time>2018-10-20T09:12:36Z</time>
      </trkpt>
      <trkpt lat="45.95114" lon="4.88529">
        <ele>291</ele>
        <time>2018-10-20T09:12:37Z</time>
      </trkpt>
      <trkpt lat="45.95115" lon="4.88536">
        <ele>291</ele>
        <time>2018-10-20T09:12:38Z</time>
      </trkpt>
      <trkpt lat="45.95117" lon="4.88548">
        <ele>291</ele>
        <time>2018-10-20T09:12:40Z</time>
      </trkpt>
      <trkpt lat="45.95117" lon="4.88555">
        <ele>291</ele>
        <time>2018-10-20T09:12:41Z</time>
      </trkpt>
      <trkpt lat="45.95118" lon="4.88562">
        <ele>291</ele>
        <time>2018-10-20T09:12:42Z</time>
      </trkpt>
      <trkpt lat="45.9512" lon="4.88569">
        <ele>291</ele>
        <time>2018-10-20T09:12:43Z</time>
      </trkpt>
      <trkpt lat="45.9512" lon="4.88576">
        <ele>291</ele>
        <time>2018-10-20T09:12:44Z</time>
      </trkpt>
      <trkpt lat="45.9512" lon="4.88583">
        <ele>291</ele>
        <time>2018-10-20T09:12:45Z</time>
      </trkpt>
      <trkpt lat="45.9512" lon="4.88595">
        <ele>290</ele>
        <time>2018-10-20T09:12:47Z</time>
      </trkpt>
      <trkpt lat="45.9512" lon="4.886">
        <ele>290</ele>
        <time>2018-10-20T09:12:48Z</time>
      </trkpt>
      <trkpt lat="45.95118" lon="4.88612">
        <ele>290</ele>
        <time>2018-10-20T09:12:50Z</time>
      </trkpt>
      <trkpt lat="45.95117" lon="4.88618">
        <ele>290</ele>
        <time>2018-10-20T09:12:51Z</time>
      </trkpt>
      <trkpt lat="45.95118" lon="4.88624">
        <ele>290</ele>
        <time>2018-10-20T09:12:52Z</time>
      </trkpt>
      <trkpt lat="45.95116" lon="4.88631">
        <ele>290</ele>
        <time>2018-10-20T09:12:53Z</time>
      </trkpt>
      <trkpt lat="45.95122" lon="4.88642">
        <ele>290</ele>
        <time>2018-10-20T09:12:54Z</time>
      </trkpt>
      <trkpt lat="45.95122" lon="4.88648">
        <ele>290</ele>
        <time>2018-10-20T09:12:55Z</time>
      </trkpt>
      <trkpt lat="45.9512" lon="4.88656">
        <ele>290</ele>
        <time>2018-10-20T09:12:56Z</time>
      </trkpt>
      <trkpt lat="45.95118" lon="4.88662">
        <ele>290</ele>
        <time>2018-10-20T09:12:57Z</time>
      </trkpt>
      <trkpt lat="45.95119" lon="4.8867">
        <ele>289</ele>
        <time>2018-10-20T09:12:58Z</time>
      </trkpt>
      <trkpt lat="45.95118" lon="4.88678">
        <ele>289</ele>
        <time>2018-10-20T09:12:59Z</time>
      </trkpt>
      <trkpt lat="45.95117" lon="4.88686">
        <ele>289</ele>
        <time>2018-10-20T09:13:00Z</time>
      </trkpt>
      <trkpt lat="45.95117" lon="4.88694">
        <ele>289</ele>
        <time>2018-10-20T09:13:01Z</time>
      </trkpt>
      <trkpt lat="45.95117" lon="4.88703">
        <ele>289</ele>
        <time>2018-10-20T09:13:02Z</time>
      </trkpt>
      <trkpt lat="45.95119" lon="4.88712">
        <ele>289</ele>
        <time>2018-10-20T09:13:03Z</time>
      </trkpt>
      <trkpt lat="45.95119" lon="4.88721">
        <ele>289</ele>
        <time>2018-10-20T09:13:04Z</time>
      </trkpt>
      <trkpt lat="45.95118" lon="4.88729">
        <ele>288</ele>
        <time>2018-10-20T09:13:05Z</time>
      </trkpt>
      <trkpt lat="45.95119" lon="4.88738">
        <ele>288</ele>
        <time>2018-10-20T09:13:06Z</time>
      </trkpt>
      <trkpt lat="45.95119" lon="4.88746">
        <ele>288</ele>
        <time>2018-10-20T09:13:07Z</time>
      </trkpt>
      <trkpt lat="45.95118" lon="4.88755">
        <ele>287</ele>
        <time>2018-10-20T09:13:08Z</time>
      </trkpt>
      <trkpt lat="45.95117" lon="4.88763">
        <ele>287</ele>
        <time>2018-10-20T09:13:09Z</time>
      </trkpt>
      <trkpt lat="45.95118" lon="4.88772">
        <ele>287</ele>
        <time>2018-10-20T09:13:10Z</time>
      </trkpt>
      <trkpt lat="45.95117" lon="4.8878">
        <ele>287</ele>
        <time>2018-10-20T09:13:11Z</time>
      </trkpt>
      <trkpt lat="45.95117" lon="4.88789">
        <ele>286</ele>
        <time>2018-10-20T09:13:12Z</time>
      </trkpt>
      <trkpt lat="45.95116" lon="4.88797">
        <ele>286</ele>
        <time>2018-10-20T09:13:13Z</time>
      </trkpt>
      <trkpt lat="45.95116" lon="4.88806">
        <ele>286</ele>
        <time>2018-10-20T09:13:14Z</time>
      </trkpt>
      <trkpt lat="45.95115" lon="4.88814">
        <ele>286</ele>
        <time>2018-10-20T09:13:15Z</time>
      </trkpt>
      <trkpt lat="45.9511" lon="4.8882">
        <ele>286</ele>
        <time>2018-10-20T09:13:16Z</time>
      </trkpt>
      <trkpt lat="45.95108" lon="4.88832">
        <ele>286</ele>
        <time>2018-10-20T09:13:17Z</time>
      </trkpt>
      <trkpt lat="45.95108" lon="4.88841">
        <ele>285</ele>
        <time>2018-10-20T09:13:18Z</time>
      </trkpt>
      <trkpt lat="45.95108" lon="4.88849">
        <ele>285</ele>
        <time>2018-10-20T09:13:19Z</time>
      </trkpt>
      <trkpt lat="45.95106" lon="4.88856">
        <ele>285</ele>
        <time>2018-10-20T09:13:20Z</time>
      </trkpt>
      <trkpt lat="45.95106" lon="4.88865">
        <ele>285</ele>
        <time>2018-10-20T09:13:21Z</time>
      </trkpt>
      <trkpt lat="45.95107" lon="4.88873">
        <ele>285</ele>
        <time>2018-10-20T09:13:22Z</time>
      </trkpt>
      <trkpt lat="45.95106" lon="4.8888">
        <ele>285</ele>
        <time>2018-10-20T09:13:23Z</time>
      </trkpt>
      <trkpt lat="45.95106" lon="4.88889">
        <ele>285</ele>
        <time>2018-10-20T09:13:24Z</time>
      </trkpt>
      <trkpt lat="45.95105" lon="4.88898">
        <ele>285</ele>
        <time>2018-10-20T09:13:25Z</time>
      </trkpt>
      <trkpt lat="45.95104" lon="4.88904">
        <ele>285</ele>
        <time>2018-10-20T09:13:26Z</time>
      </trkpt>
      <trkpt lat="45.95104" lon="4.88911">
        <ele>285</ele>
        <time>2018-10-20T09:13:27Z</time>
      </trkpt>
      <trkpt lat="45.95104" lon="4.88919">
        <ele>285</ele>
        <time>2018-10-20T09:13:28Z</time>
      </trkpt>
      <trkpt lat="45.95103" lon="4.88927">
        <ele>285</ele>
        <time>2018-10-20T09:13:29Z</time>
      </trkpt>
      <trkpt lat="45.95102" lon="4.88935">
        <ele>285</ele>
        <time>2018-10-20T09:13:30Z</time>
      </trkpt>
      <trkpt lat="45.95102" lon="4.88943">
        <ele>285</ele>
        <time>2018-10-20T09:13:31Z</time>
      </trkpt>
      <trkpt lat="45.95101" lon="4.88952">
        <ele>284</ele>
        <time>2018-10-20T09:13:32Z</time>
      </trkpt>
      <trkpt lat="45.95101" lon="4.8896">
        <ele>284</ele>
        <time>2018-10-20T09:13:33Z</time>
      </trkpt>
      <trkpt lat="45.951" lon="4.88969">
        <ele>284</ele>
        <time>2018-10-20T09:13:34Z</time>
      </trkpt>
      <trkpt lat="45.95099" lon="4.88976">
        <ele>284</ele>
        <time>2018-10-20T09:13:35Z</time>
      </trkpt>
      <trkpt lat="45.95099" lon="4.88984">
        <ele>284</ele>
        <time>2018-10-20T09:13:36Z</time>
      </trkpt>
      <trkpt lat="45.95099" lon="4.88991">
        <ele>285</ele>
        <time>2018-10-20T09:13:37Z</time>
      </trkpt>
      <trkpt lat="45.95098" lon="4.88999">
        <ele>285</ele>
        <time>2018-10-20T09:13:38Z</time>
      </trkpt>
      <trkpt lat="45.95098" lon="4.89011">
        <ele>284</ele>
        <time>2018-10-20T09:13:40Z</time>
      </trkpt>
      <trkpt lat="45.95096" lon="4.89018">
        <ele>284</ele>
        <time>2018-10-20T09:13:41Z</time>
      </trkpt>
      <trkpt lat="45.95092" lon="4.8903">
        <ele>284</ele>
        <time>2018-10-20T09:13:43Z</time>
      </trkpt>
      <trkpt lat="45.95094" lon="4.89037">
        <ele>284</ele>
        <time>2018-10-20T09:13:44Z</time>
      </trkpt>
      <trkpt lat="45.95094" lon="4.89043">
        <ele>284</ele>
        <time>2018-10-20T09:13:45Z</time>
      </trkpt>
      <trkpt lat="45.95092" lon="4.89051">
        <ele>284</ele>
        <time>2018-10-20T09:13:46Z</time>
      </trkpt>
      <trkpt lat="45.95092" lon="4.89059">
        <ele>284</ele>
        <time>2018-10-20T09:13:47Z</time>
      </trkpt>
      <trkpt lat="45.95091" lon="4.89069">
        <ele>284</ele>
        <time>2018-10-20T09:13:48Z</time>
      </trkpt>
      <trkpt lat="45.9509" lon="4.89078">
        <ele>284</ele>
        <time>2018-10-20T09:13:49Z</time>
      </trkpt>
      <trkpt lat="45.9509" lon="4.89087">
        <ele>284</ele>
        <time>2018-10-20T09:13:50Z</time>
      </trkpt>
      <trkpt lat="45.95089" lon="4.89096">
        <ele>283</ele>
        <time>2018-10-20T09:13:51Z</time>
      </trkpt>
      <trkpt lat="45.95089" lon="4.89103">
        <ele>283</ele>
        <time>2018-10-20T09:13:52Z</time>
      </trkpt>
      <trkpt lat="45.95088" lon="4.89111">
        <ele>283</ele>
        <time>2018-10-20T09:13:53Z</time>
      </trkpt>
      <trkpt lat="45.95088" lon="4.89118">
        <ele>283</ele>
        <time>2018-10-20T09:13:54Z</time>
      </trkpt>
      <trkpt lat="45.95088" lon="4.89126">
        <ele>283</ele>
        <time>2018-10-20T09:13:55Z</time>
      </trkpt>
      <trkpt lat="45.95089" lon="4.89133">
        <ele>283</ele>
        <time>2018-10-20T09:13:56Z</time>
      </trkpt>
      <trkpt lat="45.95087" lon="4.89145">
        <ele>283</ele>
        <time>2018-10-20T09:13:58Z</time>
      </trkpt>
      <trkpt lat="45.95087" lon="4.89151">
        <ele>283</ele>
        <time>2018-10-20T09:13:59Z</time>
      </trkpt>
      <trkpt lat="45.95087" lon="4.89158">
        <ele>284</ele>
        <time>2018-10-20T09:14:00Z</time>
      </trkpt>
      <trkpt lat="45.95087" lon="4.89164">
        <ele>284</ele>
        <time>2018-10-20T09:14:01Z</time>
      </trkpt>
      <trkpt lat="45.95086" lon="4.89171">
        <ele>284</ele>
        <time>2018-10-20T09:14:02Z</time>
      </trkpt>
      <trkpt lat="45.95085" lon="4.89177">
        <ele>284</ele>
        <time>2018-10-20T09:14:03Z</time>
      </trkpt>
      <trkpt lat="45.95085" lon="4.89184">
        <ele>283</ele>
        <time>2018-10-20T09:14:04Z</time>
      </trkpt>
      <trkpt lat="45.95084" lon="4.89193">
        <ele>283</ele>
        <time>2018-10-20T09:14:05Z</time>
      </trkpt>
      <trkpt lat="45.95083" lon="4.89201">
        <ele>284</ele>
        <time>2018-10-20T09:14:06Z</time>
      </trkpt>
      <trkpt lat="45.95083" lon="4.89209">
        <ele>284</ele>
        <time>2018-10-20T09:14:07Z</time>
      </trkpt>
      <trkpt lat="45.95082" lon="4.89216">
        <ele>284</ele>
        <time>2018-10-20T09:14:08Z</time>
      </trkpt>
      <trkpt lat="45.95081" lon="4.89225">
        <ele>284</ele>
        <time>2018-10-20T09:14:09Z</time>
      </trkpt>
      <trkpt lat="45.95081" lon="4.89233">
        <ele>284</ele>
        <time>2018-10-20T09:14:10Z</time>
      </trkpt>
      <trkpt lat="45.9508" lon="4.89242">
        <ele>283</ele>
        <time>2018-10-20T09:14:11Z</time>
      </trkpt>
      <trkpt lat="45.95079" lon="4.89251">
        <ele>283</ele>
        <time>2018-10-20T09:14:12Z</time>
      </trkpt>
      <trkpt lat="45.95078" lon="4.89261">
        <ele>283</ele>
        <time>2018-10-20T09:14:13Z</time>
      </trkpt>
      <trkpt lat="45.95078" lon="4.89271">
        <ele>283</ele>
        <time>2018-10-20T09:14:14Z</time>
      </trkpt>
      <trkpt lat="45.95077" lon="4.89281">
        <ele>283</ele>
        <time>2018-10-20T09:14:15Z</time>
      </trkpt>
      <trkpt lat="45.95077" lon="4.8929">
        <ele>283</ele>
        <time>2018-10-20T09:14:16Z</time>
      </trkpt>
      <trkpt lat="45.95077" lon="4.89298">
        <ele>283</ele>
        <time>2018-10-20T09:14:17Z</time>
      </trkpt>
      <trkpt lat="45.95077" lon="4.89306">
        <ele>283</ele>
        <time>2018-10-20T09:14:18Z</time>
      </trkpt>
      <trkpt lat="45.95077" lon="4.89314">
        <ele>283</ele>
        <time>2018-10-20T09:14:19Z</time>
      </trkpt>
      <trkpt lat="45.95077" lon="4.89323">
        <ele>283</ele>
        <time>2018-10-20T09:14:20Z</time>
      </trkpt>
      <trkpt lat="45.95077" lon="4.89331">
        <ele>283</ele>
        <time>2018-10-20T09:14:21Z</time>
      </trkpt>
      <trkpt lat="45.95077" lon="4.89339">
        <ele>283</ele>
        <time>2018-10-20T09:14:22Z</time>
      </trkpt>
      <trkpt lat="45.95077" lon="4.89348">
        <ele>283</ele>
        <time>2018-10-20T09:14:23Z</time>
      </trkpt>
      <trkpt lat="45.95077" lon="4.89356">
        <ele>283</ele>
        <time>2018-10-20T09:14:24Z</time>
      </trkpt>
      <trkpt lat="45.95076" lon="4.89366">
        <ele>283</ele>
        <time>2018-10-20T09:14:25Z</time>
      </trkpt>
      <trkpt lat="45.95076" lon="4.89375">
        <ele>283</ele>
        <time>2018-10-20T09:14:26Z</time>
      </trkpt>
      <trkpt lat="45.95076" lon="4.89384">
        <ele>283</ele>
        <time>2018-10-20T09:14:27Z</time>
      </trkpt>
      <trkpt lat="45.95077" lon="4.89395">
        <ele>283</ele>
        <time>2018-10-20T09:14:28Z</time>
      </trkpt>
      <trkpt lat="45.95078" lon="4.89403">
        <ele>283</ele>
        <time>2018-10-20T09:14:29Z</time>
      </trkpt>
      <trkpt lat="45.95078" lon="4.89412">
        <ele>282</ele>
        <time>2018-10-20T09:14:30Z</time>
      </trkpt>
      <trkpt lat="45.9508" lon="4.89421">
        <ele>282</ele>
        <time>2018-10-20T09:14:31Z</time>
      </trkpt>
      <trkpt lat="45.95081" lon="4.89429">
        <ele>282</ele>
        <time>2018-10-20T09:14:32Z</time>
      </trkpt>
      <trkpt lat="45.95083" lon="4.89436">
        <ele>282</ele>
        <time>2018-10-20T09:14:33Z</time>
      </trkpt>
      <trkpt lat="45.95083" lon="4.89442">
        <ele>282</ele>
        <time>2018-10-20T09:14:34Z</time>
      </trkpt>
      <trkpt lat="45.95084" lon="4.89449">
        <ele>282</ele>
        <time>2018-10-20T09:14:35Z</time>
      </trkpt>
      <trkpt lat="45.95085" lon="4.89456">
        <ele>282</ele>
        <time>2018-10-20T09:14:36Z</time>
      </trkpt>
      <trkpt lat="45.95089" lon="4.89464">
        <ele>282</ele>
        <time>2018-10-20T09:14:37Z</time>
      </trkpt>
      <trkpt lat="45.95091" lon="4.89472">
        <ele>282</ele>
        <time>2018-10-20T09:14:38Z</time>
      </trkpt>
      <trkpt lat="45.95092" lon="4.89479">
        <ele>282</ele>
        <time>2018-10-20T09:14:39Z</time>
      </trkpt>
      <trkpt lat="45.95092" lon="4.89487">
        <ele>282</ele>
        <time>2018-10-20T09:14:40Z</time>
      </trkpt>
      <trkpt lat="45.95091" lon="4.89493">
        <ele>282</ele>
        <time>2018-10-20T09:14:41Z</time>
      </trkpt>
      <trkpt lat="45.95088" lon="4.89499">
        <ele>282</ele>
        <time>2018-10-20T09:14:42Z</time>
      </trkpt>
      <trkpt lat="45.95083" lon="4.89501">
        <ele>282</ele>
        <time>2018-10-20T09:14:43Z</time>
      </trkpt>
      <trkpt lat="45.95078" lon="4.89504">
        <ele>282</ele>
        <time>2018-10-20T09:14:44Z</time>
      </trkpt>
      <trkpt lat="45.95072" lon="4.89506">
        <ele>282</ele>
        <time>2018-10-20T09:14:45Z</time>
      </trkpt>
      <trkpt lat="45.95067" lon="4.89507">
        <ele>282</ele>
        <time>2018-10-20T09:14:46Z</time>
      </trkpt>
      <trkpt lat="45.95062" lon="4.89509">
        <ele>282</ele>
        <time>2018-10-20T09:14:47Z</time>
      </trkpt>
      <trkpt lat="45.95057" lon="4.89511">
        <ele>283</ele>
        <time>2018-10-20T09:14:48Z</time>
      </trkpt>
      <trkpt lat="45.95052" lon="4.89511">
        <ele>283</ele>
        <time>2018-10-20T09:14:49Z</time>
      </trkpt>
      <trkpt lat="45.95046" lon="4.89513">
        <ele>283</ele>
        <time>2018-10-20T09:14:50Z</time>
      </trkpt>
      <trkpt lat="45.9504" lon="4.89515">
        <ele>283</ele>
        <time>2018-10-20T09:14:51Z</time>
      </trkpt>
      <trkpt lat="45.95033" lon="4.89517">
        <ele>283</ele>
        <time>2018-10-20T09:14:52Z</time>
      </trkpt>
      <trkpt lat="45.95028" lon="4.89519">
        <ele>283</ele>
        <time>2018-10-20T09:14:53Z</time>
      </trkpt>
      <trkpt lat="45.95022" lon="4.89523">
        <ele>283</ele>
        <time>2018-10-20T09:14:54Z</time>
      </trkpt>
      <trkpt lat="45.95018" lon="4.89527">
        <ele>283</ele>
        <time>2018-10-20T09:14:55Z</time>
      </trkpt>
      <trkpt lat="45.95014" lon="4.89531">
        <ele>283</ele>
        <time>2018-10-20T09:14:56Z</time>
      </trkpt>
      <trkpt lat="45.9501" lon="4.89536">
        <ele>283</ele>
        <time>2018-10-20T09:14:57Z</time>
      </trkpt>
      <trkpt lat="45.95007" lon="4.8954">
        <ele>283</ele>
        <time>2018-10-20T09:14:58Z</time>
      </trkpt>
      <trkpt lat="45.95006" lon="4.89551">
        <ele>283</ele>
        <time>2018-10-20T09:14:59Z</time>
      </trkpt>
      <trkpt lat="45.95004" lon="4.89558">
        <ele>283</ele>
        <time>2018-10-20T09:15:00Z</time>
      </trkpt>
      <trkpt lat="45.95002" lon="4.89565">
        <ele>283</ele>
        <time>2018-10-20T09:15:01Z</time>
      </trkpt>
      <trkpt lat="45.95" lon="4.8957">
        <ele>284</ele>
        <time>2018-10-20T09:15:02Z</time>
      </trkpt>
      <trkpt lat="45.94998" lon="4.89577">
        <ele>284</ele>
        <time>2018-10-20T09:15:03Z</time>
      </trkpt>
      <trkpt lat="45.94996" lon="4.89584">
        <ele>284</ele>
        <time>2018-10-20T09:15:04Z</time>
      </trkpt>
      <trkpt lat="45.94994" lon="4.8959">
        <ele>284</ele>
        <time>2018-10-20T09:15:05Z</time>
      </trkpt>
      <trkpt lat="45.94992" lon="4.89597">
        <ele>284</ele>
        <time>2018-10-20T09:15:06Z</time>
      </trkpt>
      <trkpt lat="45.9499" lon="4.89602">
        <ele>284</ele>
        <time>2018-10-20T09:15:07Z</time>
      </trkpt>
      <trkpt lat="45.94988" lon="4.8961">
        <ele>284</ele>
        <time>2018-10-20T09:15:08Z</time>
      </trkpt>
      <trkpt lat="45.94986" lon="4.89617">
        <ele>285</ele>
        <time>2018-10-20T09:15:09Z</time>
      </trkpt>
      <trkpt lat="45.94984" lon="4.89624">
        <ele>285</ele>
        <time>2018-10-20T09:15:10Z</time>
      </trkpt>
      <trkpt lat="45.94982" lon="4.89631">
        <ele>285</ele>
        <time>2018-10-20T09:15:11Z</time>
      </trkpt>
      <trkpt lat="45.94981" lon="4.89637">
        <ele>285</ele>
        <time>2018-10-20T09:15:12Z</time>
      </trkpt>
      <trkpt lat="45.94979" lon="4.89644">
        <ele>285</ele>
        <time>2018-10-20T09:15:13Z</time>
      </trkpt>
      <trkpt lat="45.94977" lon="4.89651">
        <ele>285</ele>
        <time>2018-10-20T09:15:14Z</time>
      </trkpt>
      <trkpt lat="45.94974" lon="4.89657">
        <ele>284</ele>
        <time>2018-10-20T09:15:15Z</time>
      </trkpt>
      <trkpt lat="45.94972" lon="4.89665">
        <ele>285</ele>
        <time>2018-10-20T09:15:16Z</time>
      </trkpt>
      <trkpt lat="45.94971" lon="4.89672">
        <ele>284</ele>
        <time>2018-10-20T09:15:17Z</time>
      </trkpt>
      <trkpt lat="45.9497" lon="4.89679">
        <ele>284</ele>
        <time>2018-10-20T09:15:18Z</time>
      </trkpt>
      <trkpt lat="45.94968" lon="4.89685">
        <ele>284</ele>
        <time>2018-10-20T09:15:19Z</time>
      </trkpt>
      <trkpt lat="45.94966" lon="4.89692">
        <ele>284</ele>
        <time>2018-10-20T09:15:20Z</time>
      </trkpt>
      <trkpt lat="45.94962" lon="4.897">
        <ele>284</ele>
        <time>2018-10-20T09:15:21Z</time>
      </trkpt>
      <trkpt lat="45.9496" lon="4.89707">
        <ele>284</ele>
        <time>2018-10-20T09:15:22Z</time>
      </trkpt>
      <trkpt lat="45.9496" lon="4.89713">
        <ele>284</ele>
        <time>2018-10-20T09:15:23Z</time>
      </trkpt>
      <trkpt lat="45.94958" lon="4.89721">
        <ele>284</ele>
        <time>2018-10-20T09:15:24Z</time>
      </trkpt>
      <trkpt lat="45.94956" lon="4.89727">
        <ele>284</ele>
        <time>2018-10-20T09:15:25Z</time>
      </trkpt>
      <trkpt lat="45.94958" lon="4.89736">
        <ele>284</ele>
        <time>2018-10-20T09:15:26Z</time>
      </trkpt>
      <trkpt lat="45.94954" lon="4.89741">
        <ele>284</ele>
        <time>2018-10-20T09:15:27Z</time>
      </trkpt>
      <trkpt lat="45.94951" lon="4.89748">
        <ele>284</ele>
        <time>2018-10-20T09:15:28Z</time>
      </trkpt>
      <trkpt lat="45.94949" lon="4.89755">
        <ele>284</ele>
        <time>2018-10-20T09:15:29Z</time>
      </trkpt>
      <trkpt lat="45.94947" lon="4.89763">
        <ele>284</ele>
        <time>2018-10-20T09:15:30Z</time>
      </trkpt>
      <trkpt lat="45.94946" lon="4.8977">
        <ele>284</ele>
        <time>2018-10-20T09:15:31Z</time>
      </trkpt>
      <trkpt lat="45.94945" lon="4.89777">
        <ele>284</ele>
        <time>2018-10-20T09:15:32Z</time>
      </trkpt>
      <trkpt lat="45.94944" lon="4.89784">
        <ele>284</ele>
        <time>2018-10-20T09:15:33Z</time>
      </trkpt>
      <trkpt lat="45.94941" lon="4.89791">
        <ele>284</ele>
        <time>2018-10-20T09:15:34Z</time>
      </trkpt>
      <trkpt lat="45.94939" lon="4.89798">
        <ele>284</ele>
        <time>2018-10-20T09:15:35Z</time>
      </trkpt>
      <trkpt lat="45.94937" lon="4.89804">
        <ele>284</ele>
        <time>2018-10-20T09:15:36Z</time>
      </trkpt>
      <trkpt lat="45.94936" lon="4.89812">
        <ele>284</ele>
        <time>2018-10-20T09:15:37Z</time>
      </trkpt>
      <trkpt lat="45.94935" lon="4.8982">
        <ele>284</ele>
        <time>2018-10-20T09:15:38Z</time>
      </trkpt>
      <trkpt lat="45.94933" lon="4.89827">
        <ele>284</ele>
        <time>2018-10-20T09:15:39Z</time>
      </trkpt>
      <trkpt lat="45.94933" lon="4.89835">
        <ele>284</ele>
        <time>2018-10-20T09:15:40Z</time>
      </trkpt>
      <trkpt lat="45.94933" lon="4.89842">
        <ele>284</ele>
        <time>2018-10-20T09:15:41Z</time>
      </trkpt>
      <trkpt lat="45.94931" lon="4.89849">
        <ele>284</ele>
        <time>2018-10-20T09:15:42Z</time>
      </trkpt>
      <trkpt lat="45.94932" lon="4.89857">
        <ele>284</ele>
        <time>2018-10-20T09:15:43Z</time>
      </trkpt>
      <trkpt lat="45.94933" lon="4.89869">
        <ele>284</ele>
        <time>2018-10-20T09:15:45Z</time>
      </trkpt>
      <trkpt lat="45.94935" lon="4.89876">
        <ele>284</ele>
        <time>2018-10-20T09:15:46Z</time>
      </trkpt>
      <trkpt lat="45.94936" lon="4.89883">
        <ele>284</ele>
        <time>2018-10-20T09:15:47Z</time>
      </trkpt>
      <trkpt lat="45.94938" lon="4.8989">
        <ele>284</ele>
        <time>2018-10-20T09:15:48Z</time>
      </trkpt>
      <trkpt lat="45.94942" lon="4.89896">
        <ele>284</ele>
        <time>2018-10-20T09:15:49Z</time>
      </trkpt>
      <trkpt lat="45.94945" lon="4.89903">
        <ele>284</ele>
        <time>2018-10-20T09:15:50Z</time>
      </trkpt>
      <trkpt lat="45.94949" lon="4.89908">
        <ele>284</ele>
        <time>2018-10-20T09:15:51Z</time>
      </trkpt>
      <trkpt lat="45.94952" lon="4.89914">
        <ele>284</ele>
        <time>2018-10-20T09:15:52Z</time>
      </trkpt>
      <trkpt lat="45.94956" lon="4.89918">
        <ele>284</ele>
        <time>2018-10-20T09:15:53Z</time>
      </trkpt>
      <trkpt lat="45.9496" lon="4.89923">
        <ele>284</ele>
        <time>2018-10-20T09:15:54Z</time>
      </trkpt>
      <trkpt lat="45.94964" lon="4.89929">
        <ele>284</ele>
        <time>2018-10-20T09:15:55Z</time>
      </trkpt>
      <trkpt lat="45.94968" lon="4.89932">
        <ele>284</ele>
        <time>2018-10-20T09:15:56Z</time>
      </trkpt>
      <trkpt lat="45.94972" lon="4.89938">
        <ele>284</ele>
        <time>2018-10-20T09:15:57Z</time>
      </trkpt>
      <trkpt lat="45.94976" lon="4.89942">
        <ele>284</ele>
        <time>2018-10-20T09:15:58Z</time>
      </trkpt>
      <trkpt lat="45.94979" lon="4.89947">
        <ele>284</ele>
        <time>2018-10-20T09:15:59Z</time>
      </trkpt>
      <trkpt lat="45.94982" lon="4.89951">
        <ele>284</ele>
        <time>2018-10-20T09:16:00Z</time>
      </trkpt>
      <trkpt lat="45.94986" lon="4.89956">
        <ele>284</ele>
        <time>2018-10-20T09:16:01Z</time>
      </trkpt>
      <trkpt lat="45.94989" lon="4.89964">
        <ele>284</ele>
        <time>2018-10-20T09:16:02Z</time>
      </trkpt>
      <trkpt lat="45.94993" lon="4.8997">
        <ele>284</ele>
        <time>2018-10-20T09:16:03Z</time>
      </trkpt>
      <trkpt lat="45.94996" lon="4.89977">
        <ele>284</ele>
        <time>2018-10-20T09:16:04Z</time>
      </trkpt>
      <trkpt lat="45.94999" lon="4.89982">
        <ele>283</ele>
        <time>2018-10-20T09:16:05Z</time>
      </trkpt>
      <trkpt lat="45.95002" lon="4.89988">
        <ele>283</ele>
        <time>2018-10-20T09:16:06Z</time>
      </trkpt>
      <trkpt lat="45.95007" lon="4.89994">
        <ele>283</ele>
        <time>2018-10-20T09:16:07Z</time>
      </trkpt>
      <trkpt lat="45.95011" lon="4.90001">
        <ele>284</ele>
        <time>2018-10-20T09:16:08Z</time>
      </trkpt>
      <trkpt lat="45.95013" lon="4.90007">
        <ele>284</ele>
        <time>2018-10-20T09:16:09Z</time>
      </trkpt>
      <trkpt lat="45.95017" lon="4.90013">
        <ele>284</ele>
        <time>2018-10-20T09:16:10Z</time>
      </trkpt>
      <trkpt lat="45.9502" lon="4.90019">
        <ele>284</ele>
        <time>2018-10-20T09:16:11Z</time>
      </trkpt>
      <trkpt lat="45.95023" lon="4.90024">
        <ele>284</ele>
        <time>2018-10-20T09:16:12Z</time>
      </trkpt>
      <trkpt lat="45.95026" lon="4.9003">
        <ele>284</ele>
        <time>2018-10-20T09:16:13Z</time>
      </trkpt>
      <trkpt lat="45.95029" lon="4.90035">
        <ele>284</ele>
        <time>2018-10-20T09:16:14Z</time>
      </trkpt>
      <trkpt lat="45.95032" lon="4.9004">
        <ele>284</ele>
        <time>2018-10-20T09:16:15Z</time>
      </trkpt>
      <trkpt lat="45.95035" lon="4.90045">
        <ele>284</ele>
        <time>2018-10-20T09:16:16Z</time>
      </trkpt>
      <trkpt lat="45.95038" lon="4.90049">
        <ele>285</ele>
        <time>2018-10-20T09:16:17Z</time>
      </trkpt>
      <trkpt lat="45.95042" lon="4.90053">
        <ele>285</ele>
        <time>2018-10-20T09:16:18Z</time>
      </trkpt>
      <trkpt lat="45.95046" lon="4.90057">
        <ele>285</ele>
        <time>2018-10-20T09:16:19Z</time>
      </trkpt>
      <trkpt lat="45.95049" lon="4.90061">
        <ele>285</ele>
        <time>2018-10-20T09:16:20Z</time>
      </trkpt>
      <trkpt lat="45.95055" lon="4.9007">
        <ele>285</ele>
        <time>2018-10-20T09:16:22Z</time>
      </trkpt>
      <trkpt lat="45.95058" lon="4.90075">
        <ele>285</ele>
        <time>2018-10-20T09:16:23Z</time>
      </trkpt>
      <trkpt lat="45.95061" lon="4.90079">
        <ele>285</ele>
        <time>2018-10-20T09:16:24Z</time>
      </trkpt>
      <trkpt lat="45.95065" lon="4.90084">
        <ele>285</ele>
        <time>2018-10-20T09:16:25Z</time>
      </trkpt>
      <trkpt lat="45.95069" lon="4.90089">
        <ele>285</ele>
        <time>2018-10-20T09:16:26Z</time>
      </trkpt>
      <trkpt lat="45.95072" lon="4.90094">
        <ele>285</ele>
        <time>2018-10-20T09:16:27Z</time>
      </trkpt>
      <trkpt lat="45.95076" lon="4.90098">
        <ele>285</ele>
        <time>2018-10-20T09:16:28Z</time>
      </trkpt>
      <trkpt lat="45.9508" lon="4.90102">
        <ele>285</ele>
        <time>2018-10-20T09:16:29Z</time>
      </trkpt>
      <trkpt lat="45.95086" lon="4.9011">
        <ele>286</ele>
        <time>2018-10-20T09:16:31Z</time>
      </trkpt>
      <trkpt lat="45.9509" lon="4.90115">
        <ele>286</ele>
        <time>2018-10-20T09:16:32Z</time>
      </trkpt>
      <trkpt lat="45.95095" lon="4.90119">
        <ele>286</ele>
        <time>2018-10-20T09:16:33Z</time>
      </trkpt>
      <trkpt lat="45.95098" lon="4.90122">
        <ele>286</ele>
        <time>2018-10-20T09:16:34Z</time>
      </trkpt>
      <trkpt lat="45.95102" lon="4.90127">
        <ele>286</ele>
        <time>2018-10-20T09:16:35Z</time>
      </trkpt>
      <trkpt lat="45.95107" lon="4.90132">
        <ele>286</ele>
        <time>2018-10-20T09:16:36Z</time>
      </trkpt>
      <trkpt lat="45.95111" lon="4.90136">
        <ele>286</ele>
        <time>2018-10-20T09:16:37Z</time>
      </trkpt>
      <trkpt lat="45.95115" lon="4.90139">
        <ele>286</ele>
        <time>2018-10-20T09:16:38Z</time>
      </trkpt>
      <trkpt lat="45.95119" lon="4.90143">
        <ele>286</ele>
        <time>2018-10-20T09:16:39Z</time>
      </trkpt>
      <trkpt lat="45.95123" lon="4.90146">
        <ele>286</ele>
        <time>2018-10-20T09:16:40Z</time>
      </trkpt>
      <trkpt lat="45.9513" lon="4.90154">
        <ele>286</ele>
        <time>2018-10-20T09:16:42Z</time>
      </trkpt>
      <trkpt lat="45.95134" lon="4.90157">
        <ele>286</ele>
        <time>2018-10-20T09:16:43Z</time>
      </trkpt>
      <trkpt lat="45.95138" lon="4.9016">
        <ele>286</ele>
        <time>2018-10-20T09:16:44Z</time>
      </trkpt>
      <trkpt lat="45.95143" lon="4.90163">
        <ele>287</ele>
        <time>2018-10-20T09:16:45Z</time>
      </trkpt>
      <trkpt lat="45.95147" lon="4.90164">
        <ele>287</ele>
        <time>2018-10-20T09:16:46Z</time>
      </trkpt>
      <trkpt lat="45.95152" lon="4.90166">
        <ele>287</ele>
        <time>2018-10-20T09:16:47Z</time>
      </trkpt>
      <trkpt lat="45.95155" lon="4.90168">
        <ele>287</ele>
        <time>2018-10-20T09:16:48Z</time>
      </trkpt>
      <trkpt lat="45.95161" lon="4.90168">
        <ele>287</ele>
        <time>2018-10-20T09:16:49Z</time>
      </trkpt>
      <trkpt lat="45.95165" lon="4.90169">
        <ele>287</ele>
        <time>2018-10-20T09:16:50Z</time>
      </trkpt>
      <trkpt lat="45.9517" lon="4.90169">
        <ele>287</ele>
        <time>2018-10-20T09:16:51Z</time>
      </trkpt>
      <trkpt lat="45.95174" lon="4.90169">
        <ele>287</ele>
        <time>2018-10-20T09:16:52Z</time>
      </trkpt>
      <trkpt lat="45.95179" lon="4.90168">
        <ele>287</ele>
        <time>2018-10-20T09:16:53Z</time>
      </trkpt>
      <trkpt lat="45.95183" lon="4.90167">
        <ele>287</ele>
        <time>2018-10-20T09:16:54Z</time>
      </trkpt>
      <trkpt lat="45.95187" lon="4.90166">
        <ele>287</ele>
        <time>2018-10-20T09:16:55Z</time>
      </trkpt>
      <trkpt lat="45.95194" lon="4.90165">
        <ele>287</ele>
        <time>2018-10-20T09:16:56Z</time>
      </trkpt>
      <trkpt lat="45.95199" lon="4.90165">
        <ele>287</ele>
        <time>2018-10-20T09:16:57Z</time>
      </trkpt>
      <trkpt lat="45.95204" lon="4.90168">
        <ele>287</ele>
        <time>2018-10-20T09:16:58Z</time>
      </trkpt>
      <trkpt lat="45.95208" lon="4.90172">
        <ele>287</ele>
        <time>2018-10-20T09:16:59Z</time>
      </trkpt>
      <trkpt lat="45.95211" lon="4.90178">
        <ele>286</ele>
        <time>2018-10-20T09:17:00Z</time>
      </trkpt>
      <trkpt lat="45.95213" lon="4.90184">
        <ele>286</ele>
        <time>2018-10-20T09:17:01Z</time>
      </trkpt>
      <trkpt lat="45.95215" lon="4.90196">
        <ele>286</ele>
        <time>2018-10-20T09:17:03Z</time>
      </trkpt>
      <trkpt lat="45.95216" lon="4.90202">
        <ele>286</ele>
        <time>2018-10-20T09:17:04Z</time>
      </trkpt>
      <trkpt lat="45.95217" lon="4.90214">
        <ele>286</ele>
        <time>2018-10-20T09:17:06Z</time>
      </trkpt>
      <trkpt lat="45.95218" lon="4.90222">
        <ele>286</ele>
        <time>2018-10-20T09:17:07Z</time>
      </trkpt>
      <trkpt lat="45.95219" lon="4.90229">
        <ele>286</ele>
        <time>2018-10-20T09:17:08Z</time>
      </trkpt>
      <trkpt lat="45.9522" lon="4.90235">
        <ele>286</ele>
        <time>2018-10-20T09:17:09Z</time>
      </trkpt>
      <trkpt lat="45.9522" lon="4.90242">
        <ele>286</ele>
        <time>2018-10-20T09:17:10Z</time>
      </trkpt>
      <trkpt lat="45.95221" lon="4.90249">
        <ele>286</ele>
        <time>2018-10-20T09:17:11Z</time>
      </trkpt>
      <trkpt lat="45.95222" lon="4.90257">
        <ele>287</ele>
        <time>2018-10-20T09:17:12Z</time>
      </trkpt>
      <trkpt lat="45.95221" lon="4.90264">
        <ele>287</ele>
        <time>2018-10-20T09:17:13Z</time>
      </trkpt>
      <trkpt lat="45.9522" lon="4.9027">
        <ele>287</ele>
        <time>2018-10-20T09:17:14Z</time>
      </trkpt>
      <trkpt lat="45.95219" lon="4.90278">
        <ele>287</ele>
        <time>2018-10-20T09:17:15Z</time>
      </trkpt>
      <trkpt lat="45.95218" lon="4.9029">
        <ele>287</ele>
        <time>2018-10-20T09:17:17Z</time>
      </trkpt>
      <trkpt lat="45.95217" lon="4.90296">
        <ele>287</ele>
        <time>2018-10-20T09:17:18Z</time>
      </trkpt>
      <trkpt lat="45.95215" lon="4.90308">
        <ele>287</ele>
        <time>2018-10-20T09:17:20Z</time>
      </trkpt>
      <trkpt lat="45.95214" lon="4.90314">
        <ele>287</ele>
        <time>2018-10-20T09:17:21Z</time>
      </trkpt>
      <trkpt lat="45.95214" lon="4.90321">
        <ele>287</ele>
        <time>2018-10-20T09:17:22Z</time>
      </trkpt>
      <trkpt lat="45.95213" lon="4.90327">
        <ele>287</ele>
        <time>2018-10-20T09:17:23Z</time>
      </trkpt>
      <trkpt lat="45.95211" lon="4.90339">
        <ele>288</ele>
        <time>2018-10-20T09:17:25Z</time>
      </trkpt>
      <trkpt lat="45.9521" lon="4.90346">
        <ele>288</ele>
        <time>2018-10-20T09:17:26Z</time>
      </trkpt>
      <trkpt lat="45.95208" lon="4.90352">
        <ele>288</ele>
        <time>2018-10-20T09:17:27Z</time>
      </trkpt>
      <trkpt lat="45.95207" lon="4.9036">
        <ele>288</ele>
        <time>2018-10-20T09:17:28Z</time>
      </trkpt>
      <trkpt lat="45.95205" lon="4.90367">
        <ele>288</ele>
        <time>2018-10-20T09:17:29Z</time>
      </trkpt>
      <trkpt lat="45.95204" lon="4.90373">
        <ele>288</ele>
        <time>2018-10-20T09:17:30Z</time>
      </trkpt>
      <trkpt lat="45.95202" lon="4.90385">
        <ele>288</ele>
        <time>2018-10-20T09:17:32Z</time>
      </trkpt>
      <trkpt lat="45.95201" lon="4.90391">
        <ele>288</ele>
        <time>2018-10-20T09:17:33Z</time>
      </trkpt>
      <trkpt lat="45.952" lon="4.90397">
        <ele>288</ele>
        <time>2018-10-20T09:17:34Z</time>
      </trkpt>
      <trkpt lat="45.95199" lon="4.90404">
        <ele>288</ele>
        <time>2018-10-20T09:17:35Z</time>
      </trkpt>
      <trkpt lat="45.95199" lon="4.90412">
        <ele>288</ele>
        <time>2018-10-20T09:17:36Z</time>
      </trkpt>
      <trkpt lat="45.95198" lon="4.90419">
        <ele>289</ele>
        <time>2018-10-20T09:17:37Z</time>
      </trkpt>
      <trkpt lat="45.95197" lon="4.90426">
        <ele>289</ele>
        <time>2018-10-20T09:17:38Z</time>
      </trkpt>
      <trkpt lat="45.95196" lon="4.90432">
        <ele>289</ele>
        <time>2018-10-20T09:17:39Z</time>
      </trkpt>
      <trkpt lat="45.95196" lon="4.90439">
        <ele>290</ele>
        <time>2018-10-20T09:17:40Z</time>
      </trkpt>
      <trkpt lat="45.95196" lon="4.90446">
        <ele>290</ele>
        <time>2018-10-20T09:17:41Z</time>
      </trkpt>
      <trkpt lat="45.95196" lon="4.90453">
        <ele>290</ele>
        <time>2018-10-20T09:17:42Z</time>
      </trkpt>
      <trkpt lat="45.95196" lon="4.9046">
        <ele>290</ele>
        <time>2018-10-20T09:17:43Z</time>
      </trkpt>
      <trkpt lat="45.95196" lon="4.90467">
        <ele>290</ele>
        <time>2018-10-20T09:17:44Z</time>
      </trkpt>
      <trkpt lat="45.95195" lon="4.90474">
        <ele>290</ele>
        <time>2018-10-20T09:17:45Z</time>
      </trkpt>
      <trkpt lat="45.95195" lon="4.9048">
        <ele>290</ele>
        <time>2018-10-20T09:17:46Z</time>
      </trkpt>
      <trkpt lat="45.95195" lon="4.90487">
        <ele>290</ele>
        <time>2018-10-20T09:17:47Z</time>
      </trkpt>
      <trkpt lat="45.95195" lon="4.90494">
        <ele>290</ele>
        <time>2018-10-20T09:17:48Z</time>
      </trkpt>
      <trkpt lat="45.95195" lon="4.905">
        <ele>292</ele>
        <time>2018-10-20T09:17:49Z</time>
      </trkpt>
      <trkpt lat="45.95194" lon="4.90507">
        <ele>292</ele>
        <time>2018-10-20T09:17:50Z</time>
      </trkpt>
      <trkpt lat="45.95194" lon="4.90513">
        <ele>292</ele>
        <time>2018-10-20T09:17:51Z</time>
      </trkpt>
      <trkpt lat="45.95195" lon="4.90521">
        <ele>292</ele>
        <time>2018-10-20T09:17:52Z</time>
      </trkpt>
      <trkpt lat="45.95194" lon="4.90528">
        <ele>293</ele>
        <time>2018-10-20T09:17:53Z</time>
      </trkpt>
      <trkpt lat="45.95194" lon="4.90535">
        <ele>293</ele>
        <time>2018-10-20T09:17:54Z</time>
      </trkpt>
      <trkpt lat="45.95193" lon="4.90542">
        <ele>293</ele>
        <time>2018-10-20T09:17:55Z</time>
      </trkpt>
      <trkpt lat="45.95192" lon="4.90549">
        <ele>293</ele>
        <time>2018-10-20T09:17:56Z</time>
      </trkpt>
      <trkpt lat="45.95192" lon="4.90555">
        <ele>293</ele>
        <time>2018-10-20T09:17:57Z</time>
      </trkpt>
      <trkpt lat="45.95191" lon="4.90568">
        <ele>293</ele>
        <time>2018-10-20T09:17:59Z</time>
      </trkpt>
      <trkpt lat="45.95191" lon="4.90573">
        <ele>293</ele>
        <time>2018-10-20T09:18:00Z</time>
      </trkpt>
      <trkpt lat="45.9519" lon="4.90585">
        <ele>295</ele>
        <time>2018-10-20T09:18:02Z</time>
      </trkpt>
      <trkpt lat="45.95189" lon="4.9059">
        <ele>295</ele>
        <time>2018-10-20T09:18:03Z</time>
      </trkpt>
      <trkpt lat="45.95189" lon="4.90603">
        <ele>295</ele>
        <time>2018-10-20T09:18:05Z</time>
      </trkpt>
      <trkpt lat="45.95189" lon="4.90608">
        <ele>295</ele>
        <time>2018-10-20T09:18:06Z</time>
      </trkpt>
      <trkpt lat="45.95189" lon="4.90614">
        <ele>295</ele>
        <time>2018-10-20T09:18:07Z</time>
      </trkpt>
      <trkpt lat="45.95189" lon="4.90621">
        <ele>295</ele>
        <time>2018-10-20T09:18:08Z</time>
      </trkpt>
      <trkpt lat="45.95189" lon="4.90634">
        <ele>295</ele>
        <time>2018-10-20T09:18:10Z</time>
      </trkpt>
      <trkpt lat="45.95189" lon="4.90641">
        <ele>296</ele>
        <time>2018-10-20T09:18:11Z</time>
      </trkpt>
      <trkpt lat="45.95188" lon="4.90653">
        <ele>296</ele>
        <time>2018-10-20T09:18:13Z</time>
      </trkpt>
      <trkpt lat="45.95187" lon="4.9066">
        <ele>296</ele>
        <time>2018-10-20T09:18:14Z</time>
      </trkpt>
      <trkpt lat="45.95186" lon="4.90666">
        <ele>296</ele>
        <time>2018-10-20T09:18:15Z</time>
      </trkpt>
      <trkpt lat="45.95186" lon="4.90674">
        <ele>297</ele>
        <time>2018-10-20T09:18:16Z</time>
      </trkpt>
      <trkpt lat="45.95186" lon="4.90681">
        <ele>297</ele>
        <time>2018-10-20T09:18:17Z</time>
      </trkpt>
      <trkpt lat="45.95186" lon="4.90688">
        <ele>297</ele>
        <time>2018-10-20T09:18:18Z</time>
      </trkpt>
      <trkpt lat="45.95185" lon="4.90695">
        <ele>297</ele>
        <time>2018-10-20T09:18:19Z</time>
      </trkpt>
      <trkpt lat="45.95185" lon="4.90702">
        <ele>297</ele>
        <time>2018-10-20T09:18:20Z</time>
      </trkpt>
      <trkpt lat="45.95184" lon="4.90709">
        <ele>297</ele>
        <time>2018-10-20T09:18:21Z</time>
      </trkpt>
      <trkpt lat="45.95183" lon="4.90717">
        <ele>297</ele>
        <time>2018-10-20T09:18:22Z</time>
      </trkpt>
      <trkpt lat="45.95183" lon="4.90724">
        <ele>297</ele>
        <time>2018-10-20T09:18:23Z</time>
      </trkpt>
      <trkpt lat="45.9518" lon="4.90729">
        <ele>297</ele>
        <time>2018-10-20T09:18:24Z</time>
      </trkpt>
      <trkpt lat="45.95179" lon="4.90736">
        <ele>297</ele>
        <time>2018-10-20T09:18:25Z</time>
      </trkpt>
      <trkpt lat="45.95178" lon="4.90744">
        <ele>297</ele>
        <time>2018-10-20T09:18:26Z</time>
      </trkpt>
      <trkpt lat="45.95177" lon="4.90751">
        <ele>298</ele>
        <time>2018-10-20T09:18:27Z</time>
      </trkpt>
      <trkpt lat="45.95178" lon="4.90759">
        <ele>298</ele>
        <time>2018-10-20T09:18:28Z</time>
      </trkpt>
      <trkpt lat="45.95176" lon="4.90766">
        <ele>298</ele>
        <time>2018-10-20T09:18:29Z</time>
      </trkpt>
      <trkpt lat="45.95177" lon="4.90775">
        <ele>298</ele>
        <time>2018-10-20T09:18:30Z</time>
      </trkpt>
      <trkpt lat="45.95178" lon="4.90787">
        <ele>298</ele>
        <time>2018-10-20T09:18:32Z</time>
      </trkpt>
      <trkpt lat="45.95181" lon="4.90793">
        <ele>298</ele>
        <time>2018-10-20T09:18:33Z</time>
      </trkpt>
      <trkpt lat="45.95183" lon="4.908">
        <ele>298</ele>
        <time>2018-10-20T09:18:34Z</time>
      </trkpt>
      <trkpt lat="45.95185" lon="4.90807">
        <ele>298</ele>
        <time>2018-10-20T09:18:35Z</time>
      </trkpt>
      <trkpt lat="45.95186" lon="4.90814">
        <ele>298</ele>
        <time>2018-10-20T09:18:36Z</time>
      </trkpt>
      <trkpt lat="45.95187" lon="4.9082">
        <ele>298</ele>
        <time>2018-10-20T09:18:37Z</time>
      </trkpt>
      <trkpt lat="45.95185" lon="4.90832">
        <ele>298</ele>
        <time>2018-10-20T09:18:39Z</time>
      </trkpt>
      <trkpt lat="45.95184" lon="4.90839">
        <ele>298</ele>
        <time>2018-10-20T09:18:40Z</time>
      </trkpt>
      <trkpt lat="45.95184" lon="4.90851">
        <ele>298</ele>
        <time>2018-10-20T09:18:42Z</time>
      </trkpt>
      <trkpt lat="45.95183" lon="4.90857">
        <ele>298</ele>
        <time>2018-10-20T09:18:43Z</time>
      </trkpt>
      <trkpt lat="45.9518" lon="4.90868">
        <ele>298</ele>
        <time>2018-10-20T09:18:45Z</time>
      </trkpt>
      <trkpt lat="45.95179" lon="4.90874">
        <ele>298</ele>
        <time>2018-10-20T09:18:46Z</time>
      </trkpt>
      <trkpt lat="45.95178" lon="4.90886">
        <ele>298</ele>
        <time>2018-10-20T09:18:48Z</time>
      </trkpt>
      <trkpt lat="45.95178" lon="4.90893">
        <ele>298</ele>
        <time>2018-10-20T09:18:49Z</time>
      </trkpt>
      <trkpt lat="45.95177" lon="4.90899">
        <ele>298</ele>
        <time>2018-10-20T09:18:50Z</time>
      </trkpt>
      <trkpt lat="45.95177" lon="4.90906">
        <ele>298</ele>
        <time>2018-10-20T09:18:51Z</time>
      </trkpt>
      <trkpt lat="45.95176" lon="4.90918">
        <ele>297</ele>
        <time>2018-10-20T09:18:53Z</time>
      </trkpt>
      <trkpt lat="45.95175" lon="4.90926">
        <ele>297</ele>
        <time>2018-10-20T09:18:54Z</time>
      </trkpt>
      <trkpt lat="45.95175" lon="4.90933">
        <ele>297</ele>
        <time>2018-10-20T09:18:55Z</time>
      </trkpt>
      <trkpt lat="45.95174" lon="4.90939">
        <ele>297</ele>
        <time>2018-10-20T09:18:56Z</time>
      </trkpt>
      <trkpt lat="45.95175" lon="4.90947">
        <ele>297</ele>
        <time>2018-10-20T09:18:57Z</time>
      </trkpt>
      <trkpt lat="45.95175" lon="4.90954">
        <ele>297</ele>
        <time>2018-10-20T09:18:58Z</time>
      </trkpt>
      <trkpt lat="45.95177" lon="4.9096">
        <ele>298</ele>
        <time>2018-10-20T09:18:59Z</time>
      </trkpt>
      <trkpt lat="45.95177" lon="4.90967">
        <ele>298</ele>
        <time>2018-10-20T09:19:00Z</time>
      </trkpt>
      <trkpt lat="45.95178" lon="4.90973">
        <ele>298</ele>
        <time>2018-10-20T09:19:01Z</time>
      </trkpt>
      <trkpt lat="45.95176" lon="4.9098">
        <ele>298</ele>
        <time>2018-10-20T09:19:02Z</time>
      </trkpt>
      <trkpt lat="45.95177" lon="4.90987">
        <ele>298</ele>
        <time>2018-10-20T09:19:03Z</time>
      </trkpt>
      <trkpt lat="45.95179" lon="4.90993">
        <ele>298</ele>
        <time>2018-10-20T09:19:04Z</time>
      </trkpt>
      <trkpt lat="45.9518" lon="4.90999">
        <ele>298</ele>
        <time>2018-10-20T09:19:05Z</time>
      </trkpt>
      <trkpt lat="45.95181" lon="4.91006">
        <ele>298</ele>
        <time>2018-10-20T09:19:06Z</time>
      </trkpt>
      <trkpt lat="45.95184" lon="4.91017">
        <ele>297</ele>
        <time>2018-10-20T09:19:08Z</time>
      </trkpt>
      <trkpt lat="45.95186" lon="4.91023">
        <ele>297</ele>
        <time>2018-10-20T09:19:09Z</time>
      </trkpt>
      <trkpt lat="45.95189" lon="4.91029">
        <ele>297</ele>
        <time>2018-10-20T09:19:10Z</time>
      </trkpt>
      <trkpt lat="45.95192" lon="4.91035">
        <ele>297</ele>
        <time>2018-10-20T09:19:11Z</time>
      </trkpt>
      <trkpt lat="45.95196" lon="4.91046">
        <ele>297</ele>
        <time>2018-10-20T09:19:13Z</time>
      </trkpt>
      <trkpt lat="45.95199" lon="4.9105">
        <ele>297</ele>
        <time>2018-10-20T09:19:14Z</time>
      </trkpt>
      <trkpt lat="45.95202" lon="4.91059">
        <ele>297</ele>
        <time>2018-10-20T09:19:16Z</time>
      </trkpt>
      <trkpt lat="45.95204" lon="4.91061">
        <ele>297</ele>
        <time>2018-10-20T09:19:17Z</time>
      </trkpt>
      <trkpt lat="45.9521" lon="4.91071">
        <ele>297</ele>
        <time>2018-10-20T09:19:22Z</time>
      </trkpt>
      <trkpt lat="45.9521" lon="4.91071">
        <ele>297</ele>
        <time>2018-10-20T09:19:23Z</time>
      </trkpt>
      <trkpt lat="45.95214" lon="4.91081">
        <ele>297</ele>
        <time>2018-10-20T09:20:18Z</time>
      </trkpt>
      <trkpt lat="45.95215" lon="4.91083">
        <ele>297</ele>
        <time>2018-10-20T09:20:19Z</time>
      </trkpt>
      <trkpt lat="45.95221" lon="4.91092">
        <ele>298</ele>
        <time>2018-10-20T09:20:23Z</time>
      </trkpt>
      <trkpt lat="45.95224" lon="4.91095">
        <ele>298</ele>
        <time>2018-10-20T09:20:24Z</time>
      </trkpt>
      <trkpt lat="45.95228" lon="4.91103">
        <ele>298</ele>
        <time>2018-10-20T09:20:27Z</time>
      </trkpt>
      <trkpt lat="45.9523" lon="4.91105">
        <ele>298</ele>
        <time>2018-10-20T09:20:28Z</time>
      </trkpt>
      <trkpt lat="45.95234" lon="4.91114">
        <ele>298</ele>
        <time>2018-10-20T09:20:31Z</time>
      </trkpt>
      <trkpt lat="45.95235" lon="4.91117">
        <ele>298</ele>
        <time>2018-10-20T09:20:32Z</time>
      </trkpt>
      <trkpt lat="45.95238" lon="4.91124">
        <ele>298</ele>
        <time>2018-10-20T09:20:34Z</time>
      </trkpt>
      <trkpt lat="45.95241" lon="4.91129">
        <ele>298</ele>
        <time>2018-10-20T09:20:35Z</time>
      </trkpt>
      <trkpt lat="45.95246" lon="4.9114">
        <ele>298</ele>
        <time>2018-10-20T09:20:36Z</time>
      </trkpt>
      <trkpt lat="45.95251" lon="4.91151">
        <ele>299</ele>
        <time>2018-10-20T09:20:39Z</time>
      </trkpt>
      <trkpt lat="45.95253" lon="4.91154">
        <ele>299</ele>
        <time>2018-10-20T09:20:40Z</time>
      </trkpt>
      <trkpt lat="45.95255" lon="4.91161">
        <ele>299</ele>
        <time>2018-10-20T09:20:42Z</time>
      </trkpt>
      <trkpt lat="45.95259" lon="4.91171">
        <ele>299</ele>
        <time>2018-10-20T09:20:43Z</time>
      </trkpt>
      <trkpt lat="45.95263" lon="4.9118">
        <ele>299</ele>
        <time>2018-10-20T09:20:45Z</time>
      </trkpt>
      <trkpt lat="45.95264" lon="4.91182">
        <ele>299</ele>
        <time>2018-10-20T09:20:46Z</time>
      </trkpt>
      <trkpt lat="45.95268" lon="4.91191">
        <ele>299</ele>
        <time>2018-10-20T09:20:48Z</time>
      </trkpt>
      <trkpt lat="45.9527" lon="4.91194">
        <ele>299</ele>
        <time>2018-10-20T09:20:49Z</time>
      </trkpt>
      <trkpt lat="45.95273" lon="4.91202">
        <ele>299</ele>
        <time>2018-10-20T09:20:52Z</time>
      </trkpt>
      <trkpt lat="45.95278" lon="4.91213">
        <ele>299</ele>
        <time>2018-10-20T09:20:53Z</time>
      </trkpt>
      <trkpt lat="45.95281" lon="4.91224">
        <ele>299</ele>
        <time>2018-10-20T09:20:57Z</time>
      </trkpt>
      <trkpt lat="45.95283" lon="4.91228">
        <ele>299</ele>
        <time>2018-10-20T09:20:58Z</time>
      </trkpt>
      <trkpt lat="45.95284" lon="4.91232">
        <ele>299</ele>
        <time>2018-10-20T09:20:59Z</time>
      </trkpt>
      <trkpt lat="45.95287" lon="4.91243">
        <ele>299</ele>
        <time>2018-10-20T09:21:00Z</time>
      </trkpt>
      <trkpt lat="45.95292" lon="4.91252">
        <ele>298</ele>
        <time>2018-10-20T09:21:01Z</time>
      </trkpt>
      <trkpt lat="45.95293" lon="4.91254">
        <ele>298</ele>
        <time>2018-10-20T09:21:02Z</time>
      </trkpt>
      <trkpt lat="45.95297" lon="4.91265">
        <ele>298</ele>
        <time>2018-10-20T09:21:05Z</time>
      </trkpt>
      <trkpt lat="45.953" lon="4.91275">
        <ele>298</ele>
        <time>2018-10-20T09:21:06Z</time>
      </trkpt>
      <trkpt lat="45.95301" lon="4.91287">
        <ele>298</ele>
        <time>2018-10-20T09:21:11Z</time>
      </trkpt>
      <trkpt lat="45.95301" lon="4.9129">
        <ele>298</ele>
        <time>2018-10-20T09:21:12Z</time>
      </trkpt>
      <trkpt lat="45.95303" lon="4.91302">
        <ele>298</ele>
        <time>2018-10-20T09:21:15Z</time>
      </trkpt>
      <trkpt lat="45.95304" lon="4.91307">
        <ele>298</ele>
        <time>2018-10-20T09:21:16Z</time>
      </trkpt>
      <trkpt lat="45.95308" lon="4.91322">
        <ele>298</ele>
        <time>2018-10-20T09:21:17Z</time>
      </trkpt>
      <trkpt lat="45.95309" lon="4.91328">
        <ele>298</ele>
        <time>2018-10-20T09:21:19Z</time>
      </trkpt>
      <trkpt lat="45.9531" lon="4.91338">
        <ele>297</ele>
        <time>2018-10-20T09:21:20Z</time>
      </trkpt>
      <trkpt lat="45.95313" lon="4.91348">
        <ele>298</ele>
        <time>2018-10-20T09:21:22Z</time>
      </trkpt>
      <trkpt lat="45.95314" lon="4.91354">
        <ele>298</ele>
        <time>2018-10-20T09:21:23Z</time>
      </trkpt>
      <trkpt lat="45.95315" lon="4.91363">
        <ele>298</ele>
        <time>2018-10-20T09:21:26Z</time>
      </trkpt>
      <trkpt lat="45.95316" lon="4.91367">
        <ele>298</ele>
        <time>2018-10-20T09:21:27Z</time>
      </trkpt>
      <trkpt lat="45.95316" lon="4.91371">
        <ele>298</ele>
        <time>2018-10-20T09:21:28Z</time>
      </trkpt>
      <trkpt lat="45.95318" lon="4.91384">
        <ele>298</ele>
        <time>2018-10-20T09:21:29Z</time>
      </trkpt>
      <trkpt lat="45.9532" lon="4.91389">
        <ele>298</ele>
        <time>2018-10-20T09:21:31Z</time>
      </trkpt>
      <trkpt lat="45.95322" lon="4.91398">
        <ele>298</ele>
        <time>2018-10-20T09:21:32Z</time>
      </trkpt>
      <trkpt lat="45.95323" lon="4.91404">
        <ele>298</ele>
        <time>2018-10-20T09:21:34Z</time>
      </trkpt>
      <trkpt lat="45.95325" lon="4.91414">
        <ele>298</ele>
        <time>2018-10-20T09:21:35Z</time>
      </trkpt>
      <trkpt lat="45.95326" lon="4.91419">
        <ele>298</ele>
        <time>2018-10-20T09:21:37Z</time>
      </trkpt>
      <trkpt lat="45.95327" lon="4.91428">
        <ele>298</ele>
        <time>2018-10-20T09:21:38Z</time>
      </trkpt>
      <trkpt lat="45.95329" lon="4.91436">
        <ele>298</ele>
        <time>2018-10-20T09:21:41Z</time>
      </trkpt>
      <trkpt lat="45.95332" lon="4.91445">
        <ele>298</ele>
        <time>2018-10-20T09:21:42Z</time>
      </trkpt>
      <trkpt lat="45.95334" lon="4.91455">
        <ele>298</ele>
        <time>2018-10-20T09:21:44Z</time>
      </trkpt>
      <trkpt lat="45.95335" lon="4.91458">
        <ele>298</ele>
        <time>2018-10-20T09:21:45Z</time>
      </trkpt>
      <trkpt lat="45.95337" lon="4.91468">
        <ele>298</ele>
        <time>2018-10-20T09:21:48Z</time>
      </trkpt>
      <trkpt lat="45.95338" lon="4.91471">
        <ele>298</ele>
        <time>2018-10-20T09:21:49Z</time>
      </trkpt>
      <trkpt lat="45.95341" lon="4.91482">
        <ele>298</ele>
        <time>2018-10-20T09:21:52Z</time>
      </trkpt>
      <trkpt lat="45.95346" lon="4.91494">
        <ele>298</ele>
        <time>2018-10-20T09:21:53Z</time>
      </trkpt>
      <trkpt lat="45.9535" lon="4.91503">
        <ele>299</ele>
        <time>2018-10-20T09:21:58Z</time>
      </trkpt>
      <trkpt lat="45.95352" lon="4.91513">
        <ele>299</ele>
        <time>2018-10-20T09:21:59Z</time>
      </trkpt>
      <trkpt lat="45.95354" lon="4.91525">
        <ele>299</ele>
        <time>2018-10-20T09:22:01Z</time>
      </trkpt>
      <trkpt lat="45.95356" lon="4.91531">
        <ele>299</ele>
        <time>2018-10-20T09:22:02Z</time>
      </trkpt>
      <trkpt lat="45.95359" lon="4.91542">
        <ele>300</ele>
        <time>2018-10-20T09:22:05Z</time>
      </trkpt>
      <trkpt lat="45.9536" lon="4.91546">
        <ele>300</ele>
        <time>2018-10-20T09:22:06Z</time>
      </trkpt>
      <trkpt lat="45.95362" lon="4.91555">
        <ele>300</ele>
        <time>2018-10-20T09:22:08Z</time>
      </trkpt>
      <trkpt lat="45.95362" lon="4.9156">
        <ele>300</ele>
        <time>2018-10-20T09:22:09Z</time>
      </trkpt>
      <trkpt lat="45.95364" lon="4.91569">
        <ele>300</ele>
        <time>2018-10-20T09:22:11Z</time>
      </trkpt>
      <trkpt lat="45.95366" lon="4.91579">
        <ele>300</ele>
        <time>2018-10-20T09:22:12Z</time>
      </trkpt>
      <trkpt lat="45.95369" lon="4.9159">
        <ele>300</ele>
        <time>2018-10-20T09:22:14Z</time>
      </trkpt>
      <trkpt lat="45.9537" lon="4.91593">
        <ele>300</ele>
        <time>2018-10-20T09:22:15Z</time>
      </trkpt>
      <trkpt lat="45.95372" lon="4.916">
        <ele>300</ele>
        <time>2018-10-20T09:22:16Z</time>
      </trkpt>
      <trkpt lat="45.95374" lon="4.91606">
        <ele>300</ele>
        <time>2018-10-20T09:22:17Z</time>
      </trkpt>
      <trkpt lat="45.95379" lon="4.91617">
        <ele>301</ele>
        <time>2018-10-20T09:22:20Z</time>
      </trkpt>
      <trkpt lat="45.9538" lon="4.91621">
        <ele>301</ele>
        <time>2018-10-20T09:22:21Z</time>
      </trkpt>
      <trkpt lat="45.95385" lon="4.91629">
        <ele>301</ele>
        <time>2018-10-20T09:22:22Z</time>
      </trkpt>
      <trkpt lat="45.95386" lon="4.91632">
        <ele>301</ele>
        <time>2018-10-20T09:22:23Z</time>
      </trkpt>
      <trkpt lat="45.9539" lon="4.91641">
        <ele>301</ele>
        <time>2018-10-20T09:22:25Z</time>
      </trkpt>
      <trkpt lat="45.95392" lon="4.91647">
        <ele>301</ele>
        <time>2018-10-20T09:22:26Z</time>
      </trkpt>
      <trkpt lat="45.95395" lon="4.91657">
        <ele>301</ele>
        <time>2018-10-20T09:22:28Z</time>
      </trkpt>
      <trkpt lat="45.95398" lon="4.91661">
        <ele>301</ele>
        <time>2018-10-20T09:22:29Z</time>
      </trkpt>
      <trkpt lat="45.95402" lon="4.91672">
        <ele>300</ele>
        <time>2018-10-20T09:22:32Z</time>
      </trkpt>
      <trkpt lat="45.95404" lon="4.91681">
        <ele>300</ele>
        <time>2018-10-20T09:22:33Z</time>
      </trkpt>
      <trkpt lat="45.95407" lon="4.91692">
        <ele>300</ele>
        <time>2018-10-20T09:22:35Z</time>
      </trkpt>
      <trkpt lat="45.95408" lon="4.91697">
        <ele>299</ele>
        <time>2018-10-20T09:22:36Z</time>
      </trkpt>
      <trkpt lat="45.9541" lon="4.91706">
        <ele>299</ele>
        <time>2018-10-20T09:22:37Z</time>
      </trkpt>
      <trkpt lat="45.95415" lon="4.9171">
        <ele>299</ele>
        <time>2018-10-20T09:22:38Z</time>
      </trkpt>
      <trkpt lat="45.95417" lon="4.91722">
        <ele>300</ele>
        <time>2018-10-20T09:22:41Z</time>
      </trkpt>
      <trkpt lat="45.95419" lon="4.91728">
        <ele>300</ele>
        <time>2018-10-20T09:22:42Z</time>
      </trkpt>
      <trkpt lat="45.95422" lon="4.91738">
        <ele>300</ele>
        <time>2018-10-20T09:22:44Z</time>
      </trkpt>
      <trkpt lat="45.95424" lon="4.91744">
        <ele>299</ele>
        <time>2018-10-20T09:22:45Z</time>
      </trkpt>
      <trkpt lat="45.95427" lon="4.91749">
        <ele>299</ele>
        <time>2018-10-20T09:22:46Z</time>
      </trkpt>
      <trkpt lat="45.9543" lon="4.91756">
        <ele>298</ele>
        <time>2018-10-20T09:22:47Z</time>
      </trkpt>
      <trkpt lat="45.95431" lon="4.91762">
        <ele>298</ele>
        <time>2018-10-20T09:22:48Z</time>
      </trkpt>
      <trkpt lat="45.95433" lon="4.91769">
        <ele>298</ele>
        <time>2018-10-20T09:22:49Z</time>
      </trkpt>
      <trkpt lat="45.95436" lon="4.91775">
        <ele>298</ele>
        <time>2018-10-20T09:22:50Z</time>
      </trkpt>
      <trkpt lat="45.95439" lon="4.91781">
        <ele>298</ele>
        <time>2018-10-20T09:22:51Z</time>
      </trkpt>
      <trkpt lat="45.95442" lon="4.91787">
        <ele>298</ele>
        <time>2018-10-20T09:22:52Z</time>
      </trkpt>
      <trkpt lat="45.95445" lon="4.91794">
        <ele>298</ele>
        <time>2018-10-20T09:22:53Z</time>
      </trkpt>
      <trkpt lat="45.95448" lon="4.918">
        <ele>298</ele>
        <time>2018-10-20T09:22:54Z</time>
      </trkpt>
      <trkpt lat="45.9545" lon="4.91805">
        <ele>297</ele>
        <time>2018-10-20T09:22:55Z</time>
      </trkpt>
      <trkpt lat="45.95452" lon="4.91811">
        <ele>297</ele>
        <time>2018-10-20T09:22:56Z</time>
      </trkpt>
      <trkpt lat="45.95455" lon="4.91816">
        <ele>297</ele>
        <time>2018-10-20T09:22:57Z</time>
      </trkpt>
      <trkpt lat="45.9546" lon="4.91821">
        <ele>297</ele>
        <time>2018-10-20T09:22:58Z</time>
      </trkpt>
      <trkpt lat="45.95465" lon="4.91825">
        <ele>297</ele>
        <time>2018-10-20T09:22:59Z</time>
      </trkpt>
      <trkpt lat="45.95468" lon="4.91829">
        <ele>297</ele>
        <time>2018-10-20T09:23:00Z</time>
      </trkpt>
      <trkpt lat="45.95474" lon="4.91833">
        <ele>297</ele>
        <time>2018-10-20T09:23:01Z</time>
      </trkpt>
      <trkpt lat="45.95477" lon="4.91838">
        <ele>295</ele>
        <time>2018-10-20T09:23:02Z</time>
      </trkpt>
      <trkpt lat="45.95482" lon="4.91841">
        <ele>295</ele>
        <time>2018-10-20T09:23:03Z</time>
      </trkpt>
      <trkpt lat="45.95487" lon="4.91845">
        <ele>295</ele>
        <time>2018-10-20T09:23:04Z</time>
      </trkpt>
      <trkpt lat="45.95491" lon="4.91849">
        <ele>295</ele>
        <time>2018-10-20T09:23:05Z</time>
      </trkpt>
      <trkpt lat="45.95496" lon="4.91853">
        <ele>295</ele>
        <time>2018-10-20T09:23:06Z</time>
      </trkpt>
      <trkpt lat="45.955" lon="4.91857">
        <ele>295</ele>
        <time>2018-10-20T09:23:07Z</time>
      </trkpt>
      <trkpt lat="45.95505" lon="4.9186">
        <ele>295</ele>
        <time>2018-10-20T09:23:08Z</time>
      </trkpt>
      <trkpt lat="45.95508" lon="4.91864">
        <ele>295</ele>
        <time>2018-10-20T09:23:09Z</time>
      </trkpt>
      <trkpt lat="45.95513" lon="4.91868">
        <ele>295</ele>
        <time>2018-10-20T09:23:10Z</time>
      </trkpt>
      <trkpt lat="45.95517" lon="4.91871">
        <ele>295</ele>
        <time>2018-10-20T09:23:11Z</time>
      </trkpt>
      <trkpt lat="45.95524" lon="4.91876">
        <ele>294</ele>
        <time>2018-10-20T09:23:13Z</time>
      </trkpt>
      <trkpt lat="45.95528" lon="4.91879">
        <ele>294</ele>
        <time>2018-10-20T09:23:14Z</time>
      </trkpt>
      <trkpt lat="45.95535" lon="4.91885">
        <ele>294</ele>
        <time>2018-10-20T09:23:16Z</time>
      </trkpt>
      <trkpt lat="45.95539" lon="4.91889">
        <ele>294</ele>
        <time>2018-10-20T09:23:17Z</time>
      </trkpt>
      <trkpt lat="45.95546" lon="4.91896">
        <ele>294</ele>
        <time>2018-10-20T09:23:19Z</time>
      </trkpt>
      <trkpt lat="45.95553" lon="4.91901">
        <ele>294</ele>
        <time>2018-10-20T09:23:20Z</time>
      </trkpt>
      <trkpt lat="45.95558" lon="4.91906">
        <ele>294</ele>
        <time>2018-10-20T09:23:21Z</time>
      </trkpt>
      <trkpt lat="45.95563" lon="4.91909">
        <ele>294</ele>
        <time>2018-10-20T09:23:22Z</time>
      </trkpt>
      <trkpt lat="45.95568" lon="4.91912">
        <ele>294</ele>
        <time>2018-10-20T09:23:23Z</time>
      </trkpt>
      <trkpt lat="45.95574" lon="4.91914">
        <ele>293</ele>
        <time>2018-10-20T09:23:24Z</time>
      </trkpt>
      <trkpt lat="45.95579" lon="4.91917">
        <ele>293</ele>
        <time>2018-10-20T09:23:25Z</time>
      </trkpt>
      <trkpt lat="45.95585" lon="4.91916">
        <ele>293</ele>
        <time>2018-10-20T09:23:26Z</time>
      </trkpt>
      <trkpt lat="45.95592" lon="4.91918">
        <ele>293</ele>
        <time>2018-10-20T09:23:27Z</time>
      </trkpt>
      <trkpt lat="45.95593" lon="4.91923">
        <ele>294</ele>
        <time>2018-10-20T09:23:28Z</time>
      </trkpt>
      <trkpt lat="45.95601" lon="4.91923">
        <ele>294</ele>
        <time>2018-10-20T09:23:29Z</time>
      </trkpt>
      <trkpt lat="45.95606" lon="4.9193">
        <ele>294</ele>
        <time>2018-10-20T09:23:30Z</time>
      </trkpt>
      <trkpt lat="45.95612" lon="4.91935">
        <ele>294</ele>
        <time>2018-10-20T09:23:31Z</time>
      </trkpt>
      <trkpt lat="45.95615" lon="4.91942">
        <ele>294</ele>
        <time>2018-10-20T09:23:32Z</time>
      </trkpt>
      <trkpt lat="45.95618" lon="4.9195">
        <ele>295</ele>
        <time>2018-10-20T09:23:33Z</time>
      </trkpt>
      <trkpt lat="45.95623" lon="4.91953">
        <ele>295</ele>
        <time>2018-10-20T09:23:34Z</time>
      </trkpt>
      <trkpt lat="45.9563" lon="4.91962">
        <ele>295</ele>
        <time>2018-10-20T09:23:36Z</time>
      </trkpt>
      <trkpt lat="45.95634" lon="4.91967">
        <ele>295</ele>
        <time>2018-10-20T09:23:37Z</time>
      </trkpt>
      <trkpt lat="45.95636" lon="4.91974">
        <ele>295</ele>
        <time>2018-10-20T09:23:38Z</time>
      </trkpt>
      <trkpt lat="45.95639" lon="4.91979">
        <ele>295</ele>
        <time>2018-10-20T09:23:39Z</time>
      </trkpt>
      <trkpt lat="45.95641" lon="4.91985">
        <ele>296</ele>
        <time>2018-10-20T09:23:40Z</time>
      </trkpt>
      <trkpt lat="45.95645" lon="4.91989">
        <ele>296</ele>
        <time>2018-10-20T09:23:41Z</time>
      </trkpt>
      <trkpt lat="45.95649" lon="4.91996">
        <ele>296</ele>
        <time>2018-10-20T09:23:43Z</time>
      </trkpt>
      <trkpt lat="45.95652" lon="4.92002">
        <ele>297</ele>
        <time>2018-10-20T09:23:44Z</time>
      </trkpt>
      <trkpt lat="45.95659" lon="4.9201">
        <ele>297</ele>
        <time>2018-10-20T09:23:46Z</time>
      </trkpt>
      <trkpt lat="45.95662" lon="4.92016">
        <ele>297</ele>
        <time>2018-10-20T09:23:47Z</time>
      </trkpt>
      <trkpt lat="45.95665" lon="4.92021">
        <ele>297</ele>
        <time>2018-10-20T09:23:48Z</time>
      </trkpt>
      <trkpt lat="45.95667" lon="4.92028">
        <ele>297</ele>
        <time>2018-10-20T09:23:49Z</time>
      </trkpt>
      <trkpt lat="45.95668" lon="4.92039">
        <ele>300</ele>
        <time>2018-10-20T09:23:51Z</time>
      </trkpt>
      <trkpt lat="45.95669" lon="4.92044">
        <ele>300</ele>
        <time>2018-10-20T09:23:52Z</time>
      </trkpt>
      <trkpt lat="45.95669" lon="4.9205">
        <ele>300</ele>
        <time>2018-10-20T09:23:53Z</time>
      </trkpt>
      <trkpt lat="45.95668" lon="4.92057">
        <ele>300</ele>
        <time>2018-10-20T09:23:54Z</time>
      </trkpt>
      <trkpt lat="45.95667" lon="4.92065">
        <ele>300</ele>
        <time>2018-10-20T09:23:55Z</time>
      </trkpt>
      <trkpt lat="45.95666" lon="4.92073">
        <ele>298</ele>
        <time>2018-10-20T09:23:56Z</time>
      </trkpt>
      <trkpt lat="45.95666" lon="4.92081">
        <ele>299</ele>
        <time>2018-10-20T09:23:57Z</time>
      </trkpt>
      <trkpt lat="45.95664" lon="4.92089">
        <ele>298</ele>
        <time>2018-10-20T09:23:58Z</time>
      </trkpt>
      <trkpt lat="45.95663" lon="4.92097">
        <ele>297</ele>
        <time>2018-10-20T09:23:59Z</time>
      </trkpt>
      <trkpt lat="45.95662" lon="4.92105">
        <ele>297</ele>
        <time>2018-10-20T09:24:00Z</time>
      </trkpt>
      <trkpt lat="45.95663" lon="4.92113">
        <ele>296</ele>
        <time>2018-10-20T09:24:01Z</time>
      </trkpt>
      <trkpt lat="45.95663" lon="4.92121">
        <ele>296</ele>
        <time>2018-10-20T09:24:02Z</time>
      </trkpt>
      <trkpt lat="45.95662" lon="4.92128">
        <ele>296</ele>
        <time>2018-10-20T09:24:03Z</time>
      </trkpt>
      <trkpt lat="45.95662" lon="4.92136">
        <ele>296</ele>
        <time>2018-10-20T09:24:04Z</time>
      </trkpt>
      <trkpt lat="45.95662" lon="4.92143">
        <ele>296</ele>
        <time>2018-10-20T09:24:05Z</time>
      </trkpt>
      <trkpt lat="45.95662" lon="4.92151">
        <ele>296</ele>
        <time>2018-10-20T09:24:06Z</time>
      </trkpt>
      <trkpt lat="45.95663" lon="4.92158">
        <ele>296</ele>
        <time>2018-10-20T09:24:07Z</time>
      </trkpt>
      <trkpt lat="45.95663" lon="4.92166">
        <ele>297</ele>
        <time>2018-10-20T09:24:08Z</time>
      </trkpt>
      <trkpt lat="45.95662" lon="4.92173">
        <ele>296</ele>
        <time>2018-10-20T09:24:09Z</time>
      </trkpt>
      <trkpt lat="45.95663" lon="4.92182">
        <ele>295</ele>
        <time>2018-10-20T09:24:10Z</time>
      </trkpt>
      <trkpt lat="45.95663" lon="4.92188">
        <ele>295</ele>
        <time>2018-10-20T09:24:11Z</time>
      </trkpt>
      <trkpt lat="45.95663" lon="4.92197">
        <ele>295</ele>
        <time>2018-10-20T09:24:12Z</time>
      </trkpt>
      <trkpt lat="45.95664" lon="4.92205">
        <ele>294</ele>
        <time>2018-10-20T09:24:13Z</time>
      </trkpt>
      <trkpt lat="45.95665" lon="4.92214">
        <ele>294</ele>
        <time>2018-10-20T09:24:14Z</time>
      </trkpt>
      <trkpt lat="45.95664" lon="4.92223">
        <ele>294</ele>
        <time>2018-10-20T09:24:15Z</time>
      </trkpt>
      <trkpt lat="45.95664" lon="4.9223">
        <ele>294</ele>
        <time>2018-10-20T09:24:16Z</time>
      </trkpt>
      <trkpt lat="45.95665" lon="4.92239">
        <ele>294</ele>
        <time>2018-10-20T09:24:17Z</time>
      </trkpt>
      <trkpt lat="45.95664" lon="4.92247">
        <ele>294</ele>
        <time>2018-10-20T09:24:18Z</time>
      </trkpt>
      <trkpt lat="45.95664" lon="4.92254">
        <ele>294</ele>
        <time>2018-10-20T09:24:19Z</time>
      </trkpt>
      <trkpt lat="45.95663" lon="4.92261">
        <ele>294</ele>
        <time>2018-10-20T09:24:20Z</time>
      </trkpt>
      <trkpt lat="45.95663" lon="4.92268">
        <ele>294</ele>
        <time>2018-10-20T09:24:21Z</time>
      </trkpt>
      <trkpt lat="45.95663" lon="4.92275">
        <ele>293</ele>
        <time>2018-10-20T09:24:22Z</time>
      </trkpt>
      <trkpt lat="45.95662" lon="4.92282">
        <ele>293</ele>
        <time>2018-10-20T09:24:23Z</time>
      </trkpt>
      <trkpt lat="45.95662" lon="4.9229">
        <ele>293</ele>
        <time>2018-10-20T09:24:24Z</time>
      </trkpt>
      <trkpt lat="45.95662" lon="4.92298">
        <ele>293</ele>
        <time>2018-10-20T09:24:25Z</time>
      </trkpt>
      <trkpt lat="45.95662" lon="4.92304">
        <ele>293</ele>
        <time>2018-10-20T09:24:26Z</time>
      </trkpt>
      <trkpt lat="45.95662" lon="4.92315">
        <ele>293</ele>
        <time>2018-10-20T09:24:27Z</time>
      </trkpt>
      <trkpt lat="45.9566" lon="4.92323">
        <ele>293</ele>
        <time>2018-10-20T09:24:28Z</time>
      </trkpt>
      <trkpt lat="45.9566" lon="4.92333">
        <ele>293</ele>
        <time>2018-10-20T09:24:29Z</time>
      </trkpt>
      <trkpt lat="45.9566" lon="4.92343">
        <ele>293</ele>
        <time>2018-10-20T09:24:30Z</time>
      </trkpt>
      <trkpt lat="45.95658" lon="4.9235">
        <ele>293</ele>
        <time>2018-10-20T09:24:31Z</time>
      </trkpt>
      <trkpt lat="45.95658" lon="4.92359">
        <ele>293</ele>
        <time>2018-10-20T09:24:32Z</time>
      </trkpt>
      <trkpt lat="45.95656" lon="4.92366">
        <ele>293</ele>
        <time>2018-10-20T09:24:33Z</time>
      </trkpt>
      <trkpt lat="45.95656" lon="4.92375">
        <ele>293</ele>
        <time>2018-10-20T09:24:34Z</time>
      </trkpt>
      <trkpt lat="45.95655" lon="4.92383">
        <ele>293</ele>
        <time>2018-10-20T09:24:35Z</time>
      </trkpt>
      <trkpt lat="45.95654" lon="4.9239">
        <ele>293</ele>
        <time>2018-10-20T09:24:36Z</time>
      </trkpt>
      <trkpt lat="45.95653" lon="4.92397">
        <ele>293</ele>
        <time>2018-10-20T09:24:37Z</time>
      </trkpt>
      <trkpt lat="45.95651" lon="4.92404">
        <ele>293</ele>
        <time>2018-10-20T09:24:38Z</time>
      </trkpt>
      <trkpt lat="45.95649" lon="4.92416">
        <ele>293</ele>
        <time>2018-10-20T09:24:40Z</time>
      </trkpt>
      <trkpt lat="45.95648" lon="4.92423">
        <ele>293</ele>
        <time>2018-10-20T09:24:41Z</time>
      </trkpt>
      <trkpt lat="45.95648" lon="4.92431">
        <ele>293</ele>
        <time>2018-10-20T09:24:42Z</time>
      </trkpt>
      <trkpt lat="45.95646" lon="4.92437">
        <ele>293</ele>
        <time>2018-10-20T09:24:43Z</time>
      </trkpt>
      <trkpt lat="45.95645" lon="4.92444">
        <ele>293</ele>
        <time>2018-10-20T09:24:44Z</time>
      </trkpt>
      <trkpt lat="45.95644" lon="4.92452">
        <ele>293</ele>
        <time>2018-10-20T09:24:45Z</time>
      </trkpt>
      <trkpt lat="45.95643" lon="4.9246">
        <ele>293</ele>
        <time>2018-10-20T09:24:46Z</time>
      </trkpt>
      <trkpt lat="45.95642" lon="4.92468">
        <ele>293</ele>
        <time>2018-10-20T09:24:47Z</time>
      </trkpt>
      <trkpt lat="45.95641" lon="4.92475">
        <ele>293</ele>
        <time>2018-10-20T09:24:48Z</time>
      </trkpt>
      <trkpt lat="45.9564" lon="4.92482">
        <ele>293</ele>
        <time>2018-10-20T09:24:49Z</time>
      </trkpt>
      <trkpt lat="45.95639" lon="4.9249">
        <ele>293</ele>
        <time>2018-10-20T09:24:50Z</time>
      </trkpt>
      <trkpt lat="45.95637" lon="4.92496">
        <ele>293</ele>
        <time>2018-10-20T09:24:51Z</time>
      </trkpt>
      <trkpt lat="45.95635" lon="4.92503">
        <ele>294</ele>
        <time>2018-10-20T09:24:52Z</time>
      </trkpt>
      <trkpt lat="45.95634" lon="4.92512">
        <ele>294</ele>
        <time>2018-10-20T09:24:53Z</time>
      </trkpt>
      <trkpt lat="45.95633" lon="4.92519">
        <ele>294</ele>
        <time>2018-10-20T09:24:54Z</time>
      </trkpt>
      <trkpt lat="45.95633" lon="4.9253">
        <ele>294</ele>
        <time>2018-10-20T09:24:55Z</time>
      </trkpt>
      <trkpt lat="45.95632" lon="4.92538">
        <ele>294</ele>
        <time>2018-10-20T09:24:56Z</time>
      </trkpt>
      <trkpt lat="45.95632" lon="4.92546">
        <ele>294</ele>
        <time>2018-10-20T09:24:57Z</time>
      </trkpt>
      <trkpt lat="45.95631" lon="4.92555">
        <ele>294</ele>
        <time>2018-10-20T09:24:58Z</time>
      </trkpt>
      <trkpt lat="45.9563" lon="4.92564">
        <ele>294</ele>
        <time>2018-10-20T09:24:59Z</time>
      </trkpt>
      <trkpt lat="45.95629" lon="4.92571">
        <ele>294</ele>
        <time>2018-10-20T09:25:00Z</time>
      </trkpt>
      <trkpt lat="45.95629" lon="4.92579">
        <ele>294</ele>
        <time>2018-10-20T09:25:01Z</time>
      </trkpt>
      <trkpt lat="45.95629" lon="4.92586">
        <ele>294</ele>
        <time>2018-10-20T09:25:02Z</time>
      </trkpt>
      <trkpt lat="45.95628" lon="4.92594">
        <ele>294</ele>
        <time>2018-10-20T09:25:03Z</time>
      </trkpt>
      <trkpt lat="45.95626" lon="4.92599">
        <ele>294</ele>
        <time>2018-10-20T09:25:04Z</time>
      </trkpt>
      <trkpt lat="45.95625" lon="4.92607">
        <ele>294</ele>
        <time>2018-10-20T09:25:05Z</time>
      </trkpt>
      <trkpt lat="45.95623" lon="4.92615">
        <ele>294</ele>
        <time>2018-10-20T09:25:06Z</time>
      </trkpt>
      <trkpt lat="45.95622" lon="4.92621">
        <ele>294</ele>
        <time>2018-10-20T09:25:07Z</time>
      </trkpt>
      <trkpt lat="45.95622" lon="4.9263">
        <ele>294</ele>
        <time>2018-10-20T09:25:08Z</time>
      </trkpt>
      <trkpt lat="45.9562" lon="4.92637">
        <ele>294</ele>
        <time>2018-10-20T09:25:09Z</time>
      </trkpt>
      <trkpt lat="45.9562" lon="4.92646">
        <ele>294</ele>
        <time>2018-10-20T09:25:10Z</time>
      </trkpt>
      <trkpt lat="45.95617" lon="4.92652">
        <ele>294</ele>
        <time>2018-10-20T09:25:11Z</time>
      </trkpt>
      <trkpt lat="45.95614" lon="4.92661">
        <ele>294</ele>
        <time>2018-10-20T09:25:12Z</time>
      </trkpt>
      <trkpt lat="45.95612" lon="4.92669">
        <ele>295</ele>
        <time>2018-10-20T09:25:13Z</time>
      </trkpt>
      <trkpt lat="45.95612" lon="4.92678">
        <ele>295</ele>
        <time>2018-10-20T09:25:14Z</time>
      </trkpt>
      <trkpt lat="45.95611" lon="4.92687">
        <ele>295</ele>
        <time>2018-10-20T09:25:15Z</time>
      </trkpt>
      <trkpt lat="45.9561" lon="4.92696">
        <ele>295</ele>
        <time>2018-10-20T09:25:16Z</time>
      </trkpt>
      <trkpt lat="45.95609" lon="4.92704">
        <ele>295</ele>
        <time>2018-10-20T09:25:17Z</time>
      </trkpt>
      <trkpt lat="45.95606" lon="4.92711">
        <ele>295</ele>
        <time>2018-10-20T09:25:18Z</time>
      </trkpt>
      <trkpt lat="45.95606" lon="4.92717">
        <ele>295</ele>
        <time>2018-10-20T09:25:19Z</time>
      </trkpt>
      <trkpt lat="45.95604" lon="4.92724">
        <ele>295</ele>
        <time>2018-10-20T09:25:20Z</time>
      </trkpt>
      <trkpt lat="45.95602" lon="4.92731">
        <ele>295</ele>
        <time>2018-10-20T09:25:21Z</time>
      </trkpt>
      <trkpt lat="45.95599" lon="4.92742">
        <ele>295</ele>
        <time>2018-10-20T09:25:23Z</time>
      </trkpt>
      <trkpt lat="45.95599" lon="4.92749">
        <ele>295</ele>
        <time>2018-10-20T09:25:24Z</time>
      </trkpt>
      <trkpt lat="45.95597" lon="4.92757">
        <ele>295</ele>
        <time>2018-10-20T09:25:25Z</time>
      </trkpt>
      <trkpt lat="45.95596" lon="4.92763">
        <ele>295</ele>
        <time>2018-10-20T09:25:26Z</time>
      </trkpt>
      <trkpt lat="45.95594" lon="4.9277">
        <ele>295</ele>
        <time>2018-10-20T09:25:27Z</time>
      </trkpt>
      <trkpt lat="45.95593" lon="4.92777">
        <ele>295</ele>
        <time>2018-10-20T09:25:28Z</time>
      </trkpt>
      <trkpt lat="45.95592" lon="4.92787">
        <ele>295</ele>
        <time>2018-10-20T09:25:29Z</time>
      </trkpt>
      <trkpt lat="45.95591" lon="4.92794">
        <ele>295</ele>
        <time>2018-10-20T09:25:30Z</time>
      </trkpt>
      <trkpt lat="45.95589" lon="4.92802">
        <ele>295</ele>
        <time>2018-10-20T09:25:31Z</time>
      </trkpt>
      <trkpt lat="45.95588" lon="4.92809">
        <ele>295</ele>
        <time>2018-10-20T09:25:32Z</time>
      </trkpt>
      <trkpt lat="45.95586" lon="4.92816">
        <ele>295</ele>
        <time>2018-10-20T09:25:33Z</time>
      </trkpt>
      <trkpt lat="45.95584" lon="4.92823">
        <ele>295</ele>
        <time>2018-10-20T09:25:34Z</time>
      </trkpt>
      <trkpt lat="45.95583" lon="4.92831">
        <ele>295</ele>
        <time>2018-10-20T09:25:35Z</time>
      </trkpt>
      <trkpt lat="45.95582" lon="4.92838">
        <ele>295</ele>
        <time>2018-10-20T09:25:36Z</time>
      </trkpt>
      <trkpt lat="45.95581" lon="4.92846">
        <ele>294</ele>
        <time>2018-10-20T09:25:37Z</time>
      </trkpt>
      <trkpt lat="45.9558" lon="4.92853">
        <ele>294</ele>
        <time>2018-10-20T09:25:38Z</time>
      </trkpt>
      <trkpt lat="45.95579" lon="4.9286">
        <ele>294</ele>
        <time>2018-10-20T09:25:39Z</time>
      </trkpt>
      <trkpt lat="45.95577" lon="4.92867">
        <ele>294</ele>
        <time>2018-10-20T09:25:40Z</time>
      </trkpt>
      <trkpt lat="45.95576" lon="4.92874">
        <ele>294</ele>
        <time>2018-10-20T09:25:41Z</time>
      </trkpt>
      <trkpt lat="45.95575" lon="4.92881">
        <ele>294</ele>
        <time>2018-10-20T09:25:42Z</time>
      </trkpt>
      <trkpt lat="45.95573" lon="4.92888">
        <ele>294</ele>
        <time>2018-10-20T09:25:43Z</time>
      </trkpt>
      <trkpt lat="45.95572" lon="4.92895">
        <ele>294</ele>
        <time>2018-10-20T09:25:44Z</time>
      </trkpt>
      <trkpt lat="45.95572" lon="4.92903">
        <ele>294</ele>
        <time>2018-10-20T09:25:45Z</time>
      </trkpt>
      <trkpt lat="45.9557" lon="4.92911">
        <ele>294</ele>
        <time>2018-10-20T09:25:46Z</time>
      </trkpt>
      <trkpt lat="45.95569" lon="4.9292">
        <ele>293</ele>
        <time>2018-10-20T09:25:47Z</time>
      </trkpt>
      <trkpt lat="45.95568" lon="4.92929">
        <ele>293</ele>
        <time>2018-10-20T09:25:48Z</time>
      </trkpt>
      <trkpt lat="45.95567" lon="4.92937">
        <ele>293</ele>
        <time>2018-10-20T09:25:49Z</time>
      </trkpt>
      <trkpt lat="45.95566" lon="4.92946">
        <ele>292</ele>
        <time>2018-10-20T09:25:50Z</time>
      </trkpt>
      <trkpt lat="45.95566" lon="4.92955">
        <ele>292</ele>
        <time>2018-10-20T09:25:51Z</time>
      </trkpt>
      <trkpt lat="45.95565" lon="4.92963">
        <ele>292</ele>
        <time>2018-10-20T09:25:52Z</time>
      </trkpt>
      <trkpt lat="45.95564" lon="4.92971">
        <ele>292</ele>
        <time>2018-10-20T09:25:53Z</time>
      </trkpt>
      <trkpt lat="45.95563" lon="4.92978">
        <ele>292</ele>
        <time>2018-10-20T09:25:54Z</time>
      </trkpt>
      <trkpt lat="45.95561" lon="4.92987">
        <ele>292</ele>
        <time>2018-10-20T09:25:55Z</time>
      </trkpt>
      <trkpt lat="45.9556" lon="4.92994">
        <ele>292</ele>
        <time>2018-10-20T09:25:56Z</time>
      </trkpt>
      <trkpt lat="45.95559" lon="4.93002">
        <ele>291</ele>
        <time>2018-10-20T09:25:57Z</time>
      </trkpt>
      <trkpt lat="45.95559" lon="4.93009">
        <ele>291</ele>
        <time>2018-10-20T09:25:58Z</time>
      </trkpt>
      <trkpt lat="45.95558" lon="4.93017">
        <ele>291</ele>
        <time>2018-10-20T09:25:59Z</time>
      </trkpt>
      <trkpt lat="45.95558" lon="4.93025">
        <ele>291</ele>
        <time>2018-10-20T09:26:00Z</time>
      </trkpt>
      <trkpt lat="45.95556" lon="4.93033">
        <ele>291</ele>
        <time>2018-10-20T09:26:01Z</time>
      </trkpt>
      <trkpt lat="45.95555" lon="4.93041">
        <ele>291</ele>
        <time>2018-10-20T09:26:02Z</time>
      </trkpt>
      <trkpt lat="45.95554" lon="4.93048">
        <ele>291</ele>
        <time>2018-10-20T09:26:03Z</time>
      </trkpt>
      <trkpt lat="45.95554" lon="4.93055">
        <ele>290</ele>
        <time>2018-10-20T09:26:04Z</time>
      </trkpt>
      <trkpt lat="45.95553" lon="4.93062">
        <ele>290</ele>
        <time>2018-10-20T09:26:05Z</time>
      </trkpt>
      <trkpt lat="45.95551" lon="4.93069">
        <ele>290</ele>
        <time>2018-10-20T09:26:06Z</time>
      </trkpt>
      <trkpt lat="45.95551" lon="4.93076">
        <ele>290</ele>
        <time>2018-10-20T09:26:07Z</time>
      </trkpt>
      <trkpt lat="45.95549" lon="4.93082">
        <ele>290</ele>
        <time>2018-10-20T09:26:08Z</time>
      </trkpt>
      <trkpt lat="45.95547" lon="4.93089">
        <ele>290</ele>
        <time>2018-10-20T09:26:09Z</time>
      </trkpt>
      <trkpt lat="45.95544" lon="4.93096">
        <ele>289</ele>
        <time>2018-10-20T09:26:10Z</time>
      </trkpt>
      <trkpt lat="45.95541" lon="4.93102">
        <ele>289</ele>
        <time>2018-10-20T09:26:11Z</time>
      </trkpt>
      <trkpt lat="45.95535" lon="4.93107">
        <ele>289</ele>
        <time>2018-10-20T09:26:12Z</time>
      </trkpt>
      <trkpt lat="45.9553" lon="4.93112">
        <ele>289</ele>
        <time>2018-10-20T09:26:13Z</time>
      </trkpt>
      <trkpt lat="45.95526" lon="4.93117">
        <ele>289</ele>
        <time>2018-10-20T09:26:14Z</time>
      </trkpt>
      <trkpt lat="45.9552" lon="4.93122">
        <ele>289</ele>
        <time>2018-10-20T09:26:15Z</time>
      </trkpt>
      <trkpt lat="45.95515" lon="4.93125">
        <ele>289</ele>
        <time>2018-10-20T09:26:16Z</time>
      </trkpt>
      <trkpt lat="45.95511" lon="4.9313">
        <ele>289</ele>
        <time>2018-10-20T09:26:17Z</time>
      </trkpt>
      <trkpt lat="45.95506" lon="4.93132">
        <ele>289</ele>
        <time>2018-10-20T09:26:18Z</time>
      </trkpt>
      <trkpt lat="45.95502" lon="4.93137">
        <ele>289</ele>
        <time>2018-10-20T09:26:19Z</time>
      </trkpt>
      <trkpt lat="45.95498" lon="4.9314">
        <ele>290</ele>
        <time>2018-10-20T09:26:20Z</time>
      </trkpt>
      <trkpt lat="45.95492" lon="4.93145">
        <ele>290</ele>
        <time>2018-10-20T09:26:21Z</time>
      </trkpt>
      <trkpt lat="45.95487" lon="4.93147">
        <ele>290</ele>
        <time>2018-10-20T09:26:22Z</time>
      </trkpt>
      <trkpt lat="45.9548" lon="4.93153">
        <ele>290</ele>
        <time>2018-10-20T09:26:24Z</time>
      </trkpt>
      <trkpt lat="45.95476" lon="4.93157">
        <ele>290</ele>
        <time>2018-10-20T09:26:25Z</time>
      </trkpt>
      <trkpt lat="45.95472" lon="4.93159">
        <ele>290</ele>
        <time>2018-10-20T09:26:26Z</time>
      </trkpt>
      <trkpt lat="45.95466" lon="4.93164">
        <ele>290</ele>
        <time>2018-10-20T09:26:27Z</time>
      </trkpt>
      <trkpt lat="45.95461" lon="4.93171">
        <ele>290</ele>
        <time>2018-10-20T09:26:28Z</time>
      </trkpt>
      <trkpt lat="45.95456" lon="4.93175">
        <ele>291</ele>
        <time>2018-10-20T09:26:29Z</time>
      </trkpt>
      <trkpt lat="45.95452" lon="4.93179">
        <ele>291</ele>
        <time>2018-10-20T09:26:30Z</time>
      </trkpt>
      <trkpt lat="45.95448" lon="4.93187">
        <ele>291</ele>
        <time>2018-10-20T09:26:31Z</time>
      </trkpt>
      <trkpt lat="45.95446" lon="4.93193">
        <ele>291</ele>
        <time>2018-10-20T09:26:32Z</time>
      </trkpt>
      <trkpt lat="45.95445" lon="4.93201">
        <ele>291</ele>
        <time>2018-10-20T09:26:33Z</time>
      </trkpt>
      <trkpt lat="45.95446" lon="4.93208">
        <ele>291</ele>
        <time>2018-10-20T09:26:34Z</time>
      </trkpt>
      <trkpt lat="45.95449" lon="4.93214">
        <ele>291</ele>
        <time>2018-10-20T09:26:35Z</time>
      </trkpt>
      <trkpt lat="45.95451" lon="4.9322">
        <ele>291</ele>
        <time>2018-10-20T09:26:36Z</time>
      </trkpt>
      <trkpt lat="45.95454" lon="4.93227">
        <ele>291</ele>
        <time>2018-10-20T09:26:37Z</time>
      </trkpt>
      <trkpt lat="45.95457" lon="4.93235">
        <ele>291</ele>
        <time>2018-10-20T09:26:38Z</time>
      </trkpt>
      <trkpt lat="45.9546" lon="4.93241">
        <ele>290</ele>
        <time>2018-10-20T09:26:39Z</time>
      </trkpt>
      <trkpt lat="45.95464" lon="4.93249">
        <ele>290</ele>
        <time>2018-10-20T09:26:40Z</time>
      </trkpt>
      <trkpt lat="45.95467" lon="4.93258">
        <ele>290</ele>
        <time>2018-10-20T09:26:41Z</time>
      </trkpt>
      <trkpt lat="45.95471" lon="4.93265">
        <ele>290</ele>
        <time>2018-10-20T09:26:42Z</time>
      </trkpt>
      <trkpt lat="45.95474" lon="4.93274">
        <ele>290</ele>
        <time>2018-10-20T09:26:43Z</time>
      </trkpt>
      <trkpt lat="45.95478" lon="4.93283">
        <ele>290</ele>
        <time>2018-10-20T09:26:44Z</time>
      </trkpt>
      <trkpt lat="45.95483" lon="4.93291">
        <ele>290</ele>
        <time>2018-10-20T09:26:45Z</time>
      </trkpt>
      <trkpt lat="45.95486" lon="4.933">
        <ele>290</ele>
        <time>2018-10-20T09:26:46Z</time>
      </trkpt>
      <trkpt lat="45.95489" lon="4.93308">
        <ele>290</ele>
        <time>2018-10-20T09:26:47Z</time>
      </trkpt>
      <trkpt lat="45.95493" lon="4.93317">
        <ele>290</ele>
        <time>2018-10-20T09:26:48Z</time>
      </trkpt>
      <trkpt lat="45.95497" lon="4.93326">
        <ele>289</ele>
        <time>2018-10-20T09:26:49Z</time>
      </trkpt>
      <trkpt lat="45.95502" lon="4.93335">
        <ele>289</ele>
        <time>2018-10-20T09:26:50Z</time>
      </trkpt>
      <trkpt lat="45.95505" lon="4.93344">
        <ele>289</ele>
        <time>2018-10-20T09:26:51Z</time>
      </trkpt>
      <trkpt lat="45.95509" lon="4.93352">
        <ele>289</ele>
        <time>2018-10-20T09:26:52Z</time>
      </trkpt>
      <trkpt lat="45.95513" lon="4.93361">
        <ele>289</ele>
        <time>2018-10-20T09:26:53Z</time>
      </trkpt>
      <trkpt lat="45.95519" lon="4.93367">
        <ele>289</ele>
        <time>2018-10-20T09:26:54Z</time>
      </trkpt>
      <trkpt lat="45.95522" lon="4.93376">
        <ele>289</ele>
        <time>2018-10-20T09:26:55Z</time>
      </trkpt>
      <trkpt lat="45.95526" lon="4.93384">
        <ele>289</ele>
        <time>2018-10-20T09:26:56Z</time>
      </trkpt>
      <trkpt lat="45.9553" lon="4.93391">
        <ele>289</ele>
        <time>2018-10-20T09:26:57Z</time>
      </trkpt>
      <trkpt lat="45.95533" lon="4.93399">
        <ele>289</ele>
        <time>2018-10-20T09:26:58Z</time>
      </trkpt>
      <trkpt lat="45.95536" lon="4.93406">
        <ele>289</ele>
        <time>2018-10-20T09:26:59Z</time>
      </trkpt>
      <trkpt lat="45.95539" lon="4.93412">
        <ele>289</ele>
        <time>2018-10-20T09:27:00Z</time>
      </trkpt>
      <trkpt lat="45.95542" lon="4.93419">
        <ele>289</ele>
        <time>2018-10-20T09:27:01Z</time>
      </trkpt>
      <trkpt lat="45.95544" lon="4.93427">
        <ele>289</ele>
        <time>2018-10-20T09:27:02Z</time>
      </trkpt>
      <trkpt lat="45.95547" lon="4.93435">
        <ele>289</ele>
        <time>2018-10-20T09:27:03Z</time>
      </trkpt>
      <trkpt lat="45.9555" lon="4.93442">
        <ele>289</ele>
        <time>2018-10-20T09:27:04Z</time>
      </trkpt>
      <trkpt lat="45.95554" lon="4.93448">
        <ele>289</ele>
        <time>2018-10-20T09:27:05Z</time>
      </trkpt>
      <trkpt lat="45.95556" lon="4.93456">
        <ele>289</ele>
        <time>2018-10-20T09:27:06Z</time>
      </trkpt>
      <trkpt lat="45.95559" lon="4.93464">
        <ele>289</ele>
        <time>2018-10-20T09:27:07Z</time>
      </trkpt>
      <trkpt lat="45.95563" lon="4.93473">
        <ele>289</ele>
        <time>2018-10-20T09:27:08Z</time>
      </trkpt>
      <trkpt lat="45.95566" lon="4.9348">
        <ele>289</ele>
        <time>2018-10-20T09:27:09Z</time>
      </trkpt>
      <trkpt lat="45.9557" lon="4.93487">
        <ele>290</ele>
        <time>2018-10-20T09:27:10Z</time>
      </trkpt>
      <trkpt lat="45.95572" lon="4.93496">
        <ele>290</ele>
        <time>2018-10-20T09:27:11Z</time>
      </trkpt>
      <trkpt lat="45.95574" lon="4.93505">
        <ele>290</ele>
        <time>2018-10-20T09:27:12Z</time>
      </trkpt>
      <trkpt lat="45.95576" lon="4.93513">
        <ele>290</ele>
        <time>2018-10-20T09:27:13Z</time>
      </trkpt>
      <trkpt lat="45.95576" lon="4.93522">
        <ele>290</ele>
        <time>2018-10-20T09:27:14Z</time>
      </trkpt>
      <trkpt lat="45.95576" lon="4.93531">
        <ele>290</ele>
        <time>2018-10-20T09:27:15Z</time>
      </trkpt>
      <trkpt lat="45.95575" lon="4.93539">
        <ele>290</ele>
        <time>2018-10-20T09:27:16Z</time>
      </trkpt>
      <trkpt lat="45.95573" lon="4.93549">
        <ele>289</ele>
        <time>2018-10-20T09:27:17Z</time>
      </trkpt>
      <trkpt lat="45.95572" lon="4.93557">
        <ele>289</ele>
        <time>2018-10-20T09:27:18Z</time>
      </trkpt>
      <trkpt lat="45.95571" lon="4.93568">
        <ele>289</ele>
        <time>2018-10-20T09:27:19Z</time>
      </trkpt>
      <trkpt lat="45.95571" lon="4.93579">
        <ele>289</ele>
        <time>2018-10-20T09:27:20Z</time>
      </trkpt>
      <trkpt lat="45.9557" lon="4.93588">
        <ele>289</ele>
        <time>2018-10-20T09:27:21Z</time>
      </trkpt>
      <trkpt lat="45.95568" lon="4.93598">
        <ele>289</ele>
        <time>2018-10-20T09:27:22Z</time>
      </trkpt>
      <trkpt lat="45.95568" lon="4.93608">
        <ele>289</ele>
        <time>2018-10-20T09:27:23Z</time>
      </trkpt>
      <trkpt lat="45.95567" lon="4.93617">
        <ele>289</ele>
        <time>2018-10-20T09:27:24Z</time>
      </trkpt>
      <trkpt lat="45.95566" lon="4.93626">
        <ele>289</ele>
        <time>2018-10-20T09:27:25Z</time>
      </trkpt>
      <trkpt lat="45.95566" lon="4.93636">
        <ele>289</ele>
        <time>2018-10-20T09:27:26Z</time>
      </trkpt>
      <trkpt lat="45.95564" lon="4.93644">
        <ele>289</ele>
        <time>2018-10-20T09:27:27Z</time>
      </trkpt>
      <trkpt lat="45.95562" lon="4.93652">
        <ele>289</ele>
        <time>2018-10-20T09:27:28Z</time>
      </trkpt>
      <trkpt lat="45.9556" lon="4.93662">
        <ele>289</ele>
        <time>2018-10-20T09:27:29Z</time>
      </trkpt>
      <trkpt lat="45.95559" lon="4.93669">
        <ele>289</ele>
        <time>2018-10-20T09:27:30Z</time>
      </trkpt>
      <trkpt lat="45.9556" lon="4.93676">
        <ele>290</ele>
        <time>2018-10-20T09:27:31Z</time>
      </trkpt>
      <trkpt lat="45.95559" lon="4.93683">
        <ele>290</ele>
        <time>2018-10-20T09:27:32Z</time>
      </trkpt>
      <trkpt lat="45.95559" lon="4.93689">
        <ele>290</ele>
        <time>2018-10-20T09:27:33Z</time>
      </trkpt>
      <trkpt lat="45.95559" lon="4.93696">
        <ele>290</ele>
        <time>2018-10-20T09:27:34Z</time>
      </trkpt>
      <trkpt lat="45.95559" lon="4.93704">
        <ele>290</ele>
        <time>2018-10-20T09:27:35Z</time>
      </trkpt>
      <trkpt lat="45.95559" lon="4.93711">
        <ele>290</ele>
        <time>2018-10-20T09:27:36Z</time>
      </trkpt>
      <trkpt lat="45.9556" lon="4.93719">
        <ele>290</ele>
        <time>2018-10-20T09:27:37Z</time>
      </trkpt>
      <trkpt lat="45.9556" lon="4.93727">
        <ele>290</ele>
        <time>2018-10-20T09:27:38Z</time>
      </trkpt>
      <trkpt lat="45.95561" lon="4.93735">
        <ele>290</ele>
        <time>2018-10-20T09:27:39Z</time>
      </trkpt>
      <trkpt lat="45.95562" lon="4.93745">
        <ele>290</ele>
        <time>2018-10-20T09:27:40Z</time>
      </trkpt>
      <trkpt lat="45.95563" lon="4.93754">
        <ele>290</ele>
        <time>2018-10-20T09:27:41Z</time>
      </trkpt>
      <trkpt lat="45.95564" lon="4.93762">
        <ele>290</ele>
        <time>2018-10-20T09:27:42Z</time>
      </trkpt>
      <trkpt lat="45.95564" lon="4.9377">
        <ele>290</ele>
        <time>2018-10-20T09:27:43Z</time>
      </trkpt>
      <trkpt lat="45.95563" lon="4.93777">
        <ele>290</ele>
        <time>2018-10-20T09:27:44Z</time>
      </trkpt>
      <trkpt lat="45.95562" lon="4.93784">
        <ele>290</ele>
        <time>2018-10-20T09:27:45Z</time>
      </trkpt>
      <trkpt lat="45.9556" lon="4.93791">
        <ele>290</ele>
        <time>2018-10-20T09:27:46Z</time>
      </trkpt>
      <trkpt lat="45.95556" lon="4.93795">
        <ele>290</ele>
        <time>2018-10-20T09:27:47Z</time>
      </trkpt>
      <trkpt lat="45.95554" lon="4.93801">
        <ele>290</ele>
        <time>2018-10-20T09:27:48Z</time>
      </trkpt>
      <trkpt lat="45.95551" lon="4.93806">
        <ele>290</ele>
        <time>2018-10-20T09:27:49Z</time>
      </trkpt>
      <trkpt lat="45.95546" lon="4.93809">
        <ele>290</ele>
        <time>2018-10-20T09:27:50Z</time>
      </trkpt>
      <trkpt lat="45.95543" lon="4.93813">
        <ele>290</ele>
        <time>2018-10-20T09:27:51Z</time>
      </trkpt>
      <trkpt lat="45.95539" lon="4.93819">
        <ele>291</ele>
        <time>2018-10-20T09:27:52Z</time>
      </trkpt>
      <trkpt lat="45.95536" lon="4.93825">
        <ele>291</ele>
        <time>2018-10-20T09:27:53Z</time>
      </trkpt>
      <trkpt lat="45.95534" lon="4.93833">
        <ele>291</ele>
        <time>2018-10-20T09:27:54Z</time>
      </trkpt>
      <trkpt lat="45.95531" lon="4.93837">
        <ele>290</ele>
        <time>2018-10-20T09:27:55Z</time>
      </trkpt>
      <trkpt lat="45.95528" lon="4.93843">
        <ele>290</ele>
        <time>2018-10-20T09:27:56Z</time>
      </trkpt>
      <trkpt lat="45.95529" lon="4.93853">
        <ele>290</ele>
        <time>2018-10-20T09:27:57Z</time>
      </trkpt>
      <trkpt lat="45.95529" lon="4.93862">
        <ele>290</ele>
        <time>2018-10-20T09:27:58Z</time>
      </trkpt>
      <trkpt lat="45.95532" lon="4.93872">
        <ele>290</ele>
        <time>2018-10-20T09:27:59Z</time>
      </trkpt>
      <trkpt lat="45.95532" lon="4.9388">
        <ele>290</ele>
        <time>2018-10-20T09:28:00Z</time>
      </trkpt>
      <trkpt lat="45.95531" lon="4.93887">
        <ele>290</ele>
        <time>2018-10-20T09:28:01Z</time>
      </trkpt>
      <trkpt lat="45.95533" lon="4.93897">
        <ele>290</ele>
        <time>2018-10-20T09:28:02Z</time>
      </trkpt>
      <trkpt lat="45.95532" lon="4.93906">
        <ele>290</ele>
        <time>2018-10-20T09:28:03Z</time>
      </trkpt>
      <trkpt lat="45.95533" lon="4.93913">
        <ele>290</ele>
        <time>2018-10-20T09:28:04Z</time>
      </trkpt>
      <trkpt lat="45.95532" lon="4.93921">
        <ele>290</ele>
        <time>2018-10-20T09:28:05Z</time>
      </trkpt>
      <trkpt lat="45.95532" lon="4.93929">
        <ele>290</ele>
        <time>2018-10-20T09:28:06Z</time>
      </trkpt>
      <trkpt lat="45.95532" lon="4.93937">
        <ele>290</ele>
        <time>2018-10-20T09:28:07Z</time>
      </trkpt>
      <trkpt lat="45.95532" lon="4.93945">
        <ele>290</ele>
        <time>2018-10-20T09:28:08Z</time>
      </trkpt>
      <trkpt lat="45.95532" lon="4.93953">
        <ele>290</ele>
        <time>2018-10-20T09:28:09Z</time>
      </trkpt>
      <trkpt lat="45.95532" lon="4.93961">
        <ele>290</ele>
        <time>2018-10-20T09:28:10Z</time>
      </trkpt>
      <trkpt lat="45.95532" lon="4.9397">
        <ele>290</ele>
        <time>2018-10-20T09:28:11Z</time>
      </trkpt>
      <trkpt lat="45.95532" lon="4.93982">
        <ele>290</ele>
        <time>2018-10-20T09:28:13Z</time>
      </trkpt>
      <trkpt lat="45.95531" lon="4.93986">
        <ele>290</ele>
        <time>2018-10-20T09:28:14Z</time>
      </trkpt>
      <trkpt lat="45.95526" lon="4.93992">
        <ele>290</ele>
        <time>2018-10-20T09:28:17Z</time>
      </trkpt>
      <trkpt lat="45.95523" lon="4.93994">
        <ele>290</ele>
        <time>2018-10-20T09:28:18Z</time>
      </trkpt>
      <trkpt lat="45.95521" lon="4.93994">
        <ele>290</ele>
        <time>2018-10-20T09:28:19Z</time>
      </trkpt>
      <trkpt lat="45.95512" lon="4.93994">
        <ele>290</ele>
        <time>2018-10-20T09:28:20Z</time>
      </trkpt>
      <trkpt lat="45.95508" lon="4.93993">
        <ele>290</ele>
        <time>2018-10-20T09:28:21Z</time>
      </trkpt>
      <trkpt lat="45.95503" lon="4.93991">
        <ele>289</ele>
        <time>2018-10-20T09:28:22Z</time>
      </trkpt>
      <trkpt lat="45.95494" lon="4.93992">
        <ele>289</ele>
        <time>2018-10-20T09:28:24Z</time>
      </trkpt>
      <trkpt lat="45.95489" lon="4.93991">
        <ele>289</ele>
        <time>2018-10-20T09:28:25Z</time>
      </trkpt>
      <trkpt lat="45.95483" lon="4.93991">
        <ele>289</ele>
        <time>2018-10-20T09:28:26Z</time>
      </trkpt>
      <trkpt lat="45.95477" lon="4.93993">
        <ele>289</ele>
        <time>2018-10-20T09:28:27Z</time>
      </trkpt>
      <trkpt lat="45.95472" lon="4.93993">
        <ele>289</ele>
        <time>2018-10-20T09:28:28Z</time>
      </trkpt>
      <trkpt lat="45.95467" lon="4.93995">
        <ele>289</ele>
        <time>2018-10-20T09:28:29Z</time>
      </trkpt>
      <trkpt lat="45.9546" lon="4.93995">
        <ele>289</ele>
        <time>2018-10-20T09:28:30Z</time>
      </trkpt>
      <trkpt lat="45.95454" lon="4.93995">
        <ele>289</ele>
        <time>2018-10-20T09:28:31Z</time>
      </trkpt>
      <trkpt lat="45.95448" lon="4.93998">
        <ele>289</ele>
        <time>2018-10-20T09:28:32Z</time>
      </trkpt>
      <trkpt lat="45.95442" lon="4.94001">
        <ele>289</ele>
        <time>2018-10-20T09:28:33Z</time>
      </trkpt>
      <trkpt lat="45.95436" lon="4.94001">
        <ele>289</ele>
        <time>2018-10-20T09:28:34Z</time>
      </trkpt>
      <trkpt lat="45.95429" lon="4.94004">
        <ele>289</ele>
        <time>2018-10-20T09:28:35Z</time>
      </trkpt>
      <trkpt lat="45.95423" lon="4.94007">
        <ele>290</ele>
        <time>2018-10-20T09:28:36Z</time>
      </trkpt>
      <trkpt lat="45.95417" lon="4.94008">
        <ele>290</ele>
        <time>2018-10-20T09:28:37Z</time>
      </trkpt>
      <trkpt lat="45.95411" lon="4.9401">
        <ele>289</ele>
        <time>2018-10-20T09:28:38Z</time>
      </trkpt>
      <trkpt lat="45.95406" lon="4.94009">
        <ele>289</ele>
        <time>2018-10-20T09:28:39Z</time>
      </trkpt>
      <trkpt lat="45.95401" lon="4.94011">
        <ele>289</ele>
        <time>2018-10-20T09:28:40Z</time>
      </trkpt>
      <trkpt lat="45.95396" lon="4.94013">
        <ele>289</ele>
        <time>2018-10-20T09:28:41Z</time>
      </trkpt>
      <trkpt lat="45.95388" lon="4.94017">
        <ele>289</ele>
        <time>2018-10-20T09:28:43Z</time>
      </trkpt>
      <trkpt lat="45.95383" lon="4.9402">
        <ele>289</ele>
        <time>2018-10-20T09:28:44Z</time>
      </trkpt>
      <trkpt lat="45.95379" lon="4.94023">
        <ele>288</ele>
        <time>2018-10-20T09:28:45Z</time>
      </trkpt>
      <trkpt lat="45.95374" lon="4.94024">
        <ele>288</ele>
        <time>2018-10-20T09:28:46Z</time>
      </trkpt>
      <trkpt lat="45.95369" lon="4.94024">
        <ele>288</ele>
        <time>2018-10-20T09:28:47Z</time>
      </trkpt>
      <trkpt lat="45.95363" lon="4.94026">
        <ele>288</ele>
        <time>2018-10-20T09:28:48Z</time>
      </trkpt>
      <trkpt lat="45.95358" lon="4.94027">
        <ele>288</ele>
        <time>2018-10-20T09:28:49Z</time>
      </trkpt>
      <trkpt lat="45.95352" lon="4.94027">
        <ele>288</ele>
        <time>2018-10-20T09:28:50Z</time>
      </trkpt>
      <trkpt lat="45.95346" lon="4.94027">
        <ele>288</ele>
        <time>2018-10-20T09:28:51Z</time>
      </trkpt>
      <trkpt lat="45.9534" lon="4.94028">
        <ele>288</ele>
        <time>2018-10-20T09:28:52Z</time>
      </trkpt>
      <trkpt lat="45.95335" lon="4.94026">
        <ele>288</ele>
        <time>2018-10-20T09:28:53Z</time>
      </trkpt>
      <trkpt lat="45.9533" lon="4.94026">
        <ele>288</ele>
        <time>2018-10-20T09:28:54Z</time>
      </trkpt>
      <trkpt lat="45.95325" lon="4.94026">
        <ele>288</ele>
        <time>2018-10-20T09:28:55Z</time>
      </trkpt>
      <trkpt lat="45.95318" lon="4.94027">
        <ele>288</ele>
        <time>2018-10-20T09:28:56Z</time>
      </trkpt>
      <trkpt lat="45.9531" lon="4.94033">
        <ele>288</ele>
        <time>2018-10-20T09:28:58Z</time>
      </trkpt>
      <trkpt lat="45.95307" lon="4.94036">
        <ele>288</ele>
        <time>2018-10-20T09:28:59Z</time>
      </trkpt>
      <trkpt lat="45.95303" lon="4.9404">
        <ele>288</ele>
        <time>2018-10-20T09:29:00Z</time>
      </trkpt>
      <trkpt lat="45.95299" lon="4.94044">
        <ele>288</ele>
        <time>2018-10-20T09:29:01Z</time>
      </trkpt>
      <trkpt lat="45.95295" lon="4.94055">
        <ele>288</ele>
        <time>2018-10-20T09:29:03Z</time>
      </trkpt>
      <trkpt lat="45.95294" lon="4.94062">
        <ele>288</ele>
        <time>2018-10-20T09:29:04Z</time>
      </trkpt>
      <trkpt lat="45.9529" lon="4.94069">
        <ele>288</ele>
        <time>2018-10-20T09:29:05Z</time>
      </trkpt>
      <trkpt lat="45.95288" lon="4.94076">
        <ele>288</ele>
        <time>2018-10-20T09:29:06Z</time>
      </trkpt>
      <trkpt lat="45.95284" lon="4.94087">
        <ele>288</ele>
        <time>2018-10-20T09:29:08Z</time>
      </trkpt>
      <trkpt lat="45.95282" lon="4.94093">
        <ele>288</ele>
        <time>2018-10-20T09:29:09Z</time>
      </trkpt>
      <trkpt lat="45.95279" lon="4.941">
        <ele>288</ele>
        <time>2018-10-20T09:29:10Z</time>
      </trkpt>
      <trkpt lat="45.95278" lon="4.94106">
        <ele>288</ele>
        <time>2018-10-20T09:29:11Z</time>
      </trkpt>
      <trkpt lat="45.95277" lon="4.94113">
        <ele>288</ele>
        <time>2018-10-20T09:29:12Z</time>
      </trkpt>
      <trkpt lat="45.95274" lon="4.9412">
        <ele>288</ele>
        <time>2018-10-20T09:29:13Z</time>
      </trkpt>
      <trkpt lat="45.95271" lon="4.94126">
        <ele>288</ele>
        <time>2018-10-20T09:29:14Z</time>
      </trkpt>
      <trkpt lat="45.9527" lon="4.94133">
        <ele>288</ele>
        <time>2018-10-20T09:29:15Z</time>
      </trkpt>
      <trkpt lat="45.95268" lon="4.94139">
        <ele>288</ele>
        <time>2018-10-20T09:29:16Z</time>
      </trkpt>
      <trkpt lat="45.95266" lon="4.94145">
        <ele>288</ele>
        <time>2018-10-20T09:29:17Z</time>
      </trkpt>
      <trkpt lat="45.95263" lon="4.94152">
        <ele>288</ele>
        <time>2018-10-20T09:29:18Z</time>
      </trkpt>
      <trkpt lat="45.9526" lon="4.94158">
        <ele>289</ele>
        <time>2018-10-20T09:29:19Z</time>
      </trkpt>
      <trkpt lat="45.95257" lon="4.94164">
        <ele>289</ele>
        <time>2018-10-20T09:29:20Z</time>
      </trkpt>
      <trkpt lat="45.95254" lon="4.9417">
        <ele>289</ele>
        <time>2018-10-20T09:29:21Z</time>
      </trkpt>
      <trkpt lat="45.95252" lon="4.94179">
        <ele>289</ele>
        <time>2018-10-20T09:29:22Z</time>
      </trkpt>
      <trkpt lat="45.9525" lon="4.94187">
        <ele>289</ele>
        <time>2018-10-20T09:29:23Z</time>
      </trkpt>
      <trkpt lat="45.95248" lon="4.94193">
        <ele>289</ele>
        <time>2018-10-20T09:29:24Z</time>
      </trkpt>
      <trkpt lat="45.95246" lon="4.94202">
        <ele>289</ele>
        <time>2018-10-20T09:29:25Z</time>
      </trkpt>
      <trkpt lat="45.95244" lon="4.9421">
        <ele>289</ele>
        <time>2018-10-20T09:29:26Z</time>
      </trkpt>
      <trkpt lat="45.95244" lon="4.94217">
        <ele>289</ele>
        <time>2018-10-20T09:29:27Z</time>
      </trkpt>
      <trkpt lat="45.95243" lon="4.94224">
        <ele>289</ele>
        <time>2018-10-20T09:29:28Z</time>
      </trkpt>
      <trkpt lat="45.95241" lon="4.94232">
        <ele>289</ele>
        <time>2018-10-20T09:29:29Z</time>
      </trkpt>
      <trkpt lat="45.95241" lon="4.94239">
        <ele>288</ele>
        <time>2018-10-20T09:29:30Z</time>
      </trkpt>
      <trkpt lat="45.9524" lon="4.94248">
        <ele>288</ele>
        <time>2018-10-20T09:29:31Z</time>
      </trkpt>
      <trkpt lat="45.9524" lon="4.94257">
        <ele>288</ele>
        <time>2018-10-20T09:29:32Z</time>
      </trkpt>
      <trkpt lat="45.9524" lon="4.94266">
        <ele>288</ele>
        <time>2018-10-20T09:29:33Z</time>
      </trkpt>
      <trkpt lat="45.9524" lon="4.94275">
        <ele>288</ele>
        <time>2018-10-20T09:29:34Z</time>
      </trkpt>
      <trkpt lat="45.9524" lon="4.94283">
        <ele>289</ele>
        <time>2018-10-20T09:29:35Z</time>
      </trkpt>
      <trkpt lat="45.95239" lon="4.94292">
        <ele>289</ele>
        <time>2018-10-20T09:29:36Z</time>
      </trkpt>
      <trkpt lat="45.95238" lon="4.943">
        <ele>288</ele>
        <time>2018-10-20T09:29:37Z</time>
      </trkpt>
      <trkpt lat="45.95238" lon="4.94309">
        <ele>288</ele>
        <time>2018-10-20T09:29:38Z</time>
      </trkpt>
      <trkpt lat="45.95236" lon="4.94318">
        <ele>288</ele>
        <time>2018-10-20T09:29:39Z</time>
      </trkpt>
      <trkpt lat="45.95235" lon="4.94326">
        <ele>288</ele>
        <time>2018-10-20T09:29:40Z</time>
      </trkpt>
      <trkpt lat="45.95233" lon="4.94334">
        <ele>288</ele>
        <time>2018-10-20T09:29:41Z</time>
      </trkpt>
      <trkpt lat="45.95233" lon="4.94343">
        <ele>289</ele>
        <time>2018-10-20T09:29:42Z</time>
      </trkpt>
      <trkpt lat="45.9523" lon="4.9435">
        <ele>289</ele>
        <time>2018-10-20T09:29:43Z</time>
      </trkpt>
      <trkpt lat="45.95228" lon="4.94357">
        <ele>289</ele>
        <time>2018-10-20T09:29:44Z</time>
      </trkpt>
      <trkpt lat="45.95226" lon="4.94363">
        <ele>289</ele>
        <time>2018-10-20T09:29:45Z</time>
      </trkpt>
      <trkpt lat="45.95223" lon="4.94368">
        <ele>289</ele>
        <time>2018-10-20T09:29:46Z</time>
      </trkpt>
      <trkpt lat="45.95222" lon="4.94375">
        <ele>289</ele>
        <time>2018-10-20T09:29:47Z</time>
      </trkpt>
      <trkpt lat="45.9522" lon="4.94382">
        <ele>289</ele>
        <time>2018-10-20T09:29:48Z</time>
      </trkpt>
      <trkpt lat="45.95218" lon="4.94388">
        <ele>289</ele>
        <time>2018-10-20T09:29:49Z</time>
      </trkpt>
      <trkpt lat="45.95214" lon="4.94395">
        <ele>289</ele>
        <time>2018-10-20T09:29:50Z</time>
      </trkpt>
      <trkpt lat="45.95211" lon="4.94401">
        <ele>289</ele>
        <time>2018-10-20T09:29:51Z</time>
      </trkpt>
      <trkpt lat="45.95208" lon="4.94408">
        <ele>289</ele>
        <time>2018-10-20T09:29:52Z</time>
      </trkpt>
      <trkpt lat="45.95206" lon="4.94416">
        <ele>289</ele>
        <time>2018-10-20T09:29:53Z</time>
      </trkpt>
      <trkpt lat="45.95204" lon="4.94423">
        <ele>290</ele>
        <time>2018-10-20T09:29:54Z</time>
      </trkpt>
      <trkpt lat="45.95201" lon="4.9443">
        <ele>290</ele>
        <time>2018-10-20T09:29:55Z</time>
      </trkpt>
      <trkpt lat="45.952" lon="4.9444">
        <ele>290</ele>
        <time>2018-10-20T09:29:56Z</time>
      </trkpt>
      <trkpt lat="45.95199" lon="4.94447">
        <ele>290</ele>
        <time>2018-10-20T09:29:57Z</time>
      </trkpt>
      <trkpt lat="45.95198" lon="4.94454">
        <ele>290</ele>
        <time>2018-10-20T09:29:58Z</time>
      </trkpt>
      <trkpt lat="45.95197" lon="4.94462">
        <ele>289</ele>
        <time>2018-10-20T09:29:59Z</time>
      </trkpt>
      <trkpt lat="45.95196" lon="4.94468">
        <ele>289</ele>
        <time>2018-10-20T09:30:00Z</time>
      </trkpt>
      <trkpt lat="45.95197" lon="4.94476">
        <ele>289</ele>
        <time>2018-10-20T09:30:01Z</time>
      </trkpt>
      <trkpt lat="45.95198" lon="4.94486">
        <ele>289</ele>
        <time>2018-10-20T09:30:02Z</time>
      </trkpt>
      <trkpt lat="45.95198" lon="4.94495">
        <ele>289</ele>
        <time>2018-10-20T09:30:03Z</time>
      </trkpt>
      <trkpt lat="45.95198" lon="4.94503">
        <ele>289</ele>
        <time>2018-10-20T09:30:04Z</time>
      </trkpt>
      <trkpt lat="45.95197" lon="4.9451">
        <ele>289</ele>
        <time>2018-10-20T09:30:05Z</time>
      </trkpt>
      <trkpt lat="45.95195" lon="4.94517">
        <ele>289</ele>
        <time>2018-10-20T09:30:06Z</time>
      </trkpt>
      <trkpt lat="45.95193" lon="4.94523">
        <ele>289</ele>
        <time>2018-10-20T09:30:07Z</time>
      </trkpt>
      <trkpt lat="45.95192" lon="4.94531">
        <ele>289</ele>
        <time>2018-10-20T09:30:08Z</time>
      </trkpt>
      <trkpt lat="45.95191" lon="4.94541">
        <ele>289</ele>
        <time>2018-10-20T09:30:09Z</time>
      </trkpt>
      <trkpt lat="45.9519" lon="4.94549">
        <ele>289</ele>
        <time>2018-10-20T09:30:10Z</time>
      </trkpt>
      <trkpt lat="45.95189" lon="4.94558">
        <ele>289</ele>
        <time>2018-10-20T09:30:11Z</time>
      </trkpt>
      <trkpt lat="45.95188" lon="4.94566">
        <ele>289</ele>
        <time>2018-10-20T09:30:12Z</time>
      </trkpt>
      <trkpt lat="45.95187" lon="4.94575">
        <ele>289</ele>
        <time>2018-10-20T09:30:13Z</time>
      </trkpt>
      <trkpt lat="45.95186" lon="4.94584">
        <ele>289</ele>
        <time>2018-10-20T09:30:14Z</time>
      </trkpt>
      <trkpt lat="45.95184" lon="4.94592">
        <ele>289</ele>
        <time>2018-10-20T09:30:15Z</time>
      </trkpt>
      <trkpt lat="45.95183" lon="4.946">
        <ele>289</ele>
        <time>2018-10-20T09:30:16Z</time>
      </trkpt>
      <trkpt lat="45.95181" lon="4.94607">
        <ele>289</ele>
        <time>2018-10-20T09:30:17Z</time>
      </trkpt>
      <trkpt lat="45.9518" lon="4.94615">
        <ele>289</ele>
        <time>2018-10-20T09:30:18Z</time>
      </trkpt>
      <trkpt lat="45.95179" lon="4.94621">
        <ele>289</ele>
        <time>2018-10-20T09:30:19Z</time>
      </trkpt>
      <trkpt lat="45.95176" lon="4.94629">
        <ele>289</ele>
        <time>2018-10-20T09:30:20Z</time>
      </trkpt>
      <trkpt lat="45.95173" lon="4.94636">
        <ele>289</ele>
        <time>2018-10-20T09:30:21Z</time>
      </trkpt>
      <trkpt lat="45.9517" lon="4.94642">
        <ele>289</ele>
        <time>2018-10-20T09:30:22Z</time>
      </trkpt>
      <trkpt lat="45.95166" lon="4.94647">
        <ele>290</ele>
        <time>2018-10-20T09:30:23Z</time>
      </trkpt>
      <trkpt lat="45.95162" lon="4.94654">
        <ele>290</ele>
        <time>2018-10-20T09:30:24Z</time>
      </trkpt>
      <trkpt lat="45.95159" lon="4.9466">
        <ele>290</ele>
        <time>2018-10-20T09:30:25Z</time>
      </trkpt>
      <trkpt lat="45.95155" lon="4.94667">
        <ele>290</ele>
        <time>2018-10-20T09:30:26Z</time>
      </trkpt>
      <trkpt lat="45.95153" lon="4.94675">
        <ele>290</ele>
        <time>2018-10-20T09:30:27Z</time>
      </trkpt>
      <trkpt lat="45.95152" lon="4.94683">
        <ele>290</ele>
        <time>2018-10-20T09:30:28Z</time>
      </trkpt>
      <trkpt lat="45.95153" lon="4.94692">
        <ele>290</ele>
        <time>2018-10-20T09:30:29Z</time>
      </trkpt>
      <trkpt lat="45.95152" lon="4.947">
        <ele>290</ele>
        <time>2018-10-20T09:30:30Z</time>
      </trkpt>
      <trkpt lat="45.95157" lon="4.94705">
        <ele>290</ele>
        <time>2018-10-20T09:30:31Z</time>
      </trkpt>
      <trkpt lat="45.95161" lon="4.94712">
        <ele>290</ele>
        <time>2018-10-20T09:30:32Z</time>
      </trkpt>
      <trkpt lat="45.95163" lon="4.94717">
        <ele>290</ele>
        <time>2018-10-20T09:30:33Z</time>
      </trkpt>
      <trkpt lat="45.95168" lon="4.94723">
        <ele>288</ele>
        <time>2018-10-20T09:30:34Z</time>
      </trkpt>
      <trkpt lat="45.95173" lon="4.94729">
        <ele>288</ele>
        <time>2018-10-20T09:30:35Z</time>
      </trkpt>
      <trkpt lat="45.95178" lon="4.94733">
        <ele>288</ele>
        <time>2018-10-20T09:30:36Z</time>
      </trkpt>
      <trkpt lat="45.95183" lon="4.94736">
        <ele>288</ele>
        <time>2018-10-20T09:30:37Z</time>
      </trkpt>
      <trkpt lat="45.95187" lon="4.94742">
        <ele>288</ele>
        <time>2018-10-20T09:30:38Z</time>
      </trkpt>
      <trkpt lat="45.95191" lon="4.94748">
        <ele>288</ele>
        <time>2018-10-20T09:30:39Z</time>
      </trkpt>
      <trkpt lat="45.95196" lon="4.94754">
        <ele>287</ele>
        <time>2018-10-20T09:30:40Z</time>
      </trkpt>
      <trkpt lat="45.95199" lon="4.94758">
        <ele>287</ele>
        <time>2018-10-20T09:30:41Z</time>
      </trkpt>
      <trkpt lat="45.95201" lon="4.94764">
        <ele>287</ele>
        <time>2018-10-20T09:30:42Z</time>
      </trkpt>
      <trkpt lat="45.95202" lon="4.94771">
        <ele>287</ele>
        <time>2018-10-20T09:30:43Z</time>
      </trkpt>
      <trkpt lat="45.95203" lon="4.94783">
        <ele>287</ele>
        <time>2018-10-20T09:30:45Z</time>
      </trkpt>
      <trkpt lat="45.95195" lon="4.94782">
        <ele>287</ele>
        <time>2018-10-20T09:30:46Z</time>
      </trkpt>
      <trkpt lat="45.95185" lon="4.94778">
        <ele>287</ele>
        <time>2018-10-20T09:30:47Z</time>
      </trkpt>
      <trkpt lat="45.95181" lon="4.94788">
        <ele>287</ele>
        <time>2018-10-20T09:30:49Z</time>
      </trkpt>
      <trkpt lat="45.95178" lon="4.94791">
        <ele>287</ele>
        <time>2018-10-20T09:30:50Z</time>
      </trkpt>
      <trkpt lat="45.95172" lon="4.94792">
        <ele>287</ele>
        <time>2018-10-20T09:30:51Z</time>
      </trkpt>
      <trkpt lat="45.95166" lon="4.94794">
        <ele>289</ele>
        <time>2018-10-20T09:30:52Z</time>
      </trkpt>
      <trkpt lat="45.95162" lon="4.94797">
        <ele>289</ele>
        <time>2018-10-20T09:30:53Z</time>
      </trkpt>
      <trkpt lat="45.95156" lon="4.94799">
        <ele>289</ele>
        <time>2018-10-20T09:30:54Z</time>
      </trkpt>
      <trkpt lat="45.95152" lon="4.94802">
        <ele>289</ele>
        <time>2018-10-20T09:30:55Z</time>
      </trkpt>
      <trkpt lat="45.95147" lon="4.94804">
        <ele>289</ele>
        <time>2018-10-20T09:30:56Z</time>
      </trkpt>
      <trkpt lat="45.95141" lon="4.94808">
        <ele>289</ele>
        <time>2018-10-20T09:30:57Z</time>
      </trkpt>
      <trkpt lat="45.95136" lon="4.94812">
        <ele>289</ele>
        <time>2018-10-20T09:30:58Z</time>
      </trkpt>
      <trkpt lat="45.95131" lon="4.94815">
        <ele>289</ele>
        <time>2018-10-20T09:30:59Z</time>
      </trkpt>
      <trkpt lat="45.95128" lon="4.94818">
        <ele>289</ele>
        <time>2018-10-20T09:31:00Z</time>
      </trkpt>
      <trkpt lat="45.95125" lon="4.94822">
        <ele>289</ele>
        <time>2018-10-20T09:31:01Z</time>
      </trkpt>
      <trkpt lat="45.95119" lon="4.94828">
        <ele>289</ele>
        <time>2018-10-20T09:31:02Z</time>
      </trkpt>
      <trkpt lat="45.95114" lon="4.94831">
        <ele>289</ele>
        <time>2018-10-20T09:31:03Z</time>
      </trkpt>
      <trkpt lat="45.95111" lon="4.94835">
        <ele>289</ele>
        <time>2018-10-20T09:31:04Z</time>
      </trkpt>
      <trkpt lat="45.95104" lon="4.94843">
        <ele>289</ele>
        <time>2018-10-20T09:31:06Z</time>
      </trkpt>
      <trkpt lat="45.95101" lon="4.94848">
        <ele>289</ele>
        <time>2018-10-20T09:31:07Z</time>
      </trkpt>
      <trkpt lat="45.95095" lon="4.94853">
        <ele>289</ele>
        <time>2018-10-20T09:31:08Z</time>
      </trkpt>
      <trkpt lat="45.95091" lon="4.94857">
        <ele>289</ele>
        <time>2018-10-20T09:31:09Z</time>
      </trkpt>
      <trkpt lat="45.95087" lon="4.94861">
        <ele>289</ele>
        <time>2018-10-20T09:31:10Z</time>
      </trkpt>
      <trkpt lat="45.95083" lon="4.94865">
        <ele>289</ele>
        <time>2018-10-20T09:31:11Z</time>
      </trkpt>
      <trkpt lat="45.95078" lon="4.94874">
        <ele>289</ele>
        <time>2018-10-20T09:31:12Z</time>
      </trkpt>
      <trkpt lat="45.95074" lon="4.94879">
        <ele>289</ele>
        <time>2018-10-20T09:31:13Z</time>
      </trkpt>
      <trkpt lat="45.9507" lon="4.94885">
        <ele>289</ele>
        <time>2018-10-20T09:31:14Z</time>
      </trkpt>
      <trkpt lat="45.95066" lon="4.94889">
        <ele>289</ele>
        <time>2018-10-20T09:31:15Z</time>
      </trkpt>
      <trkpt lat="45.95062" lon="4.94893">
        <ele>289</ele>
        <time>2018-10-20T09:31:16Z</time>
      </trkpt>
      <trkpt lat="45.95059" lon="4.94898">
        <ele>289</ele>
        <time>2018-10-20T09:31:17Z</time>
      </trkpt>
      <trkpt lat="45.95055" lon="4.94902">
        <ele>289</ele>
        <time>2018-10-20T09:31:18Z</time>
      </trkpt>
      <trkpt lat="45.95051" lon="4.94906">
        <ele>289</ele>
        <time>2018-10-20T09:31:19Z</time>
      </trkpt>
      <trkpt lat="45.95047" lon="4.9491">
        <ele>289</ele>
        <time>2018-10-20T09:31:20Z</time>
      </trkpt>
      <trkpt lat="45.95043" lon="4.94915">
        <ele>289</ele>
        <time>2018-10-20T09:31:21Z</time>
      </trkpt>
      <trkpt lat="45.95038" lon="4.9492">
        <ele>289</ele>
        <time>2018-10-20T09:31:22Z</time>
      </trkpt>
      <trkpt lat="45.95034" lon="4.94926">
        <ele>289</ele>
        <time>2018-10-20T09:31:23Z</time>
      </trkpt>
      <trkpt lat="45.95028" lon="4.9493">
        <ele>289</ele>
        <time>2018-10-20T09:31:24Z</time>
      </trkpt>
      <trkpt lat="45.95023" lon="4.94935">
        <ele>289</ele>
        <time>2018-10-20T09:31:25Z</time>
      </trkpt>
      <trkpt lat="45.95018" lon="4.9494">
        <ele>289</ele>
        <time>2018-10-20T09:31:26Z</time>
      </trkpt>
      <trkpt lat="45.95014" lon="4.94947">
        <ele>289</ele>
        <time>2018-10-20T09:31:27Z</time>
      </trkpt>
      <trkpt lat="45.9501" lon="4.94953">
        <ele>289</ele>
        <time>2018-10-20T09:31:28Z</time>
      </trkpt>
      <trkpt lat="45.95006" lon="4.94959">
        <ele>289</ele>
        <time>2018-10-20T09:31:29Z</time>
      </trkpt>
      <trkpt lat="45.95002" lon="4.94966">
        <ele>289</ele>
        <time>2018-10-20T09:31:30Z</time>
      </trkpt>
      <trkpt lat="45.94998" lon="4.94972">
        <ele>289</ele>
        <time>2018-10-20T09:31:31Z</time>
      </trkpt>
      <trkpt lat="45.94996" lon="4.9498">
        <ele>289</ele>
        <time>2018-10-20T09:31:32Z</time>
      </trkpt>
      <trkpt lat="45.94995" lon="4.94988">
        <ele>289</ele>
        <time>2018-10-20T09:31:33Z</time>
      </trkpt>
      <trkpt lat="45.94996" lon="4.94994">
        <ele>289</ele>
        <time>2018-10-20T09:31:34Z</time>
      </trkpt>
      <trkpt lat="45.94997" lon="4.95001">
        <ele>289</ele>
        <time>2018-10-20T09:31:35Z</time>
      </trkpt>
      <trkpt lat="45.94999" lon="4.95008">
        <ele>289</ele>
        <time>2018-10-20T09:31:36Z</time>
      </trkpt>
      <trkpt lat="45.95001" lon="4.95014">
        <ele>289</ele>
        <time>2018-10-20T09:31:37Z</time>
      </trkpt>
      <trkpt lat="45.95002" lon="4.9502">
        <ele>289</ele>
        <time>2018-10-20T09:31:38Z</time>
      </trkpt>
      <trkpt lat="45.95004" lon="4.95027">
        <ele>289</ele>
        <time>2018-10-20T09:31:39Z</time>
      </trkpt>
      <trkpt lat="45.95005" lon="4.95033">
        <ele>290</ele>
        <time>2018-10-20T09:31:40Z</time>
      </trkpt>
      <trkpt lat="45.95006" lon="4.95042">
        <ele>290</ele>
        <time>2018-10-20T09:31:41Z</time>
      </trkpt>
      <trkpt lat="45.95007" lon="4.9505">
        <ele>290</ele>
        <time>2018-10-20T09:31:42Z</time>
      </trkpt>
      <trkpt lat="45.95006" lon="4.95058">
        <ele>290</ele>
        <time>2018-10-20T09:31:43Z</time>
      </trkpt>
      <trkpt lat="45.95007" lon="4.95066">
        <ele>290</ele>
        <time>2018-10-20T09:31:44Z</time>
      </trkpt>
      <trkpt lat="45.95007" lon="4.95072">
        <ele>290</ele>
        <time>2018-10-20T09:31:45Z</time>
      </trkpt>
      <trkpt lat="45.95007" lon="4.95078">
        <ele>290</ele>
        <time>2018-10-20T09:31:46Z</time>
      </trkpt>
      <trkpt lat="45.95007" lon="4.95086">
        <ele>290</ele>
        <time>2018-10-20T09:31:47Z</time>
      </trkpt>
      <trkpt lat="45.95008" lon="4.95096">
        <ele>290</ele>
        <time>2018-10-20T09:31:48Z</time>
      </trkpt>
      <trkpt lat="45.95008" lon="4.95104">
        <ele>290</ele>
        <time>2018-10-20T09:31:49Z</time>
      </trkpt>
      <trkpt lat="45.95008" lon="4.95111">
        <ele>290</ele>
        <time>2018-10-20T09:31:50Z</time>
      </trkpt>
      <trkpt lat="45.95008" lon="4.95117">
        <ele>290</ele>
        <time>2018-10-20T09:31:51Z</time>
      </trkpt>
      <trkpt lat="45.95008" lon="4.9513">
        <ele>290</ele>
        <time>2018-10-20T09:31:53Z</time>
      </trkpt>
      <trkpt lat="45.95009" lon="4.95138">
        <ele>290</ele>
        <time>2018-10-20T09:31:54Z</time>
      </trkpt>
      <trkpt lat="45.95009" lon="4.95146">
        <ele>290</ele>
        <time>2018-10-20T09:31:55Z</time>
      </trkpt>
      <trkpt lat="45.95008" lon="4.95153">
        <ele>290</ele>
        <time>2018-10-20T09:31:56Z</time>
      </trkpt>
      <trkpt lat="45.95007" lon="4.95161">
        <ele>290</ele>
        <time>2018-10-20T09:31:57Z</time>
      </trkpt>
      <trkpt lat="45.95008" lon="4.95169">
        <ele>290</ele>
        <time>2018-10-20T09:31:58Z</time>
      </trkpt>
      <trkpt lat="45.95008" lon="4.95176">
        <ele>290</ele>
        <time>2018-10-20T09:31:59Z</time>
      </trkpt>
      <trkpt lat="45.95009" lon="4.95185">
        <ele>290</ele>
        <time>2018-10-20T09:32:00Z</time>
      </trkpt>
      <trkpt lat="45.95009" lon="4.95194">
        <ele>290</ele>
        <time>2018-10-20T09:32:01Z</time>
      </trkpt>
      <trkpt lat="45.9501" lon="4.95201">
        <ele>290</ele>
        <time>2018-10-20T09:32:02Z</time>
      </trkpt>
      <trkpt lat="45.95012" lon="4.9521">
        <ele>289</ele>
        <time>2018-10-20T09:32:03Z</time>
      </trkpt>
      <trkpt lat="45.95013" lon="4.95217">
        <ele>289</ele>
        <time>2018-10-20T09:32:04Z</time>
      </trkpt>
      <trkpt lat="45.95014" lon="4.95223">
        <ele>289</ele>
        <time>2018-10-20T09:32:05Z</time>
      </trkpt>
      <trkpt lat="45.95015" lon="4.95231">
        <ele>289</ele>
        <time>2018-10-20T09:32:06Z</time>
      </trkpt>
      <trkpt lat="45.95016" lon="4.95239">
        <ele>290</ele>
        <time>2018-10-20T09:32:07Z</time>
      </trkpt>
      <trkpt lat="45.95018" lon="4.95244">
        <ele>289</ele>
        <time>2018-10-20T09:32:08Z</time>
      </trkpt>
      <trkpt lat="45.95019" lon="4.95252">
        <ele>289</ele>
        <time>2018-10-20T09:32:09Z</time>
      </trkpt>
      <trkpt lat="45.9502" lon="4.95262">
        <ele>289</ele>
        <time>2018-10-20T09:32:10Z</time>
      </trkpt>
      <trkpt lat="45.95022" lon="4.95271">
        <ele>289</ele>
        <time>2018-10-20T09:32:11Z</time>
      </trkpt>
      <trkpt lat="45.95022" lon="4.95278">
        <ele>289</ele>
        <time>2018-10-20T09:32:12Z</time>
      </trkpt>
      <trkpt lat="45.95023" lon="4.95286">
        <ele>289</ele>
        <time>2018-10-20T09:32:13Z</time>
      </trkpt>
      <trkpt lat="45.95023" lon="4.95294">
        <ele>289</ele>
        <time>2018-10-20T09:32:14Z</time>
      </trkpt>
      <trkpt lat="45.95024" lon="4.95306">
        <ele>289</ele>
        <time>2018-10-20T09:32:16Z</time>
      </trkpt>
      <trkpt lat="45.95024" lon="4.95312">
        <ele>289</ele>
        <time>2018-10-20T09:32:17Z</time>
      </trkpt>
      <trkpt lat="45.95024" lon="4.95319">
        <ele>289</ele>
        <time>2018-10-20T09:32:18Z</time>
      </trkpt>
      <trkpt lat="45.95024" lon="4.95328">
        <ele>289</ele>
        <time>2018-10-20T09:32:19Z</time>
      </trkpt>
      <trkpt lat="45.95025" lon="4.95334">
        <ele>289</ele>
        <time>2018-10-20T09:32:20Z</time>
      </trkpt>
      <trkpt lat="45.95025" lon="4.95342">
        <ele>289</ele>
        <time>2018-10-20T09:32:21Z</time>
      </trkpt>
      <trkpt lat="45.95026" lon="4.9535">
        <ele>289</ele>
        <time>2018-10-20T09:32:22Z</time>
      </trkpt>
      <trkpt lat="45.95026" lon="4.95358">
        <ele>288</ele>
        <time>2018-10-20T09:32:23Z</time>
      </trkpt>
      <trkpt lat="45.95025" lon="4.95366">
        <ele>288</ele>
        <time>2018-10-20T09:32:24Z</time>
      </trkpt>
      <trkpt lat="45.95025" lon="4.95374">
        <ele>288</ele>
        <time>2018-10-20T09:32:25Z</time>
      </trkpt>
      <trkpt lat="45.95025" lon="4.95383">
        <ele>288</ele>
        <time>2018-10-20T09:32:26Z</time>
      </trkpt>
      <trkpt lat="45.95024" lon="4.95391">
        <ele>288</ele>
        <time>2018-10-20T09:32:27Z</time>
      </trkpt>
      <trkpt lat="45.95023" lon="4.95398">
        <ele>288</ele>
        <time>2018-10-20T09:32:28Z</time>
      </trkpt>
      <trkpt lat="45.95023" lon="4.95406">
        <ele>288</ele>
        <time>2018-10-20T09:32:29Z</time>
      </trkpt>
      <trkpt lat="45.95023" lon="4.95414">
        <ele>288</ele>
        <time>2018-10-20T09:32:30Z</time>
      </trkpt>
      <trkpt lat="45.95022" lon="4.95423">
        <ele>288</ele>
        <time>2018-10-20T09:32:31Z</time>
      </trkpt>
      <trkpt lat="45.95021" lon="4.95431">
        <ele>288</ele>
        <time>2018-10-20T09:32:32Z</time>
      </trkpt>
      <trkpt lat="45.95021" lon="4.9544">
        <ele>288</ele>
        <time>2018-10-20T09:32:33Z</time>
      </trkpt>
      <trkpt lat="45.95021" lon="4.95448">
        <ele>288</ele>
        <time>2018-10-20T09:32:34Z</time>
      </trkpt>
      <trkpt lat="45.95021" lon="4.95458">
        <ele>288</ele>
        <time>2018-10-20T09:32:35Z</time>
      </trkpt>
      <trkpt lat="45.95021" lon="4.95467">
        <ele>288</ele>
        <time>2018-10-20T09:32:36Z</time>
      </trkpt>
      <trkpt lat="45.95021" lon="4.95475">
        <ele>288</ele>
        <time>2018-10-20T09:32:37Z</time>
      </trkpt>
      <trkpt lat="45.95021" lon="4.95483">
        <ele>288</ele>
        <time>2018-10-20T09:32:38Z</time>
      </trkpt>
      <trkpt lat="45.95022" lon="4.95492">
        <ele>288</ele>
        <time>2018-10-20T09:32:39Z</time>
      </trkpt>
      <trkpt lat="45.95022" lon="4.955">
        <ele>287</ele>
        <time>2018-10-20T09:32:40Z</time>
      </trkpt>
      <trkpt lat="45.95023" lon="4.95509">
        <ele>287</ele>
        <time>2018-10-20T09:32:41Z</time>
      </trkpt>
      <trkpt lat="45.95024" lon="4.95515">
        <ele>287</ele>
        <time>2018-10-20T09:32:42Z</time>
      </trkpt>
      <trkpt lat="45.95024" lon="4.95524">
        <ele>287</ele>
        <time>2018-10-20T09:32:43Z</time>
      </trkpt>
      <trkpt lat="45.95026" lon="4.95533">
        <ele>287</ele>
        <time>2018-10-20T09:32:44Z</time>
      </trkpt>
      <trkpt lat="45.95028" lon="4.95541">
        <ele>287</ele>
        <time>2018-10-20T09:32:45Z</time>
      </trkpt>
      <trkpt lat="45.9503" lon="4.95549">
        <ele>287</ele>
        <time>2018-10-20T09:32:46Z</time>
      </trkpt>
      <trkpt lat="45.95032" lon="4.95556">
        <ele>287</ele>
        <time>2018-10-20T09:32:47Z</time>
      </trkpt>
      <trkpt lat="45.95033" lon="4.95564">
        <ele>287</ele>
        <time>2018-10-20T09:32:48Z</time>
      </trkpt>
      <trkpt lat="45.95036" lon="4.95572">
        <ele>287</ele>
        <time>2018-10-20T09:32:49Z</time>
      </trkpt>
      <trkpt lat="45.95039" lon="4.95579">
        <ele>286</ele>
        <time>2018-10-20T09:32:50Z</time>
      </trkpt>
      <trkpt lat="45.95042" lon="4.95587">
        <ele>286</ele>
        <time>2018-10-20T09:32:51Z</time>
      </trkpt>
      <trkpt lat="45.95044" lon="4.95594">
        <ele>286</ele>
        <time>2018-10-20T09:32:52Z</time>
      </trkpt>
      <trkpt lat="45.95046" lon="4.95602">
        <ele>286</ele>
        <time>2018-10-20T09:32:53Z</time>
      </trkpt>
      <trkpt lat="45.95049" lon="4.9561">
        <ele>286</ele>
        <time>2018-10-20T09:32:54Z</time>
      </trkpt>
      <trkpt lat="45.95051" lon="4.9562">
        <ele>286</ele>
        <time>2018-10-20T09:32:55Z</time>
      </trkpt>
      <trkpt lat="45.95055" lon="4.95629">
        <ele>286</ele>
        <time>2018-10-20T09:32:56Z</time>
      </trkpt>
      <trkpt lat="45.95058" lon="4.95637">
        <ele>286</ele>
        <time>2018-10-20T09:32:57Z</time>
      </trkpt>
      <trkpt lat="45.95061" lon="4.95646">
        <ele>286</ele>
        <time>2018-10-20T09:32:58Z</time>
      </trkpt>
      <trkpt lat="45.95064" lon="4.95654">
        <ele>286</ele>
        <time>2018-10-20T09:32:59Z</time>
      </trkpt>
      <trkpt lat="45.95067" lon="4.95663">
        <ele>286</ele>
        <time>2018-10-20T09:33:00Z</time>
      </trkpt>
      <trkpt lat="45.95069" lon="4.95671">
        <ele>286</ele>
        <time>2018-10-20T09:33:01Z</time>
      </trkpt>
      <trkpt lat="45.95071" lon="4.9568">
        <ele>286</ele>
        <time>2018-10-20T09:33:02Z</time>
      </trkpt>
      <trkpt lat="45.95074" lon="4.95687">
        <ele>286</ele>
        <time>2018-10-20T09:33:03Z</time>
      </trkpt>
      <trkpt lat="45.95076" lon="4.95696">
        <ele>286</ele>
        <time>2018-10-20T09:33:04Z</time>
      </trkpt>
      <trkpt lat="45.95078" lon="4.95704">
        <ele>286</ele>
        <time>2018-10-20T09:33:05Z</time>
      </trkpt>
      <trkpt lat="45.95081" lon="4.95713">
        <ele>286</ele>
        <time>2018-10-20T09:33:06Z</time>
      </trkpt>
      <trkpt lat="45.95082" lon="4.9572">
        <ele>286</ele>
        <time>2018-10-20T09:33:07Z</time>
      </trkpt>
      <trkpt lat="45.95084" lon="4.95728">
        <ele>285</ele>
        <time>2018-10-20T09:33:08Z</time>
      </trkpt>
      <trkpt lat="45.95088" lon="4.95735">
        <ele>285</ele>
        <time>2018-10-20T09:33:09Z</time>
      </trkpt>
      <trkpt lat="45.95091" lon="4.95742">
        <ele>285</ele>
        <time>2018-10-20T09:33:10Z</time>
      </trkpt>
      <trkpt lat="45.95093" lon="4.95749">
        <ele>285</ele>
        <time>2018-10-20T09:33:11Z</time>
      </trkpt>
      <trkpt lat="45.95095" lon="4.95756">
        <ele>285</ele>
        <time>2018-10-20T09:33:12Z</time>
      </trkpt>
      <trkpt lat="45.95097" lon="4.95763">
        <ele>285</ele>
        <time>2018-10-20T09:33:13Z</time>
      </trkpt>
      <trkpt lat="45.95099" lon="4.95771">
        <ele>285</ele>
        <time>2018-10-20T09:33:14Z</time>
      </trkpt>
      <trkpt lat="45.95101" lon="4.95779">
        <ele>285</ele>
        <time>2018-10-20T09:33:15Z</time>
      </trkpt>
      <trkpt lat="45.95103" lon="4.95785">
        <ele>285</ele>
        <time>2018-10-20T09:33:16Z</time>
      </trkpt>
      <trkpt lat="45.95104" lon="4.95792">
        <ele>285</ele>
        <time>2018-10-20T09:33:17Z</time>
      </trkpt>
      <trkpt lat="45.95105" lon="4.958">
        <ele>285</ele>
        <time>2018-10-20T09:33:18Z</time>
      </trkpt>
      <trkpt lat="45.95107" lon="4.95809">
        <ele>285</ele>
        <time>2018-10-20T09:33:19Z</time>
      </trkpt>
      <trkpt lat="45.95109" lon="4.95818">
        <ele>285</ele>
        <time>2018-10-20T09:33:20Z</time>
      </trkpt>
      <trkpt lat="45.95111" lon="4.95826">
        <ele>285</ele>
        <time>2018-10-20T09:33:21Z</time>
      </trkpt>
      <trkpt lat="45.95112" lon="4.95835">
        <ele>285</ele>
        <time>2018-10-20T09:33:22Z</time>
      </trkpt>
      <trkpt lat="45.95115" lon="4.95844">
        <ele>285</ele>
        <time>2018-10-20T09:33:23Z</time>
      </trkpt>
      <trkpt lat="45.95115" lon="4.95852">
        <ele>285</ele>
        <time>2018-10-20T09:33:24Z</time>
      </trkpt>
      <trkpt lat="45.95117" lon="4.9586">
        <ele>285</ele>
        <time>2018-10-20T09:33:25Z</time>
      </trkpt>
      <trkpt lat="45.95119" lon="4.95868">
        <ele>285</ele>
        <time>2018-10-20T09:33:26Z</time>
      </trkpt>
      <trkpt lat="45.95121" lon="4.95875">
        <ele>285</ele>
        <time>2018-10-20T09:33:27Z</time>
      </trkpt>
      <trkpt lat="45.95122" lon="4.95882">
        <ele>285</ele>
        <time>2018-10-20T09:33:28Z</time>
      </trkpt>
      <trkpt lat="45.95123" lon="4.95889">
        <ele>285</ele>
        <time>2018-10-20T09:33:29Z</time>
      </trkpt>
      <trkpt lat="45.95125" lon="4.95896">
        <ele>285</ele>
        <time>2018-10-20T09:33:30Z</time>
      </trkpt>
      <trkpt lat="45.95126" lon="4.95903">
        <ele>284</ele>
        <time>2018-10-20T09:33:31Z</time>
      </trkpt>
      <trkpt lat="45.95127" lon="4.9591">
        <ele>284</ele>
        <time>2018-10-20T09:33:32Z</time>
      </trkpt>
      <trkpt lat="45.95129" lon="4.95917">
        <ele>284</ele>
        <time>2018-10-20T09:33:33Z</time>
      </trkpt>
      <trkpt lat="45.95131" lon="4.95925">
        <ele>284</ele>
        <time>2018-10-20T09:33:34Z</time>
      </trkpt>
      <trkpt lat="45.95133" lon="4.95934">
        <ele>284</ele>
        <time>2018-10-20T09:33:35Z</time>
      </trkpt>
      <trkpt lat="45.95135" lon="4.95942">
        <ele>284</ele>
        <time>2018-10-20T09:33:36Z</time>
      </trkpt>
      <trkpt lat="45.95136" lon="4.95949">
        <ele>284</ele>
        <time>2018-10-20T09:33:37Z</time>
      </trkpt>
      <trkpt lat="45.95138" lon="4.95957">
        <ele>284</ele>
        <time>2018-10-20T09:33:38Z</time>
      </trkpt>
      <trkpt lat="45.9514" lon="4.95965">
        <ele>285</ele>
        <time>2018-10-20T09:33:39Z</time>
      </trkpt>
      <trkpt lat="45.95141" lon="4.95973">
        <ele>285</ele>
        <time>2018-10-20T09:33:40Z</time>
      </trkpt>
      <trkpt lat="45.95144" lon="4.9598">
        <ele>285</ele>
        <time>2018-10-20T09:33:41Z</time>
      </trkpt>
      <trkpt lat="45.95146" lon="4.95986">
        <ele>285</ele>
        <time>2018-10-20T09:33:42Z</time>
      </trkpt>
      <trkpt lat="45.95148" lon="4.95992">
        <ele>285</ele>
        <time>2018-10-20T09:33:43Z</time>
      </trkpt>
      <trkpt lat="45.9515" lon="4.96003">
        <ele>285</ele>
        <time>2018-10-20T09:33:45Z</time>
      </trkpt>
      <trkpt lat="45.95151" lon="4.9601">
        <ele>285</ele>
        <time>2018-10-20T09:33:46Z</time>
      </trkpt>
      <trkpt lat="45.95153" lon="4.96018">
        <ele>285</ele>
        <time>2018-10-20T09:33:47Z</time>
      </trkpt>
      <trkpt lat="45.95154" lon="4.96025">
        <ele>285</ele>
        <time>2018-10-20T09:33:48Z</time>
      </trkpt>
      <trkpt lat="45.95156" lon="4.96032">
        <ele>285</ele>
        <time>2018-10-20T09:33:49Z</time>
      </trkpt>
      <trkpt lat="45.95158" lon="4.9604">
        <ele>285</ele>
        <time>2018-10-20T09:33:50Z</time>
      </trkpt>
      <trkpt lat="45.9516" lon="4.96047">
        <ele>285</ele>
        <time>2018-10-20T09:33:51Z</time>
      </trkpt>
      <trkpt lat="45.95161" lon="4.96054">
        <ele>285</ele>
        <time>2018-10-20T09:33:52Z</time>
      </trkpt>
      <trkpt lat="45.95162" lon="4.9606">
        <ele>285</ele>
        <time>2018-10-20T09:33:53Z</time>
      </trkpt>
      <trkpt lat="45.95163" lon="4.96066">
        <ele>286</ele>
        <time>2018-10-20T09:33:54Z</time>
      </trkpt>
      <trkpt lat="45.95165" lon="4.96075">
        <ele>286</ele>
        <time>2018-10-20T09:33:55Z</time>
      </trkpt>
      <trkpt lat="45.95166" lon="4.96084">
        <ele>286</ele>
        <time>2018-10-20T09:33:56Z</time>
      </trkpt>
      <trkpt lat="45.95168" lon="4.96091">
        <ele>286</ele>
        <time>2018-10-20T09:33:57Z</time>
      </trkpt>
      <trkpt lat="45.95169" lon="4.96101">
        <ele>286</ele>
        <time>2018-10-20T09:33:58Z</time>
      </trkpt>
      <trkpt lat="45.95169" lon="4.96109">
        <ele>286</ele>
        <time>2018-10-20T09:33:59Z</time>
      </trkpt>
      <trkpt lat="45.95169" lon="4.96118">
        <ele>286</ele>
        <time>2018-10-20T09:34:00Z</time>
      </trkpt>
      <trkpt lat="45.95169" lon="4.96126">
        <ele>286</ele>
        <time>2018-10-20T09:34:01Z</time>
      </trkpt>
      <trkpt lat="45.95169" lon="4.96134">
        <ele>286</ele>
        <time>2018-10-20T09:34:02Z</time>
      </trkpt>
      <trkpt lat="45.95169" lon="4.96143">
        <ele>286</ele>
        <time>2018-10-20T09:34:03Z</time>
      </trkpt>
      <trkpt lat="45.95169" lon="4.96152">
        <ele>286</ele>
        <time>2018-10-20T09:34:04Z</time>
      </trkpt>
      <trkpt lat="45.95168" lon="4.9616">
        <ele>286</ele>
        <time>2018-10-20T09:34:05Z</time>
      </trkpt>
      <trkpt lat="45.95167" lon="4.96169">
        <ele>286</ele>
        <time>2018-10-20T09:34:06Z</time>
      </trkpt>
      <trkpt lat="45.95168" lon="4.96179">
        <ele>286</ele>
        <time>2018-10-20T09:34:07Z</time>
      </trkpt>
      <trkpt lat="45.95167" lon="4.96187">
        <ele>286</ele>
        <time>2018-10-20T09:34:08Z</time>
      </trkpt>
      <trkpt lat="45.95167" lon="4.96195">
        <ele>286</ele>
        <time>2018-10-20T09:34:09Z</time>
      </trkpt>
      <trkpt lat="45.95167" lon="4.96202">
        <ele>286</ele>
        <time>2018-10-20T09:34:10Z</time>
      </trkpt>
      <trkpt lat="45.95166" lon="4.96209">
        <ele>286</ele>
        <time>2018-10-20T09:34:11Z</time>
      </trkpt>
      <trkpt lat="45.95165" lon="4.96216">
        <ele>286</ele>
        <time>2018-10-20T09:34:12Z</time>
      </trkpt>
      <trkpt lat="45.95165" lon="4.96223">
        <ele>286</ele>
        <time>2018-10-20T09:34:13Z</time>
      </trkpt>
      <trkpt lat="45.95164" lon="4.96229">
        <ele>286</ele>
        <time>2018-10-20T09:34:14Z</time>
      </trkpt>
      <trkpt lat="45.95164" lon="4.96236">
        <ele>286</ele>
        <time>2018-10-20T09:34:15Z</time>
      </trkpt>
      <trkpt lat="45.95163" lon="4.96243">
        <ele>286</ele>
        <time>2018-10-20T09:34:16Z</time>
      </trkpt>
      <trkpt lat="45.95163" lon="4.96251">
        <ele>286</ele>
        <time>2018-10-20T09:34:17Z</time>
      </trkpt>
      <trkpt lat="45.95161" lon="4.96257">
        <ele>286</ele>
        <time>2018-10-20T09:34:18Z</time>
      </trkpt>
      <trkpt lat="45.95158" lon="4.96265">
        <ele>286</ele>
        <time>2018-10-20T09:34:19Z</time>
      </trkpt>
      <trkpt lat="45.95157" lon="4.96273">
        <ele>285</ele>
        <time>2018-10-20T09:34:20Z</time>
      </trkpt>
      <trkpt lat="45.95156" lon="4.9628">
        <ele>285</ele>
        <time>2018-10-20T09:34:21Z</time>
      </trkpt>
      <trkpt lat="45.95153" lon="4.96286">
        <ele>285</ele>
        <time>2018-10-20T09:34:22Z</time>
      </trkpt>
      <trkpt lat="45.95151" lon="4.96293">
        <ele>285</ele>
        <time>2018-10-20T09:34:23Z</time>
      </trkpt>
      <trkpt lat="45.95148" lon="4.963">
        <ele>285</ele>
        <time>2018-10-20T09:34:24Z</time>
      </trkpt>
      <trkpt lat="45.95145" lon="4.96307">
        <ele>285</ele>
        <time>2018-10-20T09:34:25Z</time>
      </trkpt>
      <trkpt lat="45.95142" lon="4.96313">
        <ele>285</ele>
        <time>2018-10-20T09:34:26Z</time>
      </trkpt>
      <trkpt lat="45.95139" lon="4.96319">
        <ele>286</ele>
        <time>2018-10-20T09:34:27Z</time>
      </trkpt>
      <trkpt lat="45.95136" lon="4.96325">
        <ele>285</ele>
        <time>2018-10-20T09:34:28Z</time>
      </trkpt>
      <trkpt lat="45.95134" lon="4.96331">
        <ele>285</ele>
        <time>2018-10-20T09:34:29Z</time>
      </trkpt>
      <trkpt lat="45.95131" lon="4.96336">
        <ele>286</ele>
        <time>2018-10-20T09:34:30Z</time>
      </trkpt>
      <trkpt lat="45.9513" lon="4.96341">
        <ele>286</ele>
        <time>2018-10-20T09:34:31Z</time>
      </trkpt>
      <trkpt lat="45.95129" lon="4.96349">
        <ele>286</ele>
        <time>2018-10-20T09:34:32Z</time>
      </trkpt>
      <trkpt lat="45.95123" lon="4.96357">
        <ele>286</ele>
        <time>2018-10-20T09:34:34Z</time>
      </trkpt>
      <trkpt lat="45.95122" lon="4.96364">
        <ele>286</ele>
        <time>2018-10-20T09:34:35Z</time>
      </trkpt>
      <trkpt lat="45.95118" lon="4.96374">
        <ele>286</ele>
        <time>2018-10-20T09:34:37Z</time>
      </trkpt>
      <trkpt lat="45.95116" lon="4.96381">
        <ele>286</ele>
        <time>2018-10-20T09:34:38Z</time>
      </trkpt>
      <trkpt lat="45.95114" lon="4.96388">
        <ele>286</ele>
        <time>2018-10-20T09:34:39Z</time>
      </trkpt>
      <trkpt lat="45.95113" lon="4.96395">
        <ele>286</ele>
        <time>2018-10-20T09:34:40Z</time>
      </trkpt>
      <trkpt lat="45.95112" lon="4.96403">
        <ele>286</ele>
        <time>2018-10-20T09:34:41Z</time>
      </trkpt>
      <trkpt lat="45.95109" lon="4.96408">
        <ele>286</ele>
        <time>2018-10-20T09:34:42Z</time>
      </trkpt>
      <trkpt lat="45.95108" lon="4.96415">
        <ele>286</ele>
        <time>2018-10-20T09:34:43Z</time>
      </trkpt>
      <trkpt lat="45.95105" lon="4.96421">
        <ele>286</ele>
        <time>2018-10-20T09:34:44Z</time>
      </trkpt>
      <trkpt lat="45.95102" lon="4.96429">
        <ele>287</ele>
        <time>2018-10-20T09:34:45Z</time>
      </trkpt>
      <trkpt lat="45.951" lon="4.96435">
        <ele>287</ele>
        <time>2018-10-20T09:34:46Z</time>
      </trkpt>
      <trkpt lat="45.95099" lon="4.96443">
        <ele>287</ele>
        <time>2018-10-20T09:34:47Z</time>
      </trkpt>
      <trkpt lat="45.95097" lon="4.96449">
        <ele>287</ele>
        <time>2018-10-20T09:34:48Z</time>
      </trkpt>
      <trkpt lat="45.95095" lon="4.96454">
        <ele>287</ele>
        <time>2018-10-20T09:34:49Z</time>
      </trkpt>
      <trkpt lat="45.95093" lon="4.9646">
        <ele>287</ele>
        <time>2018-10-20T09:34:50Z</time>
      </trkpt>
      <trkpt lat="45.95089" lon="4.96471">
        <ele>287</ele>
        <time>2018-10-20T09:34:53Z</time>
      </trkpt>
      <trkpt lat="45.95086" lon="4.96481">
        <ele>287</ele>
        <time>2018-10-20T09:34:54Z</time>
      </trkpt>
      <trkpt lat="45.95084" lon="4.96488">
        <ele>287</ele>
        <time>2018-10-20T09:34:55Z</time>
      </trkpt>
      <trkpt lat="45.95082" lon="4.96493">
        <ele>288</ele>
        <time>2018-10-20T09:34:56Z</time>
      </trkpt>
      <trkpt lat="45.95078" lon="4.96499">
        <ele>288</ele>
        <time>2018-10-20T09:34:57Z</time>
      </trkpt>
      <trkpt lat="45.95077" lon="4.96506">
        <ele>288</ele>
        <time>2018-10-20T09:34:58Z</time>
      </trkpt>
      <trkpt lat="45.95076" lon="4.96514">
        <ele>288</ele>
        <time>2018-10-20T09:34:59Z</time>
      </trkpt>
      <trkpt lat="45.95073" lon="4.9652">
        <ele>288</ele>
        <time>2018-10-20T09:35:00Z</time>
      </trkpt>
      <trkpt lat="45.9507" lon="4.96527">
        <ele>287</ele>
        <time>2018-10-20T09:35:01Z</time>
      </trkpt>
      <trkpt lat="45.95067" lon="4.96535">
        <ele>287</ele>
        <time>2018-10-20T09:35:02Z</time>
      </trkpt>
      <trkpt lat="45.95066" lon="4.96542">
        <ele>287</ele>
        <time>2018-10-20T09:35:03Z</time>
      </trkpt>
      <trkpt lat="45.95063" lon="4.96547">
        <ele>287</ele>
        <time>2018-10-20T09:35:04Z</time>
      </trkpt>
      <trkpt lat="45.95062" lon="4.96555">
        <ele>287</ele>
        <time>2018-10-20T09:35:05Z</time>
      </trkpt>
      <trkpt lat="45.9506" lon="4.96561">
        <ele>287</ele>
        <time>2018-10-20T09:35:06Z</time>
      </trkpt>
      <trkpt lat="45.95057" lon="4.96567">
        <ele>287</ele>
        <time>2018-10-20T09:35:07Z</time>
      </trkpt>
      <trkpt lat="45.95056" lon="4.96574">
        <ele>287</ele>
        <time>2018-10-20T09:35:08Z</time>
      </trkpt>
      <trkpt lat="45.95053" lon="4.96579">
        <ele>287</ele>
        <time>2018-10-20T09:35:09Z</time>
      </trkpt>
      <trkpt lat="45.95053" lon="4.96587">
        <ele>288</ele>
        <time>2018-10-20T09:35:10Z</time>
      </trkpt>
      <trkpt lat="45.95053" lon="4.96594">
        <ele>288</ele>
        <time>2018-10-20T09:35:11Z</time>
      </trkpt>
      <trkpt lat="45.95052" lon="4.96601">
        <ele>288</ele>
        <time>2018-10-20T09:35:12Z</time>
      </trkpt>
      <trkpt lat="45.9505" lon="4.96613">
        <ele>288</ele>
        <time>2018-10-20T09:35:14Z</time>
      </trkpt>
      <trkpt lat="45.9505" lon="4.9662">
        <ele>288</ele>
        <time>2018-10-20T09:35:15Z</time>
      </trkpt>
      <trkpt lat="45.95049" lon="4.96627">
        <ele>287</ele>
        <time>2018-10-20T09:35:16Z</time>
      </trkpt>
      <trkpt lat="45.95049" lon="4.96635">
        <ele>287</ele>
        <time>2018-10-20T09:35:17Z</time>
      </trkpt>
      <trkpt lat="45.95049" lon="4.96644">
        <ele>287</ele>
        <time>2018-10-20T09:35:18Z</time>
      </trkpt>
      <trkpt lat="45.95048" lon="4.9665">
        <ele>287</ele>
        <time>2018-10-20T09:35:19Z</time>
      </trkpt>
      <trkpt lat="45.95048" lon="4.96659">
        <ele>287</ele>
        <time>2018-10-20T09:35:20Z</time>
      </trkpt>
      <trkpt lat="45.95046" lon="4.96666">
        <ele>287</ele>
        <time>2018-10-20T09:35:21Z</time>
      </trkpt>
      <trkpt lat="45.95046" lon="4.96674">
        <ele>287</ele>
        <time>2018-10-20T09:35:22Z</time>
      </trkpt>
      <trkpt lat="45.95046" lon="4.96681">
        <ele>287</ele>
        <time>2018-10-20T09:35:23Z</time>
      </trkpt>
      <trkpt lat="45.95045" lon="4.96688">
        <ele>287</ele>
        <time>2018-10-20T09:35:24Z</time>
      </trkpt>
      <trkpt lat="45.95046" lon="4.96695">
        <ele>287</ele>
        <time>2018-10-20T09:35:25Z</time>
      </trkpt>
      <trkpt lat="45.95046" lon="4.96703">
        <ele>287</ele>
        <time>2018-10-20T09:35:26Z</time>
      </trkpt>
      <trkpt lat="45.95046" lon="4.96711">
        <ele>287</ele>
        <time>2018-10-20T09:35:27Z</time>
      </trkpt>
      <trkpt lat="45.95046" lon="4.96719">
        <ele>287</ele>
        <time>2018-10-20T09:35:28Z</time>
      </trkpt>
      <trkpt lat="45.95046" lon="4.96726">
        <ele>287</ele>
        <time>2018-10-20T09:35:29Z</time>
      </trkpt>
      <trkpt lat="45.95045" lon="4.96732">
        <ele>287</ele>
        <time>2018-10-20T09:35:30Z</time>
      </trkpt>
      <trkpt lat="45.95045" lon="4.96739">
        <ele>287</ele>
        <time>2018-10-20T09:35:31Z</time>
      </trkpt>
      <trkpt lat="45.95045" lon="4.96746">
        <ele>287</ele>
        <time>2018-10-20T09:35:32Z</time>
      </trkpt>
      <trkpt lat="45.95045" lon="4.96753">
        <ele>287</ele>
        <time>2018-10-20T09:35:33Z</time>
      </trkpt>
      <trkpt lat="45.95046" lon="4.96759">
        <ele>287</ele>
        <time>2018-10-20T09:35:34Z</time>
      </trkpt>
      <trkpt lat="45.95047" lon="4.96766">
        <ele>287</ele>
        <time>2018-10-20T09:35:35Z</time>
      </trkpt>
      <trkpt lat="45.95047" lon="4.96773">
        <ele>287</ele>
        <time>2018-10-20T09:35:36Z</time>
      </trkpt>
      <trkpt lat="45.95049" lon="4.96781">
        <ele>286</ele>
        <time>2018-10-20T09:35:37Z</time>
      </trkpt>
      <trkpt lat="45.95049" lon="4.96789">
        <ele>286</ele>
        <time>2018-10-20T09:35:38Z</time>
      </trkpt>
      <trkpt lat="45.95049" lon="4.96796">
        <ele>286</ele>
        <time>2018-10-20T09:35:39Z</time>
      </trkpt>
      <trkpt lat="45.95049" lon="4.96804">
        <ele>286</ele>
        <time>2018-10-20T09:35:40Z</time>
      </trkpt>
      <trkpt lat="45.9505" lon="4.96811">
        <ele>286</ele>
        <time>2018-10-20T09:35:41Z</time>
      </trkpt>
      <trkpt lat="45.9505" lon="4.9682">
        <ele>286</ele>
        <time>2018-10-20T09:35:42Z</time>
      </trkpt>
      <trkpt lat="45.95051" lon="4.96828">
        <ele>286</ele>
        <time>2018-10-20T09:35:43Z</time>
      </trkpt>
      <trkpt lat="45.95051" lon="4.96836">
        <ele>286</ele>
        <time>2018-10-20T09:35:44Z</time>
      </trkpt>
      <trkpt lat="45.95051" lon="4.96844">
        <ele>286</ele>
        <time>2018-10-20T09:35:45Z</time>
      </trkpt>
      <trkpt lat="45.95052" lon="4.96852">
        <ele>286</ele>
        <time>2018-10-20T09:35:46Z</time>
      </trkpt>
      <trkpt lat="45.95052" lon="4.9686">
        <ele>286</ele>
        <time>2018-10-20T09:35:47Z</time>
      </trkpt>
      <trkpt lat="45.95052" lon="4.96869">
        <ele>286</ele>
        <time>2018-10-20T09:35:48Z</time>
      </trkpt>
      <trkpt lat="45.95052" lon="4.96876">
        <ele>286</ele>
        <time>2018-10-20T09:35:49Z</time>
      </trkpt>
      <trkpt lat="45.95053" lon="4.96886">
        <ele>286</ele>
        <time>2018-10-20T09:35:50Z</time>
      </trkpt>
      <trkpt lat="45.95054" lon="4.96895">
        <ele>285</ele>
        <time>2018-10-20T09:35:51Z</time>
      </trkpt>
      <trkpt lat="45.95054" lon="4.96904">
        <ele>285</ele>
        <time>2018-10-20T09:35:52Z</time>
      </trkpt>
      <trkpt lat="45.95054" lon="4.96912">
        <ele>285</ele>
        <time>2018-10-20T09:35:53Z</time>
      </trkpt>
      <trkpt lat="45.95054" lon="4.96921">
        <ele>285</ele>
        <time>2018-10-20T09:35:54Z</time>
      </trkpt>
      <trkpt lat="45.95055" lon="4.9693">
        <ele>285</ele>
        <time>2018-10-20T09:35:55Z</time>
      </trkpt>
      <trkpt lat="45.95055" lon="4.96939">
        <ele>285</ele>
        <time>2018-10-20T09:35:56Z</time>
      </trkpt>
      <trkpt lat="45.95056" lon="4.96948">
        <ele>285</ele>
        <time>2018-10-20T09:35:57Z</time>
      </trkpt>
      <trkpt lat="45.95057" lon="4.96957">
        <ele>285</ele>
        <time>2018-10-20T09:35:58Z</time>
      </trkpt>
      <trkpt lat="45.95057" lon="4.96966">
        <ele>285</ele>
        <time>2018-10-20T09:35:59Z</time>
      </trkpt>
      <trkpt lat="45.95058" lon="4.96975">
        <ele>285</ele>
        <time>2018-10-20T09:36:00Z</time>
      </trkpt>
      <trkpt lat="45.95058" lon="4.96983">
        <ele>285</ele>
        <time>2018-10-20T09:36:01Z</time>
      </trkpt>
      <trkpt lat="45.95059" lon="4.96992">
        <ele>285</ele>
        <time>2018-10-20T09:36:02Z</time>
      </trkpt>
      <trkpt lat="45.95059" lon="4.97001">
        <ele>285</ele>
        <time>2018-10-20T09:36:03Z</time>
      </trkpt>
      <trkpt lat="45.95059" lon="4.97009">
        <ele>285</ele>
        <time>2018-10-20T09:36:04Z</time>
      </trkpt>
      <trkpt lat="45.95059" lon="4.97018">
        <ele>285</ele>
        <time>2018-10-20T09:36:05Z</time>
      </trkpt>
      <trkpt lat="45.9506" lon="4.97027">
        <ele>285</ele>
        <time>2018-10-20T09:36:06Z</time>
      </trkpt>
      <trkpt lat="45.95061" lon="4.97034">
        <ele>285</ele>
        <time>2018-10-20T09:36:07Z</time>
      </trkpt>
      <trkpt lat="45.95061" lon="4.97041">
        <ele>285</ele>
        <time>2018-10-20T09:36:08Z</time>
      </trkpt>
      <trkpt lat="45.95061" lon="4.97049">
        <ele>285</ele>
        <time>2018-10-20T09:36:09Z</time>
      </trkpt>
      <trkpt lat="45.95061" lon="4.97056">
        <ele>285</ele>
        <time>2018-10-20T09:36:10Z</time>
      </trkpt>
      <trkpt lat="45.95062" lon="4.97066">
        <ele>285</ele>
        <time>2018-10-20T09:36:11Z</time>
      </trkpt>
      <trkpt lat="45.95062" lon="4.97074">
        <ele>285</ele>
        <time>2018-10-20T09:36:12Z</time>
      </trkpt>
      <trkpt lat="45.95062" lon="4.97083">
        <ele>285</ele>
        <time>2018-10-20T09:36:13Z</time>
      </trkpt>
      <trkpt lat="45.95063" lon="4.97092">
        <ele>285</ele>
        <time>2018-10-20T09:36:14Z</time>
      </trkpt>
      <trkpt lat="45.95063" lon="4.971">
        <ele>285</ele>
        <time>2018-10-20T09:36:15Z</time>
      </trkpt>
      <trkpt lat="45.95064" lon="4.97109">
        <ele>285</ele>
        <time>2018-10-20T09:36:16Z</time>
      </trkpt>
      <trkpt lat="45.95064" lon="4.97117">
        <ele>285</ele>
        <time>2018-10-20T09:36:17Z</time>
      </trkpt>
      <trkpt lat="45.95064" lon="4.97126">
        <ele>285</ele>
        <time>2018-10-20T09:36:18Z</time>
      </trkpt>
      <trkpt lat="45.95064" lon="4.97135">
        <ele>285</ele>
        <time>2018-10-20T09:36:19Z</time>
      </trkpt>
      <trkpt lat="45.95065" lon="4.97144">
        <ele>285</ele>
        <time>2018-10-20T09:36:20Z</time>
      </trkpt>
      <trkpt lat="45.95065" lon="4.97153">
        <ele>285</ele>
        <time>2018-10-20T09:36:21Z</time>
      </trkpt>
      <trkpt lat="45.95065" lon="4.97162">
        <ele>285</ele>
        <time>2018-10-20T09:36:22Z</time>
      </trkpt>
      <trkpt lat="45.95065" lon="4.97171">
        <ele>285</ele>
        <time>2018-10-20T09:36:23Z</time>
      </trkpt>
      <trkpt lat="45.95065" lon="4.9718">
        <ele>285</ele>
        <time>2018-10-20T09:36:24Z</time>
      </trkpt>
      <trkpt lat="45.95066" lon="4.97188">
        <ele>285</ele>
        <time>2018-10-20T09:36:25Z</time>
      </trkpt>
      <trkpt lat="45.95066" lon="4.97197">
        <ele>285</ele>
        <time>2018-10-20T09:36:26Z</time>
      </trkpt>
      <trkpt lat="45.95066" lon="4.97207">
        <ele>285</ele>
        <time>2018-10-20T09:36:27Z</time>
      </trkpt>
      <trkpt lat="45.95067" lon="4.97215">
        <ele>285</ele>
        <time>2018-10-20T09:36:28Z</time>
      </trkpt>
      <trkpt lat="45.95068" lon="4.97222">
        <ele>285</ele>
        <time>2018-10-20T09:36:29Z</time>
      </trkpt>
      <trkpt lat="45.95069" lon="4.9723">
        <ele>285</ele>
        <time>2018-10-20T09:36:30Z</time>
      </trkpt>
      <trkpt lat="45.95069" lon="4.97239">
        <ele>285</ele>
        <time>2018-10-20T09:36:31Z</time>
      </trkpt>
      <trkpt lat="45.95069" lon="4.97247">
        <ele>285</ele>
        <time>2018-10-20T09:36:32Z</time>
      </trkpt>
      <trkpt lat="45.95069" lon="4.97255">
        <ele>286</ele>
        <time>2018-10-20T09:36:33Z</time>
      </trkpt>
      <trkpt lat="45.95069" lon="4.97263">
        <ele>286</ele>
        <time>2018-10-20T09:36:34Z</time>
      </trkpt>
      <trkpt lat="45.95071" lon="4.97272">
        <ele>286</ele>
        <time>2018-10-20T09:36:35Z</time>
      </trkpt>
      <trkpt lat="45.9507" lon="4.97279">
        <ele>285</ele>
        <time>2018-10-20T09:36:36Z</time>
      </trkpt>
      <trkpt lat="45.95071" lon="4.97287">
        <ele>285</ele>
        <time>2018-10-20T09:36:37Z</time>
      </trkpt>
      <trkpt lat="45.9507" lon="4.97294">
        <ele>285</ele>
        <time>2018-10-20T09:36:38Z</time>
      </trkpt>
      <trkpt lat="45.95071" lon="4.97302">
        <ele>286</ele>
        <time>2018-10-20T09:36:39Z</time>
      </trkpt>
      <trkpt lat="45.95071" lon="4.9731">
        <ele>286</ele>
        <time>2018-10-20T09:36:40Z</time>
      </trkpt>
      <trkpt lat="45.95071" lon="4.97318">
        <ele>286</ele>
        <time>2018-10-20T09:36:41Z</time>
      </trkpt>
      <trkpt lat="45.95072" lon="4.97328">
        <ele>286</ele>
        <time>2018-10-20T09:36:42Z</time>
      </trkpt>
      <trkpt lat="45.95072" lon="4.97336">
        <ele>286</ele>
        <time>2018-10-20T09:36:43Z</time>
      </trkpt>
      <trkpt lat="45.95072" lon="4.97343">
        <ele>286</ele>
        <time>2018-10-20T09:36:44Z</time>
      </trkpt>
      <trkpt lat="45.95072" lon="4.97349">
        <ele>286</ele>
        <time>2018-10-20T09:36:45Z</time>
      </trkpt>
      <trkpt lat="45.95072" lon="4.97361">
        <ele>286</ele>
        <time>2018-10-20T09:36:47Z</time>
      </trkpt>
      <trkpt lat="45.95072" lon="4.97367">
        <ele>286</ele>
        <time>2018-10-20T09:36:48Z</time>
      </trkpt>
      <trkpt lat="45.95071" lon="4.97379">
        <ele>287</ele>
        <time>2018-10-20T09:36:50Z</time>
      </trkpt>
      <trkpt lat="45.95072" lon="4.97385">
        <ele>287</ele>
        <time>2018-10-20T09:36:51Z</time>
      </trkpt>
      <trkpt lat="45.95072" lon="4.97394">
        <ele>287</ele>
        <time>2018-10-20T09:36:52Z</time>
      </trkpt>
      <trkpt lat="45.95072" lon="4.974">
        <ele>287</ele>
        <time>2018-10-20T09:36:53Z</time>
      </trkpt>
      <trkpt lat="45.95073" lon="4.97409">
        <ele>287</ele>
        <time>2018-10-20T09:36:54Z</time>
      </trkpt>
      <trkpt lat="45.95073" lon="4.97416">
        <ele>287</ele>
        <time>2018-10-20T09:36:55Z</time>
      </trkpt>
      <trkpt lat="45.95075" lon="4.97422">
        <ele>287</ele>
        <time>2018-10-20T09:36:56Z</time>
      </trkpt>
      <trkpt lat="45.95075" lon="4.9743">
        <ele>287</ele>
        <time>2018-10-20T09:36:57Z</time>
      </trkpt>
      <trkpt lat="45.95075" lon="4.97436">
        <ele>287</ele>
        <time>2018-10-20T09:36:58Z</time>
      </trkpt>
      <trkpt lat="45.95078" lon="4.97444">
        <ele>287</ele>
        <time>2018-10-20T09:36:59Z</time>
      </trkpt>
      <trkpt lat="45.95078" lon="4.97452">
        <ele>287</ele>
        <time>2018-10-20T09:37:00Z</time>
      </trkpt>
      <trkpt lat="45.95079" lon="4.97459">
        <ele>287</ele>
        <time>2018-10-20T09:37:01Z</time>
      </trkpt>
      <trkpt lat="45.9508" lon="4.97466">
        <ele>287</ele>
        <time>2018-10-20T09:37:02Z</time>
      </trkpt>
      <trkpt lat="45.9508" lon="4.97473">
        <ele>287</ele>
        <time>2018-10-20T09:37:03Z</time>
      </trkpt>
      <trkpt lat="45.9508" lon="4.9748">
        <ele>287</ele>
        <time>2018-10-20T09:37:04Z</time>
      </trkpt>
      <trkpt lat="45.9508" lon="4.97488">
        <ele>286</ele>
        <time>2018-10-20T09:37:05Z</time>
      </trkpt>
      <trkpt lat="45.9508" lon="4.97494">
        <ele>286</ele>
        <time>2018-10-20T09:37:06Z</time>
      </trkpt>
      <trkpt lat="45.95081" lon="4.97501">
        <ele>286</ele>
        <time>2018-10-20T09:37:07Z</time>
      </trkpt>
      <trkpt lat="45.95081" lon="4.97509">
        <ele>286</ele>
        <time>2018-10-20T09:37:08Z</time>
      </trkpt>
      <trkpt lat="45.95081" lon="4.97516">
        <ele>286</ele>
        <time>2018-10-20T09:37:09Z</time>
      </trkpt>
      <trkpt lat="45.95081" lon="4.97522">
        <ele>286</ele>
        <time>2018-10-20T09:37:10Z</time>
      </trkpt>
      <trkpt lat="45.95081" lon="4.97531">
        <ele>286</ele>
        <time>2018-10-20T09:37:11Z</time>
      </trkpt>
      <trkpt lat="45.95081" lon="4.97539">
        <ele>286</ele>
        <time>2018-10-20T09:37:12Z</time>
      </trkpt>
      <trkpt lat="45.95082" lon="4.97547">
        <ele>285</ele>
        <time>2018-10-20T09:37:13Z</time>
      </trkpt>
      <trkpt lat="45.95082" lon="4.97556">
        <ele>285</ele>
        <time>2018-10-20T09:37:14Z</time>
      </trkpt>
      <trkpt lat="45.95081" lon="4.97564">
        <ele>285</ele>
        <time>2018-10-20T09:37:15Z</time>
      </trkpt>
      <trkpt lat="45.9508" lon="4.97572">
        <ele>285</ele>
        <time>2018-10-20T09:37:16Z</time>
      </trkpt>
      <trkpt lat="45.9508" lon="4.97579">
        <ele>285</ele>
        <time>2018-10-20T09:37:17Z</time>
      </trkpt>
      <trkpt lat="45.95079" lon="4.97586">
        <ele>285</ele>
        <time>2018-10-20T09:37:18Z</time>
      </trkpt>
      <trkpt lat="45.95079" lon="4.97593">
        <ele>285</ele>
        <time>2018-10-20T09:37:19Z</time>
      </trkpt>
      <trkpt lat="45.95078" lon="4.97599">
        <ele>285</ele>
        <time>2018-10-20T09:37:20Z</time>
      </trkpt>
      <trkpt lat="45.95078" lon="4.97606">
        <ele>285</ele>
        <time>2018-10-20T09:37:21Z</time>
      </trkpt>
      <trkpt lat="45.95077" lon="4.97613">
        <ele>285</ele>
        <time>2018-10-20T09:37:22Z</time>
      </trkpt>
      <trkpt lat="45.95078" lon="4.97619">
        <ele>285</ele>
        <time>2018-10-20T09:37:23Z</time>
      </trkpt>
      <trkpt lat="45.95078" lon="4.97626">
        <ele>285</ele>
        <time>2018-10-20T09:37:24Z</time>
      </trkpt>
      <trkpt lat="45.95078" lon="4.97633">
        <ele>285</ele>
        <time>2018-10-20T09:37:25Z</time>
      </trkpt>
      <trkpt lat="45.95078" lon="4.9764">
        <ele>286</ele>
        <time>2018-10-20T09:37:26Z</time>
      </trkpt>
      <trkpt lat="45.95077" lon="4.97648">
        <ele>286</ele>
        <time>2018-10-20T09:37:27Z</time>
      </trkpt>
      <trkpt lat="45.95077" lon="4.97655">
        <ele>286</ele>
        <time>2018-10-20T09:37:28Z</time>
      </trkpt>
      <trkpt lat="45.95077" lon="4.97662">
        <ele>286</ele>
        <time>2018-10-20T09:37:29Z</time>
      </trkpt>
      <trkpt lat="45.95075" lon="4.97669">
        <ele>286</ele>
        <time>2018-10-20T09:37:30Z</time>
      </trkpt>
      <trkpt lat="45.95074" lon="4.97676">
        <ele>286</ele>
        <time>2018-10-20T09:37:31Z</time>
      </trkpt>
      <trkpt lat="45.95075" lon="4.97684">
        <ele>286</ele>
        <time>2018-10-20T09:37:32Z</time>
      </trkpt>
      <trkpt lat="45.95077" lon="4.97691">
        <ele>286</ele>
        <time>2018-10-20T09:37:33Z</time>
      </trkpt>
      <trkpt lat="45.95077" lon="4.97698">
        <ele>286</ele>
        <time>2018-10-20T09:37:34Z</time>
      </trkpt>
      <trkpt lat="45.95078" lon="4.97707">
        <ele>286</ele>
        <time>2018-10-20T09:37:35Z</time>
      </trkpt>
      <trkpt lat="45.95078" lon="4.97714">
        <ele>287</ele>
        <time>2018-10-20T09:37:36Z</time>
      </trkpt>
      <trkpt lat="45.95077" lon="4.9772">
        <ele>287</ele>
        <time>2018-10-20T09:37:37Z</time>
      </trkpt>
      <trkpt lat="45.95077" lon="4.97727">
        <ele>287</ele>
        <time>2018-10-20T09:37:38Z</time>
      </trkpt>
      <trkpt lat="45.95076" lon="4.97733">
        <ele>287</ele>
        <time>2018-10-20T09:37:39Z</time>
      </trkpt>
      <trkpt lat="45.95075" lon="4.97739">
        <ele>287</ele>
        <time>2018-10-20T09:37:40Z</time>
      </trkpt>
      <trkpt lat="45.95075" lon="4.97747">
        <ele>287</ele>
        <time>2018-10-20T09:37:41Z</time>
      </trkpt>
      <trkpt lat="45.95074" lon="4.97754">
        <ele>287</ele>
        <time>2018-10-20T09:37:42Z</time>
      </trkpt>
      <trkpt lat="45.95073" lon="4.97761">
        <ele>287</ele>
        <time>2018-10-20T09:37:43Z</time>
      </trkpt>
      <trkpt lat="45.95072" lon="4.97767">
        <ele>287</ele>
        <time>2018-10-20T09:37:44Z</time>
      </trkpt>
      <trkpt lat="45.95072" lon="4.97774">
        <ele>287</ele>
        <time>2018-10-20T09:37:45Z</time>
      </trkpt>
      <trkpt lat="45.95065" lon="4.97783">
        <ele>287</ele>
        <time>2018-10-20T09:37:47Z</time>
      </trkpt>
      <trkpt lat="45.95067" lon="4.97793">
        <ele>287</ele>
        <time>2018-10-20T09:37:48Z</time>
      </trkpt>
      <trkpt lat="45.95066" lon="4.97802">
        <ele>287</ele>
        <time>2018-10-20T09:37:50Z</time>
      </trkpt>
      <trkpt lat="45.95067" lon="4.97811">
        <ele>287</ele>
        <time>2018-10-20T09:37:51Z</time>
      </trkpt>
      <trkpt lat="45.95067" lon="4.97817">
        <ele>287</ele>
        <time>2018-10-20T09:37:52Z</time>
      </trkpt>
      <trkpt lat="45.95068" lon="4.97824">
        <ele>287</ele>
        <time>2018-10-20T09:37:53Z</time>
      </trkpt>
      <trkpt lat="45.95071" lon="4.97836">
        <ele>287</ele>
        <time>2018-10-20T09:37:55Z</time>
      </trkpt>
      <trkpt lat="45.95072" lon="4.97843">
        <ele>287</ele>
        <time>2018-10-20T09:37:56Z</time>
      </trkpt>
      <trkpt lat="45.95074" lon="4.97849">
        <ele>287</ele>
        <time>2018-10-20T09:37:57Z</time>
      </trkpt>
      <trkpt lat="45.95076" lon="4.97855">
        <ele>287</ele>
        <time>2018-10-20T09:37:58Z</time>
      </trkpt>
      <trkpt lat="45.95077" lon="4.97862">
        <ele>287</ele>
        <time>2018-10-20T09:37:59Z</time>
      </trkpt>
      <trkpt lat="45.95082" lon="4.9787">
        <ele>287</ele>
        <time>2018-10-20T09:38:00Z</time>
      </trkpt>
      <trkpt lat="45.95084" lon="4.97876">
        <ele>287</ele>
        <time>2018-10-20T09:38:01Z</time>
      </trkpt>
      <trkpt lat="45.95086" lon="4.97884">
        <ele>287</ele>
        <time>2018-10-20T09:38:02Z</time>
      </trkpt>
      <trkpt lat="45.95088" lon="4.97891">
        <ele>287</ele>
        <time>2018-10-20T09:38:03Z</time>
      </trkpt>
      <trkpt lat="45.9509" lon="4.97898">
        <ele>287</ele>
        <time>2018-10-20T09:38:04Z</time>
      </trkpt>
      <trkpt lat="45.95092" lon="4.97905">
        <ele>287</ele>
        <time>2018-10-20T09:38:05Z</time>
      </trkpt>
      <trkpt lat="45.95093" lon="4.97914">
        <ele>287</ele>
        <time>2018-10-20T09:38:06Z</time>
      </trkpt>
      <trkpt lat="45.95094" lon="4.97922">
        <ele>288</ele>
        <time>2018-10-20T09:38:07Z</time>
      </trkpt>
      <trkpt lat="45.95096" lon="4.9793">
        <ele>287</ele>
        <time>2018-10-20T09:38:08Z</time>
      </trkpt>
      <trkpt lat="45.95097" lon="4.97937">
        <ele>287</ele>
        <time>2018-10-20T09:38:09Z</time>
      </trkpt>
      <trkpt lat="45.95097" lon="4.97944">
        <ele>287</ele>
        <time>2018-10-20T09:38:10Z</time>
      </trkpt>
      <trkpt lat="45.95098" lon="4.97952">
        <ele>287</ele>
        <time>2018-10-20T09:38:11Z</time>
      </trkpt>
      <trkpt lat="45.95099" lon="4.97959">
        <ele>287</ele>
        <time>2018-10-20T09:38:12Z</time>
      </trkpt>
      <trkpt lat="45.951" lon="4.97966">
        <ele>287</ele>
        <time>2018-10-20T09:38:13Z</time>
      </trkpt>
      <trkpt lat="45.951" lon="4.97973">
        <ele>288</ele>
        <time>2018-10-20T09:38:14Z</time>
      </trkpt>
      <trkpt lat="45.95101" lon="4.9798">
        <ele>288</ele>
        <time>2018-10-20T09:38:15Z</time>
      </trkpt>
      <trkpt lat="45.95101" lon="4.97988">
        <ele>288</ele>
        <time>2018-10-20T09:38:16Z</time>
      </trkpt>
      <trkpt lat="45.95101" lon="4.97996">
        <ele>288</ele>
        <time>2018-10-20T09:38:17Z</time>
      </trkpt>
      <trkpt lat="45.95102" lon="4.98004">
        <ele>288</ele>
        <time>2018-10-20T09:38:18Z</time>
      </trkpt>
      <trkpt lat="45.95102" lon="4.98012">
        <ele>288</ele>
        <time>2018-10-20T09:38:19Z</time>
      </trkpt>
      <trkpt lat="45.95102" lon="4.9802">
        <ele>288</ele>
        <time>2018-10-20T09:38:20Z</time>
      </trkpt>
      <trkpt lat="45.95103" lon="4.98028">
        <ele>288</ele>
        <time>2018-10-20T09:38:21Z</time>
      </trkpt>
      <trkpt lat="45.95103" lon="4.98036">
        <ele>287</ele>
        <time>2018-10-20T09:38:22Z</time>
      </trkpt>
      <trkpt lat="45.95103" lon="4.98044">
        <ele>287</ele>
        <time>2018-10-20T09:38:23Z</time>
      </trkpt>
      <trkpt lat="45.95101" lon="4.98051">
        <ele>287</ele>
        <time>2018-10-20T09:38:24Z</time>
      </trkpt>
      <trkpt lat="45.951" lon="4.98059">
        <ele>287</ele>
        <time>2018-10-20T09:38:25Z</time>
      </trkpt>
      <trkpt lat="45.95099" lon="4.98066">
        <ele>287</ele>
        <time>2018-10-20T09:38:26Z</time>
      </trkpt>
      <trkpt lat="45.95099" lon="4.98075">
        <ele>287</ele>
        <time>2018-10-20T09:38:27Z</time>
      </trkpt>
      <trkpt lat="45.95098" lon="4.98083">
        <ele>288</ele>
        <time>2018-10-20T09:38:28Z</time>
      </trkpt>
      <trkpt lat="45.95097" lon="4.9809">
        <ele>287</ele>
        <time>2018-10-20T09:38:29Z</time>
      </trkpt>
      <trkpt lat="45.95096" lon="4.98097">
        <ele>287</ele>
        <time>2018-10-20T09:38:30Z</time>
      </trkpt>
      <trkpt lat="45.95095" lon="4.98104">
        <ele>287</ele>
        <time>2018-10-20T09:38:31Z</time>
      </trkpt>
      <trkpt lat="45.95094" lon="4.98111">
        <ele>287</ele>
        <time>2018-10-20T09:38:32Z</time>
      </trkpt>
      <trkpt lat="45.95093" lon="4.98117">
        <ele>287</ele>
        <time>2018-10-20T09:38:33Z</time>
      </trkpt>
      <trkpt lat="45.95092" lon="4.98123">
        <ele>287</ele>
        <time>2018-10-20T09:38:34Z</time>
      </trkpt>
      <trkpt lat="45.9509" lon="4.98136">
        <ele>287</ele>
        <time>2018-10-20T09:38:36Z</time>
      </trkpt>
      <trkpt lat="45.95089" lon="4.98144">
        <ele>287</ele>
        <time>2018-10-20T09:38:37Z</time>
      </trkpt>
      <trkpt lat="45.95088" lon="4.98156">
        <ele>287</ele>
        <time>2018-10-20T09:38:39Z</time>
      </trkpt>
      <trkpt lat="45.95086" lon="4.98162">
        <ele>288</ele>
        <time>2018-10-20T09:38:40Z</time>
      </trkpt>
      <trkpt lat="45.95083" lon="4.98173">
        <ele>288</ele>
        <time>2018-10-20T09:38:42Z</time>
      </trkpt>
      <trkpt lat="45.95081" lon="4.9818">
        <ele>288</ele>
        <time>2018-10-20T09:38:43Z</time>
      </trkpt>
      <trkpt lat="45.9508" lon="4.98188">
        <ele>288</ele>
        <time>2018-10-20T09:38:44Z</time>
      </trkpt>
      <trkpt lat="45.95078" lon="4.98195">
        <ele>288</ele>
        <time>2018-10-20T09:38:45Z</time>
      </trkpt>
      <trkpt lat="45.95078" lon="4.98203">
        <ele>288</ele>
        <time>2018-10-20T09:38:46Z</time>
      </trkpt>
      <trkpt lat="45.95076" lon="4.9821">
        <ele>287</ele>
        <time>2018-10-20T09:38:47Z</time>
      </trkpt>
      <trkpt lat="45.95074" lon="4.98216">
        <ele>287</ele>
        <time>2018-10-20T09:38:48Z</time>
      </trkpt>
      <trkpt lat="45.95072" lon="4.98223">
        <ele>287</ele>
        <time>2018-10-20T09:38:49Z</time>
      </trkpt>
      <trkpt lat="45.95069" lon="4.98229">
        <ele>287</ele>
        <time>2018-10-20T09:38:50Z</time>
      </trkpt>
      <trkpt lat="45.95067" lon="4.98236">
        <ele>287</ele>
        <time>2018-10-20T09:38:51Z</time>
      </trkpt>
      <trkpt lat="45.95066" lon="4.98243">
        <ele>287</ele>
        <time>2018-10-20T09:38:52Z</time>
      </trkpt>
      <trkpt lat="45.95064" lon="4.9825">
        <ele>287</ele>
        <time>2018-10-20T09:38:53Z</time>
      </trkpt>
      <trkpt lat="45.95062" lon="4.98256">
        <ele>287</ele>
        <time>2018-10-20T09:38:54Z</time>
      </trkpt>
      <trkpt lat="45.95059" lon="4.98262">
        <ele>287</ele>
        <time>2018-10-20T09:38:55Z</time>
      </trkpt>
      <trkpt lat="45.95057" lon="4.98269">
        <ele>287</ele>
        <time>2018-10-20T09:38:56Z</time>
      </trkpt>
      <trkpt lat="45.95054" lon="4.98276">
        <ele>287</ele>
        <time>2018-10-20T09:38:57Z</time>
      </trkpt>
      <trkpt lat="45.95051" lon="4.98282">
        <ele>287</ele>
        <time>2018-10-20T09:38:58Z</time>
      </trkpt>
      <trkpt lat="45.95049" lon="4.98289">
        <ele>287</ele>
        <time>2018-10-20T09:38:59Z</time>
      </trkpt>
      <trkpt lat="45.95046" lon="4.98298">
        <ele>287</ele>
        <time>2018-10-20T09:39:00Z</time>
      </trkpt>
      <trkpt lat="45.95042" lon="4.98304">
        <ele>287</ele>
        <time>2018-10-20T09:39:01Z</time>
      </trkpt>
      <trkpt lat="45.95039" lon="4.98311">
        <ele>287</ele>
        <time>2018-10-20T09:39:02Z</time>
      </trkpt>
      <trkpt lat="45.95035" lon="4.98317">
        <ele>287</ele>
        <time>2018-10-20T09:39:03Z</time>
      </trkpt>
      <trkpt lat="45.95033" lon="4.98324">
        <ele>287</ele>
        <time>2018-10-20T09:39:04Z</time>
      </trkpt>
      <trkpt lat="45.95029" lon="4.98331">
        <ele>287</ele>
        <time>2018-10-20T09:39:05Z</time>
      </trkpt>
      <trkpt lat="45.95026" lon="4.98337">
        <ele>287</ele>
        <time>2018-10-20T09:39:06Z</time>
      </trkpt>
      <trkpt lat="45.95023" lon="4.98342">
        <ele>287</ele>
        <time>2018-10-20T09:39:07Z</time>
      </trkpt>
      <trkpt lat="45.95017" lon="4.98352">
        <ele>287</ele>
        <time>2018-10-20T09:39:09Z</time>
      </trkpt>
      <trkpt lat="45.95013" lon="4.98358">
        <ele>287</ele>
        <time>2018-10-20T09:39:10Z</time>
      </trkpt>
      <trkpt lat="45.95011" lon="4.98363">
        <ele>287</ele>
        <time>2018-10-20T09:39:11Z</time>
      </trkpt>
      <trkpt lat="45.95008" lon="4.98369">
        <ele>287</ele>
        <time>2018-10-20T09:39:12Z</time>
      </trkpt>
      <trkpt lat="45.95005" lon="4.98375">
        <ele>287</ele>
        <time>2018-10-20T09:39:13Z</time>
      </trkpt>
      <trkpt lat="45.95003" lon="4.98384">
        <ele>287</ele>
        <time>2018-10-20T09:39:14Z</time>
      </trkpt>
      <trkpt lat="45.94998" lon="4.98394">
        <ele>288</ele>
        <time>2018-10-20T09:39:16Z</time>
      </trkpt>
      <trkpt lat="45.94996" lon="4.984">
        <ele>288</ele>
        <time>2018-10-20T09:39:17Z</time>
      </trkpt>
      <trkpt lat="45.94992" lon="4.9841">
        <ele>288</ele>
        <time>2018-10-20T09:39:19Z</time>
      </trkpt>
      <trkpt lat="45.9499" lon="4.98414">
        <ele>288</ele>
        <time>2018-10-20T09:39:20Z</time>
      </trkpt>
      <trkpt lat="45.94984" lon="4.98422">
        <ele>288</ele>
        <time>2018-10-20T09:39:22Z</time>
      </trkpt>
      <trkpt lat="45.94982" lon="4.98427">
        <ele>288</ele>
        <time>2018-10-20T09:39:23Z</time>
      </trkpt>
      <trkpt lat="45.94978" lon="4.98435">
        <ele>288</ele>
        <time>2018-10-20T09:39:25Z</time>
      </trkpt>
      <trkpt lat="45.94976" lon="4.98439">
        <ele>288</ele>
        <time>2018-10-20T09:39:26Z</time>
      </trkpt>
      <trkpt lat="45.94971" lon="4.98448">
        <ele>288</ele>
        <time>2018-10-20T09:39:28Z</time>
      </trkpt>
      <trkpt lat="45.94968" lon="4.98453">
        <ele>288</ele>
        <time>2018-10-20T09:39:29Z</time>
      </trkpt>
      <trkpt lat="45.94963" lon="4.98462">
        <ele>288</ele>
        <time>2018-10-20T09:39:31Z</time>
      </trkpt>
      <trkpt lat="45.9496" lon="4.98467">
        <ele>289</ele>
        <time>2018-10-20T09:39:32Z</time>
      </trkpt>
      <trkpt lat="45.94955" lon="4.98478">
        <ele>289</ele>
        <time>2018-10-20T09:39:34Z</time>
      </trkpt>
      <trkpt lat="45.94953" lon="4.98483">
        <ele>289</ele>
        <time>2018-10-20T09:39:35Z</time>
      </trkpt>
      <trkpt lat="45.94949" lon="4.98492">
        <ele>289</ele>
        <time>2018-10-20T09:39:37Z</time>
      </trkpt>
      <trkpt lat="45.94947" lon="4.98497">
        <ele>289</ele>
        <time>2018-10-20T09:39:38Z</time>
      </trkpt>
      <trkpt lat="45.94943" lon="4.98508">
        <ele>289</ele>
        <time>2018-10-20T09:39:40Z</time>
      </trkpt>
      <trkpt lat="45.9494" lon="4.98513">
        <ele>289</ele>
        <time>2018-10-20T09:39:41Z</time>
      </trkpt>
      <trkpt lat="45.94938" lon="4.98518">
        <ele>289</ele>
        <time>2018-10-20T09:39:42Z</time>
      </trkpt>
      <trkpt lat="45.94935" lon="4.98523">
        <ele>290</ele>
        <time>2018-10-20T09:39:43Z</time>
      </trkpt>
      <trkpt lat="45.9493" lon="4.98534">
        <ele>290</ele>
        <time>2018-10-20T09:39:45Z</time>
      </trkpt>
      <trkpt lat="45.94928" lon="4.98534">
        <ele>290</ele>
        <time>2018-10-20T09:39:46Z</time>
      </trkpt>
      <trkpt lat="45.94923" lon="4.9854">
        <ele>290</ele>
        <time>2018-10-20T09:39:48Z</time>
      </trkpt>
      <trkpt lat="45.94919" lon="4.98545">
        <ele>290</ele>
        <time>2018-10-20T09:39:49Z</time>
      </trkpt>
      <trkpt lat="45.94916" lon="4.98555">
        <ele>291</ele>
        <time>2018-10-20T09:39:51Z</time>
      </trkpt>
      <trkpt lat="45.94911" lon="4.98557">
        <ele>292</ele>
        <time>2018-10-20T09:39:52Z</time>
      </trkpt>
      <trkpt lat="45.94908" lon="4.98563">
        <ele>292</ele>
        <time>2018-10-20T09:39:53Z</time>
      </trkpt>
      <trkpt lat="45.94906" lon="4.98568">
        <ele>292</ele>
        <time>2018-10-20T09:39:54Z</time>
      </trkpt>
      <trkpt lat="45.94905" lon="4.9858">
        <ele>291</ele>
        <time>2018-10-20T09:39:57Z</time>
      </trkpt>
      <trkpt lat="45.94903" lon="4.98583">
        <ele>291</ele>
        <time>2018-10-20T09:39:58Z</time>
      </trkpt>
      <trkpt lat="45.94899" lon="4.98591">
        <ele>292</ele>
        <time>2018-10-20T09:40:00Z</time>
      </trkpt>
      <trkpt lat="45.94897" lon="4.98595">
        <ele>292</ele>
        <time>2018-10-20T09:40:01Z</time>
      </trkpt>
      <trkpt lat="45.94892" lon="4.98602">
        <ele>292</ele>
        <time>2018-10-20T09:40:03Z</time>
      </trkpt>
      <trkpt lat="45.9489" lon="4.98603">
        <ele>293</ele>
        <time>2018-10-20T09:40:04Z</time>
      </trkpt>
      <trkpt lat="45.94883" lon="4.98607">
        <ele>293</ele>
        <time>2018-10-20T09:40:16Z</time>
      </trkpt>
      <trkpt lat="45.94881" lon="4.98607">
        <ele>293</ele>
        <time>2018-10-20T09:40:17Z</time>
      </trkpt>
      <trkpt lat="45.94878" lon="4.98609">
        <ele>293</ele>
        <time>2018-10-20T09:40:19Z</time>
      </trkpt>
      <trkpt lat="45.94873" lon="4.98614">
        <ele>293</ele>
        <time>2018-10-20T09:40:20Z</time>
      </trkpt>
      <trkpt lat="45.94866" lon="4.98622">
        <ele>293</ele>
        <time>2018-10-20T09:40:26Z</time>
      </trkpt>
      <trkpt lat="45.94865" lon="4.98622">
        <ele>293</ele>
        <time>2018-10-20T09:40:27Z</time>
      </trkpt>
      <trkpt lat="45.94856" lon="4.98624">
        <ele>293</ele>
        <time>2018-10-20T09:40:31Z</time>
      </trkpt>
      <trkpt lat="45.94853" lon="4.98626">
        <ele>293</ele>
        <time>2018-10-20T09:40:32Z</time>
      </trkpt>
      <trkpt lat="45.94846" lon="4.9863">
        <ele>293</ele>
        <time>2018-10-20T09:40:33Z</time>
      </trkpt>
      <trkpt lat="45.94845" lon="4.98632">
        <ele>293</ele>
        <time>2018-10-20T09:40:34Z</time>
      </trkpt>
      <trkpt lat="45.94841" lon="4.98643">
        <ele>293</ele>
        <time>2018-10-20T09:40:36Z</time>
      </trkpt>
      <trkpt lat="45.9484" lon="4.98649">
        <ele>294</ele>
        <time>2018-10-20T09:40:37Z</time>
      </trkpt>
      <trkpt lat="45.94839" lon="4.98661">
        <ele>294</ele>
        <time>2018-10-20T09:40:39Z</time>
      </trkpt>
      <trkpt lat="45.94839" lon="4.98667">
        <ele>294</ele>
        <time>2018-10-20T09:40:40Z</time>
      </trkpt>
      <trkpt lat="45.9484" lon="4.98673">
        <ele>294</ele>
        <time>2018-10-20T09:40:41Z</time>
      </trkpt>
      <trkpt lat="45.94841" lon="4.98681">
        <ele>294</ele>
        <time>2018-10-20T09:40:42Z</time>
      </trkpt>
      <trkpt lat="45.94839" lon="4.98688">
        <ele>294</ele>
        <time>2018-10-20T09:40:43Z</time>
      </trkpt>
      <trkpt lat="45.94837" lon="4.98695">
        <ele>294</ele>
        <time>2018-10-20T09:40:44Z</time>
      </trkpt>
      <trkpt lat="45.94833" lon="4.98699">
        <ele>294</ele>
        <time>2018-10-20T09:40:45Z</time>
      </trkpt>
      <trkpt lat="45.9483" lon="4.98706">
        <ele>294</ele>
        <time>2018-10-20T09:40:46Z</time>
      </trkpt>
      <trkpt lat="45.94826" lon="4.98712">
        <ele>294</ele>
        <time>2018-10-20T09:40:47Z</time>
      </trkpt>
      <trkpt lat="45.94824" lon="4.98719">
        <ele>294</ele>
        <time>2018-10-20T09:40:48Z</time>
      </trkpt>
      <trkpt lat="45.94822" lon="4.98726">
        <ele>294</ele>
        <time>2018-10-20T09:40:49Z</time>
      </trkpt>
      <trkpt lat="45.94821" lon="4.98733">
        <ele>294</ele>
        <time>2018-10-20T09:40:50Z</time>
      </trkpt>
      <trkpt lat="45.9482" lon="4.98739">
        <ele>294</ele>
        <time>2018-10-20T09:40:51Z</time>
      </trkpt>
      <trkpt lat="45.94819" lon="4.98745">
        <ele>294</ele>
        <time>2018-10-20T09:40:52Z</time>
      </trkpt>
      <trkpt lat="45.94817" lon="4.98752">
        <ele>294</ele>
        <time>2018-10-20T09:40:53Z</time>
      </trkpt>
      <trkpt lat="45.94816" lon="4.98758">
        <ele>294</ele>
        <time>2018-10-20T09:40:54Z</time>
      </trkpt>
      <trkpt lat="45.94816" lon="4.98765">
        <ele>294</ele>
        <time>2018-10-20T09:40:55Z</time>
      </trkpt>
      <trkpt lat="45.94816" lon="4.98771">
        <ele>294</ele>
        <time>2018-10-20T09:40:56Z</time>
      </trkpt>
      <trkpt lat="45.94817" lon="4.98784">
        <ele>294</ele>
        <time>2018-10-20T09:40:58Z</time>
      </trkpt>
      <trkpt lat="45.94817" lon="4.98791">
        <ele>294</ele>
        <time>2018-10-20T09:40:59Z</time>
      </trkpt>
      <trkpt lat="45.94815" lon="4.98798">
        <ele>294</ele>
        <time>2018-10-20T09:41:00Z</time>
      </trkpt>
      <trkpt lat="45.94814" lon="4.98804">
        <ele>294</ele>
        <time>2018-10-20T09:41:01Z</time>
      </trkpt>
      <trkpt lat="45.94813" lon="4.98812">
        <ele>294</ele>
        <time>2018-10-20T09:41:02Z</time>
      </trkpt>
      <trkpt lat="45.94812" lon="4.9882">
        <ele>294</ele>
        <time>2018-10-20T09:41:03Z</time>
      </trkpt>
      <trkpt lat="45.94811" lon="4.98827">
        <ele>294</ele>
        <time>2018-10-20T09:41:04Z</time>
      </trkpt>
      <trkpt lat="45.9481" lon="4.98834">
        <ele>294</ele>
        <time>2018-10-20T09:41:05Z</time>
      </trkpt>
      <trkpt lat="45.9481" lon="4.98841">
        <ele>294</ele>
        <time>2018-10-20T09:41:06Z</time>
      </trkpt>
      <trkpt lat="45.94809" lon="4.98848">
        <ele>293</ele>
        <time>2018-10-20T09:41:07Z</time>
      </trkpt>
      <trkpt lat="45.94808" lon="4.98854">
        <ele>293</ele>
        <time>2018-10-20T09:41:08Z</time>
      </trkpt>
      <trkpt lat="45.94807" lon="4.98861">
        <ele>293</ele>
        <time>2018-10-20T09:41:09Z</time>
      </trkpt>
      <trkpt lat="45.94807" lon="4.9887">
        <ele>293</ele>
        <time>2018-10-20T09:41:10Z</time>
      </trkpt>
      <trkpt lat="45.94808" lon="4.98877">
        <ele>293</ele>
        <time>2018-10-20T09:41:11Z</time>
      </trkpt>
      <trkpt lat="45.94807" lon="4.98886">
        <ele>293</ele>
        <time>2018-10-20T09:41:12Z</time>
      </trkpt>
      <trkpt lat="45.94806" lon="4.98893">
        <ele>293</ele>
        <time>2018-10-20T09:41:13Z</time>
      </trkpt>
      <trkpt lat="45.94805" lon="4.989">
        <ele>293</ele>
        <time>2018-10-20T09:41:14Z</time>
      </trkpt>
      <trkpt lat="45.94804" lon="4.98907">
        <ele>293</ele>
        <time>2018-10-20T09:41:15Z</time>
      </trkpt>
      <trkpt lat="45.94804" lon="4.98914">
        <ele>293</ele>
        <time>2018-10-20T09:41:16Z</time>
      </trkpt>
      <trkpt lat="45.94803" lon="4.98922">
        <ele>292</ele>
        <time>2018-10-20T09:41:17Z</time>
      </trkpt>
      <trkpt lat="45.94801" lon="4.98934">
        <ele>292</ele>
        <time>2018-10-20T09:41:19Z</time>
      </trkpt>
      <trkpt lat="45.94801" lon="4.9894">
        <ele>292</ele>
        <time>2018-10-20T09:41:20Z</time>
      </trkpt>
      <trkpt lat="45.948" lon="4.98949">
        <ele>292</ele>
        <time>2018-10-20T09:41:21Z</time>
      </trkpt>
      <trkpt lat="45.948" lon="4.98955">
        <ele>292</ele>
        <time>2018-10-20T09:41:22Z</time>
      </trkpt>
      <trkpt lat="45.948" lon="4.98962">
        <ele>292</ele>
        <time>2018-10-20T09:41:23Z</time>
      </trkpt>
      <trkpt lat="45.94799" lon="4.9897">
        <ele>291</ele>
        <time>2018-10-20T09:41:24Z</time>
      </trkpt>
      <trkpt lat="45.94798" lon="4.98978">
        <ele>291</ele>
        <time>2018-10-20T09:41:25Z</time>
      </trkpt>
      <trkpt lat="45.94798" lon="4.98985">
        <ele>291</ele>
        <time>2018-10-20T09:41:26Z</time>
      </trkpt>
      <trkpt lat="45.94798" lon="4.98993">
        <ele>291</ele>
        <time>2018-10-20T09:41:27Z</time>
      </trkpt>
      <trkpt lat="45.94799" lon="4.99002">
        <ele>291</ele>
        <time>2018-10-20T09:41:28Z</time>
      </trkpt>
      <trkpt lat="45.94798" lon="4.99009">
        <ele>291</ele>
        <time>2018-10-20T09:41:29Z</time>
      </trkpt>
      <trkpt lat="45.94797" lon="4.99016">
        <ele>291</ele>
        <time>2018-10-20T09:41:30Z</time>
      </trkpt>
      <trkpt lat="45.94796" lon="4.99023">
        <ele>291</ele>
        <time>2018-10-20T09:41:31Z</time>
      </trkpt>
      <trkpt lat="45.94794" lon="4.9903">
        <ele>291</ele>
        <time>2018-10-20T09:41:32Z</time>
      </trkpt>
      <trkpt lat="45.94792" lon="4.99036">
        <ele>291</ele>
        <time>2018-10-20T09:41:33Z</time>
      </trkpt>
      <trkpt lat="45.9479" lon="4.99041">
        <ele>291</ele>
        <time>2018-10-20T09:41:34Z</time>
      </trkpt>
      <trkpt lat="45.94786" lon="4.99052">
        <ele>290</ele>
        <time>2018-10-20T09:41:36Z</time>
      </trkpt>
      <trkpt lat="45.94787" lon="4.99062">
        <ele>290</ele>
        <time>2018-10-20T09:41:37Z</time>
      </trkpt>
      <trkpt lat="45.94784" lon="4.99067">
        <ele>290</ele>
        <time>2018-10-20T09:41:38Z</time>
      </trkpt>
      <trkpt lat="45.9478" lon="4.99073">
        <ele>290</ele>
        <time>2018-10-20T09:41:39Z</time>
      </trkpt>
      <trkpt lat="45.94776" lon="4.99079">
        <ele>291</ele>
        <time>2018-10-20T09:41:40Z</time>
      </trkpt>
      <trkpt lat="45.94772" lon="4.99086">
        <ele>290</ele>
        <time>2018-10-20T09:41:41Z</time>
      </trkpt>
      <trkpt lat="45.94768" lon="4.99091">
        <ele>290</ele>
        <time>2018-10-20T09:41:42Z</time>
      </trkpt>
      <trkpt lat="45.94764" lon="4.99098">
        <ele>290</ele>
        <time>2018-10-20T09:41:43Z</time>
      </trkpt>
      <trkpt lat="45.9476" lon="4.99104">
        <ele>290</ele>
        <time>2018-10-20T09:41:44Z</time>
      </trkpt>
      <trkpt lat="45.94757" lon="4.9911">
        <ele>290</ele>
        <time>2018-10-20T09:41:45Z</time>
      </trkpt>
      <trkpt lat="45.94753" lon="4.99116">
        <ele>289</ele>
        <time>2018-10-20T09:41:46Z</time>
      </trkpt>
      <trkpt lat="45.94749" lon="4.99121">
        <ele>290</ele>
        <time>2018-10-20T09:41:47Z</time>
      </trkpt>
      <trkpt lat="45.94745" lon="4.99126">
        <ele>289</ele>
        <time>2018-10-20T09:41:48Z</time>
      </trkpt>
      <trkpt lat="45.94741" lon="4.9913">
        <ele>289</ele>
        <time>2018-10-20T09:41:49Z</time>
      </trkpt>
      <trkpt lat="45.94736" lon="4.99135">
        <ele>289</ele>
        <time>2018-10-20T09:41:50Z</time>
      </trkpt>
      <trkpt lat="45.94732" lon="4.9914">
        <ele>289</ele>
        <time>2018-10-20T09:41:51Z</time>
      </trkpt>
      <trkpt lat="45.94728" lon="4.99145">
        <ele>289</ele>
        <time>2018-10-20T09:41:52Z</time>
      </trkpt>
      <trkpt lat="45.94724" lon="4.99149">
        <ele>289</ele>
        <time>2018-10-20T09:41:53Z</time>
      </trkpt>
      <trkpt lat="45.94719" lon="4.99154">
        <ele>289</ele>
        <time>2018-10-20T09:41:54Z</time>
      </trkpt>
      <trkpt lat="45.94714" lon="4.99158">
        <ele>289</ele>
        <time>2018-10-20T09:41:55Z</time>
      </trkpt>
      <trkpt lat="45.94709" lon="4.99162">
        <ele>289</ele>
        <time>2018-10-20T09:41:56Z</time>
      </trkpt>
      <trkpt lat="45.94705" lon="4.99167">
        <ele>289</ele>
        <time>2018-10-20T09:41:57Z</time>
      </trkpt>
      <trkpt lat="45.947" lon="4.99172">
        <ele>288</ele>
        <time>2018-10-20T09:41:58Z</time>
      </trkpt>
      <trkpt lat="45.94695" lon="4.99177">
        <ele>288</ele>
        <time>2018-10-20T09:41:59Z</time>
      </trkpt>
      <trkpt lat="45.9469" lon="4.99181">
        <ele>288</ele>
        <time>2018-10-20T09:42:00Z</time>
      </trkpt>
      <trkpt lat="45.94684" lon="4.99187">
        <ele>288</ele>
        <time>2018-10-20T09:42:01Z</time>
      </trkpt>
      <trkpt lat="45.94679" lon="4.99192">
        <ele>288</ele>
        <time>2018-10-20T09:42:02Z</time>
      </trkpt>
      <trkpt lat="45.94673" lon="4.99197">
        <ele>288</ele>
        <time>2018-10-20T09:42:03Z</time>
      </trkpt>
      <trkpt lat="45.94668" lon="4.99203">
        <ele>288</ele>
        <time>2018-10-20T09:42:04Z</time>
      </trkpt>
      <trkpt lat="45.94663" lon="4.9921">
        <ele>288</ele>
        <time>2018-10-20T09:42:05Z</time>
      </trkpt>
      <trkpt lat="45.94658" lon="4.99216">
        <ele>288</ele>
        <time>2018-10-20T09:42:06Z</time>
      </trkpt>
      <trkpt lat="45.94653" lon="4.99222">
        <ele>288</ele>
        <time>2018-10-20T09:42:07Z</time>
      </trkpt>
      <trkpt lat="45.9465" lon="4.99229">
        <ele>288</ele>
        <time>2018-10-20T09:42:08Z</time>
      </trkpt>
      <trkpt lat="45.94645" lon="4.99235">
        <ele>288</ele>
        <time>2018-10-20T09:42:09Z</time>
      </trkpt>
      <trkpt lat="45.9464" lon="4.99241">
        <ele>288</ele>
        <time>2018-10-20T09:42:10Z</time>
      </trkpt>
      <trkpt lat="45.94635" lon="4.99248">
        <ele>288</ele>
        <time>2018-10-20T09:42:11Z</time>
      </trkpt>
      <trkpt lat="45.94631" lon="4.99254">
        <ele>287</ele>
        <time>2018-10-20T09:42:12Z</time>
      </trkpt>
      <trkpt lat="45.94627" lon="4.99259">
        <ele>287</ele>
        <time>2018-10-20T09:42:13Z</time>
      </trkpt>
      <trkpt lat="45.94622" lon="4.99267">
        <ele>287</ele>
        <time>2018-10-20T09:42:14Z</time>
      </trkpt>
      <trkpt lat="45.94618" lon="4.99273">
        <ele>287</ele>
        <time>2018-10-20T09:42:15Z</time>
      </trkpt>
      <trkpt lat="45.94614" lon="4.99278">
        <ele>287</ele>
        <time>2018-10-20T09:42:16Z</time>
      </trkpt>
      <trkpt lat="45.9461" lon="4.99284">
        <ele>287</ele>
        <time>2018-10-20T09:42:17Z</time>
      </trkpt>
      <trkpt lat="45.94606" lon="4.99289">
        <ele>287</ele>
        <time>2018-10-20T09:42:18Z</time>
      </trkpt>
      <trkpt lat="45.94602" lon="4.99294">
        <ele>287</ele>
        <time>2018-10-20T09:42:19Z</time>
      </trkpt>
      <trkpt lat="45.94598" lon="4.993">
        <ele>287</ele>
        <time>2018-10-20T09:42:20Z</time>
      </trkpt>
      <trkpt lat="45.94594" lon="4.99305">
        <ele>287</ele>
        <time>2018-10-20T09:42:21Z</time>
      </trkpt>
      <trkpt lat="45.94591" lon="4.99311">
        <ele>287</ele>
        <time>2018-10-20T09:42:22Z</time>
      </trkpt>
      <trkpt lat="45.94588" lon="4.99317">
        <ele>286</ele>
        <time>2018-10-20T09:42:23Z</time>
      </trkpt>
      <trkpt lat="45.94583" lon="4.99322">
        <ele>287</ele>
        <time>2018-10-20T09:42:24Z</time>
      </trkpt>
      <trkpt lat="45.94578" lon="4.99329">
        <ele>287</ele>
        <time>2018-10-20T09:42:25Z</time>
      </trkpt>
      <trkpt lat="45.94573" lon="4.99337">
        <ele>287</ele>
        <time>2018-10-20T09:42:26Z</time>
      </trkpt>
      <trkpt lat="45.94569" lon="4.99343">
        <ele>287</ele>
        <time>2018-10-20T09:42:27Z</time>
      </trkpt>
      <trkpt lat="45.94568" lon="4.99352">
        <ele>287</ele>
        <time>2018-10-20T09:42:28Z</time>
      </trkpt>
      <trkpt lat="45.94564" lon="4.99358">
        <ele>287</ele>
        <time>2018-10-20T09:42:29Z</time>
      </trkpt>
      <trkpt lat="45.9456" lon="4.99363">
        <ele>288</ele>
        <time>2018-10-20T09:42:30Z</time>
      </trkpt>
      <trkpt lat="45.94557" lon="4.99368">
        <ele>288</ele>
        <time>2018-10-20T09:42:31Z</time>
      </trkpt>
      <trkpt lat="45.94553" lon="4.99374">
        <ele>288</ele>
        <time>2018-10-20T09:42:32Z</time>
      </trkpt>
      <trkpt lat="45.9455" lon="4.99379">
        <ele>288</ele>
        <time>2018-10-20T09:42:33Z</time>
      </trkpt>
      <trkpt lat="45.94548" lon="4.99386">
        <ele>288</ele>
        <time>2018-10-20T09:42:34Z</time>
      </trkpt>
      <trkpt lat="45.94547" lon="4.99393">
        <ele>288</ele>
        <time>2018-10-20T09:42:35Z</time>
      </trkpt>
      <trkpt lat="45.94545" lon="4.99398">
        <ele>288</ele>
        <time>2018-10-20T09:42:36Z</time>
      </trkpt>
      <trkpt lat="45.94543" lon="4.99405">
        <ele>288</ele>
        <time>2018-10-20T09:42:37Z</time>
      </trkpt>
      <trkpt lat="45.94541" lon="4.99412">
        <ele>288</ele>
        <time>2018-10-20T09:42:38Z</time>
      </trkpt>
      <trkpt lat="45.94538" lon="4.99417">
        <ele>287</ele>
        <time>2018-10-20T09:42:39Z</time>
      </trkpt>
      <trkpt lat="45.94536" lon="4.99425">
        <ele>287</ele>
        <time>2018-10-20T09:42:40Z</time>
      </trkpt>
      <trkpt lat="45.94534" lon="4.99433">
        <ele>288</ele>
        <time>2018-10-20T09:42:41Z</time>
      </trkpt>
      <trkpt lat="45.94531" lon="4.99441">
        <ele>288</ele>
        <time>2018-10-20T09:42:42Z</time>
      </trkpt>
      <trkpt lat="45.9453" lon="4.99448">
        <ele>287</ele>
        <time>2018-10-20T09:42:43Z</time>
      </trkpt>
      <trkpt lat="45.94527" lon="4.99455">
        <ele>287</ele>
        <time>2018-10-20T09:42:44Z</time>
      </trkpt>
      <trkpt lat="45.94525" lon="4.99461">
        <ele>287</ele>
        <time>2018-10-20T09:42:45Z</time>
      </trkpt>
      <trkpt lat="45.94523" lon="4.99468">
        <ele>287</ele>
        <time>2018-10-20T09:42:46Z</time>
      </trkpt>
      <trkpt lat="45.94521" lon="4.99474">
        <ele>287</ele>
        <time>2018-10-20T09:42:47Z</time>
      </trkpt>
      <trkpt lat="45.94519" lon="4.9948">
        <ele>288</ele>
        <time>2018-10-20T09:42:48Z</time>
      </trkpt>
      <trkpt lat="45.94519" lon="4.99487">
        <ele>288</ele>
        <time>2018-10-20T09:42:49Z</time>
      </trkpt>
      <trkpt lat="45.94518" lon="4.99493">
        <ele>288</ele>
        <time>2018-10-20T09:42:50Z</time>
      </trkpt>
      <trkpt lat="45.94516" lon="4.995">
        <ele>288</ele>
        <time>2018-10-20T09:42:51Z</time>
      </trkpt>
      <trkpt lat="45.94515" lon="4.99506">
        <ele>288</ele>
        <time>2018-10-20T09:42:52Z</time>
      </trkpt>
      <trkpt lat="45.94514" lon="4.99513">
        <ele>287</ele>
        <time>2018-10-20T09:42:53Z</time>
      </trkpt>
      <trkpt lat="45.94511" lon="4.99521">
        <ele>287</ele>
        <time>2018-10-20T09:42:54Z</time>
      </trkpt>
      <trkpt lat="45.94509" lon="4.99529">
        <ele>287</ele>
        <time>2018-10-20T09:42:55Z</time>
      </trkpt>
      <trkpt lat="45.94507" lon="4.99536">
        <ele>287</ele>
        <time>2018-10-20T09:42:56Z</time>
      </trkpt>
      <trkpt lat="45.94504" lon="4.99543">
        <ele>287</ele>
        <time>2018-10-20T09:42:57Z</time>
      </trkpt>
      <trkpt lat="45.94502" lon="4.9955">
        <ele>287</ele>
        <time>2018-10-20T09:42:58Z</time>
      </trkpt>
      <trkpt lat="45.945" lon="4.99557">
        <ele>288</ele>
        <time>2018-10-20T09:42:59Z</time>
      </trkpt>
      <trkpt lat="45.94499" lon="4.99566">
        <ele>288</ele>
        <time>2018-10-20T09:43:00Z</time>
      </trkpt>
      <trkpt lat="45.94497" lon="4.99574">
        <ele>288</ele>
        <time>2018-10-20T09:43:01Z</time>
      </trkpt>
      <trkpt lat="45.94494" lon="4.99581">
        <ele>288</ele>
        <time>2018-10-20T09:43:02Z</time>
      </trkpt>
      <trkpt lat="45.94493" lon="4.99589">
        <ele>288</ele>
        <time>2018-10-20T09:43:03Z</time>
      </trkpt>
      <trkpt lat="45.94491" lon="4.99597">
        <ele>289</ele>
        <time>2018-10-20T09:43:04Z</time>
      </trkpt>
      <trkpt lat="45.94489" lon="4.99605">
        <ele>289</ele>
        <time>2018-10-20T09:43:05Z</time>
      </trkpt>
      <trkpt lat="45.94487" lon="4.99612">
        <ele>289</ele>
        <time>2018-10-20T09:43:06Z</time>
      </trkpt>
      <trkpt lat="45.94484" lon="4.99619">
        <ele>289</ele>
        <time>2018-10-20T09:43:07Z</time>
      </trkpt>
      <trkpt lat="45.94481" lon="4.99625">
        <ele>289</ele>
        <time>2018-10-20T09:43:08Z</time>
      </trkpt>
      <trkpt lat="45.94481" lon="4.99632">
        <ele>289</ele>
        <time>2018-10-20T09:43:09Z</time>
      </trkpt>
      <trkpt lat="45.94479" lon="4.99639">
        <ele>289</ele>
        <time>2018-10-20T09:43:10Z</time>
      </trkpt>
      <trkpt lat="45.94477" lon="4.99645">
        <ele>289</ele>
        <time>2018-10-20T09:43:11Z</time>
      </trkpt>
      <trkpt lat="45.94474" lon="4.99651">
        <ele>289</ele>
        <time>2018-10-20T09:43:12Z</time>
      </trkpt>
      <trkpt lat="45.94471" lon="4.99658">
        <ele>290</ele>
        <time>2018-10-20T09:43:13Z</time>
      </trkpt>
      <trkpt lat="45.94469" lon="4.99664">
        <ele>290</ele>
        <time>2018-10-20T09:43:14Z</time>
      </trkpt>
      <trkpt lat="45.94467" lon="4.99671">
        <ele>289</ele>
        <time>2018-10-20T09:43:15Z</time>
      </trkpt>
      <trkpt lat="45.94464" lon="4.99678">
        <ele>289</ele>
        <time>2018-10-20T09:43:16Z</time>
      </trkpt>
      <trkpt lat="45.94462" lon="4.99684">
        <ele>289</ele>
        <time>2018-10-20T09:43:17Z</time>
      </trkpt>
      <trkpt lat="45.94463" lon="4.99692">
        <ele>289</ele>
        <time>2018-10-20T09:43:18Z</time>
      </trkpt>
      <trkpt lat="45.94461" lon="4.997">
        <ele>289</ele>
        <time>2018-10-20T09:43:19Z</time>
      </trkpt>
      <trkpt lat="45.94458" lon="4.99705">
        <ele>289</ele>
        <time>2018-10-20T09:43:20Z</time>
      </trkpt>
      <trkpt lat="45.94456" lon="4.99711">
        <ele>289</ele>
        <time>2018-10-20T09:43:21Z</time>
      </trkpt>
      <trkpt lat="45.94452" lon="4.99716">
        <ele>289</ele>
        <time>2018-10-20T09:43:22Z</time>
      </trkpt>
      <trkpt lat="45.94452" lon="4.99725">
        <ele>289</ele>
        <time>2018-10-20T09:43:23Z</time>
      </trkpt>
      <trkpt lat="45.94449" lon="4.99732">
        <ele>289</ele>
        <time>2018-10-20T09:43:24Z</time>
      </trkpt>
      <trkpt lat="45.94447" lon="4.99739">
        <ele>289</ele>
        <time>2018-10-20T09:43:25Z</time>
      </trkpt>
      <trkpt lat="45.94445" lon="4.99745">
        <ele>289</ele>
        <time>2018-10-20T09:43:26Z</time>
      </trkpt>
      <trkpt lat="45.94442" lon="4.99751">
        <ele>288</ele>
        <time>2018-10-20T09:43:27Z</time>
      </trkpt>
      <trkpt lat="45.9444" lon="4.9976">
        <ele>288</ele>
        <time>2018-10-20T09:43:28Z</time>
      </trkpt>
      <trkpt lat="45.94437" lon="4.99766">
        <ele>288</ele>
        <time>2018-10-20T09:43:29Z</time>
      </trkpt>
      <trkpt lat="45.94434" lon="4.99773">
        <ele>288</ele>
        <time>2018-10-20T09:43:30Z</time>
      </trkpt>
      <trkpt lat="45.94431" lon="4.99778">
        <ele>288</ele>
        <time>2018-10-20T09:43:31Z</time>
      </trkpt>
      <trkpt lat="45.94427" lon="4.99784">
        <ele>288</ele>
        <time>2018-10-20T09:43:32Z</time>
      </trkpt>
      <trkpt lat="45.94424" lon="4.9979">
        <ele>288</ele>
        <time>2018-10-20T09:43:33Z</time>
      </trkpt>
      <trkpt lat="45.94421" lon="4.99796">
        <ele>288</ele>
        <time>2018-10-20T09:43:34Z</time>
      </trkpt>
      <trkpt lat="45.94419" lon="4.99801">
        <ele>288</ele>
        <time>2018-10-20T09:43:35Z</time>
      </trkpt>
      <trkpt lat="45.94415" lon="4.99811">
        <ele>290</ele>
        <time>2018-10-20T09:43:37Z</time>
      </trkpt>
      <trkpt lat="45.94411" lon="4.99818">
        <ele>290</ele>
        <time>2018-10-20T09:43:38Z</time>
      </trkpt>
      <trkpt lat="45.94407" lon="4.99829">
        <ele>289</ele>
        <time>2018-10-20T09:43:40Z</time>
      </trkpt>
      <trkpt lat="45.94404" lon="4.99835">
        <ele>289</ele>
        <time>2018-10-20T09:43:41Z</time>
      </trkpt>
      <trkpt lat="45.94399" lon="4.99845">
        <ele>289</ele>
        <time>2018-10-20T09:43:43Z</time>
      </trkpt>
      <trkpt lat="45.94397" lon="4.9985">
        <ele>289</ele>
        <time>2018-10-20T09:43:44Z</time>
      </trkpt>
      <trkpt lat="45.94391" lon="4.99854">
        <ele>290</ele>
        <time>2018-10-20T09:43:45Z</time>
      </trkpt>
      <trkpt lat="45.94389" lon="4.99861">
        <ele>290</ele>
        <time>2018-10-20T09:43:46Z</time>
      </trkpt>
      <trkpt lat="45.94386" lon="4.99867">
        <ele>290</ele>
        <time>2018-10-20T09:43:47Z</time>
      </trkpt>
      <trkpt lat="45.94385" lon="4.99875">
        <ele>290</ele>
        <time>2018-10-20T09:43:48Z</time>
      </trkpt>
      <trkpt lat="45.94379" lon="4.99884">
        <ele>290</ele>
        <time>2018-10-20T09:43:50Z</time>
      </trkpt>
      <trkpt lat="45.94376" lon="4.9989">
        <ele>290</ele>
        <time>2018-10-20T09:43:51Z</time>
      </trkpt>
      <trkpt lat="45.94373" lon="4.99895">
        <ele>290</ele>
        <time>2018-10-20T09:43:52Z</time>
      </trkpt>
      <trkpt lat="45.94372" lon="4.99903">
        <ele>290</ele>
        <time>2018-10-20T09:43:53Z</time>
      </trkpt>
      <trkpt lat="45.9437" lon="4.99909">
        <ele>290</ele>
        <time>2018-10-20T09:43:54Z</time>
      </trkpt>
      <trkpt lat="45.94368" lon="4.99916">
        <ele>290</ele>
        <time>2018-10-20T09:43:55Z</time>
      </trkpt>
      <trkpt lat="45.94368" lon="4.99925">
        <ele>290</ele>
        <time>2018-10-20T09:43:57Z</time>
      </trkpt>
      <trkpt lat="45.94362" lon="4.99936">
        <ele>290</ele>
        <time>2018-10-20T09:43:58Z</time>
      </trkpt>
      <trkpt lat="45.94359" lon="4.99941">
        <ele>290</ele>
        <time>2018-10-20T09:43:59Z</time>
      </trkpt>
      <trkpt lat="45.94357" lon="4.99947">
        <ele>290</ele>
        <time>2018-10-20T09:44:00Z</time>
      </trkpt>
      <trkpt lat="45.94354" lon="4.99954">
        <ele>290</ele>
        <time>2018-10-20T09:44:01Z</time>
      </trkpt>
      <trkpt lat="45.94352" lon="4.99959">
        <ele>290</ele>
        <time>2018-10-20T09:44:02Z</time>
      </trkpt>
      <trkpt lat="45.94349" lon="4.99966">
        <ele>290</ele>
        <time>2018-10-20T09:44:03Z</time>
      </trkpt>
      <trkpt lat="45.94347" lon="4.99971">
        <ele>290</ele>
        <time>2018-10-20T09:44:04Z</time>
      </trkpt>
      <trkpt lat="45.94345" lon="4.99983">
        <ele>290</ele>
        <time>2018-10-20T09:44:06Z</time>
      </trkpt>
      <trkpt lat="45.94343" lon="4.99987">
        <ele>290</ele>
        <time>2018-10-20T09:44:07Z</time>
      </trkpt>
      <trkpt lat="45.94339" lon="4.99998">
        <ele>291</ele>
        <time>2018-10-20T09:44:09Z</time>
      </trkpt>
      <trkpt lat="45.94337" lon="5.00004">
        <ele>291</ele>
        <time>2018-10-20T09:44:10Z</time>
      </trkpt>
      <trkpt lat="45.94332" lon="5.0001">
        <ele>291</ele>
        <time>2018-10-20T09:44:11Z</time>
      </trkpt>
      <trkpt lat="45.9433" lon="5.00015">
        <ele>291</ele>
        <time>2018-10-20T09:44:12Z</time>
      </trkpt>
      <trkpt lat="45.94327" lon="5.00021">
        <ele>291</ele>
        <time>2018-10-20T09:44:13Z</time>
      </trkpt>
      <trkpt lat="45.94324" lon="5.00027">
        <ele>291</ele>
        <time>2018-10-20T09:44:14Z</time>
      </trkpt>
      <trkpt lat="45.94322" lon="5.00033">
        <ele>291</ele>
        <time>2018-10-20T09:44:15Z</time>
      </trkpt>
      <trkpt lat="45.94319" lon="5.00038">
        <ele>290</ele>
        <time>2018-10-20T09:44:16Z</time>
      </trkpt>
      <trkpt lat="45.94317" lon="5.00043">
        <ele>290</ele>
        <time>2018-10-20T09:44:17Z</time>
      </trkpt>
      <trkpt lat="45.94313" lon="5.00049">
        <ele>290</ele>
        <time>2018-10-20T09:44:18Z</time>
      </trkpt>
      <trkpt lat="45.9431" lon="5.00054">
        <ele>290</ele>
        <time>2018-10-20T09:44:19Z</time>
      </trkpt>
      <trkpt lat="45.94306" lon="5.0006">
        <ele>290</ele>
        <time>2018-10-20T09:44:20Z</time>
      </trkpt>
      <trkpt lat="45.94302" lon="5.00065">
        <ele>290</ele>
        <time>2018-10-20T09:44:21Z</time>
      </trkpt>
      <trkpt lat="45.943" lon="5.00071">
        <ele>290</ele>
        <time>2018-10-20T09:44:22Z</time>
      </trkpt>
      <trkpt lat="45.94296" lon="5.00076">
        <ele>290</ele>
        <time>2018-10-20T09:44:23Z</time>
      </trkpt>
      <trkpt lat="45.94294" lon="5.00081">
        <ele>290</ele>
        <time>2018-10-20T09:44:24Z</time>
      </trkpt>
      <trkpt lat="45.9429" lon="5.00087">
        <ele>290</ele>
        <time>2018-10-20T09:44:25Z</time>
      </trkpt>
      <trkpt lat="45.94287" lon="5.00093">
        <ele>290</ele>
        <time>2018-10-20T09:44:26Z</time>
      </trkpt>
      <trkpt lat="45.94283" lon="5.00097">
        <ele>290</ele>
        <time>2018-10-20T09:44:27Z</time>
      </trkpt>
      <trkpt lat="45.9428" lon="5.00102">
        <ele>289</ele>
        <time>2018-10-20T09:44:28Z</time>
      </trkpt>
      <trkpt lat="45.94277" lon="5.00106">
        <ele>289</ele>
        <time>2018-10-20T09:44:29Z</time>
      </trkpt>
      <trkpt lat="45.94273" lon="5.00111">
        <ele>289</ele>
        <time>2018-10-20T09:44:30Z</time>
      </trkpt>
      <trkpt lat="45.9427" lon="5.00117">
        <ele>289</ele>
        <time>2018-10-20T09:44:31Z</time>
      </trkpt>
      <trkpt lat="45.94266" lon="5.00122">
        <ele>289</ele>
        <time>2018-10-20T09:44:32Z</time>
      </trkpt>
      <trkpt lat="45.94262" lon="5.00127">
        <ele>289</ele>
        <time>2018-10-20T09:44:33Z</time>
      </trkpt>
      <trkpt lat="45.94258" lon="5.00132">
        <ele>289</ele>
        <time>2018-10-20T09:44:34Z</time>
      </trkpt>
      <trkpt lat="45.94254" lon="5.00137">
        <ele>289</ele>
        <time>2018-10-20T09:44:35Z</time>
      </trkpt>
      <trkpt lat="45.9425" lon="5.00142">
        <ele>288</ele>
        <time>2018-10-20T09:44:36Z</time>
      </trkpt>
      <trkpt lat="45.94247" lon="5.00147">
        <ele>288</ele>
        <time>2018-10-20T09:44:37Z</time>
      </trkpt>
      <trkpt lat="45.94243" lon="5.00151">
        <ele>288</ele>
        <time>2018-10-20T09:44:38Z</time>
      </trkpt>
      <trkpt lat="45.94239" lon="5.00158">
        <ele>288</ele>
        <time>2018-10-20T09:44:39Z</time>
      </trkpt>
      <trkpt lat="45.94234" lon="5.00163">
        <ele>288</ele>
        <time>2018-10-20T09:44:40Z</time>
      </trkpt>
      <trkpt lat="45.94229" lon="5.00168">
        <ele>287</ele>
        <time>2018-10-20T09:44:41Z</time>
      </trkpt>
      <trkpt lat="45.94225" lon="5.00173">
        <ele>287</ele>
        <time>2018-10-20T09:44:42Z</time>
      </trkpt>
      <trkpt lat="45.94221" lon="5.00178">
        <ele>287</ele>
        <time>2018-10-20T09:44:43Z</time>
      </trkpt>
      <trkpt lat="45.94216" lon="5.00184">
        <ele>287</ele>
        <time>2018-10-20T09:44:44Z</time>
      </trkpt>
      <trkpt lat="45.94211" lon="5.00189">
        <ele>287</ele>
        <time>2018-10-20T09:44:45Z</time>
      </trkpt>
      <trkpt lat="45.94206" lon="5.00194">
        <ele>287</ele>
        <time>2018-10-20T09:44:46Z</time>
      </trkpt>
      <trkpt lat="45.94204" lon="5.00199">
        <ele>287</ele>
        <time>2018-10-20T09:44:47Z</time>
      </trkpt>
      <trkpt lat="45.942" lon="5.00205">
        <ele>287</ele>
        <time>2018-10-20T09:44:48Z</time>
      </trkpt>
      <trkpt lat="45.94195" lon="5.00209">
        <ele>287</ele>
        <time>2018-10-20T09:44:49Z</time>
      </trkpt>
      <trkpt lat="45.9419" lon="5.00212">
        <ele>286</ele>
        <time>2018-10-20T09:44:50Z</time>
      </trkpt>
      <trkpt lat="45.94185" lon="5.00219">
        <ele>286</ele>
        <time>2018-10-20T09:44:51Z</time>
      </trkpt>
      <trkpt lat="45.94182" lon="5.00225">
        <ele>286</ele>
        <time>2018-10-20T09:44:52Z</time>
      </trkpt>
      <trkpt lat="45.94177" lon="5.00231">
        <ele>286</ele>
        <time>2018-10-20T09:44:53Z</time>
      </trkpt>
      <trkpt lat="45.94171" lon="5.00236">
        <ele>286</ele>
        <time>2018-10-20T09:44:54Z</time>
      </trkpt>
      <trkpt lat="45.94167" lon="5.00242">
        <ele>285</ele>
        <time>2018-10-20T09:44:55Z</time>
      </trkpt>
      <trkpt lat="45.94166" lon="5.0025">
        <ele>285</ele>
        <time>2018-10-20T09:44:56Z</time>
      </trkpt>
      <trkpt lat="45.94162" lon="5.00256">
        <ele>285</ele>
        <time>2018-10-20T09:44:57Z</time>
      </trkpt>
      <trkpt lat="45.94158" lon="5.00261">
        <ele>285</ele>
        <time>2018-10-20T09:44:58Z</time>
      </trkpt>
      <trkpt lat="45.94154" lon="5.00267">
        <ele>285</ele>
        <time>2018-10-20T09:44:59Z</time>
      </trkpt>
      <trkpt lat="45.9415" lon="5.00273">
        <ele>285</ele>
        <time>2018-10-20T09:45:00Z</time>
      </trkpt>
      <trkpt lat="45.94146" lon="5.00279">
        <ele>285</ele>
        <time>2018-10-20T09:45:01Z</time>
      </trkpt>
      <trkpt lat="45.94142" lon="5.00285">
        <ele>285</ele>
        <time>2018-10-20T09:45:02Z</time>
      </trkpt>
      <trkpt lat="45.94138" lon="5.0029">
        <ele>285</ele>
        <time>2018-10-20T09:45:03Z</time>
      </trkpt>
      <trkpt lat="45.94133" lon="5.00295">
        <ele>285</ele>
        <time>2018-10-20T09:45:04Z</time>
      </trkpt>
      <trkpt lat="45.9413" lon="5.00301">
        <ele>285</ele>
        <time>2018-10-20T09:45:05Z</time>
      </trkpt>
      <trkpt lat="45.94127" lon="5.00309">
        <ele>285</ele>
        <time>2018-10-20T09:45:06Z</time>
      </trkpt>
      <trkpt lat="45.94123" lon="5.00316">
        <ele>285</ele>
        <time>2018-10-20T09:45:07Z</time>
      </trkpt>
      <trkpt lat="45.94119" lon="5.00322">
        <ele>285</ele>
        <time>2018-10-20T09:45:08Z</time>
      </trkpt>
      <trkpt lat="45.94114" lon="5.00327">
        <ele>285</ele>
        <time>2018-10-20T09:45:09Z</time>
      </trkpt>
      <trkpt lat="45.9411" lon="5.00333">
        <ele>285</ele>
        <time>2018-10-20T09:45:10Z</time>
      </trkpt>
      <trkpt lat="45.94106" lon="5.00339">
        <ele>286</ele>
        <time>2018-10-20T09:45:11Z</time>
      </trkpt>
      <trkpt lat="45.94101" lon="5.00344">
        <ele>286</ele>
        <time>2018-10-20T09:45:12Z</time>
      </trkpt>
      <trkpt lat="45.94097" lon="5.00351">
        <ele>286</ele>
        <time>2018-10-20T09:45:13Z</time>
      </trkpt>
      <trkpt lat="45.94091" lon="5.00356">
        <ele>286</ele>
        <time>2018-10-20T09:45:14Z</time>
      </trkpt>
      <trkpt lat="45.94085" lon="5.00359">
        <ele>286</ele>
        <time>2018-10-20T09:45:15Z</time>
      </trkpt>
      <trkpt lat="45.94079" lon="5.00362">
        <ele>285</ele>
        <time>2018-10-20T09:45:16Z</time>
      </trkpt>
      <trkpt lat="45.94074" lon="5.00364">
        <ele>285</ele>
        <time>2018-10-20T09:45:17Z</time>
      </trkpt>
      <trkpt lat="45.94069" lon="5.00365">
        <ele>285</ele>
        <time>2018-10-20T09:45:18Z</time>
      </trkpt>
      <trkpt lat="45.94063" lon="5.00367">
        <ele>285</ele>
        <time>2018-10-20T09:45:19Z</time>
      </trkpt>
      <trkpt lat="45.94059" lon="5.00368">
        <ele>285</ele>
        <time>2018-10-20T09:45:20Z</time>
      </trkpt>
      <trkpt lat="45.94055" lon="5.00368">
        <ele>285</ele>
        <time>2018-10-20T09:45:21Z</time>
      </trkpt>
      <trkpt lat="45.94049" lon="5.00368">
        <ele>285</ele>
        <time>2018-10-20T09:45:22Z</time>
      </trkpt>
      <trkpt lat="45.94044" lon="5.00368">
        <ele>285</ele>
        <time>2018-10-20T09:45:23Z</time>
      </trkpt>
      <trkpt lat="45.94039" lon="5.00366">
        <ele>285</ele>
        <time>2018-10-20T09:45:24Z</time>
      </trkpt>
      <trkpt lat="45.94033" lon="5.00365">
        <ele>285</ele>
        <time>2018-10-20T09:45:25Z</time>
      </trkpt>
      <trkpt lat="45.94028" lon="5.00365">
        <ele>285</ele>
        <time>2018-10-20T09:45:26Z</time>
      </trkpt>
      <trkpt lat="45.94024" lon="5.00366">
        <ele>285</ele>
        <time>2018-10-20T09:45:27Z</time>
      </trkpt>
      <trkpt lat="45.94018" lon="5.00365">
        <ele>285</ele>
        <time>2018-10-20T09:45:28Z</time>
      </trkpt>
      <trkpt lat="45.94011" lon="5.00361">
        <ele>285</ele>
        <time>2018-10-20T09:45:29Z</time>
      </trkpt>
      <trkpt lat="45.94006" lon="5.0036">
        <ele>285</ele>
        <time>2018-10-20T09:45:30Z</time>
      </trkpt>
      <trkpt lat="45.94002" lon="5.00363">
        <ele>285</ele>
        <time>2018-10-20T09:45:31Z</time>
      </trkpt>
      <trkpt lat="45.93995" lon="5.00364">
        <ele>286</ele>
        <time>2018-10-20T09:45:32Z</time>
      </trkpt>
      <trkpt lat="45.9399" lon="5.00363">
        <ele>286</ele>
        <time>2018-10-20T09:45:33Z</time>
      </trkpt>
      <trkpt lat="45.93985" lon="5.00361">
        <ele>286</ele>
        <time>2018-10-20T09:45:34Z</time>
      </trkpt>
      <trkpt lat="45.9398" lon="5.0036">
        <ele>286</ele>
        <time>2018-10-20T09:45:35Z</time>
      </trkpt>
      <trkpt lat="45.93975" lon="5.00359">
        <ele>286</ele>
        <time>2018-10-20T09:45:36Z</time>
      </trkpt>
      <trkpt lat="45.9397" lon="5.00356">
        <ele>286</ele>
        <time>2018-10-20T09:45:37Z</time>
      </trkpt>
      <trkpt lat="45.93965" lon="5.00355">
        <ele>286</ele>
        <time>2018-10-20T09:45:38Z</time>
      </trkpt>
      <trkpt lat="45.93959" lon="5.00353">
        <ele>286</ele>
        <time>2018-10-20T09:45:39Z</time>
      </trkpt>
      <trkpt lat="45.93954" lon="5.00352">
        <ele>286</ele>
        <time>2018-10-20T09:45:40Z</time>
      </trkpt>
      <trkpt lat="45.93949" lon="5.00351">
        <ele>286</ele>
        <time>2018-10-20T09:45:41Z</time>
      </trkpt>
      <trkpt lat="45.93944" lon="5.00349">
        <ele>286</ele>
        <time>2018-10-20T09:45:42Z</time>
      </trkpt>
      <trkpt lat="45.93939" lon="5.00347">
        <ele>286</ele>
        <time>2018-10-20T09:45:43Z</time>
      </trkpt>
      <trkpt lat="45.93931" lon="5.00343">
        <ele>286</ele>
        <time>2018-10-20T09:45:44Z</time>
      </trkpt>
      <trkpt lat="45.93925" lon="5.00341">
        <ele>286</ele>
        <time>2018-10-20T09:45:45Z</time>
      </trkpt>
      <trkpt lat="45.9392" lon="5.00339">
        <ele>286</ele>
        <time>2018-10-20T09:45:46Z</time>
      </trkpt>
      <trkpt lat="45.93916" lon="5.00336">
        <ele>286</ele>
        <time>2018-10-20T09:45:47Z</time>
      </trkpt>
      <trkpt lat="45.93911" lon="5.00336">
        <ele>286</ele>
        <time>2018-10-20T09:45:48Z</time>
      </trkpt>
      <trkpt lat="45.93906" lon="5.00335">
        <ele>287</ele>
        <time>2018-10-20T09:45:49Z</time>
      </trkpt>
      <trkpt lat="45.93901" lon="5.00335">
        <ele>287</ele>
        <time>2018-10-20T09:45:50Z</time>
      </trkpt>
      <trkpt lat="45.93896" lon="5.00333">
        <ele>287</ele>
        <time>2018-10-20T09:45:51Z</time>
      </trkpt>
      <trkpt lat="45.93891" lon="5.00333">
        <ele>287</ele>
        <time>2018-10-20T09:45:52Z</time>
      </trkpt>
      <trkpt lat="45.93886" lon="5.00332">
        <ele>287</ele>
        <time>2018-10-20T09:45:53Z</time>
      </trkpt>
      <trkpt lat="45.93881" lon="5.00329">
        <ele>288</ele>
        <time>2018-10-20T09:45:54Z</time>
      </trkpt>
      <trkpt lat="45.93876" lon="5.00326">
        <ele>288</ele>
        <time>2018-10-20T09:45:55Z</time>
      </trkpt>
      <trkpt lat="45.9387" lon="5.00323">
        <ele>288</ele>
        <time>2018-10-20T09:45:56Z</time>
      </trkpt>
      <trkpt lat="45.93865" lon="5.00322">
        <ele>288</ele>
        <time>2018-10-20T09:45:57Z</time>
      </trkpt>
      <trkpt lat="45.9386" lon="5.00321">
        <ele>288</ele>
        <time>2018-10-20T09:45:58Z</time>
      </trkpt>
      <trkpt lat="45.93855" lon="5.0032">
        <ele>288</ele>
        <time>2018-10-20T09:45:59Z</time>
      </trkpt>
      <trkpt lat="45.93851" lon="5.00317">
        <ele>288</ele>
        <time>2018-10-20T09:46:00Z</time>
      </trkpt>
      <trkpt lat="45.93842" lon="5.00313">
        <ele>288</ele>
        <time>2018-10-20T09:46:02Z</time>
      </trkpt>
      <trkpt lat="45.93838" lon="5.00312">
        <ele>289</ele>
        <time>2018-10-20T09:46:03Z</time>
      </trkpt>
      <trkpt lat="45.93829" lon="5.00308">
        <ele>289</ele>
        <time>2018-10-20T09:46:05Z</time>
      </trkpt>
      <trkpt lat="45.93826" lon="5.00308">
        <ele>289</ele>
        <time>2018-10-20T09:46:06Z</time>
      </trkpt>
      <trkpt lat="45.93818" lon="5.00308">
        <ele>289</ele>
        <time>2018-10-20T09:46:08Z</time>
      </trkpt>
      <trkpt lat="45.93814" lon="5.00307">
        <ele>289</ele>
        <time>2018-10-20T09:46:09Z</time>
      </trkpt>
      <trkpt lat="45.93809" lon="5.00305">
        <ele>289</ele>
        <time>2018-10-20T09:46:10Z</time>
      </trkpt>
      <trkpt lat="45.93805" lon="5.00304">
        <ele>289</ele>
        <time>2018-10-20T09:46:11Z</time>
      </trkpt>
      <trkpt lat="45.938" lon="5.00303">
        <ele>289</ele>
        <time>2018-10-20T09:46:12Z</time>
      </trkpt>
      <trkpt lat="45.93795" lon="5.00302">
        <ele>289</ele>
        <time>2018-10-20T09:46:13Z</time>
      </trkpt>
      <trkpt lat="45.9379" lon="5.00302">
        <ele>289</ele>
        <time>2018-10-20T09:46:14Z</time>
      </trkpt>
      <trkpt lat="45.93784" lon="5.00301">
        <ele>289</ele>
        <time>2018-10-20T09:46:15Z</time>
      </trkpt>
      <trkpt lat="45.93778" lon="5.003">
        <ele>289</ele>
        <time>2018-10-20T09:46:16Z</time>
      </trkpt>
      <trkpt lat="45.93773" lon="5.00299">
        <ele>289</ele>
        <time>2018-10-20T09:46:17Z</time>
      </trkpt>
      <trkpt lat="45.93767" lon="5.00298">
        <ele>289</ele>
        <time>2018-10-20T09:46:18Z</time>
      </trkpt>
      <trkpt lat="45.93761" lon="5.00297">
        <ele>289</ele>
        <time>2018-10-20T09:46:19Z</time>
      </trkpt>
      <trkpt lat="45.93756" lon="5.00295">
        <ele>289</ele>
        <time>2018-10-20T09:46:20Z</time>
      </trkpt>
      <trkpt lat="45.9375" lon="5.00295">
        <ele>289</ele>
        <time>2018-10-20T09:46:21Z</time>
      </trkpt>
      <trkpt lat="45.93744" lon="5.00293">
        <ele>289</ele>
        <time>2018-10-20T09:46:22Z</time>
      </trkpt>
      <trkpt lat="45.93738" lon="5.00293">
        <ele>289</ele>
        <time>2018-10-20T09:46:23Z</time>
      </trkpt>
      <trkpt lat="45.93732" lon="5.00292">
        <ele>289</ele>
        <time>2018-10-20T09:46:24Z</time>
      </trkpt>
      <trkpt lat="45.93725" lon="5.00291">
        <ele>289</ele>
        <time>2018-10-20T09:46:25Z</time>
      </trkpt>
      <trkpt lat="45.93719" lon="5.0029">
        <ele>289</ele>
        <time>2018-10-20T09:46:26Z</time>
      </trkpt>
      <trkpt lat="45.93713" lon="5.00289">
        <ele>289</ele>
        <time>2018-10-20T09:46:27Z</time>
      </trkpt>
      <trkpt lat="45.93707" lon="5.00289">
        <ele>289</ele>
        <time>2018-10-20T09:46:28Z</time>
      </trkpt>
      <trkpt lat="45.93701" lon="5.00289">
        <ele>289</ele>
        <time>2018-10-20T09:46:29Z</time>
      </trkpt>
      <trkpt lat="45.93696" lon="5.00289">
        <ele>289</ele>
        <time>2018-10-20T09:46:30Z</time>
      </trkpt>
      <trkpt lat="45.93689" lon="5.00288">
        <ele>289</ele>
        <time>2018-10-20T09:46:31Z</time>
      </trkpt>
      <trkpt lat="45.93685" lon="5.00288">
        <ele>289</ele>
        <time>2018-10-20T09:46:32Z</time>
      </trkpt>
      <trkpt lat="45.93678" lon="5.00287">
        <ele>289</ele>
        <time>2018-10-20T09:46:33Z</time>
      </trkpt>
      <trkpt lat="45.93673" lon="5.00287">
        <ele>289</ele>
        <time>2018-10-20T09:46:34Z</time>
      </trkpt>
      <trkpt lat="45.93669" lon="5.00287">
        <ele>289</ele>
        <time>2018-10-20T09:46:35Z</time>
      </trkpt>
      <trkpt lat="45.93662" lon="5.00285">
        <ele>290</ele>
        <time>2018-10-20T09:46:36Z</time>
      </trkpt>
      <trkpt lat="45.93655" lon="5.00285">
        <ele>290</ele>
        <time>2018-10-20T09:46:37Z</time>
      </trkpt>
      <trkpt lat="45.93651" lon="5.00283">
        <ele>290</ele>
        <time>2018-10-20T09:46:38Z</time>
      </trkpt>
      <trkpt lat="45.93645" lon="5.00282">
        <ele>290</ele>
        <time>2018-10-20T09:46:39Z</time>
      </trkpt>
      <trkpt lat="45.93639" lon="5.00283">
        <ele>290</ele>
        <time>2018-10-20T09:46:40Z</time>
      </trkpt>
      <trkpt lat="45.93633" lon="5.00284">
        <ele>290</ele>
        <time>2018-10-20T09:46:41Z</time>
      </trkpt>
      <trkpt lat="45.93627" lon="5.00284">
        <ele>290</ele>
        <time>2018-10-20T09:46:42Z</time>
      </trkpt>
      <trkpt lat="45.93621" lon="5.00285">
        <ele>291</ele>
        <time>2018-10-20T09:46:43Z</time>
      </trkpt>
      <trkpt lat="45.93615" lon="5.00287">
        <ele>291</ele>
        <time>2018-10-20T09:46:44Z</time>
      </trkpt>
      <trkpt lat="45.93611" lon="5.00289">
        <ele>291</ele>
        <time>2018-10-20T09:46:45Z</time>
      </trkpt>
      <trkpt lat="45.93606" lon="5.0029">
        <ele>291</ele>
        <time>2018-10-20T09:46:46Z</time>
      </trkpt>
      <trkpt lat="45.936" lon="5.0029">
        <ele>291</ele>
        <time>2018-10-20T09:46:47Z</time>
      </trkpt>
      <trkpt lat="45.93596" lon="5.00292">
        <ele>291</ele>
        <time>2018-10-20T09:46:48Z</time>
      </trkpt>
      <trkpt lat="45.93591" lon="5.00294">
        <ele>291</ele>
        <time>2018-10-20T09:46:49Z</time>
      </trkpt>
      <trkpt lat="45.93584" lon="5.00293">
        <ele>291</ele>
        <time>2018-10-20T09:46:50Z</time>
      </trkpt>
      <trkpt lat="45.93579" lon="5.00295">
        <ele>292</ele>
        <time>2018-10-20T09:46:51Z</time>
      </trkpt>
      <trkpt lat="45.93573" lon="5.00297">
        <ele>292</ele>
        <time>2018-10-20T09:46:52Z</time>
      </trkpt>
      <trkpt lat="45.93568" lon="5.00299">
        <ele>292</ele>
        <time>2018-10-20T09:46:53Z</time>
      </trkpt>
      <trkpt lat="45.93563" lon="5.00301">
        <ele>292</ele>
        <time>2018-10-20T09:46:54Z</time>
      </trkpt>
      <trkpt lat="45.93557" lon="5.00303">
        <ele>292</ele>
        <time>2018-10-20T09:46:55Z</time>
      </trkpt>
      <trkpt lat="45.93552" lon="5.00303">
        <ele>292</ele>
        <time>2018-10-20T09:46:56Z</time>
      </trkpt>
      <trkpt lat="45.93547" lon="5.00304">
        <ele>292</ele>
        <time>2018-10-20T09:46:57Z</time>
      </trkpt>
      <trkpt lat="45.93542" lon="5.00306">
        <ele>292</ele>
        <time>2018-10-20T09:46:58Z</time>
      </trkpt>
      <trkpt lat="45.93538" lon="5.00308">
        <ele>292</ele>
        <time>2018-10-20T09:46:59Z</time>
      </trkpt>
      <trkpt lat="45.9353" lon="5.00313">
        <ele>292</ele>
        <time>2018-10-20T09:47:01Z</time>
      </trkpt>
      <trkpt lat="45.93527" lon="5.00314">
        <ele>292</ele>
        <time>2018-10-20T09:47:02Z</time>
      </trkpt>
      <trkpt lat="45.93522" lon="5.00315">
        <ele>292</ele>
        <time>2018-10-20T09:47:03Z</time>
      </trkpt>
      <trkpt lat="45.93517" lon="5.00317">
        <ele>292</ele>
        <time>2018-10-20T09:47:04Z</time>
      </trkpt>
      <trkpt lat="45.93512" lon="5.00321">
        <ele>292</ele>
        <time>2018-10-20T09:47:05Z</time>
      </trkpt>
      <trkpt lat="45.93507" lon="5.00324">
        <ele>292</ele>
        <time>2018-10-20T09:47:06Z</time>
      </trkpt>
      <trkpt lat="45.93502" lon="5.00325">
        <ele>293</ele>
        <time>2018-10-20T09:47:07Z</time>
      </trkpt>
      <trkpt lat="45.93498" lon="5.00328">
        <ele>293</ele>
        <time>2018-10-20T09:47:08Z</time>
      </trkpt>
      <trkpt lat="45.9349" lon="5.00333">
        <ele>293</ele>
        <time>2018-10-20T09:47:10Z</time>
      </trkpt>
      <trkpt lat="45.93486" lon="5.00337">
        <ele>294</ele>
        <time>2018-10-20T09:47:11Z</time>
      </trkpt>
      <trkpt lat="45.93478" lon="5.00343">
        <ele>294</ele>
        <time>2018-10-20T09:47:13Z</time>
      </trkpt>
      <trkpt lat="45.93475" lon="5.00347">
        <ele>295</ele>
        <time>2018-10-20T09:47:14Z</time>
      </trkpt>
      <trkpt lat="45.9347" lon="5.0035">
        <ele>295</ele>
        <time>2018-10-20T09:47:15Z</time>
      </trkpt>
      <trkpt lat="45.93465" lon="5.00354">
        <ele>295</ele>
        <time>2018-10-20T09:47:16Z</time>
      </trkpt>
      <trkpt lat="45.93461" lon="5.00357">
        <ele>295</ele>
        <time>2018-10-20T09:47:17Z</time>
      </trkpt>
      <trkpt lat="45.93454" lon="5.00359">
        <ele>295</ele>
        <time>2018-10-20T09:47:18Z</time>
      </trkpt>
      <trkpt lat="45.93449" lon="5.00361">
        <ele>295</ele>
        <time>2018-10-20T09:47:19Z</time>
      </trkpt>
      <trkpt lat="45.93446" lon="5.00364">
        <ele>296</ele>
        <time>2018-10-20T09:47:20Z</time>
      </trkpt>
      <trkpt lat="45.9344" lon="5.00366">
        <ele>296</ele>
        <time>2018-10-20T09:47:21Z</time>
      </trkpt>
      <trkpt lat="45.93435" lon="5.0037">
        <ele>296</ele>
        <time>2018-10-20T09:47:22Z</time>
      </trkpt>
      <trkpt lat="45.93429" lon="5.00373">
        <ele>296</ele>
        <time>2018-10-20T09:47:23Z</time>
      </trkpt>
      <trkpt lat="45.93425" lon="5.00377">
        <ele>296</ele>
        <time>2018-10-20T09:47:24Z</time>
      </trkpt>
      <trkpt lat="45.9342" lon="5.00381">
        <ele>296</ele>
        <time>2018-10-20T09:47:25Z</time>
      </trkpt>
      <trkpt lat="45.93415" lon="5.00384">
        <ele>297</ele>
        <time>2018-10-20T09:47:26Z</time>
      </trkpt>
      <trkpt lat="45.93408" lon="5.00388">
        <ele>297</ele>
        <time>2018-10-20T09:47:27Z</time>
      </trkpt>
      <trkpt lat="45.93407" lon="5.00393">
        <ele>297</ele>
        <time>2018-10-20T09:47:28Z</time>
      </trkpt>
      <trkpt lat="45.93402" lon="5.00396">
        <ele>297</ele>
        <time>2018-10-20T09:47:29Z</time>
      </trkpt>
      <trkpt lat="45.93396" lon="5.00401">
        <ele>297</ele>
        <time>2018-10-20T09:47:30Z</time>
      </trkpt>
      <trkpt lat="45.93391" lon="5.00407">
        <ele>297</ele>
        <time>2018-10-20T09:47:31Z</time>
      </trkpt>
      <trkpt lat="45.93386" lon="5.00413">
        <ele>297</ele>
        <time>2018-10-20T09:47:32Z</time>
      </trkpt>
      <trkpt lat="45.93381" lon="5.00417">
        <ele>297</ele>
        <time>2018-10-20T09:47:33Z</time>
      </trkpt>
      <trkpt lat="45.93375" lon="5.00421">
        <ele>297</ele>
        <time>2018-10-20T09:47:34Z</time>
      </trkpt>
      <trkpt lat="45.93369" lon="5.00426">
        <ele>297</ele>
        <time>2018-10-20T09:47:35Z</time>
      </trkpt>
      <trkpt lat="45.93364" lon="5.0043">
        <ele>297</ele>
        <time>2018-10-20T09:47:36Z</time>
      </trkpt>
      <trkpt lat="45.93359" lon="5.00433">
        <ele>297</ele>
        <time>2018-10-20T09:47:37Z</time>
      </trkpt>
      <trkpt lat="45.93355" lon="5.00437">
        <ele>297</ele>
        <time>2018-10-20T09:47:38Z</time>
      </trkpt>
      <trkpt lat="45.93348" lon="5.00444">
        <ele>297</ele>
        <time>2018-10-20T09:47:39Z</time>
      </trkpt>
      <trkpt lat="45.93344" lon="5.00449">
        <ele>297</ele>
        <time>2018-10-20T09:47:40Z</time>
      </trkpt>
      <trkpt lat="45.93338" lon="5.00451">
        <ele>297</ele>
        <time>2018-10-20T09:47:41Z</time>
      </trkpt>
      <trkpt lat="45.93334" lon="5.00456">
        <ele>297</ele>
        <time>2018-10-20T09:47:42Z</time>
      </trkpt>
      <trkpt lat="45.9333" lon="5.00461">
        <ele>295</ele>
        <time>2018-10-20T09:47:43Z</time>
      </trkpt>
      <trkpt lat="45.93326" lon="5.00467">
        <ele>295</ele>
        <time>2018-10-20T09:47:44Z</time>
      </trkpt>
      <trkpt lat="45.93324" lon="5.00472">
        <ele>295</ele>
        <time>2018-10-20T09:47:45Z</time>
      </trkpt>
      <trkpt lat="45.93321" lon="5.00478">
        <ele>295</ele>
        <time>2018-10-20T09:47:46Z</time>
      </trkpt>
      <trkpt lat="45.93317" lon="5.00484">
        <ele>296</ele>
        <time>2018-10-20T09:47:47Z</time>
      </trkpt>
      <trkpt lat="45.93315" lon="5.00491">
        <ele>296</ele>
        <time>2018-10-20T09:47:48Z</time>
      </trkpt>
      <trkpt lat="45.93311" lon="5.00497">
        <ele>295</ele>
        <time>2018-10-20T09:47:49Z</time>
      </trkpt>
      <trkpt lat="45.93309" lon="5.00503">
        <ele>296</ele>
        <time>2018-10-20T09:47:50Z</time>
      </trkpt>
      <trkpt lat="45.93307" lon="5.00509">
        <ele>296</ele>
        <time>2018-10-20T09:47:51Z</time>
      </trkpt>
      <trkpt lat="45.93303" lon="5.00513">
        <ele>296</ele>
        <time>2018-10-20T09:47:52Z</time>
      </trkpt>
      <trkpt lat="45.93299" lon="5.0052">
        <ele>296</ele>
        <time>2018-10-20T09:47:53Z</time>
      </trkpt>
      <trkpt lat="45.93296" lon="5.00527">
        <ele>296</ele>
        <time>2018-10-20T09:47:54Z</time>
      </trkpt>
      <trkpt lat="45.93292" lon="5.00533">
        <ele>296</ele>
        <time>2018-10-20T09:47:55Z</time>
      </trkpt>
      <trkpt lat="45.93289" lon="5.00542">
        <ele>296</ele>
        <time>2018-10-20T09:47:56Z</time>
      </trkpt>
      <trkpt lat="45.93287" lon="5.00552">
        <ele>296</ele>
        <time>2018-10-20T09:47:57Z</time>
      </trkpt>
      <trkpt lat="45.93283" lon="5.00555">
        <ele>296</ele>
        <time>2018-10-20T09:47:58Z</time>
      </trkpt>
      <trkpt lat="45.93279" lon="5.00565">
        <ele>296</ele>
        <time>2018-10-20T09:47:59Z</time>
      </trkpt>
      <trkpt lat="45.93276" lon="5.00572">
        <ele>295</ele>
        <time>2018-10-20T09:48:00Z</time>
      </trkpt>
      <trkpt lat="45.93269" lon="5.00577">
        <ele>295</ele>
        <time>2018-10-20T09:48:01Z</time>
      </trkpt>
      <trkpt lat="45.93264" lon="5.00583">
        <ele>295</ele>
        <time>2018-10-20T09:48:02Z</time>
      </trkpt>
      <trkpt lat="45.93261" lon="5.00591">
        <ele>295</ele>
        <time>2018-10-20T09:48:03Z</time>
      </trkpt>
      <trkpt lat="45.93256" lon="5.00595">
        <ele>295</ele>
        <time>2018-10-20T09:48:04Z</time>
      </trkpt>
      <trkpt lat="45.93252" lon="5.006">
        <ele>295</ele>
        <time>2018-10-20T09:48:05Z</time>
      </trkpt>
      <trkpt lat="45.93248" lon="5.00605">
        <ele>293</ele>
        <time>2018-10-20T09:48:06Z</time>
      </trkpt>
      <trkpt lat="45.93243" lon="5.0061">
        <ele>292</ele>
        <time>2018-10-20T09:48:07Z</time>
      </trkpt>
      <trkpt lat="45.93237" lon="5.00613">
        <ele>292</ele>
        <time>2018-10-20T09:48:08Z</time>
      </trkpt>
      <trkpt lat="45.93231" lon="5.00616">
        <ele>292</ele>
        <time>2018-10-20T09:48:09Z</time>
      </trkpt>
      <trkpt lat="45.93225" lon="5.00615">
        <ele>292</ele>
        <time>2018-10-20T09:48:10Z</time>
      </trkpt>
      <trkpt lat="45.93218" lon="5.00618">
        <ele>292</ele>
        <time>2018-10-20T09:48:11Z</time>
      </trkpt>
      <trkpt lat="45.93213" lon="5.00619">
        <ele>291</ele>
        <time>2018-10-20T09:48:12Z</time>
      </trkpt>
      <trkpt lat="45.93206" lon="5.0062">
        <ele>291</ele>
        <time>2018-10-20T09:48:13Z</time>
      </trkpt>
      <trkpt lat="45.93199" lon="5.00621">
        <ele>291</ele>
        <time>2018-10-20T09:48:14Z</time>
      </trkpt>
      <trkpt lat="45.93193" lon="5.00621">
        <ele>291</ele>
        <time>2018-10-20T09:48:15Z</time>
      </trkpt>
      <trkpt lat="45.93187" lon="5.00623">
        <ele>290</ele>
        <time>2018-10-20T09:48:16Z</time>
      </trkpt>
      <trkpt lat="45.93181" lon="5.00625">
        <ele>290</ele>
        <time>2018-10-20T09:48:17Z</time>
      </trkpt>
      <trkpt lat="45.93176" lon="5.00629">
        <ele>290</ele>
        <time>2018-10-20T09:48:18Z</time>
      </trkpt>
      <trkpt lat="45.93169" lon="5.00629">
        <ele>290</ele>
        <time>2018-10-20T09:48:19Z</time>
      </trkpt>
      <trkpt lat="45.93164" lon="5.0063">
        <ele>287</ele>
        <time>2018-10-20T09:48:20Z</time>
      </trkpt>
      <trkpt lat="45.93158" lon="5.00633">
        <ele>287</ele>
        <time>2018-10-20T09:48:21Z</time>
      </trkpt>
      <trkpt lat="45.93152" lon="5.00632">
        <ele>287</ele>
        <time>2018-10-20T09:48:22Z</time>
      </trkpt>
      <trkpt lat="45.93145" lon="5.00631">
        <ele>287</ele>
        <time>2018-10-20T09:48:24Z</time>
      </trkpt>
      <trkpt lat="45.9314" lon="5.00631">
        <ele>287</ele>
        <time>2018-10-20T09:48:25Z</time>
      </trkpt>
      <trkpt lat="45.93132" lon="5.00632">
        <ele>287</ele>
        <time>2018-10-20T09:48:27Z</time>
      </trkpt>
      <trkpt lat="45.93126" lon="5.00632">
        <ele>287</ele>
        <time>2018-10-20T09:48:28Z</time>
      </trkpt>
      <trkpt lat="45.9312" lon="5.00632">
        <ele>286</ele>
        <time>2018-10-20T09:48:29Z</time>
      </trkpt>
      <trkpt lat="45.93115" lon="5.00633">
        <ele>286</ele>
        <time>2018-10-20T09:48:30Z</time>
      </trkpt>
      <trkpt lat="45.93111" lon="5.00634">
        <ele>286</ele>
        <time>2018-10-20T09:48:31Z</time>
      </trkpt>
      <trkpt lat="45.93106" lon="5.00639">
        <ele>286</ele>
        <time>2018-10-20T09:48:32Z</time>
      </trkpt>
      <trkpt lat="45.93101" lon="5.0064">
        <ele>286</ele>
        <time>2018-10-20T09:48:33Z</time>
      </trkpt>
      <trkpt lat="45.93097" lon="5.00642">
        <ele>286</ele>
        <time>2018-10-20T09:48:34Z</time>
      </trkpt>
      <trkpt lat="45.93088" lon="5.0064">
        <ele>286</ele>
        <time>2018-10-20T09:48:36Z</time>
      </trkpt>
      <trkpt lat="45.93083" lon="5.00639">
        <ele>286</ele>
        <time>2018-10-20T09:48:37Z</time>
      </trkpt>
      <trkpt lat="45.93077" lon="5.00639">
        <ele>286</ele>
        <time>2018-10-20T09:48:38Z</time>
      </trkpt>
      <trkpt lat="45.93072" lon="5.00641">
        <ele>286</ele>
        <time>2018-10-20T09:48:39Z</time>
      </trkpt>
      <trkpt lat="45.93065" lon="5.00641">
        <ele>286</ele>
        <time>2018-10-20T09:48:40Z</time>
      </trkpt>
      <trkpt lat="45.93061" lon="5.00644">
        <ele>286</ele>
        <time>2018-10-20T09:48:41Z</time>
      </trkpt>
      <trkpt lat="45.93054" lon="5.00645">
        <ele>286</ele>
        <time>2018-10-20T09:48:42Z</time>
      </trkpt>
      <trkpt lat="45.93049" lon="5.00645">
        <ele>286</ele>
        <time>2018-10-20T09:48:43Z</time>
      </trkpt>
      <trkpt lat="45.93041" lon="5.00647">
        <ele>286</ele>
        <time>2018-10-20T09:48:45Z</time>
      </trkpt>
      <trkpt lat="45.93037" lon="5.00647">
        <ele>286</ele>
        <time>2018-10-20T09:48:46Z</time>
      </trkpt>
      <trkpt lat="45.93028" lon="5.00648">
        <ele>286</ele>
        <time>2018-10-20T09:48:48Z</time>
      </trkpt>
      <trkpt lat="45.93023" lon="5.00647">
        <ele>286</ele>
        <time>2018-10-20T09:48:49Z</time>
      </trkpt>
      <trkpt lat="45.93016" lon="5.00648">
        <ele>286</ele>
        <time>2018-10-20T09:48:51Z</time>
      </trkpt>
      <trkpt lat="45.93012" lon="5.00649">
        <ele>286</ele>
        <time>2018-10-20T09:48:52Z</time>
      </trkpt>
      <trkpt lat="45.93004" lon="5.00652">
        <ele>286</ele>
        <time>2018-10-20T09:48:54Z</time>
      </trkpt>
      <trkpt lat="45.92999" lon="5.00656">
        <ele>287</ele>
        <time>2018-10-20T09:48:55Z</time>
      </trkpt>
      <trkpt lat="45.92991" lon="5.00661">
        <ele>287</ele>
        <time>2018-10-20T09:48:57Z</time>
      </trkpt>
      <trkpt lat="45.92984" lon="5.00664">
        <ele>287</ele>
        <time>2018-10-20T09:48:58Z</time>
      </trkpt>
      <trkpt lat="45.9298" lon="5.00667">
        <ele>287</ele>
        <time>2018-10-20T09:48:59Z</time>
      </trkpt>
      <trkpt lat="45.92975" lon="5.00672">
        <ele>287</ele>
        <time>2018-10-20T09:49:00Z</time>
      </trkpt>
      <trkpt lat="45.92966" lon="5.00674">
        <ele>287</ele>
        <time>2018-10-20T09:49:02Z</time>
      </trkpt>
      <trkpt lat="45.92962" lon="5.00676">
        <ele>287</ele>
        <time>2018-10-20T09:49:03Z</time>
      </trkpt>
      <trkpt lat="45.92957" lon="5.00678">
        <ele>287</ele>
        <time>2018-10-20T09:49:04Z</time>
      </trkpt>
      <trkpt lat="45.92952" lon="5.00683">
        <ele>287</ele>
        <time>2018-10-20T09:49:05Z</time>
      </trkpt>
      <trkpt lat="45.92947" lon="5.00686">
        <ele>287</ele>
        <time>2018-10-20T09:49:06Z</time>
      </trkpt>
      <trkpt lat="45.92943" lon="5.00688">
        <ele>287</ele>
        <time>2018-10-20T09:49:07Z</time>
      </trkpt>
      <trkpt lat="45.92935" lon="5.00695">
        <ele>287</ele>
        <time>2018-10-20T09:49:09Z</time>
      </trkpt>
      <trkpt lat="45.92932" lon="5.00697">
        <ele>287</ele>
        <time>2018-10-20T09:49:10Z</time>
      </trkpt>
      <trkpt lat="45.92927" lon="5.00701">
        <ele>287</ele>
        <time>2018-10-20T09:49:11Z</time>
      </trkpt>
      <trkpt lat="45.92922" lon="5.00704">
        <ele>287</ele>
        <time>2018-10-20T09:49:12Z</time>
      </trkpt>
      <trkpt lat="45.92917" lon="5.00707">
        <ele>287</ele>
        <time>2018-10-20T09:49:13Z</time>
      </trkpt>
      <trkpt lat="45.92911" lon="5.0071">
        <ele>288</ele>
        <time>2018-10-20T09:49:14Z</time>
      </trkpt>
      <trkpt lat="45.92907" lon="5.00713">
        <ele>288</ele>
        <time>2018-10-20T09:49:15Z</time>
      </trkpt>
      <trkpt lat="45.92902" lon="5.00716">
        <ele>288</ele>
        <time>2018-10-20T09:49:16Z</time>
      </trkpt>
      <trkpt lat="45.92898" lon="5.0072">
        <ele>288</ele>
        <time>2018-10-20T09:49:17Z</time>
      </trkpt>
      <trkpt lat="45.92893" lon="5.00724">
        <ele>288</ele>
        <time>2018-10-20T09:49:18Z</time>
      </trkpt>
      <trkpt lat="45.92889" lon="5.00728">
        <ele>288</ele>
        <time>2018-10-20T09:49:19Z</time>
      </trkpt>
      <trkpt lat="45.92885" lon="5.00731">
        <ele>288</ele>
        <time>2018-10-20T09:49:20Z</time>
      </trkpt>
      <trkpt lat="45.92882" lon="5.00735">
        <ele>288</ele>
        <time>2018-10-20T09:49:21Z</time>
      </trkpt>
      <trkpt lat="45.92877" lon="5.0074">
        <ele>288</ele>
        <time>2018-10-20T09:49:22Z</time>
      </trkpt>
      <trkpt lat="45.92873" lon="5.00743">
        <ele>287</ele>
        <time>2018-10-20T09:49:23Z</time>
      </trkpt>
      <trkpt lat="45.92869" lon="5.00747">
        <ele>287</ele>
        <time>2018-10-20T09:49:24Z</time>
      </trkpt>
      <trkpt lat="45.92865" lon="5.0075">
        <ele>287</ele>
        <time>2018-10-20T09:49:25Z</time>
      </trkpt>
      <trkpt lat="45.9286" lon="5.00753">
        <ele>287</ele>
        <time>2018-10-20T09:49:26Z</time>
      </trkpt>
      <trkpt lat="45.92855" lon="5.00757">
        <ele>287</ele>
        <time>2018-10-20T09:49:27Z</time>
      </trkpt>
      <trkpt lat="45.92851" lon="5.00762">
        <ele>287</ele>
        <time>2018-10-20T09:49:28Z</time>
      </trkpt>
      <trkpt lat="45.92847" lon="5.00768">
        <ele>287</ele>
        <time>2018-10-20T09:49:29Z</time>
      </trkpt>
      <trkpt lat="45.92842" lon="5.00774">
        <ele>287</ele>
        <time>2018-10-20T09:49:30Z</time>
      </trkpt>
      <trkpt lat="45.92837" lon="5.0078">
        <ele>287</ele>
        <time>2018-10-20T09:49:31Z</time>
      </trkpt>
      <trkpt lat="45.92837" lon="5.00786">
        <ele>287</ele>
        <time>2018-10-20T09:49:32Z</time>
      </trkpt>
      <trkpt lat="45.92834" lon="5.00795">
        <ele>287</ele>
        <time>2018-10-20T09:49:33Z</time>
      </trkpt>
      <trkpt lat="45.92831" lon="5.00801">
        <ele>287</ele>
        <time>2018-10-20T09:49:34Z</time>
      </trkpt>
      <trkpt lat="45.92828" lon="5.00809">
        <ele>287</ele>
        <time>2018-10-20T09:49:35Z</time>
      </trkpt>
      <trkpt lat="45.92824" lon="5.00815">
        <ele>287</ele>
        <time>2018-10-20T09:49:36Z</time>
      </trkpt>
      <trkpt lat="45.92821" lon="5.00822">
        <ele>287</ele>
        <time>2018-10-20T09:49:37Z</time>
      </trkpt>
      <trkpt lat="45.92817" lon="5.00829">
        <ele>287</ele>
        <time>2018-10-20T09:49:38Z</time>
      </trkpt>
      <trkpt lat="45.92814" lon="5.00836">
        <ele>287</ele>
        <time>2018-10-20T09:49:39Z</time>
      </trkpt>
      <trkpt lat="45.92811" lon="5.00842">
        <ele>287</ele>
        <time>2018-10-20T09:49:40Z</time>
      </trkpt>
      <trkpt lat="45.92807" lon="5.00849">
        <ele>287</ele>
        <time>2018-10-20T09:49:41Z</time>
      </trkpt>
      <trkpt lat="45.92803" lon="5.00855">
        <ele>287</ele>
        <time>2018-10-20T09:49:42Z</time>
      </trkpt>
      <trkpt lat="45.928" lon="5.00862">
        <ele>287</ele>
        <time>2018-10-20T09:49:43Z</time>
      </trkpt>
      <trkpt lat="45.92794" lon="5.00867">
        <ele>287</ele>
        <time>2018-10-20T09:49:44Z</time>
      </trkpt>
      <trkpt lat="45.9279" lon="5.00874">
        <ele>287</ele>
        <time>2018-10-20T09:49:45Z</time>
      </trkpt>
      <trkpt lat="45.92785" lon="5.0088">
        <ele>287</ele>
        <time>2018-10-20T09:49:46Z</time>
      </trkpt>
      <trkpt lat="45.92782" lon="5.00886">
        <ele>287</ele>
        <time>2018-10-20T09:49:47Z</time>
      </trkpt>
      <trkpt lat="45.92777" lon="5.00891">
        <ele>287</ele>
        <time>2018-10-20T09:49:48Z</time>
      </trkpt>
      <trkpt lat="45.92773" lon="5.00896">
        <ele>287</ele>
        <time>2018-10-20T09:49:49Z</time>
      </trkpt>
      <trkpt lat="45.92768" lon="5.00901">
        <ele>287</ele>
        <time>2018-10-20T09:49:50Z</time>
      </trkpt>
      <trkpt lat="45.92765" lon="5.00905">
        <ele>287</ele>
        <time>2018-10-20T09:49:51Z</time>
      </trkpt>
      <trkpt lat="45.92761" lon="5.00909">
        <ele>287</ele>
        <time>2018-10-20T09:49:52Z</time>
      </trkpt>
      <trkpt lat="45.92756" lon="5.00914">
        <ele>287</ele>
        <time>2018-10-20T09:49:53Z</time>
      </trkpt>
      <trkpt lat="45.92753" lon="5.0092">
        <ele>287</ele>
        <time>2018-10-20T09:49:54Z</time>
      </trkpt>
      <trkpt lat="45.92749" lon="5.00924">
        <ele>287</ele>
        <time>2018-10-20T09:49:55Z</time>
      </trkpt>
      <trkpt lat="45.92748" lon="5.00932">
        <ele>287</ele>
        <time>2018-10-20T09:49:56Z</time>
      </trkpt>
      <trkpt lat="45.92743" lon="5.00935">
        <ele>287</ele>
        <time>2018-10-20T09:49:57Z</time>
      </trkpt>
      <trkpt lat="45.92739" lon="5.00939">
        <ele>287</ele>
        <time>2018-10-20T09:49:58Z</time>
      </trkpt>
      <trkpt lat="45.92731" lon="5.00945">
        <ele>287</ele>
        <time>2018-10-20T09:50:00Z</time>
      </trkpt>
      <trkpt lat="45.92726" lon="5.00947">
        <ele>287</ele>
        <time>2018-10-20T09:50:01Z</time>
      </trkpt>
      <trkpt lat="45.92723" lon="5.00956">
        <ele>287</ele>
        <time>2018-10-20T09:50:02Z</time>
      </trkpt>
      <trkpt lat="45.9272" lon="5.0096">
        <ele>287</ele>
        <time>2018-10-20T09:50:03Z</time>
      </trkpt>
      <trkpt lat="45.92713" lon="5.00968">
        <ele>287</ele>
        <time>2018-10-20T09:50:05Z</time>
      </trkpt>
      <trkpt lat="45.9271" lon="5.00973">
        <ele>287</ele>
        <time>2018-10-20T09:50:06Z</time>
      </trkpt>
      <trkpt lat="45.92707" lon="5.00978">
        <ele>287</ele>
        <time>2018-10-20T09:50:07Z</time>
      </trkpt>
      <trkpt lat="45.92703" lon="5.00983">
        <ele>287</ele>
        <time>2018-10-20T09:50:08Z</time>
      </trkpt>
      <trkpt lat="45.92699" lon="5.00986">
        <ele>287</ele>
        <time>2018-10-20T09:50:09Z</time>
      </trkpt>
      <trkpt lat="45.92695" lon="5.0099">
        <ele>287</ele>
        <time>2018-10-20T09:50:10Z</time>
      </trkpt>
      <trkpt lat="45.92691" lon="5.00994">
        <ele>288</ele>
        <time>2018-10-20T09:50:11Z</time>
      </trkpt>
      <trkpt lat="45.92687" lon="5.01">
        <ele>288</ele>
        <time>2018-10-20T09:50:12Z</time>
      </trkpt>
      <trkpt lat="45.9268" lon="5.01007">
        <ele>288</ele>
        <time>2018-10-20T09:50:14Z</time>
      </trkpt>
      <trkpt lat="45.92675" lon="5.01009">
        <ele>289</ele>
        <time>2018-10-20T09:50:15Z</time>
      </trkpt>
      <trkpt lat="45.9267" lon="5.01009">
        <ele>289</ele>
        <time>2018-10-20T09:50:16Z</time>
      </trkpt>
      <trkpt lat="45.92665" lon="5.0101">
        <ele>289</ele>
        <time>2018-10-20T09:50:17Z</time>
      </trkpt>
      <trkpt lat="45.92659" lon="5.01011">
        <ele>289</ele>
        <time>2018-10-20T09:50:18Z</time>
      </trkpt>
      <trkpt lat="45.92654" lon="5.01013">
        <ele>289</ele>
        <time>2018-10-20T09:50:19Z</time>
      </trkpt>
      <trkpt lat="45.92651" lon="5.01014">
        <ele>289</ele>
        <time>2018-10-20T09:50:20Z</time>
      </trkpt>
      <trkpt lat="45.92643" lon="5.01016">
        <ele>289</ele>
        <time>2018-10-20T09:50:21Z</time>
      </trkpt>
      <trkpt lat="45.92635" lon="5.01017">
        <ele>288</ele>
        <time>2018-10-20T09:50:24Z</time>
      </trkpt>
      <trkpt lat="45.92634" lon="5.01017">
        <ele>288</ele>
        <time>2018-10-20T09:50:25Z</time>
      </trkpt>
      <trkpt lat="45.9263" lon="5.01016">
        <ele>288</ele>
        <time>2018-10-20T09:50:26Z</time>
      </trkpt>
      <trkpt lat="45.92623" lon="5.01015">
        <ele>288</ele>
        <time>2018-10-20T09:50:27Z</time>
      </trkpt>
      <trkpt lat="45.92617" lon="5.01018">
        <ele>288</ele>
        <time>2018-10-20T09:50:28Z</time>
      </trkpt>
      <trkpt lat="45.92613" lon="5.01024">
        <ele>288</ele>
        <time>2018-10-20T09:50:29Z</time>
      </trkpt>
      <trkpt lat="45.92607" lon="5.01027">
        <ele>288</ele>
        <time>2018-10-20T09:50:30Z</time>
      </trkpt>
      <trkpt lat="45.92602" lon="5.01029">
        <ele>288</ele>
        <time>2018-10-20T09:50:31Z</time>
      </trkpt>
      <trkpt lat="45.92598" lon="5.01032">
        <ele>288</ele>
        <time>2018-10-20T09:50:32Z</time>
      </trkpt>
      <trkpt lat="45.92592" lon="5.01037">
        <ele>288</ele>
        <time>2018-10-20T09:50:33Z</time>
      </trkpt>
      <trkpt lat="45.9259" lon="5.01037">
        <ele>288</ele>
        <time>2018-10-20T09:50:34Z</time>
      </trkpt>
      <trkpt lat="45.92583" lon="5.0104">
        <ele>288</ele>
        <time>2018-10-20T09:50:35Z</time>
      </trkpt>
      <trkpt lat="45.9258" lon="5.01043">
        <ele>288</ele>
        <time>2018-10-20T09:50:36Z</time>
      </trkpt>
      <trkpt lat="45.92573" lon="5.01044">
        <ele>288</ele>
        <time>2018-10-20T09:50:37Z</time>
      </trkpt>
      <trkpt lat="45.92565" lon="5.01047">
        <ele>288</ele>
        <time>2018-10-20T09:50:39Z</time>
      </trkpt>
      <trkpt lat="45.9256" lon="5.0105">
        <ele>288</ele>
        <time>2018-10-20T09:50:40Z</time>
      </trkpt>
      <trkpt lat="45.92554" lon="5.01056">
        <ele>288</ele>
        <time>2018-10-20T09:50:42Z</time>
      </trkpt>
      <trkpt lat="45.9255" lon="5.01054">
        <ele>288</ele>
        <time>2018-10-20T09:50:43Z</time>
      </trkpt>
      <trkpt lat="45.92545" lon="5.01055">
        <ele>288</ele>
        <time>2018-10-20T09:50:44Z</time>
      </trkpt>
      <trkpt lat="45.9254" lon="5.01055">
        <ele>288</ele>
        <time>2018-10-20T09:50:45Z</time>
      </trkpt>
      <trkpt lat="45.92533" lon="5.01059">
        <ele>288</ele>
        <time>2018-10-20T09:50:47Z</time>
      </trkpt>
      <trkpt lat="45.92529" lon="5.01059">
        <ele>288</ele>
        <time>2018-10-20T09:50:48Z</time>
      </trkpt>
      <trkpt lat="45.92521" lon="5.01063">
        <ele>288</ele>
        <time>2018-10-20T09:50:50Z</time>
      </trkpt>
      <trkpt lat="45.92517" lon="5.01064">
        <ele>288</ele>
        <time>2018-10-20T09:50:51Z</time>
      </trkpt>
      <trkpt lat="45.92508" lon="5.01066">
        <ele>288</ele>
        <time>2018-10-20T09:50:53Z</time>
      </trkpt>
      <trkpt lat="45.92503" lon="5.01066">
        <ele>288</ele>
        <time>2018-10-20T09:50:54Z</time>
      </trkpt>
      <trkpt lat="45.92494" lon="5.01066">
        <ele>288</ele>
        <time>2018-10-20T09:50:56Z</time>
      </trkpt>
      <trkpt lat="45.9249" lon="5.01066">
        <ele>288</ele>
        <time>2018-10-20T09:50:57Z</time>
      </trkpt>
      <trkpt lat="45.92481" lon="5.01065">
        <ele>288</ele>
        <time>2018-10-20T09:50:59Z</time>
      </trkpt>
      <trkpt lat="45.92476" lon="5.01066">
        <ele>288</ele>
        <time>2018-10-20T09:51:00Z</time>
      </trkpt>
      <trkpt lat="45.92467" lon="5.01066">
        <ele>288</ele>
        <time>2018-10-20T09:51:02Z</time>
      </trkpt>
      <trkpt lat="45.92464" lon="5.01066">
        <ele>288</ele>
        <time>2018-10-20T09:51:03Z</time>
      </trkpt>
      <trkpt lat="45.92459" lon="5.01067">
        <ele>288</ele>
        <time>2018-10-20T09:51:04Z</time>
      </trkpt>
      <trkpt lat="45.92454" lon="5.01068">
        <ele>288</ele>
        <time>2018-10-20T09:51:05Z</time>
      </trkpt>
      <trkpt lat="45.92449" lon="5.01068">
        <ele>288</ele>
        <time>2018-10-20T09:51:06Z</time>
      </trkpt>
      <trkpt lat="45.92444" lon="5.01068">
        <ele>288</ele>
        <time>2018-10-20T09:51:07Z</time>
      </trkpt>
      <trkpt lat="45.92437" lon="5.01071">
        <ele>289</ele>
        <time>2018-10-20T09:51:09Z</time>
      </trkpt>
      <trkpt lat="45.92434" lon="5.01073">
        <ele>289</ele>
        <time>2018-10-20T09:51:10Z</time>
      </trkpt>
      <trkpt lat="45.9243" lon="5.01074">
        <ele>289</ele>
        <time>2018-10-20T09:51:11Z</time>
      </trkpt>
      <trkpt lat="45.92424" lon="5.01072">
        <ele>289</ele>
        <time>2018-10-20T09:51:12Z</time>
      </trkpt>
      <trkpt lat="45.92419" lon="5.01071">
        <ele>289</ele>
        <time>2018-10-20T09:51:13Z</time>
      </trkpt>
      <trkpt lat="45.92414" lon="5.01074">
        <ele>288</ele>
        <time>2018-10-20T09:51:14Z</time>
      </trkpt>
      <trkpt lat="45.92409" lon="5.01077">
        <ele>288</ele>
        <time>2018-10-20T09:51:15Z</time>
      </trkpt>
      <trkpt lat="45.92406" lon="5.0108">
        <ele>288</ele>
        <time>2018-10-20T09:51:16Z</time>
      </trkpt>
      <trkpt lat="45.92402" lon="5.01083">
        <ele>288</ele>
        <time>2018-10-20T09:51:17Z</time>
      </trkpt>
      <trkpt lat="45.92398" lon="5.01088">
        <ele>288</ele>
        <time>2018-10-20T09:51:18Z</time>
      </trkpt>
      <trkpt lat="45.92391" lon="5.01095">
        <ele>288</ele>
        <time>2018-10-20T09:51:21Z</time>
      </trkpt>
      <trkpt lat="45.92389" lon="5.01096">
        <ele>288</ele>
        <time>2018-10-20T09:51:22Z</time>
      </trkpt>
      <trkpt lat="45.9238" lon="5.01101">
        <ele>288</ele>
        <time>2018-10-20T09:51:30Z</time>
      </trkpt>
      <trkpt lat="45.92379" lon="5.01102">
        <ele>288</ele>
        <time>2018-10-20T09:51:31Z</time>
      </trkpt>
      <trkpt lat="45.92373" lon="5.01108">
        <ele>288</ele>
        <time>2018-10-20T09:51:35Z</time>
      </trkpt>
      <trkpt lat="45.92368" lon="5.01113">
        <ele>288</ele>
        <time>2018-10-20T09:51:36Z</time>
      </trkpt>
      <trkpt lat="45.92361" lon="5.01119">
        <ele>288</ele>
        <time>2018-10-20T09:51:38Z</time>
      </trkpt>
      <trkpt lat="45.92356" lon="5.01121">
        <ele>288</ele>
        <time>2018-10-20T09:51:39Z</time>
      </trkpt>
      <trkpt lat="45.92351" lon="5.01123">
        <ele>288</ele>
        <time>2018-10-20T09:51:40Z</time>
      </trkpt>
      <trkpt lat="45.92346" lon="5.01125">
        <ele>288</ele>
        <time>2018-10-20T09:51:41Z</time>
      </trkpt>
      <trkpt lat="45.9234" lon="5.01127">
        <ele>288</ele>
        <time>2018-10-20T09:51:42Z</time>
      </trkpt>
      <trkpt lat="45.92335" lon="5.01129">
        <ele>288</ele>
        <time>2018-10-20T09:51:43Z</time>
      </trkpt>
      <trkpt lat="45.92329" lon="5.01131">
        <ele>286</ele>
        <time>2018-10-20T09:51:44Z</time>
      </trkpt>
      <trkpt lat="45.92324" lon="5.01134">
        <ele>286</ele>
        <time>2018-10-20T09:51:45Z</time>
      </trkpt>
      <trkpt lat="45.92319" lon="5.01136">
        <ele>286</ele>
        <time>2018-10-20T09:51:46Z</time>
      </trkpt>
      <trkpt lat="45.92313" lon="5.01138">
        <ele>286</ele>
        <time>2018-10-20T09:51:47Z</time>
      </trkpt>
      <trkpt lat="45.92307" lon="5.01141">
        <ele>286</ele>
        <time>2018-10-20T09:51:48Z</time>
      </trkpt>
      <trkpt lat="45.92301" lon="5.01143">
        <ele>286</ele>
        <time>2018-10-20T09:51:49Z</time>
      </trkpt>
      <trkpt lat="45.92295" lon="5.01146">
        <ele>286</ele>
        <time>2018-10-20T09:51:50Z</time>
      </trkpt>
      <trkpt lat="45.92289" lon="5.01149">
        <ele>286</ele>
        <time>2018-10-20T09:51:51Z</time>
      </trkpt>
      <trkpt lat="45.92283" lon="5.0115">
        <ele>286</ele>
        <time>2018-10-20T09:51:52Z</time>
      </trkpt>
      <trkpt lat="45.92277" lon="5.01154">
        <ele>286</ele>
        <time>2018-10-20T09:51:53Z</time>
      </trkpt>
      <trkpt lat="45.92271" lon="5.01156">
        <ele>286</ele>
        <time>2018-10-20T09:51:54Z</time>
      </trkpt>
      <trkpt lat="45.92265" lon="5.01158">
        <ele>286</ele>
        <time>2018-10-20T09:51:55Z</time>
      </trkpt>
      <trkpt lat="45.92258" lon="5.01159">
        <ele>285</ele>
        <time>2018-10-20T09:51:56Z</time>
      </trkpt>
      <trkpt lat="45.92251" lon="5.01162">
        <ele>285</ele>
        <time>2018-10-20T09:51:57Z</time>
      </trkpt>
      <trkpt lat="45.92244" lon="5.01163">
        <ele>285</ele>
        <time>2018-10-20T09:51:58Z</time>
      </trkpt>
      <trkpt lat="45.92238" lon="5.01163">
        <ele>284</ele>
        <time>2018-10-20T09:51:59Z</time>
      </trkpt>
      <trkpt lat="45.92231" lon="5.01164">
        <ele>284</ele>
        <time>2018-10-20T09:52:00Z</time>
      </trkpt>
      <trkpt lat="45.92225" lon="5.01165">
        <ele>284</ele>
        <time>2018-10-20T09:52:01Z</time>
      </trkpt>
      <trkpt lat="45.92219" lon="5.01165">
        <ele>284</ele>
        <time>2018-10-20T09:52:02Z</time>
      </trkpt>
      <trkpt lat="45.92212" lon="5.01165">
        <ele>284</ele>
        <time>2018-10-20T09:52:03Z</time>
      </trkpt>
      <trkpt lat="45.92206" lon="5.01164">
        <ele>283</ele>
        <time>2018-10-20T09:52:04Z</time>
      </trkpt>
      <trkpt lat="45.922" lon="5.01164">
        <ele>283</ele>
        <time>2018-10-20T09:52:05Z</time>
      </trkpt>
      <trkpt lat="45.92195" lon="5.01164">
        <ele>283</ele>
        <time>2018-10-20T09:52:06Z</time>
      </trkpt>
      <trkpt lat="45.92191" lon="5.01165">
        <ele>283</ele>
        <time>2018-10-20T09:52:07Z</time>
      </trkpt>
      <trkpt lat="45.92184" lon="5.01167">
        <ele>283</ele>
        <time>2018-10-20T09:52:08Z</time>
      </trkpt>
      <trkpt lat="45.92178" lon="5.01169">
        <ele>283</ele>
        <time>2018-10-20T09:52:09Z</time>
      </trkpt>
      <trkpt lat="45.92173" lon="5.01171">
        <ele>282</ele>
        <time>2018-10-20T09:52:10Z</time>
      </trkpt>
      <trkpt lat="45.92169" lon="5.01172">
        <ele>282</ele>
        <time>2018-10-20T09:52:11Z</time>
      </trkpt>
      <trkpt lat="45.92163" lon="5.01176">
        <ele>282</ele>
        <time>2018-10-20T09:52:12Z</time>
      </trkpt>
      <trkpt lat="45.92158" lon="5.0118">
        <ele>282</ele>
        <time>2018-10-20T09:52:13Z</time>
      </trkpt>
      <trkpt lat="45.92153" lon="5.01183">
        <ele>282</ele>
        <time>2018-10-20T09:52:14Z</time>
      </trkpt>
      <trkpt lat="45.92147" lon="5.01188">
        <ele>282</ele>
        <time>2018-10-20T09:52:15Z</time>
      </trkpt>
      <trkpt lat="45.92143" lon="5.01192">
        <ele>282</ele>
        <time>2018-10-20T09:52:16Z</time>
      </trkpt>
      <trkpt lat="45.92138" lon="5.01195">
        <ele>282</ele>
        <time>2018-10-20T09:52:17Z</time>
      </trkpt>
      <trkpt lat="45.92132" lon="5.01198">
        <ele>282</ele>
        <time>2018-10-20T09:52:18Z</time>
      </trkpt>
      <trkpt lat="45.92129" lon="5.01203">
        <ele>282</ele>
        <time>2018-10-20T09:52:19Z</time>
      </trkpt>
      <trkpt lat="45.92124" lon="5.01207">
        <ele>282</ele>
        <time>2018-10-20T09:52:20Z</time>
      </trkpt>
      <trkpt lat="45.9212" lon="5.0121">
        <ele>282</ele>
        <time>2018-10-20T09:52:21Z</time>
      </trkpt>
      <trkpt lat="45.92116" lon="5.01215">
        <ele>282</ele>
        <time>2018-10-20T09:52:22Z</time>
      </trkpt>
      <trkpt lat="45.92112" lon="5.01219">
        <ele>282</ele>
        <time>2018-10-20T09:52:23Z</time>
      </trkpt>
      <trkpt lat="45.92108" lon="5.01223">
        <ele>282</ele>
        <time>2018-10-20T09:52:24Z</time>
      </trkpt>
      <trkpt lat="45.92104" lon="5.01225">
        <ele>282</ele>
        <time>2018-10-20T09:52:25Z</time>
      </trkpt>
      <trkpt lat="45.92099" lon="5.01228">
        <ele>282</ele>
        <time>2018-10-20T09:52:26Z</time>
      </trkpt>
      <trkpt lat="45.92094" lon="5.0123">
        <ele>282</ele>
        <time>2018-10-20T09:52:27Z</time>
      </trkpt>
      <trkpt lat="45.92086" lon="5.01236">
        <ele>282</ele>
        <time>2018-10-20T09:52:29Z</time>
      </trkpt>
      <trkpt lat="45.92082" lon="5.01238">
        <ele>282</ele>
        <time>2018-10-20T09:52:30Z</time>
      </trkpt>
      <trkpt lat="45.92075" lon="5.01244">
        <ele>282</ele>
        <time>2018-10-20T09:52:32Z</time>
      </trkpt>
      <trkpt lat="45.92072" lon="5.01245">
        <ele>283</ele>
        <time>2018-10-20T09:52:33Z</time>
      </trkpt>
      <trkpt lat="45.92064" lon="5.0125">
        <ele>283</ele>
        <time>2018-10-20T09:52:37Z</time>
      </trkpt>
      <trkpt lat="45.92063" lon="5.01251">
        <ele>283</ele>
        <time>2018-10-20T09:52:38Z</time>
      </trkpt>
      <trkpt lat="45.92056" lon="5.01243">
        <ele>283</ele>
        <time>2018-10-20T09:53:20Z</time>
      </trkpt>
      <trkpt lat="45.92056" lon="5.01241">
        <ele>283</ele>
        <time>2018-10-20T09:53:21Z</time>
      </trkpt>
      <trkpt lat="45.92056" lon="5.01233">
        <ele>283</ele>
        <time>2018-10-20T09:53:50Z</time>
      </trkpt>
      <trkpt lat="45.92056" lon="5.01233">
        <ele>283</ele>
        <time>2018-10-20T09:53:51Z</time>
      </trkpt>
      <trkpt lat="45.92052" lon="5.01231">
        <ele>283</ele>
        <time>2018-10-20T09:54:10Z</time>
      </trkpt>
      <trkpt lat="45.92052" lon="5.01231">
        <ele>283</ele>
        <time>2018-10-20T09:54:11Z</time>
      </trkpt>
      <trkpt lat="45.92053" lon="5.01225">
        <ele>283</ele>
        <time>2018-10-20T09:54:34Z</time>
      </trkpt>
      <trkpt lat="45.92053" lon="5.01225">
        <ele>283</ele>
        <time>2018-10-20T09:54:35Z</time>
      </trkpt>
      <trkpt lat="45.92053" lon="5.01226">
        <ele>283</ele>
        <time>2018-10-20T09:54:37Z</time>
      </trkpt>
      <trkpt lat="45.92053" lon="5.01226">
        <ele>283</ele>
        <time>2018-10-20T09:54:38Z</time>
      </trkpt>
      <trkpt lat="45.92053" lon="5.01226">
        <ele>283</ele>
        <time>2018-10-20T09:54:39Z</time>
      </trkpt>
      <trkpt lat="45.92053" lon="5.01227">
        <ele>283</ele>
        <time>2018-10-20T09:55:15Z</time>
      </trkpt>
      <trkpt lat="45.92053" lon="5.01227">
        <ele>283</ele>
        <time>2018-10-20T09:55:16Z</time>
      </trkpt>
      <trkpt lat="45.92052" lon="5.01224">
        <ele>283</ele>
        <time>2018-10-20T09:56:13Z</time>
      </trkpt>
      <trkpt lat="45.92051" lon="5.01224">
        <ele>283</ele>
        <time>2018-10-20T09:56:14Z</time>
      </trkpt>
      <trkpt lat="45.92051" lon="5.01222">
        <ele>283</ele>
        <time>2018-10-20T09:58:05Z</time>
      </trkpt>
      <trkpt lat="45.92051" lon="5.01222">
        <ele>283</ele>
        <time>2018-10-20T09:58:06Z</time>
      </trkpt>
      <trkpt lat="45.92053" lon="5.01232">
        <ele>283</ele>
        <time>2018-10-20T10:01:31Z</time>
      </trkpt>
      <trkpt lat="45.92053" lon="5.01231">
        <ele>283</ele>
        <time>2018-10-20T10:01:32Z</time>
      </trkpt>
      <trkpt lat="45.92053" lon="5.01232">
        <ele>283</ele>
        <time>2018-10-20T10:03:56Z</time>
      </trkpt>
      <trkpt lat="45.92053" lon="5.01232">
        <ele>283</ele>
        <time>2018-10-20T10:03:57Z</time>
      </trkpt>
      <trkpt lat="45.92056" lon="5.01244">
        <ele>283</ele>
        <time>2018-10-20T10:04:27Z</time>
      </trkpt>
      <trkpt lat="45.92056" lon="5.01244">
        <ele>283</ele>
        <time>2018-10-20T10:04:28Z</time>
      </trkpt>
      <trkpt lat="45.92053" lon="5.01232">
        <ele>283</ele>
        <time>2018-10-20T10:10:56Z</time>
      </trkpt>
      <trkpt lat="45.92053" lon="5.01233">
        <ele>283</ele>
        <time>2018-10-20T10:10:57Z</time>
      </trkpt>
      <trkpt lat="45.92053" lon="5.01233">
        <ele>283</ele>
        <time>2018-10-20T10:10:58Z</time>
      </trkpt>
      <trkpt lat="45.92054" lon="5.01245">
        <ele>283</ele>
        <time>2018-10-20T10:11:29Z</time>
      </trkpt>
      <trkpt lat="45.92055" lon="5.01246">
        <ele>283</ele>
        <time>2018-10-20T10:11:30Z</time>
      </trkpt>
      <trkpt lat="45.92054" lon="5.01256">
        <ele>283</ele>
        <time>2018-10-20T10:11:51Z</time>
      </trkpt>
      <trkpt lat="45.92052" lon="5.01258">
        <ele>283</ele>
        <time>2018-10-20T10:11:52Z</time>
      </trkpt>
      <trkpt lat="45.92046" lon="5.01263">
        <ele>283</ele>
        <time>2018-10-20T10:11:55Z</time>
      </trkpt>
      <trkpt lat="45.92044" lon="5.01264">
        <ele>283</ele>
        <time>2018-10-20T10:11:56Z</time>
      </trkpt>
      <trkpt lat="45.92036" lon="5.01269">
        <ele>283</ele>
        <time>2018-10-20T10:11:59Z</time>
      </trkpt>
      <trkpt lat="45.92032" lon="5.01271">
        <ele>284</ele>
        <time>2018-10-20T10:12:00Z</time>
      </trkpt>
      <trkpt lat="45.92027" lon="5.01276">
        <ele>284</ele>
        <time>2018-10-20T10:12:01Z</time>
      </trkpt>
      <trkpt lat="45.92023" lon="5.01277">
        <ele>284</ele>
        <time>2018-10-20T10:12:02Z</time>
      </trkpt>
      <trkpt lat="45.92015" lon="5.01279">
        <ele>284</ele>
        <time>2018-10-20T10:12:04Z</time>
      </trkpt>
      <trkpt lat="45.92012" lon="5.01279">
        <ele>284</ele>
        <time>2018-10-20T10:12:05Z</time>
      </trkpt>
      <trkpt lat="45.92003" lon="5.01281">
        <ele>284</ele>
        <time>2018-10-20T10:12:07Z</time>
      </trkpt>
      <trkpt lat="45.91999" lon="5.01282">
        <ele>285</ele>
        <time>2018-10-20T10:12:08Z</time>
      </trkpt>
      <trkpt lat="45.91991" lon="5.01284">
        <ele>285</ele>
        <time>2018-10-20T10:12:10Z</time>
      </trkpt>
      <trkpt lat="45.91987" lon="5.01285">
        <ele>285</ele>
        <time>2018-10-20T10:12:11Z</time>
      </trkpt>
      <trkpt lat="45.91979" lon="5.01287">
        <ele>286</ele>
        <time>2018-10-20T10:12:13Z</time>
      </trkpt>
      <trkpt lat="45.91975" lon="5.01288">
        <ele>286</ele>
        <time>2018-10-20T10:12:14Z</time>
      </trkpt>
      <trkpt lat="45.91967" lon="5.01288">
        <ele>286</ele>
        <time>2018-10-20T10:12:16Z</time>
      </trkpt>
      <trkpt lat="45.91964" lon="5.01289">
        <ele>286</ele>
        <time>2018-10-20T10:12:17Z</time>
      </trkpt>
      <trkpt lat="45.91956" lon="5.0129">
        <ele>286</ele>
        <time>2018-10-20T10:12:19Z</time>
      </trkpt>
      <trkpt lat="45.91952" lon="5.0129">
        <ele>286</ele>
        <time>2018-10-20T10:12:20Z</time>
      </trkpt>
      <trkpt lat="45.91946" lon="5.01291">
        <ele>286</ele>
        <time>2018-10-20T10:12:22Z</time>
      </trkpt>
      <trkpt lat="45.91937" lon="5.01296">
        <ele>286</ele>
        <time>2018-10-20T10:12:23Z</time>
      </trkpt>
      <trkpt lat="45.91929" lon="5.01299">
        <ele>286</ele>
        <time>2018-10-20T10:12:25Z</time>
      </trkpt>
      <trkpt lat="45.91925" lon="5.01298">
        <ele>286</ele>
        <time>2018-10-20T10:12:26Z</time>
      </trkpt>
      <trkpt lat="45.91917" lon="5.01296">
        <ele>286</ele>
        <time>2018-10-20T10:12:29Z</time>
      </trkpt>
      <trkpt lat="45.91911" lon="5.01295">
        <ele>286</ele>
        <time>2018-10-20T10:12:30Z</time>
      </trkpt>
      <trkpt lat="45.91907" lon="5.01294">
        <ele>286</ele>
        <time>2018-10-20T10:12:31Z</time>
      </trkpt>
      <trkpt lat="45.91899" lon="5.01297">
        <ele>286</ele>
        <time>2018-10-20T10:12:32Z</time>
      </trkpt>
      <trkpt lat="45.91893" lon="5.01299">
        <ele>286</ele>
        <time>2018-10-20T10:12:33Z</time>
      </trkpt>
      <trkpt lat="45.91888" lon="5.01298">
        <ele>286</ele>
        <time>2018-10-20T10:12:34Z</time>
      </trkpt>
      <trkpt lat="45.91884" lon="5.01299">
        <ele>285</ele>
        <time>2018-10-20T10:12:35Z</time>
      </trkpt>
      <trkpt lat="45.91877" lon="5.013">
        <ele>285</ele>
        <time>2018-10-20T10:12:36Z</time>
      </trkpt>
      <trkpt lat="45.9187" lon="5.013">
        <ele>285</ele>
        <time>2018-10-20T10:12:37Z</time>
      </trkpt>
      <trkpt lat="45.91865" lon="5.013">
        <ele>285</ele>
        <time>2018-10-20T10:12:38Z</time>
      </trkpt>
      <trkpt lat="45.9186" lon="5.01301">
        <ele>285</ele>
        <time>2018-10-20T10:12:39Z</time>
      </trkpt>
      <trkpt lat="45.91854" lon="5.01301">
        <ele>285</ele>
        <time>2018-10-20T10:12:40Z</time>
      </trkpt>
      <trkpt lat="45.91848" lon="5.01304">
        <ele>285</ele>
        <time>2018-10-20T10:12:41Z</time>
      </trkpt>
      <trkpt lat="45.91842" lon="5.01305">
        <ele>284</ele>
        <time>2018-10-20T10:12:42Z</time>
      </trkpt>
      <trkpt lat="45.91836" lon="5.01307">
        <ele>284</ele>
        <time>2018-10-20T10:12:43Z</time>
      </trkpt>
      <trkpt lat="45.9183" lon="5.0131">
        <ele>283</ele>
        <time>2018-10-20T10:12:44Z</time>
      </trkpt>
      <trkpt lat="45.91824" lon="5.01312">
        <ele>283</ele>
        <time>2018-10-20T10:12:45Z</time>
      </trkpt>
      <trkpt lat="45.91819" lon="5.0131">
        <ele>283</ele>
        <time>2018-10-20T10:12:46Z</time>
      </trkpt>
      <trkpt lat="45.91812" lon="5.01311">
        <ele>283</ele>
        <time>2018-10-20T10:12:47Z</time>
      </trkpt>
      <trkpt lat="45.91806" lon="5.0131">
        <ele>283</ele>
        <time>2018-10-20T10:12:48Z</time>
      </trkpt>
      <trkpt lat="45.918" lon="5.01311">
        <ele>283</ele>
        <time>2018-10-20T10:12:49Z</time>
      </trkpt>
      <trkpt lat="45.9179" lon="5.01313">
        <ele>283</ele>
        <time>2018-10-20T10:12:50Z</time>
      </trkpt>
      <trkpt lat="45.91784" lon="5.01319">
        <ele>282</ele>
        <time>2018-10-20T10:12:51Z</time>
      </trkpt>
      <trkpt lat="45.91775" lon="5.0132">
        <ele>282</ele>
        <time>2018-10-20T10:12:52Z</time>
      </trkpt>
      <trkpt lat="45.91772" lon="5.01323">
        <ele>282</ele>
        <time>2018-10-20T10:12:53Z</time>
      </trkpt>
      <trkpt lat="45.91766" lon="5.01324">
        <ele>282</ele>
        <time>2018-10-20T10:12:54Z</time>
      </trkpt>
      <trkpt lat="45.9176" lon="5.01327">
        <ele>282</ele>
        <time>2018-10-20T10:12:55Z</time>
      </trkpt>
      <trkpt lat="45.91754" lon="5.0133">
        <ele>281</ele>
        <time>2018-10-20T10:12:56Z</time>
      </trkpt>
      <trkpt lat="45.91751" lon="5.01333">
        <ele>281</ele>
        <time>2018-10-20T10:12:57Z</time>
      </trkpt>
      <trkpt lat="45.91745" lon="5.01336">
        <ele>281</ele>
        <time>2018-10-20T10:12:58Z</time>
      </trkpt>
      <trkpt lat="45.9174" lon="5.0134">
        <ele>281</ele>
        <time>2018-10-20T10:12:59Z</time>
      </trkpt>
      <trkpt lat="45.91734" lon="5.01344">
        <ele>281</ele>
        <time>2018-10-20T10:13:00Z</time>
      </trkpt>
      <trkpt lat="45.91729" lon="5.01346">
        <ele>281</ele>
        <time>2018-10-20T10:13:01Z</time>
      </trkpt>
      <trkpt lat="45.91723" lon="5.0135">
        <ele>280</ele>
        <time>2018-10-20T10:13:02Z</time>
      </trkpt>
      <trkpt lat="45.91718" lon="5.01352">
        <ele>280</ele>
        <time>2018-10-20T10:13:03Z</time>
      </trkpt>
      <trkpt lat="45.91712" lon="5.01355">
        <ele>280</ele>
        <time>2018-10-20T10:13:04Z</time>
      </trkpt>
      <trkpt lat="45.91706" lon="5.01358">
        <ele>280</ele>
        <time>2018-10-20T10:13:05Z</time>
      </trkpt>
      <trkpt lat="45.91701" lon="5.01362">
        <ele>280</ele>
        <time>2018-10-20T10:13:06Z</time>
      </trkpt>
      <trkpt lat="45.91694" lon="5.01365">
        <ele>280</ele>
        <time>2018-10-20T10:13:07Z</time>
      </trkpt>
      <trkpt lat="45.91687" lon="5.01367">
        <ele>280</ele>
        <time>2018-10-20T10:13:08Z</time>
      </trkpt>
      <trkpt lat="45.91681" lon="5.0137">
        <ele>280</ele>
        <time>2018-10-20T10:13:09Z</time>
      </trkpt>
      <trkpt lat="45.91675" lon="5.01373">
        <ele>280</ele>
        <time>2018-10-20T10:13:10Z</time>
      </trkpt>
      <trkpt lat="45.91668" lon="5.01376">
        <ele>280</ele>
        <time>2018-10-20T10:13:11Z</time>
      </trkpt>
      <trkpt lat="45.91662" lon="5.0138">
        <ele>280</ele>
        <time>2018-10-20T10:13:12Z</time>
      </trkpt>
      <trkpt lat="45.91656" lon="5.01383">
        <ele>280</ele>
        <time>2018-10-20T10:13:13Z</time>
      </trkpt>
      <trkpt lat="45.9165" lon="5.01385">
        <ele>280</ele>
        <time>2018-10-20T10:13:14Z</time>
      </trkpt>
      <trkpt lat="45.91645" lon="5.01388">
        <ele>280</ele>
        <time>2018-10-20T10:13:15Z</time>
      </trkpt>
      <trkpt lat="45.91641" lon="5.01392">
        <ele>280</ele>
        <time>2018-10-20T10:13:16Z</time>
      </trkpt>
      <trkpt lat="45.91635" lon="5.01395">
        <ele>280</ele>
        <time>2018-10-20T10:13:17Z</time>
      </trkpt>
      <trkpt lat="45.91631" lon="5.01399">
        <ele>280</ele>
        <time>2018-10-20T10:13:18Z</time>
      </trkpt>
      <trkpt lat="45.91626" lon="5.01403">
        <ele>280</ele>
        <time>2018-10-20T10:13:19Z</time>
      </trkpt>
      <trkpt lat="45.91621" lon="5.01407">
        <ele>280</ele>
        <time>2018-10-20T10:13:20Z</time>
      </trkpt>
      <trkpt lat="45.91616" lon="5.01414">
        <ele>280</ele>
        <time>2018-10-20T10:13:21Z</time>
      </trkpt>
      <trkpt lat="45.91611" lon="5.0142">
        <ele>280</ele>
        <time>2018-10-20T10:13:22Z</time>
      </trkpt>
      <trkpt lat="45.91607" lon="5.01425">
        <ele>280</ele>
        <time>2018-10-20T10:13:23Z</time>
      </trkpt>
      <trkpt lat="45.91601" lon="5.01431">
        <ele>280</ele>
        <time>2018-10-20T10:13:24Z</time>
      </trkpt>
      <trkpt lat="45.91595" lon="5.01435">
        <ele>280</ele>
        <time>2018-10-20T10:13:25Z</time>
      </trkpt>
      <trkpt lat="45.91589" lon="5.01441">
        <ele>280</ele>
        <time>2018-10-20T10:13:26Z</time>
      </trkpt>
      <trkpt lat="45.91587" lon="5.01451">
        <ele>280</ele>
        <time>2018-10-20T10:13:27Z</time>
      </trkpt>
      <trkpt lat="45.91581" lon="5.01457">
        <ele>282</ele>
        <time>2018-10-20T10:13:28Z</time>
      </trkpt>
      <trkpt lat="45.91576" lon="5.01463">
        <ele>282</ele>
        <time>2018-10-20T10:13:29Z</time>
      </trkpt>
      <trkpt lat="45.9157" lon="5.0147">
        <ele>281</ele>
        <time>2018-10-20T10:13:30Z</time>
      </trkpt>
      <trkpt lat="45.91564" lon="5.01476">
        <ele>282</ele>
        <time>2018-10-20T10:13:31Z</time>
      </trkpt>
      <trkpt lat="45.91558" lon="5.01482">
        <ele>282</ele>
        <time>2018-10-20T10:13:32Z</time>
      </trkpt>
      <trkpt lat="45.91553" lon="5.01487">
        <ele>282</ele>
        <time>2018-10-20T10:13:33Z</time>
      </trkpt>
      <trkpt lat="45.91548" lon="5.01492">
        <ele>282</ele>
        <time>2018-10-20T10:13:34Z</time>
      </trkpt>
      <trkpt lat="45.91541" lon="5.01498">
        <ele>282</ele>
        <time>2018-10-20T10:13:35Z</time>
      </trkpt>
      <trkpt lat="45.91537" lon="5.01502">
        <ele>281</ele>
        <time>2018-10-20T10:13:36Z</time>
      </trkpt>
      <trkpt lat="45.91533" lon="5.01508">
        <ele>281</ele>
        <time>2018-10-20T10:13:37Z</time>
      </trkpt>
      <trkpt lat="45.91527" lon="5.01514">
        <ele>281</ele>
        <time>2018-10-20T10:13:38Z</time>
      </trkpt>
      <trkpt lat="45.91522" lon="5.01518">
        <ele>282</ele>
        <time>2018-10-20T10:13:39Z</time>
      </trkpt>
      <trkpt lat="45.91518" lon="5.01523">
        <ele>282</ele>
        <time>2018-10-20T10:13:40Z</time>
      </trkpt>
      <trkpt lat="45.91514" lon="5.01528">
        <ele>281</ele>
        <time>2018-10-20T10:13:41Z</time>
      </trkpt>
      <trkpt lat="45.9151" lon="5.01533">
        <ele>281</ele>
        <time>2018-10-20T10:13:42Z</time>
      </trkpt>
      <trkpt lat="45.91506" lon="5.01537">
        <ele>281</ele>
        <time>2018-10-20T10:13:43Z</time>
      </trkpt>
      <trkpt lat="45.91501" lon="5.01543">
        <ele>281</ele>
        <time>2018-10-20T10:13:44Z</time>
      </trkpt>
      <trkpt lat="45.91497" lon="5.0155">
        <ele>283</ele>
        <time>2018-10-20T10:13:45Z</time>
      </trkpt>
      <trkpt lat="45.91493" lon="5.01557">
        <ele>283</ele>
        <time>2018-10-20T10:13:46Z</time>
      </trkpt>
      <trkpt lat="45.9149" lon="5.01563">
        <ele>283</ele>
        <time>2018-10-20T10:13:47Z</time>
      </trkpt>
      <trkpt lat="45.91486" lon="5.0157">
        <ele>283</ele>
        <time>2018-10-20T10:13:48Z</time>
      </trkpt>
      <trkpt lat="45.91482" lon="5.01576">
        <ele>283</ele>
        <time>2018-10-20T10:13:49Z</time>
      </trkpt>
      <trkpt lat="45.91478" lon="5.01583">
        <ele>283</ele>
        <time>2018-10-20T10:13:50Z</time>
      </trkpt>
      <trkpt lat="45.91474" lon="5.01589">
        <ele>281</ele>
        <time>2018-10-20T10:13:51Z</time>
      </trkpt>
      <trkpt lat="45.91469" lon="5.01595">
        <ele>281</ele>
        <time>2018-10-20T10:13:52Z</time>
      </trkpt>
      <trkpt lat="45.91464" lon="5.01601">
        <ele>281</ele>
        <time>2018-10-20T10:13:53Z</time>
      </trkpt>
      <trkpt lat="45.91458" lon="5.01607">
        <ele>281</ele>
        <time>2018-10-20T10:13:54Z</time>
      </trkpt>
      <trkpt lat="45.91451" lon="5.0161">
        <ele>281</ele>
        <time>2018-10-20T10:13:55Z</time>
      </trkpt>
      <trkpt lat="45.91447" lon="5.01616">
        <ele>281</ele>
        <time>2018-10-20T10:13:56Z</time>
      </trkpt>
      <trkpt lat="45.9144" lon="5.01618">
        <ele>281</ele>
        <time>2018-10-20T10:13:57Z</time>
      </trkpt>
      <trkpt lat="45.91432" lon="5.01619">
        <ele>281</ele>
        <time>2018-10-20T10:13:58Z</time>
      </trkpt>
      <trkpt lat="45.91425" lon="5.01617">
        <ele>281</ele>
        <time>2018-10-20T10:13:59Z</time>
      </trkpt>
      <trkpt lat="45.91418" lon="5.01616">
        <ele>281</ele>
        <time>2018-10-20T10:14:00Z</time>
      </trkpt>
      <trkpt lat="45.91411" lon="5.01614">
        <ele>280</ele>
        <time>2018-10-20T10:14:01Z</time>
      </trkpt>
      <trkpt lat="45.91404" lon="5.0161">
        <ele>280</ele>
        <time>2018-10-20T10:14:02Z</time>
      </trkpt>
      <trkpt lat="45.91397" lon="5.01607">
        <ele>280</ele>
        <time>2018-10-20T10:14:03Z</time>
      </trkpt>
      <trkpt lat="45.91389" lon="5.01604">
        <ele>280</ele>
        <time>2018-10-20T10:14:04Z</time>
      </trkpt>
      <trkpt lat="45.91382" lon="5.016">
        <ele>279</ele>
        <time>2018-10-20T10:14:05Z</time>
      </trkpt>
      <trkpt lat="45.91374" lon="5.01597">
        <ele>279</ele>
        <time>2018-10-20T10:14:06Z</time>
      </trkpt>
      <trkpt lat="45.91367" lon="5.01594">
        <ele>279</ele>
        <time>2018-10-20T10:14:07Z</time>
      </trkpt>
      <trkpt lat="45.91359" lon="5.01591">
        <ele>279</ele>
        <time>2018-10-20T10:14:08Z</time>
      </trkpt>
      <trkpt lat="45.91351" lon="5.01589">
        <ele>278</ele>
        <time>2018-10-20T10:14:09Z</time>
      </trkpt>
      <trkpt lat="45.91342" lon="5.01588">
        <ele>278</ele>
        <time>2018-10-20T10:14:10Z</time>
      </trkpt>
      <trkpt lat="45.91333" lon="5.01586">
        <ele>278</ele>
        <time>2018-10-20T10:14:11Z</time>
      </trkpt>
      <trkpt lat="45.91326" lon="5.01585">
        <ele>277</ele>
        <time>2018-10-20T10:14:12Z</time>
      </trkpt>
      <trkpt lat="45.91316" lon="5.01584">
        <ele>276</ele>
        <time>2018-10-20T10:14:13Z</time>
      </trkpt>
      <trkpt lat="45.91307" lon="5.01584">
        <ele>276</ele>
        <time>2018-10-20T10:14:14Z</time>
      </trkpt>
      <trkpt lat="45.91298" lon="5.01583">
        <ele>277</ele>
        <time>2018-10-20T10:14:15Z</time>
      </trkpt>
      <trkpt lat="45.91289" lon="5.01582">
        <ele>277</ele>
        <time>2018-10-20T10:14:16Z</time>
      </trkpt>
      <trkpt lat="45.91281" lon="5.01582">
        <ele>276</ele>
        <time>2018-10-20T10:14:17Z</time>
      </trkpt>
      <trkpt lat="45.91272" lon="5.01582">
        <ele>276</ele>
        <time>2018-10-20T10:14:18Z</time>
      </trkpt>
      <trkpt lat="45.91263" lon="5.01583">
        <ele>275</ele>
        <time>2018-10-20T10:14:19Z</time>
      </trkpt>
      <trkpt lat="45.91254" lon="5.01584">
        <ele>274</ele>
        <time>2018-10-20T10:14:20Z</time>
      </trkpt>
      <trkpt lat="45.91246" lon="5.01585">
        <ele>274</ele>
        <time>2018-10-20T10:14:21Z</time>
      </trkpt>
      <trkpt lat="45.91238" lon="5.01588">
        <ele>274</ele>
        <time>2018-10-20T10:14:22Z</time>
      </trkpt>
      <trkpt lat="45.9123" lon="5.01589">
        <ele>273</ele>
        <time>2018-10-20T10:14:23Z</time>
      </trkpt>
      <trkpt lat="45.91224" lon="5.01592">
        <ele>273</ele>
        <time>2018-10-20T10:14:24Z</time>
      </trkpt>
      <trkpt lat="45.91216" lon="5.01594">
        <ele>273</ele>
        <time>2018-10-20T10:14:25Z</time>
      </trkpt>
      <trkpt lat="45.91209" lon="5.01595">
        <ele>273</ele>
        <time>2018-10-20T10:14:26Z</time>
      </trkpt>
      <trkpt lat="45.912" lon="5.01599">
        <ele>273</ele>
        <time>2018-10-20T10:14:27Z</time>
      </trkpt>
      <trkpt lat="45.91192" lon="5.01601">
        <ele>273</ele>
        <time>2018-10-20T10:14:28Z</time>
      </trkpt>
      <trkpt lat="45.91185" lon="5.01602">
        <ele>273</ele>
        <time>2018-10-20T10:14:29Z</time>
      </trkpt>
      <trkpt lat="45.91177" lon="5.01606">
        <ele>273</ele>
        <time>2018-10-20T10:14:30Z</time>
      </trkpt>
      <trkpt lat="45.91169" lon="5.01609">
        <ele>273</ele>
        <time>2018-10-20T10:14:31Z</time>
      </trkpt>
      <trkpt lat="45.91161" lon="5.01615">
        <ele>274</ele>
        <time>2018-10-20T10:14:32Z</time>
      </trkpt>
      <trkpt lat="45.91155" lon="5.01614">
        <ele>274</ele>
        <time>2018-10-20T10:14:33Z</time>
      </trkpt>
      <trkpt lat="45.91149" lon="5.01618">
        <ele>274</ele>
        <time>2018-10-20T10:14:34Z</time>
      </trkpt>
      <trkpt lat="45.91143" lon="5.0162">
        <ele>274</ele>
        <time>2018-10-20T10:14:35Z</time>
      </trkpt>
      <trkpt lat="45.91137" lon="5.01621">
        <ele>274</ele>
        <time>2018-10-20T10:14:36Z</time>
      </trkpt>
      <trkpt lat="45.91134" lon="5.01622">
        <ele>274</ele>
        <time>2018-10-20T10:14:37Z</time>
      </trkpt>
      <trkpt lat="45.91128" lon="5.01624">
        <ele>274</ele>
        <time>2018-10-20T10:14:38Z</time>
      </trkpt>
      <trkpt lat="45.91124" lon="5.01626">
        <ele>274</ele>
        <time>2018-10-20T10:14:39Z</time>
      </trkpt>
      <trkpt lat="45.91118" lon="5.01629">
        <ele>274</ele>
        <time>2018-10-20T10:14:40Z</time>
      </trkpt>
      <trkpt lat="45.91112" lon="5.01633">
        <ele>274</ele>
        <time>2018-10-20T10:14:41Z</time>
      </trkpt>
      <trkpt lat="45.91106" lon="5.01636">
        <ele>274</ele>
        <time>2018-10-20T10:14:42Z</time>
      </trkpt>
      <trkpt lat="45.91099" lon="5.01638">
        <ele>274</ele>
        <time>2018-10-20T10:14:43Z</time>
      </trkpt>
      <trkpt lat="45.91093" lon="5.01641">
        <ele>274</ele>
        <time>2018-10-20T10:14:44Z</time>
      </trkpt>
      <trkpt lat="45.91087" lon="5.01643">
        <ele>274</ele>
        <time>2018-10-20T10:14:45Z</time>
      </trkpt>
      <trkpt lat="45.91082" lon="5.01646">
        <ele>277</ele>
        <time>2018-10-20T10:14:46Z</time>
      </trkpt>
      <trkpt lat="45.91078" lon="5.01648">
        <ele>277</ele>
        <time>2018-10-20T10:14:47Z</time>
      </trkpt>
      <trkpt lat="45.91073" lon="5.0165">
        <ele>277</ele>
        <time>2018-10-20T10:14:48Z</time>
      </trkpt>
      <trkpt lat="45.91067" lon="5.01652">
        <ele>277</ele>
        <time>2018-10-20T10:14:49Z</time>
      </trkpt>
      <trkpt lat="45.91062" lon="5.01654">
        <ele>277</ele>
        <time>2018-10-20T10:14:50Z</time>
      </trkpt>
      <trkpt lat="45.91056" lon="5.01656">
        <ele>277</ele>
        <time>2018-10-20T10:14:51Z</time>
      </trkpt>
      <trkpt lat="45.91051" lon="5.01657">
        <ele>278</ele>
        <time>2018-10-20T10:14:52Z</time>
      </trkpt>
      <trkpt lat="45.91046" lon="5.0166">
        <ele>278</ele>
        <time>2018-10-20T10:14:53Z</time>
      </trkpt>
      <trkpt lat="45.91041" lon="5.01661">
        <ele>278</ele>
        <time>2018-10-20T10:14:54Z</time>
      </trkpt>
      <trkpt lat="45.91036" lon="5.01661">
        <ele>278</ele>
        <time>2018-10-20T10:14:55Z</time>
      </trkpt>
      <trkpt lat="45.91032" lon="5.01662">
        <ele>278</ele>
        <time>2018-10-20T10:14:56Z</time>
      </trkpt>
      <trkpt lat="45.91027" lon="5.01665">
        <ele>278</ele>
        <time>2018-10-20T10:14:57Z</time>
      </trkpt>
      <trkpt lat="45.91023" lon="5.01669">
        <ele>277</ele>
        <time>2018-10-20T10:14:58Z</time>
      </trkpt>
      <trkpt lat="45.91018" lon="5.01671">
        <ele>277</ele>
        <time>2018-10-20T10:14:59Z</time>
      </trkpt>
      <trkpt lat="45.91014" lon="5.01674">
        <ele>277</ele>
        <time>2018-10-20T10:15:00Z</time>
      </trkpt>
      <trkpt lat="45.91009" lon="5.01674">
        <ele>277</ele>
        <time>2018-10-20T10:15:01Z</time>
      </trkpt>
      <trkpt lat="45.91004" lon="5.01675">
        <ele>277</ele>
        <time>2018-10-20T10:15:02Z</time>
      </trkpt>
      <trkpt lat="45.90999" lon="5.01677">
        <ele>278</ele>
        <time>2018-10-20T10:15:03Z</time>
      </trkpt>
      <trkpt lat="45.90994" lon="5.01678">
        <ele>278</ele>
        <time>2018-10-20T10:15:04Z</time>
      </trkpt>
      <trkpt lat="45.9099" lon="5.0168">
        <ele>278</ele>
        <time>2018-10-20T10:15:05Z</time>
      </trkpt>
      <trkpt lat="45.90985" lon="5.01681">
        <ele>278</ele>
        <time>2018-10-20T10:15:06Z</time>
      </trkpt>
      <trkpt lat="45.9098" lon="5.01684">
        <ele>278</ele>
        <time>2018-10-20T10:15:07Z</time>
      </trkpt>
      <trkpt lat="45.90976" lon="5.01685">
        <ele>278</ele>
        <time>2018-10-20T10:15:08Z</time>
      </trkpt>
      <trkpt lat="45.9097" lon="5.01687">
        <ele>278</ele>
        <time>2018-10-20T10:15:09Z</time>
      </trkpt>
      <trkpt lat="45.90962" lon="5.01689">
        <ele>278</ele>
        <time>2018-10-20T10:15:11Z</time>
      </trkpt>
      <trkpt lat="45.90956" lon="5.01689">
        <ele>279</ele>
        <time>2018-10-20T10:15:12Z</time>
      </trkpt>
      <trkpt lat="45.90948" lon="5.01693">
        <ele>279</ele>
        <time>2018-10-20T10:15:14Z</time>
      </trkpt>
      <trkpt lat="45.90943" lon="5.01695">
        <ele>279</ele>
        <time>2018-10-20T10:15:15Z</time>
      </trkpt>
      <trkpt lat="45.90939" lon="5.01696">
        <ele>279</ele>
        <time>2018-10-20T10:15:16Z</time>
      </trkpt>
      <trkpt lat="45.90934" lon="5.01699">
        <ele>279</ele>
        <time>2018-10-20T10:15:17Z</time>
      </trkpt>
      <trkpt lat="45.90929" lon="5.017">
        <ele>279</ele>
        <time>2018-10-20T10:15:18Z</time>
      </trkpt>
      <trkpt lat="45.90924" lon="5.01701">
        <ele>279</ele>
        <time>2018-10-20T10:15:19Z</time>
      </trkpt>
      <trkpt lat="45.90918" lon="5.01701">
        <ele>279</ele>
        <time>2018-10-20T10:15:20Z</time>
      </trkpt>
      <trkpt lat="45.90913" lon="5.01699">
        <ele>279</ele>
        <time>2018-10-20T10:15:21Z</time>
      </trkpt>
      <trkpt lat="45.90908" lon="5.017">
        <ele>279</ele>
        <time>2018-10-20T10:15:22Z</time>
      </trkpt>
      <trkpt lat="45.90903" lon="5.017">
        <ele>279</ele>
        <time>2018-10-20T10:15:23Z</time>
      </trkpt>
      <trkpt lat="45.90897" lon="5.01699">
        <ele>279</ele>
        <time>2018-10-20T10:15:24Z</time>
      </trkpt>
      <trkpt lat="45.90891" lon="5.01698">
        <ele>279</ele>
        <time>2018-10-20T10:15:25Z</time>
      </trkpt>
      <trkpt lat="45.90885" lon="5.01695">
        <ele>280</ele>
        <time>2018-10-20T10:15:26Z</time>
      </trkpt>
      <trkpt lat="45.9088" lon="5.01694">
        <ele>280</ele>
        <time>2018-10-20T10:15:27Z</time>
      </trkpt>
      <trkpt lat="45.90874" lon="5.01694">
        <ele>280</ele>
        <time>2018-10-20T10:15:28Z</time>
      </trkpt>
      <trkpt lat="45.90869" lon="5.01693">
        <ele>280</ele>
        <time>2018-10-20T10:15:29Z</time>
      </trkpt>
      <trkpt lat="45.90864" lon="5.01692">
        <ele>280</ele>
        <time>2018-10-20T10:15:30Z</time>
      </trkpt>
      <trkpt lat="45.90858" lon="5.0169">
        <ele>280</ele>
        <time>2018-10-20T10:15:31Z</time>
      </trkpt>
      <trkpt lat="45.90854" lon="5.01688">
        <ele>280</ele>
        <time>2018-10-20T10:15:32Z</time>
      </trkpt>
      <trkpt lat="45.90849" lon="5.01686">
        <ele>280</ele>
        <time>2018-10-20T10:15:33Z</time>
      </trkpt>
      <trkpt lat="45.90845" lon="5.01684">
        <ele>280</ele>
        <time>2018-10-20T10:15:34Z</time>
      </trkpt>
      <trkpt lat="45.90839" lon="5.01683">
        <ele>280</ele>
        <time>2018-10-20T10:15:35Z</time>
      </trkpt>
      <trkpt lat="45.90834" lon="5.01681">
        <ele>280</ele>
        <time>2018-10-20T10:15:36Z</time>
      </trkpt>
      <trkpt lat="45.9083" lon="5.0168">
        <ele>280</ele>
        <time>2018-10-20T10:15:37Z</time>
      </trkpt>
      <trkpt lat="45.90825" lon="5.01678">
        <ele>280</ele>
        <time>2018-10-20T10:15:38Z</time>
      </trkpt>
      <trkpt lat="45.9082" lon="5.01676">
        <ele>280</ele>
        <time>2018-10-20T10:15:39Z</time>
      </trkpt>
      <trkpt lat="45.90815" lon="5.01674">
        <ele>280</ele>
        <time>2018-10-20T10:15:40Z</time>
      </trkpt>
      <trkpt lat="45.90809" lon="5.01672">
        <ele>280</ele>
        <time>2018-10-20T10:15:41Z</time>
      </trkpt>
      <trkpt lat="45.90803" lon="5.01671">
        <ele>279</ele>
        <time>2018-10-20T10:15:42Z</time>
      </trkpt>
      <trkpt lat="45.90797" lon="5.0167">
        <ele>279</ele>
        <time>2018-10-20T10:15:43Z</time>
      </trkpt>
      <trkpt lat="45.90791" lon="5.01668">
        <ele>279</ele>
        <time>2018-10-20T10:15:44Z</time>
      </trkpt>
      <trkpt lat="45.90784" lon="5.01666">
        <ele>280</ele>
        <time>2018-10-20T10:15:45Z</time>
      </trkpt>
      <trkpt lat="45.90778" lon="5.01664">
        <ele>280</ele>
        <time>2018-10-20T10:15:46Z</time>
      </trkpt>
      <trkpt lat="45.90772" lon="5.01663">
        <ele>280</ele>
        <time>2018-10-20T10:15:47Z</time>
      </trkpt>
      <trkpt lat="45.90766" lon="5.01661">
        <ele>280</ele>
        <time>2018-10-20T10:15:48Z</time>
      </trkpt>
      <trkpt lat="45.90761" lon="5.01659">
        <ele>280</ele>
        <time>2018-10-20T10:15:49Z</time>
      </trkpt>
      <trkpt lat="45.90755" lon="5.01658">
        <ele>280</ele>
        <time>2018-10-20T10:15:50Z</time>
      </trkpt>
      <trkpt lat="45.9075" lon="5.01656">
        <ele>280</ele>
        <time>2018-10-20T10:15:51Z</time>
      </trkpt>
      <trkpt lat="45.90744" lon="5.01653">
        <ele>280</ele>
        <time>2018-10-20T10:15:52Z</time>
      </trkpt>
      <trkpt lat="45.90739" lon="5.01651">
        <ele>280</ele>
        <time>2018-10-20T10:15:53Z</time>
      </trkpt>
      <trkpt lat="45.90734" lon="5.01649">
        <ele>280</ele>
        <time>2018-10-20T10:15:54Z</time>
      </trkpt>
      <trkpt lat="45.90729" lon="5.01648">
        <ele>280</ele>
        <time>2018-10-20T10:15:55Z</time>
      </trkpt>
      <trkpt lat="45.90724" lon="5.01646">
        <ele>280</ele>
        <time>2018-10-20T10:15:56Z</time>
      </trkpt>
      <trkpt lat="45.90719" lon="5.01644">
        <ele>280</ele>
        <time>2018-10-20T10:15:57Z</time>
      </trkpt>
      <trkpt lat="45.90713" lon="5.01643">
        <ele>280</ele>
        <time>2018-10-20T10:15:58Z</time>
      </trkpt>
      <trkpt lat="45.90708" lon="5.0164">
        <ele>280</ele>
        <time>2018-10-20T10:15:59Z</time>
      </trkpt>
      <trkpt lat="45.90703" lon="5.01637">
        <ele>281</ele>
        <time>2018-10-20T10:16:00Z</time>
      </trkpt>
      <trkpt lat="45.90697" lon="5.01634">
        <ele>281</ele>
        <time>2018-10-20T10:16:01Z</time>
      </trkpt>
      <trkpt lat="45.90691" lon="5.01632">
        <ele>281</ele>
        <time>2018-10-20T10:16:02Z</time>
      </trkpt>
      <trkpt lat="45.90685" lon="5.01631">
        <ele>281</ele>
        <time>2018-10-20T10:16:03Z</time>
      </trkpt>
      <trkpt lat="45.9068" lon="5.01629">
        <ele>281</ele>
        <time>2018-10-20T10:16:04Z</time>
      </trkpt>
      <trkpt lat="45.90674" lon="5.01627">
        <ele>281</ele>
        <time>2018-10-20T10:16:05Z</time>
      </trkpt>
      <trkpt lat="45.90669" lon="5.01625">
        <ele>281</ele>
        <time>2018-10-20T10:16:06Z</time>
      </trkpt>
      <trkpt lat="45.90663" lon="5.01623">
        <ele>283</ele>
        <time>2018-10-20T10:16:07Z</time>
      </trkpt>
      <trkpt lat="45.90658" lon="5.01622">
        <ele>283</ele>
        <time>2018-10-20T10:16:08Z</time>
      </trkpt>
      <trkpt lat="45.90653" lon="5.01619">
        <ele>283</ele>
        <time>2018-10-20T10:16:09Z</time>
      </trkpt>
      <trkpt lat="45.90649" lon="5.01618">
        <ele>283</ele>
        <time>2018-10-20T10:16:10Z</time>
      </trkpt>
      <trkpt lat="45.90644" lon="5.01616">
        <ele>283</ele>
        <time>2018-10-20T10:16:11Z</time>
      </trkpt>
      <trkpt lat="45.90639" lon="5.01614">
        <ele>283</ele>
        <time>2018-10-20T10:16:12Z</time>
      </trkpt>
      <trkpt lat="45.90634" lon="5.01613">
        <ele>283</ele>
        <time>2018-10-20T10:16:13Z</time>
      </trkpt>
      <trkpt lat="45.90629" lon="5.01611">
        <ele>283</ele>
        <time>2018-10-20T10:16:14Z</time>
      </trkpt>
      <trkpt lat="45.90624" lon="5.01609">
        <ele>283</ele>
        <time>2018-10-20T10:16:15Z</time>
      </trkpt>
      <trkpt lat="45.90619" lon="5.01607">
        <ele>283</ele>
        <time>2018-10-20T10:16:16Z</time>
      </trkpt>
      <trkpt lat="45.90614" lon="5.01604">
        <ele>283</ele>
        <time>2018-10-20T10:16:17Z</time>
      </trkpt>
      <trkpt lat="45.90609" lon="5.01603">
        <ele>283</ele>
        <time>2018-10-20T10:16:18Z</time>
      </trkpt>
      <trkpt lat="45.90605" lon="5.01602">
        <ele>284</ele>
        <time>2018-10-20T10:16:19Z</time>
      </trkpt>
      <trkpt lat="45.906" lon="5.016">
        <ele>284</ele>
        <time>2018-10-20T10:16:20Z</time>
      </trkpt>
      <trkpt lat="45.90594" lon="5.01599">
        <ele>284</ele>
        <time>2018-10-20T10:16:21Z</time>
      </trkpt>
      <trkpt lat="45.9059" lon="5.01597">
        <ele>284</ele>
        <time>2018-10-20T10:16:22Z</time>
      </trkpt>
      <trkpt lat="45.90585" lon="5.01596">
        <ele>284</ele>
        <time>2018-10-20T10:16:23Z</time>
      </trkpt>
      <trkpt lat="45.90576" lon="5.01594">
        <ele>285</ele>
        <time>2018-10-20T10:16:25Z</time>
      </trkpt>
      <trkpt lat="45.90572" lon="5.01593">
        <ele>285</ele>
        <time>2018-10-20T10:16:26Z</time>
      </trkpt>
      <trkpt lat="45.90564" lon="5.01592">
        <ele>285</ele>
        <time>2018-10-20T10:16:28Z</time>
      </trkpt>
      <trkpt lat="45.9056" lon="5.01592">
        <ele>285</ele>
        <time>2018-10-20T10:16:29Z</time>
      </trkpt>
      <trkpt lat="45.90555" lon="5.0159">
        <ele>285</ele>
        <time>2018-10-20T10:16:30Z</time>
      </trkpt>
      <trkpt lat="45.9055" lon="5.0159">
        <ele>285</ele>
        <time>2018-10-20T10:16:31Z</time>
      </trkpt>
      <trkpt lat="45.90543" lon="5.01589">
        <ele>285</ele>
        <time>2018-10-20T10:16:33Z</time>
      </trkpt>
      <trkpt lat="45.90538" lon="5.01588">
        <ele>285</ele>
        <time>2018-10-20T10:16:34Z</time>
      </trkpt>
      <trkpt lat="45.90533" lon="5.01587">
        <ele>285</ele>
        <time>2018-10-20T10:16:35Z</time>
      </trkpt>
      <trkpt lat="45.90529" lon="5.01587">
        <ele>285</ele>
        <time>2018-10-20T10:16:36Z</time>
      </trkpt>
      <trkpt lat="45.90524" lon="5.01587">
        <ele>285</ele>
        <time>2018-10-20T10:16:37Z</time>
      </trkpt>
      <trkpt lat="45.90519" lon="5.01587">
        <ele>285</ele>
        <time>2018-10-20T10:16:38Z</time>
      </trkpt>
      <trkpt lat="45.90513" lon="5.01588">
        <ele>285</ele>
        <time>2018-10-20T10:16:39Z</time>
      </trkpt>
      <trkpt lat="45.90509" lon="5.01588">
        <ele>285</ele>
        <time>2018-10-20T10:16:40Z</time>
      </trkpt>
      <trkpt lat="45.90504" lon="5.01588">
        <ele>285</ele>
        <time>2018-10-20T10:16:41Z</time>
      </trkpt>
      <trkpt lat="45.90499" lon="5.01589">
        <ele>285</ele>
        <time>2018-10-20T10:16:42Z</time>
      </trkpt>
      <trkpt lat="45.90494" lon="5.01591">
        <ele>285</ele>
        <time>2018-10-20T10:16:43Z</time>
      </trkpt>
      <trkpt lat="45.9049" lon="5.01592">
        <ele>285</ele>
        <time>2018-10-20T10:16:44Z</time>
      </trkpt>
      <trkpt lat="45.90482" lon="5.01595">
        <ele>285</ele>
        <time>2018-10-20T10:16:46Z</time>
      </trkpt>
      <trkpt lat="45.90481" lon="5.01596">
        <ele>285</ele>
        <time>2018-10-20T10:16:47Z</time>
      </trkpt>
      <trkpt lat="45.90474" lon="5.0159">
        <ele>285</ele>
        <time>2018-10-20T10:16:51Z</time>
      </trkpt>
      <trkpt lat="45.90471" lon="5.01581">
        <ele>284</ele>
        <time>2018-10-20T10:16:52Z</time>
      </trkpt>
      <trkpt lat="45.90471" lon="5.01575">
        <ele>284</ele>
        <time>2018-10-20T10:16:53Z</time>
      </trkpt>
      <trkpt lat="45.90471" lon="5.01568">
        <ele>283</ele>
        <time>2018-10-20T10:16:54Z</time>
      </trkpt>
      <trkpt lat="45.90472" lon="5.0156">
        <ele>283</ele>
        <time>2018-10-20T10:16:55Z</time>
      </trkpt>
      <trkpt lat="45.90473" lon="5.01552">
        <ele>283</ele>
        <time>2018-10-20T10:16:56Z</time>
      </trkpt>
      <trkpt lat="45.90473" lon="5.01545">
        <ele>283</ele>
        <time>2018-10-20T10:16:57Z</time>
      </trkpt>
      <trkpt lat="45.90473" lon="5.01536">
        <ele>283</ele>
        <time>2018-10-20T10:16:58Z</time>
      </trkpt>
      <trkpt lat="45.90471" lon="5.01528">
        <ele>283</ele>
        <time>2018-10-20T10:16:59Z</time>
      </trkpt>
      <trkpt lat="45.90471" lon="5.01519">
        <ele>283</ele>
        <time>2018-10-20T10:17:00Z</time>
      </trkpt>
      <trkpt lat="45.90471" lon="5.01511">
        <ele>283</ele>
        <time>2018-10-20T10:17:01Z</time>
      </trkpt>
      <trkpt lat="45.90469" lon="5.01504">
        <ele>283</ele>
        <time>2018-10-20T10:17:02Z</time>
      </trkpt>
      <trkpt lat="45.90468" lon="5.01491">
        <ele>282</ele>
        <time>2018-10-20T10:17:04Z</time>
      </trkpt>
      <trkpt lat="45.90467" lon="5.01482">
        <ele>282</ele>
        <time>2018-10-20T10:17:05Z</time>
      </trkpt>
      <trkpt lat="45.90466" lon="5.01474">
        <ele>282</ele>
        <time>2018-10-20T10:17:06Z</time>
      </trkpt>
      <trkpt lat="45.90465" lon="5.01466">
        <ele>282</ele>
        <time>2018-10-20T10:17:07Z</time>
      </trkpt>
      <trkpt lat="45.90463" lon="5.01458">
        <ele>282</ele>
        <time>2018-10-20T10:17:08Z</time>
      </trkpt>
      <trkpt lat="45.90463" lon="5.0145">
        <ele>282</ele>
        <time>2018-10-20T10:17:09Z</time>
      </trkpt>
      <trkpt lat="45.90462" lon="5.01442">
        <ele>282</ele>
        <time>2018-10-20T10:17:10Z</time>
      </trkpt>
      <trkpt lat="45.90462" lon="5.01432">
        <ele>282</ele>
        <time>2018-10-20T10:17:11Z</time>
      </trkpt>
      <trkpt lat="45.90462" lon="5.01421">
        <ele>282</ele>
        <time>2018-10-20T10:17:12Z</time>
      </trkpt>
      <trkpt lat="45.90462" lon="5.01411">
        <ele>281</ele>
        <time>2018-10-20T10:17:13Z</time>
      </trkpt>
      <trkpt lat="45.9046" lon="5.01401">
        <ele>281</ele>
        <time>2018-10-20T10:17:14Z</time>
      </trkpt>
      <trkpt lat="45.90459" lon="5.01394">
        <ele>281</ele>
        <time>2018-10-20T10:17:15Z</time>
      </trkpt>
      <trkpt lat="45.90459" lon="5.01384">
        <ele>281</ele>
        <time>2018-10-20T10:17:16Z</time>
      </trkpt>
      <trkpt lat="45.90458" lon="5.01376">
        <ele>281</ele>
        <time>2018-10-20T10:17:17Z</time>
      </trkpt>
      <trkpt lat="45.90457" lon="5.01369">
        <ele>281</ele>
        <time>2018-10-20T10:17:18Z</time>
      </trkpt>
      <trkpt lat="45.90456" lon="5.0136">
        <ele>281</ele>
        <time>2018-10-20T10:17:19Z</time>
      </trkpt>
      <trkpt lat="45.90456" lon="5.01352">
        <ele>281</ele>
        <time>2018-10-20T10:17:20Z</time>
      </trkpt>
      <trkpt lat="45.90455" lon="5.01344">
        <ele>281</ele>
        <time>2018-10-20T10:17:21Z</time>
      </trkpt>
      <trkpt lat="45.90454" lon="5.01336">
        <ele>281</ele>
        <time>2018-10-20T10:17:22Z</time>
      </trkpt>
      <trkpt lat="45.90454" lon="5.01328">
        <ele>281</ele>
        <time>2018-10-20T10:17:23Z</time>
      </trkpt>
      <trkpt lat="45.90453" lon="5.0132">
        <ele>281</ele>
        <time>2018-10-20T10:17:24Z</time>
      </trkpt>
      <trkpt lat="45.90452" lon="5.01312">
        <ele>281</ele>
        <time>2018-10-20T10:17:25Z</time>
      </trkpt>
      <trkpt lat="45.90451" lon="5.01304">
        <ele>281</ele>
        <time>2018-10-20T10:17:26Z</time>
      </trkpt>
      <trkpt lat="45.9045" lon="5.01295">
        <ele>281</ele>
        <time>2018-10-20T10:17:27Z</time>
      </trkpt>
      <trkpt lat="45.90451" lon="5.01287">
        <ele>281</ele>
        <time>2018-10-20T10:17:28Z</time>
      </trkpt>
      <trkpt lat="45.90449" lon="5.01278">
        <ele>281</ele>
        <time>2018-10-20T10:17:29Z</time>
      </trkpt>
      <trkpt lat="45.90448" lon="5.0127">
        <ele>281</ele>
        <time>2018-10-20T10:17:30Z</time>
      </trkpt>
      <trkpt lat="45.90447" lon="5.01262">
        <ele>281</ele>
        <time>2018-10-20T10:17:31Z</time>
      </trkpt>
      <trkpt lat="45.90445" lon="5.01255">
        <ele>281</ele>
        <time>2018-10-20T10:17:32Z</time>
      </trkpt>
      <trkpt lat="45.90446" lon="5.01247">
        <ele>281</ele>
        <time>2018-10-20T10:17:33Z</time>
      </trkpt>
      <trkpt lat="45.90445" lon="5.01238">
        <ele>281</ele>
        <time>2018-10-20T10:17:34Z</time>
      </trkpt>
      <trkpt lat="45.90446" lon="5.0123">
        <ele>281</ele>
        <time>2018-10-20T10:17:35Z</time>
      </trkpt>
      <trkpt lat="45.90445" lon="5.01223">
        <ele>281</ele>
        <time>2018-10-20T10:17:36Z</time>
      </trkpt>
      <trkpt lat="45.90445" lon="5.01215">
        <ele>281</ele>
        <time>2018-10-20T10:17:37Z</time>
      </trkpt>
      <trkpt lat="45.90443" lon="5.01206">
        <ele>281</ele>
        <time>2018-10-20T10:17:38Z</time>
      </trkpt>
      <trkpt lat="45.90442" lon="5.01199">
        <ele>281</ele>
        <time>2018-10-20T10:17:39Z</time>
      </trkpt>
      <trkpt lat="45.90443" lon="5.01187">
        <ele>281</ele>
        <time>2018-10-20T10:17:41Z</time>
      </trkpt>
      <trkpt lat="45.90441" lon="5.0118">
        <ele>282</ele>
        <time>2018-10-20T10:17:42Z</time>
      </trkpt>
      <trkpt lat="45.90442" lon="5.01173">
        <ele>282</ele>
        <time>2018-10-20T10:17:43Z</time>
      </trkpt>
      <trkpt lat="45.90443" lon="5.01167">
        <ele>282</ele>
        <time>2018-10-20T10:17:44Z</time>
      </trkpt>
      <trkpt lat="45.90442" lon="5.0116">
        <ele>282</ele>
        <time>2018-10-20T10:17:45Z</time>
      </trkpt>
      <trkpt lat="45.90441" lon="5.01152">
        <ele>282</ele>
        <time>2018-10-20T10:17:46Z</time>
      </trkpt>
      <trkpt lat="45.90441" lon="5.01145">
        <ele>281</ele>
        <time>2018-10-20T10:17:47Z</time>
      </trkpt>
      <trkpt lat="45.9044" lon="5.01136">
        <ele>281</ele>
        <time>2018-10-20T10:17:48Z</time>
      </trkpt>
      <trkpt lat="45.90439" lon="5.01128">
        <ele>281</ele>
        <time>2018-10-20T10:17:49Z</time>
      </trkpt>
      <trkpt lat="45.90438" lon="5.01119">
        <ele>281</ele>
        <time>2018-10-20T10:17:50Z</time>
      </trkpt>
      <trkpt lat="45.90437" lon="5.01111">
        <ele>282</ele>
        <time>2018-10-20T10:17:51Z</time>
      </trkpt>
      <trkpt lat="45.90436" lon="5.01102">
        <ele>282</ele>
        <time>2018-10-20T10:17:52Z</time>
      </trkpt>
      <trkpt lat="45.90434" lon="5.01093">
        <ele>282</ele>
        <time>2018-10-20T10:17:53Z</time>
      </trkpt>
      <trkpt lat="45.90434" lon="5.01084">
        <ele>282</ele>
        <time>2018-10-20T10:17:54Z</time>
      </trkpt>
      <trkpt lat="45.90433" lon="5.01074">
        <ele>282</ele>
        <time>2018-10-20T10:17:55Z</time>
      </trkpt>
      <trkpt lat="45.90431" lon="5.01066">
        <ele>282</ele>
        <time>2018-10-20T10:17:56Z</time>
      </trkpt>
      <trkpt lat="45.90431" lon="5.01057">
        <ele>282</ele>
        <time>2018-10-20T10:17:57Z</time>
      </trkpt>
      <trkpt lat="45.90428" lon="5.0105">
        <ele>282</ele>
        <time>2018-10-20T10:17:58Z</time>
      </trkpt>
      <trkpt lat="45.90428" lon="5.01041">
        <ele>282</ele>
        <time>2018-10-20T10:17:59Z</time>
      </trkpt>
      <trkpt lat="45.90427" lon="5.01033">
        <ele>282</ele>
        <time>2018-10-20T10:18:00Z</time>
      </trkpt>
      <trkpt lat="45.90426" lon="5.01026">
        <ele>282</ele>
        <time>2018-10-20T10:18:01Z</time>
      </trkpt>
      <trkpt lat="45.90426" lon="5.01018">
        <ele>282</ele>
        <time>2018-10-20T10:18:02Z</time>
      </trkpt>
      <trkpt lat="45.90426" lon="5.01011">
        <ele>282</ele>
        <time>2018-10-20T10:18:03Z</time>
      </trkpt>
      <trkpt lat="45.90426" lon="5.01003">
        <ele>282</ele>
        <time>2018-10-20T10:18:04Z</time>
      </trkpt>
      <trkpt lat="45.90425" lon="5.00995">
        <ele>282</ele>
        <time>2018-10-20T10:18:05Z</time>
      </trkpt>
      <trkpt lat="45.90425" lon="5.00988">
        <ele>282</ele>
        <time>2018-10-20T10:18:06Z</time>
      </trkpt>
      <trkpt lat="45.90425" lon="5.0098">
        <ele>282</ele>
        <time>2018-10-20T10:18:07Z</time>
      </trkpt>
      <trkpt lat="45.90423" lon="5.0097">
        <ele>282</ele>
        <time>2018-10-20T10:18:08Z</time>
      </trkpt>
      <trkpt lat="45.90422" lon="5.00962">
        <ele>282</ele>
        <time>2018-10-20T10:18:09Z</time>
      </trkpt>
      <trkpt lat="45.90419" lon="5.00953">
        <ele>282</ele>
        <time>2018-10-20T10:18:10Z</time>
      </trkpt>
      <trkpt lat="45.90419" lon="5.00945">
        <ele>282</ele>
        <time>2018-10-20T10:18:11Z</time>
      </trkpt>
      <trkpt lat="45.90418" lon="5.00938">
        <ele>283</ele>
        <time>2018-10-20T10:18:12Z</time>
      </trkpt>
      <trkpt lat="45.90418" lon="5.00929">
        <ele>283</ele>
        <time>2018-10-20T10:18:13Z</time>
      </trkpt>
      <trkpt lat="45.90417" lon="5.0092">
        <ele>283</ele>
        <time>2018-10-20T10:18:14Z</time>
      </trkpt>
      <trkpt lat="45.90415" lon="5.00911">
        <ele>283</ele>
        <time>2018-10-20T10:18:15Z</time>
      </trkpt>
      <trkpt lat="45.90413" lon="5.00902">
        <ele>284</ele>
        <time>2018-10-20T10:18:16Z</time>
      </trkpt>
      <trkpt lat="45.90412" lon="5.00893">
        <ele>284</ele>
        <time>2018-10-20T10:18:17Z</time>
      </trkpt>
      <trkpt lat="45.90413" lon="5.00884">
        <ele>284</ele>
        <time>2018-10-20T10:18:18Z</time>
      </trkpt>
      <trkpt lat="45.90411" lon="5.00875">
        <ele>284</ele>
        <time>2018-10-20T10:18:19Z</time>
      </trkpt>
      <trkpt lat="45.90411" lon="5.00867">
        <ele>284</ele>
        <time>2018-10-20T10:18:20Z</time>
      </trkpt>
      <trkpt lat="45.9041" lon="5.00859">
        <ele>284</ele>
        <time>2018-10-20T10:18:21Z</time>
      </trkpt>
      <trkpt lat="45.9041" lon="5.00851">
        <ele>284</ele>
        <time>2018-10-20T10:18:22Z</time>
      </trkpt>
      <trkpt lat="45.9041" lon="5.00844">
        <ele>283</ele>
        <time>2018-10-20T10:18:23Z</time>
      </trkpt>
      <trkpt lat="45.90409" lon="5.00836">
        <ele>283</ele>
        <time>2018-10-20T10:18:24Z</time>
      </trkpt>
      <trkpt lat="45.90408" lon="5.00829">
        <ele>283</ele>
        <time>2018-10-20T10:18:25Z</time>
      </trkpt>
      <trkpt lat="45.90408" lon="5.0082">
        <ele>283</ele>
        <time>2018-10-20T10:18:26Z</time>
      </trkpt>
      <trkpt lat="45.90407" lon="5.00812">
        <ele>283</ele>
        <time>2018-10-20T10:18:27Z</time>
      </trkpt>
      <trkpt lat="45.90406" lon="5.00804">
        <ele>283</ele>
        <time>2018-10-20T10:18:28Z</time>
      </trkpt>
      <trkpt lat="45.90407" lon="5.00796">
        <ele>283</ele>
        <time>2018-10-20T10:18:29Z</time>
      </trkpt>
      <trkpt lat="45.90408" lon="5.00789">
        <ele>283</ele>
        <time>2018-10-20T10:18:30Z</time>
      </trkpt>
      <trkpt lat="45.90407" lon="5.00781">
        <ele>283</ele>
        <time>2018-10-20T10:18:31Z</time>
      </trkpt>
      <trkpt lat="45.90407" lon="5.00773">
        <ele>283</ele>
        <time>2018-10-20T10:18:32Z</time>
      </trkpt>
      <trkpt lat="45.90407" lon="5.00765">
        <ele>283</ele>
        <time>2018-10-20T10:18:33Z</time>
      </trkpt>
      <trkpt lat="45.90404" lon="5.00756">
        <ele>283</ele>
        <time>2018-10-20T10:18:34Z</time>
      </trkpt>
      <trkpt lat="45.90403" lon="5.00748">
        <ele>282</ele>
        <time>2018-10-20T10:18:35Z</time>
      </trkpt>
      <trkpt lat="45.90402" lon="5.0074">
        <ele>282</ele>
        <time>2018-10-20T10:18:36Z</time>
      </trkpt>
      <trkpt lat="45.90402" lon="5.00731">
        <ele>282</ele>
        <time>2018-10-20T10:18:37Z</time>
      </trkpt>
      <trkpt lat="45.90402" lon="5.00723">
        <ele>282</ele>
        <time>2018-10-20T10:18:38Z</time>
      </trkpt>
      <trkpt lat="45.90401" lon="5.00713">
        <ele>282</ele>
        <time>2018-10-20T10:18:39Z</time>
      </trkpt>
      <trkpt lat="45.904" lon="5.00705">
        <ele>282</ele>
        <time>2018-10-20T10:18:40Z</time>
      </trkpt>
      <trkpt lat="45.904" lon="5.00697">
        <ele>282</ele>
        <time>2018-10-20T10:18:41Z</time>
      </trkpt>
      <trkpt lat="45.90399" lon="5.0069">
        <ele>282</ele>
        <time>2018-10-20T10:18:42Z</time>
      </trkpt>
      <trkpt lat="45.90396" lon="5.00681">
        <ele>282</ele>
        <time>2018-10-20T10:18:43Z</time>
      </trkpt>
      <trkpt lat="45.90395" lon="5.00674">
        <ele>282</ele>
        <time>2018-10-20T10:18:44Z</time>
      </trkpt>
      <trkpt lat="45.90394" lon="5.00666">
        <ele>282</ele>
        <time>2018-10-20T10:18:45Z</time>
      </trkpt>
      <trkpt lat="45.90393" lon="5.00658">
        <ele>282</ele>
        <time>2018-10-20T10:18:46Z</time>
      </trkpt>
      <trkpt lat="45.90394" lon="5.00652">
        <ele>282</ele>
        <time>2018-10-20T10:18:47Z</time>
      </trkpt>
      <trkpt lat="45.90394" lon="5.00645">
        <ele>282</ele>
        <time>2018-10-20T10:18:48Z</time>
      </trkpt>
      <trkpt lat="45.90394" lon="5.00637">
        <ele>282</ele>
        <time>2018-10-20T10:18:49Z</time>
      </trkpt>
      <trkpt lat="45.90394" lon="5.0063">
        <ele>282</ele>
        <time>2018-10-20T10:18:50Z</time>
      </trkpt>
      <trkpt lat="45.90393" lon="5.00621">
        <ele>282</ele>
        <time>2018-10-20T10:18:51Z</time>
      </trkpt>
      <trkpt lat="45.90394" lon="5.00615">
        <ele>282</ele>
        <time>2018-10-20T10:18:52Z</time>
      </trkpt>
      <trkpt lat="45.90393" lon="5.00607">
        <ele>282</ele>
        <time>2018-10-20T10:18:53Z</time>
      </trkpt>
      <trkpt lat="45.90391" lon="5.00599">
        <ele>282</ele>
        <time>2018-10-20T10:18:54Z</time>
      </trkpt>
      <trkpt lat="45.90391" lon="5.00593">
        <ele>282</ele>
        <time>2018-10-20T10:18:55Z</time>
      </trkpt>
      <trkpt lat="45.90391" lon="5.00586">
        <ele>282</ele>
        <time>2018-10-20T10:18:56Z</time>
      </trkpt>
      <trkpt lat="45.9039" lon="5.00578">
        <ele>281</ele>
        <time>2018-10-20T10:18:57Z</time>
      </trkpt>
      <trkpt lat="45.90389" lon="5.00571">
        <ele>281</ele>
        <time>2018-10-20T10:18:58Z</time>
      </trkpt>
      <trkpt lat="45.90388" lon="5.00565">
        <ele>281</ele>
        <time>2018-10-20T10:18:59Z</time>
      </trkpt>
      <trkpt lat="45.90386" lon="5.00558">
        <ele>281</ele>
        <time>2018-10-20T10:19:00Z</time>
      </trkpt>
      <trkpt lat="45.90383" lon="5.00553">
        <ele>281</ele>
        <time>2018-10-20T10:19:01Z</time>
      </trkpt>
      <trkpt lat="45.90379" lon="5.00549">
        <ele>281</ele>
        <time>2018-10-20T10:19:02Z</time>
      </trkpt>
      <trkpt lat="45.90376" lon="5.00544">
        <ele>281</ele>
        <time>2018-10-20T10:19:03Z</time>
      </trkpt>
      <trkpt lat="45.90372" lon="5.00539">
        <ele>281</ele>
        <time>2018-10-20T10:19:04Z</time>
      </trkpt>
      <trkpt lat="45.90369" lon="5.00533">
        <ele>281</ele>
        <time>2018-10-20T10:19:05Z</time>
      </trkpt>
      <trkpt lat="45.90365" lon="5.00527">
        <ele>281</ele>
        <time>2018-10-20T10:19:06Z</time>
      </trkpt>
      <trkpt lat="45.90359" lon="5.00521">
        <ele>281</ele>
        <time>2018-10-20T10:19:07Z</time>
      </trkpt>
      <trkpt lat="45.90355" lon="5.00515">
        <ele>281</ele>
        <time>2018-10-20T10:19:08Z</time>
      </trkpt>
      <trkpt lat="45.9035" lon="5.00509">
        <ele>281</ele>
        <time>2018-10-20T10:19:09Z</time>
      </trkpt>
      <trkpt lat="45.90346" lon="5.00503">
        <ele>280</ele>
        <time>2018-10-20T10:19:10Z</time>
      </trkpt>
      <trkpt lat="45.9034" lon="5.00498">
        <ele>280</ele>
        <time>2018-10-20T10:19:11Z</time>
      </trkpt>
      <trkpt lat="45.90336" lon="5.00491">
        <ele>280</ele>
        <time>2018-10-20T10:19:12Z</time>
      </trkpt>
      <trkpt lat="45.90332" lon="5.00484">
        <ele>280</ele>
        <time>2018-10-20T10:19:13Z</time>
      </trkpt>
      <trkpt lat="45.90328" lon="5.00477">
        <ele>280</ele>
        <time>2018-10-20T10:19:14Z</time>
      </trkpt>
      <trkpt lat="45.90323" lon="5.0047">
        <ele>280</ele>
        <time>2018-10-20T10:19:15Z</time>
      </trkpt>
      <trkpt lat="45.90317" lon="5.00463">
        <ele>280</ele>
        <time>2018-10-20T10:19:16Z</time>
      </trkpt>
      <trkpt lat="45.90311" lon="5.00458">
        <ele>279</ele>
        <time>2018-10-20T10:19:17Z</time>
      </trkpt>
      <trkpt lat="45.90307" lon="5.00451">
        <ele>279</ele>
        <time>2018-10-20T10:19:18Z</time>
      </trkpt>
      <trkpt lat="45.90301" lon="5.00445">
        <ele>279</ele>
        <time>2018-10-20T10:19:19Z</time>
      </trkpt>
      <trkpt lat="45.90296" lon="5.00439">
        <ele>279</ele>
        <time>2018-10-20T10:19:20Z</time>
      </trkpt>
      <trkpt lat="45.90292" lon="5.00433">
        <ele>279</ele>
        <time>2018-10-20T10:19:21Z</time>
      </trkpt>
      <trkpt lat="45.90287" lon="5.00427">
        <ele>279</ele>
        <time>2018-10-20T10:19:22Z</time>
      </trkpt>
      <trkpt lat="45.90283" lon="5.0042">
        <ele>279</ele>
        <time>2018-10-20T10:19:23Z</time>
      </trkpt>
      <trkpt lat="45.90277" lon="5.00414">
        <ele>279</ele>
        <time>2018-10-20T10:19:24Z</time>
      </trkpt>
      <trkpt lat="45.90272" lon="5.00407">
        <ele>279</ele>
        <time>2018-10-20T10:19:25Z</time>
      </trkpt>
      <trkpt lat="45.90268" lon="5.00401">
        <ele>279</ele>
        <time>2018-10-20T10:19:26Z</time>
      </trkpt>
      <trkpt lat="45.90264" lon="5.00394">
        <ele>278</ele>
        <time>2018-10-20T10:19:27Z</time>
      </trkpt>
      <trkpt lat="45.90259" lon="5.00387">
        <ele>278</ele>
        <time>2018-10-20T10:19:28Z</time>
      </trkpt>
      <trkpt lat="45.90255" lon="5.00381">
        <ele>278</ele>
        <time>2018-10-20T10:19:29Z</time>
      </trkpt>
      <trkpt lat="45.9025" lon="5.00374">
        <ele>278</ele>
        <time>2018-10-20T10:19:30Z</time>
      </trkpt>
      <trkpt lat="45.90246" lon="5.00367">
        <ele>277</ele>
        <time>2018-10-20T10:19:31Z</time>
      </trkpt>
      <trkpt lat="45.90242" lon="5.00361">
        <ele>277</ele>
        <time>2018-10-20T10:19:32Z</time>
      </trkpt>
      <trkpt lat="45.90238" lon="5.00354">
        <ele>277</ele>
        <time>2018-10-20T10:19:33Z</time>
      </trkpt>
      <trkpt lat="45.90234" lon="5.00346">
        <ele>277</ele>
        <time>2018-10-20T10:19:34Z</time>
      </trkpt>
      <trkpt lat="45.90231" lon="5.00338">
        <ele>277</ele>
        <time>2018-10-20T10:19:35Z</time>
      </trkpt>
      <trkpt lat="45.90227" lon="5.00331">
        <ele>277</ele>
        <time>2018-10-20T10:19:36Z</time>
      </trkpt>
      <trkpt lat="45.90226" lon="5.00322">
        <ele>277</ele>
        <time>2018-10-20T10:19:37Z</time>
      </trkpt>
      <trkpt lat="45.90224" lon="5.00313">
        <ele>277</ele>
        <time>2018-10-20T10:19:38Z</time>
      </trkpt>
      <trkpt lat="45.9023" lon="5.00308">
        <ele>277</ele>
        <time>2018-10-20T10:19:39Z</time>
      </trkpt>
      <trkpt lat="45.90227" lon="5.00298">
        <ele>277</ele>
        <time>2018-10-20T10:19:40Z</time>
      </trkpt>
      <trkpt lat="45.90226" lon="5.00291">
        <ele>277</ele>
        <time>2018-10-20T10:19:41Z</time>
      </trkpt>
      <trkpt lat="45.90228" lon="5.00284">
        <ele>277</ele>
        <time>2018-10-20T10:19:42Z</time>
      </trkpt>
      <trkpt lat="45.90228" lon="5.00276">
        <ele>277</ele>
        <time>2018-10-20T10:19:43Z</time>
      </trkpt>
      <trkpt lat="45.90228" lon="5.0027">
        <ele>277</ele>
        <time>2018-10-20T10:19:44Z</time>
      </trkpt>
      <trkpt lat="45.90229" lon="5.0026">
        <ele>277</ele>
        <time>2018-10-20T10:19:45Z</time>
      </trkpt>
      <trkpt lat="45.90231" lon="5.00252">
        <ele>277</ele>
        <time>2018-10-20T10:19:46Z</time>
      </trkpt>
      <trkpt lat="45.90232" lon="5.00243">
        <ele>277</ele>
        <time>2018-10-20T10:19:47Z</time>
      </trkpt>
      <trkpt lat="45.90232" lon="5.00236">
        <ele>277</ele>
        <time>2018-10-20T10:19:48Z</time>
      </trkpt>
      <trkpt lat="45.90234" lon="5.00226">
        <ele>277</ele>
        <time>2018-10-20T10:19:50Z</time>
      </trkpt>
      <trkpt lat="45.90235" lon="5.00219">
        <ele>277</ele>
        <time>2018-10-20T10:19:51Z</time>
      </trkpt>
      <trkpt lat="45.90236" lon="5.00212">
        <ele>277</ele>
        <time>2018-10-20T10:19:52Z</time>
      </trkpt>
      <trkpt lat="45.90237" lon="5.00205">
        <ele>277</ele>
        <time>2018-10-20T10:19:53Z</time>
      </trkpt>
      <trkpt lat="45.90238" lon="5.00197">
        <ele>277</ele>
        <time>2018-10-20T10:19:54Z</time>
      </trkpt>
      <trkpt lat="45.90238" lon="5.00192">
        <ele>277</ele>
        <time>2018-10-20T10:19:55Z</time>
      </trkpt>
      <trkpt lat="45.9024" lon="5.00185">
        <ele>278</ele>
        <time>2018-10-20T10:19:56Z</time>
      </trkpt>
      <trkpt lat="45.90242" lon="5.00178">
        <ele>278</ele>
        <time>2018-10-20T10:19:57Z</time>
      </trkpt>
      <trkpt lat="45.90242" lon="5.00171">
        <ele>278</ele>
        <time>2018-10-20T10:19:58Z</time>
      </trkpt>
      <trkpt lat="45.90241" lon="5.00163">
        <ele>278</ele>
        <time>2018-10-20T10:19:59Z</time>
      </trkpt>
      <trkpt lat="45.90241" lon="5.00157">
        <ele>279</ele>
        <time>2018-10-20T10:20:00Z</time>
      </trkpt>
      <trkpt lat="45.90242" lon="5.00149">
        <ele>279</ele>
        <time>2018-10-20T10:20:01Z</time>
      </trkpt>
      <trkpt lat="45.9024" lon="5.00141">
        <ele>279</ele>
        <time>2018-10-20T10:20:02Z</time>
      </trkpt>
      <trkpt lat="45.90242" lon="5.00135">
        <ele>279</ele>
        <time>2018-10-20T10:20:03Z</time>
      </trkpt>
      <trkpt lat="45.90242" lon="5.00129">
        <ele>280</ele>
        <time>2018-10-20T10:20:04Z</time>
      </trkpt>
      <trkpt lat="45.90241" lon="5.00121">
        <ele>280</ele>
        <time>2018-10-20T10:20:05Z</time>
      </trkpt>
      <trkpt lat="45.90241" lon="5.00115">
        <ele>280</ele>
        <time>2018-10-20T10:20:06Z</time>
      </trkpt>
      <trkpt lat="45.90241" lon="5.00108">
        <ele>280</ele>
        <time>2018-10-20T10:20:07Z</time>
      </trkpt>
      <trkpt lat="45.90242" lon="5.00096">
        <ele>281</ele>
        <time>2018-10-20T10:20:09Z</time>
      </trkpt>
      <trkpt lat="45.90242" lon="5.0009">
        <ele>281</ele>
        <time>2018-10-20T10:20:10Z</time>
      </trkpt>
      <trkpt lat="45.90243" lon="5.00078">
        <ele>282</ele>
        <time>2018-10-20T10:20:12Z</time>
      </trkpt>
      <trkpt lat="45.90244" lon="5.00072">
        <ele>283</ele>
        <time>2018-10-20T10:20:13Z</time>
      </trkpt>
      <trkpt lat="45.90247" lon="5.00061">
        <ele>283</ele>
        <time>2018-10-20T10:20:15Z</time>
      </trkpt>
      <trkpt lat="45.90246" lon="5.00054">
        <ele>283</ele>
        <time>2018-10-20T10:20:16Z</time>
      </trkpt>
      <trkpt lat="45.90247" lon="5.00042">
        <ele>283</ele>
        <time>2018-10-20T10:20:18Z</time>
      </trkpt>
      <trkpt lat="45.90248" lon="5.00037">
        <ele>284</ele>
        <time>2018-10-20T10:20:19Z</time>
      </trkpt>
      <trkpt lat="45.9025" lon="5.00025">
        <ele>284</ele>
        <time>2018-10-20T10:20:21Z</time>
      </trkpt>
      <trkpt lat="45.90251" lon="5.0002">
        <ele>283</ele>
        <time>2018-10-20T10:20:22Z</time>
      </trkpt>
      <trkpt lat="45.90253" lon="5.00008">
        <ele>284</ele>
        <time>2018-10-20T10:20:24Z</time>
      </trkpt>
      <trkpt lat="45.90253" lon="5.00003">
        <ele>284</ele>
        <time>2018-10-20T10:20:25Z</time>
      </trkpt>
      <trkpt lat="45.90254" lon="4.99991">
        <ele>284</ele>
        <time>2018-10-20T10:20:27Z</time>
      </trkpt>
      <trkpt lat="45.90254" lon="4.99986">
        <ele>284</ele>
        <time>2018-10-20T10:20:28Z</time>
      </trkpt>
      <trkpt lat="45.90254" lon="4.99975">
        <ele>284</ele>
        <time>2018-10-20T10:20:30Z</time>
      </trkpt>
      <trkpt lat="45.90254" lon="4.99969">
        <ele>284</ele>
        <time>2018-10-20T10:20:31Z</time>
      </trkpt>
      <trkpt lat="45.90255" lon="4.99957">
        <ele>284</ele>
        <time>2018-10-20T10:20:33Z</time>
      </trkpt>
      <trkpt lat="45.90256" lon="4.99951">
        <ele>284</ele>
        <time>2018-10-20T10:20:34Z</time>
      </trkpt>
      <trkpt lat="45.90257" lon="4.99938">
        <ele>285</ele>
        <time>2018-10-20T10:20:36Z</time>
      </trkpt>
      <trkpt lat="45.90257" lon="4.99932">
        <ele>285</ele>
        <time>2018-10-20T10:20:37Z</time>
      </trkpt>
      <trkpt lat="45.90259" lon="4.99926">
        <ele>285</ele>
        <time>2018-10-20T10:20:38Z</time>
      </trkpt>
      <trkpt lat="45.9026" lon="4.9992">
        <ele>286</ele>
        <time>2018-10-20T10:20:39Z</time>
      </trkpt>
      <trkpt lat="45.90261" lon="4.99912">
        <ele>286</ele>
        <time>2018-10-20T10:20:40Z</time>
      </trkpt>
      <trkpt lat="45.90261" lon="4.99906">
        <ele>285</ele>
        <time>2018-10-20T10:20:41Z</time>
      </trkpt>
      <trkpt lat="45.90262" lon="4.999">
        <ele>285</ele>
        <time>2018-10-20T10:20:42Z</time>
      </trkpt>
      <trkpt lat="45.9026" lon="4.99892">
        <ele>285</ele>
        <time>2018-10-20T10:20:43Z</time>
      </trkpt>
      <trkpt lat="45.9026" lon="4.99886">
        <ele>285</ele>
        <time>2018-10-20T10:20:44Z</time>
      </trkpt>
      <trkpt lat="45.90258" lon="4.9988">
        <ele>285</ele>
        <time>2018-10-20T10:20:45Z</time>
      </trkpt>
      <trkpt lat="45.90253" lon="4.9987">
        <ele>285</ele>
        <time>2018-10-20T10:20:47Z</time>
      </trkpt>
      <trkpt lat="45.90249" lon="4.99865">
        <ele>287</ele>
        <time>2018-10-20T10:20:48Z</time>
      </trkpt>
      <trkpt lat="45.90243" lon="4.99858">
        <ele>287</ele>
        <time>2018-10-20T10:20:50Z</time>
      </trkpt>
      <trkpt lat="45.9024" lon="4.99851">
        <ele>287</ele>
        <time>2018-10-20T10:20:51Z</time>
      </trkpt>
      <trkpt lat="45.90238" lon="4.99839">
        <ele>287</ele>
        <time>2018-10-20T10:20:53Z</time>
      </trkpt>
      <trkpt lat="45.90238" lon="4.99836">
        <ele>287</ele>
        <time>2018-10-20T10:20:54Z</time>
      </trkpt>
      <trkpt lat="45.90238" lon="4.99827">
        <ele>287</ele>
        <time>2018-10-20T10:20:55Z</time>
      </trkpt>
      <trkpt lat="45.90237" lon="4.99821">
        <ele>287</ele>
        <time>2018-10-20T10:20:56Z</time>
      </trkpt>
      <trkpt lat="45.90236" lon="4.99809">
        <ele>287</ele>
        <time>2018-10-20T10:20:58Z</time>
      </trkpt>
      <trkpt lat="45.90237" lon="4.99803">
        <ele>287</ele>
        <time>2018-10-20T10:20:59Z</time>
      </trkpt>
      <trkpt lat="45.90237" lon="4.99791">
        <ele>287</ele>
        <time>2018-10-20T10:21:01Z</time>
      </trkpt>
      <trkpt lat="45.90238" lon="4.99784">
        <ele>287</ele>
        <time>2018-10-20T10:21:02Z</time>
      </trkpt>
      <trkpt lat="45.90237" lon="4.99777">
        <ele>288</ele>
        <time>2018-10-20T10:21:03Z</time>
      </trkpt>
      <trkpt lat="45.90236" lon="4.99771">
        <ele>288</ele>
        <time>2018-10-20T10:21:04Z</time>
      </trkpt>
      <trkpt lat="45.90234" lon="4.99759">
        <ele>288</ele>
        <time>2018-10-20T10:21:06Z</time>
      </trkpt>
      <trkpt lat="45.90234" lon="4.99752">
        <ele>288</ele>
        <time>2018-10-20T10:21:07Z</time>
      </trkpt>
      <trkpt lat="45.90234" lon="4.99743">
        <ele>288</ele>
        <time>2018-10-20T10:21:08Z</time>
      </trkpt>
      <trkpt lat="45.90234" lon="4.99737">
        <ele>288</ele>
        <time>2018-10-20T10:21:09Z</time>
      </trkpt>
      <trkpt lat="45.90235" lon="4.99726">
        <ele>288</ele>
        <time>2018-10-20T10:21:11Z</time>
      </trkpt>
      <trkpt lat="45.90233" lon="4.99717">
        <ele>288</ele>
        <time>2018-10-20T10:21:12Z</time>
      </trkpt>
      <trkpt lat="45.90229" lon="4.99711">
        <ele>288</ele>
        <time>2018-10-20T10:21:13Z</time>
      </trkpt>
      <trkpt lat="45.90228" lon="4.99704">
        <ele>288</ele>
        <time>2018-10-20T10:21:14Z</time>
      </trkpt>
      <trkpt lat="45.90227" lon="4.99698">
        <ele>288</ele>
        <time>2018-10-20T10:21:15Z</time>
      </trkpt>
      <trkpt lat="45.90225" lon="4.99691">
        <ele>288</ele>
        <time>2018-10-20T10:21:16Z</time>
      </trkpt>
      <trkpt lat="45.90223" lon="4.99683">
        <ele>288</ele>
        <time>2018-10-20T10:21:17Z</time>
      </trkpt>
      <trkpt lat="45.90222" lon="4.99671">
        <ele>288</ele>
        <time>2018-10-20T10:21:18Z</time>
      </trkpt>
      <trkpt lat="45.90219" lon="4.99662">
        <ele>287</ele>
        <time>2018-10-20T10:21:20Z</time>
      </trkpt>
      <trkpt lat="45.90217" lon="4.99657">
        <ele>287</ele>
        <time>2018-10-20T10:21:21Z</time>
      </trkpt>
      <trkpt lat="45.90216" lon="4.9965">
        <ele>287</ele>
        <time>2018-10-20T10:21:22Z</time>
      </trkpt>
      <trkpt lat="45.9021" lon="4.99642">
        <ele>287</ele>
        <time>2018-10-20T10:21:23Z</time>
      </trkpt>
      <trkpt lat="45.9021" lon="4.99635">
        <ele>287</ele>
        <time>2018-10-20T10:21:24Z</time>
      </trkpt>
      <trkpt lat="45.9021" lon="4.99628">
        <ele>287</ele>
        <time>2018-10-20T10:21:25Z</time>
      </trkpt>
      <trkpt lat="45.90208" lon="4.99619">
        <ele>287</ele>
        <time>2018-10-20T10:21:26Z</time>
      </trkpt>
      <trkpt lat="45.90207" lon="4.99612">
        <ele>287</ele>
        <time>2018-10-20T10:21:27Z</time>
      </trkpt>
      <trkpt lat="45.90207" lon="4.99602">
        <ele>287</ele>
        <time>2018-10-20T10:21:28Z</time>
      </trkpt>
      <trkpt lat="45.90207" lon="4.99595">
        <ele>287</ele>
        <time>2018-10-20T10:21:29Z</time>
      </trkpt>
      <trkpt lat="45.90207" lon="4.99587">
        <ele>287</ele>
        <time>2018-10-20T10:21:30Z</time>
      </trkpt>
      <trkpt lat="45.90208" lon="4.9958">
        <ele>286</ele>
        <time>2018-10-20T10:21:31Z</time>
      </trkpt>
      <trkpt lat="45.90209" lon="4.99572">
        <ele>285</ele>
        <time>2018-10-20T10:21:32Z</time>
      </trkpt>
      <trkpt lat="45.90208" lon="4.99564">
        <ele>285</ele>
        <time>2018-10-20T10:21:33Z</time>
      </trkpt>
      <trkpt lat="45.90209" lon="4.99555">
        <ele>285</ele>
        <time>2018-10-20T10:21:34Z</time>
      </trkpt>
      <trkpt lat="45.90208" lon="4.99546">
        <ele>285</ele>
        <time>2018-10-20T10:21:35Z</time>
      </trkpt>
      <trkpt lat="45.90214" lon="4.99538">
        <ele>285</ele>
        <time>2018-10-20T10:21:36Z</time>
      </trkpt>
      <trkpt lat="45.90216" lon="4.99529">
        <ele>285</ele>
        <time>2018-10-20T10:21:37Z</time>
      </trkpt>
      <trkpt lat="45.90218" lon="4.99521">
        <ele>285</ele>
        <time>2018-10-20T10:21:38Z</time>
      </trkpt>
      <trkpt lat="45.9022" lon="4.99513">
        <ele>285</ele>
        <time>2018-10-20T10:21:39Z</time>
      </trkpt>
      <trkpt lat="45.90222" lon="4.99508">
        <ele>285</ele>
        <time>2018-10-20T10:21:40Z</time>
      </trkpt>
      <trkpt lat="45.90224" lon="4.995">
        <ele>284</ele>
        <time>2018-10-20T10:21:41Z</time>
      </trkpt>
      <trkpt lat="45.90226" lon="4.9949">
        <ele>284</ele>
        <time>2018-10-20T10:21:42Z</time>
      </trkpt>
      <trkpt lat="45.90227" lon="4.99481">
        <ele>284</ele>
        <time>2018-10-20T10:21:43Z</time>
      </trkpt>
      <trkpt lat="45.90229" lon="4.99472">
        <ele>284</ele>
        <time>2018-10-20T10:21:44Z</time>
      </trkpt>
      <trkpt lat="45.9023" lon="4.99462">
        <ele>284</ele>
        <time>2018-10-20T10:21:45Z</time>
      </trkpt>
      <trkpt lat="45.9023" lon="4.99452">
        <ele>284</ele>
        <time>2018-10-20T10:21:46Z</time>
      </trkpt>
      <trkpt lat="45.90231" lon="4.99444">
        <ele>284</ele>
        <time>2018-10-20T10:21:47Z</time>
      </trkpt>
      <trkpt lat="45.90231" lon="4.99434">
        <ele>284</ele>
        <time>2018-10-20T10:21:48Z</time>
      </trkpt>
      <trkpt lat="45.90231" lon="4.99424">
        <ele>284</ele>
        <time>2018-10-20T10:21:49Z</time>
      </trkpt>
      <trkpt lat="45.90233" lon="4.99415">
        <ele>283</ele>
        <time>2018-10-20T10:21:50Z</time>
      </trkpt>
      <trkpt lat="45.90235" lon="4.99405">
        <ele>283</ele>
        <time>2018-10-20T10:21:51Z</time>
      </trkpt>
      <trkpt lat="45.90235" lon="4.99396">
        <ele>283</ele>
        <time>2018-10-20T10:21:52Z</time>
      </trkpt>
      <trkpt lat="45.90236" lon="4.99388">
        <ele>283</ele>
        <time>2018-10-20T10:21:53Z</time>
      </trkpt>
      <trkpt lat="45.90239" lon="4.9938">
        <ele>283</ele>
        <time>2018-10-20T10:21:54Z</time>
      </trkpt>
      <trkpt lat="45.90238" lon="4.9937">
        <ele>282</ele>
        <time>2018-10-20T10:21:55Z</time>
      </trkpt>
      <trkpt lat="45.90238" lon="4.99361">
        <ele>282</ele>
        <time>2018-10-20T10:21:56Z</time>
      </trkpt>
      <trkpt lat="45.90237" lon="4.9935">
        <ele>282</ele>
        <time>2018-10-20T10:21:57Z</time>
      </trkpt>
      <trkpt lat="45.90236" lon="4.99342">
        <ele>282</ele>
        <time>2018-10-20T10:21:58Z</time>
      </trkpt>
      <trkpt lat="45.90237" lon="4.99333">
        <ele>282</ele>
        <time>2018-10-20T10:21:59Z</time>
      </trkpt>
      <trkpt lat="45.90236" lon="4.99323">
        <ele>282</ele>
        <time>2018-10-20T10:22:00Z</time>
      </trkpt>
      <trkpt lat="45.90233" lon="4.99313">
        <ele>281</ele>
        <time>2018-10-20T10:22:01Z</time>
      </trkpt>
      <trkpt lat="45.90233" lon="4.99305">
        <ele>281</ele>
        <time>2018-10-20T10:22:02Z</time>
      </trkpt>
      <trkpt lat="45.90231" lon="4.99296">
        <ele>281</ele>
        <time>2018-10-20T10:22:03Z</time>
      </trkpt>
      <trkpt lat="45.90231" lon="4.99286">
        <ele>281</ele>
        <time>2018-10-20T10:22:04Z</time>
      </trkpt>
      <trkpt lat="45.90231" lon="4.99278">
        <ele>281</ele>
        <time>2018-10-20T10:22:05Z</time>
      </trkpt>
      <trkpt lat="45.9023" lon="4.99267">
        <ele>281</ele>
        <time>2018-10-20T10:22:06Z</time>
      </trkpt>
      <trkpt lat="45.9023" lon="4.99258">
        <ele>281</ele>
        <time>2018-10-20T10:22:07Z</time>
      </trkpt>
      <trkpt lat="45.90231" lon="4.99249">
        <ele>281</ele>
        <time>2018-10-20T10:22:08Z</time>
      </trkpt>
      <trkpt lat="45.90231" lon="4.99239">
        <ele>281</ele>
        <time>2018-10-20T10:22:09Z</time>
      </trkpt>
      <trkpt lat="45.90232" lon="4.99229">
        <ele>281</ele>
        <time>2018-10-20T10:22:10Z</time>
      </trkpt>
      <trkpt lat="45.90233" lon="4.99221">
        <ele>281</ele>
        <time>2018-10-20T10:22:11Z</time>
      </trkpt>
      <trkpt lat="45.90233" lon="4.99213">
        <ele>281</ele>
        <time>2018-10-20T10:22:12Z</time>
      </trkpt>
      <trkpt lat="45.90235" lon="4.99206">
        <ele>280</ele>
        <time>2018-10-20T10:22:13Z</time>
      </trkpt>
      <trkpt lat="45.90236" lon="4.992">
        <ele>280</ele>
        <time>2018-10-20T10:22:14Z</time>
      </trkpt>
      <trkpt lat="45.90235" lon="4.99193">
        <ele>280</ele>
        <time>2018-10-20T10:22:15Z</time>
      </trkpt>
      <trkpt lat="45.90234" lon="4.99186">
        <ele>280</ele>
        <time>2018-10-20T10:22:16Z</time>
      </trkpt>
      <trkpt lat="45.90234" lon="4.99176">
        <ele>280</ele>
        <time>2018-10-20T10:22:17Z</time>
      </trkpt>
      <trkpt lat="45.90236" lon="4.99166">
        <ele>280</ele>
        <time>2018-10-20T10:22:19Z</time>
      </trkpt>
      <trkpt lat="45.90236" lon="4.99158">
        <ele>280</ele>
        <time>2018-10-20T10:22:20Z</time>
      </trkpt>
      <trkpt lat="45.90234" lon="4.9915">
        <ele>280</ele>
        <time>2018-10-20T10:22:21Z</time>
      </trkpt>
      <trkpt lat="45.90235" lon="4.99143">
        <ele>280</ele>
        <time>2018-10-20T10:22:22Z</time>
      </trkpt>
      <trkpt lat="45.90235" lon="4.99133">
        <ele>280</ele>
        <time>2018-10-20T10:22:23Z</time>
      </trkpt>
      <trkpt lat="45.90235" lon="4.99125">
        <ele>280</ele>
        <time>2018-10-20T10:22:24Z</time>
      </trkpt>
      <trkpt lat="45.90235" lon="4.99116">
        <ele>281</ele>
        <time>2018-10-20T10:22:25Z</time>
      </trkpt>
      <trkpt lat="45.90232" lon="4.99104">
        <ele>281</ele>
        <time>2018-10-20T10:22:26Z</time>
      </trkpt>
      <trkpt lat="45.90232" lon="4.99093">
        <ele>281</ele>
        <time>2018-10-20T10:22:27Z</time>
      </trkpt>
      <trkpt lat="45.90231" lon="4.99084">
        <ele>281</ele>
        <time>2018-10-20T10:22:28Z</time>
      </trkpt>
      <trkpt lat="45.9023" lon="4.99073">
        <ele>281</ele>
        <time>2018-10-20T10:22:29Z</time>
      </trkpt>
      <trkpt lat="45.90229" lon="4.99065">
        <ele>281</ele>
        <time>2018-10-20T10:22:30Z</time>
      </trkpt>
      <trkpt lat="45.90229" lon="4.99057">
        <ele>280</ele>
        <time>2018-10-20T10:22:31Z</time>
      </trkpt>
      <trkpt lat="45.90229" lon="4.99049">
        <ele>280</ele>
        <time>2018-10-20T10:22:32Z</time>
      </trkpt>
      <trkpt lat="45.90228" lon="4.99042">
        <ele>280</ele>
        <time>2018-10-20T10:22:33Z</time>
      </trkpt>
      <trkpt lat="45.90228" lon="4.99033">
        <ele>280</ele>
        <time>2018-10-20T10:22:34Z</time>
      </trkpt>
      <trkpt lat="45.90227" lon="4.99026">
        <ele>280</ele>
        <time>2018-10-20T10:22:35Z</time>
      </trkpt>
      <trkpt lat="45.90227" lon="4.99019">
        <ele>280</ele>
        <time>2018-10-20T10:22:36Z</time>
      </trkpt>
      <trkpt lat="45.90227" lon="4.99013">
        <ele>280</ele>
        <time>2018-10-20T10:22:37Z</time>
      </trkpt>
      <trkpt lat="45.90226" lon="4.99006">
        <ele>280</ele>
        <time>2018-10-20T10:22:38Z</time>
      </trkpt>
      <trkpt lat="45.90225" lon="4.98998">
        <ele>280</ele>
        <time>2018-10-20T10:22:39Z</time>
      </trkpt>
      <trkpt lat="45.90225" lon="4.9899">
        <ele>280</ele>
        <time>2018-10-20T10:22:40Z</time>
      </trkpt>
      <trkpt lat="45.90225" lon="4.9898">
        <ele>280</ele>
        <time>2018-10-20T10:22:41Z</time>
      </trkpt>
      <trkpt lat="45.90225" lon="4.98972">
        <ele>280</ele>
        <time>2018-10-20T10:22:42Z</time>
      </trkpt>
      <trkpt lat="45.90225" lon="4.98964">
        <ele>280</ele>
        <time>2018-10-20T10:22:43Z</time>
      </trkpt>
      <trkpt lat="45.90224" lon="4.98955">
        <ele>280</ele>
        <time>2018-10-20T10:22:44Z</time>
      </trkpt>
      <trkpt lat="45.90222" lon="4.98945">
        <ele>280</ele>
        <time>2018-10-20T10:22:45Z</time>
      </trkpt>
      <trkpt lat="45.90224" lon="4.98938">
        <ele>280</ele>
        <time>2018-10-20T10:22:46Z</time>
      </trkpt>
      <trkpt lat="45.90224" lon="4.98929">
        <ele>280</ele>
        <time>2018-10-20T10:22:47Z</time>
      </trkpt>
      <trkpt lat="45.90223" lon="4.98921">
        <ele>280</ele>
        <time>2018-10-20T10:22:48Z</time>
      </trkpt>
      <trkpt lat="45.90223" lon="4.98912">
        <ele>281</ele>
        <time>2018-10-20T10:22:49Z</time>
      </trkpt>
      <trkpt lat="45.90222" lon="4.98904">
        <ele>281</ele>
        <time>2018-10-20T10:22:50Z</time>
      </trkpt>
      <trkpt lat="45.90222" lon="4.98894">
        <ele>281</ele>
        <time>2018-10-20T10:22:51Z</time>
      </trkpt>
      <trkpt lat="45.90221" lon="4.98885">
        <ele>281</ele>
        <time>2018-10-20T10:22:52Z</time>
      </trkpt>
      <trkpt lat="45.9022" lon="4.98876">
        <ele>281</ele>
        <time>2018-10-20T10:22:53Z</time>
      </trkpt>
      <trkpt lat="45.9022" lon="4.98868">
        <ele>281</ele>
        <time>2018-10-20T10:22:54Z</time>
      </trkpt>
      <trkpt lat="45.9022" lon="4.98861">
        <ele>281</ele>
        <time>2018-10-20T10:22:55Z</time>
      </trkpt>
      <trkpt lat="45.90219" lon="4.98852">
        <ele>281</ele>
        <time>2018-10-20T10:22:56Z</time>
      </trkpt>
      <trkpt lat="45.90219" lon="4.98844">
        <ele>281</ele>
        <time>2018-10-20T10:22:57Z</time>
      </trkpt>
      <trkpt lat="45.90217" lon="4.98835">
        <ele>281</ele>
        <time>2018-10-20T10:22:58Z</time>
      </trkpt>
      <trkpt lat="45.90215" lon="4.98826">
        <ele>281</ele>
        <time>2018-10-20T10:22:59Z</time>
      </trkpt>
      <trkpt lat="45.90213" lon="4.98818">
        <ele>281</ele>
        <time>2018-10-20T10:23:00Z</time>
      </trkpt>
      <trkpt lat="45.90211" lon="4.9881">
        <ele>281</ele>
        <time>2018-10-20T10:23:01Z</time>
      </trkpt>
      <trkpt lat="45.90208" lon="4.98803">
        <ele>281</ele>
        <time>2018-10-20T10:23:02Z</time>
      </trkpt>
      <trkpt lat="45.90206" lon="4.98795">
        <ele>281</ele>
        <time>2018-10-20T10:23:03Z</time>
      </trkpt>
      <trkpt lat="45.90204" lon="4.98788">
        <ele>281</ele>
        <time>2018-10-20T10:23:04Z</time>
      </trkpt>
      <trkpt lat="45.90202" lon="4.9878">
        <ele>281</ele>
        <time>2018-10-20T10:23:05Z</time>
      </trkpt>
      <trkpt lat="45.90199" lon="4.98774">
        <ele>281</ele>
        <time>2018-10-20T10:23:06Z</time>
      </trkpt>
      <trkpt lat="45.90196" lon="4.98766">
        <ele>281</ele>
        <time>2018-10-20T10:23:07Z</time>
      </trkpt>
      <trkpt lat="45.90194" lon="4.98759">
        <ele>281</ele>
        <time>2018-10-20T10:23:08Z</time>
      </trkpt>
      <trkpt lat="45.90193" lon="4.98752">
        <ele>281</ele>
        <time>2018-10-20T10:23:09Z</time>
      </trkpt>
      <trkpt lat="45.90191" lon="4.98746">
        <ele>281</ele>
        <time>2018-10-20T10:23:10Z</time>
      </trkpt>
      <trkpt lat="45.90187" lon="4.9874">
        <ele>281</ele>
        <time>2018-10-20T10:23:11Z</time>
      </trkpt>
      <trkpt lat="45.90185" lon="4.98734">
        <ele>281</ele>
        <time>2018-10-20T10:23:12Z</time>
      </trkpt>
      <trkpt lat="45.90183" lon="4.98727">
        <ele>281</ele>
        <time>2018-10-20T10:23:13Z</time>
      </trkpt>
      <trkpt lat="45.90181" lon="4.98721">
        <ele>281</ele>
        <time>2018-10-20T10:23:14Z</time>
      </trkpt>
      <trkpt lat="45.90179" lon="4.98716">
        <ele>281</ele>
        <time>2018-10-20T10:23:15Z</time>
      </trkpt>
      <trkpt lat="45.90175" lon="4.9871">
        <ele>281</ele>
        <time>2018-10-20T10:23:16Z</time>
      </trkpt>
      <trkpt lat="45.90171" lon="4.98699">
        <ele>281</ele>
        <time>2018-10-20T10:23:18Z</time>
      </trkpt>
      <trkpt lat="45.90168" lon="4.98693">
        <ele>282</ele>
        <time>2018-10-20T10:23:19Z</time>
      </trkpt>
      <trkpt lat="45.90167" lon="4.98686">
        <ele>282</ele>
        <time>2018-10-20T10:23:20Z</time>
      </trkpt>
      <trkpt lat="45.90164" lon="4.98679">
        <ele>281</ele>
        <time>2018-10-20T10:23:21Z</time>
      </trkpt>
      <trkpt lat="45.9016" lon="4.98668">
        <ele>282</ele>
        <time>2018-10-20T10:23:23Z</time>
      </trkpt>
      <trkpt lat="45.90157" lon="4.98663">
        <ele>282</ele>
        <time>2018-10-20T10:23:24Z</time>
      </trkpt>
      <trkpt lat="45.90154" lon="4.98656">
        <ele>282</ele>
        <time>2018-10-20T10:23:25Z</time>
      </trkpt>
      <trkpt lat="45.90152" lon="4.98649">
        <ele>282</ele>
        <time>2018-10-20T10:23:26Z</time>
      </trkpt>
      <trkpt lat="45.90148" lon="4.9864">
        <ele>282</ele>
        <time>2018-10-20T10:23:27Z</time>
      </trkpt>
      <trkpt lat="45.90146" lon="4.98632">
        <ele>282</ele>
        <time>2018-10-20T10:23:28Z</time>
      </trkpt>
      <trkpt lat="45.90143" lon="4.98625">
        <ele>282</ele>
        <time>2018-10-20T10:23:29Z</time>
      </trkpt>
      <trkpt lat="45.90141" lon="4.98617">
        <ele>282</ele>
        <time>2018-10-20T10:23:30Z</time>
      </trkpt>
      <trkpt lat="45.90139" lon="4.98609">
        <ele>282</ele>
        <time>2018-10-20T10:23:31Z</time>
      </trkpt>
      <trkpt lat="45.90137" lon="4.98601">
        <ele>282</ele>
        <time>2018-10-20T10:23:32Z</time>
      </trkpt>
      <trkpt lat="45.90136" lon="4.98595">
        <ele>282</ele>
        <time>2018-10-20T10:23:33Z</time>
      </trkpt>
      <trkpt lat="45.90133" lon="4.98588">
        <ele>282</ele>
        <time>2018-10-20T10:23:34Z</time>
      </trkpt>
      <trkpt lat="45.90131" lon="4.98581">
        <ele>282</ele>
        <time>2018-10-20T10:23:35Z</time>
      </trkpt>
      <trkpt lat="45.90129" lon="4.98575">
        <ele>282</ele>
        <time>2018-10-20T10:23:36Z</time>
      </trkpt>
      <trkpt lat="45.90126" lon="4.98568">
        <ele>282</ele>
        <time>2018-10-20T10:23:37Z</time>
      </trkpt>
      <trkpt lat="45.90124" lon="4.98562">
        <ele>282</ele>
        <time>2018-10-20T10:23:38Z</time>
      </trkpt>
      <trkpt lat="45.90123" lon="4.98555">
        <ele>282</ele>
        <time>2018-10-20T10:23:39Z</time>
      </trkpt>
      <trkpt lat="45.9012" lon="4.98548">
        <ele>282</ele>
        <time>2018-10-20T10:23:40Z</time>
      </trkpt>
      <trkpt lat="45.90116" lon="4.98541">
        <ele>282</ele>
        <time>2018-10-20T10:23:41Z</time>
      </trkpt>
      <trkpt lat="45.90114" lon="4.98532">
        <ele>283</ele>
        <time>2018-10-20T10:23:42Z</time>
      </trkpt>
      <trkpt lat="45.90112" lon="4.98526">
        <ele>283</ele>
        <time>2018-10-20T10:23:43Z</time>
      </trkpt>
      <trkpt lat="45.90108" lon="4.98519">
        <ele>283</ele>
        <time>2018-10-20T10:23:44Z</time>
      </trkpt>
      <trkpt lat="45.90107" lon="4.98512">
        <ele>283</ele>
        <time>2018-10-20T10:23:45Z</time>
      </trkpt>
      <trkpt lat="45.90105" lon="4.98505">
        <ele>283</ele>
        <time>2018-10-20T10:23:46Z</time>
      </trkpt>
      <trkpt lat="45.90103" lon="4.98498">
        <ele>283</ele>
        <time>2018-10-20T10:23:47Z</time>
      </trkpt>
      <trkpt lat="45.901" lon="4.98491">
        <ele>283</ele>
        <time>2018-10-20T10:23:48Z</time>
      </trkpt>
      <trkpt lat="45.90098" lon="4.98484">
        <ele>283</ele>
        <time>2018-10-20T10:23:49Z</time>
      </trkpt>
      <trkpt lat="45.90096" lon="4.98477">
        <ele>283</ele>
        <time>2018-10-20T10:23:50Z</time>
      </trkpt>
      <trkpt lat="45.90094" lon="4.98471">
        <ele>283</ele>
        <time>2018-10-20T10:23:51Z</time>
      </trkpt>
      <trkpt lat="45.90092" lon="4.98465">
        <ele>283</ele>
        <time>2018-10-20T10:23:52Z</time>
      </trkpt>
      <trkpt lat="45.9009" lon="4.98454">
        <ele>283</ele>
        <time>2018-10-20T10:23:54Z</time>
      </trkpt>
      <trkpt lat="45.90089" lon="4.98448">
        <ele>283</ele>
        <time>2018-10-20T10:23:55Z</time>
      </trkpt>
      <trkpt lat="45.90087" lon="4.98439">
        <ele>283</ele>
        <time>2018-10-20T10:23:57Z</time>
      </trkpt>
      <trkpt lat="45.90086" lon="4.98433">
        <ele>283</ele>
        <time>2018-10-20T10:23:58Z</time>
      </trkpt>
      <trkpt lat="45.90084" lon="4.98428">
        <ele>284</ele>
        <time>2018-10-20T10:23:59Z</time>
      </trkpt>
      <trkpt lat="45.90082" lon="4.98421">
        <ele>284</ele>
        <time>2018-10-20T10:24:00Z</time>
      </trkpt>
      <trkpt lat="45.90077" lon="4.98412">
        <ele>283</ele>
        <time>2018-10-20T10:24:02Z</time>
      </trkpt>
      <trkpt lat="45.90075" lon="4.98406">
        <ele>283</ele>
        <time>2018-10-20T10:24:03Z</time>
      </trkpt>
      <trkpt lat="45.9007" lon="4.98398">
        <ele>283</ele>
        <time>2018-10-20T10:24:04Z</time>
      </trkpt>
      <trkpt lat="45.90069" lon="4.98391">
        <ele>282</ele>
        <time>2018-10-20T10:24:05Z</time>
      </trkpt>
      <trkpt lat="45.90067" lon="4.98385">
        <ele>282</ele>
        <time>2018-10-20T10:24:06Z</time>
      </trkpt>
      <trkpt lat="45.90066" lon="4.98379">
        <ele>282</ele>
        <time>2018-10-20T10:24:07Z</time>
      </trkpt>
      <trkpt lat="45.90065" lon="4.98372">
        <ele>282</ele>
        <time>2018-10-20T10:24:08Z</time>
      </trkpt>
      <trkpt lat="45.90065" lon="4.98366">
        <ele>282</ele>
        <time>2018-10-20T10:24:09Z</time>
      </trkpt>
      <trkpt lat="45.90064" lon="4.9836">
        <ele>282</ele>
        <time>2018-10-20T10:24:10Z</time>
      </trkpt>
      <trkpt lat="45.90065" lon="4.98352">
        <ele>282</ele>
        <time>2018-10-20T10:24:11Z</time>
      </trkpt>
      <trkpt lat="45.90065" lon="4.98339">
        <ele>282</ele>
        <time>2018-10-20T10:24:13Z</time>
      </trkpt>
      <trkpt lat="45.90062" lon="4.98332">
        <ele>281</ele>
        <time>2018-10-20T10:24:14Z</time>
      </trkpt>
      <trkpt lat="45.90059" lon="4.98327">
        <ele>281</ele>
        <time>2018-10-20T10:24:15Z</time>
      </trkpt>
      <trkpt lat="45.90059" lon="4.98317">
        <ele>281</ele>
        <time>2018-10-20T10:24:16Z</time>
      </trkpt>
      <trkpt lat="45.90058" lon="4.98308">
        <ele>281</ele>
        <time>2018-10-20T10:24:17Z</time>
      </trkpt>
      <trkpt lat="45.90057" lon="4.98301">
        <ele>281</ele>
        <time>2018-10-20T10:24:18Z</time>
      </trkpt>
      <trkpt lat="45.90058" lon="4.98293">
        <ele>281</ele>
        <time>2018-10-20T10:24:19Z</time>
      </trkpt>
      <trkpt lat="45.90059" lon="4.98281">
        <ele>281</ele>
        <time>2018-10-20T10:24:20Z</time>
      </trkpt>
      <trkpt lat="45.90059" lon="4.98273">
        <ele>281</ele>
        <time>2018-10-20T10:24:21Z</time>
      </trkpt>
      <trkpt lat="45.90058" lon="4.98263">
        <ele>281</ele>
        <time>2018-10-20T10:24:22Z</time>
      </trkpt>
      <trkpt lat="45.90057" lon="4.98253">
        <ele>281</ele>
        <time>2018-10-20T10:24:23Z</time>
      </trkpt>
      <trkpt lat="45.90057" lon="4.98245">
        <ele>280</ele>
        <time>2018-10-20T10:24:24Z</time>
      </trkpt>
      <trkpt lat="45.90056" lon="4.98236">
        <ele>280</ele>
        <time>2018-10-20T10:24:25Z</time>
      </trkpt>
      <trkpt lat="45.90055" lon="4.98229">
        <ele>280</ele>
        <time>2018-10-20T10:24:26Z</time>
      </trkpt>
      <trkpt lat="45.90054" lon="4.98221">
        <ele>280</ele>
        <time>2018-10-20T10:24:27Z</time>
      </trkpt>
      <trkpt lat="45.90054" lon="4.98212">
        <ele>280</ele>
        <time>2018-10-20T10:24:28Z</time>
      </trkpt>
      <trkpt lat="45.90054" lon="4.98205">
        <ele>280</ele>
        <time>2018-10-20T10:24:29Z</time>
      </trkpt>
      <trkpt lat="45.90053" lon="4.98196">
        <ele>280</ele>
        <time>2018-10-20T10:24:30Z</time>
      </trkpt>
      <trkpt lat="45.90053" lon="4.98187">
        <ele>280</ele>
        <time>2018-10-20T10:24:31Z</time>
      </trkpt>
      <trkpt lat="45.90051" lon="4.98179">
        <ele>280</ele>
        <time>2018-10-20T10:24:32Z</time>
      </trkpt>
      <trkpt lat="45.9005" lon="4.9817">
        <ele>280</ele>
        <time>2018-10-20T10:24:33Z</time>
      </trkpt>
      <trkpt lat="45.90049" lon="4.98165">
        <ele>279</ele>
        <time>2018-10-20T10:24:34Z</time>
      </trkpt>
      <trkpt lat="45.90048" lon="4.98156">
        <ele>279</ele>
        <time>2018-10-20T10:24:35Z</time>
      </trkpt>
      <trkpt lat="45.90049" lon="4.98148">
        <ele>279</ele>
        <time>2018-10-20T10:24:36Z</time>
      </trkpt>
      <trkpt lat="45.90049" lon="4.9814">
        <ele>279</ele>
        <time>2018-10-20T10:24:37Z</time>
      </trkpt>
      <trkpt lat="45.90049" lon="4.98132">
        <ele>279</ele>
        <time>2018-10-20T10:24:38Z</time>
      </trkpt>
      <trkpt lat="45.90048" lon="4.98124">
        <ele>279</ele>
        <time>2018-10-20T10:24:39Z</time>
      </trkpt>
      <trkpt lat="45.90046" lon="4.98116">
        <ele>279</ele>
        <time>2018-10-20T10:24:40Z</time>
      </trkpt>
      <trkpt lat="45.90045" lon="4.98108">
        <ele>279</ele>
        <time>2018-10-20T10:24:41Z</time>
      </trkpt>
      <trkpt lat="45.90046" lon="4.98098">
        <ele>279</ele>
        <time>2018-10-20T10:24:42Z</time>
      </trkpt>
      <trkpt lat="45.90046" lon="4.98089">
        <ele>279</ele>
        <time>2018-10-20T10:24:43Z</time>
      </trkpt>
      <trkpt lat="45.90046" lon="4.9808">
        <ele>279</ele>
        <time>2018-10-20T10:24:44Z</time>
      </trkpt>
      <trkpt lat="45.90046" lon="4.9807">
        <ele>279</ele>
        <time>2018-10-20T10:24:45Z</time>
      </trkpt>
      <trkpt lat="45.90048" lon="4.98062">
        <ele>279</ele>
        <time>2018-10-20T10:24:46Z</time>
      </trkpt>
      <trkpt lat="45.90047" lon="4.98055">
        <ele>279</ele>
        <time>2018-10-20T10:24:47Z</time>
      </trkpt>
      <trkpt lat="45.90045" lon="4.98047">
        <ele>279</ele>
        <time>2018-10-20T10:24:48Z</time>
      </trkpt>
      <trkpt lat="45.90043" lon="4.98039">
        <ele>278</ele>
        <time>2018-10-20T10:24:49Z</time>
      </trkpt>
      <trkpt lat="45.90043" lon="4.98031">
        <ele>278</ele>
        <time>2018-10-20T10:24:50Z</time>
      </trkpt>
      <trkpt lat="45.90041" lon="4.98023">
        <ele>278</ele>
        <time>2018-10-20T10:24:51Z</time>
      </trkpt>
      <trkpt lat="45.90041" lon="4.98014">
        <ele>278</ele>
        <time>2018-10-20T10:24:52Z</time>
      </trkpt>
      <trkpt lat="45.90041" lon="4.98005">
        <ele>278</ele>
        <time>2018-10-20T10:24:53Z</time>
      </trkpt>
      <trkpt lat="45.9004" lon="4.97997">
        <ele>278</ele>
        <time>2018-10-20T10:24:54Z</time>
      </trkpt>
      <trkpt lat="45.9004" lon="4.97988">
        <ele>278</ele>
        <time>2018-10-20T10:24:55Z</time>
      </trkpt>
      <trkpt lat="45.90039" lon="4.9798">
        <ele>278</ele>
        <time>2018-10-20T10:24:56Z</time>
      </trkpt>
      <trkpt lat="45.90038" lon="4.97972">
        <ele>278</ele>
        <time>2018-10-20T10:24:57Z</time>
      </trkpt>
      <trkpt lat="45.90039" lon="4.97964">
        <ele>278</ele>
        <time>2018-10-20T10:24:58Z</time>
      </trkpt>
      <trkpt lat="45.90039" lon="4.97956">
        <ele>278</ele>
        <time>2018-10-20T10:24:59Z</time>
      </trkpt>
      <trkpt lat="45.90039" lon="4.97947">
        <ele>279</ele>
        <time>2018-10-20T10:25:00Z</time>
      </trkpt>
      <trkpt lat="45.90037" lon="4.97938">
        <ele>279</ele>
        <time>2018-10-20T10:25:01Z</time>
      </trkpt>
      <trkpt lat="45.90035" lon="4.97929">
        <ele>279</ele>
        <time>2018-10-20T10:25:02Z</time>
      </trkpt>
      <trkpt lat="45.90033" lon="4.97922">
        <ele>279</ele>
        <time>2018-10-20T10:25:03Z</time>
      </trkpt>
      <trkpt lat="45.9003" lon="4.97916">
        <ele>279</ele>
        <time>2018-10-20T10:25:04Z</time>
      </trkpt>
      <trkpt lat="45.90022" lon="4.97912">
        <ele>279</ele>
        <time>2018-10-20T10:25:06Z</time>
      </trkpt>
      <trkpt lat="45.90018" lon="4.97913">
        <ele>279</ele>
        <time>2018-10-20T10:25:07Z</time>
      </trkpt>
      <trkpt lat="45.90012" lon="4.97913">
        <ele>278</ele>
        <time>2018-10-20T10:25:08Z</time>
      </trkpt>
      <trkpt lat="45.90008" lon="4.97915">
        <ele>278</ele>
        <time>2018-10-20T10:25:09Z</time>
      </trkpt>
      <trkpt lat="45.90004" lon="4.97917">
        <ele>278</ele>
        <time>2018-10-20T10:25:10Z</time>
      </trkpt>
      <trkpt lat="45.89999" lon="4.97918">
        <ele>278</ele>
        <time>2018-10-20T10:25:11Z</time>
      </trkpt>
      <trkpt lat="45.89994" lon="4.97921">
        <ele>278</ele>
        <time>2018-10-20T10:25:12Z</time>
      </trkpt>
      <trkpt lat="45.89991" lon="4.97925">
        <ele>278</ele>
        <time>2018-10-20T10:25:13Z</time>
      </trkpt>
      <trkpt lat="45.89986" lon="4.97925">
        <ele>278</ele>
        <time>2018-10-20T10:25:14Z</time>
      </trkpt>
      <trkpt lat="45.89979" lon="4.97927">
        <ele>278</ele>
        <time>2018-10-20T10:25:15Z</time>
      </trkpt>
      <trkpt lat="45.89974" lon="4.9793">
        <ele>278</ele>
        <time>2018-10-20T10:25:16Z</time>
      </trkpt>
      <trkpt lat="45.89969" lon="4.97932">
        <ele>278</ele>
        <time>2018-10-20T10:25:17Z</time>
      </trkpt>
      <trkpt lat="45.89963" lon="4.97934">
        <ele>278</ele>
        <time>2018-10-20T10:25:18Z</time>
      </trkpt>
      <trkpt lat="45.89957" lon="4.97935">
        <ele>278</ele>
        <time>2018-10-20T10:25:19Z</time>
      </trkpt>
      <trkpt lat="45.89951" lon="4.97936">
        <ele>278</ele>
        <time>2018-10-20T10:25:20Z</time>
      </trkpt>
      <trkpt lat="45.89943" lon="4.97935">
        <ele>278</ele>
        <time>2018-10-20T10:25:21Z</time>
      </trkpt>
      <trkpt lat="45.89937" lon="4.97934">
        <ele>278</ele>
        <time>2018-10-20T10:25:22Z</time>
      </trkpt>
      <trkpt lat="45.8993" lon="4.97933">
        <ele>278</ele>
        <time>2018-10-20T10:25:23Z</time>
      </trkpt>
      <trkpt lat="45.89923" lon="4.97931">
        <ele>278</ele>
        <time>2018-10-20T10:25:24Z</time>
      </trkpt>
      <trkpt lat="45.89917" lon="4.97935">
        <ele>278</ele>
        <time>2018-10-20T10:25:25Z</time>
      </trkpt>
      <trkpt lat="45.89911" lon="4.97933">
        <ele>278</ele>
        <time>2018-10-20T10:25:26Z</time>
      </trkpt>
      <trkpt lat="45.89904" lon="4.97931">
        <ele>278</ele>
        <time>2018-10-20T10:25:27Z</time>
      </trkpt>
      <trkpt lat="45.89898" lon="4.97928">
        <ele>278</ele>
        <time>2018-10-20T10:25:28Z</time>
      </trkpt>
      <trkpt lat="45.89892" lon="4.97925">
        <ele>278</ele>
        <time>2018-10-20T10:25:29Z</time>
      </trkpt>
      <trkpt lat="45.89885" lon="4.97922">
        <ele>278</ele>
        <time>2018-10-20T10:25:30Z</time>
      </trkpt>
      <trkpt lat="45.8988" lon="4.97919">
        <ele>278</ele>
        <time>2018-10-20T10:25:31Z</time>
      </trkpt>
      <trkpt lat="45.89874" lon="4.97916">
        <ele>278</ele>
        <time>2018-10-20T10:25:32Z</time>
      </trkpt>
      <trkpt lat="45.8987" lon="4.97912">
        <ele>278</ele>
        <time>2018-10-20T10:25:33Z</time>
      </trkpt>
      <trkpt lat="45.89864" lon="4.97908">
        <ele>278</ele>
        <time>2018-10-20T10:25:34Z</time>
      </trkpt>
      <trkpt lat="45.89857" lon="4.97903">
        <ele>278</ele>
        <time>2018-10-20T10:25:35Z</time>
      </trkpt>
      <trkpt lat="45.89851" lon="4.979">
        <ele>278</ele>
        <time>2018-10-20T10:25:36Z</time>
      </trkpt>
      <trkpt lat="45.89845" lon="4.97896">
        <ele>278</ele>
        <time>2018-10-20T10:25:37Z</time>
      </trkpt>
      <trkpt lat="45.8984" lon="4.97893">
        <ele>278</ele>
        <time>2018-10-20T10:25:38Z</time>
      </trkpt>
      <trkpt lat="45.89835" lon="4.97891">
        <ele>278</ele>
        <time>2018-10-20T10:25:39Z</time>
      </trkpt>
      <trkpt lat="45.8983" lon="4.97888">
        <ele>278</ele>
        <time>2018-10-20T10:25:40Z</time>
      </trkpt>
      <trkpt lat="45.89825" lon="4.97885">
        <ele>278</ele>
        <time>2018-10-20T10:25:41Z</time>
      </trkpt>
      <trkpt lat="45.8982" lon="4.97881">
        <ele>278</ele>
        <time>2018-10-20T10:25:42Z</time>
      </trkpt>
      <trkpt lat="45.89816" lon="4.97877">
        <ele>278</ele>
        <time>2018-10-20T10:25:43Z</time>
      </trkpt>
      <trkpt lat="45.8981" lon="4.97875">
        <ele>278</ele>
        <time>2018-10-20T10:25:44Z</time>
      </trkpt>
      <trkpt lat="45.89805" lon="4.97871">
        <ele>278</ele>
        <time>2018-10-20T10:25:45Z</time>
      </trkpt>
      <trkpt lat="45.89801" lon="4.97868">
        <ele>278</ele>
        <time>2018-10-20T10:25:46Z</time>
      </trkpt>
      <trkpt lat="45.89796" lon="4.97864">
        <ele>278</ele>
        <time>2018-10-20T10:25:47Z</time>
      </trkpt>
      <trkpt lat="45.89789" lon="4.97862">
        <ele>278</ele>
        <time>2018-10-20T10:25:48Z</time>
      </trkpt>
      <trkpt lat="45.89782" lon="4.97858">
        <ele>278</ele>
        <time>2018-10-20T10:25:49Z</time>
      </trkpt>
      <trkpt lat="45.89778" lon="4.97855">
        <ele>278</ele>
        <time>2018-10-20T10:25:50Z</time>
      </trkpt>
      <trkpt lat="45.89773" lon="4.97851">
        <ele>278</ele>
        <time>2018-10-20T10:25:51Z</time>
      </trkpt>
      <trkpt lat="45.89769" lon="4.97849">
        <ele>278</ele>
        <time>2018-10-20T10:25:52Z</time>
      </trkpt>
      <trkpt lat="45.89763" lon="4.97845">
        <ele>278</ele>
        <time>2018-10-20T10:25:53Z</time>
      </trkpt>
      <trkpt lat="45.89758" lon="4.9784">
        <ele>278</ele>
        <time>2018-10-20T10:25:54Z</time>
      </trkpt>
      <trkpt lat="45.89753" lon="4.97836">
        <ele>278</ele>
        <time>2018-10-20T10:25:55Z</time>
      </trkpt>
      <trkpt lat="45.89748" lon="4.97833">
        <ele>278</ele>
        <time>2018-10-20T10:25:56Z</time>
      </trkpt>
      <trkpt lat="45.89742" lon="4.97829">
        <ele>278</ele>
        <time>2018-10-20T10:25:57Z</time>
      </trkpt>
      <trkpt lat="45.89737" lon="4.97825">
        <ele>279</ele>
        <time>2018-10-20T10:25:58Z</time>
      </trkpt>
      <trkpt lat="45.89732" lon="4.97822">
        <ele>279</ele>
        <time>2018-10-20T10:25:59Z</time>
      </trkpt>
      <trkpt lat="45.89728" lon="4.97819">
        <ele>279</ele>
        <time>2018-10-20T10:26:00Z</time>
      </trkpt>
      <trkpt lat="45.89722" lon="4.97816">
        <ele>279</ele>
        <time>2018-10-20T10:26:01Z</time>
      </trkpt>
      <trkpt lat="45.89717" lon="4.97812">
        <ele>279</ele>
        <time>2018-10-20T10:26:02Z</time>
      </trkpt>
      <trkpt lat="45.89712" lon="4.97808">
        <ele>279</ele>
        <time>2018-10-20T10:26:03Z</time>
      </trkpt>
      <trkpt lat="45.89706" lon="4.97804">
        <ele>280</ele>
        <time>2018-10-20T10:26:04Z</time>
      </trkpt>
      <trkpt lat="45.897" lon="4.978">
        <ele>280</ele>
        <time>2018-10-20T10:26:05Z</time>
      </trkpt>
      <trkpt lat="45.89697" lon="4.97797">
        <ele>280</ele>
        <time>2018-10-20T10:26:06Z</time>
      </trkpt>
      <trkpt lat="45.89692" lon="4.97792">
        <ele>280</ele>
        <time>2018-10-20T10:26:07Z</time>
      </trkpt>
      <trkpt lat="45.89688" lon="4.97788">
        <ele>280</ele>
        <time>2018-10-20T10:26:08Z</time>
      </trkpt>
      <trkpt lat="45.89683" lon="4.97784">
        <ele>280</ele>
        <time>2018-10-20T10:26:09Z</time>
      </trkpt>
      <trkpt lat="45.89679" lon="4.97781">
        <ele>280</ele>
        <time>2018-10-20T10:26:10Z</time>
      </trkpt>
      <trkpt lat="45.89675" lon="4.97778">
        <ele>280</ele>
        <time>2018-10-20T10:26:11Z</time>
      </trkpt>
      <trkpt lat="45.89668" lon="4.9777">
        <ele>280</ele>
        <time>2018-10-20T10:26:13Z</time>
      </trkpt>
      <trkpt lat="45.89664" lon="4.97764">
        <ele>280</ele>
        <time>2018-10-20T10:26:14Z</time>
      </trkpt>
      <trkpt lat="45.89663" lon="4.97757">
        <ele>280</ele>
        <time>2018-10-20T10:26:15Z</time>
      </trkpt>
      <trkpt lat="45.89662" lon="4.9775">
        <ele>280</ele>
        <time>2018-10-20T10:26:16Z</time>
      </trkpt>
      <trkpt lat="45.89661" lon="4.97745">
        <ele>280</ele>
        <time>2018-10-20T10:26:17Z</time>
      </trkpt>
      <trkpt lat="45.89664" lon="4.97738">
        <ele>280</ele>
        <time>2018-10-20T10:26:18Z</time>
      </trkpt>
      <trkpt lat="45.89666" lon="4.9773">
        <ele>280</ele>
        <time>2018-10-20T10:26:19Z</time>
      </trkpt>
      <trkpt lat="45.89665" lon="4.97721">
        <ele>280</ele>
        <time>2018-10-20T10:26:20Z</time>
      </trkpt>
      <trkpt lat="45.89666" lon="4.97714">
        <ele>280</ele>
        <time>2018-10-20T10:26:21Z</time>
      </trkpt>
      <trkpt lat="45.89667" lon="4.97708">
        <ele>280</ele>
        <time>2018-10-20T10:26:22Z</time>
      </trkpt>
      <trkpt lat="45.89667" lon="4.97699">
        <ele>280</ele>
        <time>2018-10-20T10:26:23Z</time>
      </trkpt>
      <trkpt lat="45.89669" lon="4.97691">
        <ele>280</ele>
        <time>2018-10-20T10:26:24Z</time>
      </trkpt>
      <trkpt lat="45.89671" lon="4.97683">
        <ele>280</ele>
        <time>2018-10-20T10:26:25Z</time>
      </trkpt>
      <trkpt lat="45.89672" lon="4.97675">
        <ele>280</ele>
        <time>2018-10-20T10:26:26Z</time>
      </trkpt>
      <trkpt lat="45.89674" lon="4.97667">
        <ele>280</ele>
        <time>2018-10-20T10:26:27Z</time>
      </trkpt>
      <trkpt lat="45.89675" lon="4.9766">
        <ele>280</ele>
        <time>2018-10-20T10:26:28Z</time>
      </trkpt>
      <trkpt lat="45.89677" lon="4.97653">
        <ele>281</ele>
        <time>2018-10-20T10:26:29Z</time>
      </trkpt>
      <trkpt lat="45.89679" lon="4.97646">
        <ele>281</ele>
        <time>2018-10-20T10:26:30Z</time>
      </trkpt>
      <trkpt lat="45.89679" lon="4.9764">
        <ele>281</ele>
        <time>2018-10-20T10:26:31Z</time>
      </trkpt>
      <trkpt lat="45.8968" lon="4.97633">
        <ele>281</ele>
        <time>2018-10-20T10:26:32Z</time>
      </trkpt>
      <trkpt lat="45.89681" lon="4.97625">
        <ele>281</ele>
        <time>2018-10-20T10:26:33Z</time>
      </trkpt>
      <trkpt lat="45.89682" lon="4.97619">
        <ele>281</ele>
        <time>2018-10-20T10:26:34Z</time>
      </trkpt>
      <trkpt lat="45.89683" lon="4.97607">
        <ele>282</ele>
        <time>2018-10-20T10:26:36Z</time>
      </trkpt>
      <trkpt lat="45.89683" lon="4.97598">
        <ele>282</ele>
        <time>2018-10-20T10:26:37Z</time>
      </trkpt>
      <trkpt lat="45.89686" lon="4.97586">
        <ele>282</ele>
        <time>2018-10-20T10:26:39Z</time>
      </trkpt>
      <trkpt lat="45.89687" lon="4.97583">
        <ele>284</ele>
        <time>2018-10-20T10:26:40Z</time>
      </trkpt>
      <trkpt lat="45.8969" lon="4.97573">
        <ele>284</ele>
        <time>2018-10-20T10:26:42Z</time>
      </trkpt>
      <trkpt lat="45.89691" lon="4.97567">
        <ele>284</ele>
        <time>2018-10-20T10:26:43Z</time>
      </trkpt>
      <trkpt lat="45.89694" lon="4.97556">
        <ele>284</ele>
        <time>2018-10-20T10:26:47Z</time>
      </trkpt>
      <trkpt lat="45.89695" lon="4.97553">
        <ele>284</ele>
        <time>2018-10-20T10:26:48Z</time>
      </trkpt>
      <trkpt lat="45.89697" lon="4.97545">
        <ele>284</ele>
        <time>2018-10-20T10:26:50Z</time>
      </trkpt>
      <trkpt lat="45.89698" lon="4.97539">
        <ele>284</ele>
        <time>2018-10-20T10:26:51Z</time>
      </trkpt>
      <trkpt lat="45.89702" lon="4.97528">
        <ele>285</ele>
        <time>2018-10-20T10:26:54Z</time>
      </trkpt>
      <trkpt lat="45.89703" lon="4.97524">
        <ele>285</ele>
        <time>2018-10-20T10:26:55Z</time>
      </trkpt>
      <trkpt lat="45.89705" lon="4.97515">
        <ele>285</ele>
        <time>2018-10-20T10:26:57Z</time>
      </trkpt>
      <trkpt lat="45.89708" lon="4.97502">
        <ele>285</ele>
        <time>2018-10-20T10:26:58Z</time>
      </trkpt>
      <trkpt lat="45.89709" lon="4.9749">
        <ele>287</ele>
        <time>2018-10-20T10:27:01Z</time>
      </trkpt>
      <trkpt lat="45.8971" lon="4.97487">
        <ele>287</ele>
        <time>2018-10-20T10:27:02Z</time>
      </trkpt>
      <trkpt lat="45.8971" lon="4.97482">
        <ele>287</ele>
        <time>2018-10-20T10:27:03Z</time>
      </trkpt>
      <trkpt lat="45.89711" lon="4.97472">
        <ele>287</ele>
        <time>2018-10-20T10:27:04Z</time>
      </trkpt>
      <trkpt lat="45.89712" lon="4.97461">
        <ele>287</ele>
        <time>2018-10-20T10:27:06Z</time>
      </trkpt>
      <trkpt lat="45.89713" lon="4.97455">
        <ele>287</ele>
        <time>2018-10-20T10:27:07Z</time>
      </trkpt>
      <trkpt lat="45.89715" lon="4.97443">
        <ele>287</ele>
        <time>2018-10-20T10:27:09Z</time>
      </trkpt>
      <trkpt lat="45.89716" lon="4.97438">
        <ele>287</ele>
        <time>2018-10-20T10:27:10Z</time>
      </trkpt>
      <trkpt lat="45.89718" lon="4.97427">
        <ele>287</ele>
        <time>2018-10-20T10:27:12Z</time>
      </trkpt>
      <trkpt lat="45.89719" lon="4.97421">
        <ele>287</ele>
        <time>2018-10-20T10:27:13Z</time>
      </trkpt>
      <trkpt lat="45.89723" lon="4.97412">
        <ele>288</ele>
        <time>2018-10-20T10:27:15Z</time>
      </trkpt>
      <trkpt lat="45.89725" lon="4.97407">
        <ele>288</ele>
        <time>2018-10-20T10:27:16Z</time>
      </trkpt>
      <trkpt lat="45.8973" lon="4.97397">
        <ele>288</ele>
        <time>2018-10-20T10:27:18Z</time>
      </trkpt>
      <trkpt lat="45.89733" lon="4.9739">
        <ele>287</ele>
        <time>2018-10-20T10:27:19Z</time>
      </trkpt>
      <trkpt lat="45.89735" lon="4.97384">
        <ele>287</ele>
        <time>2018-10-20T10:27:20Z</time>
      </trkpt>
      <trkpt lat="45.89738" lon="4.97378">
        <ele>287</ele>
        <time>2018-10-20T10:27:21Z</time>
      </trkpt>
      <trkpt lat="45.89741" lon="4.97371">
        <ele>287</ele>
        <time>2018-10-20T10:27:22Z</time>
      </trkpt>
      <trkpt lat="45.89743" lon="4.97364">
        <ele>287</ele>
        <time>2018-10-20T10:27:23Z</time>
      </trkpt>
      <trkpt lat="45.89748" lon="4.97354">
        <ele>287</ele>
        <time>2018-10-20T10:27:25Z</time>
      </trkpt>
      <trkpt lat="45.8975" lon="4.97351">
        <ele>287</ele>
        <time>2018-10-20T10:27:26Z</time>
      </trkpt>
      <trkpt lat="45.89754" lon="4.97341">
        <ele>287</ele>
        <time>2018-10-20T10:27:28Z</time>
      </trkpt>
      <trkpt lat="45.89757" lon="4.97336">
        <ele>287</ele>
        <time>2018-10-20T10:27:29Z</time>
      </trkpt>
      <trkpt lat="45.89761" lon="4.97331">
        <ele>287</ele>
        <time>2018-10-20T10:27:30Z</time>
      </trkpt>
      <trkpt lat="45.89763" lon="4.97325">
        <ele>287</ele>
        <time>2018-10-20T10:27:31Z</time>
      </trkpt>
      <trkpt lat="45.89766" lon="4.97319">
        <ele>286</ele>
        <time>2018-10-20T10:27:32Z</time>
      </trkpt>
      <trkpt lat="45.89769" lon="4.97314">
        <ele>286</ele>
        <time>2018-10-20T10:27:33Z</time>
      </trkpt>
      <trkpt lat="45.89771" lon="4.97307">
        <ele>286</ele>
        <time>2018-10-20T10:27:34Z</time>
      </trkpt>
      <trkpt lat="45.89774" lon="4.97301">
        <ele>286</ele>
        <time>2018-10-20T10:27:35Z</time>
      </trkpt>
      <trkpt lat="45.89776" lon="4.97294">
        <ele>286</ele>
        <time>2018-10-20T10:27:36Z</time>
      </trkpt>
      <trkpt lat="45.8978" lon="4.97288">
        <ele>286</ele>
        <time>2018-10-20T10:27:37Z</time>
      </trkpt>
      <trkpt lat="45.89783" lon="4.97283">
        <ele>286</ele>
        <time>2018-10-20T10:27:38Z</time>
      </trkpt>
      <trkpt lat="45.89787" lon="4.97276">
        <ele>286</ele>
        <time>2018-10-20T10:27:39Z</time>
      </trkpt>
      <trkpt lat="45.89791" lon="4.97269">
        <ele>286</ele>
        <time>2018-10-20T10:27:40Z</time>
      </trkpt>
      <trkpt lat="45.89793" lon="4.97263">
        <ele>286</ele>
        <time>2018-10-20T10:27:41Z</time>
      </trkpt>
      <trkpt lat="45.89796" lon="4.97257">
        <ele>286</ele>
        <time>2018-10-20T10:27:42Z</time>
      </trkpt>
      <trkpt lat="45.89799" lon="4.9725">
        <ele>286</ele>
        <time>2018-10-20T10:27:43Z</time>
      </trkpt>
      <trkpt lat="45.89801" lon="4.97242">
        <ele>286</ele>
        <time>2018-10-20T10:27:44Z</time>
      </trkpt>
      <trkpt lat="45.89801" lon="4.97236">
        <ele>286</ele>
        <time>2018-10-20T10:27:45Z</time>
      </trkpt>
      <trkpt lat="45.89801" lon="4.97229">
        <ele>286</ele>
        <time>2018-10-20T10:27:46Z</time>
      </trkpt>
      <trkpt lat="45.898" lon="4.97222">
        <ele>286</ele>
        <time>2018-10-20T10:27:47Z</time>
      </trkpt>
      <trkpt lat="45.89796" lon="4.97212">
        <ele>286</ele>
        <time>2018-10-20T10:27:49Z</time>
      </trkpt>
      <trkpt lat="45.89793" lon="4.97205">
        <ele>286</ele>
        <time>2018-10-20T10:27:50Z</time>
      </trkpt>
      <trkpt lat="45.8979" lon="4.97201">
        <ele>286</ele>
        <time>2018-10-20T10:27:51Z</time>
      </trkpt>
      <trkpt lat="45.89786" lon="4.97195">
        <ele>286</ele>
        <time>2018-10-20T10:27:52Z</time>
      </trkpt>
      <trkpt lat="45.89783" lon="4.97189">
        <ele>286</ele>
        <time>2018-10-20T10:27:53Z</time>
      </trkpt>
      <trkpt lat="45.89781" lon="4.97184">
        <ele>286</ele>
        <time>2018-10-20T10:27:54Z</time>
      </trkpt>
      <trkpt lat="45.89778" lon="4.97179">
        <ele>286</ele>
        <time>2018-10-20T10:27:55Z</time>
      </trkpt>
      <trkpt lat="45.89775" lon="4.97173">
        <ele>286</ele>
        <time>2018-10-20T10:27:56Z</time>
      </trkpt>
      <trkpt lat="45.89773" lon="4.97168">
        <ele>286</ele>
        <time>2018-10-20T10:27:57Z</time>
      </trkpt>
      <trkpt lat="45.8977" lon="4.97162">
        <ele>286</ele>
        <time>2018-10-20T10:27:58Z</time>
      </trkpt>
      <trkpt lat="45.89766" lon="4.97156">
        <ele>286</ele>
        <time>2018-10-20T10:27:59Z</time>
      </trkpt>
      <trkpt lat="45.89763" lon="4.97151">
        <ele>286</ele>
        <time>2018-10-20T10:28:00Z</time>
      </trkpt>
      <trkpt lat="45.8976" lon="4.97144">
        <ele>286</ele>
        <time>2018-10-20T10:28:01Z</time>
      </trkpt>
      <trkpt lat="45.89757" lon="4.97138">
        <ele>286</ele>
        <time>2018-10-20T10:28:02Z</time>
      </trkpt>
      <trkpt lat="45.89753" lon="4.97133">
        <ele>286</ele>
        <time>2018-10-20T10:28:03Z</time>
      </trkpt>
      <trkpt lat="45.89748" lon="4.97126">
        <ele>288</ele>
        <time>2018-10-20T10:28:04Z</time>
      </trkpt>
      <trkpt lat="45.89745" lon="4.97119">
        <ele>288</ele>
        <time>2018-10-20T10:28:05Z</time>
      </trkpt>
      <trkpt lat="45.8974" lon="4.97114">
        <ele>288</ele>
        <time>2018-10-20T10:28:06Z</time>
      </trkpt>
      <trkpt lat="45.89736" lon="4.97108">
        <ele>288</ele>
        <time>2018-10-20T10:28:07Z</time>
      </trkpt>
      <trkpt lat="45.89733" lon="4.97102">
        <ele>288</ele>
        <time>2018-10-20T10:28:08Z</time>
      </trkpt>
      <trkpt lat="45.8973" lon="4.97096">
        <ele>288</ele>
        <time>2018-10-20T10:28:09Z</time>
      </trkpt>
      <trkpt lat="45.89727" lon="4.97089">
        <ele>288</ele>
        <time>2018-10-20T10:28:10Z</time>
      </trkpt>
      <trkpt lat="45.89725" lon="4.97083">
        <ele>289</ele>
        <time>2018-10-20T10:28:11Z</time>
      </trkpt>
      <trkpt lat="45.89722" lon="4.97077">
        <ele>289</ele>
        <time>2018-10-20T10:28:12Z</time>
      </trkpt>
      <trkpt lat="45.89718" lon="4.97071">
        <ele>289</ele>
        <time>2018-10-20T10:28:13Z</time>
      </trkpt>
      <trkpt lat="45.89714" lon="4.97065">
        <ele>289</ele>
        <time>2018-10-20T10:28:14Z</time>
      </trkpt>
      <trkpt lat="45.89711" lon="4.97059">
        <ele>290</ele>
        <time>2018-10-20T10:28:15Z</time>
      </trkpt>
      <trkpt lat="45.89707" lon="4.97053">
        <ele>290</ele>
        <time>2018-10-20T10:28:16Z</time>
      </trkpt>
      <trkpt lat="45.89705" lon="4.97045">
        <ele>290</ele>
        <time>2018-10-20T10:28:17Z</time>
      </trkpt>
      <trkpt lat="45.897" lon="4.97038">
        <ele>290</ele>
        <time>2018-10-20T10:28:18Z</time>
      </trkpt>
      <trkpt lat="45.89696" lon="4.97031">
        <ele>290</ele>
        <time>2018-10-20T10:28:19Z</time>
      </trkpt>
      <trkpt lat="45.89693" lon="4.97025">
        <ele>291</ele>
        <time>2018-10-20T10:28:20Z</time>
      </trkpt>
      <trkpt lat="45.8969" lon="4.97018">
        <ele>291</ele>
        <time>2018-10-20T10:28:21Z</time>
      </trkpt>
      <trkpt lat="45.89686" lon="4.97011">
        <ele>292</ele>
        <time>2018-10-20T10:28:22Z</time>
      </trkpt>
      <trkpt lat="45.89682" lon="4.97005">
        <ele>292</ele>
        <time>2018-10-20T10:28:23Z</time>
      </trkpt>
      <trkpt lat="45.89679" lon="4.96999">
        <ele>293</ele>
        <time>2018-10-20T10:28:24Z</time>
      </trkpt>
      <trkpt lat="45.89675" lon="4.96994">
        <ele>293</ele>
        <time>2018-10-20T10:28:25Z</time>
      </trkpt>
      <trkpt lat="45.89671" lon="4.96991">
        <ele>293</ele>
        <time>2018-10-20T10:28:26Z</time>
      </trkpt>
      <trkpt lat="45.89665" lon="4.96982">
        <ele>295</ele>
        <time>2018-10-20T10:28:28Z</time>
      </trkpt>
      <trkpt lat="45.89662" lon="4.96979">
        <ele>295</ele>
        <time>2018-10-20T10:28:29Z</time>
      </trkpt>
      <trkpt lat="45.89658" lon="4.96967">
        <ele>295</ele>
        <time>2018-10-20T10:28:31Z</time>
      </trkpt>
      <trkpt lat="45.89657" lon="4.96966">
        <ele>295</ele>
        <time>2018-10-20T10:28:32Z</time>
      </trkpt>
      <trkpt lat="45.89655" lon="4.96963">
        <ele>295</ele>
        <time>2018-10-20T10:28:33Z</time>
      </trkpt>
      <trkpt lat="45.89651" lon="4.96955">
        <ele>295</ele>
        <time>2018-10-20T10:28:34Z</time>
      </trkpt>
      <trkpt lat="45.89647" lon="4.96947">
        <ele>295</ele>
        <time>2018-10-20T10:28:37Z</time>
      </trkpt>
      <trkpt lat="45.89645" lon="4.96944">
        <ele>295</ele>
        <time>2018-10-20T10:28:38Z</time>
      </trkpt>
      <trkpt lat="45.89639" lon="4.96936">
        <ele>295</ele>
        <time>2018-10-20T10:28:41Z</time>
      </trkpt>
      <trkpt lat="45.89638" lon="4.96934">
        <ele>295</ele>
        <time>2018-10-20T10:28:42Z</time>
      </trkpt>
      <trkpt lat="45.89633" lon="4.96928">
        <ele>295</ele>
        <time>2018-10-20T10:28:45Z</time>
      </trkpt>
      <trkpt lat="45.89631" lon="4.96924">
        <ele>295</ele>
        <time>2018-10-20T10:28:46Z</time>
      </trkpt>
      <trkpt lat="45.89625" lon="4.96916">
        <ele>294</ele>
        <time>2018-10-20T10:28:47Z</time>
      </trkpt>
      <trkpt lat="45.89622" lon="4.96913">
        <ele>294</ele>
        <time>2018-10-20T10:28:48Z</time>
      </trkpt>
      <trkpt lat="45.89615" lon="4.96905">
        <ele>294</ele>
        <time>2018-10-20T10:28:50Z</time>
      </trkpt>
      <trkpt lat="45.89612" lon="4.96901">
        <ele>294</ele>
        <time>2018-10-20T10:28:51Z</time>
      </trkpt>
      <trkpt lat="45.89609" lon="4.9689">
        <ele>294</ele>
        <time>2018-10-20T10:28:53Z</time>
      </trkpt>
      <trkpt lat="45.89606" lon="4.96885">
        <ele>294</ele>
        <time>2018-10-20T10:28:54Z</time>
      </trkpt>
      <trkpt lat="45.89604" lon="4.96878">
        <ele>294</ele>
        <time>2018-10-20T10:28:55Z</time>
      </trkpt>
      <trkpt lat="45.89602" lon="4.96872">
        <ele>294</ele>
        <time>2018-10-20T10:28:56Z</time>
      </trkpt>
      <trkpt lat="45.89601" lon="4.96865">
        <ele>294</ele>
        <time>2018-10-20T10:28:57Z</time>
      </trkpt>
      <trkpt lat="45.89601" lon="4.96858">
        <ele>294</ele>
        <time>2018-10-20T10:28:58Z</time>
      </trkpt>
      <trkpt lat="45.89601" lon="4.96848">
        <ele>294</ele>
        <time>2018-10-20T10:28:59Z</time>
      </trkpt>
      <trkpt lat="45.89604" lon="4.9684">
        <ele>294</ele>
        <time>2018-10-20T10:29:00Z</time>
      </trkpt>
      <trkpt lat="45.89606" lon="4.96828">
        <ele>293</ele>
        <time>2018-10-20T10:29:02Z</time>
      </trkpt>
      <trkpt lat="45.89608" lon="4.96821">
        <ele>293</ele>
        <time>2018-10-20T10:29:03Z</time>
      </trkpt>
      <trkpt lat="45.89609" lon="4.96814">
        <ele>293</ele>
        <time>2018-10-20T10:29:04Z</time>
      </trkpt>
      <trkpt lat="45.89611" lon="4.96808">
        <ele>293</ele>
        <time>2018-10-20T10:29:05Z</time>
      </trkpt>
      <trkpt lat="45.89612" lon="4.96801">
        <ele>293</ele>
        <time>2018-10-20T10:29:06Z</time>
      </trkpt>
      <trkpt lat="45.89614" lon="4.96793">
        <ele>293</ele>
        <time>2018-10-20T10:29:07Z</time>
      </trkpt>
      <trkpt lat="45.89614" lon="4.9678">
        <ele>292</ele>
        <time>2018-10-20T10:29:09Z</time>
      </trkpt>
      <trkpt lat="45.89616" lon="4.96774">
        <ele>292</ele>
        <time>2018-10-20T10:29:10Z</time>
      </trkpt>
      <trkpt lat="45.89619" lon="4.96762">
        <ele>292</ele>
        <time>2018-10-20T10:29:12Z</time>
      </trkpt>
      <trkpt lat="45.89619" lon="4.96756">
        <ele>292</ele>
        <time>2018-10-20T10:29:13Z</time>
      </trkpt>
      <trkpt lat="45.89621" lon="4.96745">
        <ele>292</ele>
        <time>2018-10-20T10:29:15Z</time>
      </trkpt>
      <trkpt lat="45.89622" lon="4.96738">
        <ele>292</ele>
        <time>2018-10-20T10:29:16Z</time>
      </trkpt>
      <trkpt lat="45.89625" lon="4.96734">
        <ele>292</ele>
        <time>2018-10-20T10:29:17Z</time>
      </trkpt>
      <trkpt lat="45.89627" lon="4.96728">
        <ele>292</ele>
        <time>2018-10-20T10:29:18Z</time>
      </trkpt>
      <trkpt lat="45.89629" lon="4.96721">
        <ele>292</ele>
        <time>2018-10-20T10:29:19Z</time>
      </trkpt>
      <trkpt lat="45.89629" lon="4.96713">
        <ele>292</ele>
        <time>2018-10-20T10:29:20Z</time>
      </trkpt>
      <trkpt lat="45.89632" lon="4.96704">
        <ele>292</ele>
        <time>2018-10-20T10:29:21Z</time>
      </trkpt>
      <trkpt lat="45.89634" lon="4.96696">
        <ele>292</ele>
        <time>2018-10-20T10:29:22Z</time>
      </trkpt>
      <trkpt lat="45.89637" lon="4.96688">
        <ele>292</ele>
        <time>2018-10-20T10:29:23Z</time>
      </trkpt>
      <trkpt lat="45.89638" lon="4.9668">
        <ele>292</ele>
        <time>2018-10-20T10:29:24Z</time>
      </trkpt>
      <trkpt lat="45.89639" lon="4.96673">
        <ele>292</ele>
        <time>2018-10-20T10:29:25Z</time>
      </trkpt>
      <trkpt lat="45.89638" lon="4.96666">
        <ele>291</ele>
        <time>2018-10-20T10:29:26Z</time>
      </trkpt>
      <trkpt lat="45.89637" lon="4.96656">
        <ele>291</ele>
        <time>2018-10-20T10:29:27Z</time>
      </trkpt>
      <trkpt lat="45.89636" lon="4.96647">
        <ele>290</ele>
        <time>2018-10-20T10:29:28Z</time>
      </trkpt>
      <trkpt lat="45.89634" lon="4.9664">
        <ele>290</ele>
        <time>2018-10-20T10:29:29Z</time>
      </trkpt>
      <trkpt lat="45.89633" lon="4.96632">
        <ele>290</ele>
        <time>2018-10-20T10:29:30Z</time>
      </trkpt>
      <trkpt lat="45.89632" lon="4.96626">
        <ele>290</ele>
        <time>2018-10-20T10:29:31Z</time>
      </trkpt>
      <trkpt lat="45.89632" lon="4.96618">
        <ele>290</ele>
        <time>2018-10-20T10:29:32Z</time>
      </trkpt>
      <trkpt lat="45.8963" lon="4.9661">
        <ele>290</ele>
        <time>2018-10-20T10:29:33Z</time>
      </trkpt>
      <trkpt lat="45.89627" lon="4.96599">
        <ele>290</ele>
        <time>2018-10-20T10:29:34Z</time>
      </trkpt>
      <trkpt lat="45.89626" lon="4.96591">
        <ele>289</ele>
        <time>2018-10-20T10:29:35Z</time>
      </trkpt>
      <trkpt lat="45.89624" lon="4.96584">
        <ele>289</ele>
        <time>2018-10-20T10:29:36Z</time>
      </trkpt>
      <trkpt lat="45.89622" lon="4.96577">
        <ele>287</ele>
        <time>2018-10-20T10:29:37Z</time>
      </trkpt>
      <trkpt lat="45.8962" lon="4.9657">
        <ele>287</ele>
        <time>2018-10-20T10:29:38Z</time>
      </trkpt>
      <trkpt lat="45.89617" lon="4.96563">
        <ele>287</ele>
        <time>2018-10-20T10:29:39Z</time>
      </trkpt>
      <trkpt lat="45.89614" lon="4.96555">
        <ele>287</ele>
        <time>2018-10-20T10:29:40Z</time>
      </trkpt>
      <trkpt lat="45.89612" lon="4.96548">
        <ele>287</ele>
        <time>2018-10-20T10:29:41Z</time>
      </trkpt>
      <trkpt lat="45.89608" lon="4.96541">
        <ele>287</ele>
        <time>2018-10-20T10:29:42Z</time>
      </trkpt>
      <trkpt lat="45.89606" lon="4.96534">
        <ele>286</ele>
        <time>2018-10-20T10:29:43Z</time>
      </trkpt>
      <trkpt lat="45.89605" lon="4.96526">
        <ele>286</ele>
        <time>2018-10-20T10:29:44Z</time>
      </trkpt>
      <trkpt lat="45.89603" lon="4.96518">
        <ele>286</ele>
        <time>2018-10-20T10:29:45Z</time>
      </trkpt>
      <trkpt lat="45.896" lon="4.96511">
        <ele>286</ele>
        <time>2018-10-20T10:29:46Z</time>
      </trkpt>
      <trkpt lat="45.89597" lon="4.96502">
        <ele>286</ele>
        <time>2018-10-20T10:29:47Z</time>
      </trkpt>
      <trkpt lat="45.89595" lon="4.96493">
        <ele>285</ele>
        <time>2018-10-20T10:29:48Z</time>
      </trkpt>
      <trkpt lat="45.8959" lon="4.96486">
        <ele>285</ele>
        <time>2018-10-20T10:29:49Z</time>
      </trkpt>
      <trkpt lat="45.89588" lon="4.96477">
        <ele>284</ele>
        <time>2018-10-20T10:29:50Z</time>
      </trkpt>
      <trkpt lat="45.89585" lon="4.9647">
        <ele>284</ele>
        <time>2018-10-20T10:29:51Z</time>
      </trkpt>
      <trkpt lat="45.89583" lon="4.96462">
        <ele>285</ele>
        <time>2018-10-20T10:29:52Z</time>
      </trkpt>
      <trkpt lat="45.89581" lon="4.96452">
        <ele>284</ele>
        <time>2018-10-20T10:29:53Z</time>
      </trkpt>
      <trkpt lat="45.89577" lon="4.96444">
        <ele>284</ele>
        <time>2018-10-20T10:29:54Z</time>
      </trkpt>
      <trkpt lat="45.89575" lon="4.96436">
        <ele>284</ele>
        <time>2018-10-20T10:29:55Z</time>
      </trkpt>
      <trkpt lat="45.89572" lon="4.96428">
        <ele>284</ele>
        <time>2018-10-20T10:29:56Z</time>
      </trkpt>
      <trkpt lat="45.8957" lon="4.96418">
        <ele>284</ele>
        <time>2018-10-20T10:29:57Z</time>
      </trkpt>
      <trkpt lat="45.89568" lon="4.96411">
        <ele>284</ele>
        <time>2018-10-20T10:29:58Z</time>
      </trkpt>
      <trkpt lat="45.89565" lon="4.96403">
        <ele>283</ele>
        <time>2018-10-20T10:29:59Z</time>
      </trkpt>
      <trkpt lat="45.89563" lon="4.96395">
        <ele>283</ele>
        <time>2018-10-20T10:30:00Z</time>
      </trkpt>
      <trkpt lat="45.89561" lon="4.96387">
        <ele>283</ele>
        <time>2018-10-20T10:30:01Z</time>
      </trkpt>
      <trkpt lat="45.89558" lon="4.96379">
        <ele>283</ele>
        <time>2018-10-20T10:30:02Z</time>
      </trkpt>
      <trkpt lat="45.89556" lon="4.96371">
        <ele>283</ele>
        <time>2018-10-20T10:30:03Z</time>
      </trkpt>
      <trkpt lat="45.89553" lon="4.96363">
        <ele>283</ele>
        <time>2018-10-20T10:30:04Z</time>
      </trkpt>
      <trkpt lat="45.8955" lon="4.96356">
        <ele>283</ele>
        <time>2018-10-20T10:30:05Z</time>
      </trkpt>
      <trkpt lat="45.89547" lon="4.96348">
        <ele>283</ele>
        <time>2018-10-20T10:30:06Z</time>
      </trkpt>
      <trkpt lat="45.89545" lon="4.96339">
        <ele>283</ele>
        <time>2018-10-20T10:30:07Z</time>
      </trkpt>
      <trkpt lat="45.89543" lon="4.96332">
        <ele>282</ele>
        <time>2018-10-20T10:30:08Z</time>
      </trkpt>
      <trkpt lat="45.8954" lon="4.96324">
        <ele>282</ele>
        <time>2018-10-20T10:30:09Z</time>
      </trkpt>
      <trkpt lat="45.89538" lon="4.96315">
        <ele>282</ele>
        <time>2018-10-20T10:30:10Z</time>
      </trkpt>
      <trkpt lat="45.89535" lon="4.96307">
        <ele>282</ele>
        <time>2018-10-20T10:30:11Z</time>
      </trkpt>
      <trkpt lat="45.89533" lon="4.96297">
        <ele>282</ele>
        <time>2018-10-20T10:30:12Z</time>
      </trkpt>
      <trkpt lat="45.8953" lon="4.96289">
        <ele>282</ele>
        <time>2018-10-20T10:30:13Z</time>
      </trkpt>
      <trkpt lat="45.89528" lon="4.96281">
        <ele>282</ele>
        <time>2018-10-20T10:30:14Z</time>
      </trkpt>
      <trkpt lat="45.89524" lon="4.96273">
        <ele>282</ele>
        <time>2018-10-20T10:30:15Z</time>
      </trkpt>
      <trkpt lat="45.89521" lon="4.96266">
        <ele>282</ele>
        <time>2018-10-20T10:30:16Z</time>
      </trkpt>
      <trkpt lat="45.89518" lon="4.96259">
        <ele>282</ele>
        <time>2018-10-20T10:30:17Z</time>
      </trkpt>
      <trkpt lat="45.89516" lon="4.96253">
        <ele>281</ele>
        <time>2018-10-20T10:30:18Z</time>
      </trkpt>
      <trkpt lat="45.89513" lon="4.96246">
        <ele>281</ele>
        <time>2018-10-20T10:30:19Z</time>
      </trkpt>
      <trkpt lat="45.89511" lon="4.96241">
        <ele>281</ele>
        <time>2018-10-20T10:30:20Z</time>
      </trkpt>
      <trkpt lat="45.89509" lon="4.96233">
        <ele>281</ele>
        <time>2018-10-20T10:30:21Z</time>
      </trkpt>
      <trkpt lat="45.89506" lon="4.96227">
        <ele>281</ele>
        <time>2018-10-20T10:30:22Z</time>
      </trkpt>
      <trkpt lat="45.89505" lon="4.96219">
        <ele>281</ele>
        <time>2018-10-20T10:30:23Z</time>
      </trkpt>
      <trkpt lat="45.89501" lon="4.96211">
        <ele>281</ele>
        <time>2018-10-20T10:30:24Z</time>
      </trkpt>
      <trkpt lat="45.89499" lon="4.96203">
        <ele>280</ele>
        <time>2018-10-20T10:30:25Z</time>
      </trkpt>
      <trkpt lat="45.89497" lon="4.96192">
        <ele>280</ele>
        <time>2018-10-20T10:30:26Z</time>
      </trkpt>
      <trkpt lat="45.89495" lon="4.96183">
        <ele>280</ele>
        <time>2018-10-20T10:30:27Z</time>
      </trkpt>
      <trkpt lat="45.89493" lon="4.96173">
        <ele>280</ele>
        <time>2018-10-20T10:30:28Z</time>
      </trkpt>
      <trkpt lat="45.89494" lon="4.96165">
        <ele>280</ele>
        <time>2018-10-20T10:30:29Z</time>
      </trkpt>
      <trkpt lat="45.89493" lon="4.96154">
        <ele>280</ele>
        <time>2018-10-20T10:30:30Z</time>
      </trkpt>
      <trkpt lat="45.89492" lon="4.96145">
        <ele>280</ele>
        <time>2018-10-20T10:30:31Z</time>
      </trkpt>
      <trkpt lat="45.89492" lon="4.96135">
        <ele>279</ele>
        <time>2018-10-20T10:30:32Z</time>
      </trkpt>
      <trkpt lat="45.89495" lon="4.96127">
        <ele>279</ele>
        <time>2018-10-20T10:30:33Z</time>
      </trkpt>
      <trkpt lat="45.89497" lon="4.96117">
        <ele>279</ele>
        <time>2018-10-20T10:30:34Z</time>
      </trkpt>
      <trkpt lat="45.89496" lon="4.96106">
        <ele>279</ele>
        <time>2018-10-20T10:30:35Z</time>
      </trkpt>
      <trkpt lat="45.89487" lon="4.96095">
        <ele>279</ele>
        <time>2018-10-20T10:30:36Z</time>
      </trkpt>
      <trkpt lat="45.89487" lon="4.96085">
        <ele>279</ele>
        <time>2018-10-20T10:30:37Z</time>
      </trkpt>
      <trkpt lat="45.89484" lon="4.96074">
        <ele>278</ele>
        <time>2018-10-20T10:30:38Z</time>
      </trkpt>
      <trkpt lat="45.89484" lon="4.96064">
        <ele>278</ele>
        <time>2018-10-20T10:30:39Z</time>
      </trkpt>
      <trkpt lat="45.89485" lon="4.96053">
        <ele>278</ele>
        <time>2018-10-20T10:30:40Z</time>
      </trkpt>
      <trkpt lat="45.89483" lon="4.96044">
        <ele>278</ele>
        <time>2018-10-20T10:30:41Z</time>
      </trkpt>
      <trkpt lat="45.89484" lon="4.96035">
        <ele>278</ele>
        <time>2018-10-20T10:30:42Z</time>
      </trkpt>
      <trkpt lat="45.89483" lon="4.96026">
        <ele>278</ele>
        <time>2018-10-20T10:30:43Z</time>
      </trkpt>
      <trkpt lat="45.89483" lon="4.96017">
        <ele>278</ele>
        <time>2018-10-20T10:30:44Z</time>
      </trkpt>
      <trkpt lat="45.89483" lon="4.96008">
        <ele>278</ele>
        <time>2018-10-20T10:30:45Z</time>
      </trkpt>
      <trkpt lat="45.89483" lon="4.95999">
        <ele>277</ele>
        <time>2018-10-20T10:30:46Z</time>
      </trkpt>
      <trkpt lat="45.89483" lon="4.9599">
        <ele>277</ele>
        <time>2018-10-20T10:30:47Z</time>
      </trkpt>
      <trkpt lat="45.89483" lon="4.95981">
        <ele>277</ele>
        <time>2018-10-20T10:30:48Z</time>
      </trkpt>
      <trkpt lat="45.89485" lon="4.95975">
        <ele>277</ele>
        <time>2018-10-20T10:30:49Z</time>
      </trkpt>
      <trkpt lat="45.89484" lon="4.95966">
        <ele>278</ele>
        <time>2018-10-20T10:30:50Z</time>
      </trkpt>
      <trkpt lat="45.89483" lon="4.95957">
        <ele>278</ele>
        <time>2018-10-20T10:30:51Z</time>
      </trkpt>
      <trkpt lat="45.89482" lon="4.95947">
        <ele>278</ele>
        <time>2018-10-20T10:30:52Z</time>
      </trkpt>
      <trkpt lat="45.8948" lon="4.95937">
        <ele>278</ele>
        <time>2018-10-20T10:30:53Z</time>
      </trkpt>
      <trkpt lat="45.89476" lon="4.95927">
        <ele>278</ele>
        <time>2018-10-20T10:30:54Z</time>
      </trkpt>
      <trkpt lat="45.89475" lon="4.95918">
        <ele>278</ele>
        <time>2018-10-20T10:30:55Z</time>
      </trkpt>
      <trkpt lat="45.89474" lon="4.95908">
        <ele>278</ele>
        <time>2018-10-20T10:30:56Z</time>
      </trkpt>
      <trkpt lat="45.89473" lon="4.95899">
        <ele>278</ele>
        <time>2018-10-20T10:30:57Z</time>
      </trkpt>
      <trkpt lat="45.89471" lon="4.9589">
        <ele>278</ele>
        <time>2018-10-20T10:30:58Z</time>
      </trkpt>
      <trkpt lat="45.89469" lon="4.95882">
        <ele>278</ele>
        <time>2018-10-20T10:30:59Z</time>
      </trkpt>
      <trkpt lat="45.89467" lon="4.95874">
        <ele>278</ele>
        <time>2018-10-20T10:31:00Z</time>
      </trkpt>
      <trkpt lat="45.89466" lon="4.95866">
        <ele>278</ele>
        <time>2018-10-20T10:31:01Z</time>
      </trkpt>
      <trkpt lat="45.89464" lon="4.95858">
        <ele>278</ele>
        <time>2018-10-20T10:31:02Z</time>
      </trkpt>
      <trkpt lat="45.89462" lon="4.95849">
        <ele>278</ele>
        <time>2018-10-20T10:31:03Z</time>
      </trkpt>
      <trkpt lat="45.89461" lon="4.9584">
        <ele>278</ele>
        <time>2018-10-20T10:31:04Z</time>
      </trkpt>
      <trkpt lat="45.89459" lon="4.95831">
        <ele>278</ele>
        <time>2018-10-20T10:31:05Z</time>
      </trkpt>
      <trkpt lat="45.89456" lon="4.95822">
        <ele>278</ele>
        <time>2018-10-20T10:31:06Z</time>
      </trkpt>
      <trkpt lat="45.89454" lon="4.95813">
        <ele>278</ele>
        <time>2018-10-20T10:31:07Z</time>
      </trkpt>
      <trkpt lat="45.89452" lon="4.95805">
        <ele>278</ele>
        <time>2018-10-20T10:31:08Z</time>
      </trkpt>
      <trkpt lat="45.89449" lon="4.95797">
        <ele>278</ele>
        <time>2018-10-20T10:31:09Z</time>
      </trkpt>
      <trkpt lat="45.89448" lon="4.95792">
        <ele>278</ele>
        <time>2018-10-20T10:31:10Z</time>
      </trkpt>
      <trkpt lat="45.89446" lon="4.95784">
        <ele>279</ele>
        <time>2018-10-20T10:31:11Z</time>
      </trkpt>
      <trkpt lat="45.89444" lon="4.95777">
        <ele>279</ele>
        <time>2018-10-20T10:31:12Z</time>
      </trkpt>
      <trkpt lat="45.89443" lon="4.95769">
        <ele>279</ele>
        <time>2018-10-20T10:31:13Z</time>
      </trkpt>
      <trkpt lat="45.89441" lon="4.9576">
        <ele>279</ele>
        <time>2018-10-20T10:31:14Z</time>
      </trkpt>
      <trkpt lat="45.8944" lon="4.95753">
        <ele>279</ele>
        <time>2018-10-20T10:31:15Z</time>
      </trkpt>
      <trkpt lat="45.89439" lon="4.95744">
        <ele>279</ele>
        <time>2018-10-20T10:31:16Z</time>
      </trkpt>
      <trkpt lat="45.89437" lon="4.95736">
        <ele>279</ele>
        <time>2018-10-20T10:31:17Z</time>
      </trkpt>
      <trkpt lat="45.89435" lon="4.95728">
        <ele>278</ele>
        <time>2018-10-20T10:31:18Z</time>
      </trkpt>
      <trkpt lat="45.89433" lon="4.95719">
        <ele>278</ele>
        <time>2018-10-20T10:31:19Z</time>
      </trkpt>
      <trkpt lat="45.89431" lon="4.9571">
        <ele>278</ele>
        <time>2018-10-20T10:31:20Z</time>
      </trkpt>
      <trkpt lat="45.89429" lon="4.95702">
        <ele>278</ele>
        <time>2018-10-20T10:31:21Z</time>
      </trkpt>
      <trkpt lat="45.89427" lon="4.95693">
        <ele>278</ele>
        <time>2018-10-20T10:31:22Z</time>
      </trkpt>
      <trkpt lat="45.89425" lon="4.95685">
        <ele>278</ele>
        <time>2018-10-20T10:31:23Z</time>
      </trkpt>
      <trkpt lat="45.89424" lon="4.95677">
        <ele>279</ele>
        <time>2018-10-20T10:31:24Z</time>
      </trkpt>
      <trkpt lat="45.89423" lon="4.95669">
        <ele>279</ele>
        <time>2018-10-20T10:31:25Z</time>
      </trkpt>
      <trkpt lat="45.89421" lon="4.95661">
        <ele>279</ele>
        <time>2018-10-20T10:31:26Z</time>
      </trkpt>
      <trkpt lat="45.89419" lon="4.95654">
        <ele>278</ele>
        <time>2018-10-20T10:31:27Z</time>
      </trkpt>
      <trkpt lat="45.89417" lon="4.95646">
        <ele>278</ele>
        <time>2018-10-20T10:31:28Z</time>
      </trkpt>
      <trkpt lat="45.89416" lon="4.95639">
        <ele>278</ele>
        <time>2018-10-20T10:31:29Z</time>
      </trkpt>
      <trkpt lat="45.89414" lon="4.95631">
        <ele>278</ele>
        <time>2018-10-20T10:31:30Z</time>
      </trkpt>
      <trkpt lat="45.89413" lon="4.95623">
        <ele>278</ele>
        <time>2018-10-20T10:31:31Z</time>
      </trkpt>
      <trkpt lat="45.89411" lon="4.95614">
        <ele>278</ele>
        <time>2018-10-20T10:31:32Z</time>
      </trkpt>
      <trkpt lat="45.89409" lon="4.95605">
        <ele>278</ele>
        <time>2018-10-20T10:31:33Z</time>
      </trkpt>
      <trkpt lat="45.89406" lon="4.95596">
        <ele>278</ele>
        <time>2018-10-20T10:31:34Z</time>
      </trkpt>
      <trkpt lat="45.89402" lon="4.95588">
        <ele>278</ele>
        <time>2018-10-20T10:31:35Z</time>
      </trkpt>
      <trkpt lat="45.894" lon="4.95579">
        <ele>277</ele>
        <time>2018-10-20T10:31:36Z</time>
      </trkpt>
      <trkpt lat="45.89397" lon="4.95572">
        <ele>277</ele>
        <time>2018-10-20T10:31:37Z</time>
      </trkpt>
      <trkpt lat="45.89395" lon="4.95563">
        <ele>277</ele>
        <time>2018-10-20T10:31:38Z</time>
      </trkpt>
      <trkpt lat="45.89394" lon="4.95555">
        <ele>277</ele>
        <time>2018-10-20T10:31:39Z</time>
      </trkpt>
      <trkpt lat="45.89392" lon="4.95546">
        <ele>277</ele>
        <time>2018-10-20T10:31:40Z</time>
      </trkpt>
      <trkpt lat="45.89389" lon="4.9554">
        <ele>277</ele>
        <time>2018-10-20T10:31:41Z</time>
      </trkpt>
      <trkpt lat="45.89387" lon="4.95531">
        <ele>277</ele>
        <time>2018-10-20T10:31:42Z</time>
      </trkpt>
      <trkpt lat="45.89386" lon="4.95524">
        <ele>277</ele>
        <time>2018-10-20T10:31:43Z</time>
      </trkpt>
      <trkpt lat="45.89385" lon="4.95516">
        <ele>277</ele>
        <time>2018-10-20T10:31:44Z</time>
      </trkpt>
      <trkpt lat="45.89382" lon="4.95508">
        <ele>277</ele>
        <time>2018-10-20T10:31:45Z</time>
      </trkpt>
      <trkpt lat="45.89381" lon="4.95502">
        <ele>277</ele>
        <time>2018-10-20T10:31:46Z</time>
      </trkpt>
      <trkpt lat="45.8938" lon="4.95493">
        <ele>276</ele>
        <time>2018-10-20T10:31:47Z</time>
      </trkpt>
      <trkpt lat="45.89375" lon="4.95484">
        <ele>276</ele>
        <time>2018-10-20T10:31:48Z</time>
      </trkpt>
      <trkpt lat="45.89373" lon="4.95477">
        <ele>276</ele>
        <time>2018-10-20T10:31:49Z</time>
      </trkpt>
      <trkpt lat="45.89373" lon="4.95469">
        <ele>276</ele>
        <time>2018-10-20T10:31:50Z</time>
      </trkpt>
      <trkpt lat="45.89372" lon="4.9546">
        <ele>275</ele>
        <time>2018-10-20T10:31:51Z</time>
      </trkpt>
      <trkpt lat="45.89371" lon="4.95452">
        <ele>275</ele>
        <time>2018-10-20T10:31:52Z</time>
      </trkpt>
      <trkpt lat="45.8937" lon="4.95444">
        <ele>275</ele>
        <time>2018-10-20T10:31:53Z</time>
      </trkpt>
      <trkpt lat="45.89368" lon="4.95437">
        <ele>275</ele>
        <time>2018-10-20T10:31:54Z</time>
      </trkpt>
      <trkpt lat="45.89367" lon="4.95428">
        <ele>275</ele>
        <time>2018-10-20T10:31:55Z</time>
      </trkpt>
      <trkpt lat="45.89367" lon="4.95421">
        <ele>275</ele>
        <time>2018-10-20T10:31:56Z</time>
      </trkpt>
      <trkpt lat="45.89366" lon="4.95413">
        <ele>275</ele>
        <time>2018-10-20T10:31:57Z</time>
      </trkpt>
      <trkpt lat="45.89366" lon="4.95404">
        <ele>275</ele>
        <time>2018-10-20T10:31:58Z</time>
      </trkpt>
      <trkpt lat="45.89368" lon="4.95399">
        <ele>275</ele>
        <time>2018-10-20T10:31:59Z</time>
      </trkpt>
      <trkpt lat="45.89367" lon="4.9539">
        <ele>275</ele>
        <time>2018-10-20T10:32:00Z</time>
      </trkpt>
      <trkpt lat="45.89365" lon="4.95381">
        <ele>274</ele>
        <time>2018-10-20T10:32:01Z</time>
      </trkpt>
      <trkpt lat="45.89361" lon="4.95373">
        <ele>274</ele>
        <time>2018-10-20T10:32:02Z</time>
      </trkpt>
      <trkpt lat="45.89358" lon="4.95364">
        <ele>274</ele>
        <time>2018-10-20T10:32:03Z</time>
      </trkpt>
      <trkpt lat="45.89356" lon="4.95356">
        <ele>274</ele>
        <time>2018-10-20T10:32:04Z</time>
      </trkpt>
      <trkpt lat="45.89354" lon="4.95346">
        <ele>274</ele>
        <time>2018-10-20T10:32:05Z</time>
      </trkpt>
      <trkpt lat="45.89352" lon="4.95337">
        <ele>274</ele>
        <time>2018-10-20T10:32:06Z</time>
      </trkpt>
      <trkpt lat="45.8935" lon="4.95327">
        <ele>274</ele>
        <time>2018-10-20T10:32:07Z</time>
      </trkpt>
      <trkpt lat="45.89347" lon="4.95317">
        <ele>274</ele>
        <time>2018-10-20T10:32:08Z</time>
      </trkpt>
      <trkpt lat="45.89346" lon="4.95307">
        <ele>274</ele>
        <time>2018-10-20T10:32:09Z</time>
      </trkpt>
      <trkpt lat="45.89344" lon="4.95298">
        <ele>274</ele>
        <time>2018-10-20T10:32:10Z</time>
      </trkpt>
      <trkpt lat="45.89342" lon="4.95289">
        <ele>274</ele>
        <time>2018-10-20T10:32:11Z</time>
      </trkpt>
      <trkpt lat="45.89339" lon="4.95281">
        <ele>274</ele>
        <time>2018-10-20T10:32:12Z</time>
      </trkpt>
      <trkpt lat="45.89337" lon="4.95272">
        <ele>274</ele>
        <time>2018-10-20T10:32:13Z</time>
      </trkpt>
      <trkpt lat="45.89335" lon="4.95263">
        <ele>274</ele>
        <time>2018-10-20T10:32:14Z</time>
      </trkpt>
      <trkpt lat="45.89333" lon="4.95254">
        <ele>274</ele>
        <time>2018-10-20T10:32:15Z</time>
      </trkpt>
      <trkpt lat="45.89332" lon="4.95246">
        <ele>274</ele>
        <time>2018-10-20T10:32:16Z</time>
      </trkpt>
      <trkpt lat="45.89329" lon="4.95237">
        <ele>274</ele>
        <time>2018-10-20T10:32:17Z</time>
      </trkpt>
      <trkpt lat="45.89326" lon="4.9523">
        <ele>275</ele>
        <time>2018-10-20T10:32:18Z</time>
      </trkpt>
      <trkpt lat="45.89326" lon="4.95222">
        <ele>275</ele>
        <time>2018-10-20T10:32:19Z</time>
      </trkpt>
      <trkpt lat="45.89324" lon="4.95215">
        <ele>275</ele>
        <time>2018-10-20T10:32:20Z</time>
      </trkpt>
      <trkpt lat="45.89322" lon="4.95207">
        <ele>275</ele>
        <time>2018-10-20T10:32:21Z</time>
      </trkpt>
      <trkpt lat="45.89321" lon="4.952">
        <ele>275</ele>
        <time>2018-10-20T10:32:22Z</time>
      </trkpt>
      <trkpt lat="45.89319" lon="4.95192">
        <ele>275</ele>
        <time>2018-10-20T10:32:23Z</time>
      </trkpt>
      <trkpt lat="45.89317" lon="4.95185">
        <ele>275</ele>
        <time>2018-10-20T10:32:24Z</time>
      </trkpt>
      <trkpt lat="45.89315" lon="4.95177">
        <ele>275</ele>
        <time>2018-10-20T10:32:25Z</time>
      </trkpt>
      <trkpt lat="45.89314" lon="4.95169">
        <ele>275</ele>
        <time>2018-10-20T10:32:26Z</time>
      </trkpt>
      <trkpt lat="45.89313" lon="4.95162">
        <ele>275</ele>
        <time>2018-10-20T10:32:27Z</time>
      </trkpt>
      <trkpt lat="45.89311" lon="4.95151">
        <ele>275</ele>
        <time>2018-10-20T10:32:28Z</time>
      </trkpt>
      <trkpt lat="45.89311" lon="4.95144">
        <ele>275</ele>
        <time>2018-10-20T10:32:29Z</time>
      </trkpt>
      <trkpt lat="45.89307" lon="4.95137">
        <ele>275</ele>
        <time>2018-10-20T10:32:30Z</time>
      </trkpt>
      <trkpt lat="45.89308" lon="4.9513">
        <ele>275</ele>
        <time>2018-10-20T10:32:31Z</time>
      </trkpt>
      <trkpt lat="45.8931" lon="4.95122">
        <ele>274</ele>
        <time>2018-10-20T10:32:32Z</time>
      </trkpt>
      <trkpt lat="45.89313" lon="4.95115">
        <ele>274</ele>
        <time>2018-10-20T10:32:33Z</time>
      </trkpt>
      <trkpt lat="45.89315" lon="4.95109">
        <ele>274</ele>
        <time>2018-10-20T10:32:34Z</time>
      </trkpt>
      <trkpt lat="45.89318" lon="4.95102">
        <ele>274</ele>
        <time>2018-10-20T10:32:35Z</time>
      </trkpt>
      <trkpt lat="45.89319" lon="4.95094">
        <ele>274</ele>
        <time>2018-10-20T10:32:36Z</time>
      </trkpt>
      <trkpt lat="45.89321" lon="4.95086">
        <ele>274</ele>
        <time>2018-10-20T10:32:37Z</time>
      </trkpt>
      <trkpt lat="45.89323" lon="4.95078">
        <ele>274</ele>
        <time>2018-10-20T10:32:38Z</time>
      </trkpt>
      <trkpt lat="45.89327" lon="4.95072">
        <ele>273</ele>
        <time>2018-10-20T10:32:39Z</time>
      </trkpt>
      <trkpt lat="45.89329" lon="4.95064">
        <ele>273</ele>
        <time>2018-10-20T10:32:40Z</time>
      </trkpt>
      <trkpt lat="45.89332" lon="4.95057">
        <ele>273</ele>
        <time>2018-10-20T10:32:41Z</time>
      </trkpt>
      <trkpt lat="45.89334" lon="4.95049">
        <ele>274</ele>
        <time>2018-10-20T10:32:42Z</time>
      </trkpt>
      <trkpt lat="45.89335" lon="4.9504">
        <ele>274</ele>
        <time>2018-10-20T10:32:43Z</time>
      </trkpt>
      <trkpt lat="45.89337" lon="4.95032">
        <ele>274</ele>
        <time>2018-10-20T10:32:44Z</time>
      </trkpt>
      <trkpt lat="45.89338" lon="4.95024">
        <ele>274</ele>
        <time>2018-10-20T10:32:45Z</time>
      </trkpt>
      <trkpt lat="45.89341" lon="4.95017">
        <ele>273</ele>
        <time>2018-10-20T10:32:46Z</time>
      </trkpt>
      <trkpt lat="45.89343" lon="4.95009">
        <ele>273</ele>
        <time>2018-10-20T10:32:47Z</time>
      </trkpt>
      <trkpt lat="45.89346" lon="4.95">
        <ele>273</ele>
        <time>2018-10-20T10:32:48Z</time>
      </trkpt>
      <trkpt lat="45.89349" lon="4.94992">
        <ele>273</ele>
        <time>2018-10-20T10:32:49Z</time>
      </trkpt>
      <trkpt lat="45.8935" lon="4.94985">
        <ele>273</ele>
        <time>2018-10-20T10:32:50Z</time>
      </trkpt>
      <trkpt lat="45.89353" lon="4.94978">
        <ele>273</ele>
        <time>2018-10-20T10:32:51Z</time>
      </trkpt>
      <trkpt lat="45.89355" lon="4.94971">
        <ele>274</ele>
        <time>2018-10-20T10:32:52Z</time>
      </trkpt>
      <trkpt lat="45.89356" lon="4.94965">
        <ele>274</ele>
        <time>2018-10-20T10:32:53Z</time>
      </trkpt>
      <trkpt lat="45.89358" lon="4.94958">
        <ele>274</ele>
        <time>2018-10-20T10:32:54Z</time>
      </trkpt>
      <trkpt lat="45.89361" lon="4.94951">
        <ele>274</ele>
        <time>2018-10-20T10:32:55Z</time>
      </trkpt>
      <trkpt lat="45.89363" lon="4.94946">
        <ele>274</ele>
        <time>2018-10-20T10:32:56Z</time>
      </trkpt>
      <trkpt lat="45.89365" lon="4.94934">
        <ele>274</ele>
        <time>2018-10-20T10:32:58Z</time>
      </trkpt>
      <trkpt lat="45.89368" lon="4.94926">
        <ele>274</ele>
        <time>2018-10-20T10:32:59Z</time>
      </trkpt>
      <trkpt lat="45.8937" lon="4.94919">
        <ele>274</ele>
        <time>2018-10-20T10:33:00Z</time>
      </trkpt>
      <trkpt lat="45.89372" lon="4.94912">
        <ele>273</ele>
        <time>2018-10-20T10:33:01Z</time>
      </trkpt>
      <trkpt lat="45.89375" lon="4.94906">
        <ele>273</ele>
        <time>2018-10-20T10:33:02Z</time>
      </trkpt>
      <trkpt lat="45.89377" lon="4.94899">
        <ele>273</ele>
        <time>2018-10-20T10:33:03Z</time>
      </trkpt>
      <trkpt lat="45.89378" lon="4.94891">
        <ele>273</ele>
        <time>2018-10-20T10:33:04Z</time>
      </trkpt>
      <trkpt lat="45.8938" lon="4.94884">
        <ele>273</ele>
        <time>2018-10-20T10:33:05Z</time>
      </trkpt>
      <trkpt lat="45.89382" lon="4.94876">
        <ele>273</ele>
        <time>2018-10-20T10:33:06Z</time>
      </trkpt>
      <trkpt lat="45.89384" lon="4.9487">
        <ele>273</ele>
        <time>2018-10-20T10:33:07Z</time>
      </trkpt>
      <trkpt lat="45.89386" lon="4.94863">
        <ele>273</ele>
        <time>2018-10-20T10:33:08Z</time>
      </trkpt>
      <trkpt lat="45.89388" lon="4.94856">
        <ele>273</ele>
        <time>2018-10-20T10:33:09Z</time>
      </trkpt>
      <trkpt lat="45.89389" lon="4.94844">
        <ele>273</ele>
        <time>2018-10-20T10:33:11Z</time>
      </trkpt>
      <trkpt lat="45.89391" lon="4.94838">
        <ele>273</ele>
        <time>2018-10-20T10:33:12Z</time>
      </trkpt>
      <trkpt lat="45.89392" lon="4.94832">
        <ele>273</ele>
        <time>2018-10-20T10:33:13Z</time>
      </trkpt>
      <trkpt lat="45.89394" lon="4.94824">
        <ele>273</ele>
        <time>2018-10-20T10:33:14Z</time>
      </trkpt>
      <trkpt lat="45.89395" lon="4.94817">
        <ele>273</ele>
        <time>2018-10-20T10:33:15Z</time>
      </trkpt>
      <trkpt lat="45.89398" lon="4.94811">
        <ele>273</ele>
        <time>2018-10-20T10:33:16Z</time>
      </trkpt>
      <trkpt lat="45.89401" lon="4.94805">
        <ele>273</ele>
        <time>2018-10-20T10:33:17Z</time>
      </trkpt>
      <trkpt lat="45.89404" lon="4.94797">
        <ele>273</ele>
        <time>2018-10-20T10:33:18Z</time>
      </trkpt>
      <trkpt lat="45.89405" lon="4.9479">
        <ele>272</ele>
        <time>2018-10-20T10:33:19Z</time>
      </trkpt>
      <trkpt lat="45.89407" lon="4.94782">
        <ele>272</ele>
        <time>2018-10-20T10:33:20Z</time>
      </trkpt>
      <trkpt lat="45.8941" lon="4.94774">
        <ele>272</ele>
        <time>2018-10-20T10:33:21Z</time>
      </trkpt>
      <trkpt lat="45.89413" lon="4.94767">
        <ele>273</ele>
        <time>2018-10-20T10:33:22Z</time>
      </trkpt>
      <trkpt lat="45.89417" lon="4.94759">
        <ele>274</ele>
        <time>2018-10-20T10:33:23Z</time>
      </trkpt>
      <trkpt lat="45.8942" lon="4.94752">
        <ele>273</ele>
        <time>2018-10-20T10:33:24Z</time>
      </trkpt>
      <trkpt lat="45.89422" lon="4.94746">
        <ele>273</ele>
        <time>2018-10-20T10:33:25Z</time>
      </trkpt>
      <trkpt lat="45.89425" lon="4.94739">
        <ele>274</ele>
        <time>2018-10-20T10:33:26Z</time>
      </trkpt>
      <trkpt lat="45.89426" lon="4.94733">
        <ele>274</ele>
        <time>2018-10-20T10:33:27Z</time>
      </trkpt>
      <trkpt lat="45.89428" lon="4.94727">
        <ele>274</ele>
        <time>2018-10-20T10:33:28Z</time>
      </trkpt>
      <trkpt lat="45.8943" lon="4.94721">
        <ele>274</ele>
        <time>2018-10-20T10:33:29Z</time>
      </trkpt>
      <trkpt lat="45.89433" lon="4.94714">
        <ele>274</ele>
        <time>2018-10-20T10:33:30Z</time>
      </trkpt>
      <trkpt lat="45.89433" lon="4.94704">
        <ele>274</ele>
        <time>2018-10-20T10:33:32Z</time>
      </trkpt>
      <trkpt lat="45.89435" lon="4.94698">
        <ele>274</ele>
        <time>2018-10-20T10:33:33Z</time>
      </trkpt>
      <trkpt lat="45.89439" lon="4.9469">
        <ele>274</ele>
        <time>2018-10-20T10:33:34Z</time>
      </trkpt>
      <trkpt lat="45.89441" lon="4.94683">
        <ele>274</ele>
        <time>2018-10-20T10:33:35Z</time>
      </trkpt>
      <trkpt lat="45.89443" lon="4.94677">
        <ele>274</ele>
        <time>2018-10-20T10:33:36Z</time>
      </trkpt>
      <trkpt lat="45.89445" lon="4.94671">
        <ele>274</ele>
        <time>2018-10-20T10:33:37Z</time>
      </trkpt>
      <trkpt lat="45.89446" lon="4.94665">
        <ele>273</ele>
        <time>2018-10-20T10:33:38Z</time>
      </trkpt>
      <trkpt lat="45.89451" lon="4.94658">
        <ele>274</ele>
        <time>2018-10-20T10:33:39Z</time>
      </trkpt>
      <trkpt lat="45.89453" lon="4.9465">
        <ele>274</ele>
        <time>2018-10-20T10:33:40Z</time>
      </trkpt>
      <trkpt lat="45.89453" lon="4.94642">
        <ele>274</ele>
        <time>2018-10-20T10:33:41Z</time>
      </trkpt>
      <trkpt lat="45.89454" lon="4.94634">
        <ele>274</ele>
        <time>2018-10-20T10:33:42Z</time>
      </trkpt>
      <trkpt lat="45.89455" lon="4.94627">
        <ele>274</ele>
        <time>2018-10-20T10:33:43Z</time>
      </trkpt>
      <trkpt lat="45.89458" lon="4.94622">
        <ele>274</ele>
        <time>2018-10-20T10:33:44Z</time>
      </trkpt>
      <trkpt lat="45.89459" lon="4.94615">
        <ele>274</ele>
        <time>2018-10-20T10:33:45Z</time>
      </trkpt>
      <trkpt lat="45.89461" lon="4.94609">
        <ele>274</ele>
        <time>2018-10-20T10:33:46Z</time>
      </trkpt>
      <trkpt lat="45.8946" lon="4.946">
        <ele>274</ele>
        <time>2018-10-20T10:33:47Z</time>
      </trkpt>
      <trkpt lat="45.89462" lon="4.94588">
        <ele>274</ele>
        <time>2018-10-20T10:33:49Z</time>
      </trkpt>
      <trkpt lat="45.89462" lon="4.94581">
        <ele>274</ele>
        <time>2018-10-20T10:33:50Z</time>
      </trkpt>
      <trkpt lat="45.89463" lon="4.94572">
        <ele>274</ele>
        <time>2018-10-20T10:33:51Z</time>
      </trkpt>
      <trkpt lat="45.89465" lon="4.94564">
        <ele>274</ele>
        <time>2018-10-20T10:33:52Z</time>
      </trkpt>
      <trkpt lat="45.89464" lon="4.94555">
        <ele>274</ele>
        <time>2018-10-20T10:33:53Z</time>
      </trkpt>
      <trkpt lat="45.89465" lon="4.94546">
        <ele>274</ele>
        <time>2018-10-20T10:33:54Z</time>
      </trkpt>
      <trkpt lat="45.89464" lon="4.94537">
        <ele>274</ele>
        <time>2018-10-20T10:33:55Z</time>
      </trkpt>
      <trkpt lat="45.89466" lon="4.94529">
        <ele>274</ele>
        <time>2018-10-20T10:33:56Z</time>
      </trkpt>
      <trkpt lat="45.89467" lon="4.9452">
        <ele>274</ele>
        <time>2018-10-20T10:33:57Z</time>
      </trkpt>
      <trkpt lat="45.89468" lon="4.94512">
        <ele>274</ele>
        <time>2018-10-20T10:33:58Z</time>
      </trkpt>
      <trkpt lat="45.89469" lon="4.94505">
        <ele>274</ele>
        <time>2018-10-20T10:33:59Z</time>
      </trkpt>
      <trkpt lat="45.8947" lon="4.94497">
        <ele>274</ele>
        <time>2018-10-20T10:34:00Z</time>
      </trkpt>
      <trkpt lat="45.8947" lon="4.9449">
        <ele>274</ele>
        <time>2018-10-20T10:34:01Z</time>
      </trkpt>
      <trkpt lat="45.89473" lon="4.94484">
        <ele>274</ele>
        <time>2018-10-20T10:34:02Z</time>
      </trkpt>
      <trkpt lat="45.89475" lon="4.94476">
        <ele>274</ele>
        <time>2018-10-20T10:34:03Z</time>
      </trkpt>
      <trkpt lat="45.89477" lon="4.94468">
        <ele>274</ele>
        <time>2018-10-20T10:34:04Z</time>
      </trkpt>
      <trkpt lat="45.89476" lon="4.94461">
        <ele>274</ele>
        <time>2018-10-20T10:34:05Z</time>
      </trkpt>
      <trkpt lat="45.89477" lon="4.94453">
        <ele>274</ele>
        <time>2018-10-20T10:34:06Z</time>
      </trkpt>
      <trkpt lat="45.89478" lon="4.94444">
        <ele>274</ele>
        <time>2018-10-20T10:34:07Z</time>
      </trkpt>
      <trkpt lat="45.89478" lon="4.94435">
        <ele>274</ele>
        <time>2018-10-20T10:34:08Z</time>
      </trkpt>
      <trkpt lat="45.8948" lon="4.94426">
        <ele>274</ele>
        <time>2018-10-20T10:34:09Z</time>
      </trkpt>
      <trkpt lat="45.8948" lon="4.94418">
        <ele>274</ele>
        <time>2018-10-20T10:34:10Z</time>
      </trkpt>
      <trkpt lat="45.8948" lon="4.94408">
        <ele>274</ele>
        <time>2018-10-20T10:34:11Z</time>
      </trkpt>
      <trkpt lat="45.89482" lon="4.94399">
        <ele>274</ele>
        <time>2018-10-20T10:34:12Z</time>
      </trkpt>
      <trkpt lat="45.89482" lon="4.94389">
        <ele>274</ele>
        <time>2018-10-20T10:34:13Z</time>
      </trkpt>
      <trkpt lat="45.89482" lon="4.94379">
        <ele>274</ele>
        <time>2018-10-20T10:34:14Z</time>
      </trkpt>
      <trkpt lat="45.89483" lon="4.94371">
        <ele>274</ele>
        <time>2018-10-20T10:34:15Z</time>
      </trkpt>
      <trkpt lat="45.89484" lon="4.94363">
        <ele>274</ele>
        <time>2018-10-20T10:34:16Z</time>
      </trkpt>
      <trkpt lat="45.89485" lon="4.94356">
        <ele>274</ele>
        <time>2018-10-20T10:34:17Z</time>
      </trkpt>
      <trkpt lat="45.89486" lon="4.94348">
        <ele>274</ele>
        <time>2018-10-20T10:34:18Z</time>
      </trkpt>
      <trkpt lat="45.89486" lon="4.94341">
        <ele>274</ele>
        <time>2018-10-20T10:34:19Z</time>
      </trkpt>
      <trkpt lat="45.89487" lon="4.94334">
        <ele>274</ele>
        <time>2018-10-20T10:34:20Z</time>
      </trkpt>
      <trkpt lat="45.89487" lon="4.94327">
        <ele>275</ele>
        <time>2018-10-20T10:34:21Z</time>
      </trkpt>
      <trkpt lat="45.89487" lon="4.94319">
        <ele>274</ele>
        <time>2018-10-20T10:34:22Z</time>
      </trkpt>
      <trkpt lat="45.89488" lon="4.94313">
        <ele>274</ele>
        <time>2018-10-20T10:34:23Z</time>
      </trkpt>
      <trkpt lat="45.89489" lon="4.94306">
        <ele>274</ele>
        <time>2018-10-20T10:34:24Z</time>
      </trkpt>
      <trkpt lat="45.89489" lon="4.94298">
        <ele>274</ele>
        <time>2018-10-20T10:34:25Z</time>
      </trkpt>
      <trkpt lat="45.89491" lon="4.94289">
        <ele>275</ele>
        <time>2018-10-20T10:34:26Z</time>
      </trkpt>
      <trkpt lat="45.89492" lon="4.94282">
        <ele>275</ele>
        <time>2018-10-20T10:34:27Z</time>
      </trkpt>
      <trkpt lat="45.89494" lon="4.94277">
        <ele>275</ele>
        <time>2018-10-20T10:34:28Z</time>
      </trkpt>
      <trkpt lat="45.89498" lon="4.94271">
        <ele>275</ele>
        <time>2018-10-20T10:34:29Z</time>
      </trkpt>
      <trkpt lat="45.89498" lon="4.94259">
        <ele>275</ele>
        <time>2018-10-20T10:34:30Z</time>
      </trkpt>
      <trkpt lat="45.89499" lon="4.9425">
        <ele>276</ele>
        <time>2018-10-20T10:34:31Z</time>
      </trkpt>
      <trkpt lat="45.895" lon="4.94243">
        <ele>276</ele>
        <time>2018-10-20T10:34:32Z</time>
      </trkpt>
      <trkpt lat="45.895" lon="4.94233">
        <ele>275</ele>
        <time>2018-10-20T10:34:33Z</time>
      </trkpt>
      <trkpt lat="45.89501" lon="4.94225">
        <ele>276</ele>
        <time>2018-10-20T10:34:34Z</time>
      </trkpt>
      <trkpt lat="45.89501" lon="4.94216">
        <ele>276</ele>
        <time>2018-10-20T10:34:35Z</time>
      </trkpt>
      <trkpt lat="45.89502" lon="4.94207">
        <ele>276</ele>
        <time>2018-10-20T10:34:36Z</time>
      </trkpt>
      <trkpt lat="45.89501" lon="4.94199">
        <ele>276</ele>
        <time>2018-10-20T10:34:37Z</time>
      </trkpt>
      <trkpt lat="45.89503" lon="4.94189">
        <ele>276</ele>
        <time>2018-10-20T10:34:38Z</time>
      </trkpt>
      <trkpt lat="45.89502" lon="4.94182">
        <ele>275</ele>
        <time>2018-10-20T10:34:39Z</time>
      </trkpt>
      <trkpt lat="45.89503" lon="4.94175">
        <ele>275</ele>
        <time>2018-10-20T10:34:40Z</time>
      </trkpt>
      <trkpt lat="45.89503" lon="4.94168">
        <ele>275</ele>
        <time>2018-10-20T10:34:41Z</time>
      </trkpt>
      <trkpt lat="45.89503" lon="4.9416">
        <ele>275</ele>
        <time>2018-10-20T10:34:42Z</time>
      </trkpt>
      <trkpt lat="45.89504" lon="4.94152">
        <ele>275</ele>
        <time>2018-10-20T10:34:43Z</time>
      </trkpt>
      <trkpt lat="45.89504" lon="4.94144">
        <ele>275</ele>
        <time>2018-10-20T10:34:44Z</time>
      </trkpt>
      <trkpt lat="45.89507" lon="4.94137">
        <ele>275</ele>
        <time>2018-10-20T10:34:45Z</time>
      </trkpt>
      <trkpt lat="45.89507" lon="4.9413">
        <ele>275</ele>
        <time>2018-10-20T10:34:46Z</time>
      </trkpt>
      <trkpt lat="45.89507" lon="4.94122">
        <ele>275</ele>
        <time>2018-10-20T10:34:47Z</time>
      </trkpt>
      <trkpt lat="45.89508" lon="4.94116">
        <ele>275</ele>
        <time>2018-10-20T10:34:48Z</time>
      </trkpt>
      <trkpt lat="45.89509" lon="4.94108">
        <ele>275</ele>
        <time>2018-10-20T10:34:49Z</time>
      </trkpt>
      <trkpt lat="45.89509" lon="4.94101">
        <ele>275</ele>
        <time>2018-10-20T10:34:50Z</time>
      </trkpt>
      <trkpt lat="45.89509" lon="4.94094">
        <ele>275</ele>
        <time>2018-10-20T10:34:51Z</time>
      </trkpt>
      <trkpt lat="45.8951" lon="4.94087">
        <ele>275</ele>
        <time>2018-10-20T10:34:52Z</time>
      </trkpt>
      <trkpt lat="45.8951" lon="4.94079">
        <ele>275</ele>
        <time>2018-10-20T10:34:53Z</time>
      </trkpt>
      <trkpt lat="45.89511" lon="4.94071">
        <ele>275</ele>
        <time>2018-10-20T10:34:54Z</time>
      </trkpt>
      <trkpt lat="45.89512" lon="4.94064">
        <ele>275</ele>
        <time>2018-10-20T10:34:55Z</time>
      </trkpt>
      <trkpt lat="45.89513" lon="4.94057">
        <ele>275</ele>
        <time>2018-10-20T10:34:56Z</time>
      </trkpt>
      <trkpt lat="45.89514" lon="4.9405">
        <ele>275</ele>
        <time>2018-10-20T10:34:57Z</time>
      </trkpt>
      <trkpt lat="45.89515" lon="4.94042">
        <ele>275</ele>
        <time>2018-10-20T10:34:58Z</time>
      </trkpt>
      <trkpt lat="45.89517" lon="4.9403">
        <ele>275</ele>
        <time>2018-10-20T10:35:00Z</time>
      </trkpt>
      <trkpt lat="45.89516" lon="4.94024">
        <ele>275</ele>
        <time>2018-10-20T10:35:01Z</time>
      </trkpt>
      <trkpt lat="45.89516" lon="4.94018">
        <ele>275</ele>
        <time>2018-10-20T10:35:02Z</time>
      </trkpt>
      <trkpt lat="45.89514" lon="4.9401">
        <ele>274</ele>
        <time>2018-10-20T10:35:03Z</time>
      </trkpt>
      <trkpt lat="45.89513" lon="4.93998">
        <ele>274</ele>
        <time>2018-10-20T10:35:05Z</time>
      </trkpt>
      <trkpt lat="45.89512" lon="4.93992">
        <ele>274</ele>
        <time>2018-10-20T10:35:06Z</time>
      </trkpt>
      <trkpt lat="45.89513" lon="4.93985">
        <ele>274</ele>
        <time>2018-10-20T10:35:07Z</time>
      </trkpt>
      <trkpt lat="45.89513" lon="4.93978">
        <ele>274</ele>
        <time>2018-10-20T10:35:08Z</time>
      </trkpt>
      <trkpt lat="45.89515" lon="4.93971">
        <ele>274</ele>
        <time>2018-10-20T10:35:09Z</time>
      </trkpt>
      <trkpt lat="45.89516" lon="4.93964">
        <ele>274</ele>
        <time>2018-10-20T10:35:10Z</time>
      </trkpt>
      <trkpt lat="45.89514" lon="4.93957">
        <ele>274</ele>
        <time>2018-10-20T10:35:11Z</time>
      </trkpt>
      <trkpt lat="45.89514" lon="4.9395">
        <ele>274</ele>
        <time>2018-10-20T10:35:12Z</time>
      </trkpt>
      <trkpt lat="45.89516" lon="4.93942">
        <ele>274</ele>
        <time>2018-10-20T10:35:13Z</time>
      </trkpt>
      <trkpt lat="45.89517" lon="4.93934">
        <ele>274</ele>
        <time>2018-10-20T10:35:14Z</time>
      </trkpt>
      <trkpt lat="45.89516" lon="4.93926">
        <ele>274</ele>
        <time>2018-10-20T10:35:15Z</time>
      </trkpt>
      <trkpt lat="45.89517" lon="4.93919">
        <ele>273</ele>
        <time>2018-10-20T10:35:16Z</time>
      </trkpt>
      <trkpt lat="45.89517" lon="4.93912">
        <ele>273</ele>
        <time>2018-10-20T10:35:17Z</time>
      </trkpt>
      <trkpt lat="45.89518" lon="4.93904">
        <ele>273</ele>
        <time>2018-10-20T10:35:18Z</time>
      </trkpt>
      <trkpt lat="45.89519" lon="4.93892">
        <ele>274</ele>
        <time>2018-10-20T10:35:20Z</time>
      </trkpt>
      <trkpt lat="45.8951" lon="4.93884">
        <ele>273</ele>
        <time>2018-10-20T10:35:21Z</time>
      </trkpt>
      <trkpt lat="45.89511" lon="4.93876">
        <ele>274</ele>
        <time>2018-10-20T10:35:22Z</time>
      </trkpt>
      <trkpt lat="45.89514" lon="4.93869">
        <ele>274</ele>
        <time>2018-10-20T10:35:23Z</time>
      </trkpt>
      <trkpt lat="45.89515" lon="4.93861">
        <ele>274</ele>
        <time>2018-10-20T10:35:24Z</time>
      </trkpt>
      <trkpt lat="45.89516" lon="4.93852">
        <ele>273</ele>
        <time>2018-10-20T10:35:25Z</time>
      </trkpt>
      <trkpt lat="45.89518" lon="4.93844">
        <ele>273</ele>
        <time>2018-10-20T10:35:26Z</time>
      </trkpt>
      <trkpt lat="45.89517" lon="4.93836">
        <ele>273</ele>
        <time>2018-10-20T10:35:27Z</time>
      </trkpt>
      <trkpt lat="45.89519" lon="4.93827">
        <ele>274</ele>
        <time>2018-10-20T10:35:28Z</time>
      </trkpt>
      <trkpt lat="45.89519" lon="4.93819">
        <ele>274</ele>
        <time>2018-10-20T10:35:29Z</time>
      </trkpt>
      <trkpt lat="45.8952" lon="4.9381">
        <ele>274</ele>
        <time>2018-10-20T10:35:30Z</time>
      </trkpt>
      <trkpt lat="45.89521" lon="4.93802">
        <ele>274</ele>
        <time>2018-10-20T10:35:31Z</time>
      </trkpt>
      <trkpt lat="45.89522" lon="4.93794">
        <ele>274</ele>
        <time>2018-10-20T10:35:32Z</time>
      </trkpt>
      <trkpt lat="45.89523" lon="4.93787">
        <ele>274</ele>
        <time>2018-10-20T10:35:33Z</time>
      </trkpt>
      <trkpt lat="45.89526" lon="4.9378">
        <ele>274</ele>
        <time>2018-10-20T10:35:34Z</time>
      </trkpt>
      <trkpt lat="45.89528" lon="4.93773">
        <ele>274</ele>
        <time>2018-10-20T10:35:35Z</time>
      </trkpt>
      <trkpt lat="45.89532" lon="4.93762">
        <ele>274</ele>
        <time>2018-10-20T10:35:37Z</time>
      </trkpt>
      <trkpt lat="45.89532" lon="4.93754">
        <ele>275</ele>
        <time>2018-10-20T10:35:38Z</time>
      </trkpt>
      <trkpt lat="45.89532" lon="4.93746">
        <ele>275</ele>
        <time>2018-10-20T10:35:39Z</time>
      </trkpt>
      <trkpt lat="45.89533" lon="4.93739">
        <ele>275</ele>
        <time>2018-10-20T10:35:40Z</time>
      </trkpt>
      <trkpt lat="45.89531" lon="4.93726">
        <ele>275</ele>
        <time>2018-10-20T10:35:42Z</time>
      </trkpt>
      <trkpt lat="45.89531" lon="4.93719">
        <ele>275</ele>
        <time>2018-10-20T10:35:43Z</time>
      </trkpt>
      <trkpt lat="45.89531" lon="4.93712">
        <ele>275</ele>
        <time>2018-10-20T10:35:44Z</time>
      </trkpt>
      <trkpt lat="45.8953" lon="4.93704">
        <ele>275</ele>
        <time>2018-10-20T10:35:45Z</time>
      </trkpt>
      <trkpt lat="45.89531" lon="4.93698">
        <ele>275</ele>
        <time>2018-10-20T10:35:46Z</time>
      </trkpt>
      <trkpt lat="45.89532" lon="4.9369">
        <ele>275</ele>
        <time>2018-10-20T10:35:47Z</time>
      </trkpt>
      <trkpt lat="45.89533" lon="4.93683">
        <ele>275</ele>
        <time>2018-10-20T10:35:48Z</time>
      </trkpt>
      <trkpt lat="45.89534" lon="4.93675">
        <ele>275</ele>
        <time>2018-10-20T10:35:49Z</time>
      </trkpt>
      <trkpt lat="45.89534" lon="4.93668">
        <ele>275</ele>
        <time>2018-10-20T10:35:50Z</time>
      </trkpt>
      <trkpt lat="45.89535" lon="4.93658">
        <ele>276</ele>
        <time>2018-10-20T10:35:51Z</time>
      </trkpt>
      <trkpt lat="45.89535" lon="4.93651">
        <ele>277</ele>
        <time>2018-10-20T10:35:52Z</time>
      </trkpt>
      <trkpt lat="45.89536" lon="4.93643">
        <ele>277</ele>
        <time>2018-10-20T10:35:53Z</time>
      </trkpt>
      <trkpt lat="45.89536" lon="4.93632">
        <ele>277</ele>
        <time>2018-10-20T10:35:55Z</time>
      </trkpt>
      <trkpt lat="45.89537" lon="4.93625">
        <ele>277</ele>
        <time>2018-10-20T10:35:56Z</time>
      </trkpt>
      <trkpt lat="45.89538" lon="4.93619">
        <ele>277</ele>
        <time>2018-10-20T10:35:57Z</time>
      </trkpt>
      <trkpt lat="45.89539" lon="4.93611">
        <ele>277</ele>
        <time>2018-10-20T10:35:58Z</time>
      </trkpt>
      <trkpt lat="45.89539" lon="4.936">
        <ele>277</ele>
        <time>2018-10-20T10:36:00Z</time>
      </trkpt>
      <trkpt lat="45.89539" lon="4.93595">
        <ele>277</ele>
        <time>2018-10-20T10:36:01Z</time>
      </trkpt>
      <trkpt lat="45.8954" lon="4.93582">
        <ele>279</ele>
        <time>2018-10-20T10:36:03Z</time>
      </trkpt>
      <trkpt lat="45.8954" lon="4.93575">
        <ele>279</ele>
        <time>2018-10-20T10:36:04Z</time>
      </trkpt>
      <trkpt lat="45.89542" lon="4.93567">
        <ele>279</ele>
        <time>2018-10-20T10:36:05Z</time>
      </trkpt>
      <trkpt lat="45.89543" lon="4.9356">
        <ele>279</ele>
        <time>2018-10-20T10:36:06Z</time>
      </trkpt>
      <trkpt lat="45.89542" lon="4.93552">
        <ele>279</ele>
        <time>2018-10-20T10:36:07Z</time>
      </trkpt>
      <trkpt lat="45.89544" lon="4.93547">
        <ele>279</ele>
        <time>2018-10-20T10:36:08Z</time>
      </trkpt>
      <trkpt lat="45.89545" lon="4.93541">
        <ele>279</ele>
        <time>2018-10-20T10:36:09Z</time>
      </trkpt>
      <trkpt lat="45.89545" lon="4.93532">
        <ele>279</ele>
        <time>2018-10-20T10:36:10Z</time>
      </trkpt>
      <trkpt lat="45.89547" lon="4.9352">
        <ele>279</ele>
        <time>2018-10-20T10:36:12Z</time>
      </trkpt>
      <trkpt lat="45.89548" lon="4.93513">
        <ele>279</ele>
        <time>2018-10-20T10:36:13Z</time>
      </trkpt>
      <trkpt lat="45.89549" lon="4.93506">
        <ele>279</ele>
        <time>2018-10-20T10:36:14Z</time>
      </trkpt>
      <trkpt lat="45.89549" lon="4.935">
        <ele>279</ele>
        <time>2018-10-20T10:36:15Z</time>
      </trkpt>
      <trkpt lat="45.8955" lon="4.93488">
        <ele>280</ele>
        <time>2018-10-20T10:36:17Z</time>
      </trkpt>
      <trkpt lat="45.8955" lon="4.93485">
        <ele>280</ele>
        <time>2018-10-20T10:36:18Z</time>
      </trkpt>
      <trkpt lat="45.89551" lon="4.93473">
        <ele>280</ele>
        <time>2018-10-20T10:36:20Z</time>
      </trkpt>
      <trkpt lat="45.89552" lon="4.93466">
        <ele>280</ele>
        <time>2018-10-20T10:36:21Z</time>
      </trkpt>
      <trkpt lat="45.89553" lon="4.93456">
        <ele>280</ele>
        <time>2018-10-20T10:36:24Z</time>
      </trkpt>
      <trkpt lat="45.89553" lon="4.93447">
        <ele>280</ele>
        <time>2018-10-20T10:36:25Z</time>
      </trkpt>
      <trkpt lat="45.89551" lon="4.93437">
        <ele>280</ele>
        <time>2018-10-20T10:36:28Z</time>
      </trkpt>
      <trkpt lat="45.8955" lon="4.93433">
        <ele>280</ele>
        <time>2018-10-20T10:36:29Z</time>
      </trkpt>
      <trkpt lat="45.89549" lon="4.93426">
        <ele>280</ele>
        <time>2018-10-20T10:36:31Z</time>
      </trkpt>
      <trkpt lat="45.89547" lon="4.9342">
        <ele>280</ele>
        <time>2018-10-20T10:36:32Z</time>
      </trkpt>
      <trkpt lat="45.89544" lon="4.93408">
        <ele>282</ele>
        <time>2018-10-20T10:36:33Z</time>
      </trkpt>
      <trkpt lat="45.89543" lon="4.93403">
        <ele>282</ele>
        <time>2018-10-20T10:36:34Z</time>
      </trkpt>
      <trkpt lat="45.89542" lon="4.93396">
        <ele>282</ele>
        <time>2018-10-20T10:36:36Z</time>
      </trkpt>
      <trkpt lat="45.8954" lon="4.93387">
        <ele>282</ele>
        <time>2018-10-20T10:36:37Z</time>
      </trkpt>
      <trkpt lat="45.89539" lon="4.9338">
        <ele>282</ele>
        <time>2018-10-20T10:36:39Z</time>
      </trkpt>
      <trkpt lat="45.89537" lon="4.93371">
        <ele>282</ele>
        <time>2018-10-20T10:36:40Z</time>
      </trkpt>
      <trkpt lat="45.89534" lon="4.9336">
        <ele>282</ele>
        <time>2018-10-20T10:36:42Z</time>
      </trkpt>
      <trkpt lat="45.89532" lon="4.93355">
        <ele>282</ele>
        <time>2018-10-20T10:36:43Z</time>
      </trkpt>
      <trkpt lat="45.8953" lon="4.93345">
        <ele>283</ele>
        <time>2018-10-20T10:36:45Z</time>
      </trkpt>
      <trkpt lat="45.89528" lon="4.9334">
        <ele>283</ele>
        <time>2018-10-20T10:36:46Z</time>
      </trkpt>
      <trkpt lat="45.89526" lon="4.9333">
        <ele>285</ele>
        <time>2018-10-20T10:36:48Z</time>
      </trkpt>
      <trkpt lat="45.89526" lon="4.93325">
        <ele>285</ele>
        <time>2018-10-20T10:36:49Z</time>
      </trkpt>
      <trkpt lat="45.89525" lon="4.93315">
        <ele>285</ele>
        <time>2018-10-20T10:36:51Z</time>
      </trkpt>
      <trkpt lat="45.89525" lon="4.93312">
        <ele>285</ele>
        <time>2018-10-20T10:36:52Z</time>
      </trkpt>
      <trkpt lat="45.89526" lon="4.93306">
        <ele>285</ele>
        <time>2018-10-20T10:36:54Z</time>
      </trkpt>
      <trkpt lat="45.89526" lon="4.93296">
        <ele>286</ele>
        <time>2018-10-20T10:36:55Z</time>
      </trkpt>
      <trkpt lat="45.89528" lon="4.93284">
        <ele>286</ele>
        <time>2018-10-20T10:36:59Z</time>
      </trkpt>
      <trkpt lat="45.8953" lon="4.93273">
        <ele>286</ele>
        <time>2018-10-20T10:37:00Z</time>
      </trkpt>
      <trkpt lat="45.8953" lon="4.93261">
        <ele>287</ele>
        <time>2018-10-20T10:37:02Z</time>
      </trkpt>
      <trkpt lat="45.8953" lon="4.93253">
        <ele>287</ele>
        <time>2018-10-20T10:37:03Z</time>
      </trkpt>
      <trkpt lat="45.8953" lon="4.93245">
        <ele>288</ele>
        <time>2018-10-20T10:37:04Z</time>
      </trkpt>
      <trkpt lat="45.89529" lon="4.93237">
        <ele>287</ele>
        <time>2018-10-20T10:37:05Z</time>
      </trkpt>
      <trkpt lat="45.89527" lon="4.93228">
        <ele>287</ele>
        <time>2018-10-20T10:37:06Z</time>
      </trkpt>
      <trkpt lat="45.89526" lon="4.93219">
        <ele>287</ele>
        <time>2018-10-20T10:37:07Z</time>
      </trkpt>
      <trkpt lat="45.89523" lon="4.93209">
        <ele>287</ele>
        <time>2018-10-20T10:37:08Z</time>
      </trkpt>
      <trkpt lat="45.89521" lon="4.93202">
        <ele>287</ele>
        <time>2018-10-20T10:37:09Z</time>
      </trkpt>
      <trkpt lat="45.89518" lon="4.93196">
        <ele>287</ele>
        <time>2018-10-20T10:37:10Z</time>
      </trkpt>
      <trkpt lat="45.89516" lon="4.93189">
        <ele>287</ele>
        <time>2018-10-20T10:37:11Z</time>
      </trkpt>
      <trkpt lat="45.89513" lon="4.93179">
        <ele>286</ele>
        <time>2018-10-20T10:37:13Z</time>
      </trkpt>
      <trkpt lat="45.89511" lon="4.93171">
        <ele>286</ele>
        <time>2018-10-20T10:37:14Z</time>
      </trkpt>
      <trkpt lat="45.89508" lon="4.9316">
        <ele>285</ele>
        <time>2018-10-20T10:37:16Z</time>
      </trkpt>
      <trkpt lat="45.89506" lon="4.93156">
        <ele>285</ele>
        <time>2018-10-20T10:37:17Z</time>
      </trkpt>
      <trkpt lat="45.89503" lon="4.93145">
        <ele>285</ele>
        <time>2018-10-20T10:37:21Z</time>
      </trkpt>
      <trkpt lat="45.89503" lon="4.93141">
        <ele>285</ele>
        <time>2018-10-20T10:37:22Z</time>
      </trkpt>
      <trkpt lat="45.89502" lon="4.93129">
        <ele>284</ele>
        <time>2018-10-20T10:37:26Z</time>
      </trkpt>
      <trkpt lat="45.89502" lon="4.93125">
        <ele>284</ele>
        <time>2018-10-20T10:37:27Z</time>
      </trkpt>
      <trkpt lat="45.89499" lon="4.93113">
        <ele>283</ele>
        <time>2018-10-20T10:37:28Z</time>
      </trkpt>
      <trkpt lat="45.89497" lon="4.93108">
        <ele>283</ele>
        <time>2018-10-20T10:37:29Z</time>
      </trkpt>
      <trkpt lat="45.89493" lon="4.93103">
        <ele>283</ele>
        <time>2018-10-20T10:37:30Z</time>
      </trkpt>
      <trkpt lat="45.89489" lon="4.93101">
        <ele>283</ele>
        <time>2018-10-20T10:37:31Z</time>
      </trkpt>
      <trkpt lat="45.89482" lon="4.93101">
        <ele>283</ele>
        <time>2018-10-20T10:37:34Z</time>
      </trkpt>
      <trkpt lat="45.89479" lon="4.93101">
        <ele>283</ele>
        <time>2018-10-20T10:37:35Z</time>
      </trkpt>
      <trkpt lat="45.89473" lon="4.931">
        <ele>283</ele>
        <time>2018-10-20T10:37:36Z</time>
      </trkpt>
      <trkpt lat="45.8947" lon="4.93098">
        <ele>283</ele>
        <time>2018-10-20T10:37:37Z</time>
      </trkpt>
      <trkpt lat="45.89465" lon="4.93093">
        <ele>283</ele>
        <time>2018-10-20T10:37:39Z</time>
      </trkpt>
      <trkpt lat="45.89462" lon="4.93087">
        <ele>283</ele>
        <time>2018-10-20T10:37:40Z</time>
      </trkpt>
      <trkpt lat="45.89458" lon="4.93076">
        <ele>283</ele>
        <time>2018-10-20T10:37:42Z</time>
      </trkpt>
      <trkpt lat="45.89456" lon="4.93071">
        <ele>283</ele>
        <time>2018-10-20T10:37:43Z</time>
      </trkpt>
      <trkpt lat="45.89452" lon="4.9306">
        <ele>283</ele>
        <time>2018-10-20T10:37:45Z</time>
      </trkpt>
      <trkpt lat="45.8945" lon="4.93055">
        <ele>283</ele>
        <time>2018-10-20T10:37:46Z</time>
      </trkpt>
      <trkpt lat="45.89448" lon="4.93049">
        <ele>283</ele>
        <time>2018-10-20T10:37:47Z</time>
      </trkpt>
      <trkpt lat="45.89445" lon="4.93044">
        <ele>284</ele>
        <time>2018-10-20T10:37:48Z</time>
      </trkpt>
      <trkpt lat="45.8944" lon="4.93033">
        <ele>284</ele>
        <time>2018-10-20T10:37:50Z</time>
      </trkpt>
      <trkpt lat="45.89438" lon="4.93028">
        <ele>284</ele>
        <time>2018-10-20T10:37:51Z</time>
      </trkpt>
      <trkpt lat="45.89433" lon="4.93018">
        <ele>284</ele>
        <time>2018-10-20T10:37:53Z</time>
      </trkpt>
      <trkpt lat="45.89432" lon="4.93013">
        <ele>284</ele>
        <time>2018-10-20T10:37:54Z</time>
      </trkpt>
      <trkpt lat="45.89428" lon="4.93003">
        <ele>284</ele>
        <time>2018-10-20T10:37:56Z</time>
      </trkpt>
      <trkpt lat="45.89426" lon="4.92998">
        <ele>285</ele>
        <time>2018-10-20T10:37:57Z</time>
      </trkpt>
      <trkpt lat="45.89423" lon="4.92987">
        <ele>286</ele>
        <time>2018-10-20T10:37:59Z</time>
      </trkpt>
      <trkpt lat="45.89422" lon="4.92984">
        <ele>286</ele>
        <time>2018-10-20T10:38:00Z</time>
      </trkpt>
      <trkpt lat="45.89418" lon="4.92975">
        <ele>286</ele>
        <time>2018-10-20T10:38:03Z</time>
      </trkpt>
      <trkpt lat="45.89413" lon="4.92964">
        <ele>286</ele>
        <time>2018-10-20T10:38:04Z</time>
      </trkpt>
      <trkpt lat="45.8941" lon="4.92954">
        <ele>286</ele>
        <time>2018-10-20T10:38:06Z</time>
      </trkpt>
      <trkpt lat="45.89408" lon="4.92949">
        <ele>286</ele>
        <time>2018-10-20T10:38:07Z</time>
      </trkpt>
      <trkpt lat="45.89405" lon="4.92937">
        <ele>287</ele>
        <time>2018-10-20T10:38:09Z</time>
      </trkpt>
      <trkpt lat="45.89404" lon="4.92934">
        <ele>287</ele>
        <time>2018-10-20T10:38:10Z</time>
      </trkpt>
      <trkpt lat="45.89401" lon="4.92923">
        <ele>287</ele>
        <time>2018-10-20T10:38:13Z</time>
      </trkpt>
      <trkpt lat="45.894" lon="4.92919">
        <ele>287</ele>
        <time>2018-10-20T10:38:14Z</time>
      </trkpt>
      <trkpt lat="45.89397" lon="4.92911">
        <ele>288</ele>
        <time>2018-10-20T10:38:16Z</time>
      </trkpt>
      <trkpt lat="45.89396" lon="4.92906">
        <ele>288</ele>
        <time>2018-10-20T10:38:17Z</time>
      </trkpt>
      <trkpt lat="45.89393" lon="4.92898">
        <ele>288</ele>
        <time>2018-10-20T10:38:19Z</time>
      </trkpt>
      <trkpt lat="45.89391" lon="4.92894">
        <ele>288</ele>
        <time>2018-10-20T10:38:20Z</time>
      </trkpt>
      <trkpt lat="45.89386" lon="4.92884">
        <ele>288</ele>
        <time>2018-10-20T10:38:23Z</time>
      </trkpt>
      <trkpt lat="45.89385" lon="4.92881">
        <ele>288</ele>
        <time>2018-10-20T10:38:24Z</time>
      </trkpt>
      <trkpt lat="45.89381" lon="4.9287">
        <ele>288</ele>
        <time>2018-10-20T10:38:27Z</time>
      </trkpt>
      <trkpt lat="45.8938" lon="4.92868">
        <ele>288</ele>
        <time>2018-10-20T10:38:28Z</time>
      </trkpt>
      <trkpt lat="45.89375" lon="4.92857">
        <ele>288</ele>
        <time>2018-10-20T10:38:31Z</time>
      </trkpt>
      <trkpt lat="45.89374" lon="4.92854">
        <ele>288</ele>
        <time>2018-10-20T10:38:32Z</time>
      </trkpt>
      <trkpt lat="45.89371" lon="4.92843">
        <ele>288</ele>
        <time>2018-10-20T10:38:35Z</time>
      </trkpt>
      <trkpt lat="45.8937" lon="4.92832">
        <ele>290</ele>
        <time>2018-10-20T10:38:36Z</time>
      </trkpt>
      <trkpt lat="45.89369" lon="4.92821">
        <ele>290</ele>
        <time>2018-10-20T10:38:40Z</time>
      </trkpt>
      <trkpt lat="45.89367" lon="4.9281">
        <ele>290</ele>
        <time>2018-10-20T10:38:41Z</time>
      </trkpt>
      <trkpt lat="45.89365" lon="4.92799">
        <ele>290</ele>
        <time>2018-10-20T10:38:43Z</time>
      </trkpt>
      <trkpt lat="45.89364" lon="4.92793">
        <ele>290</ele>
        <time>2018-10-20T10:38:44Z</time>
      </trkpt>
      <trkpt lat="45.89362" lon="4.9278">
        <ele>290</ele>
        <time>2018-10-20T10:38:46Z</time>
      </trkpt>
      <trkpt lat="45.89361" lon="4.92775">
        <ele>290</ele>
        <time>2018-10-20T10:38:47Z</time>
      </trkpt>
      <trkpt lat="45.89359" lon="4.92764">
        <ele>290</ele>
        <time>2018-10-20T10:38:49Z</time>
      </trkpt>
      <trkpt lat="45.89358" lon="4.92758">
        <ele>290</ele>
        <time>2018-10-20T10:38:50Z</time>
      </trkpt>
      <trkpt lat="45.89357" lon="4.92747">
        <ele>290</ele>
        <time>2018-10-20T10:38:52Z</time>
      </trkpt>
      <trkpt lat="45.89356" lon="4.92741">
        <ele>290</ele>
        <time>2018-10-20T10:38:53Z</time>
      </trkpt>
      <trkpt lat="45.89353" lon="4.9273">
        <ele>290</ele>
        <time>2018-10-20T10:38:55Z</time>
      </trkpt>
      <trkpt lat="45.89352" lon="4.92726">
        <ele>290</ele>
        <time>2018-10-20T10:38:56Z</time>
      </trkpt>
      <trkpt lat="45.8935" lon="4.9272">
        <ele>290</ele>
        <time>2018-10-20T10:38:58Z</time>
      </trkpt>
      <trkpt lat="45.89348" lon="4.92711">
        <ele>290</ele>
        <time>2018-10-20T10:38:59Z</time>
      </trkpt>
      <trkpt lat="45.89345" lon="4.927">
        <ele>291</ele>
        <time>2018-10-20T10:39:01Z</time>
      </trkpt>
      <trkpt lat="45.89342" lon="4.92692">
        <ele>291</ele>
        <time>2018-10-20T10:39:02Z</time>
      </trkpt>
      <trkpt lat="45.89339" lon="4.9268">
        <ele>291</ele>
        <time>2018-10-20T10:39:04Z</time>
      </trkpt>
      <trkpt lat="45.89339" lon="4.92675">
        <ele>291</ele>
        <time>2018-10-20T10:39:05Z</time>
      </trkpt>
      <trkpt lat="45.89337" lon="4.92665">
        <ele>291</ele>
        <time>2018-10-20T10:39:07Z</time>
      </trkpt>
      <trkpt lat="45.89336" lon="4.9266">
        <ele>291</ele>
        <time>2018-10-20T10:39:08Z</time>
      </trkpt>
      <trkpt lat="45.89333" lon="4.92648">
        <ele>291</ele>
        <time>2018-10-20T10:39:10Z</time>
      </trkpt>
      <trkpt lat="45.89331" lon="4.92643">
        <ele>292</ele>
        <time>2018-10-20T10:39:11Z</time>
      </trkpt>
      <trkpt lat="45.89328" lon="4.92631">
        <ele>292</ele>
        <time>2018-10-20T10:39:13Z</time>
      </trkpt>
      <trkpt lat="45.89326" lon="4.92625">
        <ele>292</ele>
        <time>2018-10-20T10:39:14Z</time>
      </trkpt>
      <trkpt lat="45.89324" lon="4.92617">
        <ele>292</ele>
        <time>2018-10-20T10:39:15Z</time>
      </trkpt>
      <trkpt lat="45.89324" lon="4.92612">
        <ele>292</ele>
        <time>2018-10-20T10:39:16Z</time>
      </trkpt>
      <trkpt lat="45.89322" lon="4.92599">
        <ele>292</ele>
        <time>2018-10-20T10:39:18Z</time>
      </trkpt>
      <trkpt lat="45.89319" lon="4.92593">
        <ele>292</ele>
        <time>2018-10-20T10:39:19Z</time>
      </trkpt>
      <trkpt lat="45.89318" lon="4.92581">
        <ele>293</ele>
        <time>2018-10-20T10:39:21Z</time>
      </trkpt>
      <trkpt lat="45.89315" lon="4.92574">
        <ele>293</ele>
        <time>2018-10-20T10:39:22Z</time>
      </trkpt>
      <trkpt lat="45.89313" lon="4.92567">
        <ele>293</ele>
        <time>2018-10-20T10:39:23Z</time>
      </trkpt>
      <trkpt lat="45.8931" lon="4.92561">
        <ele>293</ele>
        <time>2018-10-20T10:39:24Z</time>
      </trkpt>
      <trkpt lat="45.89307" lon="4.92551">
        <ele>293</ele>
        <time>2018-10-20T10:39:26Z</time>
      </trkpt>
      <trkpt lat="45.89305" lon="4.92544">
        <ele>293</ele>
        <time>2018-10-20T10:39:27Z</time>
      </trkpt>
      <trkpt lat="45.89303" lon="4.92539">
        <ele>293</ele>
        <time>2018-10-20T10:39:28Z</time>
      </trkpt>
      <trkpt lat="45.893" lon="4.92532">
        <ele>293</ele>
        <time>2018-10-20T10:39:29Z</time>
      </trkpt>
      <trkpt lat="45.89297" lon="4.92526">
        <ele>293</ele>
        <time>2018-10-20T10:39:30Z</time>
      </trkpt>
      <trkpt lat="45.89295" lon="4.9252">
        <ele>293</ele>
        <time>2018-10-20T10:39:31Z</time>
      </trkpt>
      <trkpt lat="45.89294" lon="4.92513">
        <ele>293</ele>
        <time>2018-10-20T10:39:32Z</time>
      </trkpt>
      <trkpt lat="45.89292" lon="4.92507">
        <ele>294</ele>
        <time>2018-10-20T10:39:33Z</time>
      </trkpt>
      <trkpt lat="45.89289" lon="4.92497">
        <ele>294</ele>
        <time>2018-10-20T10:39:35Z</time>
      </trkpt>
      <trkpt lat="45.89287" lon="4.92491">
        <ele>294</ele>
        <time>2018-10-20T10:39:36Z</time>
      </trkpt>
      <trkpt lat="45.89283" lon="4.92481">
        <ele>294</ele>
        <time>2018-10-20T10:39:38Z</time>
      </trkpt>
      <trkpt lat="45.8928" lon="4.92474">
        <ele>294</ele>
        <time>2018-10-20T10:39:39Z</time>
      </trkpt>
      <trkpt lat="45.89278" lon="4.92468">
        <ele>294</ele>
        <time>2018-10-20T10:39:40Z</time>
      </trkpt>
      <trkpt lat="45.89276" lon="4.92461">
        <ele>294</ele>
        <time>2018-10-20T10:39:41Z</time>
      </trkpt>
      <trkpt lat="45.89274" lon="4.92455">
        <ele>294</ele>
        <time>2018-10-20T10:39:42Z</time>
      </trkpt>
      <trkpt lat="45.89271" lon="4.92449">
        <ele>294</ele>
        <time>2018-10-20T10:39:43Z</time>
      </trkpt>
      <trkpt lat="45.89268" lon="4.92438">
        <ele>294</ele>
        <time>2018-10-20T10:39:46Z</time>
      </trkpt>
      <trkpt lat="45.89266" lon="4.92432">
        <ele>294</ele>
        <time>2018-10-20T10:39:47Z</time>
      </trkpt>
      <trkpt lat="45.89262" lon="4.92422">
        <ele>294</ele>
        <time>2018-10-20T10:39:49Z</time>
      </trkpt>
      <trkpt lat="45.89259" lon="4.92416">
        <ele>293</ele>
        <time>2018-10-20T10:39:50Z</time>
      </trkpt>
      <trkpt lat="45.89254" lon="4.92406">
        <ele>293</ele>
        <time>2018-10-20T10:39:52Z</time>
      </trkpt>
      <trkpt lat="45.89252" lon="4.92402">
        <ele>293</ele>
        <time>2018-10-20T10:39:53Z</time>
      </trkpt>
      <trkpt lat="45.89248" lon="4.92391">
        <ele>293</ele>
        <time>2018-10-20T10:39:55Z</time>
      </trkpt>
      <trkpt lat="45.89245" lon="4.92385">
        <ele>293</ele>
        <time>2018-10-20T10:39:56Z</time>
      </trkpt>
      <trkpt lat="45.89243" lon="4.92379">
        <ele>293</ele>
        <time>2018-10-20T10:39:57Z</time>
      </trkpt>
      <trkpt lat="45.89241" lon="4.92372">
        <ele>293</ele>
        <time>2018-10-20T10:39:58Z</time>
      </trkpt>
      <trkpt lat="45.8924" lon="4.92365">
        <ele>293</ele>
        <time>2018-10-20T10:39:59Z</time>
      </trkpt>
      <trkpt lat="45.89238" lon="4.92358">
        <ele>293</ele>
        <time>2018-10-20T10:40:00Z</time>
      </trkpt>
      <trkpt lat="45.89237" lon="4.9235">
        <ele>292</ele>
        <time>2018-10-20T10:40:01Z</time>
      </trkpt>
      <trkpt lat="45.89235" lon="4.92342">
        <ele>292</ele>
        <time>2018-10-20T10:40:02Z</time>
      </trkpt>
      <trkpt lat="45.89235" lon="4.92334">
        <ele>292</ele>
        <time>2018-10-20T10:40:03Z</time>
      </trkpt>
      <trkpt lat="45.89234" lon="4.92325">
        <ele>291</ele>
        <time>2018-10-20T10:40:04Z</time>
      </trkpt>
      <trkpt lat="45.89233" lon="4.92317">
        <ele>291</ele>
        <time>2018-10-20T10:40:05Z</time>
      </trkpt>
      <trkpt lat="45.89231" lon="4.92308">
        <ele>291</ele>
        <time>2018-10-20T10:40:06Z</time>
      </trkpt>
      <trkpt lat="45.89228" lon="4.92299">
        <ele>291</ele>
        <time>2018-10-20T10:40:07Z</time>
      </trkpt>
      <trkpt lat="45.89228" lon="4.92291">
        <ele>290</ele>
        <time>2018-10-20T10:40:08Z</time>
      </trkpt>
      <trkpt lat="45.89225" lon="4.92283">
        <ele>290</ele>
        <time>2018-10-20T10:40:09Z</time>
      </trkpt>
      <trkpt lat="45.89221" lon="4.92275">
        <ele>290</ele>
        <time>2018-10-20T10:40:10Z</time>
      </trkpt>
      <trkpt lat="45.89218" lon="4.92267">
        <ele>290</ele>
        <time>2018-10-20T10:40:11Z</time>
      </trkpt>
      <trkpt lat="45.89216" lon="4.9226">
        <ele>290</ele>
        <time>2018-10-20T10:40:12Z</time>
      </trkpt>
      <trkpt lat="45.89211" lon="4.92252">
        <ele>290</ele>
        <time>2018-10-20T10:40:13Z</time>
      </trkpt>
      <trkpt lat="45.89209" lon="4.92245">
        <ele>289</ele>
        <time>2018-10-20T10:40:14Z</time>
      </trkpt>
      <trkpt lat="45.89206" lon="4.92236">
        <ele>289</ele>
        <time>2018-10-20T10:40:15Z</time>
      </trkpt>
      <trkpt lat="45.89202" lon="4.92229">
        <ele>289</ele>
        <time>2018-10-20T10:40:16Z</time>
      </trkpt>
      <trkpt lat="45.89199" lon="4.92222">
        <ele>289</ele>
        <time>2018-10-20T10:40:17Z</time>
      </trkpt>
      <trkpt lat="45.89196" lon="4.92216">
        <ele>288</ele>
        <time>2018-10-20T10:40:18Z</time>
      </trkpt>
      <trkpt lat="45.89192" lon="4.92209">
        <ele>288</ele>
        <time>2018-10-20T10:40:19Z</time>
      </trkpt>
      <trkpt lat="45.89186" lon="4.92203">
        <ele>289</ele>
        <time>2018-10-20T10:40:20Z</time>
      </trkpt>
      <trkpt lat="45.89182" lon="4.92196">
        <ele>289</ele>
        <time>2018-10-20T10:40:21Z</time>
      </trkpt>
      <trkpt lat="45.89178" lon="4.9219">
        <ele>289</ele>
        <time>2018-10-20T10:40:22Z</time>
      </trkpt>
      <trkpt lat="45.89174" lon="4.92184">
        <ele>289</ele>
        <time>2018-10-20T10:40:23Z</time>
      </trkpt>
      <trkpt lat="45.8917" lon="4.92178">
        <ele>289</ele>
        <time>2018-10-20T10:40:24Z</time>
      </trkpt>
      <trkpt lat="45.89165" lon="4.92173">
        <ele>289</ele>
        <time>2018-10-20T10:40:25Z</time>
      </trkpt>
      <trkpt lat="45.8916" lon="4.92169">
        <ele>289</ele>
        <time>2018-10-20T10:40:26Z</time>
      </trkpt>
      <trkpt lat="45.89155" lon="4.92164">
        <ele>288</ele>
        <time>2018-10-20T10:40:27Z</time>
      </trkpt>
      <trkpt lat="45.8915" lon="4.92159">
        <ele>288</ele>
        <time>2018-10-20T10:40:28Z</time>
      </trkpt>
      <trkpt lat="45.89145" lon="4.92154">
        <ele>288</ele>
        <time>2018-10-20T10:40:29Z</time>
      </trkpt>
      <trkpt lat="45.8914" lon="4.9215">
        <ele>288</ele>
        <time>2018-10-20T10:40:30Z</time>
      </trkpt>
      <trkpt lat="45.89135" lon="4.92144">
        <ele>288</ele>
        <time>2018-10-20T10:40:31Z</time>
      </trkpt>
      <trkpt lat="45.89129" lon="4.92138">
        <ele>288</ele>
        <time>2018-10-20T10:40:32Z</time>
      </trkpt>
      <trkpt lat="45.89123" lon="4.92133">
        <ele>288</ele>
        <time>2018-10-20T10:40:33Z</time>
      </trkpt>
      <trkpt lat="45.89118" lon="4.92129">
        <ele>288</ele>
        <time>2018-10-20T10:40:34Z</time>
      </trkpt>
      <trkpt lat="45.89111" lon="4.92124">
        <ele>287</ele>
        <time>2018-10-20T10:40:35Z</time>
      </trkpt>
      <trkpt lat="45.89106" lon="4.9212">
        <ele>287</ele>
        <time>2018-10-20T10:40:36Z</time>
      </trkpt>
      <trkpt lat="45.89101" lon="4.92117">
        <ele>287</ele>
        <time>2018-10-20T10:40:37Z</time>
      </trkpt>
      <trkpt lat="45.89095" lon="4.92112">
        <ele>287</ele>
        <time>2018-10-20T10:40:38Z</time>
      </trkpt>
      <trkpt lat="45.8909" lon="4.92108">
        <ele>287</ele>
        <time>2018-10-20T10:40:39Z</time>
      </trkpt>
      <trkpt lat="45.89084" lon="4.92107">
        <ele>287</ele>
        <time>2018-10-20T10:40:40Z</time>
      </trkpt>
      <trkpt lat="45.89079" lon="4.92102">
        <ele>287</ele>
        <time>2018-10-20T10:40:41Z</time>
      </trkpt>
      <trkpt lat="45.89074" lon="4.92098">
        <ele>287</ele>
        <time>2018-10-20T10:40:42Z</time>
      </trkpt>
      <trkpt lat="45.89068" lon="4.92094">
        <ele>287</ele>
        <time>2018-10-20T10:40:43Z</time>
      </trkpt>
      <trkpt lat="45.89062" lon="4.92088">
        <ele>287</ele>
        <time>2018-10-20T10:40:44Z</time>
      </trkpt>
      <trkpt lat="45.89056" lon="4.92083">
        <ele>287</ele>
        <time>2018-10-20T10:40:45Z</time>
      </trkpt>
      <trkpt lat="45.8905" lon="4.92078">
        <ele>287</ele>
        <time>2018-10-20T10:40:46Z</time>
      </trkpt>
      <trkpt lat="45.89044" lon="4.92072">
        <ele>287</ele>
        <time>2018-10-20T10:40:47Z</time>
      </trkpt>
      <trkpt lat="45.89038" lon="4.92067">
        <ele>287</ele>
        <time>2018-10-20T10:40:48Z</time>
      </trkpt>
      <trkpt lat="45.89032" lon="4.92063">
        <ele>287</ele>
        <time>2018-10-20T10:40:49Z</time>
      </trkpt>
      <trkpt lat="45.89027" lon="4.92058">
        <ele>287</ele>
        <time>2018-10-20T10:40:50Z</time>
      </trkpt>
      <trkpt lat="45.89023" lon="4.92052">
        <ele>287</ele>
        <time>2018-10-20T10:40:51Z</time>
      </trkpt>
      <trkpt lat="45.89017" lon="4.92047">
        <ele>287</ele>
        <time>2018-10-20T10:40:52Z</time>
      </trkpt>
      <trkpt lat="45.89013" lon="4.92041">
        <ele>287</ele>
        <time>2018-10-20T10:40:53Z</time>
      </trkpt>
      <trkpt lat="45.89008" lon="4.92035">
        <ele>287</ele>
        <time>2018-10-20T10:40:54Z</time>
      </trkpt>
      <trkpt lat="45.89004" lon="4.92029">
        <ele>287</ele>
        <time>2018-10-20T10:40:55Z</time>
      </trkpt>
      <trkpt lat="45.89" lon="4.92022">
        <ele>287</ele>
        <time>2018-10-20T10:40:56Z</time>
      </trkpt>
      <trkpt lat="45.88996" lon="4.92016">
        <ele>287</ele>
        <time>2018-10-20T10:40:57Z</time>
      </trkpt>
      <trkpt lat="45.88992" lon="4.92011">
        <ele>287</ele>
        <time>2018-10-20T10:40:58Z</time>
      </trkpt>
      <trkpt lat="45.88988" lon="4.92005">
        <ele>287</ele>
        <time>2018-10-20T10:40:59Z</time>
      </trkpt>
      <trkpt lat="45.88984" lon="4.91999">
        <ele>287</ele>
        <time>2018-10-20T10:41:00Z</time>
      </trkpt>
      <trkpt lat="45.8898" lon="4.91994">
        <ele>287</ele>
        <time>2018-10-20T10:41:01Z</time>
      </trkpt>
      <trkpt lat="45.88975" lon="4.9199">
        <ele>287</ele>
        <time>2018-10-20T10:41:02Z</time>
      </trkpt>
      <trkpt lat="45.8897" lon="4.91984">
        <ele>287</ele>
        <time>2018-10-20T10:41:03Z</time>
      </trkpt>
      <trkpt lat="45.88965" lon="4.9198">
        <ele>287</ele>
        <time>2018-10-20T10:41:04Z</time>
      </trkpt>
      <trkpt lat="45.88961" lon="4.91973">
        <ele>287</ele>
        <time>2018-10-20T10:41:05Z</time>
      </trkpt>
      <trkpt lat="45.88957" lon="4.91967">
        <ele>287</ele>
        <time>2018-10-20T10:41:06Z</time>
      </trkpt>
      <trkpt lat="45.88952" lon="4.91961">
        <ele>287</ele>
        <time>2018-10-20T10:41:07Z</time>
      </trkpt>
      <trkpt lat="45.88948" lon="4.91955">
        <ele>287</ele>
        <time>2018-10-20T10:41:08Z</time>
      </trkpt>
      <trkpt lat="45.88943" lon="4.9195">
        <ele>287</ele>
        <time>2018-10-20T10:41:09Z</time>
      </trkpt>
      <trkpt lat="45.8894" lon="4.91944">
        <ele>287</ele>
        <time>2018-10-20T10:41:10Z</time>
      </trkpt>
      <trkpt lat="45.88935" lon="4.91938">
        <ele>287</ele>
        <time>2018-10-20T10:41:11Z</time>
      </trkpt>
      <trkpt lat="45.88932" lon="4.91933">
        <ele>288</ele>
        <time>2018-10-20T10:41:12Z</time>
      </trkpt>
      <trkpt lat="45.88928" lon="4.91926">
        <ele>288</ele>
        <time>2018-10-20T10:41:13Z</time>
      </trkpt>
      <trkpt lat="45.88925" lon="4.9192">
        <ele>288</ele>
        <time>2018-10-20T10:41:14Z</time>
      </trkpt>
      <trkpt lat="45.88922" lon="4.91912">
        <ele>288</ele>
        <time>2018-10-20T10:41:15Z</time>
      </trkpt>
      <trkpt lat="45.88918" lon="4.91904">
        <ele>288</ele>
        <time>2018-10-20T10:41:16Z</time>
      </trkpt>
      <trkpt lat="45.88913" lon="4.91897">
        <ele>288</ele>
        <time>2018-10-20T10:41:17Z</time>
      </trkpt>
      <trkpt lat="45.8891" lon="4.9189">
        <ele>288</ele>
        <time>2018-10-20T10:41:18Z</time>
      </trkpt>
      <trkpt lat="45.88908" lon="4.91883">
        <ele>288</ele>
        <time>2018-10-20T10:41:19Z</time>
      </trkpt>
      <trkpt lat="45.88905" lon="4.91877">
        <ele>288</ele>
        <time>2018-10-20T10:41:20Z</time>
      </trkpt>
      <trkpt lat="45.88904" lon="4.91869">
        <ele>288</ele>
        <time>2018-10-20T10:41:21Z</time>
      </trkpt>
      <trkpt lat="45.88902" lon="4.91863">
        <ele>288</ele>
        <time>2018-10-20T10:41:22Z</time>
      </trkpt>
      <trkpt lat="45.889" lon="4.91856">
        <ele>288</ele>
        <time>2018-10-20T10:41:23Z</time>
      </trkpt>
      <trkpt lat="45.88898" lon="4.91848">
        <ele>288</ele>
        <time>2018-10-20T10:41:24Z</time>
      </trkpt>
      <trkpt lat="45.88896" lon="4.91841">
        <ele>288</ele>
        <time>2018-10-20T10:41:25Z</time>
      </trkpt>
      <trkpt lat="45.88894" lon="4.91835">
        <ele>288</ele>
        <time>2018-10-20T10:41:26Z</time>
      </trkpt>
      <trkpt lat="45.88893" lon="4.91826">
        <ele>288</ele>
        <time>2018-10-20T10:41:27Z</time>
      </trkpt>
      <trkpt lat="45.88893" lon="4.91819">
        <ele>288</ele>
        <time>2018-10-20T10:41:28Z</time>
      </trkpt>
      <trkpt lat="45.88891" lon="4.91811">
        <ele>288</ele>
        <time>2018-10-20T10:41:29Z</time>
      </trkpt>
      <trkpt lat="45.8889" lon="4.91802">
        <ele>288</ele>
        <time>2018-10-20T10:41:30Z</time>
      </trkpt>
      <trkpt lat="45.88887" lon="4.91793">
        <ele>288</ele>
        <time>2018-10-20T10:41:31Z</time>
      </trkpt>
      <trkpt lat="45.88886" lon="4.91784">
        <ele>288</ele>
        <time>2018-10-20T10:41:32Z</time>
      </trkpt>
      <trkpt lat="45.88885" lon="4.91777">
        <ele>288</ele>
        <time>2018-10-20T10:41:33Z</time>
      </trkpt>
      <trkpt lat="45.88884" lon="4.91769">
        <ele>288</ele>
        <time>2018-10-20T10:41:34Z</time>
      </trkpt>
      <trkpt lat="45.88882" lon="4.9176">
        <ele>288</ele>
        <time>2018-10-20T10:41:35Z</time>
      </trkpt>
      <trkpt lat="45.8888" lon="4.91751">
        <ele>288</ele>
        <time>2018-10-20T10:41:36Z</time>
      </trkpt>
      <trkpt lat="45.88878" lon="4.91742">
        <ele>288</ele>
        <time>2018-10-20T10:41:37Z</time>
      </trkpt>
      <trkpt lat="45.88877" lon="4.91734">
        <ele>288</ele>
        <time>2018-10-20T10:41:38Z</time>
      </trkpt>
      <trkpt lat="45.88875" lon="4.91727">
        <ele>288</ele>
        <time>2018-10-20T10:41:39Z</time>
      </trkpt>
      <trkpt lat="45.88874" lon="4.9172">
        <ele>288</ele>
        <time>2018-10-20T10:41:40Z</time>
      </trkpt>
      <trkpt lat="45.88872" lon="4.91713">
        <ele>288</ele>
        <time>2018-10-20T10:41:41Z</time>
      </trkpt>
      <trkpt lat="45.8887" lon="4.91706">
        <ele>289</ele>
        <time>2018-10-20T10:41:42Z</time>
      </trkpt>
      <trkpt lat="45.88869" lon="4.917">
        <ele>289</ele>
        <time>2018-10-20T10:41:43Z</time>
      </trkpt>
      <trkpt lat="45.88869" lon="4.91693">
        <ele>289</ele>
        <time>2018-10-20T10:41:44Z</time>
      </trkpt>
      <trkpt lat="45.88867" lon="4.91687">
        <ele>289</ele>
        <time>2018-10-20T10:41:45Z</time>
      </trkpt>
      <trkpt lat="45.88863" lon="4.91682">
        <ele>289</ele>
        <time>2018-10-20T10:41:46Z</time>
      </trkpt>
      <trkpt lat="45.88861" lon="4.91675">
        <ele>289</ele>
        <time>2018-10-20T10:41:47Z</time>
      </trkpt>
      <trkpt lat="45.88859" lon="4.91667">
        <ele>289</ele>
        <time>2018-10-20T10:41:48Z</time>
      </trkpt>
      <trkpt lat="45.88857" lon="4.91661">
        <ele>289</ele>
        <time>2018-10-20T10:41:49Z</time>
      </trkpt>
      <trkpt lat="45.88856" lon="4.91654">
        <ele>289</ele>
        <time>2018-10-20T10:41:50Z</time>
      </trkpt>
      <trkpt lat="45.88856" lon="4.9165">
        <ele>289</ele>
        <time>2018-10-20T10:41:51Z</time>
      </trkpt>
      <trkpt lat="45.88853" lon="4.91642">
        <ele>289</ele>
        <time>2018-10-20T10:41:52Z</time>
      </trkpt>
      <trkpt lat="45.88851" lon="4.91635">
        <ele>289</ele>
        <time>2018-10-20T10:41:53Z</time>
      </trkpt>
      <trkpt lat="45.88849" lon="4.91628">
        <ele>289</ele>
        <time>2018-10-20T10:41:54Z</time>
      </trkpt>
      <trkpt lat="45.88849" lon="4.9162">
        <ele>289</ele>
        <time>2018-10-20T10:41:55Z</time>
      </trkpt>
      <trkpt lat="45.88844" lon="4.91613">
        <ele>289</ele>
        <time>2018-10-20T10:41:56Z</time>
      </trkpt>
      <trkpt lat="45.88842" lon="4.91606">
        <ele>289</ele>
        <time>2018-10-20T10:41:57Z</time>
      </trkpt>
      <trkpt lat="45.88837" lon="4.91599">
        <ele>289</ele>
        <time>2018-10-20T10:41:58Z</time>
      </trkpt>
      <trkpt lat="45.88833" lon="4.91591">
        <ele>289</ele>
        <time>2018-10-20T10:41:59Z</time>
      </trkpt>
      <trkpt lat="45.88832" lon="4.91584">
        <ele>289</ele>
        <time>2018-10-20T10:42:00Z</time>
      </trkpt>
      <trkpt lat="45.8883" lon="4.91577">
        <ele>289</ele>
        <time>2018-10-20T10:42:01Z</time>
      </trkpt>
      <trkpt lat="45.88829" lon="4.9157">
        <ele>289</ele>
        <time>2018-10-20T10:42:02Z</time>
      </trkpt>
      <trkpt lat="45.88827" lon="4.91558">
        <ele>288</ele>
        <time>2018-10-20T10:42:04Z</time>
      </trkpt>
      <trkpt lat="45.88826" lon="4.91552">
        <ele>288</ele>
        <time>2018-10-20T10:42:05Z</time>
      </trkpt>
      <trkpt lat="45.88824" lon="4.91546">
        <ele>288</ele>
        <time>2018-10-20T10:42:06Z</time>
      </trkpt>
      <trkpt lat="45.88824" lon="4.91539">
        <ele>288</ele>
        <time>2018-10-20T10:42:07Z</time>
      </trkpt>
      <trkpt lat="45.88819" lon="4.91534">
        <ele>288</ele>
        <time>2018-10-20T10:42:08Z</time>
      </trkpt>
      <trkpt lat="45.8882" lon="4.91527">
        <ele>288</ele>
        <time>2018-10-20T10:42:09Z</time>
      </trkpt>
      <trkpt lat="45.88819" lon="4.91518">
        <ele>288</ele>
        <time>2018-10-20T10:42:10Z</time>
      </trkpt>
      <trkpt lat="45.88818" lon="4.91509">
        <ele>288</ele>
        <time>2018-10-20T10:42:11Z</time>
      </trkpt>
      <trkpt lat="45.88816" lon="4.91501">
        <ele>288</ele>
        <time>2018-10-20T10:42:12Z</time>
      </trkpt>
      <trkpt lat="45.88815" lon="4.91493">
        <ele>288</ele>
        <time>2018-10-20T10:42:13Z</time>
      </trkpt>
      <trkpt lat="45.88814" lon="4.91484">
        <ele>288</ele>
        <time>2018-10-20T10:42:14Z</time>
      </trkpt>
      <trkpt lat="45.88812" lon="4.91476">
        <ele>288</ele>
        <time>2018-10-20T10:42:15Z</time>
      </trkpt>
      <trkpt lat="45.88811" lon="4.91467">
        <ele>288</ele>
        <time>2018-10-20T10:42:16Z</time>
      </trkpt>
      <trkpt lat="45.88809" lon="4.91458">
        <ele>288</ele>
        <time>2018-10-20T10:42:17Z</time>
      </trkpt>
      <trkpt lat="45.88808" lon="4.9145">
        <ele>288</ele>
        <time>2018-10-20T10:42:18Z</time>
      </trkpt>
      <trkpt lat="45.88807" lon="4.91442">
        <ele>288</ele>
        <time>2018-10-20T10:42:19Z</time>
      </trkpt>
      <trkpt lat="45.88806" lon="4.91435">
        <ele>288</ele>
        <time>2018-10-20T10:42:20Z</time>
      </trkpt>
      <trkpt lat="45.88806" lon="4.91428">
        <ele>288</ele>
        <time>2018-10-20T10:42:21Z</time>
      </trkpt>
      <trkpt lat="45.88805" lon="4.9142">
        <ele>288</ele>
        <time>2018-10-20T10:42:22Z</time>
      </trkpt>
      <trkpt lat="45.88804" lon="4.9141">
        <ele>289</ele>
        <time>2018-10-20T10:42:23Z</time>
      </trkpt>
      <trkpt lat="45.88803" lon="4.91401">
        <ele>289</ele>
        <time>2018-10-20T10:42:24Z</time>
      </trkpt>
      <trkpt lat="45.88801" lon="4.91392">
        <ele>288</ele>
        <time>2018-10-20T10:42:25Z</time>
      </trkpt>
      <trkpt lat="45.888" lon="4.91384">
        <ele>288</ele>
        <time>2018-10-20T10:42:26Z</time>
      </trkpt>
      <trkpt lat="45.88799" lon="4.91376">
        <ele>288</ele>
        <time>2018-10-20T10:42:27Z</time>
      </trkpt>
      <trkpt lat="45.88795" lon="4.91369">
        <ele>288</ele>
        <time>2018-10-20T10:42:28Z</time>
      </trkpt>
      <trkpt lat="45.88794" lon="4.9136">
        <ele>288</ele>
        <time>2018-10-20T10:42:29Z</time>
      </trkpt>
      <trkpt lat="45.88791" lon="4.91352">
        <ele>288</ele>
        <time>2018-10-20T10:42:30Z</time>
      </trkpt>
      <trkpt lat="45.8879" lon="4.91343">
        <ele>288</ele>
        <time>2018-10-20T10:42:31Z</time>
      </trkpt>
      <trkpt lat="45.8879" lon="4.91333">
        <ele>288</ele>
        <time>2018-10-20T10:42:32Z</time>
      </trkpt>
      <trkpt lat="45.88789" lon="4.91324">
        <ele>288</ele>
        <time>2018-10-20T10:42:33Z</time>
      </trkpt>
      <trkpt lat="45.8879" lon="4.91316">
        <ele>288</ele>
        <time>2018-10-20T10:42:34Z</time>
      </trkpt>
      <trkpt lat="45.88791" lon="4.91308">
        <ele>288</ele>
        <time>2018-10-20T10:42:35Z</time>
      </trkpt>
      <trkpt lat="45.88792" lon="4.913">
        <ele>289</ele>
        <time>2018-10-20T10:42:36Z</time>
      </trkpt>
      <trkpt lat="45.88792" lon="4.91292">
        <ele>288</ele>
        <time>2018-10-20T10:42:37Z</time>
      </trkpt>
      <trkpt lat="45.88791" lon="4.91284">
        <ele>288</ele>
        <time>2018-10-20T10:42:38Z</time>
      </trkpt>
      <trkpt lat="45.88789" lon="4.91275">
        <ele>288</ele>
        <time>2018-10-20T10:42:39Z</time>
      </trkpt>
      <trkpt lat="45.88789" lon="4.91266">
        <ele>288</ele>
        <time>2018-10-20T10:42:40Z</time>
      </trkpt>
      <trkpt lat="45.88789" lon="4.91258">
        <ele>288</ele>
        <time>2018-10-20T10:42:41Z</time>
      </trkpt>
      <trkpt lat="45.88788" lon="4.9125">
        <ele>288</ele>
        <time>2018-10-20T10:42:42Z</time>
      </trkpt>
      <trkpt lat="45.88787" lon="4.91242">
        <ele>288</ele>
        <time>2018-10-20T10:42:43Z</time>
      </trkpt>
      <trkpt lat="45.88787" lon="4.91235">
        <ele>288</ele>
        <time>2018-10-20T10:42:44Z</time>
      </trkpt>
      <trkpt lat="45.88787" lon="4.91228">
        <ele>288</ele>
        <time>2018-10-20T10:42:45Z</time>
      </trkpt>
      <trkpt lat="45.88788" lon="4.91221">
        <ele>288</ele>
        <time>2018-10-20T10:42:46Z</time>
      </trkpt>
      <trkpt lat="45.88788" lon="4.91213">
        <ele>288</ele>
        <time>2018-10-20T10:42:47Z</time>
      </trkpt>
      <trkpt lat="45.88789" lon="4.91206">
        <ele>288</ele>
        <time>2018-10-20T10:42:48Z</time>
      </trkpt>
      <trkpt lat="45.88788" lon="4.91199">
        <ele>288</ele>
        <time>2018-10-20T10:42:49Z</time>
      </trkpt>
      <trkpt lat="45.88787" lon="4.91192">
        <ele>288</ele>
        <time>2018-10-20T10:42:50Z</time>
      </trkpt>
      <trkpt lat="45.88786" lon="4.91184">
        <ele>288</ele>
        <time>2018-10-20T10:42:51Z</time>
      </trkpt>
      <trkpt lat="45.88786" lon="4.91176">
        <ele>288</ele>
        <time>2018-10-20T10:42:52Z</time>
      </trkpt>
      <trkpt lat="45.88788" lon="4.91169">
        <ele>288</ele>
        <time>2018-10-20T10:42:53Z</time>
      </trkpt>
      <trkpt lat="45.8879" lon="4.91163">
        <ele>288</ele>
        <time>2018-10-20T10:42:54Z</time>
      </trkpt>
      <trkpt lat="45.8879" lon="4.91155">
        <ele>288</ele>
        <time>2018-10-20T10:42:55Z</time>
      </trkpt>
      <trkpt lat="45.88786" lon="4.91146">
        <ele>288</ele>
        <time>2018-10-20T10:42:56Z</time>
      </trkpt>
      <trkpt lat="45.88788" lon="4.91137">
        <ele>288</ele>
        <time>2018-10-20T10:42:57Z</time>
      </trkpt>
      <trkpt lat="45.8879" lon="4.91129">
        <ele>288</ele>
        <time>2018-10-20T10:42:58Z</time>
      </trkpt>
      <trkpt lat="45.88791" lon="4.9112">
        <ele>288</ele>
        <time>2018-10-20T10:42:59Z</time>
      </trkpt>
      <trkpt lat="45.88793" lon="4.91111">
        <ele>288</ele>
        <time>2018-10-20T10:43:00Z</time>
      </trkpt>
      <trkpt lat="45.88797" lon="4.91105">
        <ele>288</ele>
        <time>2018-10-20T10:43:01Z</time>
      </trkpt>
      <trkpt lat="45.888" lon="4.91099">
        <ele>288</ele>
        <time>2018-10-20T10:43:02Z</time>
      </trkpt>
      <trkpt lat="45.888" lon="4.9109">
        <ele>288</ele>
        <time>2018-10-20T10:43:03Z</time>
      </trkpt>
      <trkpt lat="45.88798" lon="4.91078">
        <ele>288</ele>
        <time>2018-10-20T10:43:05Z</time>
      </trkpt>
      <trkpt lat="45.88795" lon="4.91074">
        <ele>288</ele>
        <time>2018-10-20T10:43:06Z</time>
      </trkpt>
      <trkpt lat="45.88792" lon="4.91068">
        <ele>288</ele>
        <time>2018-10-20T10:43:07Z</time>
      </trkpt>
      <trkpt lat="45.88789" lon="4.91062">
        <ele>288</ele>
        <time>2018-10-20T10:43:08Z</time>
      </trkpt>
      <trkpt lat="45.88786" lon="4.91057">
        <ele>288</ele>
        <time>2018-10-20T10:43:09Z</time>
      </trkpt>
      <trkpt lat="45.88783" lon="4.91051">
        <ele>288</ele>
        <time>2018-10-20T10:43:10Z</time>
      </trkpt>
      <trkpt lat="45.88781" lon="4.91045">
        <ele>288</ele>
        <time>2018-10-20T10:43:11Z</time>
      </trkpt>
      <trkpt lat="45.88778" lon="4.9104">
        <ele>288</ele>
        <time>2018-10-20T10:43:12Z</time>
      </trkpt>
      <trkpt lat="45.88776" lon="4.91033">
        <ele>288</ele>
        <time>2018-10-20T10:43:13Z</time>
      </trkpt>
      <trkpt lat="45.88774" lon="4.91027">
        <ele>288</ele>
        <time>2018-10-20T10:43:14Z</time>
      </trkpt>
      <trkpt lat="45.88773" lon="4.91021">
        <ele>288</ele>
        <time>2018-10-20T10:43:15Z</time>
      </trkpt>
      <trkpt lat="45.88771" lon="4.91014">
        <ele>288</ele>
        <time>2018-10-20T10:43:16Z</time>
      </trkpt>
      <trkpt lat="45.88771" lon="4.91007">
        <ele>287</ele>
        <time>2018-10-20T10:43:17Z</time>
      </trkpt>
      <trkpt lat="45.88769" lon="4.91">
        <ele>287</ele>
        <time>2018-10-20T10:43:18Z</time>
      </trkpt>
      <trkpt lat="45.88767" lon="4.90993">
        <ele>287</ele>
        <time>2018-10-20T10:43:19Z</time>
      </trkpt>
      <trkpt lat="45.88766" lon="4.90985">
        <ele>287</ele>
        <time>2018-10-20T10:43:20Z</time>
      </trkpt>
      <trkpt lat="45.88765" lon="4.90978">
        <ele>288</ele>
        <time>2018-10-20T10:43:21Z</time>
      </trkpt>
      <trkpt lat="45.88763" lon="4.90971">
        <ele>288</ele>
        <time>2018-10-20T10:43:22Z</time>
      </trkpt>
      <trkpt lat="45.88761" lon="4.90964">
        <ele>288</ele>
        <time>2018-10-20T10:43:23Z</time>
      </trkpt>
      <trkpt lat="45.8876" lon="4.90957">
        <ele>288</ele>
        <time>2018-10-20T10:43:24Z</time>
      </trkpt>
      <trkpt lat="45.88759" lon="4.90949">
        <ele>288</ele>
        <time>2018-10-20T10:43:25Z</time>
      </trkpt>
      <trkpt lat="45.88757" lon="4.90942">
        <ele>288</ele>
        <time>2018-10-20T10:43:26Z</time>
      </trkpt>
      <trkpt lat="45.88756" lon="4.90937">
        <ele>288</ele>
        <time>2018-10-20T10:43:27Z</time>
      </trkpt>
      <trkpt lat="45.88754" lon="4.90929">
        <ele>288</ele>
        <time>2018-10-20T10:43:28Z</time>
      </trkpt>
      <trkpt lat="45.88752" lon="4.90922">
        <ele>288</ele>
        <time>2018-10-20T10:43:29Z</time>
      </trkpt>
      <trkpt lat="45.8875" lon="4.90916">
        <ele>288</ele>
        <time>2018-10-20T10:43:30Z</time>
      </trkpt>
      <trkpt lat="45.8875" lon="4.90908">
        <ele>288</ele>
        <time>2018-10-20T10:43:31Z</time>
      </trkpt>
      <trkpt lat="45.88749" lon="4.90901">
        <ele>288</ele>
        <time>2018-10-20T10:43:32Z</time>
      </trkpt>
      <trkpt lat="45.88748" lon="4.90893">
        <ele>288</ele>
        <time>2018-10-20T10:43:33Z</time>
      </trkpt>
      <trkpt lat="45.88747" lon="4.90886">
        <ele>288</ele>
        <time>2018-10-20T10:43:34Z</time>
      </trkpt>
      <trkpt lat="45.88745" lon="4.90879">
        <ele>288</ele>
        <time>2018-10-20T10:43:35Z</time>
      </trkpt>
      <trkpt lat="45.88742" lon="4.90872">
        <ele>288</ele>
        <time>2018-10-20T10:43:36Z</time>
      </trkpt>
      <trkpt lat="45.88739" lon="4.90864">
        <ele>288</ele>
        <time>2018-10-20T10:43:37Z</time>
      </trkpt>
      <trkpt lat="45.88738" lon="4.90857">
        <ele>288</ele>
        <time>2018-10-20T10:43:38Z</time>
      </trkpt>
      <trkpt lat="45.88734" lon="4.90851">
        <ele>288</ele>
        <time>2018-10-20T10:43:39Z</time>
      </trkpt>
      <trkpt lat="45.88734" lon="4.90844">
        <ele>288</ele>
        <time>2018-10-20T10:43:40Z</time>
      </trkpt>
      <trkpt lat="45.88732" lon="4.90834">
        <ele>288</ele>
        <time>2018-10-20T10:43:41Z</time>
      </trkpt>
      <trkpt lat="45.88731" lon="4.90826">
        <ele>289</ele>
        <time>2018-10-20T10:43:42Z</time>
      </trkpt>
      <trkpt lat="45.8873" lon="4.90817">
        <ele>289</ele>
        <time>2018-10-20T10:43:43Z</time>
      </trkpt>
      <trkpt lat="45.88727" lon="4.9081">
        <ele>289</ele>
        <time>2018-10-20T10:43:44Z</time>
      </trkpt>
      <trkpt lat="45.88727" lon="4.90801">
        <ele>289</ele>
        <time>2018-10-20T10:43:45Z</time>
      </trkpt>
      <trkpt lat="45.88727" lon="4.90793">
        <ele>289</ele>
        <time>2018-10-20T10:43:46Z</time>
      </trkpt>
      <trkpt lat="45.88725" lon="4.90786">
        <ele>289</ele>
        <time>2018-10-20T10:43:47Z</time>
      </trkpt>
      <trkpt lat="45.88722" lon="4.90781">
        <ele>289</ele>
        <time>2018-10-20T10:43:48Z</time>
      </trkpt>
      <trkpt lat="45.8872" lon="4.90775">
        <ele>289</ele>
        <time>2018-10-20T10:43:49Z</time>
      </trkpt>
      <trkpt lat="45.8872" lon="4.90766">
        <ele>289</ele>
        <time>2018-10-20T10:43:50Z</time>
      </trkpt>
      <trkpt lat="45.88717" lon="4.90759">
        <ele>289</ele>
        <time>2018-10-20T10:43:51Z</time>
      </trkpt>
      <trkpt lat="45.88715" lon="4.90753">
        <ele>289</ele>
        <time>2018-10-20T10:43:52Z</time>
      </trkpt>
      <trkpt lat="45.88715" lon="4.90747">
        <ele>290</ele>
        <time>2018-10-20T10:43:53Z</time>
      </trkpt>
      <trkpt lat="45.88713" lon="4.90739">
        <ele>290</ele>
        <time>2018-10-20T10:43:54Z</time>
      </trkpt>
      <trkpt lat="45.88712" lon="4.90732">
        <ele>290</ele>
        <time>2018-10-20T10:43:55Z</time>
      </trkpt>
      <trkpt lat="45.88711" lon="4.90724">
        <ele>290</ele>
        <time>2018-10-20T10:43:56Z</time>
      </trkpt>
      <trkpt lat="45.88709" lon="4.90716">
        <ele>290</ele>
        <time>2018-10-20T10:43:57Z</time>
      </trkpt>
      <trkpt lat="45.88708" lon="4.90708">
        <ele>290</ele>
        <time>2018-10-20T10:43:58Z</time>
      </trkpt>
      <trkpt lat="45.88709" lon="4.90702">
        <ele>290</ele>
        <time>2018-10-20T10:43:59Z</time>
      </trkpt>
      <trkpt lat="45.88708" lon="4.90693">
        <ele>290</ele>
        <time>2018-10-20T10:44:00Z</time>
      </trkpt>
      <trkpt lat="45.88706" lon="4.90687">
        <ele>290</ele>
        <time>2018-10-20T10:44:01Z</time>
      </trkpt>
      <trkpt lat="45.88704" lon="4.90678">
        <ele>290</ele>
        <time>2018-10-20T10:44:02Z</time>
      </trkpt>
      <trkpt lat="45.88702" lon="4.90669">
        <ele>290</ele>
        <time>2018-10-20T10:44:03Z</time>
      </trkpt>
      <trkpt lat="45.887" lon="4.90662">
        <ele>291</ele>
        <time>2018-10-20T10:44:04Z</time>
      </trkpt>
      <trkpt lat="45.887" lon="4.90649">
        <ele>291</ele>
        <time>2018-10-20T10:44:06Z</time>
      </trkpt>
      <trkpt lat="45.88699" lon="4.90641">
        <ele>291</ele>
        <time>2018-10-20T10:44:07Z</time>
      </trkpt>
      <trkpt lat="45.88695" lon="4.90634">
        <ele>291</ele>
        <time>2018-10-20T10:44:08Z</time>
      </trkpt>
      <trkpt lat="45.88693" lon="4.90626">
        <ele>291</ele>
        <time>2018-10-20T10:44:09Z</time>
      </trkpt>
      <trkpt lat="45.88689" lon="4.90617">
        <ele>292</ele>
        <time>2018-10-20T10:44:10Z</time>
      </trkpt>
      <trkpt lat="45.8869" lon="4.90611">
        <ele>292</ele>
        <time>2018-10-20T10:44:11Z</time>
      </trkpt>
      <trkpt lat="45.88688" lon="4.906">
        <ele>292</ele>
        <time>2018-10-20T10:44:12Z</time>
      </trkpt>
      <trkpt lat="45.88686" lon="4.90593">
        <ele>292</ele>
        <time>2018-10-20T10:44:13Z</time>
      </trkpt>
      <trkpt lat="45.88685" lon="4.90587">
        <ele>292</ele>
        <time>2018-10-20T10:44:14Z</time>
      </trkpt>
      <trkpt lat="45.88683" lon="4.9058">
        <ele>292</ele>
        <time>2018-10-20T10:44:15Z</time>
      </trkpt>
      <trkpt lat="45.88684" lon="4.90573">
        <ele>293</ele>
        <time>2018-10-20T10:44:16Z</time>
      </trkpt>
      <trkpt lat="45.88682" lon="4.90567">
        <ele>293</ele>
        <time>2018-10-20T10:44:17Z</time>
      </trkpt>
      <trkpt lat="45.88681" lon="4.9056">
        <ele>293</ele>
        <time>2018-10-20T10:44:18Z</time>
      </trkpt>
      <trkpt lat="45.88679" lon="4.90552">
        <ele>293</ele>
        <time>2018-10-20T10:44:19Z</time>
      </trkpt>
      <trkpt lat="45.88676" lon="4.9054">
        <ele>293</ele>
        <time>2018-10-20T10:44:21Z</time>
      </trkpt>
      <trkpt lat="45.88675" lon="4.90533">
        <ele>293</ele>
        <time>2018-10-20T10:44:22Z</time>
      </trkpt>
      <trkpt lat="45.88674" lon="4.90527">
        <ele>293</ele>
        <time>2018-10-20T10:44:23Z</time>
      </trkpt>
      <trkpt lat="45.88672" lon="4.90519">
        <ele>293</ele>
        <time>2018-10-20T10:44:24Z</time>
      </trkpt>
      <trkpt lat="45.8867" lon="4.90512">
        <ele>293</ele>
        <time>2018-10-20T10:44:25Z</time>
      </trkpt>
      <trkpt lat="45.88669" lon="4.90507">
        <ele>293</ele>
        <time>2018-10-20T10:44:26Z</time>
      </trkpt>
      <trkpt lat="45.88667" lon="4.90495">
        <ele>293</ele>
        <time>2018-10-20T10:44:28Z</time>
      </trkpt>
      <trkpt lat="45.88665" lon="4.9049">
        <ele>293</ele>
        <time>2018-10-20T10:44:29Z</time>
      </trkpt>
      <trkpt lat="45.88665" lon="4.90478">
        <ele>293</ele>
        <time>2018-10-20T10:44:31Z</time>
      </trkpt>
      <trkpt lat="45.88662" lon="4.90472">
        <ele>293</ele>
        <time>2018-10-20T10:44:32Z</time>
      </trkpt>
      <trkpt lat="45.88661" lon="4.90463">
        <ele>293</ele>
        <time>2018-10-20T10:44:34Z</time>
      </trkpt>
      <trkpt lat="45.88661" lon="4.90454">
        <ele>293</ele>
        <time>2018-10-20T10:44:35Z</time>
      </trkpt>
      <trkpt lat="45.8866" lon="4.90446">
        <ele>293</ele>
        <time>2018-10-20T10:44:36Z</time>
      </trkpt>
      <trkpt lat="45.8866" lon="4.90439">
        <ele>293</ele>
        <time>2018-10-20T10:44:37Z</time>
      </trkpt>
      <trkpt lat="45.8866" lon="4.90432">
        <ele>293</ele>
        <time>2018-10-20T10:44:38Z</time>
      </trkpt>
      <trkpt lat="45.8866" lon="4.90424">
        <ele>293</ele>
        <time>2018-10-20T10:44:39Z</time>
      </trkpt>
      <trkpt lat="45.88659" lon="4.90417">
        <ele>293</ele>
        <time>2018-10-20T10:44:40Z</time>
      </trkpt>
      <trkpt lat="45.88659" lon="4.90409">
        <ele>293</ele>
        <time>2018-10-20T10:44:41Z</time>
      </trkpt>
      <trkpt lat="45.88659" lon="4.90402">
        <ele>293</ele>
        <time>2018-10-20T10:44:42Z</time>
      </trkpt>
      <trkpt lat="45.88658" lon="4.90394">
        <ele>293</ele>
        <time>2018-10-20T10:44:43Z</time>
      </trkpt>
      <trkpt lat="45.88659" lon="4.90381">
        <ele>293</ele>
        <time>2018-10-20T10:44:45Z</time>
      </trkpt>
      <trkpt lat="45.8866" lon="4.90375">
        <ele>293</ele>
        <time>2018-10-20T10:44:46Z</time>
      </trkpt>
      <trkpt lat="45.88659" lon="4.90367">
        <ele>293</ele>
        <time>2018-10-20T10:44:47Z</time>
      </trkpt>
      <trkpt lat="45.88659" lon="4.9036">
        <ele>293</ele>
        <time>2018-10-20T10:44:48Z</time>
      </trkpt>
      <trkpt lat="45.88658" lon="4.90354">
        <ele>293</ele>
        <time>2018-10-20T10:44:49Z</time>
      </trkpt>
      <trkpt lat="45.88658" lon="4.90346">
        <ele>293</ele>
        <time>2018-10-20T10:44:50Z</time>
      </trkpt>
      <trkpt lat="45.88658" lon="4.90339">
        <ele>293</ele>
        <time>2018-10-20T10:44:51Z</time>
      </trkpt>
      <trkpt lat="45.88658" lon="4.90331">
        <ele>293</ele>
        <time>2018-10-20T10:44:52Z</time>
      </trkpt>
      <trkpt lat="45.88659" lon="4.90319">
        <ele>293</ele>
        <time>2018-10-20T10:44:54Z</time>
      </trkpt>
      <trkpt lat="45.88658" lon="4.90311">
        <ele>293</ele>
        <time>2018-10-20T10:44:55Z</time>
      </trkpt>
      <trkpt lat="45.88656" lon="4.90305">
        <ele>293</ele>
        <time>2018-10-20T10:44:56Z</time>
      </trkpt>
      <trkpt lat="45.88655" lon="4.90298">
        <ele>293</ele>
        <time>2018-10-20T10:44:57Z</time>
      </trkpt>
      <trkpt lat="45.88654" lon="4.9029">
        <ele>293</ele>
        <time>2018-10-20T10:44:58Z</time>
      </trkpt>
      <trkpt lat="45.88654" lon="4.90284">
        <ele>293</ele>
        <time>2018-10-20T10:44:59Z</time>
      </trkpt>
      <trkpt lat="45.88656" lon="4.90278">
        <ele>293</ele>
        <time>2018-10-20T10:45:00Z</time>
      </trkpt>
      <trkpt lat="45.88658" lon="4.90272">
        <ele>293</ele>
        <time>2018-10-20T10:45:01Z</time>
      </trkpt>
      <trkpt lat="45.88659" lon="4.90264">
        <ele>293</ele>
        <time>2018-10-20T10:45:02Z</time>
      </trkpt>
      <trkpt lat="45.88659" lon="4.90258">
        <ele>293</ele>
        <time>2018-10-20T10:45:03Z</time>
      </trkpt>
      <trkpt lat="45.88657" lon="4.90246">
        <ele>293</ele>
        <time>2018-10-20T10:45:05Z</time>
      </trkpt>
      <trkpt lat="45.88658" lon="4.90239">
        <ele>293</ele>
        <time>2018-10-20T10:45:06Z</time>
      </trkpt>
      <trkpt lat="45.88659" lon="4.90227">
        <ele>294</ele>
        <time>2018-10-20T10:45:08Z</time>
      </trkpt>
      <trkpt lat="45.88658" lon="4.9022">
        <ele>294</ele>
        <time>2018-10-20T10:45:09Z</time>
      </trkpt>
      <trkpt lat="45.88657" lon="4.90214">
        <ele>294</ele>
        <time>2018-10-20T10:45:10Z</time>
      </trkpt>
      <trkpt lat="45.88658" lon="4.90207">
        <ele>294</ele>
        <time>2018-10-20T10:45:11Z</time>
      </trkpt>
      <trkpt lat="45.88657" lon="4.90199">
        <ele>294</ele>
        <time>2018-10-20T10:45:12Z</time>
      </trkpt>
      <trkpt lat="45.88656" lon="4.90192">
        <ele>294</ele>
        <time>2018-10-20T10:45:13Z</time>
      </trkpt>
      <trkpt lat="45.88656" lon="4.9018">
        <ele>294</ele>
        <time>2018-10-20T10:45:15Z</time>
      </trkpt>
      <trkpt lat="45.88656" lon="4.90174">
        <ele>294</ele>
        <time>2018-10-20T10:45:16Z</time>
      </trkpt>
      <trkpt lat="45.88653" lon="4.90166">
        <ele>294</ele>
        <time>2018-10-20T10:45:17Z</time>
      </trkpt>
      <trkpt lat="45.88653" lon="4.9016">
        <ele>294</ele>
        <time>2018-10-20T10:45:18Z</time>
      </trkpt>
      <trkpt lat="45.88652" lon="4.90149">
        <ele>294</ele>
        <time>2018-10-20T10:45:20Z</time>
      </trkpt>
      <trkpt lat="45.88651" lon="4.90143">
        <ele>294</ele>
        <time>2018-10-20T10:45:21Z</time>
      </trkpt>
      <trkpt lat="45.88651" lon="4.90137">
        <ele>295</ele>
        <time>2018-10-20T10:45:22Z</time>
      </trkpt>
      <trkpt lat="45.88649" lon="4.90129">
        <ele>295</ele>
        <time>2018-10-20T10:45:23Z</time>
      </trkpt>
      <trkpt lat="45.88648" lon="4.90122">
        <ele>295</ele>
        <time>2018-10-20T10:45:24Z</time>
      </trkpt>
      <trkpt lat="45.88647" lon="4.90114">
        <ele>295</ele>
        <time>2018-10-20T10:45:25Z</time>
      </trkpt>
      <trkpt lat="45.88646" lon="4.90108">
        <ele>295</ele>
        <time>2018-10-20T10:45:26Z</time>
      </trkpt>
      <trkpt lat="45.88644" lon="4.90101">
        <ele>295</ele>
        <time>2018-10-20T10:45:27Z</time>
      </trkpt>
      <trkpt lat="45.88644" lon="4.90093">
        <ele>295</ele>
        <time>2018-10-20T10:45:28Z</time>
      </trkpt>
      <trkpt lat="45.88644" lon="4.90086">
        <ele>295</ele>
        <time>2018-10-20T10:45:29Z</time>
      </trkpt>
      <trkpt lat="45.88642" lon="4.90073">
        <ele>295</ele>
        <time>2018-10-20T10:45:31Z</time>
      </trkpt>
      <trkpt lat="45.88642" lon="4.90067">
        <ele>295</ele>
        <time>2018-10-20T10:45:32Z</time>
      </trkpt>
      <trkpt lat="45.88641" lon="4.90061">
        <ele>295</ele>
        <time>2018-10-20T10:45:34Z</time>
      </trkpt>
      <trkpt lat="45.8864" lon="4.90054">
        <ele>295</ele>
        <time>2018-10-20T10:45:35Z</time>
      </trkpt>
      <trkpt lat="45.88639" lon="4.90047">
        <ele>295</ele>
        <time>2018-10-20T10:45:36Z</time>
      </trkpt>
      <trkpt lat="45.88639" lon="4.90041">
        <ele>295</ele>
        <time>2018-10-20T10:45:37Z</time>
      </trkpt>
      <trkpt lat="45.88638" lon="4.90033">
        <ele>295</ele>
        <time>2018-10-20T10:45:38Z</time>
      </trkpt>
      <trkpt lat="45.88635" lon="4.90027">
        <ele>295</ele>
        <time>2018-10-20T10:45:39Z</time>
      </trkpt>
      <trkpt lat="45.88633" lon="4.9002">
        <ele>295</ele>
        <time>2018-10-20T10:45:40Z</time>
      </trkpt>
      <trkpt lat="45.88632" lon="4.90014">
        <ele>295</ele>
        <time>2018-10-20T10:45:41Z</time>
      </trkpt>
      <trkpt lat="45.88631" lon="4.90006">
        <ele>295</ele>
        <time>2018-10-20T10:45:42Z</time>
      </trkpt>
      <trkpt lat="45.8863" lon="4.9">
        <ele>295</ele>
        <time>2018-10-20T10:45:43Z</time>
      </trkpt>
      <trkpt lat="45.88629" lon="4.89993">
        <ele>295</ele>
        <time>2018-10-20T10:45:44Z</time>
      </trkpt>
      <trkpt lat="45.88629" lon="4.89986">
        <ele>295</ele>
        <time>2018-10-20T10:45:45Z</time>
      </trkpt>
      <trkpt lat="45.88627" lon="4.89978">
        <ele>295</ele>
        <time>2018-10-20T10:45:46Z</time>
      </trkpt>
      <trkpt lat="45.88627" lon="4.89972">
        <ele>295</ele>
        <time>2018-10-20T10:45:47Z</time>
      </trkpt>
      <trkpt lat="45.88625" lon="4.89962">
        <ele>295</ele>
        <time>2018-10-20T10:45:49Z</time>
      </trkpt>
      <trkpt lat="45.88623" lon="4.89956">
        <ele>295</ele>
        <time>2018-10-20T10:45:50Z</time>
      </trkpt>
      <trkpt lat="45.88621" lon="4.89944">
        <ele>295</ele>
        <time>2018-10-20T10:45:52Z</time>
      </trkpt>
      <trkpt lat="45.8862" lon="4.89938">
        <ele>295</ele>
        <time>2018-10-20T10:45:53Z</time>
      </trkpt>
      <trkpt lat="45.88618" lon="4.89932">
        <ele>295</ele>
        <time>2018-10-20T10:45:54Z</time>
      </trkpt>
      <trkpt lat="45.88616" lon="4.89926">
        <ele>296</ele>
        <time>2018-10-20T10:45:55Z</time>
      </trkpt>
      <trkpt lat="45.88614" lon="4.8992">
        <ele>296</ele>
        <time>2018-10-20T10:45:56Z</time>
      </trkpt>
      <trkpt lat="45.88609" lon="4.89916">
        <ele>296</ele>
        <time>2018-10-20T10:45:57Z</time>
      </trkpt>
      <trkpt lat="45.88606" lon="4.89913">
        <ele>296</ele>
        <time>2018-10-20T10:45:58Z</time>
      </trkpt>
      <trkpt lat="45.886" lon="4.89911">
        <ele>296</ele>
        <time>2018-10-20T10:45:59Z</time>
      </trkpt>
      <trkpt lat="45.88596" lon="4.89911">
        <ele>296</ele>
        <time>2018-10-20T10:46:00Z</time>
      </trkpt>
      <trkpt lat="45.88591" lon="4.89911">
        <ele>296</ele>
        <time>2018-10-20T10:46:01Z</time>
      </trkpt>
      <trkpt lat="45.88582" lon="4.89911">
        <ele>297</ele>
        <time>2018-10-20T10:46:03Z</time>
      </trkpt>
      <trkpt lat="45.88577" lon="4.89913">
        <ele>298</ele>
        <time>2018-10-20T10:46:04Z</time>
      </trkpt>
      <trkpt lat="45.8857" lon="4.89915">
        <ele>298</ele>
        <time>2018-10-20T10:46:06Z</time>
      </trkpt>
      <trkpt lat="45.88567" lon="4.89917">
        <ele>298</ele>
        <time>2018-10-20T10:46:07Z</time>
      </trkpt>
      <trkpt lat="45.8856" lon="4.8992">
        <ele>298</ele>
        <time>2018-10-20T10:46:09Z</time>
      </trkpt>
      <trkpt lat="45.88556" lon="4.8992">
        <ele>299</ele>
        <time>2018-10-20T10:46:10Z</time>
      </trkpt>
      <trkpt lat="45.88549" lon="4.89921">
        <ele>299</ele>
        <time>2018-10-20T10:46:13Z</time>
      </trkpt>
      <trkpt lat="45.88546" lon="4.89921">
        <ele>299</ele>
        <time>2018-10-20T10:46:14Z</time>
      </trkpt>
      <trkpt lat="45.88539" lon="4.89923">
        <ele>299</ele>
        <time>2018-10-20T10:46:17Z</time>
      </trkpt>
      <trkpt lat="45.88536" lon="4.89923">
        <ele>300</ele>
        <time>2018-10-20T10:46:18Z</time>
      </trkpt>
      <trkpt lat="45.88529" lon="4.89926">
        <ele>300</ele>
        <time>2018-10-20T10:46:21Z</time>
      </trkpt>
      <trkpt lat="45.88526" lon="4.89927">
        <ele>300</ele>
        <time>2018-10-20T10:46:22Z</time>
      </trkpt>
      <trkpt lat="45.88517" lon="4.8993">
        <ele>301</ele>
        <time>2018-10-20T10:46:25Z</time>
      </trkpt>
      <trkpt lat="45.88514" lon="4.89931">
        <ele>301</ele>
        <time>2018-10-20T10:46:26Z</time>
      </trkpt>
      <trkpt lat="45.88507" lon="4.89933">
        <ele>301</ele>
        <time>2018-10-20T10:46:29Z</time>
      </trkpt>
      <trkpt lat="45.88504" lon="4.89933">
        <ele>301</ele>
        <time>2018-10-20T10:46:30Z</time>
      </trkpt>
      <trkpt lat="45.88497" lon="4.89933">
        <ele>303</ele>
        <time>2018-10-20T10:46:33Z</time>
      </trkpt>
      <trkpt lat="45.88495" lon="4.89934">
        <ele>303</ele>
        <time>2018-10-20T10:46:34Z</time>
      </trkpt>
      <trkpt lat="45.88487" lon="4.89934">
        <ele>303</ele>
        <time>2018-10-20T10:46:37Z</time>
      </trkpt>
      <trkpt lat="45.88485" lon="4.89935">
        <ele>303</ele>
        <time>2018-10-20T10:46:38Z</time>
      </trkpt>
      <trkpt lat="45.88482" lon="4.89935">
        <ele>303</ele>
        <time>2018-10-20T10:46:39Z</time>
      </trkpt>
      <trkpt lat="45.88473" lon="4.89937">
        <ele>303</ele>
        <time>2018-10-20T10:46:40Z</time>
      </trkpt>
      <trkpt lat="45.88468" lon="4.8994">
        <ele>303</ele>
        <time>2018-10-20T10:46:42Z</time>
      </trkpt>
      <trkpt lat="45.88463" lon="4.89943">
        <ele>303</ele>
        <time>2018-10-20T10:46:43Z</time>
      </trkpt>
      <trkpt lat="45.88456" lon="4.89948">
        <ele>303</ele>
        <time>2018-10-20T10:46:45Z</time>
      </trkpt>
      <trkpt lat="45.88452" lon="4.8995">
        <ele>303</ele>
        <time>2018-10-20T10:46:46Z</time>
      </trkpt>
      <trkpt lat="45.88445" lon="4.89954">
        <ele>303</ele>
        <time>2018-10-20T10:46:48Z</time>
      </trkpt>
      <trkpt lat="45.88441" lon="4.89956">
        <ele>303</ele>
        <time>2018-10-20T10:46:49Z</time>
      </trkpt>
      <trkpt lat="45.88434" lon="4.89959">
        <ele>303</ele>
        <time>2018-10-20T10:46:51Z</time>
      </trkpt>
      <trkpt lat="45.8843" lon="4.8996">
        <ele>303</ele>
        <time>2018-10-20T10:46:52Z</time>
      </trkpt>
      <trkpt lat="45.88422" lon="4.89965">
        <ele>303</ele>
        <time>2018-10-20T10:46:54Z</time>
      </trkpt>
      <trkpt lat="45.88418" lon="4.89967">
        <ele>303</ele>
        <time>2018-10-20T10:46:55Z</time>
      </trkpt>
      <trkpt lat="45.8841" lon="4.89971">
        <ele>304</ele>
        <time>2018-10-20T10:46:57Z</time>
      </trkpt>
      <trkpt lat="45.88406" lon="4.89973">
        <ele>304</ele>
        <time>2018-10-20T10:46:58Z</time>
      </trkpt>
      <trkpt lat="45.88397" lon="4.89976">
        <ele>304</ele>
        <time>2018-10-20T10:47:01Z</time>
      </trkpt>
      <trkpt lat="45.88395" lon="4.89977">
        <ele>304</ele>
        <time>2018-10-20T10:47:02Z</time>
      </trkpt>
      <trkpt lat="45.88389" lon="4.8998">
        <ele>304</ele>
        <time>2018-10-20T10:47:04Z</time>
      </trkpt>
      <trkpt lat="45.88386" lon="4.89981">
        <ele>304</ele>
        <time>2018-10-20T10:47:05Z</time>
      </trkpt>
      <trkpt lat="45.8838" lon="4.89984">
        <ele>304</ele>
        <time>2018-10-20T10:47:07Z</time>
      </trkpt>
      <trkpt lat="45.88377" lon="4.89986">
        <ele>304</ele>
        <time>2018-10-20T10:47:08Z</time>
      </trkpt>
      <trkpt lat="45.8837" lon="4.89989">
        <ele>304</ele>
        <time>2018-10-20T10:47:10Z</time>
      </trkpt>
      <trkpt lat="45.88367" lon="4.8999">
        <ele>304</ele>
        <time>2018-10-20T10:47:11Z</time>
      </trkpt>
      <trkpt lat="45.88361" lon="4.89992">
        <ele>304</ele>
        <time>2018-10-20T10:47:13Z</time>
      </trkpt>
      <trkpt lat="45.88358" lon="4.89994">
        <ele>304</ele>
        <time>2018-10-20T10:47:14Z</time>
      </trkpt>
      <trkpt lat="45.88351" lon="4.89997">
        <ele>305</ele>
        <time>2018-10-20T10:47:15Z</time>
      </trkpt>
      <trkpt lat="45.88349" lon="4.89998">
        <ele>305</ele>
        <time>2018-10-20T10:47:16Z</time>
      </trkpt>
      <trkpt lat="45.8834" lon="4.90002">
        <ele>305</ele>
        <time>2018-10-20T10:47:18Z</time>
      </trkpt>
      <trkpt lat="45.88336" lon="4.90004">
        <ele>305</ele>
        <time>2018-10-20T10:47:19Z</time>
      </trkpt>
      <trkpt lat="45.88328" lon="4.90006">
        <ele>305</ele>
        <time>2018-10-20T10:47:21Z</time>
      </trkpt>
      <trkpt lat="45.88323" lon="4.90008">
        <ele>305</ele>
        <time>2018-10-20T10:47:22Z</time>
      </trkpt>
      <trkpt lat="45.88319" lon="4.9001">
        <ele>305</ele>
        <time>2018-10-20T10:47:23Z</time>
      </trkpt>
      <trkpt lat="45.88314" lon="4.90013">
        <ele>305</ele>
        <time>2018-10-20T10:47:24Z</time>
      </trkpt>
      <trkpt lat="45.8831" lon="4.90014">
        <ele>305</ele>
        <time>2018-10-20T10:47:25Z</time>
      </trkpt>
      <trkpt lat="45.88305" lon="4.90016">
        <ele>305</ele>
        <time>2018-10-20T10:47:26Z</time>
      </trkpt>
      <trkpt lat="45.88302" lon="4.9002">
        <ele>305</ele>
        <time>2018-10-20T10:47:27Z</time>
      </trkpt>
      <trkpt lat="45.88296" lon="4.90023">
        <ele>305</ele>
        <time>2018-10-20T10:47:28Z</time>
      </trkpt>
      <trkpt lat="45.88291" lon="4.90026">
        <ele>305</ele>
        <time>2018-10-20T10:47:29Z</time>
      </trkpt>
      <trkpt lat="45.88285" lon="4.9003">
        <ele>305</ele>
        <time>2018-10-20T10:47:30Z</time>
      </trkpt>
      <trkpt lat="45.8828" lon="4.90034">
        <ele>305</ele>
        <time>2018-10-20T10:47:31Z</time>
      </trkpt>
      <trkpt lat="45.88274" lon="4.90039">
        <ele>305</ele>
        <time>2018-10-20T10:47:32Z</time>
      </trkpt>
      <trkpt lat="45.8827" lon="4.90045">
        <ele>305</ele>
        <time>2018-10-20T10:47:33Z</time>
      </trkpt>
      <trkpt lat="45.88264" lon="4.9005">
        <ele>305</ele>
        <time>2018-10-20T10:47:34Z</time>
      </trkpt>
      <trkpt lat="45.88258" lon="4.90051">
        <ele>305</ele>
        <time>2018-10-20T10:47:35Z</time>
      </trkpt>
      <trkpt lat="45.88253" lon="4.90051">
        <ele>305</ele>
        <time>2018-10-20T10:47:36Z</time>
      </trkpt>
      <trkpt lat="45.88249" lon="4.90052">
        <ele>304</ele>
        <time>2018-10-20T10:47:37Z</time>
      </trkpt>
      <trkpt lat="45.88243" lon="4.90048">
        <ele>304</ele>
        <time>2018-10-20T10:47:38Z</time>
      </trkpt>
      <trkpt lat="45.88237" lon="4.90043">
        <ele>303</ele>
        <time>2018-10-20T10:47:39Z</time>
      </trkpt>
      <trkpt lat="45.88234" lon="4.90038">
        <ele>303</ele>
        <time>2018-10-20T10:47:40Z</time>
      </trkpt>
      <trkpt lat="45.8823" lon="4.90032">
        <ele>303</ele>
        <time>2018-10-20T10:47:41Z</time>
      </trkpt>
      <trkpt lat="45.88226" lon="4.90025">
        <ele>303</ele>
        <time>2018-10-20T10:47:42Z</time>
      </trkpt>
      <trkpt lat="45.88221" lon="4.90019">
        <ele>303</ele>
        <time>2018-10-20T10:47:43Z</time>
      </trkpt>
      <trkpt lat="45.88216" lon="4.90014">
        <ele>303</ele>
        <time>2018-10-20T10:47:44Z</time>
      </trkpt>
      <trkpt lat="45.88212" lon="4.90009">
        <ele>303</ele>
        <time>2018-10-20T10:47:45Z</time>
      </trkpt>
      <trkpt lat="45.88207" lon="4.90005">
        <ele>303</ele>
        <time>2018-10-20T10:47:46Z</time>
      </trkpt>
      <trkpt lat="45.88203" lon="4.9">
        <ele>303</ele>
        <time>2018-10-20T10:47:47Z</time>
      </trkpt>
      <trkpt lat="45.88199" lon="4.89993">
        <ele>302</ele>
        <time>2018-10-20T10:47:48Z</time>
      </trkpt>
      <trkpt lat="45.88196" lon="4.89986">
        <ele>301</ele>
        <time>2018-10-20T10:47:49Z</time>
      </trkpt>
      <trkpt lat="45.88194" lon="4.89979">
        <ele>301</ele>
        <time>2018-10-20T10:47:50Z</time>
      </trkpt>
      <trkpt lat="45.88192" lon="4.89967">
        <ele>301</ele>
        <time>2018-10-20T10:47:52Z</time>
      </trkpt>
      <trkpt lat="45.88192" lon="4.89959">
        <ele>301</ele>
        <time>2018-10-20T10:47:53Z</time>
      </trkpt>
      <trkpt lat="45.88193" lon="4.89951">
        <ele>301</ele>
        <time>2018-10-20T10:47:54Z</time>
      </trkpt>
      <trkpt lat="45.88193" lon="4.89943">
        <ele>301</ele>
        <time>2018-10-20T10:47:55Z</time>
      </trkpt>
      <trkpt lat="45.88185" lon="4.89936">
        <ele>301</ele>
        <time>2018-10-20T10:47:56Z</time>
      </trkpt>
      <trkpt lat="45.88182" lon="4.89924">
        <ele>301</ele>
        <time>2018-10-20T10:47:58Z</time>
      </trkpt>
      <trkpt lat="45.88183" lon="4.89917">
        <ele>301</ele>
        <time>2018-10-20T10:47:59Z</time>
      </trkpt>
      <trkpt lat="45.88184" lon="4.89909">
        <ele>300</ele>
        <time>2018-10-20T10:48:00Z</time>
      </trkpt>
      <trkpt lat="45.88184" lon="4.89901">
        <ele>300</ele>
        <time>2018-10-20T10:48:01Z</time>
      </trkpt>
      <trkpt lat="45.88184" lon="4.89893">
        <ele>301</ele>
        <time>2018-10-20T10:48:02Z</time>
      </trkpt>
      <trkpt lat="45.88184" lon="4.89885">
        <ele>301</ele>
        <time>2018-10-20T10:48:03Z</time>
      </trkpt>
      <trkpt lat="45.88184" lon="4.89877">
        <ele>301</ele>
        <time>2018-10-20T10:48:04Z</time>
      </trkpt>
      <trkpt lat="45.88184" lon="4.89869">
        <ele>301</ele>
        <time>2018-10-20T10:48:05Z</time>
      </trkpt>
      <trkpt lat="45.88184" lon="4.89862">
        <ele>301</ele>
        <time>2018-10-20T10:48:06Z</time>
      </trkpt>
      <trkpt lat="45.88185" lon="4.89854">
        <ele>300</ele>
        <time>2018-10-20T10:48:07Z</time>
      </trkpt>
      <trkpt lat="45.88187" lon="4.89848">
        <ele>300</ele>
        <time>2018-10-20T10:48:08Z</time>
      </trkpt>
      <trkpt lat="45.88187" lon="4.89841">
        <ele>300</ele>
        <time>2018-10-20T10:48:09Z</time>
      </trkpt>
      <trkpt lat="45.88188" lon="4.89829">
        <ele>300</ele>
        <time>2018-10-20T10:48:11Z</time>
      </trkpt>
      <trkpt lat="45.88188" lon="4.89822">
        <ele>300</ele>
        <time>2018-10-20T10:48:12Z</time>
      </trkpt>
      <trkpt lat="45.8819" lon="4.89811">
        <ele>300</ele>
        <time>2018-10-20T10:48:14Z</time>
      </trkpt>
      <trkpt lat="45.88192" lon="4.89802">
        <ele>300</ele>
        <time>2018-10-20T10:48:15Z</time>
      </trkpt>
      <trkpt lat="45.88192" lon="4.89795">
        <ele>300</ele>
        <time>2018-10-20T10:48:16Z</time>
      </trkpt>
      <trkpt lat="45.88193" lon="4.89789">
        <ele>300</ele>
        <time>2018-10-20T10:48:17Z</time>
      </trkpt>
      <trkpt lat="45.88193" lon="4.89778">
        <ele>300</ele>
        <time>2018-10-20T10:48:19Z</time>
      </trkpt>
      <trkpt lat="45.88193" lon="4.89772">
        <ele>300</ele>
        <time>2018-10-20T10:48:20Z</time>
      </trkpt>
      <trkpt lat="45.88195" lon="4.89766">
        <ele>300</ele>
        <time>2018-10-20T10:48:21Z</time>
      </trkpt>
      <trkpt lat="45.88194" lon="4.89757">
        <ele>300</ele>
        <time>2018-10-20T10:48:22Z</time>
      </trkpt>
      <trkpt lat="45.88194" lon="4.89749">
        <ele>299</ele>
        <time>2018-10-20T10:48:23Z</time>
      </trkpt>
      <trkpt lat="45.88194" lon="4.89742">
        <ele>299</ele>
        <time>2018-10-20T10:48:24Z</time>
      </trkpt>
      <trkpt lat="45.88195" lon="4.89734">
        <ele>299</ele>
        <time>2018-10-20T10:48:25Z</time>
      </trkpt>
      <trkpt lat="45.88195" lon="4.89727">
        <ele>299</ele>
        <time>2018-10-20T10:48:26Z</time>
      </trkpt>
      <trkpt lat="45.88196" lon="4.89719">
        <ele>299</ele>
        <time>2018-10-20T10:48:27Z</time>
      </trkpt>
      <trkpt lat="45.88196" lon="4.89712">
        <ele>299</ele>
        <time>2018-10-20T10:48:28Z</time>
      </trkpt>
      <trkpt lat="45.88196" lon="4.89705">
        <ele>299</ele>
        <time>2018-10-20T10:48:29Z</time>
      </trkpt>
      <trkpt lat="45.88196" lon="4.89696">
        <ele>299</ele>
        <time>2018-10-20T10:48:30Z</time>
      </trkpt>
      <trkpt lat="45.88195" lon="4.89687">
        <ele>299</ele>
        <time>2018-10-20T10:48:31Z</time>
      </trkpt>
      <trkpt lat="45.88195" lon="4.89679">
        <ele>299</ele>
        <time>2018-10-20T10:48:32Z</time>
      </trkpt>
      <trkpt lat="45.88195" lon="4.89672">
        <ele>299</ele>
        <time>2018-10-20T10:48:33Z</time>
      </trkpt>
      <trkpt lat="45.88195" lon="4.89665">
        <ele>299</ele>
        <time>2018-10-20T10:48:34Z</time>
      </trkpt>
      <trkpt lat="45.88195" lon="4.89657">
        <ele>299</ele>
        <time>2018-10-20T10:48:35Z</time>
      </trkpt>
      <trkpt lat="45.88196" lon="4.89649">
        <ele>299</ele>
        <time>2018-10-20T10:48:36Z</time>
      </trkpt>
      <trkpt lat="45.88196" lon="4.89641">
        <ele>299</ele>
        <time>2018-10-20T10:48:37Z</time>
      </trkpt>
      <trkpt lat="45.88196" lon="4.89635">
        <ele>299</ele>
        <time>2018-10-20T10:48:38Z</time>
      </trkpt>
      <trkpt lat="45.88196" lon="4.89627">
        <ele>299</ele>
        <time>2018-10-20T10:48:39Z</time>
      </trkpt>
      <trkpt lat="45.88197" lon="4.89619">
        <ele>299</ele>
        <time>2018-10-20T10:48:40Z</time>
      </trkpt>
      <trkpt lat="45.88198" lon="4.89612">
        <ele>299</ele>
        <time>2018-10-20T10:48:41Z</time>
      </trkpt>
      <trkpt lat="45.88197" lon="4.89604">
        <ele>299</ele>
        <time>2018-10-20T10:48:42Z</time>
      </trkpt>
      <trkpt lat="45.88199" lon="4.89596">
        <ele>299</ele>
        <time>2018-10-20T10:48:43Z</time>
      </trkpt>
      <trkpt lat="45.88199" lon="4.89588">
        <ele>299</ele>
        <time>2018-10-20T10:48:44Z</time>
      </trkpt>
      <trkpt lat="45.88201" lon="4.8958">
        <ele>298</ele>
        <time>2018-10-20T10:48:45Z</time>
      </trkpt>
      <trkpt lat="45.88201" lon="4.89571">
        <ele>298</ele>
        <time>2018-10-20T10:48:46Z</time>
      </trkpt>
      <trkpt lat="45.882" lon="4.89561">
        <ele>298</ele>
        <time>2018-10-20T10:48:47Z</time>
      </trkpt>
      <trkpt lat="45.88201" lon="4.89552">
        <ele>298</ele>
        <time>2018-10-20T10:48:48Z</time>
      </trkpt>
      <trkpt lat="45.88202" lon="4.89543">
        <ele>298</ele>
        <time>2018-10-20T10:48:49Z</time>
      </trkpt>
      <trkpt lat="45.88201" lon="4.89532">
        <ele>298</ele>
        <time>2018-10-20T10:48:50Z</time>
      </trkpt>
      <trkpt lat="45.88201" lon="4.89521">
        <ele>298</ele>
        <time>2018-10-20T10:48:51Z</time>
      </trkpt>
      <trkpt lat="45.88201" lon="4.8951">
        <ele>298</ele>
        <time>2018-10-20T10:48:52Z</time>
      </trkpt>
      <trkpt lat="45.88202" lon="4.89499">
        <ele>297</ele>
        <time>2018-10-20T10:48:53Z</time>
      </trkpt>
      <trkpt lat="45.88202" lon="4.89488">
        <ele>297</ele>
        <time>2018-10-20T10:48:54Z</time>
      </trkpt>
      <trkpt lat="45.88202" lon="4.89477">
        <ele>297</ele>
        <time>2018-10-20T10:48:55Z</time>
      </trkpt>
      <trkpt lat="45.88201" lon="4.89466">
        <ele>297</ele>
        <time>2018-10-20T10:48:56Z</time>
      </trkpt>
      <trkpt lat="45.88202" lon="4.89456">
        <ele>297</ele>
        <time>2018-10-20T10:48:57Z</time>
      </trkpt>
      <trkpt lat="45.88201" lon="4.89444">
        <ele>297</ele>
        <time>2018-10-20T10:48:58Z</time>
      </trkpt>
      <trkpt lat="45.88201" lon="4.89434">
        <ele>297</ele>
        <time>2018-10-20T10:48:59Z</time>
      </trkpt>
      <trkpt lat="45.88201" lon="4.89423">
        <ele>297</ele>
        <time>2018-10-20T10:49:00Z</time>
      </trkpt>
      <trkpt lat="45.88202" lon="4.89411">
        <ele>297</ele>
        <time>2018-10-20T10:49:01Z</time>
      </trkpt>
      <trkpt lat="45.88202" lon="4.89401">
        <ele>297</ele>
        <time>2018-10-20T10:49:02Z</time>
      </trkpt>
      <trkpt lat="45.88203" lon="4.8939">
        <ele>297</ele>
        <time>2018-10-20T10:49:03Z</time>
      </trkpt>
      <trkpt lat="45.88203" lon="4.89379">
        <ele>297</ele>
        <time>2018-10-20T10:49:04Z</time>
      </trkpt>
      <trkpt lat="45.88204" lon="4.8937">
        <ele>297</ele>
        <time>2018-10-20T10:49:05Z</time>
      </trkpt>
      <trkpt lat="45.88204" lon="4.89359">
        <ele>297</ele>
        <time>2018-10-20T10:49:06Z</time>
      </trkpt>
      <trkpt lat="45.88205" lon="4.8935">
        <ele>297</ele>
        <time>2018-10-20T10:49:07Z</time>
      </trkpt>
      <trkpt lat="45.88206" lon="4.89339">
        <ele>297</ele>
        <time>2018-10-20T10:49:08Z</time>
      </trkpt>
      <trkpt lat="45.88206" lon="4.89329">
        <ele>296</ele>
        <time>2018-10-20T10:49:09Z</time>
      </trkpt>
      <trkpt lat="45.88207" lon="4.89319">
        <ele>296</ele>
        <time>2018-10-20T10:49:10Z</time>
      </trkpt>
      <trkpt lat="45.88208" lon="4.89311">
        <ele>296</ele>
        <time>2018-10-20T10:49:11Z</time>
      </trkpt>
      <trkpt lat="45.88208" lon="4.893">
        <ele>296</ele>
        <time>2018-10-20T10:49:12Z</time>
      </trkpt>
      <trkpt lat="45.88209" lon="4.89289">
        <ele>297</ele>
        <time>2018-10-20T10:49:13Z</time>
      </trkpt>
      <trkpt lat="45.88209" lon="4.89279">
        <ele>297</ele>
        <time>2018-10-20T10:49:14Z</time>
      </trkpt>
      <trkpt lat="45.8821" lon="4.89269">
        <ele>297</ele>
        <time>2018-10-20T10:49:15Z</time>
      </trkpt>
      <trkpt lat="45.88209" lon="4.89258">
        <ele>297</ele>
        <time>2018-10-20T10:49:16Z</time>
      </trkpt>
      <trkpt lat="45.8821" lon="4.89249">
        <ele>296</ele>
        <time>2018-10-20T10:49:17Z</time>
      </trkpt>
      <trkpt lat="45.8821" lon="4.89241">
        <ele>296</ele>
        <time>2018-10-20T10:49:18Z</time>
      </trkpt>
      <trkpt lat="45.8821" lon="4.89232">
        <ele>296</ele>
        <time>2018-10-20T10:49:19Z</time>
      </trkpt>
      <trkpt lat="45.88211" lon="4.89224">
        <ele>296</ele>
        <time>2018-10-20T10:49:20Z</time>
      </trkpt>
      <trkpt lat="45.88211" lon="4.89216">
        <ele>296</ele>
        <time>2018-10-20T10:49:21Z</time>
      </trkpt>
      <trkpt lat="45.88213" lon="4.89208">
        <ele>296</ele>
        <time>2018-10-20T10:49:22Z</time>
      </trkpt>
      <trkpt lat="45.88214" lon="4.89199">
        <ele>296</ele>
        <time>2018-10-20T10:49:23Z</time>
      </trkpt>
      <trkpt lat="45.88214" lon="4.89191">
        <ele>296</ele>
        <time>2018-10-20T10:49:24Z</time>
      </trkpt>
      <trkpt lat="45.88215" lon="4.89182">
        <ele>296</ele>
        <time>2018-10-20T10:49:25Z</time>
      </trkpt>
      <trkpt lat="45.88215" lon="4.89173">
        <ele>296</ele>
        <time>2018-10-20T10:49:26Z</time>
      </trkpt>
      <trkpt lat="45.88215" lon="4.89165">
        <ele>295</ele>
        <time>2018-10-20T10:49:27Z</time>
      </trkpt>
      <trkpt lat="45.88216" lon="4.89157">
        <ele>295</ele>
        <time>2018-10-20T10:49:28Z</time>
      </trkpt>
      <trkpt lat="45.88216" lon="4.89148">
        <ele>295</ele>
        <time>2018-10-20T10:49:29Z</time>
      </trkpt>
      <trkpt lat="45.88217" lon="4.89139">
        <ele>294</ele>
        <time>2018-10-20T10:49:30Z</time>
      </trkpt>
      <trkpt lat="45.88218" lon="4.89131">
        <ele>294</ele>
        <time>2018-10-20T10:49:31Z</time>
      </trkpt>
      <trkpt lat="45.88219" lon="4.89122">
        <ele>294</ele>
        <time>2018-10-20T10:49:32Z</time>
      </trkpt>
      <trkpt lat="45.8822" lon="4.89113">
        <ele>294</ele>
        <time>2018-10-20T10:49:33Z</time>
      </trkpt>
      <trkpt lat="45.88214" lon="4.89103">
        <ele>294</ele>
        <time>2018-10-20T10:49:34Z</time>
      </trkpt>
      <trkpt lat="45.88214" lon="4.89094">
        <ele>294</ele>
        <time>2018-10-20T10:49:35Z</time>
      </trkpt>
      <trkpt lat="45.88215" lon="4.89085">
        <ele>294</ele>
        <time>2018-10-20T10:49:36Z</time>
      </trkpt>
      <trkpt lat="45.88217" lon="4.89075">
        <ele>293</ele>
        <time>2018-10-20T10:49:37Z</time>
      </trkpt>
      <trkpt lat="45.88217" lon="4.89068">
        <ele>293</ele>
        <time>2018-10-20T10:49:38Z</time>
      </trkpt>
      <trkpt lat="45.88218" lon="4.89057">
        <ele>293</ele>
        <time>2018-10-20T10:49:39Z</time>
      </trkpt>
      <trkpt lat="45.8822" lon="4.89048">
        <ele>293</ele>
        <time>2018-10-20T10:49:40Z</time>
      </trkpt>
      <trkpt lat="45.88221" lon="4.8904">
        <ele>293</ele>
        <time>2018-10-20T10:49:41Z</time>
      </trkpt>
      <trkpt lat="45.88222" lon="4.89033">
        <ele>293</ele>
        <time>2018-10-20T10:49:42Z</time>
      </trkpt>
      <trkpt lat="45.88224" lon="4.89025">
        <ele>293</ele>
        <time>2018-10-20T10:49:43Z</time>
      </trkpt>
      <trkpt lat="45.88224" lon="4.89019">
        <ele>293</ele>
        <time>2018-10-20T10:49:44Z</time>
      </trkpt>
      <trkpt lat="45.88225" lon="4.89011">
        <ele>293</ele>
        <time>2018-10-20T10:49:45Z</time>
      </trkpt>
      <trkpt lat="45.88226" lon="4.89002">
        <ele>293</ele>
        <time>2018-10-20T10:49:46Z</time>
      </trkpt>
      <trkpt lat="45.88226" lon="4.88993">
        <ele>293</ele>
        <time>2018-10-20T10:49:47Z</time>
      </trkpt>
      <trkpt lat="45.88226" lon="4.88984">
        <ele>293</ele>
        <time>2018-10-20T10:49:48Z</time>
      </trkpt>
      <trkpt lat="45.88227" lon="4.88975">
        <ele>293</ele>
        <time>2018-10-20T10:49:49Z</time>
      </trkpt>
      <trkpt lat="45.88227" lon="4.88968">
        <ele>293</ele>
        <time>2018-10-20T10:49:50Z</time>
      </trkpt>
      <trkpt lat="45.88228" lon="4.88957">
        <ele>293</ele>
        <time>2018-10-20T10:49:51Z</time>
      </trkpt>
      <trkpt lat="45.8823" lon="4.88949">
        <ele>293</ele>
        <time>2018-10-20T10:49:52Z</time>
      </trkpt>
      <trkpt lat="45.8823" lon="4.88942">
        <ele>293</ele>
        <time>2018-10-20T10:49:53Z</time>
      </trkpt>
      <trkpt lat="45.8823" lon="4.88934">
        <ele>293</ele>
        <time>2018-10-20T10:49:54Z</time>
      </trkpt>
      <trkpt lat="45.88231" lon="4.88927">
        <ele>292</ele>
        <time>2018-10-20T10:49:55Z</time>
      </trkpt>
      <trkpt lat="45.88233" lon="4.8892">
        <ele>292</ele>
        <time>2018-10-20T10:49:56Z</time>
      </trkpt>
      <trkpt lat="45.88234" lon="4.88913">
        <ele>293</ele>
        <time>2018-10-20T10:49:57Z</time>
      </trkpt>
      <trkpt lat="45.88235" lon="4.88905">
        <ele>293</ele>
        <time>2018-10-20T10:49:58Z</time>
      </trkpt>
      <trkpt lat="45.88235" lon="4.88898">
        <ele>293</ele>
        <time>2018-10-20T10:49:59Z</time>
      </trkpt>
      <trkpt lat="45.88237" lon="4.88891">
        <ele>293</ele>
        <time>2018-10-20T10:50:00Z</time>
      </trkpt>
      <trkpt lat="45.88237" lon="4.88883">
        <ele>293</ele>
        <time>2018-10-20T10:50:01Z</time>
      </trkpt>
      <trkpt lat="45.88237" lon="4.88874">
        <ele>293</ele>
        <time>2018-10-20T10:50:02Z</time>
      </trkpt>
      <trkpt lat="45.88237" lon="4.88866">
        <ele>293</ele>
        <time>2018-10-20T10:50:03Z</time>
      </trkpt>
      <trkpt lat="45.88236" lon="4.88859">
        <ele>294</ele>
        <time>2018-10-20T10:50:04Z</time>
      </trkpt>
      <trkpt lat="45.88236" lon="4.88849">
        <ele>294</ele>
        <time>2018-10-20T10:50:05Z</time>
      </trkpt>
      <trkpt lat="45.88237" lon="4.88841">
        <ele>294</ele>
        <time>2018-10-20T10:50:06Z</time>
      </trkpt>
      <trkpt lat="45.88237" lon="4.88834">
        <ele>294</ele>
        <time>2018-10-20T10:50:07Z</time>
      </trkpt>
      <trkpt lat="45.88238" lon="4.88828">
        <ele>294</ele>
        <time>2018-10-20T10:50:08Z</time>
      </trkpt>
      <trkpt lat="45.88239" lon="4.8882">
        <ele>294</ele>
        <time>2018-10-20T10:50:09Z</time>
      </trkpt>
      <trkpt lat="45.8824" lon="4.88811">
        <ele>294</ele>
        <time>2018-10-20T10:50:10Z</time>
      </trkpt>
      <trkpt lat="45.88242" lon="4.88803">
        <ele>294</ele>
        <time>2018-10-20T10:50:11Z</time>
      </trkpt>
      <trkpt lat="45.88242" lon="4.88795">
        <ele>294</ele>
        <time>2018-10-20T10:50:12Z</time>
      </trkpt>
      <trkpt lat="45.88243" lon="4.88787">
        <ele>294</ele>
        <time>2018-10-20T10:50:13Z</time>
      </trkpt>
      <trkpt lat="45.88243" lon="4.8878">
        <ele>294</ele>
        <time>2018-10-20T10:50:14Z</time>
      </trkpt>
      <trkpt lat="45.88244" lon="4.88771">
        <ele>294</ele>
        <time>2018-10-20T10:50:15Z</time>
      </trkpt>
      <trkpt lat="45.88244" lon="4.88762">
        <ele>294</ele>
        <time>2018-10-20T10:50:16Z</time>
      </trkpt>
      <trkpt lat="45.88244" lon="4.88754">
        <ele>294</ele>
        <time>2018-10-20T10:50:17Z</time>
      </trkpt>
      <trkpt lat="45.88245" lon="4.88746">
        <ele>294</ele>
        <time>2018-10-20T10:50:18Z</time>
      </trkpt>
      <trkpt lat="45.88246" lon="4.8874">
        <ele>295</ele>
        <time>2018-10-20T10:50:19Z</time>
      </trkpt>
      <trkpt lat="45.88247" lon="4.88732">
        <ele>295</ele>
        <time>2018-10-20T10:50:20Z</time>
      </trkpt>
      <trkpt lat="45.88247" lon="4.88725">
        <ele>295</ele>
        <time>2018-10-20T10:50:21Z</time>
      </trkpt>
      <trkpt lat="45.88248" lon="4.88716">
        <ele>295</ele>
        <time>2018-10-20T10:50:22Z</time>
      </trkpt>
      <trkpt lat="45.88248" lon="4.8871">
        <ele>295</ele>
        <time>2018-10-20T10:50:23Z</time>
      </trkpt>
      <trkpt lat="45.88251" lon="4.88703">
        <ele>294</ele>
        <time>2018-10-20T10:50:24Z</time>
      </trkpt>
      <trkpt lat="45.88251" lon="4.88694">
        <ele>294</ele>
        <time>2018-10-20T10:50:25Z</time>
      </trkpt>
      <trkpt lat="45.88252" lon="4.88687">
        <ele>294</ele>
        <time>2018-10-20T10:50:26Z</time>
      </trkpt>
      <trkpt lat="45.88253" lon="4.88679">
        <ele>294</ele>
        <time>2018-10-20T10:50:27Z</time>
      </trkpt>
      <trkpt lat="45.88255" lon="4.88672">
        <ele>295</ele>
        <time>2018-10-20T10:50:28Z</time>
      </trkpt>
      <trkpt lat="45.88257" lon="4.88664">
        <ele>295</ele>
        <time>2018-10-20T10:50:29Z</time>
      </trkpt>
      <trkpt lat="45.88257" lon="4.88657">
        <ele>295</ele>
        <time>2018-10-20T10:50:30Z</time>
      </trkpt>
      <trkpt lat="45.88257" lon="4.88649">
        <ele>294</ele>
        <time>2018-10-20T10:50:31Z</time>
      </trkpt>
      <trkpt lat="45.88258" lon="4.88641">
        <ele>294</ele>
        <time>2018-10-20T10:50:32Z</time>
      </trkpt>
      <trkpt lat="45.88258" lon="4.88633">
        <ele>294</ele>
        <time>2018-10-20T10:50:33Z</time>
      </trkpt>
      <trkpt lat="45.88254" lon="4.88627">
        <ele>294</ele>
        <time>2018-10-20T10:50:34Z</time>
      </trkpt>
      <trkpt lat="45.88254" lon="4.8862">
        <ele>294</ele>
        <time>2018-10-20T10:50:35Z</time>
      </trkpt>
      <trkpt lat="45.88257" lon="4.88613">
        <ele>294</ele>
        <time>2018-10-20T10:50:36Z</time>
      </trkpt>
      <trkpt lat="45.88257" lon="4.88606">
        <ele>294</ele>
        <time>2018-10-20T10:50:37Z</time>
      </trkpt>
      <trkpt lat="45.88258" lon="4.88599">
        <ele>295</ele>
        <time>2018-10-20T10:50:38Z</time>
      </trkpt>
      <trkpt lat="45.88258" lon="4.88592">
        <ele>295</ele>
        <time>2018-10-20T10:50:39Z</time>
      </trkpt>
      <trkpt lat="45.88259" lon="4.88584">
        <ele>295</ele>
        <time>2018-10-20T10:50:40Z</time>
      </trkpt>
      <trkpt lat="45.8826" lon="4.88577">
        <ele>295</ele>
        <time>2018-10-20T10:50:41Z</time>
      </trkpt>
      <trkpt lat="45.88261" lon="4.88569">
        <ele>295</ele>
        <time>2018-10-20T10:50:42Z</time>
      </trkpt>
      <trkpt lat="45.88261" lon="4.88561">
        <ele>295</ele>
        <time>2018-10-20T10:50:43Z</time>
      </trkpt>
      <trkpt lat="45.88262" lon="4.88554">
        <ele>294</ele>
        <time>2018-10-20T10:50:44Z</time>
      </trkpt>
      <trkpt lat="45.88262" lon="4.88546">
        <ele>294</ele>
        <time>2018-10-20T10:50:45Z</time>
      </trkpt>
      <trkpt lat="45.88262" lon="4.88538">
        <ele>294</ele>
        <time>2018-10-20T10:50:46Z</time>
      </trkpt>
      <trkpt lat="45.88264" lon="4.8853">
        <ele>295</ele>
        <time>2018-10-20T10:50:47Z</time>
      </trkpt>
      <trkpt lat="45.88264" lon="4.88524">
        <ele>295</ele>
        <time>2018-10-20T10:50:48Z</time>
      </trkpt>
      <trkpt lat="45.88264" lon="4.88517">
        <ele>295</ele>
        <time>2018-10-20T10:50:49Z</time>
      </trkpt>
      <trkpt lat="45.88264" lon="4.8851">
        <ele>295</ele>
        <time>2018-10-20T10:50:50Z</time>
      </trkpt>
      <trkpt lat="45.88264" lon="4.88503">
        <ele>295</ele>
        <time>2018-10-20T10:50:51Z</time>
      </trkpt>
      <trkpt lat="45.88265" lon="4.88496">
        <ele>295</ele>
        <time>2018-10-20T10:50:52Z</time>
      </trkpt>
      <trkpt lat="45.88266" lon="4.88488">
        <ele>295</ele>
        <time>2018-10-20T10:50:53Z</time>
      </trkpt>
      <trkpt lat="45.88266" lon="4.88482">
        <ele>295</ele>
        <time>2018-10-20T10:50:54Z</time>
      </trkpt>
      <trkpt lat="45.88266" lon="4.88475">
        <ele>295</ele>
        <time>2018-10-20T10:50:55Z</time>
      </trkpt>
      <trkpt lat="45.88266" lon="4.88468">
        <ele>295</ele>
        <time>2018-10-20T10:50:56Z</time>
      </trkpt>
      <trkpt lat="45.88266" lon="4.88461">
        <ele>295</ele>
        <time>2018-10-20T10:50:57Z</time>
      </trkpt>
      <trkpt lat="45.88266" lon="4.88454">
        <ele>295</ele>
        <time>2018-10-20T10:50:58Z</time>
      </trkpt>
      <trkpt lat="45.88267" lon="4.88447">
        <ele>295</ele>
        <time>2018-10-20T10:50:59Z</time>
      </trkpt>
      <trkpt lat="45.88267" lon="4.88441">
        <ele>295</ele>
        <time>2018-10-20T10:51:00Z</time>
      </trkpt>
      <trkpt lat="45.88267" lon="4.88434">
        <ele>295</ele>
        <time>2018-10-20T10:51:01Z</time>
      </trkpt>
      <trkpt lat="45.88267" lon="4.88426">
        <ele>295</ele>
        <time>2018-10-20T10:51:02Z</time>
      </trkpt>
      <trkpt lat="45.88267" lon="4.88419">
        <ele>295</ele>
        <time>2018-10-20T10:51:03Z</time>
      </trkpt>
      <trkpt lat="45.88268" lon="4.88413">
        <ele>295</ele>
        <time>2018-10-20T10:51:04Z</time>
      </trkpt>
      <trkpt lat="45.88269" lon="4.88407">
        <ele>295</ele>
        <time>2018-10-20T10:51:05Z</time>
      </trkpt>
      <trkpt lat="45.88271" lon="4.884">
        <ele>296</ele>
        <time>2018-10-20T10:51:06Z</time>
      </trkpt>
      <trkpt lat="45.88272" lon="4.88388">
        <ele>296</ele>
        <time>2018-10-20T10:51:08Z</time>
      </trkpt>
      <trkpt lat="45.88274" lon="4.88383">
        <ele>296</ele>
        <time>2018-10-20T10:51:09Z</time>
      </trkpt>
      <trkpt lat="45.88277" lon="4.88377">
        <ele>296</ele>
        <time>2018-10-20T10:51:10Z</time>
      </trkpt>
      <trkpt lat="45.8828" lon="4.88372">
        <ele>296</ele>
        <time>2018-10-20T10:51:11Z</time>
      </trkpt>
      <trkpt lat="45.88284" lon="4.88363">
        <ele>296</ele>
        <time>2018-10-20T10:51:12Z</time>
      </trkpt>
      <trkpt lat="45.88287" lon="4.88356">
        <ele>296</ele>
        <time>2018-10-20T10:51:13Z</time>
      </trkpt>
      <trkpt lat="45.88289" lon="4.8835">
        <ele>296</ele>
        <time>2018-10-20T10:51:14Z</time>
      </trkpt>
      <trkpt lat="45.88291" lon="4.88343">
        <ele>296</ele>
        <time>2018-10-20T10:51:15Z</time>
      </trkpt>
      <trkpt lat="45.88288" lon="4.88332">
        <ele>296</ele>
        <time>2018-10-20T10:51:17Z</time>
      </trkpt>
      <trkpt lat="45.88286" lon="4.88326">
        <ele>296</ele>
        <time>2018-10-20T10:51:18Z</time>
      </trkpt>
      <trkpt lat="45.8828" lon="4.88317">
        <ele>296</ele>
        <time>2018-10-20T10:51:20Z</time>
      </trkpt>
      <trkpt lat="45.88278" lon="4.88312">
        <ele>296</ele>
        <time>2018-10-20T10:51:21Z</time>
      </trkpt>
      <trkpt lat="45.88275" lon="4.88306">
        <ele>296</ele>
        <time>2018-10-20T10:51:22Z</time>
      </trkpt>
      <trkpt lat="45.88274" lon="4.88299">
        <ele>296</ele>
        <time>2018-10-20T10:51:23Z</time>
      </trkpt>
      <trkpt lat="45.88273" lon="4.88293">
        <ele>296</ele>
        <time>2018-10-20T10:51:24Z</time>
      </trkpt>
      <trkpt lat="45.88274" lon="4.88285">
        <ele>296</ele>
        <time>2018-10-20T10:51:25Z</time>
      </trkpt>
      <trkpt lat="45.88274" lon="4.88278">
        <ele>296</ele>
        <time>2018-10-20T10:51:26Z</time>
      </trkpt>
      <trkpt lat="45.88273" lon="4.88272">
        <ele>296</ele>
        <time>2018-10-20T10:51:27Z</time>
      </trkpt>
      <trkpt lat="45.88273" lon="4.88265">
        <ele>296</ele>
        <time>2018-10-20T10:51:28Z</time>
      </trkpt>
      <trkpt lat="45.88276" lon="4.88259">
        <ele>296</ele>
        <time>2018-10-20T10:51:29Z</time>
      </trkpt>
      <trkpt lat="45.88278" lon="4.88247">
        <ele>296</ele>
        <time>2018-10-20T10:51:31Z</time>
      </trkpt>
      <trkpt lat="45.88277" lon="4.88241">
        <ele>296</ele>
        <time>2018-10-20T10:51:32Z</time>
      </trkpt>
      <trkpt lat="45.88276" lon="4.88229">
        <ele>296</ele>
        <time>2018-10-20T10:51:34Z</time>
      </trkpt>
      <trkpt lat="45.88276" lon="4.88223">
        <ele>296</ele>
        <time>2018-10-20T10:51:35Z</time>
      </trkpt>
      <trkpt lat="45.88278" lon="4.88211">
        <ele>296</ele>
        <time>2018-10-20T10:51:37Z</time>
      </trkpt>
      <trkpt lat="45.88277" lon="4.88204">
        <ele>296</ele>
        <time>2018-10-20T10:51:38Z</time>
      </trkpt>
      <trkpt lat="45.88276" lon="4.88192">
        <ele>296</ele>
        <time>2018-10-20T10:51:40Z</time>
      </trkpt>
      <trkpt lat="45.88276" lon="4.88185">
        <ele>296</ele>
        <time>2018-10-20T10:51:41Z</time>
      </trkpt>
      <trkpt lat="45.88277" lon="4.88173">
        <ele>296</ele>
        <time>2018-10-20T10:51:43Z</time>
      </trkpt>
      <trkpt lat="45.88276" lon="4.88167">
        <ele>297</ele>
        <time>2018-10-20T10:51:44Z</time>
      </trkpt>
      <trkpt lat="45.88275" lon="4.88156">
        <ele>296</ele>
        <time>2018-10-20T10:51:46Z</time>
      </trkpt>
      <trkpt lat="45.88274" lon="4.88148">
        <ele>296</ele>
        <time>2018-10-20T10:51:47Z</time>
      </trkpt>
      <trkpt lat="45.88275" lon="4.88142">
        <ele>295</ele>
        <time>2018-10-20T10:51:48Z</time>
      </trkpt>
      <trkpt lat="45.88274" lon="4.88135">
        <ele>295</ele>
        <time>2018-10-20T10:51:49Z</time>
      </trkpt>
      <trkpt lat="45.88275" lon="4.88126">
        <ele>295</ele>
        <time>2018-10-20T10:51:51Z</time>
      </trkpt>
      <trkpt lat="45.88275" lon="4.8812">
        <ele>295</ele>
        <time>2018-10-20T10:51:52Z</time>
      </trkpt>
      <trkpt lat="45.88275" lon="4.88113">
        <ele>295</ele>
        <time>2018-10-20T10:51:53Z</time>
      </trkpt>
      <trkpt lat="45.88275" lon="4.88106">
        <ele>295</ele>
        <time>2018-10-20T10:51:54Z</time>
      </trkpt>
      <trkpt lat="45.88274" lon="4.88097">
        <ele>294</ele>
        <time>2018-10-20T10:51:55Z</time>
      </trkpt>
      <trkpt lat="45.88274" lon="4.8809">
        <ele>294</ele>
        <time>2018-10-20T10:51:56Z</time>
      </trkpt>
      <trkpt lat="45.88274" lon="4.88082">
        <ele>293</ele>
        <time>2018-10-20T10:51:57Z</time>
      </trkpt>
      <trkpt lat="45.88274" lon="4.88075">
        <ele>293</ele>
        <time>2018-10-20T10:51:58Z</time>
      </trkpt>
      <trkpt lat="45.88271" lon="4.88067">
        <ele>293</ele>
        <time>2018-10-20T10:51:59Z</time>
      </trkpt>
      <trkpt lat="45.88271" lon="4.88058">
        <ele>293</ele>
        <time>2018-10-20T10:52:00Z</time>
      </trkpt>
      <trkpt lat="45.8827" lon="4.88051">
        <ele>293</ele>
        <time>2018-10-20T10:52:01Z</time>
      </trkpt>
      <trkpt lat="45.8827" lon="4.88041">
        <ele>293</ele>
        <time>2018-10-20T10:52:02Z</time>
      </trkpt>
      <trkpt lat="45.8827" lon="4.88033">
        <ele>293</ele>
        <time>2018-10-20T10:52:03Z</time>
      </trkpt>
      <trkpt lat="45.8827" lon="4.88026">
        <ele>293</ele>
        <time>2018-10-20T10:52:04Z</time>
      </trkpt>
      <trkpt lat="45.8827" lon="4.88018">
        <ele>293</ele>
        <time>2018-10-20T10:52:05Z</time>
      </trkpt>
      <trkpt lat="45.8827" lon="4.88011">
        <ele>293</ele>
        <time>2018-10-20T10:52:06Z</time>
      </trkpt>
      <trkpt lat="45.8827" lon="4.88004">
        <ele>293</ele>
        <time>2018-10-20T10:52:07Z</time>
      </trkpt>
      <trkpt lat="45.8827" lon="4.87996">
        <ele>293</ele>
        <time>2018-10-20T10:52:08Z</time>
      </trkpt>
      <trkpt lat="45.8827" lon="4.87989">
        <ele>293</ele>
        <time>2018-10-20T10:52:09Z</time>
      </trkpt>
      <trkpt lat="45.8827" lon="4.8798">
        <ele>293</ele>
        <time>2018-10-20T10:52:10Z</time>
      </trkpt>
      <trkpt lat="45.8827" lon="4.87973">
        <ele>293</ele>
        <time>2018-10-20T10:52:11Z</time>
      </trkpt>
      <trkpt lat="45.8827" lon="4.87964">
        <ele>293</ele>
        <time>2018-10-20T10:52:12Z</time>
      </trkpt>
      <trkpt lat="45.8827" lon="4.87956">
        <ele>293</ele>
        <time>2018-10-20T10:52:13Z</time>
      </trkpt>
      <trkpt lat="45.8827" lon="4.87948">
        <ele>294</ele>
        <time>2018-10-20T10:52:14Z</time>
      </trkpt>
      <trkpt lat="45.88269" lon="4.8794">
        <ele>294</ele>
        <time>2018-10-20T10:52:15Z</time>
      </trkpt>
      <trkpt lat="45.88268" lon="4.87932">
        <ele>294</ele>
        <time>2018-10-20T10:52:16Z</time>
      </trkpt>
      <trkpt lat="45.88268" lon="4.87923">
        <ele>294</ele>
        <time>2018-10-20T10:52:17Z</time>
      </trkpt>
      <trkpt lat="45.88268" lon="4.87916">
        <ele>295</ele>
        <time>2018-10-20T10:52:18Z</time>
      </trkpt>
      <trkpt lat="45.88267" lon="4.87906">
        <ele>295</ele>
        <time>2018-10-20T10:52:19Z</time>
      </trkpt>
      <trkpt lat="45.88266" lon="4.87897">
        <ele>295</ele>
        <time>2018-10-20T10:52:20Z</time>
      </trkpt>
      <trkpt lat="45.88266" lon="4.87888">
        <ele>294</ele>
        <time>2018-10-20T10:52:21Z</time>
      </trkpt>
      <trkpt lat="45.88265" lon="4.87878">
        <ele>294</ele>
        <time>2018-10-20T10:52:22Z</time>
      </trkpt>
      <trkpt lat="45.88265" lon="4.87868">
        <ele>294</ele>
        <time>2018-10-20T10:52:23Z</time>
      </trkpt>
      <trkpt lat="45.88264" lon="4.87857">
        <ele>294</ele>
        <time>2018-10-20T10:52:24Z</time>
      </trkpt>
      <trkpt lat="45.88262" lon="4.87846">
        <ele>294</ele>
        <time>2018-10-20T10:52:25Z</time>
      </trkpt>
      <trkpt lat="45.88262" lon="4.87838">
        <ele>294</ele>
        <time>2018-10-20T10:52:26Z</time>
      </trkpt>
      <trkpt lat="45.8826" lon="4.87828">
        <ele>295</ele>
        <time>2018-10-20T10:52:27Z</time>
      </trkpt>
      <trkpt lat="45.88259" lon="4.87817">
        <ele>295</ele>
        <time>2018-10-20T10:52:28Z</time>
      </trkpt>
      <trkpt lat="45.88258" lon="4.87806">
        <ele>295</ele>
        <time>2018-10-20T10:52:29Z</time>
      </trkpt>
      <trkpt lat="45.88255" lon="4.87796">
        <ele>295</ele>
        <time>2018-10-20T10:52:30Z</time>
      </trkpt>
      <trkpt lat="45.88254" lon="4.87786">
        <ele>295</ele>
        <time>2018-10-20T10:52:31Z</time>
      </trkpt>
      <trkpt lat="45.88251" lon="4.87777">
        <ele>295</ele>
        <time>2018-10-20T10:52:32Z</time>
      </trkpt>
      <trkpt lat="45.88248" lon="4.87768">
        <ele>295</ele>
        <time>2018-10-20T10:52:33Z</time>
      </trkpt>
      <trkpt lat="45.88247" lon="4.8776">
        <ele>295</ele>
        <time>2018-10-20T10:52:34Z</time>
      </trkpt>
      <trkpt lat="45.88245" lon="4.87752">
        <ele>296</ele>
        <time>2018-10-20T10:52:35Z</time>
      </trkpt>
      <trkpt lat="45.88244" lon="4.87743">
        <ele>296</ele>
        <time>2018-10-20T10:52:36Z</time>
      </trkpt>
      <trkpt lat="45.88243" lon="4.87736">
        <ele>295</ele>
        <time>2018-10-20T10:52:37Z</time>
      </trkpt>
      <trkpt lat="45.88242" lon="4.87728">
        <ele>295</ele>
        <time>2018-10-20T10:52:38Z</time>
      </trkpt>
      <trkpt lat="45.88242" lon="4.8772">
        <ele>295</ele>
        <time>2018-10-20T10:52:39Z</time>
      </trkpt>
      <trkpt lat="45.88242" lon="4.87713">
        <ele>295</ele>
        <time>2018-10-20T10:52:40Z</time>
      </trkpt>
      <trkpt lat="45.88241" lon="4.877">
        <ele>295</ele>
        <time>2018-10-20T10:52:42Z</time>
      </trkpt>
      <trkpt lat="45.8824" lon="4.87694">
        <ele>295</ele>
        <time>2018-10-20T10:52:43Z</time>
      </trkpt>
      <trkpt lat="45.88239" lon="4.87687">
        <ele>295</ele>
        <time>2018-10-20T10:52:44Z</time>
      </trkpt>
      <trkpt lat="45.88238" lon="4.8768">
        <ele>295</ele>
        <time>2018-10-20T10:52:45Z</time>
      </trkpt>
      <trkpt lat="45.88236" lon="4.87672">
        <ele>295</ele>
        <time>2018-10-20T10:52:46Z</time>
      </trkpt>
      <trkpt lat="45.88235" lon="4.87664">
        <ele>295</ele>
        <time>2018-10-20T10:52:47Z</time>
      </trkpt>
      <trkpt lat="45.88234" lon="4.87656">
        <ele>295</ele>
        <time>2018-10-20T10:52:48Z</time>
      </trkpt>
      <trkpt lat="45.88233" lon="4.87648">
        <ele>295</ele>
        <time>2018-10-20T10:52:49Z</time>
      </trkpt>
      <trkpt lat="45.88232" lon="4.87641">
        <ele>295</ele>
        <time>2018-10-20T10:52:50Z</time>
      </trkpt>
      <trkpt lat="45.88231" lon="4.87633">
        <ele>295</ele>
        <time>2018-10-20T10:52:51Z</time>
      </trkpt>
      <trkpt lat="45.88228" lon="4.87624">
        <ele>295</ele>
        <time>2018-10-20T10:52:52Z</time>
      </trkpt>
      <trkpt lat="45.88227" lon="4.87616">
        <ele>295</ele>
        <time>2018-10-20T10:52:53Z</time>
      </trkpt>
      <trkpt lat="45.88226" lon="4.87607">
        <ele>295</ele>
        <time>2018-10-20T10:52:54Z</time>
      </trkpt>
      <trkpt lat="45.88226" lon="4.87598">
        <ele>295</ele>
        <time>2018-10-20T10:52:55Z</time>
      </trkpt>
      <trkpt lat="45.88226" lon="4.87591">
        <ele>295</ele>
        <time>2018-10-20T10:52:56Z</time>
      </trkpt>
      <trkpt lat="45.88228" lon="4.87583">
        <ele>296</ele>
        <time>2018-10-20T10:52:57Z</time>
      </trkpt>
      <trkpt lat="45.88227" lon="4.87575">
        <ele>296</ele>
        <time>2018-10-20T10:52:58Z</time>
      </trkpt>
      <trkpt lat="45.88227" lon="4.87567">
        <ele>296</ele>
        <time>2018-10-20T10:52:59Z</time>
      </trkpt>
      <trkpt lat="45.88226" lon="4.87558">
        <ele>296</ele>
        <time>2018-10-20T10:53:00Z</time>
      </trkpt>
      <trkpt lat="45.88226" lon="4.8755">
        <ele>296</ele>
        <time>2018-10-20T10:53:01Z</time>
      </trkpt>
      <trkpt lat="45.88226" lon="4.87543">
        <ele>296</ele>
        <time>2018-10-20T10:53:02Z</time>
      </trkpt>
      <trkpt lat="45.88225" lon="4.87534">
        <ele>296</ele>
        <time>2018-10-20T10:53:03Z</time>
      </trkpt>
      <trkpt lat="45.88225" lon="4.87526">
        <ele>296</ele>
        <time>2018-10-20T10:53:04Z</time>
      </trkpt>
      <trkpt lat="45.88225" lon="4.87518">
        <ele>296</ele>
        <time>2018-10-20T10:53:05Z</time>
      </trkpt>
      <trkpt lat="45.88225" lon="4.87511">
        <ele>297</ele>
        <time>2018-10-20T10:53:06Z</time>
      </trkpt>
      <trkpt lat="45.88225" lon="4.87504">
        <ele>297</ele>
        <time>2018-10-20T10:53:07Z</time>
      </trkpt>
      <trkpt lat="45.88224" lon="4.87497">
        <ele>297</ele>
        <time>2018-10-20T10:53:08Z</time>
      </trkpt>
      <trkpt lat="45.88224" lon="4.8749">
        <ele>297</ele>
        <time>2018-10-20T10:53:09Z</time>
      </trkpt>
      <trkpt lat="45.88222" lon="4.87483">
        <ele>297</ele>
        <time>2018-10-20T10:53:10Z</time>
      </trkpt>
      <trkpt lat="45.88222" lon="4.87476">
        <ele>297</ele>
        <time>2018-10-20T10:53:11Z</time>
      </trkpt>
      <trkpt lat="45.88222" lon="4.87469">
        <ele>297</ele>
        <time>2018-10-20T10:53:12Z</time>
      </trkpt>
      <trkpt lat="45.88221" lon="4.87461">
        <ele>297</ele>
        <time>2018-10-20T10:53:13Z</time>
      </trkpt>
      <trkpt lat="45.88221" lon="4.87453">
        <ele>297</ele>
        <time>2018-10-20T10:53:14Z</time>
      </trkpt>
      <trkpt lat="45.88219" lon="4.87446">
        <ele>297</ele>
        <time>2018-10-20T10:53:15Z</time>
      </trkpt>
      <trkpt lat="45.8822" lon="4.87438">
        <ele>297</ele>
        <time>2018-10-20T10:53:16Z</time>
      </trkpt>
      <trkpt lat="45.88219" lon="4.87431">
        <ele>297</ele>
        <time>2018-10-20T10:53:17Z</time>
      </trkpt>
      <trkpt lat="45.88219" lon="4.87424">
        <ele>297</ele>
        <time>2018-10-20T10:53:18Z</time>
      </trkpt>
      <trkpt lat="45.88218" lon="4.87417">
        <ele>297</ele>
        <time>2018-10-20T10:53:19Z</time>
      </trkpt>
      <trkpt lat="45.88218" lon="4.87409">
        <ele>297</ele>
        <time>2018-10-20T10:53:20Z</time>
      </trkpt>
      <trkpt lat="45.88217" lon="4.87402">
        <ele>297</ele>
        <time>2018-10-20T10:53:21Z</time>
      </trkpt>
      <trkpt lat="45.88217" lon="4.87395">
        <ele>297</ele>
        <time>2018-10-20T10:53:22Z</time>
      </trkpt>
      <trkpt lat="45.88217" lon="4.87388">
        <ele>297</ele>
        <time>2018-10-20T10:53:23Z</time>
      </trkpt>
      <trkpt lat="45.88217" lon="4.87381">
        <ele>297</ele>
        <time>2018-10-20T10:53:24Z</time>
      </trkpt>
      <trkpt lat="45.88219" lon="4.87375">
        <ele>297</ele>
        <time>2018-10-20T10:53:25Z</time>
      </trkpt>
      <trkpt lat="45.88222" lon="4.87368">
        <ele>297</ele>
        <time>2018-10-20T10:53:26Z</time>
      </trkpt>
      <trkpt lat="45.88218" lon="4.8736">
        <ele>297</ele>
        <time>2018-10-20T10:53:27Z</time>
      </trkpt>
      <trkpt lat="45.88217" lon="4.8735">
        <ele>297</ele>
        <time>2018-10-20T10:53:28Z</time>
      </trkpt>
      <trkpt lat="45.88216" lon="4.87341">
        <ele>297</ele>
        <time>2018-10-20T10:53:29Z</time>
      </trkpt>
      <trkpt lat="45.88214" lon="4.87334">
        <ele>297</ele>
        <time>2018-10-20T10:53:30Z</time>
      </trkpt>
      <trkpt lat="45.88212" lon="4.87327">
        <ele>297</ele>
        <time>2018-10-20T10:53:31Z</time>
      </trkpt>
      <trkpt lat="45.88212" lon="4.8732">
        <ele>297</ele>
        <time>2018-10-20T10:53:32Z</time>
      </trkpt>
      <trkpt lat="45.88211" lon="4.87311">
        <ele>297</ele>
        <time>2018-10-20T10:53:33Z</time>
      </trkpt>
      <trkpt lat="45.88212" lon="4.87302">
        <ele>297</ele>
        <time>2018-10-20T10:53:34Z</time>
      </trkpt>
      <trkpt lat="45.88211" lon="4.87295">
        <ele>297</ele>
        <time>2018-10-20T10:53:35Z</time>
      </trkpt>
      <trkpt lat="45.88211" lon="4.87288">
        <ele>297</ele>
        <time>2018-10-20T10:53:36Z</time>
      </trkpt>
      <trkpt lat="45.8821" lon="4.8728">
        <ele>297</ele>
        <time>2018-10-20T10:53:37Z</time>
      </trkpt>
      <trkpt lat="45.88211" lon="4.87273">
        <ele>297</ele>
        <time>2018-10-20T10:53:38Z</time>
      </trkpt>
      <trkpt lat="45.8821" lon="4.87265">
        <ele>297</ele>
        <time>2018-10-20T10:53:39Z</time>
      </trkpt>
      <trkpt lat="45.88209" lon="4.87259">
        <ele>297</ele>
        <time>2018-10-20T10:53:40Z</time>
      </trkpt>
      <trkpt lat="45.88209" lon="4.87252">
        <ele>297</ele>
        <time>2018-10-20T10:53:41Z</time>
      </trkpt>
      <trkpt lat="45.88209" lon="4.87245">
        <ele>298</ele>
        <time>2018-10-20T10:53:42Z</time>
      </trkpt>
      <trkpt lat="45.88208" lon="4.87237">
        <ele>298</ele>
        <time>2018-10-20T10:53:43Z</time>
      </trkpt>
      <trkpt lat="45.88209" lon="4.87229">
        <ele>298</ele>
        <time>2018-10-20T10:53:44Z</time>
      </trkpt>
      <trkpt lat="45.88206" lon="4.87223">
        <ele>298</ele>
        <time>2018-10-20T10:53:45Z</time>
      </trkpt>
      <trkpt lat="45.88206" lon="4.87215">
        <ele>298</ele>
        <time>2018-10-20T10:53:46Z</time>
      </trkpt>
      <trkpt lat="45.88205" lon="4.87208">
        <ele>298</ele>
        <time>2018-10-20T10:53:47Z</time>
      </trkpt>
      <trkpt lat="45.88207" lon="4.87202">
        <ele>298</ele>
        <time>2018-10-20T10:53:48Z</time>
      </trkpt>
      <trkpt lat="45.88207" lon="4.87194">
        <ele>298</ele>
        <time>2018-10-20T10:53:49Z</time>
      </trkpt>
      <trkpt lat="45.88207" lon="4.87188">
        <ele>298</ele>
        <time>2018-10-20T10:53:50Z</time>
      </trkpt>
      <trkpt lat="45.88206" lon="4.8718">
        <ele>298</ele>
        <time>2018-10-20T10:53:51Z</time>
      </trkpt>
      <trkpt lat="45.88207" lon="4.87172">
        <ele>298</ele>
        <time>2018-10-20T10:53:52Z</time>
      </trkpt>
      <trkpt lat="45.88206" lon="4.87165">
        <ele>298</ele>
        <time>2018-10-20T10:53:53Z</time>
      </trkpt>
      <trkpt lat="45.88207" lon="4.87158">
        <ele>298</ele>
        <time>2018-10-20T10:53:54Z</time>
      </trkpt>
      <trkpt lat="45.88207" lon="4.8715">
        <ele>298</ele>
        <time>2018-10-20T10:53:55Z</time>
      </trkpt>
      <trkpt lat="45.88206" lon="4.87142">
        <ele>298</ele>
        <time>2018-10-20T10:53:56Z</time>
      </trkpt>
      <trkpt lat="45.88205" lon="4.87133">
        <ele>298</ele>
        <time>2018-10-20T10:53:57Z</time>
      </trkpt>
      <trkpt lat="45.88205" lon="4.87125">
        <ele>299</ele>
        <time>2018-10-20T10:53:58Z</time>
      </trkpt>
      <trkpt lat="45.88204" lon="4.87116">
        <ele>299</ele>
        <time>2018-10-20T10:53:59Z</time>
      </trkpt>
      <trkpt lat="45.88203" lon="4.87108">
        <ele>299</ele>
        <time>2018-10-20T10:54:00Z</time>
      </trkpt>
      <trkpt lat="45.88203" lon="4.871">
        <ele>299</ele>
        <time>2018-10-20T10:54:01Z</time>
      </trkpt>
      <trkpt lat="45.88202" lon="4.87094">
        <ele>299</ele>
        <time>2018-10-20T10:54:02Z</time>
      </trkpt>
      <trkpt lat="45.88201" lon="4.87086">
        <ele>299</ele>
        <time>2018-10-20T10:54:03Z</time>
      </trkpt>
      <trkpt lat="45.88199" lon="4.87074">
        <ele>299</ele>
        <time>2018-10-20T10:54:05Z</time>
      </trkpt>
      <trkpt lat="45.88199" lon="4.87066">
        <ele>299</ele>
        <time>2018-10-20T10:54:06Z</time>
      </trkpt>
      <trkpt lat="45.88199" lon="4.8706">
        <ele>299</ele>
        <time>2018-10-20T10:54:07Z</time>
      </trkpt>
      <trkpt lat="45.88198" lon="4.87053">
        <ele>299</ele>
        <time>2018-10-20T10:54:08Z</time>
      </trkpt>
      <trkpt lat="45.88197" lon="4.87045">
        <ele>299</ele>
        <time>2018-10-20T10:54:09Z</time>
      </trkpt>
      <trkpt lat="45.88198" lon="4.87038">
        <ele>299</ele>
        <time>2018-10-20T10:54:10Z</time>
      </trkpt>
      <trkpt lat="45.88196" lon="4.87028">
        <ele>299</ele>
        <time>2018-10-20T10:54:11Z</time>
      </trkpt>
      <trkpt lat="45.88195" lon="4.8702">
        <ele>299</ele>
        <time>2018-10-20T10:54:12Z</time>
      </trkpt>
      <trkpt lat="45.88196" lon="4.87012">
        <ele>299</ele>
        <time>2018-10-20T10:54:13Z</time>
      </trkpt>
      <trkpt lat="45.88196" lon="4.87006">
        <ele>299</ele>
        <time>2018-10-20T10:54:14Z</time>
      </trkpt>
      <trkpt lat="45.88195" lon="4.86999">
        <ele>299</ele>
        <time>2018-10-20T10:54:15Z</time>
      </trkpt>
      <trkpt lat="45.88195" lon="4.86991">
        <ele>299</ele>
        <time>2018-10-20T10:54:16Z</time>
      </trkpt>
      <trkpt lat="45.88195" lon="4.86985">
        <ele>299</ele>
        <time>2018-10-20T10:54:17Z</time>
      </trkpt>
      <trkpt lat="45.88197" lon="4.86976">
        <ele>299</ele>
        <time>2018-10-20T10:54:18Z</time>
      </trkpt>
      <trkpt lat="45.88197" lon="4.86969">
        <ele>299</ele>
        <time>2018-10-20T10:54:19Z</time>
      </trkpt>
      <trkpt lat="45.88195" lon="4.86961">
        <ele>299</ele>
        <time>2018-10-20T10:54:20Z</time>
      </trkpt>
      <trkpt lat="45.88195" lon="4.8695">
        <ele>299</ele>
        <time>2018-10-20T10:54:22Z</time>
      </trkpt>
      <trkpt lat="45.88193" lon="4.86943">
        <ele>300</ele>
        <time>2018-10-20T10:54:23Z</time>
      </trkpt>
      <trkpt lat="45.88194" lon="4.86936">
        <ele>300</ele>
        <time>2018-10-20T10:54:24Z</time>
      </trkpt>
      <trkpt lat="45.88193" lon="4.86927">
        <ele>300</ele>
        <time>2018-10-20T10:54:25Z</time>
      </trkpt>
      <trkpt lat="45.88193" lon="4.86917">
        <ele>300</ele>
        <time>2018-10-20T10:54:26Z</time>
      </trkpt>
      <trkpt lat="45.88192" lon="4.86908">
        <ele>300</ele>
        <time>2018-10-20T10:54:27Z</time>
      </trkpt>
      <trkpt lat="45.88191" lon="4.86901">
        <ele>300</ele>
        <time>2018-10-20T10:54:28Z</time>
      </trkpt>
      <trkpt lat="45.88191" lon="4.86894">
        <ele>299</ele>
        <time>2018-10-20T10:54:29Z</time>
      </trkpt>
      <trkpt lat="45.88193" lon="4.86887">
        <ele>299</ele>
        <time>2018-10-20T10:54:30Z</time>
      </trkpt>
      <trkpt lat="45.88192" lon="4.86879">
        <ele>299</ele>
        <time>2018-10-20T10:54:31Z</time>
      </trkpt>
      <trkpt lat="45.88189" lon="4.86871">
        <ele>299</ele>
        <time>2018-10-20T10:54:32Z</time>
      </trkpt>
      <trkpt lat="45.88188" lon="4.86864">
        <ele>299</ele>
        <time>2018-10-20T10:54:33Z</time>
      </trkpt>
      <trkpt lat="45.88185" lon="4.86855">
        <ele>299</ele>
        <time>2018-10-20T10:54:34Z</time>
      </trkpt>
      <trkpt lat="45.88186" lon="4.86847">
        <ele>299</ele>
        <time>2018-10-20T10:54:35Z</time>
      </trkpt>
      <trkpt lat="45.88184" lon="4.86835">
        <ele>299</ele>
        <time>2018-10-20T10:54:37Z</time>
      </trkpt>
      <trkpt lat="45.88183" lon="4.86828">
        <ele>299</ele>
        <time>2018-10-20T10:54:38Z</time>
      </trkpt>
      <trkpt lat="45.88182" lon="4.8682">
        <ele>299</ele>
        <time>2018-10-20T10:54:39Z</time>
      </trkpt>
      <trkpt lat="45.88181" lon="4.86813">
        <ele>299</ele>
        <time>2018-10-20T10:54:40Z</time>
      </trkpt>
      <trkpt lat="45.8818" lon="4.86805">
        <ele>299</ele>
        <time>2018-10-20T10:54:41Z</time>
      </trkpt>
      <trkpt lat="45.88178" lon="4.86798">
        <ele>299</ele>
        <time>2018-10-20T10:54:42Z</time>
      </trkpt>
      <trkpt lat="45.88177" lon="4.8679">
        <ele>299</ele>
        <time>2018-10-20T10:54:43Z</time>
      </trkpt>
      <trkpt lat="45.88175" lon="4.8678">
        <ele>299</ele>
        <time>2018-10-20T10:54:44Z</time>
      </trkpt>
      <trkpt lat="45.88173" lon="4.86774">
        <ele>299</ele>
        <time>2018-10-20T10:54:45Z</time>
      </trkpt>
      <trkpt lat="45.88172" lon="4.86765">
        <ele>299</ele>
        <time>2018-10-20T10:54:46Z</time>
      </trkpt>
      <trkpt lat="45.88171" lon="4.86758">
        <ele>300</ele>
        <time>2018-10-20T10:54:47Z</time>
      </trkpt>
      <trkpt lat="45.8817" lon="4.86749">
        <ele>300</ele>
        <time>2018-10-20T10:54:48Z</time>
      </trkpt>
      <trkpt lat="45.88169" lon="4.86741">
        <ele>300</ele>
        <time>2018-10-20T10:54:49Z</time>
      </trkpt>
      <trkpt lat="45.88169" lon="4.86733">
        <ele>299</ele>
        <time>2018-10-20T10:54:50Z</time>
      </trkpt>
      <trkpt lat="45.88168" lon="4.86726">
        <ele>299</ele>
        <time>2018-10-20T10:54:51Z</time>
      </trkpt>
      <trkpt lat="45.88167" lon="4.86719">
        <ele>300</ele>
        <time>2018-10-20T10:54:52Z</time>
      </trkpt>
      <trkpt lat="45.88166" lon="4.86711">
        <ele>300</ele>
        <time>2018-10-20T10:54:53Z</time>
      </trkpt>
      <trkpt lat="45.88165" lon="4.86706">
        <ele>300</ele>
        <time>2018-10-20T10:54:54Z</time>
      </trkpt>
      <trkpt lat="45.88163" lon="4.86699">
        <ele>300</ele>
        <time>2018-10-20T10:54:55Z</time>
      </trkpt>
      <trkpt lat="45.88161" lon="4.86692">
        <ele>300</ele>
        <time>2018-10-20T10:54:56Z</time>
      </trkpt>
      <trkpt lat="45.8816" lon="4.86684">
        <ele>300</ele>
        <time>2018-10-20T10:54:57Z</time>
      </trkpt>
      <trkpt lat="45.88159" lon="4.86677">
        <ele>299</ele>
        <time>2018-10-20T10:54:58Z</time>
      </trkpt>
      <trkpt lat="45.88156" lon="4.8667">
        <ele>299</ele>
        <time>2018-10-20T10:54:59Z</time>
      </trkpt>
      <trkpt lat="45.88154" lon="4.86661">
        <ele>299</ele>
        <time>2018-10-20T10:55:00Z</time>
      </trkpt>
      <trkpt lat="45.88152" lon="4.86653">
        <ele>300</ele>
        <time>2018-10-20T10:55:01Z</time>
      </trkpt>
      <trkpt lat="45.8815" lon="4.86647">
        <ele>300</ele>
        <time>2018-10-20T10:55:02Z</time>
      </trkpt>
      <trkpt lat="45.88147" lon="4.86639">
        <ele>300</ele>
        <time>2018-10-20T10:55:03Z</time>
      </trkpt>
      <trkpt lat="45.88148" lon="4.86629">
        <ele>300</ele>
        <time>2018-10-20T10:55:04Z</time>
      </trkpt>
      <trkpt lat="45.88146" lon="4.86621">
        <ele>300</ele>
        <time>2018-10-20T10:55:05Z</time>
      </trkpt>
      <trkpt lat="45.88144" lon="4.86613">
        <ele>300</ele>
        <time>2018-10-20T10:55:06Z</time>
      </trkpt>
      <trkpt lat="45.88142" lon="4.86606">
        <ele>300</ele>
        <time>2018-10-20T10:55:07Z</time>
      </trkpt>
      <trkpt lat="45.88139" lon="4.86599">
        <ele>300</ele>
        <time>2018-10-20T10:55:08Z</time>
      </trkpt>
      <trkpt lat="45.88136" lon="4.86592">
        <ele>300</ele>
        <time>2018-10-20T10:55:09Z</time>
      </trkpt>
      <trkpt lat="45.88135" lon="4.86584">
        <ele>300</ele>
        <time>2018-10-20T10:55:10Z</time>
      </trkpt>
      <trkpt lat="45.88133" lon="4.86576">
        <ele>301</ele>
        <time>2018-10-20T10:55:11Z</time>
      </trkpt>
      <trkpt lat="45.88133" lon="4.86568">
        <ele>301</ele>
        <time>2018-10-20T10:55:12Z</time>
      </trkpt>
      <trkpt lat="45.88133" lon="4.86559">
        <ele>301</ele>
        <time>2018-10-20T10:55:13Z</time>
      </trkpt>
      <trkpt lat="45.88133" lon="4.8655">
        <ele>301</ele>
        <time>2018-10-20T10:55:14Z</time>
      </trkpt>
      <trkpt lat="45.88133" lon="4.86544">
        <ele>301</ele>
        <time>2018-10-20T10:55:15Z</time>
      </trkpt>
      <trkpt lat="45.88132" lon="4.86535">
        <ele>301</ele>
        <time>2018-10-20T10:55:16Z</time>
      </trkpt>
      <trkpt lat="45.88132" lon="4.86528">
        <ele>301</ele>
        <time>2018-10-20T10:55:17Z</time>
      </trkpt>
      <trkpt lat="45.88131" lon="4.8652">
        <ele>301</ele>
        <time>2018-10-20T10:55:18Z</time>
      </trkpt>
      <trkpt lat="45.8813" lon="4.86513">
        <ele>301</ele>
        <time>2018-10-20T10:55:19Z</time>
      </trkpt>
      <trkpt lat="45.88127" lon="4.86505">
        <ele>301</ele>
        <time>2018-10-20T10:55:20Z</time>
      </trkpt>
      <trkpt lat="45.88126" lon="4.86497">
        <ele>302</ele>
        <time>2018-10-20T10:55:21Z</time>
      </trkpt>
      <trkpt lat="45.88126" lon="4.8649">
        <ele>302</ele>
        <time>2018-10-20T10:55:22Z</time>
      </trkpt>
      <trkpt lat="45.88125" lon="4.86482">
        <ele>302</ele>
        <time>2018-10-20T10:55:23Z</time>
      </trkpt>
      <trkpt lat="45.88123" lon="4.86474">
        <ele>302</ele>
        <time>2018-10-20T10:55:24Z</time>
      </trkpt>
      <trkpt lat="45.88121" lon="4.86467">
        <ele>302</ele>
        <time>2018-10-20T10:55:25Z</time>
      </trkpt>
      <trkpt lat="45.88118" lon="4.86458">
        <ele>302</ele>
        <time>2018-10-20T10:55:26Z</time>
      </trkpt>
      <trkpt lat="45.88118" lon="4.86451">
        <ele>302</ele>
        <time>2018-10-20T10:55:27Z</time>
      </trkpt>
      <trkpt lat="45.88117" lon="4.86444">
        <ele>302</ele>
        <time>2018-10-20T10:55:28Z</time>
      </trkpt>
      <trkpt lat="45.88117" lon="4.86431">
        <ele>302</ele>
        <time>2018-10-20T10:55:30Z</time>
      </trkpt>
      <trkpt lat="45.88116" lon="4.86425">
        <ele>302</ele>
        <time>2018-10-20T10:55:31Z</time>
      </trkpt>
      <trkpt lat="45.88113" lon="4.86414">
        <ele>304</ele>
        <time>2018-10-20T10:55:33Z</time>
      </trkpt>
      <trkpt lat="45.88112" lon="4.86407">
        <ele>304</ele>
        <time>2018-10-20T10:55:34Z</time>
      </trkpt>
      <trkpt lat="45.8811" lon="4.86399">
        <ele>304</ele>
        <time>2018-10-20T10:55:35Z</time>
      </trkpt>
      <trkpt lat="45.88109" lon="4.8639">
        <ele>304</ele>
        <time>2018-10-20T10:55:36Z</time>
      </trkpt>
      <trkpt lat="45.88109" lon="4.86378">
        <ele>304</ele>
        <time>2018-10-20T10:55:38Z</time>
      </trkpt>
      <trkpt lat="45.8811" lon="4.86373">
        <ele>304</ele>
        <time>2018-10-20T10:55:39Z</time>
      </trkpt>
      <trkpt lat="45.88105" lon="4.86363">
        <ele>305</ele>
        <time>2018-10-20T10:55:41Z</time>
      </trkpt>
      <trkpt lat="45.88105" lon="4.86356">
        <ele>305</ele>
        <time>2018-10-20T10:55:42Z</time>
      </trkpt>
      <trkpt lat="45.88104" lon="4.8635">
        <ele>305</ele>
        <time>2018-10-20T10:55:43Z</time>
      </trkpt>
      <trkpt lat="45.88102" lon="4.86342">
        <ele>305</ele>
        <time>2018-10-20T10:55:44Z</time>
      </trkpt>
      <trkpt lat="45.881" lon="4.86332">
        <ele>306</ele>
        <time>2018-10-20T10:55:46Z</time>
      </trkpt>
      <trkpt lat="45.881" lon="4.86327">
        <ele>306</ele>
        <time>2018-10-20T10:55:47Z</time>
      </trkpt>
      <trkpt lat="45.88097" lon="4.86316">
        <ele>306</ele>
        <time>2018-10-20T10:55:50Z</time>
      </trkpt>
      <trkpt lat="45.88096" lon="4.86314">
        <ele>306</ele>
        <time>2018-10-20T10:55:51Z</time>
      </trkpt>
      <trkpt lat="45.88092" lon="4.86304">
        <ele>306</ele>
        <time>2018-10-20T10:55:52Z</time>
      </trkpt>
      <trkpt lat="45.88091" lon="4.86299">
        <ele>306</ele>
        <time>2018-10-20T10:55:53Z</time>
      </trkpt>
      <trkpt lat="45.88088" lon="4.86289">
        <ele>306</ele>
        <time>2018-10-20T10:55:55Z</time>
      </trkpt>
      <trkpt lat="45.88086" lon="4.86283">
        <ele>306</ele>
        <time>2018-10-20T10:55:56Z</time>
      </trkpt>
      <trkpt lat="45.88083" lon="4.86271">
        <ele>306</ele>
        <time>2018-10-20T10:55:58Z</time>
      </trkpt>
      <trkpt lat="45.88082" lon="4.86264">
        <ele>306</ele>
        <time>2018-10-20T10:55:59Z</time>
      </trkpt>
      <trkpt lat="45.88078" lon="4.86253">
        <ele>306</ele>
        <time>2018-10-20T10:56:01Z</time>
      </trkpt>
      <trkpt lat="45.88079" lon="4.86245">
        <ele>306</ele>
        <time>2018-10-20T10:56:02Z</time>
      </trkpt>
      <trkpt lat="45.88077" lon="4.86239">
        <ele>306</ele>
        <time>2018-10-20T10:56:03Z</time>
      </trkpt>
      <trkpt lat="45.88074" lon="4.86233">
        <ele>306</ele>
        <time>2018-10-20T10:56:04Z</time>
      </trkpt>
      <trkpt lat="45.88072" lon="4.86226">
        <ele>306</ele>
        <time>2018-10-20T10:56:05Z</time>
      </trkpt>
      <trkpt lat="45.8807" lon="4.8622">
        <ele>306</ele>
        <time>2018-10-20T10:56:06Z</time>
      </trkpt>
      <trkpt lat="45.88068" lon="4.86214">
        <ele>306</ele>
        <time>2018-10-20T10:56:07Z</time>
      </trkpt>
      <trkpt lat="45.88066" lon="4.86207">
        <ele>306</ele>
        <time>2018-10-20T10:56:08Z</time>
      </trkpt>
      <trkpt lat="45.88064" lon="4.86201">
        <ele>306</ele>
        <time>2018-10-20T10:56:09Z</time>
      </trkpt>
      <trkpt lat="45.88061" lon="4.86195">
        <ele>306</ele>
        <time>2018-10-20T10:56:10Z</time>
      </trkpt>
      <trkpt lat="45.88056" lon="4.86184">
        <ele>306</ele>
        <time>2018-10-20T10:56:12Z</time>
      </trkpt>
      <trkpt lat="45.88055" lon="4.86179">
        <ele>306</ele>
        <time>2018-10-20T10:56:13Z</time>
      </trkpt>
      <trkpt lat="45.88054" lon="4.86177">
        <ele>306</ele>
        <time>2018-10-20T10:56:14Z</time>
      </trkpt>
      <trkpt lat="45.88049" lon="4.86167">
        <ele>305</ele>
        <time>2018-10-20T10:56:15Z</time>
      </trkpt>
      <trkpt lat="45.88048" lon="4.86159">
        <ele>304</ele>
        <time>2018-10-20T10:56:16Z</time>
      </trkpt>
      <trkpt lat="45.88048" lon="4.86151">
        <ele>304</ele>
        <time>2018-10-20T10:56:17Z</time>
      </trkpt>
      <trkpt lat="45.88046" lon="4.86144">
        <ele>304</ele>
        <time>2018-10-20T10:56:18Z</time>
      </trkpt>
      <trkpt lat="45.88045" lon="4.86136">
        <ele>304</ele>
        <time>2018-10-20T10:56:19Z</time>
      </trkpt>
      <trkpt lat="45.88044" lon="4.86129">
        <ele>304</ele>
        <time>2018-10-20T10:56:20Z</time>
      </trkpt>
      <trkpt lat="45.88042" lon="4.86124">
        <ele>304</ele>
        <time>2018-10-20T10:56:21Z</time>
      </trkpt>
      <trkpt lat="45.8804" lon="4.86117">
        <ele>304</ele>
        <time>2018-10-20T10:56:22Z</time>
      </trkpt>
      <trkpt lat="45.88038" lon="4.8611">
        <ele>304</ele>
        <time>2018-10-20T10:56:23Z</time>
      </trkpt>
      <trkpt lat="45.88036" lon="4.86101">
        <ele>304</ele>
        <time>2018-10-20T10:56:24Z</time>
      </trkpt>
      <trkpt lat="45.88035" lon="4.86093">
        <ele>303</ele>
        <time>2018-10-20T10:56:25Z</time>
      </trkpt>
      <trkpt lat="45.88033" lon="4.86085">
        <ele>303</ele>
        <time>2018-10-20T10:56:26Z</time>
      </trkpt>
      <trkpt lat="45.88033" lon="4.86076">
        <ele>301</ele>
        <time>2018-10-20T10:56:27Z</time>
      </trkpt>
      <trkpt lat="45.88031" lon="4.86067">
        <ele>301</ele>
        <time>2018-10-20T10:56:28Z</time>
      </trkpt>
      <trkpt lat="45.88029" lon="4.86058">
        <ele>301</ele>
        <time>2018-10-20T10:56:29Z</time>
      </trkpt>
      <trkpt lat="45.88027" lon="4.8605">
        <ele>301</ele>
        <time>2018-10-20T10:56:30Z</time>
      </trkpt>
      <trkpt lat="45.88025" lon="4.86041">
        <ele>301</ele>
        <time>2018-10-20T10:56:31Z</time>
      </trkpt>
      <trkpt lat="45.88024" lon="4.86032">
        <ele>301</ele>
        <time>2018-10-20T10:56:32Z</time>
      </trkpt>
      <trkpt lat="45.88023" lon="4.86023">
        <ele>300</ele>
        <time>2018-10-20T10:56:33Z</time>
      </trkpt>
      <trkpt lat="45.88021" lon="4.86016">
        <ele>300</ele>
        <time>2018-10-20T10:56:34Z</time>
      </trkpt>
      <trkpt lat="45.88019" lon="4.86008">
        <ele>300</ele>
        <time>2018-10-20T10:56:35Z</time>
      </trkpt>
      <trkpt lat="45.88016" lon="4.86003">
        <ele>300</ele>
        <time>2018-10-20T10:56:36Z</time>
      </trkpt>
      <trkpt lat="45.88011" lon="4.85998">
        <ele>299</ele>
        <time>2018-10-20T10:56:37Z</time>
      </trkpt>
      <trkpt lat="45.88007" lon="4.85996">
        <ele>299</ele>
        <time>2018-10-20T10:56:38Z</time>
      </trkpt>
      <trkpt lat="45.88" lon="4.86">
        <ele>300</ele>
        <time>2018-10-20T10:56:39Z</time>
      </trkpt>
      <trkpt lat="45.87996" lon="4.86001">
        <ele>300</ele>
        <time>2018-10-20T10:56:40Z</time>
      </trkpt>
      <trkpt lat="45.8799" lon="4.86002">
        <ele>300</ele>
        <time>2018-10-20T10:56:41Z</time>
      </trkpt>
      <trkpt lat="45.87985" lon="4.86004">
        <ele>300</ele>
        <time>2018-10-20T10:56:42Z</time>
      </trkpt>
      <trkpt lat="45.87978" lon="4.86006">
        <ele>299</ele>
        <time>2018-10-20T10:56:43Z</time>
      </trkpt>
      <trkpt lat="45.87971" lon="4.86006">
        <ele>299</ele>
        <time>2018-10-20T10:56:44Z</time>
      </trkpt>
      <trkpt lat="45.87964" lon="4.86007">
        <ele>299</ele>
        <time>2018-10-20T10:56:45Z</time>
      </trkpt>
      <trkpt lat="45.87959" lon="4.86004">
        <ele>299</ele>
        <time>2018-10-20T10:56:46Z</time>
      </trkpt>
      <trkpt lat="45.87951" lon="4.85999">
        <ele>295</ele>
        <time>2018-10-20T10:56:47Z</time>
      </trkpt>
      <trkpt lat="45.87947" lon="4.85993">
        <ele>295</ele>
        <time>2018-10-20T10:56:48Z</time>
      </trkpt>
      <trkpt lat="45.87943" lon="4.85986">
        <ele>295</ele>
        <time>2018-10-20T10:56:49Z</time>
      </trkpt>
      <trkpt lat="45.87939" lon="4.8598">
        <ele>294</ele>
        <time>2018-10-20T10:56:50Z</time>
      </trkpt>
      <trkpt lat="45.87934" lon="4.85974">
        <ele>294</ele>
        <time>2018-10-20T10:56:51Z</time>
      </trkpt>
      <trkpt lat="45.87927" lon="4.85974">
        <ele>294</ele>
        <time>2018-10-20T10:56:52Z</time>
      </trkpt>
      <trkpt lat="45.87917" lon="4.85979">
        <ele>294</ele>
        <time>2018-10-20T10:56:53Z</time>
      </trkpt>
      <trkpt lat="45.87908" lon="4.8598">
        <ele>291</ele>
        <time>2018-10-20T10:56:54Z</time>
      </trkpt>
      <trkpt lat="45.87901" lon="4.85983">
        <ele>291</ele>
        <time>2018-10-20T10:56:55Z</time>
      </trkpt>
      <trkpt lat="45.87895" lon="4.85987">
        <ele>291</ele>
        <time>2018-10-20T10:56:56Z</time>
      </trkpt>
      <trkpt lat="45.87886" lon="4.8599">
        <ele>290</ele>
        <time>2018-10-20T10:56:57Z</time>
      </trkpt>
      <trkpt lat="45.87878" lon="4.85994">
        <ele>290</ele>
        <time>2018-10-20T10:56:58Z</time>
      </trkpt>
      <trkpt lat="45.87869" lon="4.85993">
        <ele>289</ele>
        <time>2018-10-20T10:56:59Z</time>
      </trkpt>
      <trkpt lat="45.87861" lon="4.85992">
        <ele>289</ele>
        <time>2018-10-20T10:57:00Z</time>
      </trkpt>
      <trkpt lat="45.87852" lon="4.85986">
        <ele>289</ele>
        <time>2018-10-20T10:57:01Z</time>
      </trkpt>
      <trkpt lat="45.87845" lon="4.85978">
        <ele>288</ele>
        <time>2018-10-20T10:57:02Z</time>
      </trkpt>
      <trkpt lat="45.8784" lon="4.85969">
        <ele>288</ele>
        <time>2018-10-20T10:57:03Z</time>
      </trkpt>
      <trkpt lat="45.87835" lon="4.85957">
        <ele>288</ele>
        <time>2018-10-20T10:57:04Z</time>
      </trkpt>
      <trkpt lat="45.87832" lon="4.85945">
        <ele>287</ele>
        <time>2018-10-20T10:57:05Z</time>
      </trkpt>
      <trkpt lat="45.87832" lon="4.85933">
        <ele>287</ele>
        <time>2018-10-20T10:57:06Z</time>
      </trkpt>
      <trkpt lat="45.87833" lon="4.8592">
        <ele>285</ele>
        <time>2018-10-20T10:57:07Z</time>
      </trkpt>
      <trkpt lat="45.87834" lon="4.85907">
        <ele>285</ele>
        <time>2018-10-20T10:57:08Z</time>
      </trkpt>
      <trkpt lat="45.8784" lon="4.85898">
        <ele>285</ele>
        <time>2018-10-20T10:57:09Z</time>
      </trkpt>
      <trkpt lat="45.87848" lon="4.85886">
        <ele>285</ele>
        <time>2018-10-20T10:57:10Z</time>
      </trkpt>
      <trkpt lat="45.87855" lon="4.85876">
        <ele>285</ele>
        <time>2018-10-20T10:57:11Z</time>
      </trkpt>
      <trkpt lat="45.87863" lon="4.8587">
        <ele>284</ele>
        <time>2018-10-20T10:57:12Z</time>
      </trkpt>
      <trkpt lat="45.87871" lon="4.85862">
        <ele>284</ele>
        <time>2018-10-20T10:57:13Z</time>
      </trkpt>
      <trkpt lat="45.87879" lon="4.85855">
        <ele>284</ele>
        <time>2018-10-20T10:57:14Z</time>
      </trkpt>
      <trkpt lat="45.87887" lon="4.8585">
        <ele>284</ele>
        <time>2018-10-20T10:57:15Z</time>
      </trkpt>
      <trkpt lat="45.87895" lon="4.85843">
        <ele>284</ele>
        <time>2018-10-20T10:57:16Z</time>
      </trkpt>
      <trkpt lat="45.87902" lon="4.85836">
        <ele>283</ele>
        <time>2018-10-20T10:57:17Z</time>
      </trkpt>
      <trkpt lat="45.8791" lon="4.85828">
        <ele>281</ele>
        <time>2018-10-20T10:57:18Z</time>
      </trkpt>
      <trkpt lat="45.87918" lon="4.85821">
        <ele>281</ele>
        <time>2018-10-20T10:57:19Z</time>
      </trkpt>
      <trkpt lat="45.87925" lon="4.85815">
        <ele>281</ele>
        <time>2018-10-20T10:57:20Z</time>
      </trkpt>
      <trkpt lat="45.87934" lon="4.85807">
        <ele>281</ele>
        <time>2018-10-20T10:57:21Z</time>
      </trkpt>
      <trkpt lat="45.87944" lon="4.85797">
        <ele>280</ele>
        <time>2018-10-20T10:57:22Z</time>
      </trkpt>
      <trkpt lat="45.87952" lon="4.85789">
        <ele>280</ele>
        <time>2018-10-20T10:57:23Z</time>
      </trkpt>
      <trkpt lat="45.8796" lon="4.85781">
        <ele>280</ele>
        <time>2018-10-20T10:57:24Z</time>
      </trkpt>
      <trkpt lat="45.87968" lon="4.85771">
        <ele>280</ele>
        <time>2018-10-20T10:57:25Z</time>
      </trkpt>
      <trkpt lat="45.87975" lon="4.85762">
        <ele>279</ele>
        <time>2018-10-20T10:57:26Z</time>
      </trkpt>
      <trkpt lat="45.87981" lon="4.85752">
        <ele>279</ele>
        <time>2018-10-20T10:57:27Z</time>
      </trkpt>
      <trkpt lat="45.87986" lon="4.85744">
        <ele>276</ele>
        <time>2018-10-20T10:57:28Z</time>
      </trkpt>
      <trkpt lat="45.87989" lon="4.85736">
        <ele>276</ele>
        <time>2018-10-20T10:57:29Z</time>
      </trkpt>
      <trkpt lat="45.87989" lon="4.85725">
        <ele>275</ele>
        <time>2018-10-20T10:57:30Z</time>
      </trkpt>
      <trkpt lat="45.87988" lon="4.85713">
        <ele>274</ele>
        <time>2018-10-20T10:57:31Z</time>
      </trkpt>
      <trkpt lat="45.87983" lon="4.85704">
        <ele>274</ele>
        <time>2018-10-20T10:57:32Z</time>
      </trkpt>
      <trkpt lat="45.87979" lon="4.85692">
        <ele>274</ele>
        <time>2018-10-20T10:57:33Z</time>
      </trkpt>
      <trkpt lat="45.87976" lon="4.85681">
        <ele>273</ele>
        <time>2018-10-20T10:57:34Z</time>
      </trkpt>
      <trkpt lat="45.87973" lon="4.85669">
        <ele>273</ele>
        <time>2018-10-20T10:57:35Z</time>
      </trkpt>
      <trkpt lat="45.8797" lon="4.85658">
        <ele>268</ele>
        <time>2018-10-20T10:57:36Z</time>
      </trkpt>
      <trkpt lat="45.87967" lon="4.85644">
        <ele>267</ele>
        <time>2018-10-20T10:57:37Z</time>
      </trkpt>
      <trkpt lat="45.87966" lon="4.85631">
        <ele>266</ele>
        <time>2018-10-20T10:57:38Z</time>
      </trkpt>
      <trkpt lat="45.87964" lon="4.85618">
        <ele>265</ele>
        <time>2018-10-20T10:57:39Z</time>
      </trkpt>
      <trkpt lat="45.87968" lon="4.85605">
        <ele>265</ele>
        <time>2018-10-20T10:57:40Z</time>
      </trkpt>
      <trkpt lat="45.87972" lon="4.85593">
        <ele>265</ele>
        <time>2018-10-20T10:57:41Z</time>
      </trkpt>
      <trkpt lat="45.87976" lon="4.85581">
        <ele>260</ele>
        <time>2018-10-20T10:57:42Z</time>
      </trkpt>
      <trkpt lat="45.87982" lon="4.85571">
        <ele>260</ele>
        <time>2018-10-20T10:57:43Z</time>
      </trkpt>
      <trkpt lat="45.87991" lon="4.85562">
        <ele>260</ele>
        <time>2018-10-20T10:57:44Z</time>
      </trkpt>
      <trkpt lat="45.87998" lon="4.85553">
        <ele>259</ele>
        <time>2018-10-20T10:57:45Z</time>
      </trkpt>
      <trkpt lat="45.88008" lon="4.85546">
        <ele>263</ele>
        <time>2018-10-20T10:57:46Z</time>
      </trkpt>
      <trkpt lat="45.88016" lon="4.85538">
        <ele>262</ele>
        <time>2018-10-20T10:57:47Z</time>
      </trkpt>
      <trkpt lat="45.88023" lon="4.85528">
        <ele>262</ele>
        <time>2018-10-20T10:57:48Z</time>
      </trkpt>
      <trkpt lat="45.88032" lon="4.85522">
        <ele>262</ele>
        <time>2018-10-20T10:57:49Z</time>
      </trkpt>
      <trkpt lat="45.8804" lon="4.85514">
        <ele>262</ele>
        <time>2018-10-20T10:57:50Z</time>
      </trkpt>
      <trkpt lat="45.88048" lon="4.85506">
        <ele>262</ele>
        <time>2018-10-20T10:57:51Z</time>
      </trkpt>
      <trkpt lat="45.88057" lon="4.85499">
        <ele>254</ele>
        <time>2018-10-20T10:57:52Z</time>
      </trkpt>
      <trkpt lat="45.88066" lon="4.85489">
        <ele>255</ele>
        <time>2018-10-20T10:57:53Z</time>
      </trkpt>
      <trkpt lat="45.88074" lon="4.85482">
        <ele>255</ele>
        <time>2018-10-20T10:57:54Z</time>
      </trkpt>
      <trkpt lat="45.88082" lon="4.85473">
        <ele>254</ele>
        <time>2018-10-20T10:57:55Z</time>
      </trkpt>
      <trkpt lat="45.8809" lon="4.85467">
        <ele>256</ele>
        <time>2018-10-20T10:57:56Z</time>
      </trkpt>
      <trkpt lat="45.88099" lon="4.8546">
        <ele>255</ele>
        <time>2018-10-20T10:57:57Z</time>
      </trkpt>
      <trkpt lat="45.88109" lon="4.85452">
        <ele>254</ele>
        <time>2018-10-20T10:57:58Z</time>
      </trkpt>
      <trkpt lat="45.88118" lon="4.85447">
        <ele>254</ele>
        <time>2018-10-20T10:57:59Z</time>
      </trkpt>
      <trkpt lat="45.88126" lon="4.8544">
        <ele>254</ele>
        <time>2018-10-20T10:58:00Z</time>
      </trkpt>
      <trkpt lat="45.88135" lon="4.85435">
        <ele>254</ele>
        <time>2018-10-20T10:58:01Z</time>
      </trkpt>
      <trkpt lat="45.88144" lon="4.8543">
        <ele>253</ele>
        <time>2018-10-20T10:58:02Z</time>
      </trkpt>
      <trkpt lat="45.88153" lon="4.85426">
        <ele>253</ele>
        <time>2018-10-20T10:58:03Z</time>
      </trkpt>
      <trkpt lat="45.88162" lon="4.8542">
        <ele>251</ele>
        <time>2018-10-20T10:58:04Z</time>
      </trkpt>
      <trkpt lat="45.88169" lon="4.85409">
        <ele>249</ele>
        <time>2018-10-20T10:58:05Z</time>
      </trkpt>
      <trkpt lat="45.88173" lon="4.85401">
        <ele>248</ele>
        <time>2018-10-20T10:58:06Z</time>
      </trkpt>
      <trkpt lat="45.88173" lon="4.85393">
        <ele>247</ele>
        <time>2018-10-20T10:58:07Z</time>
      </trkpt>
      <trkpt lat="45.88172" lon="4.85384">
        <ele>246</ele>
        <time>2018-10-20T10:58:08Z</time>
      </trkpt>
      <trkpt lat="45.88169" lon="4.85379">
        <ele>245</ele>
        <time>2018-10-20T10:58:09Z</time>
      </trkpt>
      <trkpt lat="45.88164" lon="4.85372">
        <ele>240</ele>
        <time>2018-10-20T10:58:10Z</time>
      </trkpt>
      <trkpt lat="45.88158" lon="4.85369">
        <ele>239</ele>
        <time>2018-10-20T10:58:11Z</time>
      </trkpt>
      <trkpt lat="45.8815" lon="4.85369">
        <ele>239</ele>
        <time>2018-10-20T10:58:12Z</time>
      </trkpt>
      <trkpt lat="45.88141" lon="4.85373">
        <ele>239</ele>
        <time>2018-10-20T10:58:13Z</time>
      </trkpt>
      <trkpt lat="45.88132" lon="4.85379">
        <ele>240</ele>
        <time>2018-10-20T10:58:14Z</time>
      </trkpt>
      <trkpt lat="45.88124" lon="4.85383">
        <ele>240</ele>
        <time>2018-10-20T10:58:15Z</time>
      </trkpt>
      <trkpt lat="45.88116" lon="4.85386">
        <ele>240</ele>
        <time>2018-10-20T10:58:16Z</time>
      </trkpt>
      <trkpt lat="45.8811" lon="4.85394">
        <ele>240</ele>
        <time>2018-10-20T10:58:17Z</time>
      </trkpt>
      <trkpt lat="45.88102" lon="4.85398">
        <ele>241</ele>
        <time>2018-10-20T10:58:18Z</time>
      </trkpt>
      <trkpt lat="45.88093" lon="4.854">
        <ele>241</ele>
        <time>2018-10-20T10:58:19Z</time>
      </trkpt>
      <trkpt lat="45.88085" lon="4.85398">
        <ele>241</ele>
        <time>2018-10-20T10:58:20Z</time>
      </trkpt>
      <trkpt lat="45.88075" lon="4.85398">
        <ele>239</ele>
        <time>2018-10-20T10:58:21Z</time>
      </trkpt>
      <trkpt lat="45.88067" lon="4.85403">
        <ele>239</ele>
        <time>2018-10-20T10:58:22Z</time>
      </trkpt>
      <trkpt lat="45.88059" lon="4.85405">
        <ele>239</ele>
        <time>2018-10-20T10:58:23Z</time>
      </trkpt>
      <trkpt lat="45.88046" lon="4.85402">
        <ele>238</ele>
        <time>2018-10-20T10:58:24Z</time>
      </trkpt>
      <trkpt lat="45.88036" lon="4.85403">
        <ele>238</ele>
        <time>2018-10-20T10:58:25Z</time>
      </trkpt>
      <trkpt lat="45.88027" lon="4.85404">
        <ele>238</ele>
        <time>2018-10-20T10:58:26Z</time>
      </trkpt>
      <trkpt lat="45.88016" lon="4.85401">
        <ele>238</ele>
        <time>2018-10-20T10:58:27Z</time>
      </trkpt>
      <trkpt lat="45.88008" lon="4.85394">
        <ele>238</ele>
        <time>2018-10-20T10:58:28Z</time>
      </trkpt>
      <trkpt lat="45.88" lon="4.85385">
        <ele>237</ele>
        <time>2018-10-20T10:58:29Z</time>
      </trkpt>
      <trkpt lat="45.87993" lon="4.85376">
        <ele>236</ele>
        <time>2018-10-20T10:58:30Z</time>
      </trkpt>
      <trkpt lat="45.87985" lon="4.85367">
        <ele>236</ele>
        <time>2018-10-20T10:58:31Z</time>
      </trkpt>
      <trkpt lat="45.87978" lon="4.85356">
        <ele>235</ele>
        <time>2018-10-20T10:58:32Z</time>
      </trkpt>
      <trkpt lat="45.8797" lon="4.85344">
        <ele>235</ele>
        <time>2018-10-20T10:58:33Z</time>
      </trkpt>
      <trkpt lat="45.87963" lon="4.85332">
        <ele>229</ele>
        <time>2018-10-20T10:58:34Z</time>
      </trkpt>
      <trkpt lat="45.87955" lon="4.8532">
        <ele>229</ele>
        <time>2018-10-20T10:58:35Z</time>
      </trkpt>
      <trkpt lat="45.87947" lon="4.85309">
        <ele>229</ele>
        <time>2018-10-20T10:58:36Z</time>
      </trkpt>
      <trkpt lat="45.87939" lon="4.85299">
        <ele>228</ele>
        <time>2018-10-20T10:58:37Z</time>
      </trkpt>
      <trkpt lat="45.87932" lon="4.85287">
        <ele>228</ele>
        <time>2018-10-20T10:58:38Z</time>
      </trkpt>
      <trkpt lat="45.87924" lon="4.85278">
        <ele>227</ele>
        <time>2018-10-20T10:58:39Z</time>
      </trkpt>
      <trkpt lat="45.87916" lon="4.85266">
        <ele>229</ele>
        <time>2018-10-20T10:58:40Z</time>
      </trkpt>
      <trkpt lat="45.87908" lon="4.85255">
        <ele>228</ele>
        <time>2018-10-20T10:58:41Z</time>
      </trkpt>
      <trkpt lat="45.879" lon="4.85244">
        <ele>225</ele>
        <time>2018-10-20T10:58:42Z</time>
      </trkpt>
      <trkpt lat="45.87893" lon="4.85232">
        <ele>224</ele>
        <time>2018-10-20T10:58:43Z</time>
      </trkpt>
      <trkpt lat="45.87884" lon="4.8522">
        <ele>224</ele>
        <time>2018-10-20T10:58:44Z</time>
      </trkpt>
      <trkpt lat="45.87876" lon="4.85209">
        <ele>224</ele>
        <time>2018-10-20T10:58:45Z</time>
      </trkpt>
      <trkpt lat="45.87867" lon="4.85198">
        <ele>223</ele>
        <time>2018-10-20T10:58:46Z</time>
      </trkpt>
      <trkpt lat="45.87859" lon="4.85186">
        <ele>223</ele>
        <time>2018-10-20T10:58:47Z</time>
      </trkpt>
      <trkpt lat="45.87851" lon="4.85174">
        <ele>222</ele>
        <time>2018-10-20T10:58:48Z</time>
      </trkpt>
      <trkpt lat="45.87843" lon="4.85162">
        <ele>219</ele>
        <time>2018-10-20T10:58:49Z</time>
      </trkpt>
      <trkpt lat="45.87835" lon="4.85151">
        <ele>218</ele>
        <time>2018-10-20T10:58:50Z</time>
      </trkpt>
      <trkpt lat="45.87827" lon="4.85139">
        <ele>220</ele>
        <time>2018-10-20T10:58:51Z</time>
      </trkpt>
      <trkpt lat="45.87819" lon="4.85128">
        <ele>219</ele>
        <time>2018-10-20T10:58:52Z</time>
      </trkpt>
      <trkpt lat="45.87811" lon="4.85116">
        <ele>219</ele>
        <time>2018-10-20T10:58:53Z</time>
      </trkpt>
      <trkpt lat="45.87802" lon="4.85106">
        <ele>218</ele>
        <time>2018-10-20T10:58:54Z</time>
      </trkpt>
      <trkpt lat="45.87795" lon="4.85094">
        <ele>218</ele>
        <time>2018-10-20T10:58:55Z</time>
      </trkpt>
      <trkpt lat="45.87787" lon="4.85083">
        <ele>214</ele>
        <time>2018-10-20T10:58:56Z</time>
      </trkpt>
      <trkpt lat="45.8778" lon="4.85071">
        <ele>214</ele>
        <time>2018-10-20T10:58:57Z</time>
      </trkpt>
      <trkpt lat="45.87772" lon="4.8506">
        <ele>214</ele>
        <time>2018-10-20T10:58:58Z</time>
      </trkpt>
      <trkpt lat="45.87765" lon="4.85049">
        <ele>213</ele>
        <time>2018-10-20T10:58:59Z</time>
      </trkpt>
      <trkpt lat="45.87758" lon="4.85039">
        <ele>213</ele>
        <time>2018-10-20T10:59:00Z</time>
      </trkpt>
      <trkpt lat="45.87751" lon="4.85029">
        <ele>212</ele>
        <time>2018-10-20T10:59:01Z</time>
      </trkpt>
      <trkpt lat="45.87744" lon="4.85018">
        <ele>214</ele>
        <time>2018-10-20T10:59:02Z</time>
      </trkpt>
      <trkpt lat="45.87737" lon="4.85007">
        <ele>213</ele>
        <time>2018-10-20T10:59:03Z</time>
      </trkpt>
      <trkpt lat="45.8773" lon="4.84997">
        <ele>211</ele>
        <time>2018-10-20T10:59:04Z</time>
      </trkpt>
      <trkpt lat="45.8772" lon="4.84986">
        <ele>210</ele>
        <time>2018-10-20T10:59:05Z</time>
      </trkpt>
      <trkpt lat="45.87713" lon="4.84977">
        <ele>210</ele>
        <time>2018-10-20T10:59:06Z</time>
      </trkpt>
      <trkpt lat="45.87705" lon="4.84967">
        <ele>210</ele>
        <time>2018-10-20T10:59:07Z</time>
      </trkpt>
      <trkpt lat="45.87698" lon="4.84956">
        <ele>210</ele>
        <time>2018-10-20T10:59:08Z</time>
      </trkpt>
      <trkpt lat="45.87691" lon="4.84946">
        <ele>210</ele>
        <time>2018-10-20T10:59:09Z</time>
      </trkpt>
      <trkpt lat="45.87683" lon="4.84936">
        <ele>209</ele>
        <time>2018-10-20T10:59:10Z</time>
      </trkpt>
      <trkpt lat="45.87677" lon="4.84926">
        <ele>209</ele>
        <time>2018-10-20T10:59:11Z</time>
      </trkpt>
      <trkpt lat="45.87669" lon="4.84916">
        <ele>208</ele>
        <time>2018-10-20T10:59:12Z</time>
      </trkpt>
      <trkpt lat="45.87661" lon="4.84907">
        <ele>207</ele>
        <time>2018-10-20T10:59:13Z</time>
      </trkpt>
      <trkpt lat="45.87655" lon="4.84898">
        <ele>206</ele>
        <time>2018-10-20T10:59:14Z</time>
      </trkpt>
      <trkpt lat="45.87649" lon="4.8489">
        <ele>206</ele>
        <time>2018-10-20T10:59:15Z</time>
      </trkpt>
      <trkpt lat="45.87646" lon="4.84882">
        <ele>205</ele>
        <time>2018-10-20T10:59:16Z</time>
      </trkpt>
      <trkpt lat="45.87642" lon="4.84873">
        <ele>205</ele>
        <time>2018-10-20T10:59:17Z</time>
      </trkpt>
      <trkpt lat="45.87639" lon="4.84865">
        <ele>204</ele>
        <time>2018-10-20T10:59:18Z</time>
      </trkpt>
      <trkpt lat="45.87636" lon="4.84856">
        <ele>204</ele>
        <time>2018-10-20T10:59:19Z</time>
      </trkpt>
      <trkpt lat="45.87639" lon="4.84847">
        <ele>204</ele>
        <time>2018-10-20T10:59:20Z</time>
      </trkpt>
      <trkpt lat="45.87636" lon="4.84837">
        <ele>204</ele>
        <time>2018-10-20T10:59:21Z</time>
      </trkpt>
      <trkpt lat="45.87632" lon="4.84828">
        <ele>200</ele>
        <time>2018-10-20T10:59:22Z</time>
      </trkpt>
      <trkpt lat="45.8763" lon="4.84817">
        <ele>200</ele>
        <time>2018-10-20T10:59:23Z</time>
      </trkpt>
      <trkpt lat="45.87631" lon="4.84805">
        <ele>200</ele>
        <time>2018-10-20T10:59:24Z</time>
      </trkpt>
      <trkpt lat="45.87633" lon="4.84791">
        <ele>199</ele>
        <time>2018-10-20T10:59:25Z</time>
      </trkpt>
      <trkpt lat="45.87636" lon="4.84778">
        <ele>199</ele>
        <time>2018-10-20T10:59:26Z</time>
      </trkpt>
      <trkpt lat="45.87636" lon="4.84763">
        <ele>198</ele>
        <time>2018-10-20T10:59:27Z</time>
      </trkpt>
      <trkpt lat="45.87637" lon="4.84749">
        <ele>195</ele>
        <time>2018-10-20T10:59:28Z</time>
      </trkpt>
      <trkpt lat="45.87638" lon="4.84736">
        <ele>195</ele>
        <time>2018-10-20T10:59:29Z</time>
      </trkpt>
      <trkpt lat="45.87642" lon="4.84721">
        <ele>195</ele>
        <time>2018-10-20T10:59:30Z</time>
      </trkpt>
      <trkpt lat="45.87642" lon="4.84706">
        <ele>194</ele>
        <time>2018-10-20T10:59:31Z</time>
      </trkpt>
      <trkpt lat="45.87645" lon="4.84692">
        <ele>194</ele>
        <time>2018-10-20T10:59:32Z</time>
      </trkpt>
      <trkpt lat="45.87647" lon="4.84678">
        <ele>193</ele>
        <time>2018-10-20T10:59:33Z</time>
      </trkpt>
      <trkpt lat="45.87649" lon="4.84664">
        <ele>191</ele>
        <time>2018-10-20T10:59:34Z</time>
      </trkpt>
      <trkpt lat="45.87651" lon="4.8465">
        <ele>191</ele>
        <time>2018-10-20T10:59:35Z</time>
      </trkpt>
      <trkpt lat="45.87651" lon="4.84635">
        <ele>191</ele>
        <time>2018-10-20T10:59:36Z</time>
      </trkpt>
      <trkpt lat="45.87652" lon="4.8462">
        <ele>191</ele>
        <time>2018-10-20T10:59:37Z</time>
      </trkpt>
      <trkpt lat="45.87654" lon="4.84607">
        <ele>190</ele>
        <time>2018-10-20T10:59:38Z</time>
      </trkpt>
      <trkpt lat="45.87654" lon="4.84591">
        <ele>190</ele>
        <time>2018-10-20T10:59:39Z</time>
      </trkpt>
      <trkpt lat="45.87656" lon="4.84577">
        <ele>189</ele>
        <time>2018-10-20T10:59:40Z</time>
      </trkpt>
      <trkpt lat="45.87658" lon="4.84563">
        <ele>189</ele>
        <time>2018-10-20T10:59:41Z</time>
      </trkpt>
      <trkpt lat="45.8766" lon="4.84551">
        <ele>189</ele>
        <time>2018-10-20T10:59:42Z</time>
      </trkpt>
      <trkpt lat="45.87662" lon="4.84538">
        <ele>189</ele>
        <time>2018-10-20T10:59:43Z</time>
      </trkpt>
      <trkpt lat="45.87664" lon="4.84528">
        <ele>189</ele>
        <time>2018-10-20T10:59:44Z</time>
      </trkpt>
      <trkpt lat="45.87663" lon="4.84516">
        <ele>189</ele>
        <time>2018-10-20T10:59:45Z</time>
      </trkpt>
      <trkpt lat="45.87661" lon="4.84504">
        <ele>188</ele>
        <time>2018-10-20T10:59:46Z</time>
      </trkpt>
      <trkpt lat="45.87656" lon="4.84488">
        <ele>188</ele>
        <time>2018-10-20T10:59:47Z</time>
      </trkpt>
      <trkpt lat="45.87652" lon="4.84476">
        <ele>187</ele>
        <time>2018-10-20T10:59:48Z</time>
      </trkpt>
      <trkpt lat="45.87652" lon="4.84464">
        <ele>187</ele>
        <time>2018-10-20T10:59:49Z</time>
      </trkpt>
      <trkpt lat="45.87652" lon="4.84452">
        <ele>187</ele>
        <time>2018-10-20T10:59:50Z</time>
      </trkpt>
      <trkpt lat="45.87651" lon="4.8444">
        <ele>187</ele>
        <time>2018-10-20T10:59:51Z</time>
      </trkpt>
      <trkpt lat="45.87651" lon="4.84427">
        <ele>187</ele>
        <time>2018-10-20T10:59:52Z</time>
      </trkpt>
      <trkpt lat="45.87651" lon="4.84415">
        <ele>185</ele>
        <time>2018-10-20T10:59:53Z</time>
      </trkpt>
      <trkpt lat="45.87651" lon="4.84403">
        <ele>185</ele>
        <time>2018-10-20T10:59:54Z</time>
      </trkpt>
      <trkpt lat="45.87651" lon="4.84391">
        <ele>185</ele>
        <time>2018-10-20T10:59:55Z</time>
      </trkpt>
      <trkpt lat="45.87654" lon="4.84379">
        <ele>184</ele>
        <time>2018-10-20T10:59:56Z</time>
      </trkpt>
      <trkpt lat="45.87658" lon="4.84374">
        <ele>184</ele>
        <time>2018-10-20T10:59:57Z</time>
      </trkpt>
      <trkpt lat="45.87663" lon="4.84366">
        <ele>184</ele>
        <time>2018-10-20T10:59:58Z</time>
      </trkpt>
      <trkpt lat="45.87654" lon="4.84352">
        <ele>184</ele>
        <time>2018-10-20T10:59:59Z</time>
      </trkpt>
      <trkpt lat="45.87655" lon="4.84344">
        <ele>183</ele>
        <time>2018-10-20T11:00:00Z</time>
      </trkpt>
      <trkpt lat="45.87654" lon="4.84335">
        <ele>183</ele>
        <time>2018-10-20T11:00:01Z</time>
      </trkpt>
      <trkpt lat="45.87657" lon="4.84328">
        <ele>182</ele>
        <time>2018-10-20T11:00:02Z</time>
      </trkpt>
      <trkpt lat="45.87656" lon="4.8432">
        <ele>182</ele>
        <time>2018-10-20T11:00:03Z</time>
      </trkpt>
      <trkpt lat="45.87656" lon="4.8431">
        <ele>182</ele>
        <time>2018-10-20T11:00:04Z</time>
      </trkpt>
      <trkpt lat="45.87656" lon="4.84301">
        <ele>181</ele>
        <time>2018-10-20T11:00:05Z</time>
      </trkpt>
      <trkpt lat="45.87656" lon="4.84289">
        <ele>181</ele>
        <time>2018-10-20T11:00:07Z</time>
      </trkpt>
      <trkpt lat="45.87652" lon="4.84284">
        <ele>181</ele>
        <time>2018-10-20T11:00:08Z</time>
      </trkpt>
      <trkpt lat="45.87649" lon="4.84279">
        <ele>181</ele>
        <time>2018-10-20T11:00:09Z</time>
      </trkpt>
      <trkpt lat="45.8764" lon="4.84275">
        <ele>181</ele>
        <time>2018-10-20T11:00:10Z</time>
      </trkpt>
      <trkpt lat="45.87636" lon="4.84271">
        <ele>181</ele>
        <time>2018-10-20T11:00:11Z</time>
      </trkpt>
      <trkpt lat="45.87631" lon="4.84267">
        <ele>181</ele>
        <time>2018-10-20T11:00:12Z</time>
      </trkpt>
      <trkpt lat="45.87626" lon="4.84261">
        <ele>180</ele>
        <time>2018-10-20T11:00:13Z</time>
      </trkpt>
      <trkpt lat="45.87621" lon="4.84257">
        <ele>180</ele>
        <time>2018-10-20T11:00:14Z</time>
      </trkpt>
      <trkpt lat="45.87616" lon="4.84252">
        <ele>180</ele>
        <time>2018-10-20T11:00:15Z</time>
      </trkpt>
      <trkpt lat="45.8761" lon="4.84248">
        <ele>179</ele>
        <time>2018-10-20T11:00:16Z</time>
      </trkpt>
      <trkpt lat="45.87606" lon="4.84243">
        <ele>179</ele>
        <time>2018-10-20T11:00:17Z</time>
      </trkpt>
      <trkpt lat="45.87599" lon="4.8424">
        <ele>179</ele>
        <time>2018-10-20T11:00:18Z</time>
      </trkpt>
      <trkpt lat="45.87588" lon="4.84236">
        <ele>179</ele>
        <time>2018-10-20T11:00:19Z</time>
      </trkpt>
      <trkpt lat="45.87583" lon="4.84231">
        <ele>179</ele>
        <time>2018-10-20T11:00:20Z</time>
      </trkpt>
      <trkpt lat="45.87577" lon="4.84227">
        <ele>179</ele>
        <time>2018-10-20T11:00:21Z</time>
      </trkpt>
      <trkpt lat="45.87571" lon="4.84223">
        <ele>179</ele>
        <time>2018-10-20T11:00:22Z</time>
      </trkpt>
      <trkpt lat="45.87567" lon="4.84218">
        <ele>179</ele>
        <time>2018-10-20T11:00:23Z</time>
      </trkpt>
      <trkpt lat="45.87563" lon="4.84216">
        <ele>179</ele>
        <time>2018-10-20T11:00:24Z</time>
      </trkpt>
      <trkpt lat="45.87558" lon="4.8421">
        <ele>179</ele>
        <time>2018-10-20T11:00:25Z</time>
      </trkpt>
      <trkpt lat="45.87554" lon="4.84205">
        <ele>179</ele>
        <time>2018-10-20T11:00:26Z</time>
      </trkpt>
      <trkpt lat="45.87549" lon="4.842">
        <ele>179</ele>
        <time>2018-10-20T11:00:27Z</time>
      </trkpt>
      <trkpt lat="45.87545" lon="4.84196">
        <ele>179</ele>
        <time>2018-10-20T11:00:28Z</time>
      </trkpt>
      <trkpt lat="45.8754" lon="4.84191">
        <ele>179</ele>
        <time>2018-10-20T11:00:29Z</time>
      </trkpt>
      <trkpt lat="45.87536" lon="4.84185">
        <ele>179</ele>
        <time>2018-10-20T11:00:30Z</time>
      </trkpt>
      <trkpt lat="45.87531" lon="4.84179">
        <ele>179</ele>
        <time>2018-10-20T11:00:31Z</time>
      </trkpt>
      <trkpt lat="45.87527" lon="4.84175">
        <ele>179</ele>
        <time>2018-10-20T11:00:32Z</time>
      </trkpt>
      <trkpt lat="45.87522" lon="4.84168">
        <ele>179</ele>
        <time>2018-10-20T11:00:33Z</time>
      </trkpt>
      <trkpt lat="45.87519" lon="4.84164">
        <ele>178</ele>
        <time>2018-10-20T11:00:34Z</time>
      </trkpt>
      <trkpt lat="45.87514" lon="4.84162">
        <ele>178</ele>
        <time>2018-10-20T11:00:35Z</time>
      </trkpt>
      <trkpt lat="45.87514" lon="4.84155">
        <ele>178</ele>
        <time>2018-10-20T11:00:36Z</time>
      </trkpt>
      <trkpt lat="45.87513" lon="4.84147">
        <ele>178</ele>
        <time>2018-10-20T11:00:37Z</time>
      </trkpt>
      <trkpt lat="45.87515" lon="4.84137">
        <ele>178</ele>
        <time>2018-10-20T11:00:38Z</time>
      </trkpt>
      <trkpt lat="45.87514" lon="4.84129">
        <ele>178</ele>
        <time>2018-10-20T11:00:39Z</time>
      </trkpt>
      <trkpt lat="45.87515" lon="4.8412">
        <ele>178</ele>
        <time>2018-10-20T11:00:40Z</time>
      </trkpt>
      <trkpt lat="45.87514" lon="4.84114">
        <ele>177</ele>
        <time>2018-10-20T11:00:41Z</time>
      </trkpt>
      <trkpt lat="45.87513" lon="4.84103">
        <ele>177</ele>
        <time>2018-10-20T11:00:42Z</time>
      </trkpt>
      <trkpt lat="45.87514" lon="4.84096">
        <ele>177</ele>
        <time>2018-10-20T11:00:43Z</time>
      </trkpt>
      <trkpt lat="45.87514" lon="4.84088">
        <ele>177</ele>
        <time>2018-10-20T11:00:44Z</time>
      </trkpt>
      <trkpt lat="45.87513" lon="4.8408">
        <ele>176</ele>
        <time>2018-10-20T11:00:45Z</time>
      </trkpt>
      <trkpt lat="45.87514" lon="4.8407">
        <ele>176</ele>
        <time>2018-10-20T11:00:46Z</time>
      </trkpt>
      <trkpt lat="45.87514" lon="4.8406">
        <ele>176</ele>
        <time>2018-10-20T11:00:47Z</time>
      </trkpt>
      <trkpt lat="45.87513" lon="4.84053">
        <ele>176</ele>
        <time>2018-10-20T11:00:48Z</time>
      </trkpt>
      <trkpt lat="45.87512" lon="4.84044">
        <ele>176</ele>
        <time>2018-10-20T11:00:49Z</time>
      </trkpt>
      <trkpt lat="45.87511" lon="4.84035">
        <ele>176</ele>
        <time>2018-10-20T11:00:50Z</time>
      </trkpt>
      <trkpt lat="45.87509" lon="4.84028">
        <ele>176</ele>
        <time>2018-10-20T11:00:51Z</time>
      </trkpt>
      <trkpt lat="45.87508" lon="4.84018">
        <ele>175</ele>
        <time>2018-10-20T11:00:52Z</time>
      </trkpt>
      <trkpt lat="45.87508" lon="4.8401">
        <ele>175</ele>
        <time>2018-10-20T11:00:53Z</time>
      </trkpt>
      <trkpt lat="45.87506" lon="4.84004">
        <ele>175</ele>
        <time>2018-10-20T11:00:54Z</time>
      </trkpt>
      <trkpt lat="45.87507" lon="4.83996">
        <ele>174</ele>
        <time>2018-10-20T11:00:55Z</time>
      </trkpt>
      <trkpt lat="45.87508" lon="4.83989">
        <ele>174</ele>
        <time>2018-10-20T11:00:56Z</time>
      </trkpt>
      <trkpt lat="45.87505" lon="4.83982">
        <ele>174</ele>
        <time>2018-10-20T11:00:57Z</time>
      </trkpt>
      <trkpt lat="45.87506" lon="4.83974">
        <ele>174</ele>
        <time>2018-10-20T11:00:58Z</time>
      </trkpt>
      <trkpt lat="45.87505" lon="4.83966">
        <ele>174</ele>
        <time>2018-10-20T11:00:59Z</time>
      </trkpt>
      <trkpt lat="45.87505" lon="4.83959">
        <ele>174</ele>
        <time>2018-10-20T11:01:00Z</time>
      </trkpt>
      <trkpt lat="45.87508" lon="4.83951">
        <ele>174</ele>
        <time>2018-10-20T11:01:01Z</time>
      </trkpt>
      <trkpt lat="45.87508" lon="4.83945">
        <ele>174</ele>
        <time>2018-10-20T11:01:04Z</time>
      </trkpt>
      <trkpt lat="45.8751" lon="4.8393">
        <ele>174</ele>
        <time>2018-10-20T11:01:05Z</time>
      </trkpt>
      <trkpt lat="45.87511" lon="4.83923">
        <ele>174</ele>
        <time>2018-10-20T11:01:06Z</time>
      </trkpt>
      <trkpt lat="45.87515" lon="4.83914">
        <ele>173</ele>
        <time>2018-10-20T11:01:07Z</time>
      </trkpt>
      <trkpt lat="45.87518" lon="4.83908">
        <ele>173</ele>
        <time>2018-10-20T11:01:08Z</time>
      </trkpt>
      <trkpt lat="45.8752" lon="4.83901">
        <ele>173</ele>
        <time>2018-10-20T11:01:09Z</time>
      </trkpt>
      <trkpt lat="45.87527" lon="4.83894">
        <ele>173</ele>
        <time>2018-10-20T11:01:11Z</time>
      </trkpt>
      <trkpt lat="45.87529" lon="4.83891">
        <ele>173</ele>
        <time>2018-10-20T11:01:12Z</time>
      </trkpt>
      <trkpt lat="45.87533" lon="4.83888">
        <ele>173</ele>
        <time>2018-10-20T11:01:13Z</time>
      </trkpt>
      <trkpt lat="45.87538" lon="4.83882">
        <ele>173</ele>
        <time>2018-10-20T11:01:14Z</time>
      </trkpt>
      <trkpt lat="45.87542" lon="4.83878">
        <ele>173</ele>
        <time>2018-10-20T11:01:15Z</time>
      </trkpt>
      <trkpt lat="45.87546" lon="4.83874">
        <ele>173</ele>
        <time>2018-10-20T11:01:16Z</time>
      </trkpt>
      <trkpt lat="45.8755" lon="4.83872">
        <ele>173</ele>
        <time>2018-10-20T11:01:17Z</time>
      </trkpt>
      <trkpt lat="45.87555" lon="4.83868">
        <ele>173</ele>
        <time>2018-10-20T11:01:18Z</time>
      </trkpt>
      <trkpt lat="45.87559" lon="4.83867">
        <ele>173</ele>
        <time>2018-10-20T11:01:19Z</time>
      </trkpt>
      <trkpt lat="45.87565" lon="4.83867">
        <ele>173</ele>
        <time>2018-10-20T11:01:20Z</time>
      </trkpt>
      <trkpt lat="45.87571" lon="4.83866">
        <ele>173</ele>
        <time>2018-10-20T11:01:21Z</time>
      </trkpt>
      <trkpt lat="45.87576" lon="4.83863">
        <ele>173</ele>
        <time>2018-10-20T11:01:22Z</time>
      </trkpt>
      <trkpt lat="45.8758" lon="4.83862">
        <ele>173</ele>
        <time>2018-10-20T11:01:23Z</time>
      </trkpt>
      <trkpt lat="45.87585" lon="4.8386">
        <ele>173</ele>
        <time>2018-10-20T11:01:24Z</time>
      </trkpt>
      <trkpt lat="45.87589" lon="4.83858">
        <ele>173</ele>
        <time>2018-10-20T11:01:25Z</time>
      </trkpt>
      <trkpt lat="45.87594" lon="4.83858">
        <ele>173</ele>
        <time>2018-10-20T11:01:26Z</time>
      </trkpt>
      <trkpt lat="45.87599" lon="4.83857">
        <ele>173</ele>
        <time>2018-10-20T11:01:27Z</time>
      </trkpt>
      <trkpt lat="45.87605" lon="4.83857">
        <ele>173</ele>
        <time>2018-10-20T11:01:28Z</time>
      </trkpt>
      <trkpt lat="45.8761" lon="4.83856">
        <ele>173</ele>
        <time>2018-10-20T11:01:29Z</time>
      </trkpt>
      <trkpt lat="45.87614" lon="4.83856">
        <ele>173</ele>
        <time>2018-10-20T11:01:30Z</time>
      </trkpt>
      <trkpt lat="45.87622" lon="4.83856">
        <ele>173</ele>
        <time>2018-10-20T11:01:31Z</time>
      </trkpt>
      <trkpt lat="45.87626" lon="4.83855">
        <ele>173</ele>
        <time>2018-10-20T11:01:32Z</time>
      </trkpt>
      <trkpt lat="45.87631" lon="4.83855">
        <ele>173</ele>
        <time>2018-10-20T11:01:33Z</time>
      </trkpt>
      <trkpt lat="45.87636" lon="4.83853">
        <ele>173</ele>
        <time>2018-10-20T11:01:34Z</time>
      </trkpt>
      <trkpt lat="45.87645" lon="4.83852">
        <ele>173</ele>
        <time>2018-10-20T11:01:36Z</time>
      </trkpt>
      <trkpt lat="45.87649" lon="4.83852">
        <ele>173</ele>
        <time>2018-10-20T11:01:37Z</time>
      </trkpt>
      <trkpt lat="45.87658" lon="4.83851">
        <ele>173</ele>
        <time>2018-10-20T11:01:39Z</time>
      </trkpt>
      <trkpt lat="45.87662" lon="4.83851">
        <ele>173</ele>
        <time>2018-10-20T11:01:40Z</time>
      </trkpt>
      <trkpt lat="45.87666" lon="4.83852">
        <ele>173</ele>
        <time>2018-10-20T11:01:41Z</time>
      </trkpt>
      <trkpt lat="45.87671" lon="4.83852">
        <ele>172</ele>
        <time>2018-10-20T11:01:42Z</time>
      </trkpt>
      <trkpt lat="45.8768" lon="4.83854">
        <ele>172</ele>
        <time>2018-10-20T11:01:44Z</time>
      </trkpt>
      <trkpt lat="45.87684" lon="4.83855">
        <ele>172</ele>
        <time>2018-10-20T11:01:45Z</time>
      </trkpt>
      <trkpt lat="45.87688" lon="4.83858">
        <ele>172</ele>
        <time>2018-10-20T11:01:46Z</time>
      </trkpt>
      <trkpt lat="45.87692" lon="4.8386">
        <ele>172</ele>
        <time>2018-10-20T11:01:47Z</time>
      </trkpt>
      <trkpt lat="45.877" lon="4.8386">
        <ele>172</ele>
        <time>2018-10-20T11:01:49Z</time>
      </trkpt>
      <trkpt lat="45.87705" lon="4.83859">
        <ele>172</ele>
        <time>2018-10-20T11:01:50Z</time>
      </trkpt>
      <trkpt lat="45.87707" lon="4.83853">
        <ele>172</ele>
        <time>2018-10-20T11:01:51Z</time>
      </trkpt>
      <trkpt lat="45.87708" lon="4.83847">
        <ele>172</ele>
        <time>2018-10-20T11:01:52Z</time>
      </trkpt>
      <trkpt lat="45.87708" lon="4.8384">
        <ele>172</ele>
        <time>2018-10-20T11:01:53Z</time>
      </trkpt>
      <trkpt lat="45.87705" lon="4.83834">
        <ele>172</ele>
        <time>2018-10-20T11:01:54Z</time>
      </trkpt>
      <trkpt lat="45.87699" lon="4.83827">
        <ele>170</ele>
        <time>2018-10-20T11:01:56Z</time>
      </trkpt>
      <trkpt lat="45.87697" lon="4.8382">
        <ele>169</ele>
        <time>2018-10-20T11:01:57Z</time>
      </trkpt>
      <trkpt lat="45.87698" lon="4.83812">
        <ele>169</ele>
        <time>2018-10-20T11:01:58Z</time>
      </trkpt>
      <trkpt lat="45.87697" lon="4.83806">
        <ele>169</ele>
        <time>2018-10-20T11:01:59Z</time>
      </trkpt>
      <trkpt lat="45.87697" lon="4.83795">
        <ele>168</ele>
        <time>2018-10-20T11:02:01Z</time>
      </trkpt>
      <trkpt lat="45.87695" lon="4.83789">
        <ele>168</ele>
        <time>2018-10-20T11:02:02Z</time>
      </trkpt>
      <trkpt lat="45.87694" lon="4.83776">
        <ele>168</ele>
        <time>2018-10-20T11:02:04Z</time>
      </trkpt>
      <trkpt lat="45.87693" lon="4.83769">
        <ele>167</ele>
        <time>2018-10-20T11:02:05Z</time>
      </trkpt>
      <trkpt lat="45.87693" lon="4.83759">
        <ele>167</ele>
        <time>2018-10-20T11:02:07Z</time>
      </trkpt>
      <trkpt lat="45.87692" lon="4.83754">
        <ele>167</ele>
        <time>2018-10-20T11:02:08Z</time>
      </trkpt>
      <trkpt lat="45.8769" lon="4.83742">
        <ele>165</ele>
        <time>2018-10-20T11:02:10Z</time>
      </trkpt>
      <trkpt lat="45.8769" lon="4.83736">
        <ele>165</ele>
        <time>2018-10-20T11:02:11Z</time>
      </trkpt>
      <trkpt lat="45.87688" lon="4.83725">
        <ele>165</ele>
        <time>2018-10-20T11:02:13Z</time>
      </trkpt>
      <trkpt lat="45.87688" lon="4.83719">
        <ele>165</ele>
        <time>2018-10-20T11:02:14Z</time>
      </trkpt>
      <trkpt lat="45.87688" lon="4.83713">
        <ele>165</ele>
        <time>2018-10-20T11:02:16Z</time>
      </trkpt>
      <trkpt lat="45.87687" lon="4.83703">
        <ele>165</ele>
        <time>2018-10-20T11:02:17Z</time>
      </trkpt>
      <trkpt lat="45.87686" lon="4.83697">
        <ele>165</ele>
        <time>2018-10-20T11:02:18Z</time>
      </trkpt>
      <trkpt lat="45.87686" lon="4.8369">
        <ele>165</ele>
        <time>2018-10-20T11:02:19Z</time>
      </trkpt>
      <trkpt lat="45.87687" lon="4.83683">
        <ele>165</ele>
        <time>2018-10-20T11:02:20Z</time>
      </trkpt>
      <trkpt lat="45.87686" lon="4.83676">
        <ele>165</ele>
        <time>2018-10-20T11:02:21Z</time>
      </trkpt>
      <trkpt lat="45.87685" lon="4.83664">
        <ele>165</ele>
        <time>2018-10-20T11:02:23Z</time>
      </trkpt>
      <trkpt lat="45.87685" lon="4.83656">
        <ele>165</ele>
        <time>2018-10-20T11:02:24Z</time>
      </trkpt>
      <trkpt lat="45.87684" lon="4.83649">
        <ele>165</ele>
        <time>2018-10-20T11:02:25Z</time>
      </trkpt>
      <trkpt lat="45.87685" lon="4.83642">
        <ele>165</ele>
        <time>2018-10-20T11:02:26Z</time>
      </trkpt>
      <trkpt lat="45.87684" lon="4.83633">
        <ele>165</ele>
        <time>2018-10-20T11:02:27Z</time>
      </trkpt>
      <trkpt lat="45.87684" lon="4.83625">
        <ele>165</ele>
        <time>2018-10-20T11:02:28Z</time>
      </trkpt>
      <trkpt lat="45.87683" lon="4.83617">
        <ele>165</ele>
        <time>2018-10-20T11:02:29Z</time>
      </trkpt>
      <trkpt lat="45.87684" lon="4.83609">
        <ele>165</ele>
        <time>2018-10-20T11:02:30Z</time>
      </trkpt>
      <trkpt lat="45.87682" lon="4.83601">
        <ele>165</ele>
        <time>2018-10-20T11:02:31Z</time>
      </trkpt>
      <trkpt lat="45.87681" lon="4.83593">
        <ele>165</ele>
        <time>2018-10-20T11:02:32Z</time>
      </trkpt>
      <trkpt lat="45.87683" lon="4.83582">
        <ele>167</ele>
        <time>2018-10-20T11:02:36Z</time>
      </trkpt>
      <trkpt lat="45.87682" lon="4.83579">
        <ele>167</ele>
        <time>2018-10-20T11:02:37Z</time>
      </trkpt>
      <trkpt lat="45.87681" lon="4.83567">
        <ele>167</ele>
        <time>2018-10-20T11:02:42Z</time>
      </trkpt>
      <trkpt lat="45.87682" lon="4.83564">
        <ele>167</ele>
        <time>2018-10-20T11:02:43Z</time>
      </trkpt>
      <trkpt lat="45.87684" lon="4.8356">
        <ele>167</ele>
        <time>2018-10-20T11:02:44Z</time>
      </trkpt>
      <trkpt lat="45.8769" lon="4.83551">
        <ele>168</ele>
        <time>2018-10-20T11:02:45Z</time>
      </trkpt>
      <trkpt lat="45.87695" lon="4.83547">
        <ele>168</ele>
        <time>2018-10-20T11:02:46Z</time>
      </trkpt>
      <trkpt lat="45.87698" lon="4.83542">
        <ele>168</ele>
        <time>2018-10-20T11:02:47Z</time>
      </trkpt>
      <trkpt lat="45.87703" lon="4.83536">
        <ele>169</ele>
        <time>2018-10-20T11:02:48Z</time>
      </trkpt>
      <trkpt lat="45.87707" lon="4.83529">
        <ele>169</ele>
        <time>2018-10-20T11:02:49Z</time>
      </trkpt>
      <trkpt lat="45.87713" lon="4.83523">
        <ele>169</ele>
        <time>2018-10-20T11:02:50Z</time>
      </trkpt>
      <trkpt lat="45.87718" lon="4.83517">
        <ele>170</ele>
        <time>2018-10-20T11:02:51Z</time>
      </trkpt>
      <trkpt lat="45.87722" lon="4.83513">
        <ele>170</ele>
        <time>2018-10-20T11:02:52Z</time>
      </trkpt>
      <trkpt lat="45.87727" lon="4.83505">
        <ele>170</ele>
        <time>2018-10-20T11:02:53Z</time>
      </trkpt>
      <trkpt lat="45.87733" lon="4.83497">
        <ele>172</ele>
        <time>2018-10-20T11:02:54Z</time>
      </trkpt>
      <trkpt lat="45.87738" lon="4.83491">
        <ele>172</ele>
        <time>2018-10-20T11:02:55Z</time>
      </trkpt>
      <trkpt lat="45.87742" lon="4.83483">
        <ele>172</ele>
        <time>2018-10-20T11:02:56Z</time>
      </trkpt>
      <trkpt lat="45.87747" lon="4.83477">
        <ele>172</ele>
        <time>2018-10-20T11:02:57Z</time>
      </trkpt>
      <trkpt lat="45.87752" lon="4.83471">
        <ele>170</ele>
        <time>2018-10-20T11:02:58Z</time>
      </trkpt>
      <trkpt lat="45.87757" lon="4.83466">
        <ele>170</ele>
        <time>2018-10-20T11:02:59Z</time>
      </trkpt>
      <trkpt lat="45.87761" lon="4.83461">
        <ele>170</ele>
        <time>2018-10-20T11:03:00Z</time>
      </trkpt>
      <trkpt lat="45.87765" lon="4.83454">
        <ele>170</ele>
        <time>2018-10-20T11:03:01Z</time>
      </trkpt>
      <trkpt lat="45.87769" lon="4.83448">
        <ele>170</ele>
        <time>2018-10-20T11:03:02Z</time>
      </trkpt>
      <trkpt lat="45.87773" lon="4.83444">
        <ele>170</ele>
        <time>2018-10-20T11:03:03Z</time>
      </trkpt>
      <trkpt lat="45.87777" lon="4.83438">
        <ele>169</ele>
        <time>2018-10-20T11:03:04Z</time>
      </trkpt>
      <trkpt lat="45.8778" lon="4.83432">
        <ele>169</ele>
        <time>2018-10-20T11:03:05Z</time>
      </trkpt>
      <trkpt lat="45.87783" lon="4.83427">
        <ele>169</ele>
        <time>2018-10-20T11:03:06Z</time>
      </trkpt>
      <trkpt lat="45.87785" lon="4.83421">
        <ele>169</ele>
        <time>2018-10-20T11:03:07Z</time>
      </trkpt>
      <trkpt lat="45.87788" lon="4.83416">
        <ele>169</ele>
        <time>2018-10-20T11:03:08Z</time>
      </trkpt>
      <trkpt lat="45.87791" lon="4.83409">
        <ele>168</ele>
        <time>2018-10-20T11:03:09Z</time>
      </trkpt>
      <trkpt lat="45.87793" lon="4.83403">
        <ele>168</ele>
        <time>2018-10-20T11:03:10Z</time>
      </trkpt>
      <trkpt lat="45.87796" lon="4.83397">
        <ele>168</ele>
        <time>2018-10-20T11:03:11Z</time>
      </trkpt>
      <trkpt lat="45.878" lon="4.83389">
        <ele>168</ele>
        <time>2018-10-20T11:03:12Z</time>
      </trkpt>
      <trkpt lat="45.87803" lon="4.83382">
        <ele>168</ele>
        <time>2018-10-20T11:03:13Z</time>
      </trkpt>
      <trkpt lat="45.87808" lon="4.83374">
        <ele>168</ele>
        <time>2018-10-20T11:03:14Z</time>
      </trkpt>
      <trkpt lat="45.87811" lon="4.83367">
        <ele>167</ele>
        <time>2018-10-20T11:03:15Z</time>
      </trkpt>
      <trkpt lat="45.87814" lon="4.83362">
        <ele>167</ele>
        <time>2018-10-20T11:03:16Z</time>
      </trkpt>
      <trkpt lat="45.87814" lon="4.83354">
        <ele>167</ele>
        <time>2018-10-20T11:03:17Z</time>
      </trkpt>
      <trkpt lat="45.87818" lon="4.83349">
        <ele>167</ele>
        <time>2018-10-20T11:03:18Z</time>
      </trkpt>
      <trkpt lat="45.87822" lon="4.83342">
        <ele>166</ele>
        <time>2018-10-20T11:03:19Z</time>
      </trkpt>
      <trkpt lat="45.87824" lon="4.83334">
        <ele>166</ele>
        <time>2018-10-20T11:03:20Z</time>
      </trkpt>
      <trkpt lat="45.87827" lon="4.83327">
        <ele>167</ele>
        <time>2018-10-20T11:03:21Z</time>
      </trkpt>
      <trkpt lat="45.8783" lon="4.83321">
        <ele>167</ele>
        <time>2018-10-20T11:03:22Z</time>
      </trkpt>
      <trkpt lat="45.87832" lon="4.83315">
        <ele>168</ele>
        <time>2018-10-20T11:03:23Z</time>
      </trkpt>
      <trkpt lat="45.87834" lon="4.83303">
        <ele>167</ele>
        <time>2018-10-20T11:03:25Z</time>
      </trkpt>
      <trkpt lat="45.87835" lon="4.83297">
        <ele>167</ele>
        <time>2018-10-20T11:03:26Z</time>
      </trkpt>
      <trkpt lat="45.87837" lon="4.83291">
        <ele>167</ele>
        <time>2018-10-20T11:03:27Z</time>
      </trkpt>
      <trkpt lat="45.87838" lon="4.83283">
        <ele>168</ele>
        <time>2018-10-20T11:03:28Z</time>
      </trkpt>
      <trkpt lat="45.8784" lon="4.83271">
        <ele>168</ele>
        <time>2018-10-20T11:03:30Z</time>
      </trkpt>
      <trkpt lat="45.87841" lon="4.83265">
        <ele>169</ele>
        <time>2018-10-20T11:03:31Z</time>
      </trkpt>
      <trkpt lat="45.87841" lon="4.83258">
        <ele>169</ele>
        <time>2018-10-20T11:03:32Z</time>
      </trkpt>
      <trkpt lat="45.87844" lon="4.8325">
        <ele>170</ele>
        <time>2018-10-20T11:03:33Z</time>
      </trkpt>
      <trkpt lat="45.87846" lon="4.83243">
        <ele>170</ele>
        <time>2018-10-20T11:03:34Z</time>
      </trkpt>
      <trkpt lat="45.87848" lon="4.83235">
        <ele>170</ele>
        <time>2018-10-20T11:03:35Z</time>
      </trkpt>
      <trkpt lat="45.87846" lon="4.83227">
        <ele>170</ele>
        <time>2018-10-20T11:03:36Z</time>
      </trkpt>
      <trkpt lat="45.87848" lon="4.8322">
        <ele>170</ele>
        <time>2018-10-20T11:03:37Z</time>
      </trkpt>
      <trkpt lat="45.87849" lon="4.83212">
        <ele>170</ele>
        <time>2018-10-20T11:03:38Z</time>
      </trkpt>
      <trkpt lat="45.87851" lon="4.83205">
        <ele>170</ele>
        <time>2018-10-20T11:03:39Z</time>
      </trkpt>
      <trkpt lat="45.87852" lon="4.83197">
        <ele>170</ele>
        <time>2018-10-20T11:03:40Z</time>
      </trkpt>
      <trkpt lat="45.87854" lon="4.8319">
        <ele>170</ele>
        <time>2018-10-20T11:03:41Z</time>
      </trkpt>
      <trkpt lat="45.87854" lon="4.83183">
        <ele>170</ele>
        <time>2018-10-20T11:03:42Z</time>
      </trkpt>
      <trkpt lat="45.87856" lon="4.83176">
        <ele>170</ele>
        <time>2018-10-20T11:03:43Z</time>
      </trkpt>
      <trkpt lat="45.87858" lon="4.83167">
        <ele>171</ele>
        <time>2018-10-20T11:03:44Z</time>
      </trkpt>
      <trkpt lat="45.87859" lon="4.83159">
        <ele>171</ele>
        <time>2018-10-20T11:03:45Z</time>
      </trkpt>
      <trkpt lat="45.87862" lon="4.83151">
        <ele>170</ele>
        <time>2018-10-20T11:03:46Z</time>
      </trkpt>
      <trkpt lat="45.87863" lon="4.83143">
        <ele>170</ele>
        <time>2018-10-20T11:03:47Z</time>
      </trkpt>
      <trkpt lat="45.87863" lon="4.83136">
        <ele>170</ele>
        <time>2018-10-20T11:03:48Z</time>
      </trkpt>
      <trkpt lat="45.87866" lon="4.8313">
        <ele>170</ele>
        <time>2018-10-20T11:03:49Z</time>
      </trkpt>
      <trkpt lat="45.87866" lon="4.83122">
        <ele>170</ele>
        <time>2018-10-20T11:03:50Z</time>
      </trkpt>
      <trkpt lat="45.87867" lon="4.83113">
        <ele>170</ele>
        <time>2018-10-20T11:03:51Z</time>
      </trkpt>
      <trkpt lat="45.87867" lon="4.83106">
        <ele>170</ele>
        <time>2018-10-20T11:03:52Z</time>
      </trkpt>
      <trkpt lat="45.87869" lon="4.83098">
        <ele>170</ele>
        <time>2018-10-20T11:03:53Z</time>
      </trkpt>
      <trkpt lat="45.8787" lon="4.83089">
        <ele>170</ele>
        <time>2018-10-20T11:03:54Z</time>
      </trkpt>
      <trkpt lat="45.8787" lon="4.8308">
        <ele>170</ele>
        <time>2018-10-20T11:03:55Z</time>
      </trkpt>
      <trkpt lat="45.87871" lon="4.83072">
        <ele>169</ele>
        <time>2018-10-20T11:03:56Z</time>
      </trkpt>
      <trkpt lat="45.87872" lon="4.83065">
        <ele>169</ele>
        <time>2018-10-20T11:03:57Z</time>
      </trkpt>
      <trkpt lat="45.87873" lon="4.83056">
        <ele>169</ele>
        <time>2018-10-20T11:03:58Z</time>
      </trkpt>
      <trkpt lat="45.87874" lon="4.83049">
        <ele>169</ele>
        <time>2018-10-20T11:03:59Z</time>
      </trkpt>
      <trkpt lat="45.87876" lon="4.83041">
        <ele>169</ele>
        <time>2018-10-20T11:04:00Z</time>
      </trkpt>
      <trkpt lat="45.87877" lon="4.83035">
        <ele>169</ele>
        <time>2018-10-20T11:04:01Z</time>
      </trkpt>
      <trkpt lat="45.87877" lon="4.83027">
        <ele>169</ele>
        <time>2018-10-20T11:04:02Z</time>
      </trkpt>
      <trkpt lat="45.87878" lon="4.83019">
        <ele>169</ele>
        <time>2018-10-20T11:04:03Z</time>
      </trkpt>
      <trkpt lat="45.87879" lon="4.83011">
        <ele>169</ele>
        <time>2018-10-20T11:04:04Z</time>
      </trkpt>
      <trkpt lat="45.87881" lon="4.83004">
        <ele>168</ele>
        <time>2018-10-20T11:04:05Z</time>
      </trkpt>
      <trkpt lat="45.87881" lon="4.82996">
        <ele>168</ele>
        <time>2018-10-20T11:04:06Z</time>
      </trkpt>
      <trkpt lat="45.87883" lon="4.82987">
        <ele>168</ele>
        <time>2018-10-20T11:04:07Z</time>
      </trkpt>
      <trkpt lat="45.87884" lon="4.82979">
        <ele>168</ele>
        <time>2018-10-20T11:04:08Z</time>
      </trkpt>
      <trkpt lat="45.87885" lon="4.82971">
        <ele>168</ele>
        <time>2018-10-20T11:04:09Z</time>
      </trkpt>
      <trkpt lat="45.87886" lon="4.82963">
        <ele>168</ele>
        <time>2018-10-20T11:04:10Z</time>
      </trkpt>
      <trkpt lat="45.87887" lon="4.82954">
        <ele>168</ele>
        <time>2018-10-20T11:04:11Z</time>
      </trkpt>
      <trkpt lat="45.87888" lon="4.82947">
        <ele>168</ele>
        <time>2018-10-20T11:04:12Z</time>
      </trkpt>
      <trkpt lat="45.87888" lon="4.8294">
        <ele>168</ele>
        <time>2018-10-20T11:04:13Z</time>
      </trkpt>
      <trkpt lat="45.87888" lon="4.82934">
        <ele>168</ele>
        <time>2018-10-20T11:04:14Z</time>
      </trkpt>
      <trkpt lat="45.87886" lon="4.82926">
        <ele>168</ele>
        <time>2018-10-20T11:04:15Z</time>
      </trkpt>
      <trkpt lat="45.87886" lon="4.82914">
        <ele>168</ele>
        <time>2018-10-20T11:04:17Z</time>
      </trkpt>
      <trkpt lat="45.87886" lon="4.82908">
        <ele>168</ele>
        <time>2018-10-20T11:04:18Z</time>
      </trkpt>
      <trkpt lat="45.87886" lon="4.82901">
        <ele>168</ele>
        <time>2018-10-20T11:04:19Z</time>
      </trkpt>
      <trkpt lat="45.87886" lon="4.82894">
        <ele>169</ele>
        <time>2018-10-20T11:04:20Z</time>
      </trkpt>
      <trkpt lat="45.87886" lon="4.82887">
        <ele>169</ele>
        <time>2018-10-20T11:04:21Z</time>
      </trkpt>
      <trkpt lat="45.87884" lon="4.82879">
        <ele>169</ele>
        <time>2018-10-20T11:04:22Z</time>
      </trkpt>
      <trkpt lat="45.87884" lon="4.82871">
        <ele>169</ele>
        <time>2018-10-20T11:04:23Z</time>
      </trkpt>
      <trkpt lat="45.87885" lon="4.82865">
        <ele>169</ele>
        <time>2018-10-20T11:04:24Z</time>
      </trkpt>
      <trkpt lat="45.87884" lon="4.82856">
        <ele>169</ele>
        <time>2018-10-20T11:04:25Z</time>
      </trkpt>
      <trkpt lat="45.87884" lon="4.82848">
        <ele>169</ele>
        <time>2018-10-20T11:04:26Z</time>
      </trkpt>
      <trkpt lat="45.87883" lon="4.8284">
        <ele>169</ele>
        <time>2018-10-20T11:04:27Z</time>
      </trkpt>
      <trkpt lat="45.87884" lon="4.82832">
        <ele>169</ele>
        <time>2018-10-20T11:04:28Z</time>
      </trkpt>
      <trkpt lat="45.87883" lon="4.82824">
        <ele>169</ele>
        <time>2018-10-20T11:04:29Z</time>
      </trkpt>
      <trkpt lat="45.87884" lon="4.82816">
        <ele>169</ele>
        <time>2018-10-20T11:04:30Z</time>
      </trkpt>
      <trkpt lat="45.87883" lon="4.82808">
        <ele>169</ele>
        <time>2018-10-20T11:04:31Z</time>
      </trkpt>
      <trkpt lat="45.8788" lon="4.82799">
        <ele>169</ele>
        <time>2018-10-20T11:04:32Z</time>
      </trkpt>
      <trkpt lat="45.8788" lon="4.82792">
        <ele>169</ele>
        <time>2018-10-20T11:04:33Z</time>
      </trkpt>
      <trkpt lat="45.87881" lon="4.82786">
        <ele>169</ele>
        <time>2018-10-20T11:04:34Z</time>
      </trkpt>
      <trkpt lat="45.87877" lon="4.82778">
        <ele>169</ele>
        <time>2018-10-20T11:04:35Z</time>
      </trkpt>
      <trkpt lat="45.87878" lon="4.82772">
        <ele>169</ele>
        <time>2018-10-20T11:04:36Z</time>
      </trkpt>
      <trkpt lat="45.87877" lon="4.82764">
        <ele>169</ele>
        <time>2018-10-20T11:04:37Z</time>
      </trkpt>
      <trkpt lat="45.87876" lon="4.82756">
        <ele>169</ele>
        <time>2018-10-20T11:04:38Z</time>
      </trkpt>
      <trkpt lat="45.87875" lon="4.82748">
        <ele>169</ele>
        <time>2018-10-20T11:04:39Z</time>
      </trkpt>
      <trkpt lat="45.87875" lon="4.82739">
        <ele>169</ele>
        <time>2018-10-20T11:04:40Z</time>
      </trkpt>
      <trkpt lat="45.87875" lon="4.82731">
        <ele>169</ele>
        <time>2018-10-20T11:04:41Z</time>
      </trkpt>
      <trkpt lat="45.87874" lon="4.82723">
        <ele>169</ele>
        <time>2018-10-20T11:04:42Z</time>
      </trkpt>
      <trkpt lat="45.87874" lon="4.82716">
        <ele>169</ele>
        <time>2018-10-20T11:04:43Z</time>
      </trkpt>
      <trkpt lat="45.87874" lon="4.82707">
        <ele>169</ele>
        <time>2018-10-20T11:04:44Z</time>
      </trkpt>
      <trkpt lat="45.87873" lon="4.82695">
        <ele>169</ele>
        <time>2018-10-20T11:04:46Z</time>
      </trkpt>
      <trkpt lat="45.87874" lon="4.82687">
        <ele>169</ele>
        <time>2018-10-20T11:04:47Z</time>
      </trkpt>
      <trkpt lat="45.87875" lon="4.82679">
        <ele>169</ele>
        <time>2018-10-20T11:04:48Z</time>
      </trkpt>
      <trkpt lat="45.87876" lon="4.82671">
        <ele>169</ele>
        <time>2018-10-20T11:04:49Z</time>
      </trkpt>
      <trkpt lat="45.87876" lon="4.82664">
        <ele>168</ele>
        <time>2018-10-20T11:04:50Z</time>
      </trkpt>
      <trkpt lat="45.87877" lon="4.82656">
        <ele>168</ele>
        <time>2018-10-20T11:04:51Z</time>
      </trkpt>
      <trkpt lat="45.87879" lon="4.82649">
        <ele>168</ele>
        <time>2018-10-20T11:04:52Z</time>
      </trkpt>
      <trkpt lat="45.8788" lon="4.82641">
        <ele>168</ele>
        <time>2018-10-20T11:04:53Z</time>
      </trkpt>
      <trkpt lat="45.87881" lon="4.82633">
        <ele>168</ele>
        <time>2018-10-20T11:04:54Z</time>
      </trkpt>
      <trkpt lat="45.87884" lon="4.82625">
        <ele>168</ele>
        <time>2018-10-20T11:04:55Z</time>
      </trkpt>
      <trkpt lat="45.87887" lon="4.82617">
        <ele>168</ele>
        <time>2018-10-20T11:04:56Z</time>
      </trkpt>
      <trkpt lat="45.87889" lon="4.82609">
        <ele>167</ele>
        <time>2018-10-20T11:04:57Z</time>
      </trkpt>
      <trkpt lat="45.87892" lon="4.82601">
        <ele>167</ele>
        <time>2018-10-20T11:04:58Z</time>
      </trkpt>
      <trkpt lat="45.87894" lon="4.82594">
        <ele>167</ele>
        <time>2018-10-20T11:04:59Z</time>
      </trkpt>
      <trkpt lat="45.87896" lon="4.82587">
        <ele>167</ele>
        <time>2018-10-20T11:05:00Z</time>
      </trkpt>
      <trkpt lat="45.87897" lon="4.8258">
        <ele>167</ele>
        <time>2018-10-20T11:05:01Z</time>
      </trkpt>
      <trkpt lat="45.87899" lon="4.82572">
        <ele>167</ele>
        <time>2018-10-20T11:05:02Z</time>
      </trkpt>
      <trkpt lat="45.87902" lon="4.82566">
        <ele>167</ele>
        <time>2018-10-20T11:05:03Z</time>
      </trkpt>
      <trkpt lat="45.87904" lon="4.82558">
        <ele>168</ele>
        <time>2018-10-20T11:05:04Z</time>
      </trkpt>
      <trkpt lat="45.87906" lon="4.82551">
        <ele>168</ele>
        <time>2018-10-20T11:05:05Z</time>
      </trkpt>
      <trkpt lat="45.87907" lon="4.82544">
        <ele>168</ele>
        <time>2018-10-20T11:05:06Z</time>
      </trkpt>
      <trkpt lat="45.87909" lon="4.82536">
        <ele>168</ele>
        <time>2018-10-20T11:05:07Z</time>
      </trkpt>
      <trkpt lat="45.87913" lon="4.82529">
        <ele>168</ele>
        <time>2018-10-20T11:05:08Z</time>
      </trkpt>
      <trkpt lat="45.87914" lon="4.82521">
        <ele>168</ele>
        <time>2018-10-20T11:05:09Z</time>
      </trkpt>
      <trkpt lat="45.87916" lon="4.82515">
        <ele>168</ele>
        <time>2018-10-20T11:05:10Z</time>
      </trkpt>
      <trkpt lat="45.87919" lon="4.82507">
        <ele>167</ele>
        <time>2018-10-20T11:05:11Z</time>
      </trkpt>
      <trkpt lat="45.8792" lon="4.825">
        <ele>168</ele>
        <time>2018-10-20T11:05:12Z</time>
      </trkpt>
      <trkpt lat="45.87923" lon="4.82492">
        <ele>167</ele>
        <time>2018-10-20T11:05:13Z</time>
      </trkpt>
      <trkpt lat="45.87925" lon="4.82483">
        <ele>167</ele>
        <time>2018-10-20T11:05:14Z</time>
      </trkpt>
      <trkpt lat="45.87926" lon="4.82476">
        <ele>167</ele>
        <time>2018-10-20T11:05:15Z</time>
      </trkpt>
      <trkpt lat="45.87927" lon="4.8247">
        <ele>167</ele>
        <time>2018-10-20T11:05:16Z</time>
      </trkpt>
      <trkpt lat="45.87929" lon="4.82462">
        <ele>167</ele>
        <time>2018-10-20T11:05:17Z</time>
      </trkpt>
      <trkpt lat="45.8793" lon="4.82456">
        <ele>167</ele>
        <time>2018-10-20T11:05:18Z</time>
      </trkpt>
      <trkpt lat="45.87931" lon="4.82449">
        <ele>167</ele>
        <time>2018-10-20T11:05:19Z</time>
      </trkpt>
      <trkpt lat="45.87933" lon="4.82442">
        <ele>167</ele>
        <time>2018-10-20T11:05:20Z</time>
      </trkpt>
      <trkpt lat="45.87934" lon="4.82436">
        <ele>167</ele>
        <time>2018-10-20T11:05:21Z</time>
      </trkpt>
      <trkpt lat="45.87936" lon="4.82428">
        <ele>167</ele>
        <time>2018-10-20T11:05:22Z</time>
      </trkpt>
      <trkpt lat="45.87937" lon="4.82421">
        <ele>167</ele>
        <time>2018-10-20T11:05:23Z</time>
      </trkpt>
      <trkpt lat="45.87937" lon="4.82412">
        <ele>167</ele>
        <time>2018-10-20T11:05:24Z</time>
      </trkpt>
      <trkpt lat="45.87939" lon="4.82405">
        <ele>167</ele>
        <time>2018-10-20T11:05:25Z</time>
      </trkpt>
      <trkpt lat="45.87939" lon="4.82398">
        <ele>167</ele>
        <time>2018-10-20T11:05:26Z</time>
      </trkpt>
      <trkpt lat="45.87939" lon="4.82391">
        <ele>167</ele>
        <time>2018-10-20T11:05:27Z</time>
      </trkpt>
      <trkpt lat="45.87941" lon="4.82382">
        <ele>167</ele>
        <time>2018-10-20T11:05:28Z</time>
      </trkpt>
      <trkpt lat="45.87941" lon="4.82374">
        <ele>167</ele>
        <time>2018-10-20T11:05:29Z</time>
      </trkpt>
      <trkpt lat="45.87942" lon="4.82367">
        <ele>167</ele>
        <time>2018-10-20T11:05:30Z</time>
      </trkpt>
      <trkpt lat="45.87943" lon="4.82359">
        <ele>167</ele>
        <time>2018-10-20T11:05:31Z</time>
      </trkpt>
      <trkpt lat="45.87944" lon="4.82351">
        <ele>167</ele>
        <time>2018-10-20T11:05:32Z</time>
      </trkpt>
      <trkpt lat="45.87945" lon="4.82344">
        <ele>168</ele>
        <time>2018-10-20T11:05:33Z</time>
      </trkpt>
      <trkpt lat="45.87945" lon="4.82336">
        <ele>168</ele>
        <time>2018-10-20T11:05:34Z</time>
      </trkpt>
      <trkpt lat="45.87946" lon="4.82328">
        <ele>168</ele>
        <time>2018-10-20T11:05:35Z</time>
      </trkpt>
      <trkpt lat="45.87946" lon="4.82318">
        <ele>168</ele>
        <time>2018-10-20T11:05:36Z</time>
      </trkpt>
      <trkpt lat="45.87947" lon="4.8231">
        <ele>168</ele>
        <time>2018-10-20T11:05:37Z</time>
      </trkpt>
      <trkpt lat="45.87948" lon="4.82303">
        <ele>168</ele>
        <time>2018-10-20T11:05:38Z</time>
      </trkpt>
      <trkpt lat="45.87948" lon="4.82296">
        <ele>168</ele>
        <time>2018-10-20T11:05:39Z</time>
      </trkpt>
      <trkpt lat="45.8795" lon="4.82288">
        <ele>168</ele>
        <time>2018-10-20T11:05:40Z</time>
      </trkpt>
      <trkpt lat="45.8795" lon="4.82281">
        <ele>168</ele>
        <time>2018-10-20T11:05:41Z</time>
      </trkpt>
      <trkpt lat="45.8795" lon="4.82269">
        <ele>169</ele>
        <time>2018-10-20T11:05:43Z</time>
      </trkpt>
      <trkpt lat="45.87951" lon="4.82266">
        <ele>169</ele>
        <time>2018-10-20T11:05:44Z</time>
      </trkpt>
      <trkpt lat="45.87955" lon="4.82256">
        <ele>168</ele>
        <time>2018-10-20T11:05:48Z</time>
      </trkpt>
      <trkpt lat="45.87957" lon="4.82252">
        <ele>168</ele>
        <time>2018-10-20T11:05:49Z</time>
      </trkpt>
      <trkpt lat="45.8796" lon="4.82241">
        <ele>169</ele>
        <time>2018-10-20T11:05:50Z</time>
      </trkpt>
      <trkpt lat="45.87961" lon="4.82239">
        <ele>169</ele>
        <time>2018-10-20T11:05:51Z</time>
      </trkpt>
      <trkpt lat="45.87965" lon="4.82229">
        <ele>169</ele>
        <time>2018-10-20T11:05:54Z</time>
      </trkpt>
      <trkpt lat="45.87966" lon="4.82227">
        <ele>169</ele>
        <time>2018-10-20T11:05:55Z</time>
      </trkpt>
      <trkpt lat="45.87969" lon="4.82217">
        <ele>169</ele>
        <time>2018-10-20T11:05:58Z</time>
      </trkpt>
      <trkpt lat="45.87971" lon="4.82214">
        <ele>169</ele>
        <time>2018-10-20T11:05:59Z</time>
      </trkpt>
      <trkpt lat="45.87974" lon="4.82202">
        <ele>169</ele>
        <time>2018-10-20T11:06:15Z</time>
      </trkpt>
      <trkpt lat="45.87973" lon="4.82201">
        <ele>169</ele>
        <time>2018-10-20T11:06:16Z</time>
      </trkpt>
      <trkpt lat="45.87973" lon="4.82201">
        <ele>169</ele>
        <time>2018-10-20T11:06:17Z</time>
      </trkpt>
      <trkpt lat="45.87973" lon="4.822">
        <ele>169</ele>
        <time>2018-10-20T11:06:18Z</time>
      </trkpt>
      <trkpt lat="45.87973" lon="4.822">
        <ele>169</ele>
        <time>2018-10-20T11:06:19Z</time>
      </trkpt>
      <trkpt lat="45.87972" lon="4.82188">
        <ele>170</ele>
        <time>2018-10-20T11:09:24Z</time>
      </trkpt>
      <trkpt lat="45.87974" lon="4.82185">
        <ele>170</ele>
        <time>2018-10-20T11:09:25Z</time>
      </trkpt>
      <trkpt lat="45.87978" lon="4.82176">
        <ele>170</ele>
        <time>2018-10-20T11:09:29Z</time>
      </trkpt>
      <trkpt lat="45.87979" lon="4.82174">
        <ele>170</ele>
        <time>2018-10-20T11:09:30Z</time>
      </trkpt>
      <trkpt lat="45.87981" lon="4.82171">
        <ele>169</ele>
        <time>2018-10-20T11:09:31Z</time>
      </trkpt>
      <trkpt lat="45.87985" lon="4.82162">
        <ele>170</ele>
        <time>2018-10-20T11:09:32Z</time>
      </trkpt>
      <trkpt lat="45.8799" lon="4.82155">
        <ele>170</ele>
        <time>2018-10-20T11:09:34Z</time>
      </trkpt>
      <trkpt lat="45.87993" lon="4.8215">
        <ele>170</ele>
        <time>2018-10-20T11:09:35Z</time>
      </trkpt>
      <trkpt lat="45.87996" lon="4.82142">
        <ele>171</ele>
        <time>2018-10-20T11:09:37Z</time>
      </trkpt>
      <trkpt lat="45.87999" lon="4.82135">
        <ele>171</ele>
        <time>2018-10-20T11:09:38Z</time>
      </trkpt>
      <trkpt lat="45.88003" lon="4.82126">
        <ele>168</ele>
        <time>2018-10-20T11:09:40Z</time>
      </trkpt>
      <trkpt lat="45.88006" lon="4.82119">
        <ele>168</ele>
        <time>2018-10-20T11:09:41Z</time>
      </trkpt>
      <trkpt lat="45.8801" lon="4.82111">
        <ele>168</ele>
        <time>2018-10-20T11:09:43Z</time>
      </trkpt>
      <trkpt lat="45.88011" lon="4.82102">
        <ele>168</ele>
        <time>2018-10-20T11:09:44Z</time>
      </trkpt>
      <trkpt lat="45.88013" lon="4.82091">
        <ele>169</ele>
        <time>2018-10-20T11:09:46Z</time>
      </trkpt>
      <trkpt lat="45.88015" lon="4.82086">
        <ele>169</ele>
        <time>2018-10-20T11:09:47Z</time>
      </trkpt>
      <trkpt lat="45.8802" lon="4.82077">
        <ele>169</ele>
        <time>2018-10-20T11:09:49Z</time>
      </trkpt>
      <trkpt lat="45.88022" lon="4.82073">
        <ele>169</ele>
        <time>2018-10-20T11:09:50Z</time>
      </trkpt>
      <trkpt lat="45.88027" lon="4.82065">
        <ele>169</ele>
        <time>2018-10-20T11:09:51Z</time>
      </trkpt>
      <trkpt lat="45.88029" lon="4.8206">
        <ele>169</ele>
        <time>2018-10-20T11:09:52Z</time>
      </trkpt>
      <trkpt lat="45.88032" lon="4.82056">
        <ele>168</ele>
        <time>2018-10-20T11:09:53Z</time>
      </trkpt>
      <trkpt lat="45.88036" lon="4.82049">
        <ele>168</ele>
        <time>2018-10-20T11:09:54Z</time>
      </trkpt>
      <trkpt lat="45.88039" lon="4.82041">
        <ele>168</ele>
        <time>2018-10-20T11:09:55Z</time>
      </trkpt>
      <trkpt lat="45.88042" lon="4.82034">
        <ele>168</ele>
        <time>2018-10-20T11:09:56Z</time>
      </trkpt>
      <trkpt lat="45.88045" lon="4.82028">
        <ele>168</ele>
        <time>2018-10-20T11:09:57Z</time>
      </trkpt>
      <trkpt lat="45.88047" lon="4.82021">
        <ele>168</ele>
        <time>2018-10-20T11:09:58Z</time>
      </trkpt>
      <trkpt lat="45.88048" lon="4.82015">
        <ele>168</ele>
        <time>2018-10-20T11:09:59Z</time>
      </trkpt>
      <trkpt lat="45.8805" lon="4.82009">
        <ele>168</ele>
        <time>2018-10-20T11:10:00Z</time>
      </trkpt>
      <trkpt lat="45.88052" lon="4.82002">
        <ele>168</ele>
        <time>2018-10-20T11:10:01Z</time>
      </trkpt>
      <trkpt lat="45.88054" lon="4.81995">
        <ele>168</ele>
        <time>2018-10-20T11:10:02Z</time>
      </trkpt>
      <trkpt lat="45.88056" lon="4.81987">
        <ele>168</ele>
        <time>2018-10-20T11:10:03Z</time>
      </trkpt>
      <trkpt lat="45.88058" lon="4.81981">
        <ele>168</ele>
        <time>2018-10-20T11:10:04Z</time>
      </trkpt>
      <trkpt lat="45.88061" lon="4.81974">
        <ele>168</ele>
        <time>2018-10-20T11:10:05Z</time>
      </trkpt>
      <trkpt lat="45.88063" lon="4.81968">
        <ele>168</ele>
        <time>2018-10-20T11:10:06Z</time>
      </trkpt>
      <trkpt lat="45.88065" lon="4.81962">
        <ele>168</ele>
        <time>2018-10-20T11:10:07Z</time>
      </trkpt>
      <trkpt lat="45.88067" lon="4.81956">
        <ele>168</ele>
        <time>2018-10-20T11:10:08Z</time>
      </trkpt>
      <trkpt lat="45.88069" lon="4.81945">
        <ele>168</ele>
        <time>2018-10-20T11:10:10Z</time>
      </trkpt>
      <trkpt lat="45.88074" lon="4.81938">
        <ele>167</ele>
        <time>2018-10-20T11:10:11Z</time>
      </trkpt>
      <trkpt lat="45.88078" lon="4.81928">
        <ele>166</ele>
        <time>2018-10-20T11:10:13Z</time>
      </trkpt>
      <trkpt lat="45.8808" lon="4.81921">
        <ele>166</ele>
        <time>2018-10-20T11:10:14Z</time>
      </trkpt>
      <trkpt lat="45.88082" lon="4.81916">
        <ele>165</ele>
        <time>2018-10-20T11:10:15Z</time>
      </trkpt>
      <trkpt lat="45.88084" lon="4.81909">
        <ele>165</ele>
        <time>2018-10-20T11:10:16Z</time>
      </trkpt>
      <trkpt lat="45.88089" lon="4.81898">
        <ele>165</ele>
        <time>2018-10-20T11:10:18Z</time>
      </trkpt>
      <trkpt lat="45.8809" lon="4.81893">
        <ele>165</ele>
        <time>2018-10-20T11:10:19Z</time>
      </trkpt>
      <trkpt lat="45.88093" lon="4.81885">
        <ele>166</ele>
        <time>2018-10-20T11:10:20Z</time>
      </trkpt>
      <trkpt lat="45.88096" lon="4.81878">
        <ele>166</ele>
        <time>2018-10-20T11:10:21Z</time>
      </trkpt>
      <trkpt lat="45.88099" lon="4.81867">
        <ele>166</ele>
        <time>2018-10-20T11:10:23Z</time>
      </trkpt>
      <trkpt lat="45.88103" lon="4.8186">
        <ele>166</ele>
        <time>2018-10-20T11:10:24Z</time>
      </trkpt>
      <trkpt lat="45.88106" lon="4.81853">
        <ele>166</ele>
        <time>2018-10-20T11:10:25Z</time>
      </trkpt>
      <trkpt lat="45.88108" lon="4.81844">
        <ele>166</ele>
        <time>2018-10-20T11:10:26Z</time>
      </trkpt>
      <trkpt lat="45.88111" lon="4.81834">
        <ele>166</ele>
        <time>2018-10-20T11:10:27Z</time>
      </trkpt>
      <trkpt lat="45.88112" lon="4.81827">
        <ele>167</ele>
        <time>2018-10-20T11:10:28Z</time>
      </trkpt>
      <trkpt lat="45.88115" lon="4.81819">
        <ele>167</ele>
        <time>2018-10-20T11:10:29Z</time>
      </trkpt>
      <trkpt lat="45.88115" lon="4.81812">
        <ele>167</ele>
        <time>2018-10-20T11:10:30Z</time>
      </trkpt>
      <trkpt lat="45.88118" lon="4.81806">
        <ele>167</ele>
        <time>2018-10-20T11:10:31Z</time>
      </trkpt>
      <trkpt lat="45.8812" lon="4.81799">
        <ele>167</ele>
        <time>2018-10-20T11:10:32Z</time>
      </trkpt>
      <trkpt lat="45.88123" lon="4.81792">
        <ele>167</ele>
        <time>2018-10-20T11:10:33Z</time>
      </trkpt>
      <trkpt lat="45.88125" lon="4.81785">
        <ele>167</ele>
        <time>2018-10-20T11:10:34Z</time>
      </trkpt>
      <trkpt lat="45.88128" lon="4.81778">
        <ele>167</ele>
        <time>2018-10-20T11:10:35Z</time>
      </trkpt>
      <trkpt lat="45.88131" lon="4.81771">
        <ele>167</ele>
        <time>2018-10-20T11:10:36Z</time>
      </trkpt>
      <trkpt lat="45.88134" lon="4.81765">
        <ele>167</ele>
        <time>2018-10-20T11:10:37Z</time>
      </trkpt>
      <trkpt lat="45.88136" lon="4.81759">
        <ele>167</ele>
        <time>2018-10-20T11:10:38Z</time>
      </trkpt>
      <trkpt lat="45.88139" lon="4.81753">
        <ele>167</ele>
        <time>2018-10-20T11:10:39Z</time>
      </trkpt>
      <trkpt lat="45.88141" lon="4.81746">
        <ele>169</ele>
        <time>2018-10-20T11:10:40Z</time>
      </trkpt>
      <trkpt lat="45.88144" lon="4.81739">
        <ele>169</ele>
        <time>2018-10-20T11:10:41Z</time>
      </trkpt>
      <trkpt lat="45.88146" lon="4.81733">
        <ele>169</ele>
        <time>2018-10-20T11:10:42Z</time>
      </trkpt>
      <trkpt lat="45.88149" lon="4.81724">
        <ele>169</ele>
        <time>2018-10-20T11:10:43Z</time>
      </trkpt>
      <trkpt lat="45.88151" lon="4.81719">
        <ele>170</ele>
        <time>2018-10-20T11:10:44Z</time>
      </trkpt>
      <trkpt lat="45.88153" lon="4.81713">
        <ele>170</ele>
        <time>2018-10-20T11:10:45Z</time>
      </trkpt>
      <trkpt lat="45.88156" lon="4.81707">
        <ele>170</ele>
        <time>2018-10-20T11:10:46Z</time>
      </trkpt>
      <trkpt lat="45.88158" lon="4.817">
        <ele>171</ele>
        <time>2018-10-20T11:10:47Z</time>
      </trkpt>
      <trkpt lat="45.88162" lon="4.81694">
        <ele>171</ele>
        <time>2018-10-20T11:10:48Z</time>
      </trkpt>
      <trkpt lat="45.88164" lon="4.81687">
        <ele>172</ele>
        <time>2018-10-20T11:10:49Z</time>
      </trkpt>
      <trkpt lat="45.88166" lon="4.81682">
        <ele>172</ele>
        <time>2018-10-20T11:10:50Z</time>
      </trkpt>
      <trkpt lat="45.88168" lon="4.81676">
        <ele>171</ele>
        <time>2018-10-20T11:10:51Z</time>
      </trkpt>
      <trkpt lat="45.88171" lon="4.81667">
        <ele>172</ele>
        <time>2018-10-20T11:10:52Z</time>
      </trkpt>
      <trkpt lat="45.88173" lon="4.81661">
        <ele>172</ele>
        <time>2018-10-20T11:10:53Z</time>
      </trkpt>
      <trkpt lat="45.88176" lon="4.81655">
        <ele>172</ele>
        <time>2018-10-20T11:10:54Z</time>
      </trkpt>
      <trkpt lat="45.88178" lon="4.81648">
        <ele>171</ele>
        <time>2018-10-20T11:10:55Z</time>
      </trkpt>
      <trkpt lat="45.88181" lon="4.81644">
        <ele>171</ele>
        <time>2018-10-20T11:10:56Z</time>
      </trkpt>
      <trkpt lat="45.88183" lon="4.81637">
        <ele>171</ele>
        <time>2018-10-20T11:10:57Z</time>
      </trkpt>
      <trkpt lat="45.88186" lon="4.81631">
        <ele>171</ele>
        <time>2018-10-20T11:10:58Z</time>
      </trkpt>
      <trkpt lat="45.88187" lon="4.81624">
        <ele>171</ele>
        <time>2018-10-20T11:10:59Z</time>
      </trkpt>
      <trkpt lat="45.8819" lon="4.81618">
        <ele>171</ele>
        <time>2018-10-20T11:11:00Z</time>
      </trkpt>
      <trkpt lat="45.88193" lon="4.8161">
        <ele>171</ele>
        <time>2018-10-20T11:11:01Z</time>
      </trkpt>
      <trkpt lat="45.88193" lon="4.81602">
        <ele>171</ele>
        <time>2018-10-20T11:11:02Z</time>
      </trkpt>
      <trkpt lat="45.88196" lon="4.81595">
        <ele>171</ele>
        <time>2018-10-20T11:11:03Z</time>
      </trkpt>
      <trkpt lat="45.882" lon="4.81589">
        <ele>171</ele>
        <time>2018-10-20T11:11:04Z</time>
      </trkpt>
      <trkpt lat="45.88203" lon="4.81583">
        <ele>171</ele>
        <time>2018-10-20T11:11:05Z</time>
      </trkpt>
      <trkpt lat="45.88205" lon="4.81577">
        <ele>171</ele>
        <time>2018-10-20T11:11:06Z</time>
      </trkpt>
      <trkpt lat="45.88208" lon="4.81568">
        <ele>171</ele>
        <time>2018-10-20T11:11:07Z</time>
      </trkpt>
      <trkpt lat="45.88212" lon="4.81563">
        <ele>171</ele>
        <time>2018-10-20T11:11:08Z</time>
      </trkpt>
      <trkpt lat="45.88217" lon="4.81557">
        <ele>170</ele>
        <time>2018-10-20T11:11:09Z</time>
      </trkpt>
      <trkpt lat="45.8822" lon="4.81551">
        <ele>170</ele>
        <time>2018-10-20T11:11:10Z</time>
      </trkpt>
      <trkpt lat="45.88224" lon="4.81544">
        <ele>170</ele>
        <time>2018-10-20T11:11:11Z</time>
      </trkpt>
      <trkpt lat="45.88227" lon="4.81536">
        <ele>170</ele>
        <time>2018-10-20T11:11:12Z</time>
      </trkpt>
      <trkpt lat="45.8823" lon="4.81529">
        <ele>170</ele>
        <time>2018-10-20T11:11:13Z</time>
      </trkpt>
      <trkpt lat="45.88232" lon="4.81521">
        <ele>170</ele>
        <time>2018-10-20T11:11:14Z</time>
      </trkpt>
      <trkpt lat="45.88234" lon="4.81513">
        <ele>170</ele>
        <time>2018-10-20T11:11:15Z</time>
      </trkpt>
      <trkpt lat="45.88237" lon="4.81507">
        <ele>169</ele>
        <time>2018-10-20T11:11:16Z</time>
      </trkpt>
      <trkpt lat="45.88241" lon="4.815">
        <ele>169</ele>
        <time>2018-10-20T11:11:17Z</time>
      </trkpt>
      <trkpt lat="45.88244" lon="4.81493">
        <ele>169</ele>
        <time>2018-10-20T11:11:18Z</time>
      </trkpt>
      <trkpt lat="45.88247" lon="4.81486">
        <ele>169</ele>
        <time>2018-10-20T11:11:19Z</time>
      </trkpt>
      <trkpt lat="45.88252" lon="4.8148">
        <ele>167</ele>
        <time>2018-10-20T11:11:20Z</time>
      </trkpt>
      <trkpt lat="45.88254" lon="4.81474">
        <ele>167</ele>
        <time>2018-10-20T11:11:21Z</time>
      </trkpt>
      <trkpt lat="45.88256" lon="4.81466">
        <ele>166</ele>
        <time>2018-10-20T11:11:22Z</time>
      </trkpt>
      <trkpt lat="45.88259" lon="4.8146">
        <ele>166</ele>
        <time>2018-10-20T11:11:23Z</time>
      </trkpt>
      <trkpt lat="45.88262" lon="4.81453">
        <ele>166</ele>
        <time>2018-10-20T11:11:24Z</time>
      </trkpt>
      <trkpt lat="45.88265" lon="4.81447">
        <ele>166</ele>
        <time>2018-10-20T11:11:25Z</time>
      </trkpt>
      <trkpt lat="45.88269" lon="4.81439">
        <ele>166</ele>
        <time>2018-10-20T11:11:26Z</time>
      </trkpt>
      <trkpt lat="45.88272" lon="4.81433">
        <ele>166</ele>
        <time>2018-10-20T11:11:27Z</time>
      </trkpt>
      <trkpt lat="45.88275" lon="4.81426">
        <ele>166</ele>
        <time>2018-10-20T11:11:28Z</time>
      </trkpt>
      <trkpt lat="45.88278" lon="4.8142">
        <ele>166</ele>
        <time>2018-10-20T11:11:29Z</time>
      </trkpt>
      <trkpt lat="45.88281" lon="4.81414">
        <ele>167</ele>
        <time>2018-10-20T11:11:30Z</time>
      </trkpt>
      <trkpt lat="45.88285" lon="4.81407">
        <ele>167</ele>
        <time>2018-10-20T11:11:31Z</time>
      </trkpt>
      <trkpt lat="45.88287" lon="4.81401">
        <ele>167</ele>
        <time>2018-10-20T11:11:32Z</time>
      </trkpt>
      <trkpt lat="45.88291" lon="4.81394">
        <ele>168</ele>
        <time>2018-10-20T11:11:33Z</time>
      </trkpt>
      <trkpt lat="45.88295" lon="4.81387">
        <ele>168</ele>
        <time>2018-10-20T11:11:34Z</time>
      </trkpt>
      <trkpt lat="45.88298" lon="4.8138">
        <ele>168</ele>
        <time>2018-10-20T11:11:35Z</time>
      </trkpt>
      <trkpt lat="45.88301" lon="4.81374">
        <ele>169</ele>
        <time>2018-10-20T11:11:36Z</time>
      </trkpt>
      <trkpt lat="45.88304" lon="4.81369">
        <ele>169</ele>
        <time>2018-10-20T11:11:37Z</time>
      </trkpt>
      <trkpt lat="45.88307" lon="4.81362">
        <ele>169</ele>
        <time>2018-10-20T11:11:38Z</time>
      </trkpt>
      <trkpt lat="45.88311" lon="4.81357">
        <ele>169</ele>
        <time>2018-10-20T11:11:39Z</time>
      </trkpt>
      <trkpt lat="45.88313" lon="4.81351">
        <ele>170</ele>
        <time>2018-10-20T11:11:40Z</time>
      </trkpt>
      <trkpt lat="45.88316" lon="4.81346">
        <ele>170</ele>
        <time>2018-10-20T11:11:41Z</time>
      </trkpt>
      <trkpt lat="45.88322" lon="4.81336">
        <ele>171</ele>
        <time>2018-10-20T11:11:42Z</time>
      </trkpt>
      <trkpt lat="45.88325" lon="4.81328">
        <ele>172</ele>
        <time>2018-10-20T11:11:43Z</time>
      </trkpt>
      <trkpt lat="45.88329" lon="4.81319">
        <ele>172</ele>
        <time>2018-10-20T11:11:44Z</time>
      </trkpt>
      <trkpt lat="45.88331" lon="4.81314">
        <ele>172</ele>
        <time>2018-10-20T11:11:45Z</time>
      </trkpt>
      <trkpt lat="45.88335" lon="4.81307">
        <ele>171</ele>
        <time>2018-10-20T11:11:46Z</time>
      </trkpt>
      <trkpt lat="45.88339" lon="4.813">
        <ele>171</ele>
        <time>2018-10-20T11:11:47Z</time>
      </trkpt>
      <trkpt lat="45.88341" lon="4.81295">
        <ele>170</ele>
        <time>2018-10-20T11:11:48Z</time>
      </trkpt>
      <trkpt lat="45.88344" lon="4.81289">
        <ele>170</ele>
        <time>2018-10-20T11:11:49Z</time>
      </trkpt>
      <trkpt lat="45.88348" lon="4.81284">
        <ele>170</ele>
        <time>2018-10-20T11:11:50Z</time>
      </trkpt>
      <trkpt lat="45.88351" lon="4.81278">
        <ele>170</ele>
        <time>2018-10-20T11:11:51Z</time>
      </trkpt>
      <trkpt lat="45.88355" lon="4.81271">
        <ele>170</ele>
        <time>2018-10-20T11:11:52Z</time>
      </trkpt>
      <trkpt lat="45.8836" lon="4.81263">
        <ele>170</ele>
        <time>2018-10-20T11:11:53Z</time>
      </trkpt>
      <trkpt lat="45.88363" lon="4.81258">
        <ele>170</ele>
        <time>2018-10-20T11:11:54Z</time>
      </trkpt>
      <trkpt lat="45.88366" lon="4.81253">
        <ele>170</ele>
        <time>2018-10-20T11:11:55Z</time>
      </trkpt>
      <trkpt lat="45.8837" lon="4.81247">
        <ele>170</ele>
        <time>2018-10-20T11:11:56Z</time>
      </trkpt>
      <trkpt lat="45.88373" lon="4.81241">
        <ele>170</ele>
        <time>2018-10-20T11:11:57Z</time>
      </trkpt>
      <trkpt lat="45.88376" lon="4.81234">
        <ele>170</ele>
        <time>2018-10-20T11:11:58Z</time>
      </trkpt>
      <trkpt lat="45.88379" lon="4.81228">
        <ele>170</ele>
        <time>2018-10-20T11:11:59Z</time>
      </trkpt>
      <trkpt lat="45.88383" lon="4.81223">
        <ele>170</ele>
        <time>2018-10-20T11:12:00Z</time>
      </trkpt>
      <trkpt lat="45.88386" lon="4.81218">
        <ele>170</ele>
        <time>2018-10-20T11:12:01Z</time>
      </trkpt>
      <trkpt lat="45.8839" lon="4.8121">
        <ele>170</ele>
        <time>2018-10-20T11:12:02Z</time>
      </trkpt>
      <trkpt lat="45.88397" lon="4.81202">
        <ele>170</ele>
        <time>2018-10-20T11:12:04Z</time>
      </trkpt>
      <trkpt lat="45.884" lon="4.81196">
        <ele>170</ele>
        <time>2018-10-20T11:12:05Z</time>
      </trkpt>
      <trkpt lat="45.88405" lon="4.8119">
        <ele>170</ele>
        <time>2018-10-20T11:12:06Z</time>
      </trkpt>
      <trkpt lat="45.88408" lon="4.81183">
        <ele>170</ele>
        <time>2018-10-20T11:12:07Z</time>
      </trkpt>
      <trkpt lat="45.88411" lon="4.81178">
        <ele>170</ele>
        <time>2018-10-20T11:12:08Z</time>
      </trkpt>
      <trkpt lat="45.88414" lon="4.81173">
        <ele>170</ele>
        <time>2018-10-20T11:12:09Z</time>
      </trkpt>
      <trkpt lat="45.88418" lon="4.81167">
        <ele>170</ele>
        <time>2018-10-20T11:12:10Z</time>
      </trkpt>
      <trkpt lat="45.8842" lon="4.8116">
        <ele>169</ele>
        <time>2018-10-20T11:12:11Z</time>
      </trkpt>
      <trkpt lat="45.88426" lon="4.81152">
        <ele>169</ele>
        <time>2018-10-20T11:12:12Z</time>
      </trkpt>
      <trkpt lat="45.8843" lon="4.81146">
        <ele>169</ele>
        <time>2018-10-20T11:12:13Z</time>
      </trkpt>
      <trkpt lat="45.88434" lon="4.81141">
        <ele>168</ele>
        <time>2018-10-20T11:12:14Z</time>
      </trkpt>
      <trkpt lat="45.88437" lon="4.81134">
        <ele>168</ele>
        <time>2018-10-20T11:12:15Z</time>
      </trkpt>
      <trkpt lat="45.88441" lon="4.81129">
        <ele>168</ele>
        <time>2018-10-20T11:12:16Z</time>
      </trkpt>
      <trkpt lat="45.88445" lon="4.81123">
        <ele>168</ele>
        <time>2018-10-20T11:12:17Z</time>
      </trkpt>
      <trkpt lat="45.88448" lon="4.81117">
        <ele>168</ele>
        <time>2018-10-20T11:12:18Z</time>
      </trkpt>
      <trkpt lat="45.88452" lon="4.81111">
        <ele>168</ele>
        <time>2018-10-20T11:12:19Z</time>
      </trkpt>
      <trkpt lat="45.88456" lon="4.81104">
        <ele>168</ele>
        <time>2018-10-20T11:12:20Z</time>
      </trkpt>
      <trkpt lat="45.88459" lon="4.81101">
        <ele>168</ele>
        <time>2018-10-20T11:12:21Z</time>
      </trkpt>
      <trkpt lat="45.88463" lon="4.81096">
        <ele>168</ele>
        <time>2018-10-20T11:12:22Z</time>
      </trkpt>
      <trkpt lat="45.88466" lon="4.81091">
        <ele>168</ele>
        <time>2018-10-20T11:12:23Z</time>
      </trkpt>
      <trkpt lat="45.8847" lon="4.81086">
        <ele>168</ele>
        <time>2018-10-20T11:12:24Z</time>
      </trkpt>
      <trkpt lat="45.88473" lon="4.81081">
        <ele>168</ele>
        <time>2018-10-20T11:12:25Z</time>
      </trkpt>
      <trkpt lat="45.8848" lon="4.81073">
        <ele>168</ele>
        <time>2018-10-20T11:12:27Z</time>
      </trkpt>
      <trkpt lat="45.88484" lon="4.81066">
        <ele>168</ele>
        <time>2018-10-20T11:12:28Z</time>
      </trkpt>
      <trkpt lat="45.88489" lon="4.81059">
        <ele>168</ele>
        <time>2018-10-20T11:12:29Z</time>
      </trkpt>
      <trkpt lat="45.88493" lon="4.81053">
        <ele>168</ele>
        <time>2018-10-20T11:12:30Z</time>
      </trkpt>
      <trkpt lat="45.88497" lon="4.81049">
        <ele>168</ele>
        <time>2018-10-20T11:12:31Z</time>
      </trkpt>
      <trkpt lat="45.88501" lon="4.81043">
        <ele>169</ele>
        <time>2018-10-20T11:12:32Z</time>
      </trkpt>
      <trkpt lat="45.88505" lon="4.81038">
        <ele>169</ele>
        <time>2018-10-20T11:12:33Z</time>
      </trkpt>
      <trkpt lat="45.8851" lon="4.81032">
        <ele>169</ele>
        <time>2018-10-20T11:12:34Z</time>
      </trkpt>
      <trkpt lat="45.88514" lon="4.81027">
        <ele>169</ele>
        <time>2018-10-20T11:12:35Z</time>
      </trkpt>
      <trkpt lat="45.88518" lon="4.81021">
        <ele>169</ele>
        <time>2018-10-20T11:12:36Z</time>
      </trkpt>
      <trkpt lat="45.88523" lon="4.81014">
        <ele>169</ele>
        <time>2018-10-20T11:12:37Z</time>
      </trkpt>
      <trkpt lat="45.88527" lon="4.8101">
        <ele>169</ele>
        <time>2018-10-20T11:12:38Z</time>
      </trkpt>
      <trkpt lat="45.88532" lon="4.81002">
        <ele>169</ele>
        <time>2018-10-20T11:12:39Z</time>
      </trkpt>
      <trkpt lat="45.88535" lon="4.80997">
        <ele>169</ele>
        <time>2018-10-20T11:12:40Z</time>
      </trkpt>
      <trkpt lat="45.8854" lon="4.80991">
        <ele>169</ele>
        <time>2018-10-20T11:12:41Z</time>
      </trkpt>
      <trkpt lat="45.88545" lon="4.80984">
        <ele>169</ele>
        <time>2018-10-20T11:12:42Z</time>
      </trkpt>
      <trkpt lat="45.88549" lon="4.8098">
        <ele>169</ele>
        <time>2018-10-20T11:12:43Z</time>
      </trkpt>
      <trkpt lat="45.88553" lon="4.80976">
        <ele>169</ele>
        <time>2018-10-20T11:12:44Z</time>
      </trkpt>
      <trkpt lat="45.88558" lon="4.80971">
        <ele>169</ele>
        <time>2018-10-20T11:12:45Z</time>
      </trkpt>
      <trkpt lat="45.88562" lon="4.80966">
        <ele>169</ele>
        <time>2018-10-20T11:12:46Z</time>
      </trkpt>
      <trkpt lat="45.88566" lon="4.80961">
        <ele>169</ele>
        <time>2018-10-20T11:12:47Z</time>
      </trkpt>
      <trkpt lat="45.8857" lon="4.80957">
        <ele>169</ele>
        <time>2018-10-20T11:12:48Z</time>
      </trkpt>
      <trkpt lat="45.88575" lon="4.80951">
        <ele>169</ele>
        <time>2018-10-20T11:12:49Z</time>
      </trkpt>
      <trkpt lat="45.88579" lon="4.80946">
        <ele>169</ele>
        <time>2018-10-20T11:12:50Z</time>
      </trkpt>
      <trkpt lat="45.88583" lon="4.80942">
        <ele>169</ele>
        <time>2018-10-20T11:12:51Z</time>
      </trkpt>
      <trkpt lat="45.88588" lon="4.80937">
        <ele>169</ele>
        <time>2018-10-20T11:12:52Z</time>
      </trkpt>
      <trkpt lat="45.88592" lon="4.80933">
        <ele>169</ele>
        <time>2018-10-20T11:12:53Z</time>
      </trkpt>
      <trkpt lat="45.88596" lon="4.80928">
        <ele>169</ele>
        <time>2018-10-20T11:12:54Z</time>
      </trkpt>
      <trkpt lat="45.886" lon="4.80922">
        <ele>169</ele>
        <time>2018-10-20T11:12:55Z</time>
      </trkpt>
      <trkpt lat="45.88604" lon="4.80917">
        <ele>170</ele>
        <time>2018-10-20T11:12:56Z</time>
      </trkpt>
      <trkpt lat="45.88608" lon="4.80912">
        <ele>170</ele>
        <time>2018-10-20T11:12:57Z</time>
      </trkpt>
      <trkpt lat="45.88612" lon="4.80909">
        <ele>170</ele>
        <time>2018-10-20T11:12:58Z</time>
      </trkpt>
      <trkpt lat="45.88617" lon="4.80904">
        <ele>171</ele>
        <time>2018-10-20T11:12:59Z</time>
      </trkpt>
      <trkpt lat="45.88621" lon="4.80899">
        <ele>171</ele>
        <time>2018-10-20T11:13:00Z</time>
      </trkpt>
      <trkpt lat="45.88626" lon="4.80896">
        <ele>171</ele>
        <time>2018-10-20T11:13:01Z</time>
      </trkpt>
      <trkpt lat="45.88631" lon="4.80891">
        <ele>171</ele>
        <time>2018-10-20T11:13:02Z</time>
      </trkpt>
      <trkpt lat="45.88635" lon="4.80886">
        <ele>171</ele>
        <time>2018-10-20T11:13:03Z</time>
      </trkpt>
      <trkpt lat="45.88639" lon="4.80882">
        <ele>171</ele>
        <time>2018-10-20T11:13:04Z</time>
      </trkpt>
      <trkpt lat="45.88643" lon="4.80876">
        <ele>171</ele>
        <time>2018-10-20T11:13:05Z</time>
      </trkpt>
      <trkpt lat="45.88647" lon="4.80871">
        <ele>171</ele>
        <time>2018-10-20T11:13:06Z</time>
      </trkpt>
      <trkpt lat="45.88651" lon="4.80868">
        <ele>171</ele>
        <time>2018-10-20T11:13:07Z</time>
      </trkpt>
      <trkpt lat="45.88654" lon="4.80864">
        <ele>171</ele>
        <time>2018-10-20T11:13:08Z</time>
      </trkpt>
      <trkpt lat="45.88659" lon="4.8086">
        <ele>171</ele>
        <time>2018-10-20T11:13:09Z</time>
      </trkpt>
      <trkpt lat="45.88663" lon="4.80855">
        <ele>171</ele>
        <time>2018-10-20T11:13:10Z</time>
      </trkpt>
      <trkpt lat="45.88667" lon="4.8085">
        <ele>170</ele>
        <time>2018-10-20T11:13:11Z</time>
      </trkpt>
      <trkpt lat="45.88672" lon="4.80846">
        <ele>171</ele>
        <time>2018-10-20T11:13:12Z</time>
      </trkpt>
      <trkpt lat="45.88676" lon="4.80841">
        <ele>171</ele>
        <time>2018-10-20T11:13:13Z</time>
      </trkpt>
      <trkpt lat="45.8868" lon="4.80837">
        <ele>170</ele>
        <time>2018-10-20T11:13:14Z</time>
      </trkpt>
      <trkpt lat="45.88685" lon="4.80832">
        <ele>171</ele>
        <time>2018-10-20T11:13:15Z</time>
      </trkpt>
      <trkpt lat="45.88689" lon="4.80827">
        <ele>171</ele>
        <time>2018-10-20T11:13:16Z</time>
      </trkpt>
      <trkpt lat="45.88693" lon="4.80822">
        <ele>171</ele>
        <time>2018-10-20T11:13:17Z</time>
      </trkpt>
      <trkpt lat="45.88698" lon="4.80817">
        <ele>171</ele>
        <time>2018-10-20T11:13:18Z</time>
      </trkpt>
      <trkpt lat="45.88703" lon="4.80812">
        <ele>170</ele>
        <time>2018-10-20T11:13:19Z</time>
      </trkpt>
      <trkpt lat="45.88706" lon="4.80806">
        <ele>170</ele>
        <time>2018-10-20T11:13:20Z</time>
      </trkpt>
      <trkpt lat="45.88711" lon="4.808">
        <ele>170</ele>
        <time>2018-10-20T11:13:21Z</time>
      </trkpt>
      <trkpt lat="45.88716" lon="4.80796">
        <ele>170</ele>
        <time>2018-10-20T11:13:22Z</time>
      </trkpt>
      <trkpt lat="45.88721" lon="4.80788">
        <ele>170</ele>
        <time>2018-10-20T11:13:23Z</time>
      </trkpt>
      <trkpt lat="45.88725" lon="4.80781">
        <ele>170</ele>
        <time>2018-10-20T11:13:24Z</time>
      </trkpt>
      <trkpt lat="45.8873" lon="4.80775">
        <ele>170</ele>
        <time>2018-10-20T11:13:25Z</time>
      </trkpt>
      <trkpt lat="45.88734" lon="4.80771">
        <ele>170</ele>
        <time>2018-10-20T11:13:26Z</time>
      </trkpt>
      <trkpt lat="45.88738" lon="4.80767">
        <ele>170</ele>
        <time>2018-10-20T11:13:27Z</time>
      </trkpt>
      <trkpt lat="45.88742" lon="4.80762">
        <ele>170</ele>
        <time>2018-10-20T11:13:28Z</time>
      </trkpt>
      <trkpt lat="45.88746" lon="4.80757">
        <ele>169</ele>
        <time>2018-10-20T11:13:29Z</time>
      </trkpt>
      <trkpt lat="45.88751" lon="4.80752">
        <ele>169</ele>
        <time>2018-10-20T11:13:30Z</time>
      </trkpt>
      <trkpt lat="45.88754" lon="4.80748">
        <ele>169</ele>
        <time>2018-10-20T11:13:31Z</time>
      </trkpt>
      <trkpt lat="45.88759" lon="4.80742">
        <ele>170</ele>
        <time>2018-10-20T11:13:32Z</time>
      </trkpt>
      <trkpt lat="45.88764" lon="4.80735">
        <ele>171</ele>
        <time>2018-10-20T11:13:33Z</time>
      </trkpt>
      <trkpt lat="45.88768" lon="4.80731">
        <ele>171</ele>
        <time>2018-10-20T11:13:34Z</time>
      </trkpt>
      <trkpt lat="45.88772" lon="4.80727">
        <ele>171</ele>
        <time>2018-10-20T11:13:35Z</time>
      </trkpt>
      <trkpt lat="45.88776" lon="4.80725">
        <ele>171</ele>
        <time>2018-10-20T11:13:36Z</time>
      </trkpt>
      <trkpt lat="45.8878" lon="4.8072">
        <ele>171</ele>
        <time>2018-10-20T11:13:37Z</time>
      </trkpt>
      <trkpt lat="45.88785" lon="4.80716">
        <ele>172</ele>
        <time>2018-10-20T11:13:38Z</time>
      </trkpt>
      <trkpt lat="45.88789" lon="4.80711">
        <ele>172</ele>
        <time>2018-10-20T11:13:39Z</time>
      </trkpt>
      <trkpt lat="45.88793" lon="4.80706">
        <ele>172</ele>
        <time>2018-10-20T11:13:40Z</time>
      </trkpt>
      <trkpt lat="45.88798" lon="4.80693">
        <ele>172</ele>
        <time>2018-10-20T11:13:41Z</time>
      </trkpt>
      <trkpt lat="45.88799" lon="4.80692">
        <ele>172</ele>
        <time>2018-10-20T11:13:42Z</time>
      </trkpt>
      <trkpt lat="45.88805" lon="4.80685">
        <ele>172</ele>
        <time>2018-10-20T11:13:43Z</time>
      </trkpt>
      <trkpt lat="45.88813" lon="4.8068">
        <ele>172</ele>
        <time>2018-10-20T11:13:45Z</time>
      </trkpt>
      <trkpt lat="45.88818" lon="4.80675">
        <ele>172</ele>
        <time>2018-10-20T11:13:46Z</time>
      </trkpt>
      <trkpt lat="45.88822" lon="4.80672">
        <ele>173</ele>
        <time>2018-10-20T11:13:47Z</time>
      </trkpt>
      <trkpt lat="45.88826" lon="4.80668">
        <ele>173</ele>
        <time>2018-10-20T11:13:48Z</time>
      </trkpt>
      <trkpt lat="45.88831" lon="4.80664">
        <ele>173</ele>
        <time>2018-10-20T11:13:49Z</time>
      </trkpt>
      <trkpt lat="45.88836" lon="4.80658">
        <ele>173</ele>
        <time>2018-10-20T11:13:50Z</time>
      </trkpt>
      <trkpt lat="45.88844" lon="4.80652">
        <ele>173</ele>
        <time>2018-10-20T11:13:52Z</time>
      </trkpt>
      <trkpt lat="45.88849" lon="4.80647">
        <ele>173</ele>
        <time>2018-10-20T11:13:53Z</time>
      </trkpt>
      <trkpt lat="45.88853" lon="4.80642">
        <ele>173</ele>
        <time>2018-10-20T11:13:54Z</time>
      </trkpt>
      <trkpt lat="45.88857" lon="4.80638">
        <ele>173</ele>
        <time>2018-10-20T11:13:55Z</time>
      </trkpt>
      <trkpt lat="45.88863" lon="4.80633">
        <ele>172</ele>
        <time>2018-10-20T11:13:56Z</time>
      </trkpt>
      <trkpt lat="45.88867" lon="4.80629">
        <ele>172</ele>
        <time>2018-10-20T11:13:57Z</time>
      </trkpt>
      <trkpt lat="45.88872" lon="4.80625">
        <ele>172</ele>
        <time>2018-10-20T11:13:58Z</time>
      </trkpt>
      <trkpt lat="45.88876" lon="4.80622">
        <ele>172</ele>
        <time>2018-10-20T11:13:59Z</time>
      </trkpt>
      <trkpt lat="45.88881" lon="4.80618">
        <ele>172</ele>
        <time>2018-10-20T11:14:00Z</time>
      </trkpt>
      <trkpt lat="45.88885" lon="4.80615">
        <ele>172</ele>
        <time>2018-10-20T11:14:01Z</time>
      </trkpt>
      <trkpt lat="45.88891" lon="4.80612">
        <ele>172</ele>
        <time>2018-10-20T11:14:02Z</time>
      </trkpt>
      <trkpt lat="45.88895" lon="4.8061">
        <ele>172</ele>
        <time>2018-10-20T11:14:03Z</time>
      </trkpt>
      <trkpt lat="45.889" lon="4.80607">
        <ele>172</ele>
        <time>2018-10-20T11:14:04Z</time>
      </trkpt>
      <trkpt lat="45.88904" lon="4.80605">
        <ele>172</ele>
        <time>2018-10-20T11:14:05Z</time>
      </trkpt>
      <trkpt lat="45.88908" lon="4.80603">
        <ele>172</ele>
        <time>2018-10-20T11:14:06Z</time>
      </trkpt>
      <trkpt lat="45.88914" lon="4.80599">
        <ele>172</ele>
        <time>2018-10-20T11:14:07Z</time>
      </trkpt>
      <trkpt lat="45.88919" lon="4.80596">
        <ele>170</ele>
        <time>2018-10-20T11:14:08Z</time>
      </trkpt>
      <trkpt lat="45.88923" lon="4.80591">
        <ele>171</ele>
        <time>2018-10-20T11:14:09Z</time>
      </trkpt>
      <trkpt lat="45.88928" lon="4.80588">
        <ele>170</ele>
        <time>2018-10-20T11:14:10Z</time>
      </trkpt>
      <trkpt lat="45.88933" lon="4.80585">
        <ele>170</ele>
        <time>2018-10-20T11:14:11Z</time>
      </trkpt>
      <trkpt lat="45.88938" lon="4.80581">
        <ele>172</ele>
        <time>2018-10-20T11:14:12Z</time>
      </trkpt>
      <trkpt lat="45.88943" lon="4.80577">
        <ele>172</ele>
        <time>2018-10-20T11:14:13Z</time>
      </trkpt>
      <trkpt lat="45.88947" lon="4.80576">
        <ele>172</ele>
        <time>2018-10-20T11:14:14Z</time>
      </trkpt>
      <trkpt lat="45.88953" lon="4.80574">
        <ele>172</ele>
        <time>2018-10-20T11:14:15Z</time>
      </trkpt>
      <trkpt lat="45.88958" lon="4.80572">
        <ele>172</ele>
        <time>2018-10-20T11:14:16Z</time>
      </trkpt>
      <trkpt lat="45.88963" lon="4.8057">
        <ele>172</ele>
        <time>2018-10-20T11:14:17Z</time>
      </trkpt>
      <trkpt lat="45.88968" lon="4.8057">
        <ele>172</ele>
        <time>2018-10-20T11:14:18Z</time>
      </trkpt>
      <trkpt lat="45.88974" lon="4.80568">
        <ele>172</ele>
        <time>2018-10-20T11:14:19Z</time>
      </trkpt>
      <trkpt lat="45.88979" lon="4.80567">
        <ele>172</ele>
        <time>2018-10-20T11:14:20Z</time>
      </trkpt>
      <trkpt lat="45.88985" lon="4.80564">
        <ele>172</ele>
        <time>2018-10-20T11:14:21Z</time>
      </trkpt>
      <trkpt lat="45.8899" lon="4.80561">
        <ele>172</ele>
        <time>2018-10-20T11:14:22Z</time>
      </trkpt>
      <trkpt lat="45.88995" lon="4.8056">
        <ele>172</ele>
        <time>2018-10-20T11:14:23Z</time>
      </trkpt>
      <trkpt lat="45.89" lon="4.80559">
        <ele>172</ele>
        <time>2018-10-20T11:14:24Z</time>
      </trkpt>
      <trkpt lat="45.89006" lon="4.80556">
        <ele>172</ele>
        <time>2018-10-20T11:14:25Z</time>
      </trkpt>
      <trkpt lat="45.89011" lon="4.80555">
        <ele>172</ele>
        <time>2018-10-20T11:14:26Z</time>
      </trkpt>
      <trkpt lat="45.89016" lon="4.80555">
        <ele>172</ele>
        <time>2018-10-20T11:14:27Z</time>
      </trkpt>
      <trkpt lat="45.8902" lon="4.80553">
        <ele>173</ele>
        <time>2018-10-20T11:14:28Z</time>
      </trkpt>
      <trkpt lat="45.89026" lon="4.80552">
        <ele>173</ele>
        <time>2018-10-20T11:14:29Z</time>
      </trkpt>
      <trkpt lat="45.89032" lon="4.80551">
        <ele>173</ele>
        <time>2018-10-20T11:14:30Z</time>
      </trkpt>
      <trkpt lat="45.89037" lon="4.8055">
        <ele>173</ele>
        <time>2018-10-20T11:14:31Z</time>
      </trkpt>
      <trkpt lat="45.89043" lon="4.80549">
        <ele>173</ele>
        <time>2018-10-20T11:14:32Z</time>
      </trkpt>
      <trkpt lat="45.89048" lon="4.80549">
        <ele>173</ele>
        <time>2018-10-20T11:14:33Z</time>
      </trkpt>
      <trkpt lat="45.89054" lon="4.80547">
        <ele>173</ele>
        <time>2018-10-20T11:14:34Z</time>
      </trkpt>
      <trkpt lat="45.89059" lon="4.80546">
        <ele>173</ele>
        <time>2018-10-20T11:14:35Z</time>
      </trkpt>
      <trkpt lat="45.89063" lon="4.80545">
        <ele>173</ele>
        <time>2018-10-20T11:14:36Z</time>
      </trkpt>
      <trkpt lat="45.89068" lon="4.80543">
        <ele>173</ele>
        <time>2018-10-20T11:14:37Z</time>
      </trkpt>
      <trkpt lat="45.89074" lon="4.8054">
        <ele>173</ele>
        <time>2018-10-20T11:14:38Z</time>
      </trkpt>
      <trkpt lat="45.89079" lon="4.80537">
        <ele>173</ele>
        <time>2018-10-20T11:14:39Z</time>
      </trkpt>
      <trkpt lat="45.89084" lon="4.80536">
        <ele>173</ele>
        <time>2018-10-20T11:14:40Z</time>
      </trkpt>
      <trkpt lat="45.8909" lon="4.80533">
        <ele>173</ele>
        <time>2018-10-20T11:14:41Z</time>
      </trkpt>
      <trkpt lat="45.89095" lon="4.80531">
        <ele>173</ele>
        <time>2018-10-20T11:14:42Z</time>
      </trkpt>
      <trkpt lat="45.89101" lon="4.80528">
        <ele>173</ele>
        <time>2018-10-20T11:14:43Z</time>
      </trkpt>
      <trkpt lat="45.89106" lon="4.80527">
        <ele>173</ele>
        <time>2018-10-20T11:14:44Z</time>
      </trkpt>
      <trkpt lat="45.89112" lon="4.80526">
        <ele>173</ele>
        <time>2018-10-20T11:14:45Z</time>
      </trkpt>
      <trkpt lat="45.89117" lon="4.80525">
        <ele>173</ele>
        <time>2018-10-20T11:14:46Z</time>
      </trkpt>
      <trkpt lat="45.89121" lon="4.80522">
        <ele>173</ele>
        <time>2018-10-20T11:14:47Z</time>
      </trkpt>
      <trkpt lat="45.89126" lon="4.8052">
        <ele>173</ele>
        <time>2018-10-20T11:14:48Z</time>
      </trkpt>
      <trkpt lat="45.89131" lon="4.80518">
        <ele>173</ele>
        <time>2018-10-20T11:14:49Z</time>
      </trkpt>
      <trkpt lat="45.89137" lon="4.80513">
        <ele>173</ele>
        <time>2018-10-20T11:14:50Z</time>
      </trkpt>
      <trkpt lat="45.89142" lon="4.8051">
        <ele>173</ele>
        <time>2018-10-20T11:14:51Z</time>
      </trkpt>
      <trkpt lat="45.89148" lon="4.80506">
        <ele>173</ele>
        <time>2018-10-20T11:14:52Z</time>
      </trkpt>
      <trkpt lat="45.89153" lon="4.80504">
        <ele>173</ele>
        <time>2018-10-20T11:14:53Z</time>
      </trkpt>
      <trkpt lat="45.89158" lon="4.80501">
        <ele>173</ele>
        <time>2018-10-20T11:14:54Z</time>
      </trkpt>
      <trkpt lat="45.89162" lon="4.80495">
        <ele>174</ele>
        <time>2018-10-20T11:14:55Z</time>
      </trkpt>
      <trkpt lat="45.89167" lon="4.80491">
        <ele>173</ele>
        <time>2018-10-20T11:14:56Z</time>
      </trkpt>
      <trkpt lat="45.89174" lon="4.80483">
        <ele>173</ele>
        <time>2018-10-20T11:14:57Z</time>
      </trkpt>
      <trkpt lat="45.89179" lon="4.80479">
        <ele>174</ele>
        <time>2018-10-20T11:14:58Z</time>
      </trkpt>
      <trkpt lat="45.89184" lon="4.80474">
        <ele>174</ele>
        <time>2018-10-20T11:14:59Z</time>
      </trkpt>
      <trkpt lat="45.89189" lon="4.80469">
        <ele>174</ele>
        <time>2018-10-20T11:15:00Z</time>
      </trkpt>
      <trkpt lat="45.89194" lon="4.80464">
        <ele>174</ele>
        <time>2018-10-20T11:15:01Z</time>
      </trkpt>
      <trkpt lat="45.89199" lon="4.80459">
        <ele>174</ele>
        <time>2018-10-20T11:15:02Z</time>
      </trkpt>
      <trkpt lat="45.89204" lon="4.80456">
        <ele>174</ele>
        <time>2018-10-20T11:15:03Z</time>
      </trkpt>
      <trkpt lat="45.89209" lon="4.80451">
        <ele>174</ele>
        <time>2018-10-20T11:15:04Z</time>
      </trkpt>
      <trkpt lat="45.89214" lon="4.80445">
        <ele>174</ele>
        <time>2018-10-20T11:15:05Z</time>
      </trkpt>
      <trkpt lat="45.89219" lon="4.80446">
        <ele>174</ele>
        <time>2018-10-20T11:15:06Z</time>
      </trkpt>
      <trkpt lat="45.89224" lon="4.8044">
        <ele>173</ele>
        <time>2018-10-20T11:15:07Z</time>
      </trkpt>
      <trkpt lat="45.89229" lon="4.80437">
        <ele>173</ele>
        <time>2018-10-20T11:15:08Z</time>
      </trkpt>
      <trkpt lat="45.89232" lon="4.80433">
        <ele>173</ele>
        <time>2018-10-20T11:15:09Z</time>
      </trkpt>
      <trkpt lat="45.89239" lon="4.8043">
        <ele>173</ele>
        <time>2018-10-20T11:15:10Z</time>
      </trkpt>
      <trkpt lat="45.89244" lon="4.80426">
        <ele>173</ele>
        <time>2018-10-20T11:15:11Z</time>
      </trkpt>
      <trkpt lat="45.89248" lon="4.80422">
        <ele>173</ele>
        <time>2018-10-20T11:15:12Z</time>
      </trkpt>
      <trkpt lat="45.89253" lon="4.80418">
        <ele>173</ele>
        <time>2018-10-20T11:15:13Z</time>
      </trkpt>
      <trkpt lat="45.89258" lon="4.80415">
        <ele>173</ele>
        <time>2018-10-20T11:15:14Z</time>
      </trkpt>
      <trkpt lat="45.89263" lon="4.8041">
        <ele>173</ele>
        <time>2018-10-20T11:15:15Z</time>
      </trkpt>
      <trkpt lat="45.89268" lon="4.80407">
        <ele>174</ele>
        <time>2018-10-20T11:15:16Z</time>
      </trkpt>
      <trkpt lat="45.89272" lon="4.80403">
        <ele>174</ele>
        <time>2018-10-20T11:15:17Z</time>
      </trkpt>
      <trkpt lat="45.89277" lon="4.80397">
        <ele>174</ele>
        <time>2018-10-20T11:15:18Z</time>
      </trkpt>
      <trkpt lat="45.89283" lon="4.80391">
        <ele>174</ele>
        <time>2018-10-20T11:15:19Z</time>
      </trkpt>
      <trkpt lat="45.89287" lon="4.80386">
        <ele>174</ele>
        <time>2018-10-20T11:15:20Z</time>
      </trkpt>
      <trkpt lat="45.89292" lon="4.8038">
        <ele>174</ele>
        <time>2018-10-20T11:15:21Z</time>
      </trkpt>
      <trkpt lat="45.89296" lon="4.80376">
        <ele>174</ele>
        <time>2018-10-20T11:15:22Z</time>
      </trkpt>
      <trkpt lat="45.893" lon="4.80374">
        <ele>174</ele>
        <time>2018-10-20T11:15:23Z</time>
      </trkpt>
      <trkpt lat="45.89304" lon="4.80368">
        <ele>174</ele>
        <time>2018-10-20T11:15:24Z</time>
      </trkpt>
      <trkpt lat="45.89309" lon="4.80365">
        <ele>174</ele>
        <time>2018-10-20T11:15:25Z</time>
      </trkpt>
      <trkpt lat="45.89313" lon="4.8036">
        <ele>174</ele>
        <time>2018-10-20T11:15:26Z</time>
      </trkpt>
      <trkpt lat="45.89318" lon="4.80357">
        <ele>174</ele>
        <time>2018-10-20T11:15:27Z</time>
      </trkpt>
      <trkpt lat="45.89323" lon="4.80352">
        <ele>174</ele>
        <time>2018-10-20T11:15:28Z</time>
      </trkpt>
      <trkpt lat="45.89327" lon="4.80347">
        <ele>175</ele>
        <time>2018-10-20T11:15:29Z</time>
      </trkpt>
      <trkpt lat="45.89333" lon="4.80342">
        <ele>175</ele>
        <time>2018-10-20T11:15:30Z</time>
      </trkpt>
      <trkpt lat="45.89338" lon="4.80338">
        <ele>174</ele>
        <time>2018-10-20T11:15:31Z</time>
      </trkpt>
      <trkpt lat="45.89343" lon="4.80333">
        <ele>175</ele>
        <time>2018-10-20T11:15:32Z</time>
      </trkpt>
      <trkpt lat="45.89349" lon="4.80327">
        <ele>176</ele>
        <time>2018-10-20T11:15:33Z</time>
      </trkpt>
      <trkpt lat="45.89354" lon="4.80322">
        <ele>176</ele>
        <time>2018-10-20T11:15:34Z</time>
      </trkpt>
      <trkpt lat="45.89357" lon="4.80317">
        <ele>176</ele>
        <time>2018-10-20T11:15:35Z</time>
      </trkpt>
      <trkpt lat="45.89363" lon="4.80314">
        <ele>176</ele>
        <time>2018-10-20T11:15:36Z</time>
      </trkpt>
      <trkpt lat="45.89367" lon="4.80311">
        <ele>176</ele>
        <time>2018-10-20T11:15:37Z</time>
      </trkpt>
      <trkpt lat="45.89372" lon="4.80308">
        <ele>176</ele>
        <time>2018-10-20T11:15:38Z</time>
      </trkpt>
      <trkpt lat="45.89375" lon="4.80305">
        <ele>176</ele>
        <time>2018-10-20T11:15:39Z</time>
      </trkpt>
      <trkpt lat="45.89381" lon="4.80299">
        <ele>176</ele>
        <time>2018-10-20T11:15:40Z</time>
      </trkpt>
      <trkpt lat="45.89386" lon="4.80296">
        <ele>176</ele>
        <time>2018-10-20T11:15:41Z</time>
      </trkpt>
      <trkpt lat="45.89392" lon="4.80292">
        <ele>176</ele>
        <time>2018-10-20T11:15:42Z</time>
      </trkpt>
      <trkpt lat="45.89397" lon="4.80288">
        <ele>176</ele>
        <time>2018-10-20T11:15:43Z</time>
      </trkpt>
      <trkpt lat="45.89403" lon="4.80285">
        <ele>177</ele>
        <time>2018-10-20T11:15:44Z</time>
      </trkpt>
      <trkpt lat="45.89408" lon="4.80282">
        <ele>177</ele>
        <time>2018-10-20T11:15:45Z</time>
      </trkpt>
      <trkpt lat="45.89413" lon="4.80279">
        <ele>177</ele>
        <time>2018-10-20T11:15:46Z</time>
      </trkpt>
      <trkpt lat="45.89419" lon="4.80277">
        <ele>175</ele>
        <time>2018-10-20T11:15:47Z</time>
      </trkpt>
      <trkpt lat="45.89425" lon="4.80274">
        <ele>175</ele>
        <time>2018-10-20T11:15:48Z</time>
      </trkpt>
      <trkpt lat="45.8943" lon="4.80272">
        <ele>175</ele>
        <time>2018-10-20T11:15:49Z</time>
      </trkpt>
      <trkpt lat="45.89435" lon="4.8027">
        <ele>175</ele>
        <time>2018-10-20T11:15:50Z</time>
      </trkpt>
      <trkpt lat="45.89441" lon="4.80267">
        <ele>175</ele>
        <time>2018-10-20T11:15:51Z</time>
      </trkpt>
      <trkpt lat="45.89447" lon="4.80262">
        <ele>175</ele>
        <time>2018-10-20T11:15:52Z</time>
      </trkpt>
      <trkpt lat="45.89452" lon="4.80262">
        <ele>174</ele>
        <time>2018-10-20T11:15:53Z</time>
      </trkpt>
      <trkpt lat="45.89458" lon="4.80259">
        <ele>174</ele>
        <time>2018-10-20T11:15:54Z</time>
      </trkpt>
      <trkpt lat="45.89463" lon="4.80256">
        <ele>174</ele>
        <time>2018-10-20T11:15:55Z</time>
      </trkpt>
      <trkpt lat="45.89469" lon="4.80255">
        <ele>174</ele>
        <time>2018-10-20T11:15:56Z</time>
      </trkpt>
      <trkpt lat="45.89475" lon="4.80253">
        <ele>173</ele>
        <time>2018-10-20T11:15:57Z</time>
      </trkpt>
      <trkpt lat="45.8948" lon="4.8025">
        <ele>175</ele>
        <time>2018-10-20T11:15:58Z</time>
      </trkpt>
      <trkpt lat="45.89484" lon="4.80248">
        <ele>175</ele>
        <time>2018-10-20T11:15:59Z</time>
      </trkpt>
      <trkpt lat="45.89489" lon="4.80244">
        <ele>174</ele>
        <time>2018-10-20T11:16:00Z</time>
      </trkpt>
      <trkpt lat="45.89494" lon="4.80242">
        <ele>174</ele>
        <time>2018-10-20T11:16:01Z</time>
      </trkpt>
      <trkpt lat="45.89499" lon="4.80239">
        <ele>174</ele>
        <time>2018-10-20T11:16:02Z</time>
      </trkpt>
      <trkpt lat="45.89504" lon="4.80236">
        <ele>173</ele>
        <time>2018-10-20T11:16:03Z</time>
      </trkpt>
      <trkpt lat="45.89509" lon="4.80234">
        <ele>173</ele>
        <time>2018-10-20T11:16:04Z</time>
      </trkpt>
      <trkpt lat="45.89513" lon="4.80232">
        <ele>173</ele>
        <time>2018-10-20T11:16:05Z</time>
      </trkpt>
      <trkpt lat="45.89517" lon="4.8023">
        <ele>173</ele>
        <time>2018-10-20T11:16:06Z</time>
      </trkpt>
      <trkpt lat="45.89522" lon="4.80226">
        <ele>173</ele>
        <time>2018-10-20T11:16:07Z</time>
      </trkpt>
      <trkpt lat="45.89527" lon="4.80226">
        <ele>173</ele>
        <time>2018-10-20T11:16:08Z</time>
      </trkpt>
      <trkpt lat="45.89533" lon="4.80222">
        <ele>173</ele>
        <time>2018-10-20T11:16:09Z</time>
      </trkpt>
      <trkpt lat="45.89537" lon="4.8022">
        <ele>173</ele>
        <time>2018-10-20T11:16:10Z</time>
      </trkpt>
      <trkpt lat="45.89543" lon="4.80218">
        <ele>173</ele>
        <time>2018-10-20T11:16:11Z</time>
      </trkpt>
      <trkpt lat="45.89549" lon="4.80216">
        <ele>173</ele>
        <time>2018-10-20T11:16:12Z</time>
      </trkpt>
      <trkpt lat="45.89554" lon="4.80215">
        <ele>173</ele>
        <time>2018-10-20T11:16:13Z</time>
      </trkpt>
      <trkpt lat="45.89559" lon="4.80213">
        <ele>173</ele>
        <time>2018-10-20T11:16:14Z</time>
      </trkpt>
      <trkpt lat="45.89564" lon="4.8021">
        <ele>173</ele>
        <time>2018-10-20T11:16:15Z</time>
      </trkpt>
      <trkpt lat="45.8957" lon="4.80208">
        <ele>173</ele>
        <time>2018-10-20T11:16:16Z</time>
      </trkpt>
      <trkpt lat="45.89575" lon="4.80205">
        <ele>173</ele>
        <time>2018-10-20T11:16:17Z</time>
      </trkpt>
      <trkpt lat="45.8958" lon="4.80203">
        <ele>173</ele>
        <time>2018-10-20T11:16:18Z</time>
      </trkpt>
      <trkpt lat="45.89585" lon="4.80201">
        <ele>172</ele>
        <time>2018-10-20T11:16:19Z</time>
      </trkpt>
      <trkpt lat="45.89591" lon="4.80197">
        <ele>172</ele>
        <time>2018-10-20T11:16:20Z</time>
      </trkpt>
      <trkpt lat="45.89596" lon="4.80194">
        <ele>172</ele>
        <time>2018-10-20T11:16:21Z</time>
      </trkpt>
      <trkpt lat="45.89601" lon="4.80192">
        <ele>172</ele>
        <time>2018-10-20T11:16:22Z</time>
      </trkpt>
      <trkpt lat="45.89606" lon="4.80191">
        <ele>172</ele>
        <time>2018-10-20T11:16:23Z</time>
      </trkpt>
      <trkpt lat="45.8961" lon="4.80189">
        <ele>172</ele>
        <time>2018-10-20T11:16:24Z</time>
      </trkpt>
      <trkpt lat="45.89616" lon="4.80187">
        <ele>172</ele>
        <time>2018-10-20T11:16:25Z</time>
      </trkpt>
      <trkpt lat="45.89624" lon="4.80183">
        <ele>172</ele>
        <time>2018-10-20T11:16:27Z</time>
      </trkpt>
      <trkpt lat="45.89629" lon="4.8018">
        <ele>172</ele>
        <time>2018-10-20T11:16:28Z</time>
      </trkpt>
      <trkpt lat="45.89636" lon="4.80178">
        <ele>172</ele>
        <time>2018-10-20T11:16:29Z</time>
      </trkpt>
      <trkpt lat="45.89642" lon="4.80173">
        <ele>172</ele>
        <time>2018-10-20T11:16:30Z</time>
      </trkpt>
      <trkpt lat="45.89646" lon="4.80172">
        <ele>172</ele>
        <time>2018-10-20T11:16:31Z</time>
      </trkpt>
      <trkpt lat="45.89652" lon="4.80171">
        <ele>172</ele>
        <time>2018-10-20T11:16:32Z</time>
      </trkpt>
      <trkpt lat="45.89658" lon="4.80167">
        <ele>173</ele>
        <time>2018-10-20T11:16:33Z</time>
      </trkpt>
      <trkpt lat="45.89663" lon="4.80165">
        <ele>173</ele>
        <time>2018-10-20T11:16:34Z</time>
      </trkpt>
      <trkpt lat="45.89668" lon="4.80163">
        <ele>173</ele>
        <time>2018-10-20T11:16:35Z</time>
      </trkpt>
      <trkpt lat="45.89673" lon="4.80158">
        <ele>172</ele>
        <time>2018-10-20T11:16:36Z</time>
      </trkpt>
      <trkpt lat="45.89679" lon="4.80156">
        <ele>172</ele>
        <time>2018-10-20T11:16:37Z</time>
      </trkpt>
      <trkpt lat="45.89684" lon="4.80155">
        <ele>172</ele>
        <time>2018-10-20T11:16:38Z</time>
      </trkpt>
      <trkpt lat="45.89688" lon="4.80155">
        <ele>172</ele>
        <time>2018-10-20T11:16:39Z</time>
      </trkpt>
      <trkpt lat="45.89694" lon="4.80155">
        <ele>172</ele>
        <time>2018-10-20T11:16:40Z</time>
      </trkpt>
      <trkpt lat="45.897" lon="4.80152">
        <ele>171</ele>
        <time>2018-10-20T11:16:41Z</time>
      </trkpt>
      <trkpt lat="45.89706" lon="4.80149">
        <ele>171</ele>
        <time>2018-10-20T11:16:42Z</time>
      </trkpt>
      <trkpt lat="45.8971" lon="4.80147">
        <ele>171</ele>
        <time>2018-10-20T11:16:43Z</time>
      </trkpt>
      <trkpt lat="45.89715" lon="4.80146">
        <ele>171</ele>
        <time>2018-10-20T11:16:44Z</time>
      </trkpt>
      <trkpt lat="45.89722" lon="4.80143">
        <ele>171</ele>
        <time>2018-10-20T11:16:45Z</time>
      </trkpt>
      <trkpt lat="45.89726" lon="4.80146">
        <ele>171</ele>
        <time>2018-10-20T11:16:46Z</time>
      </trkpt>
      <trkpt lat="45.89732" lon="4.80143">
        <ele>171</ele>
        <time>2018-10-20T11:16:47Z</time>
      </trkpt>
      <trkpt lat="45.89738" lon="4.80139">
        <ele>171</ele>
        <time>2018-10-20T11:16:48Z</time>
      </trkpt>
      <trkpt lat="45.89745" lon="4.80133">
        <ele>171</ele>
        <time>2018-10-20T11:16:49Z</time>
      </trkpt>
      <trkpt lat="45.89751" lon="4.80131">
        <ele>169</ele>
        <time>2018-10-20T11:16:50Z</time>
      </trkpt>
      <trkpt lat="45.89756" lon="4.8013">
        <ele>169</ele>
        <time>2018-10-20T11:16:51Z</time>
      </trkpt>
      <trkpt lat="45.89761" lon="4.80129">
        <ele>169</ele>
        <time>2018-10-20T11:16:52Z</time>
      </trkpt>
      <trkpt lat="45.89766" lon="4.80125">
        <ele>169</ele>
        <time>2018-10-20T11:16:53Z</time>
      </trkpt>
      <trkpt lat="45.89771" lon="4.80123">
        <ele>169</ele>
        <time>2018-10-20T11:16:54Z</time>
      </trkpt>
      <trkpt lat="45.89776" lon="4.80122">
        <ele>169</ele>
        <time>2018-10-20T11:16:55Z</time>
      </trkpt>
      <trkpt lat="45.8978" lon="4.8012">
        <ele>169</ele>
        <time>2018-10-20T11:16:56Z</time>
      </trkpt>
      <trkpt lat="45.89786" lon="4.80118">
        <ele>169</ele>
        <time>2018-10-20T11:16:57Z</time>
      </trkpt>
      <trkpt lat="45.89789" lon="4.80117">
        <ele>169</ele>
        <time>2018-10-20T11:16:58Z</time>
      </trkpt>
      <trkpt lat="45.89794" lon="4.80114">
        <ele>169</ele>
        <time>2018-10-20T11:16:59Z</time>
      </trkpt>
      <trkpt lat="45.89799" lon="4.80111">
        <ele>169</ele>
        <time>2018-10-20T11:17:00Z</time>
      </trkpt>
      <trkpt lat="45.89803" lon="4.80108">
        <ele>169</ele>
        <time>2018-10-20T11:17:01Z</time>
      </trkpt>
      <trkpt lat="45.89809" lon="4.80105">
        <ele>169</ele>
        <time>2018-10-20T11:17:02Z</time>
      </trkpt>
      <trkpt lat="45.89814" lon="4.80103">
        <ele>169</ele>
        <time>2018-10-20T11:17:03Z</time>
      </trkpt>
      <trkpt lat="45.89819" lon="4.801">
        <ele>169</ele>
        <time>2018-10-20T11:17:04Z</time>
      </trkpt>
      <trkpt lat="45.89824" lon="4.80099">
        <ele>170</ele>
        <time>2018-10-20T11:17:05Z</time>
      </trkpt>
      <trkpt lat="45.89829" lon="4.80096">
        <ele>170</ele>
        <time>2018-10-20T11:17:06Z</time>
      </trkpt>
      <trkpt lat="45.89835" lon="4.80095">
        <ele>170</ele>
        <time>2018-10-20T11:17:07Z</time>
      </trkpt>
      <trkpt lat="45.8984" lon="4.80092">
        <ele>170</ele>
        <time>2018-10-20T11:17:08Z</time>
      </trkpt>
      <trkpt lat="45.89845" lon="4.80089">
        <ele>170</ele>
        <time>2018-10-20T11:17:09Z</time>
      </trkpt>
      <trkpt lat="45.89851" lon="4.80088">
        <ele>170</ele>
        <time>2018-10-20T11:17:10Z</time>
      </trkpt>
      <trkpt lat="45.89856" lon="4.80086">
        <ele>170</ele>
        <time>2018-10-20T11:17:11Z</time>
      </trkpt>
      <trkpt lat="45.89862" lon="4.80082">
        <ele>170</ele>
        <time>2018-10-20T11:17:12Z</time>
      </trkpt>
      <trkpt lat="45.8987" lon="4.80082">
        <ele>170</ele>
        <time>2018-10-20T11:17:14Z</time>
      </trkpt>
      <trkpt lat="45.89875" lon="4.8008">
        <ele>170</ele>
        <time>2018-10-20T11:17:15Z</time>
      </trkpt>
      <trkpt lat="45.89879" lon="4.80078">
        <ele>170</ele>
        <time>2018-10-20T11:17:16Z</time>
      </trkpt>
      <trkpt lat="45.89885" lon="4.80077">
        <ele>170</ele>
        <time>2018-10-20T11:17:17Z</time>
      </trkpt>
      <trkpt lat="45.8989" lon="4.80074">
        <ele>170</ele>
        <time>2018-10-20T11:17:18Z</time>
      </trkpt>
      <trkpt lat="45.89896" lon="4.80071">
        <ele>170</ele>
        <time>2018-10-20T11:17:19Z</time>
      </trkpt>
      <trkpt lat="45.89902" lon="4.80069">
        <ele>170</ele>
        <time>2018-10-20T11:17:20Z</time>
      </trkpt>
      <trkpt lat="45.89906" lon="4.80067">
        <ele>170</ele>
        <time>2018-10-20T11:17:21Z</time>
      </trkpt>
      <trkpt lat="45.89911" lon="4.80065">
        <ele>170</ele>
        <time>2018-10-20T11:17:22Z</time>
      </trkpt>
      <trkpt lat="45.89916" lon="4.80063">
        <ele>170</ele>
        <time>2018-10-20T11:17:23Z</time>
      </trkpt>
      <trkpt lat="45.89921" lon="4.80059">
        <ele>170</ele>
        <time>2018-10-20T11:17:24Z</time>
      </trkpt>
      <trkpt lat="45.89926" lon="4.80059">
        <ele>170</ele>
        <time>2018-10-20T11:17:25Z</time>
      </trkpt>
      <trkpt lat="45.89931" lon="4.80056">
        <ele>170</ele>
        <time>2018-10-20T11:17:26Z</time>
      </trkpt>
      <trkpt lat="45.89936" lon="4.80051">
        <ele>170</ele>
        <time>2018-10-20T11:17:27Z</time>
      </trkpt>
      <trkpt lat="45.8994" lon="4.8005">
        <ele>170</ele>
        <time>2018-10-20T11:17:28Z</time>
      </trkpt>
      <trkpt lat="45.89946" lon="4.80049">
        <ele>170</ele>
        <time>2018-10-20T11:17:29Z</time>
      </trkpt>
      <trkpt lat="45.89951" lon="4.80046">
        <ele>170</ele>
        <time>2018-10-20T11:17:30Z</time>
      </trkpt>
      <trkpt lat="45.89956" lon="4.80045">
        <ele>170</ele>
        <time>2018-10-20T11:17:31Z</time>
      </trkpt>
      <trkpt lat="45.89961" lon="4.80043">
        <ele>170</ele>
        <time>2018-10-20T11:17:32Z</time>
      </trkpt>
      <trkpt lat="45.89967" lon="4.8004">
        <ele>170</ele>
        <time>2018-10-20T11:17:33Z</time>
      </trkpt>
      <trkpt lat="45.89973" lon="4.80037">
        <ele>170</ele>
        <time>2018-10-20T11:17:34Z</time>
      </trkpt>
      <trkpt lat="45.89979" lon="4.80035">
        <ele>170</ele>
        <time>2018-10-20T11:17:35Z</time>
      </trkpt>
      <trkpt lat="45.89983" lon="4.80034">
        <ele>170</ele>
        <time>2018-10-20T11:17:36Z</time>
      </trkpt>
      <trkpt lat="45.89989" lon="4.80032">
        <ele>170</ele>
        <time>2018-10-20T11:17:37Z</time>
      </trkpt>
      <trkpt lat="45.89993" lon="4.8003">
        <ele>170</ele>
        <time>2018-10-20T11:17:38Z</time>
      </trkpt>
      <trkpt lat="45.89998" lon="4.80028">
        <ele>171</ele>
        <time>2018-10-20T11:17:39Z</time>
      </trkpt>
      <trkpt lat="45.90003" lon="4.80027">
        <ele>170</ele>
        <time>2018-10-20T11:17:40Z</time>
      </trkpt>
      <trkpt lat="45.90008" lon="4.80025">
        <ele>170</ele>
        <time>2018-10-20T11:17:41Z</time>
      </trkpt>
      <trkpt lat="45.90013" lon="4.80023">
        <ele>170</ele>
        <time>2018-10-20T11:17:42Z</time>
      </trkpt>
      <trkpt lat="45.90018" lon="4.80021">
        <ele>170</ele>
        <time>2018-10-20T11:17:43Z</time>
      </trkpt>
      <trkpt lat="45.90023" lon="4.80019">
        <ele>170</ele>
        <time>2018-10-20T11:17:44Z</time>
      </trkpt>
      <trkpt lat="45.90028" lon="4.80017">
        <ele>170</ele>
        <time>2018-10-20T11:17:45Z</time>
      </trkpt>
      <trkpt lat="45.90033" lon="4.80017">
        <ele>170</ele>
        <time>2018-10-20T11:17:46Z</time>
      </trkpt>
      <trkpt lat="45.90038" lon="4.80014">
        <ele>170</ele>
        <time>2018-10-20T11:17:47Z</time>
      </trkpt>
      <trkpt lat="45.90043" lon="4.80011">
        <ele>170</ele>
        <time>2018-10-20T11:17:48Z</time>
      </trkpt>
      <trkpt lat="45.90048" lon="4.80009">
        <ele>170</ele>
        <time>2018-10-20T11:17:49Z</time>
      </trkpt>
      <trkpt lat="45.90053" lon="4.80007">
        <ele>170</ele>
        <time>2018-10-20T11:17:50Z</time>
      </trkpt>
      <trkpt lat="45.90058" lon="4.80004">
        <ele>170</ele>
        <time>2018-10-20T11:17:51Z</time>
      </trkpt>
      <trkpt lat="45.90063" lon="4.80003">
        <ele>170</ele>
        <time>2018-10-20T11:17:52Z</time>
      </trkpt>
      <trkpt lat="45.90069" lon="4.8">
        <ele>170</ele>
        <time>2018-10-20T11:17:53Z</time>
      </trkpt>
      <trkpt lat="45.90073" lon="4.79999">
        <ele>173</ele>
        <time>2018-10-20T11:17:54Z</time>
      </trkpt>
      <trkpt lat="45.90078" lon="4.79997">
        <ele>172</ele>
        <time>2018-10-20T11:17:55Z</time>
      </trkpt>
      <trkpt lat="45.90082" lon="4.79995">
        <ele>172</ele>
        <time>2018-10-20T11:17:56Z</time>
      </trkpt>
      <trkpt lat="45.90087" lon="4.79991">
        <ele>172</ele>
        <time>2018-10-20T11:17:57Z</time>
      </trkpt>
      <trkpt lat="45.90093" lon="4.7999">
        <ele>173</ele>
        <time>2018-10-20T11:17:58Z</time>
      </trkpt>
      <trkpt lat="45.90098" lon="4.79987">
        <ele>173</ele>
        <time>2018-10-20T11:17:59Z</time>
      </trkpt>
      <trkpt lat="45.90104" lon="4.79985">
        <ele>174</ele>
        <time>2018-10-20T11:18:00Z</time>
      </trkpt>
      <trkpt lat="45.90109" lon="4.79982">
        <ele>174</ele>
        <time>2018-10-20T11:18:01Z</time>
      </trkpt>
      <trkpt lat="45.90114" lon="4.79981">
        <ele>174</ele>
        <time>2018-10-20T11:18:02Z</time>
      </trkpt>
      <trkpt lat="45.90119" lon="4.79979">
        <ele>174</ele>
        <time>2018-10-20T11:18:03Z</time>
      </trkpt>
      <trkpt lat="45.90124" lon="4.79977">
        <ele>174</ele>
        <time>2018-10-20T11:18:04Z</time>
      </trkpt>
      <trkpt lat="45.90128" lon="4.79974">
        <ele>174</ele>
        <time>2018-10-20T11:18:05Z</time>
      </trkpt>
      <trkpt lat="45.90134" lon="4.79972">
        <ele>174</ele>
        <time>2018-10-20T11:18:06Z</time>
      </trkpt>
      <trkpt lat="45.90139" lon="4.7997">
        <ele>174</ele>
        <time>2018-10-20T11:18:07Z</time>
      </trkpt>
      <trkpt lat="45.90144" lon="4.79967">
        <ele>174</ele>
        <time>2018-10-20T11:18:08Z</time>
      </trkpt>
      <trkpt lat="45.90148" lon="4.79966">
        <ele>174</ele>
        <time>2018-10-20T11:18:09Z</time>
      </trkpt>
      <trkpt lat="45.90153" lon="4.79964">
        <ele>174</ele>
        <time>2018-10-20T11:18:10Z</time>
      </trkpt>
      <trkpt lat="45.90159" lon="4.79961">
        <ele>174</ele>
        <time>2018-10-20T11:18:11Z</time>
      </trkpt>
      <trkpt lat="45.90164" lon="4.79959">
        <ele>174</ele>
        <time>2018-10-20T11:18:12Z</time>
      </trkpt>
      <trkpt lat="45.90169" lon="4.79957">
        <ele>173</ele>
        <time>2018-10-20T11:18:13Z</time>
      </trkpt>
      <trkpt lat="45.90175" lon="4.79954">
        <ele>173</ele>
        <time>2018-10-20T11:18:14Z</time>
      </trkpt>
      <trkpt lat="45.9018" lon="4.79951">
        <ele>173</ele>
        <time>2018-10-20T11:18:15Z</time>
      </trkpt>
      <trkpt lat="45.90185" lon="4.79948">
        <ele>173</ele>
        <time>2018-10-20T11:18:16Z</time>
      </trkpt>
      <trkpt lat="45.90189" lon="4.79946">
        <ele>173</ele>
        <time>2018-10-20T11:18:17Z</time>
      </trkpt>
      <trkpt lat="45.90194" lon="4.79943">
        <ele>173</ele>
        <time>2018-10-20T11:18:18Z</time>
      </trkpt>
      <trkpt lat="45.90199" lon="4.79941">
        <ele>173</ele>
        <time>2018-10-20T11:18:19Z</time>
      </trkpt>
      <trkpt lat="45.90204" lon="4.79938">
        <ele>173</ele>
        <time>2018-10-20T11:18:20Z</time>
      </trkpt>
      <trkpt lat="45.90209" lon="4.79935">
        <ele>173</ele>
        <time>2018-10-20T11:18:21Z</time>
      </trkpt>
      <trkpt lat="45.90214" lon="4.79931">
        <ele>172</ele>
        <time>2018-10-20T11:18:22Z</time>
      </trkpt>
      <trkpt lat="45.90219" lon="4.79928">
        <ele>172</ele>
        <time>2018-10-20T11:18:23Z</time>
      </trkpt>
      <trkpt lat="45.90224" lon="4.79924">
        <ele>172</ele>
        <time>2018-10-20T11:18:24Z</time>
      </trkpt>
      <trkpt lat="45.9023" lon="4.79921">
        <ele>172</ele>
        <time>2018-10-20T11:18:25Z</time>
      </trkpt>
      <trkpt lat="45.90235" lon="4.79917">
        <ele>172</ele>
        <time>2018-10-20T11:18:26Z</time>
      </trkpt>
      <trkpt lat="45.9024" lon="4.79912">
        <ele>174</ele>
        <time>2018-10-20T11:18:27Z</time>
      </trkpt>
      <trkpt lat="45.90244" lon="4.79909">
        <ele>174</ele>
        <time>2018-10-20T11:18:28Z</time>
      </trkpt>
      <trkpt lat="45.90249" lon="4.79906">
        <ele>174</ele>
        <time>2018-10-20T11:18:29Z</time>
      </trkpt>
      <trkpt lat="45.90253" lon="4.79902">
        <ele>172</ele>
        <time>2018-10-20T11:18:30Z</time>
      </trkpt>
      <trkpt lat="45.90258" lon="4.79898">
        <ele>172</ele>
        <time>2018-10-20T11:18:31Z</time>
      </trkpt>
      <trkpt lat="45.90263" lon="4.79894">
        <ele>173</ele>
        <time>2018-10-20T11:18:32Z</time>
      </trkpt>
      <trkpt lat="45.90268" lon="4.7989">
        <ele>173</ele>
        <time>2018-10-20T11:18:33Z</time>
      </trkpt>
      <trkpt lat="45.90272" lon="4.79885">
        <ele>173</ele>
        <time>2018-10-20T11:18:34Z</time>
      </trkpt>
      <trkpt lat="45.90276" lon="4.79881">
        <ele>173</ele>
        <time>2018-10-20T11:18:35Z</time>
      </trkpt>
      <trkpt lat="45.90281" lon="4.79877">
        <ele>173</ele>
        <time>2018-10-20T11:18:36Z</time>
      </trkpt>
      <trkpt lat="45.90285" lon="4.79873">
        <ele>173</ele>
        <time>2018-10-20T11:18:37Z</time>
      </trkpt>
      <trkpt lat="45.90289" lon="4.79869">
        <ele>173</ele>
        <time>2018-10-20T11:18:38Z</time>
      </trkpt>
      <trkpt lat="45.90292" lon="4.79865">
        <ele>173</ele>
        <time>2018-10-20T11:18:39Z</time>
      </trkpt>
      <trkpt lat="45.90297" lon="4.7986">
        <ele>172</ele>
        <time>2018-10-20T11:18:40Z</time>
      </trkpt>
      <trkpt lat="45.90301" lon="4.79855">
        <ele>172</ele>
        <time>2018-10-20T11:18:41Z</time>
      </trkpt>
      <trkpt lat="45.90306" lon="4.7985">
        <ele>172</ele>
        <time>2018-10-20T11:18:42Z</time>
      </trkpt>
      <trkpt lat="45.9031" lon="4.79845">
        <ele>172</ele>
        <time>2018-10-20T11:18:43Z</time>
      </trkpt>
      <trkpt lat="45.90314" lon="4.7984">
        <ele>172</ele>
        <time>2018-10-20T11:18:44Z</time>
      </trkpt>
      <trkpt lat="45.90318" lon="4.79836">
        <ele>171</ele>
        <time>2018-10-20T11:18:45Z</time>
      </trkpt>
      <trkpt lat="45.90322" lon="4.7983">
        <ele>173</ele>
        <time>2018-10-20T11:18:46Z</time>
      </trkpt>
      <trkpt lat="45.90327" lon="4.79825">
        <ele>173</ele>
        <time>2018-10-20T11:18:47Z</time>
      </trkpt>
      <trkpt lat="45.90331" lon="4.79821">
        <ele>173</ele>
        <time>2018-10-20T11:18:48Z</time>
      </trkpt>
      <trkpt lat="45.90335" lon="4.79815">
        <ele>171</ele>
        <time>2018-10-20T11:18:49Z</time>
      </trkpt>
      <trkpt lat="45.90339" lon="4.7981">
        <ele>172</ele>
        <time>2018-10-20T11:18:50Z</time>
      </trkpt>
      <trkpt lat="45.90343" lon="4.79805">
        <ele>172</ele>
        <time>2018-10-20T11:18:51Z</time>
      </trkpt>
      <trkpt lat="45.90347" lon="4.79799">
        <ele>172</ele>
        <time>2018-10-20T11:18:52Z</time>
      </trkpt>
      <trkpt lat="45.90351" lon="4.79794">
        <ele>173</ele>
        <time>2018-10-20T11:18:53Z</time>
      </trkpt>
      <trkpt lat="45.90355" lon="4.7979">
        <ele>173</ele>
        <time>2018-10-20T11:18:54Z</time>
      </trkpt>
      <trkpt lat="45.90359" lon="4.79785">
        <ele>173</ele>
        <time>2018-10-20T11:18:55Z</time>
      </trkpt>
      <trkpt lat="45.90363" lon="4.79779">
        <ele>173</ele>
        <time>2018-10-20T11:18:56Z</time>
      </trkpt>
      <trkpt lat="45.90367" lon="4.79773">
        <ele>173</ele>
        <time>2018-10-20T11:18:57Z</time>
      </trkpt>
      <trkpt lat="45.9037" lon="4.79769">
        <ele>173</ele>
        <time>2018-10-20T11:18:58Z</time>
      </trkpt>
      <trkpt lat="45.90375" lon="4.79763">
        <ele>173</ele>
        <time>2018-10-20T11:18:59Z</time>
      </trkpt>
      <trkpt lat="45.90378" lon="4.79757">
        <ele>173</ele>
        <time>2018-10-20T11:19:00Z</time>
      </trkpt>
      <trkpt lat="45.90381" lon="4.79753">
        <ele>173</ele>
        <time>2018-10-20T11:19:01Z</time>
      </trkpt>
      <trkpt lat="45.90386" lon="4.79748">
        <ele>176</ele>
        <time>2018-10-20T11:19:02Z</time>
      </trkpt>
      <trkpt lat="45.9039" lon="4.79741">
        <ele>175</ele>
        <time>2018-10-20T11:19:03Z</time>
      </trkpt>
      <trkpt lat="45.90393" lon="4.79736">
        <ele>175</ele>
        <time>2018-10-20T11:19:04Z</time>
      </trkpt>
      <trkpt lat="45.90397" lon="4.7973">
        <ele>175</ele>
        <time>2018-10-20T11:19:05Z</time>
      </trkpt>
      <trkpt lat="45.90401" lon="4.79725">
        <ele>175</ele>
        <time>2018-10-20T11:19:06Z</time>
      </trkpt>
      <trkpt lat="45.90404" lon="4.79721">
        <ele>176</ele>
        <time>2018-10-20T11:19:07Z</time>
      </trkpt>
      <trkpt lat="45.90409" lon="4.79716">
        <ele>176</ele>
        <time>2018-10-20T11:19:08Z</time>
      </trkpt>
      <trkpt lat="45.90412" lon="4.79711">
        <ele>176</ele>
        <time>2018-10-20T11:19:09Z</time>
      </trkpt>
      <trkpt lat="45.90417" lon="4.79706">
        <ele>173</ele>
        <time>2018-10-20T11:19:10Z</time>
      </trkpt>
      <trkpt lat="45.90421" lon="4.79701">
        <ele>173</ele>
        <time>2018-10-20T11:19:11Z</time>
      </trkpt>
      <trkpt lat="45.90424" lon="4.79696">
        <ele>173</ele>
        <time>2018-10-20T11:19:12Z</time>
      </trkpt>
      <trkpt lat="45.90428" lon="4.79692">
        <ele>173</ele>
        <time>2018-10-20T11:19:13Z</time>
      </trkpt>
      <trkpt lat="45.90433" lon="4.79688">
        <ele>174</ele>
        <time>2018-10-20T11:19:14Z</time>
      </trkpt>
      <trkpt lat="45.90437" lon="4.79682">
        <ele>174</ele>
        <time>2018-10-20T11:19:15Z</time>
      </trkpt>
      <trkpt lat="45.90441" lon="4.79678">
        <ele>174</ele>
        <time>2018-10-20T11:19:16Z</time>
      </trkpt>
      <trkpt lat="45.90445" lon="4.79673">
        <ele>173</ele>
        <time>2018-10-20T11:19:17Z</time>
      </trkpt>
      <trkpt lat="45.90449" lon="4.79669">
        <ele>173</ele>
        <time>2018-10-20T11:19:18Z</time>
      </trkpt>
      <trkpt lat="45.90453" lon="4.79664">
        <ele>176</ele>
        <time>2018-10-20T11:19:19Z</time>
      </trkpt>
      <trkpt lat="45.90456" lon="4.7966">
        <ele>176</ele>
        <time>2018-10-20T11:19:20Z</time>
      </trkpt>
      <trkpt lat="45.9046" lon="4.79656">
        <ele>176</ele>
        <time>2018-10-20T11:19:21Z</time>
      </trkpt>
      <trkpt lat="45.90465" lon="4.7965">
        <ele>176</ele>
        <time>2018-10-20T11:19:22Z</time>
      </trkpt>
      <trkpt lat="45.9047" lon="4.79645">
        <ele>176</ele>
        <time>2018-10-20T11:19:23Z</time>
      </trkpt>
      <trkpt lat="45.90473" lon="4.79641">
        <ele>176</ele>
        <time>2018-10-20T11:19:24Z</time>
      </trkpt>
      <trkpt lat="45.90477" lon="4.79637">
        <ele>176</ele>
        <time>2018-10-20T11:19:25Z</time>
      </trkpt>
      <trkpt lat="45.90481" lon="4.79633">
        <ele>176</ele>
        <time>2018-10-20T11:19:26Z</time>
      </trkpt>
      <trkpt lat="45.90485" lon="4.7963">
        <ele>176</ele>
        <time>2018-10-20T11:19:27Z</time>
      </trkpt>
      <trkpt lat="45.9049" lon="4.79624">
        <ele>176</ele>
        <time>2018-10-20T11:19:28Z</time>
      </trkpt>
      <trkpt lat="45.90494" lon="4.79619">
        <ele>176</ele>
        <time>2018-10-20T11:19:29Z</time>
      </trkpt>
      <trkpt lat="45.90498" lon="4.79616">
        <ele>176</ele>
        <time>2018-10-20T11:19:30Z</time>
      </trkpt>
      <trkpt lat="45.90502" lon="4.79612">
        <ele>174</ele>
        <time>2018-10-20T11:19:31Z</time>
      </trkpt>
      <trkpt lat="45.90506" lon="4.79607">
        <ele>174</ele>
        <time>2018-10-20T11:19:32Z</time>
      </trkpt>
      <trkpt lat="45.90511" lon="4.79603">
        <ele>174</ele>
        <time>2018-10-20T11:19:33Z</time>
      </trkpt>
      <trkpt lat="45.90514" lon="4.79596">
        <ele>175</ele>
        <time>2018-10-20T11:19:34Z</time>
      </trkpt>
      <trkpt lat="45.90519" lon="4.79592">
        <ele>174</ele>
        <time>2018-10-20T11:19:35Z</time>
      </trkpt>
      <trkpt lat="45.90523" lon="4.79588">
        <ele>174</ele>
        <time>2018-10-20T11:19:36Z</time>
      </trkpt>
      <trkpt lat="45.90527" lon="4.79585">
        <ele>174</ele>
        <time>2018-10-20T11:19:37Z</time>
      </trkpt>
      <trkpt lat="45.90531" lon="4.79582">
        <ele>176</ele>
        <time>2018-10-20T11:19:38Z</time>
      </trkpt>
      <trkpt lat="45.90536" lon="4.7958">
        <ele>176</ele>
        <time>2018-10-20T11:19:39Z</time>
      </trkpt>
      <trkpt lat="45.9054" lon="4.79577">
        <ele>176</ele>
        <time>2018-10-20T11:19:40Z</time>
      </trkpt>
      <trkpt lat="45.90545" lon="4.79573">
        <ele>176</ele>
        <time>2018-10-20T11:19:41Z</time>
      </trkpt>
      <trkpt lat="45.90549" lon="4.7957">
        <ele>176</ele>
        <time>2018-10-20T11:19:42Z</time>
      </trkpt>
      <trkpt lat="45.90553" lon="4.79566">
        <ele>176</ele>
        <time>2018-10-20T11:19:43Z</time>
      </trkpt>
      <trkpt lat="45.90558" lon="4.79563">
        <ele>176</ele>
        <time>2018-10-20T11:19:44Z</time>
      </trkpt>
      <trkpt lat="45.90562" lon="4.79561">
        <ele>176</ele>
        <time>2018-10-20T11:19:45Z</time>
      </trkpt>
      <trkpt lat="45.90566" lon="4.79559">
        <ele>176</ele>
        <time>2018-10-20T11:19:46Z</time>
      </trkpt>
      <trkpt lat="45.9057" lon="4.79555">
        <ele>176</ele>
        <time>2018-10-20T11:19:47Z</time>
      </trkpt>
      <trkpt lat="45.90575" lon="4.79552">
        <ele>176</ele>
        <time>2018-10-20T11:19:48Z</time>
      </trkpt>
      <trkpt lat="45.9058" lon="4.79548">
        <ele>176</ele>
        <time>2018-10-20T11:19:49Z</time>
      </trkpt>
      <trkpt lat="45.90585" lon="4.79544">
        <ele>174</ele>
        <time>2018-10-20T11:19:50Z</time>
      </trkpt>
      <trkpt lat="45.90589" lon="4.7954">
        <ele>174</ele>
        <time>2018-10-20T11:19:51Z</time>
      </trkpt>
      <trkpt lat="45.90594" lon="4.79537">
        <ele>174</ele>
        <time>2018-10-20T11:19:52Z</time>
      </trkpt>
      <trkpt lat="45.90598" lon="4.79534">
        <ele>174</ele>
        <time>2018-10-20T11:19:53Z</time>
      </trkpt>
      <trkpt lat="45.90603" lon="4.79532">
        <ele>174</ele>
        <time>2018-10-20T11:19:54Z</time>
      </trkpt>
      <trkpt lat="45.90608" lon="4.79528">
        <ele>174</ele>
        <time>2018-10-20T11:19:55Z</time>
      </trkpt>
      <trkpt lat="45.90612" lon="4.79525">
        <ele>174</ele>
        <time>2018-10-20T11:19:56Z</time>
      </trkpt>
      <trkpt lat="45.90617" lon="4.79522">
        <ele>174</ele>
        <time>2018-10-20T11:19:57Z</time>
      </trkpt>
      <trkpt lat="45.90622" lon="4.79519">
        <ele>174</ele>
        <time>2018-10-20T11:19:58Z</time>
      </trkpt>
      <trkpt lat="45.90627" lon="4.79516">
        <ele>174</ele>
        <time>2018-10-20T11:19:59Z</time>
      </trkpt>
      <trkpt lat="45.90633" lon="4.79513">
        <ele>174</ele>
        <time>2018-10-20T11:20:00Z</time>
      </trkpt>
      <trkpt lat="45.90639" lon="4.7951">
        <ele>174</ele>
        <time>2018-10-20T11:20:01Z</time>
      </trkpt>
      <trkpt lat="45.90643" lon="4.79508">
        <ele>174</ele>
        <time>2018-10-20T11:20:02Z</time>
      </trkpt>
      <trkpt lat="45.90648" lon="4.79505">
        <ele>173</ele>
        <time>2018-10-20T11:20:03Z</time>
      </trkpt>
      <trkpt lat="45.90654" lon="4.79502">
        <ele>173</ele>
        <time>2018-10-20T11:20:04Z</time>
      </trkpt>
      <trkpt lat="45.90659" lon="4.79499">
        <ele>174</ele>
        <time>2018-10-20T11:20:05Z</time>
      </trkpt>
      <trkpt lat="45.90663" lon="4.79496">
        <ele>174</ele>
        <time>2018-10-20T11:20:06Z</time>
      </trkpt>
      <trkpt lat="45.90668" lon="4.79493">
        <ele>173</ele>
        <time>2018-10-20T11:20:07Z</time>
      </trkpt>
      <trkpt lat="45.90674" lon="4.7949">
        <ele>174</ele>
        <time>2018-10-20T11:20:08Z</time>
      </trkpt>
      <trkpt lat="45.90678" lon="4.79487">
        <ele>174</ele>
        <time>2018-10-20T11:20:09Z</time>
      </trkpt>
      <trkpt lat="45.90683" lon="4.79485">
        <ele>174</ele>
        <time>2018-10-20T11:20:10Z</time>
      </trkpt>
      <trkpt lat="45.90688" lon="4.79481">
        <ele>174</ele>
        <time>2018-10-20T11:20:11Z</time>
      </trkpt>
      <trkpt lat="45.90693" lon="4.79478">
        <ele>174</ele>
        <time>2018-10-20T11:20:12Z</time>
      </trkpt>
      <trkpt lat="45.90698" lon="4.79475">
        <ele>174</ele>
        <time>2018-10-20T11:20:13Z</time>
      </trkpt>
      <trkpt lat="45.90704" lon="4.79471">
        <ele>174</ele>
        <time>2018-10-20T11:20:14Z</time>
      </trkpt>
      <trkpt lat="45.90708" lon="4.79468">
        <ele>174</ele>
        <time>2018-10-20T11:20:15Z</time>
      </trkpt>
      <trkpt lat="45.90712" lon="4.79466">
        <ele>174</ele>
        <time>2018-10-20T11:20:16Z</time>
      </trkpt>
      <trkpt lat="45.90717" lon="4.79463">
        <ele>174</ele>
        <time>2018-10-20T11:20:17Z</time>
      </trkpt>
      <trkpt lat="45.90722" lon="4.7946">
        <ele>174</ele>
        <time>2018-10-20T11:20:18Z</time>
      </trkpt>
      <trkpt lat="45.90727" lon="4.79457">
        <ele>174</ele>
        <time>2018-10-20T11:20:19Z</time>
      </trkpt>
      <trkpt lat="45.90732" lon="4.79454">
        <ele>174</ele>
        <time>2018-10-20T11:20:20Z</time>
      </trkpt>
      <trkpt lat="45.90737" lon="4.79452">
        <ele>174</ele>
        <time>2018-10-20T11:20:21Z</time>
      </trkpt>
      <trkpt lat="45.90742" lon="4.7945">
        <ele>174</ele>
        <time>2018-10-20T11:20:22Z</time>
      </trkpt>
      <trkpt lat="45.90746" lon="4.79447">
        <ele>174</ele>
        <time>2018-10-20T11:20:23Z</time>
      </trkpt>
      <trkpt lat="45.9075" lon="4.79444">
        <ele>174</ele>
        <time>2018-10-20T11:20:24Z</time>
      </trkpt>
      <trkpt lat="45.90755" lon="4.79442">
        <ele>174</ele>
        <time>2018-10-20T11:20:25Z</time>
      </trkpt>
      <trkpt lat="45.90759" lon="4.79439">
        <ele>174</ele>
        <time>2018-10-20T11:20:26Z</time>
      </trkpt>
      <trkpt lat="45.90764" lon="4.79436">
        <ele>174</ele>
        <time>2018-10-20T11:20:27Z</time>
      </trkpt>
      <trkpt lat="45.90769" lon="4.79433">
        <ele>174</ele>
        <time>2018-10-20T11:20:28Z</time>
      </trkpt>
      <trkpt lat="45.90773" lon="4.79428">
        <ele>174</ele>
        <time>2018-10-20T11:20:29Z</time>
      </trkpt>
      <trkpt lat="45.90778" lon="4.79425">
        <ele>174</ele>
        <time>2018-10-20T11:20:30Z</time>
      </trkpt>
      <trkpt lat="45.90782" lon="4.79422">
        <ele>174</ele>
        <time>2018-10-20T11:20:31Z</time>
      </trkpt>
      <trkpt lat="45.9079" lon="4.79417">
        <ele>174</ele>
        <time>2018-10-20T11:20:33Z</time>
      </trkpt>
      <trkpt lat="45.90794" lon="4.79415">
        <ele>175</ele>
        <time>2018-10-20T11:20:34Z</time>
      </trkpt>
      <trkpt lat="45.90798" lon="4.79413">
        <ele>175</ele>
        <time>2018-10-20T11:20:35Z</time>
      </trkpt>
      <trkpt lat="45.90802" lon="4.79409">
        <ele>175</ele>
        <time>2018-10-20T11:20:36Z</time>
      </trkpt>
      <trkpt lat="45.90809" lon="4.79403">
        <ele>175</ele>
        <time>2018-10-20T11:20:38Z</time>
      </trkpt>
      <trkpt lat="45.90812" lon="4.79399">
        <ele>175</ele>
        <time>2018-10-20T11:20:39Z</time>
      </trkpt>
      <trkpt lat="45.9082" lon="4.79393">
        <ele>175</ele>
        <time>2018-10-20T11:20:41Z</time>
      </trkpt>
      <trkpt lat="45.90824" lon="4.79387">
        <ele>175</ele>
        <time>2018-10-20T11:20:42Z</time>
      </trkpt>
      <trkpt lat="45.90825" lon="4.79386">
        <ele>175</ele>
        <time>2018-10-20T11:20:43Z</time>
      </trkpt>
      <trkpt lat="45.90831" lon="4.79379">
        <ele>175</ele>
        <time>2018-10-20T11:20:44Z</time>
      </trkpt>
      <trkpt lat="45.90835" lon="4.79374">
        <ele>175</ele>
        <time>2018-10-20T11:20:45Z</time>
      </trkpt>
      <trkpt lat="45.90838" lon="4.7937">
        <ele>175</ele>
        <time>2018-10-20T11:20:46Z</time>
      </trkpt>
      <trkpt lat="45.90841" lon="4.79365">
        <ele>175</ele>
        <time>2018-10-20T11:20:47Z</time>
      </trkpt>
      <trkpt lat="45.90845" lon="4.79361">
        <ele>175</ele>
        <time>2018-10-20T11:20:48Z</time>
      </trkpt>
      <trkpt lat="45.90848" lon="4.79357">
        <ele>175</ele>
        <time>2018-10-20T11:20:49Z</time>
      </trkpt>
      <trkpt lat="45.90853" lon="4.79352">
        <ele>175</ele>
        <time>2018-10-20T11:20:50Z</time>
      </trkpt>
      <trkpt lat="45.90857" lon="4.79347">
        <ele>175</ele>
        <time>2018-10-20T11:20:51Z</time>
      </trkpt>
      <trkpt lat="45.9086" lon="4.79343">
        <ele>175</ele>
        <time>2018-10-20T11:20:52Z</time>
      </trkpt>
      <trkpt lat="45.90864" lon="4.79337">
        <ele>175</ele>
        <time>2018-10-20T11:20:53Z</time>
      </trkpt>
      <trkpt lat="45.90867" lon="4.79333">
        <ele>176</ele>
        <time>2018-10-20T11:20:54Z</time>
      </trkpt>
      <trkpt lat="45.9087" lon="4.79328">
        <ele>176</ele>
        <time>2018-10-20T11:20:55Z</time>
      </trkpt>
      <trkpt lat="45.90873" lon="4.79323">
        <ele>176</ele>
        <time>2018-10-20T11:20:56Z</time>
      </trkpt>
      <trkpt lat="45.90877" lon="4.79319">
        <ele>176</ele>
        <time>2018-10-20T11:20:57Z</time>
      </trkpt>
      <trkpt lat="45.9088" lon="4.79314">
        <ele>176</ele>
        <time>2018-10-20T11:20:58Z</time>
      </trkpt>
      <trkpt lat="45.90883" lon="4.79308">
        <ele>176</ele>
        <time>2018-10-20T11:20:59Z</time>
      </trkpt>
      <trkpt lat="45.90886" lon="4.79303">
        <ele>176</ele>
        <time>2018-10-20T11:21:00Z</time>
      </trkpt>
      <trkpt lat="45.90892" lon="4.79295">
        <ele>176</ele>
        <time>2018-10-20T11:21:01Z</time>
      </trkpt>
      <trkpt lat="45.90896" lon="4.7929">
        <ele>176</ele>
        <time>2018-10-20T11:21:02Z</time>
      </trkpt>
      <trkpt lat="45.90902" lon="4.7928">
        <ele>176</ele>
        <time>2018-10-20T11:21:04Z</time>
      </trkpt>
      <trkpt lat="45.90905" lon="4.79275">
        <ele>176</ele>
        <time>2018-10-20T11:21:05Z</time>
      </trkpt>
      <trkpt lat="45.90908" lon="4.79268">
        <ele>176</ele>
        <time>2018-10-20T11:21:06Z</time>
      </trkpt>
      <trkpt lat="45.90912" lon="4.79262">
        <ele>176</ele>
        <time>2018-10-20T11:21:07Z</time>
      </trkpt>
      <trkpt lat="45.90915" lon="4.79256">
        <ele>176</ele>
        <time>2018-10-20T11:21:08Z</time>
      </trkpt>
      <trkpt lat="45.90918" lon="4.7925">
        <ele>176</ele>
        <time>2018-10-20T11:21:09Z</time>
      </trkpt>
      <trkpt lat="45.90921" lon="4.79245">
        <ele>176</ele>
        <time>2018-10-20T11:21:10Z</time>
      </trkpt>
      <trkpt lat="45.90924" lon="4.7924">
        <ele>176</ele>
        <time>2018-10-20T11:21:11Z</time>
      </trkpt>
      <trkpt lat="45.90928" lon="4.79233">
        <ele>176</ele>
        <time>2018-10-20T11:21:12Z</time>
      </trkpt>
      <trkpt lat="45.90931" lon="4.79227">
        <ele>176</ele>
        <time>2018-10-20T11:21:13Z</time>
      </trkpt>
      <trkpt lat="45.90934" lon="4.79221">
        <ele>176</ele>
        <time>2018-10-20T11:21:14Z</time>
      </trkpt>
      <trkpt lat="45.90938" lon="4.79213">
        <ele>176</ele>
        <time>2018-10-20T11:21:15Z</time>
      </trkpt>
      <trkpt lat="45.90941" lon="4.79208">
        <ele>176</ele>
        <time>2018-10-20T11:21:16Z</time>
      </trkpt>
      <trkpt lat="45.90945" lon="4.79201">
        <ele>176</ele>
        <time>2018-10-20T11:21:17Z</time>
      </trkpt>
      <trkpt lat="45.90948" lon="4.79196">
        <ele>176</ele>
        <time>2018-10-20T11:21:18Z</time>
      </trkpt>
      <trkpt lat="45.90951" lon="4.7919">
        <ele>177</ele>
        <time>2018-10-20T11:21:19Z</time>
      </trkpt>
      <trkpt lat="45.90955" lon="4.79182">
        <ele>177</ele>
        <time>2018-10-20T11:21:20Z</time>
      </trkpt>
      <trkpt lat="45.90958" lon="4.79176">
        <ele>177</ele>
        <time>2018-10-20T11:21:21Z</time>
      </trkpt>
      <trkpt lat="45.90961" lon="4.7917">
        <ele>177</ele>
        <time>2018-10-20T11:21:22Z</time>
      </trkpt>
      <trkpt lat="45.90964" lon="4.79164">
        <ele>177</ele>
        <time>2018-10-20T11:21:23Z</time>
      </trkpt>
      <trkpt lat="45.90967" lon="4.79158">
        <ele>177</ele>
        <time>2018-10-20T11:21:24Z</time>
      </trkpt>
      <trkpt lat="45.9097" lon="4.79152">
        <ele>177</ele>
        <time>2018-10-20T11:21:25Z</time>
      </trkpt>
      <trkpt lat="45.90973" lon="4.79145">
        <ele>177</ele>
        <time>2018-10-20T11:21:26Z</time>
      </trkpt>
      <trkpt lat="45.90975" lon="4.7914">
        <ele>177</ele>
        <time>2018-10-20T11:21:27Z</time>
      </trkpt>
      <trkpt lat="45.90979" lon="4.79135">
        <ele>177</ele>
        <time>2018-10-20T11:21:28Z</time>
      </trkpt>
      <trkpt lat="45.90982" lon="4.79129">
        <ele>177</ele>
        <time>2018-10-20T11:21:29Z</time>
      </trkpt>
      <trkpt lat="45.90985" lon="4.79124">
        <ele>177</ele>
        <time>2018-10-20T11:21:30Z</time>
      </trkpt>
      <trkpt lat="45.90988" lon="4.79119">
        <ele>177</ele>
        <time>2018-10-20T11:21:31Z</time>
      </trkpt>
      <trkpt lat="45.90991" lon="4.79113">
        <ele>177</ele>
        <time>2018-10-20T11:21:32Z</time>
      </trkpt>
      <trkpt lat="45.90994" lon="4.79108">
        <ele>177</ele>
        <time>2018-10-20T11:21:33Z</time>
      </trkpt>
      <trkpt lat="45.90997" lon="4.79104">
        <ele>177</ele>
        <time>2018-10-20T11:21:34Z</time>
      </trkpt>
      <trkpt lat="45.91" lon="4.79097">
        <ele>177</ele>
        <time>2018-10-20T11:21:35Z</time>
      </trkpt>
      <trkpt lat="45.91003" lon="4.79092">
        <ele>177</ele>
        <time>2018-10-20T11:21:36Z</time>
      </trkpt>
      <trkpt lat="45.91006" lon="4.79086">
        <ele>177</ele>
        <time>2018-10-20T11:21:37Z</time>
      </trkpt>
      <trkpt lat="45.91011" lon="4.79078">
        <ele>177</ele>
        <time>2018-10-20T11:21:38Z</time>
      </trkpt>
      <trkpt lat="45.91014" lon="4.79071">
        <ele>177</ele>
        <time>2018-10-20T11:21:39Z</time>
      </trkpt>
      <trkpt lat="45.91018" lon="4.79066">
        <ele>176</ele>
        <time>2018-10-20T11:21:40Z</time>
      </trkpt>
      <trkpt lat="45.91021" lon="4.7906">
        <ele>176</ele>
        <time>2018-10-20T11:21:41Z</time>
      </trkpt>
      <trkpt lat="45.91027" lon="4.7905">
        <ele>176</ele>
        <time>2018-10-20T11:21:43Z</time>
      </trkpt>
      <trkpt lat="45.9103" lon="4.79047">
        <ele>176</ele>
        <time>2018-10-20T11:21:44Z</time>
      </trkpt>
      <trkpt lat="45.91033" lon="4.79041">
        <ele>176</ele>
        <time>2018-10-20T11:21:45Z</time>
      </trkpt>
      <trkpt lat="45.91036" lon="4.79036">
        <ele>176</ele>
        <time>2018-10-20T11:21:46Z</time>
      </trkpt>
      <trkpt lat="45.91042" lon="4.79027">
        <ele>176</ele>
        <time>2018-10-20T11:21:48Z</time>
      </trkpt>
      <trkpt lat="45.91044" lon="4.79024">
        <ele>176</ele>
        <time>2018-10-20T11:21:49Z</time>
      </trkpt>
      <trkpt lat="45.91049" lon="4.79014">
        <ele>176</ele>
        <time>2018-10-20T11:21:51Z</time>
      </trkpt>
      <trkpt lat="45.91051" lon="4.79007">
        <ele>177</ele>
        <time>2018-10-20T11:21:52Z</time>
      </trkpt>
      <trkpt lat="45.91054" lon="4.79002">
        <ele>177</ele>
        <time>2018-10-20T11:21:53Z</time>
      </trkpt>
      <trkpt lat="45.91057" lon="4.78997">
        <ele>177</ele>
        <time>2018-10-20T11:21:54Z</time>
      </trkpt>
      <trkpt lat="45.9106" lon="4.78991">
        <ele>177</ele>
        <time>2018-10-20T11:21:55Z</time>
      </trkpt>
      <trkpt lat="45.91064" lon="4.78985">
        <ele>177</ele>
        <time>2018-10-20T11:21:56Z</time>
      </trkpt>
      <trkpt lat="45.91067" lon="4.78979">
        <ele>177</ele>
        <time>2018-10-20T11:21:57Z</time>
      </trkpt>
      <trkpt lat="45.91069" lon="4.78973">
        <ele>177</ele>
        <time>2018-10-20T11:21:58Z</time>
      </trkpt>
      <trkpt lat="45.91074" lon="4.78965">
        <ele>177</ele>
        <time>2018-10-20T11:21:59Z</time>
      </trkpt>
      <trkpt lat="45.91077" lon="4.78957">
        <ele>177</ele>
        <time>2018-10-20T11:22:00Z</time>
      </trkpt>
      <trkpt lat="45.9108" lon="4.7895">
        <ele>177</ele>
        <time>2018-10-20T11:22:01Z</time>
      </trkpt>
      <trkpt lat="45.91083" lon="4.78944">
        <ele>177</ele>
        <time>2018-10-20T11:22:02Z</time>
      </trkpt>
      <trkpt lat="45.91086" lon="4.78937">
        <ele>177</ele>
        <time>2018-10-20T11:22:03Z</time>
      </trkpt>
      <trkpt lat="45.91089" lon="4.78931">
        <ele>177</ele>
        <time>2018-10-20T11:22:04Z</time>
      </trkpt>
      <trkpt lat="45.91093" lon="4.78923">
        <ele>177</ele>
        <time>2018-10-20T11:22:05Z</time>
      </trkpt>
      <trkpt lat="45.91096" lon="4.78916">
        <ele>177</ele>
        <time>2018-10-20T11:22:06Z</time>
      </trkpt>
      <trkpt lat="45.91099" lon="4.78909">
        <ele>177</ele>
        <time>2018-10-20T11:22:07Z</time>
      </trkpt>
      <trkpt lat="45.91103" lon="4.78904">
        <ele>177</ele>
        <time>2018-10-20T11:22:08Z</time>
      </trkpt>
      <trkpt lat="45.91107" lon="4.78899">
        <ele>176</ele>
        <time>2018-10-20T11:22:09Z</time>
      </trkpt>
      <trkpt lat="45.91111" lon="4.78893">
        <ele>176</ele>
        <time>2018-10-20T11:22:10Z</time>
      </trkpt>
      <trkpt lat="45.91114" lon="4.78887">
        <ele>176</ele>
        <time>2018-10-20T11:22:11Z</time>
      </trkpt>
      <trkpt lat="45.91117" lon="4.78882">
        <ele>176</ele>
        <time>2018-10-20T11:22:12Z</time>
      </trkpt>
      <trkpt lat="45.9112" lon="4.78877">
        <ele>176</ele>
        <time>2018-10-20T11:22:13Z</time>
      </trkpt>
      <trkpt lat="45.91124" lon="4.78871">
        <ele>176</ele>
        <time>2018-10-20T11:22:14Z</time>
      </trkpt>
      <trkpt lat="45.91126" lon="4.78866">
        <ele>176</ele>
        <time>2018-10-20T11:22:15Z</time>
      </trkpt>
      <trkpt lat="45.9113" lon="4.78859">
        <ele>176</ele>
        <time>2018-10-20T11:22:16Z</time>
      </trkpt>
      <trkpt lat="45.91133" lon="4.78854">
        <ele>176</ele>
        <time>2018-10-20T11:22:17Z</time>
      </trkpt>
      <trkpt lat="45.91136" lon="4.78848">
        <ele>176</ele>
        <time>2018-10-20T11:22:18Z</time>
      </trkpt>
      <trkpt lat="45.91139" lon="4.78843">
        <ele>176</ele>
        <time>2018-10-20T11:22:19Z</time>
      </trkpt>
      <trkpt lat="45.91142" lon="4.78836">
        <ele>176</ele>
        <time>2018-10-20T11:22:20Z</time>
      </trkpt>
      <trkpt lat="45.91145" lon="4.7883">
        <ele>176</ele>
        <time>2018-10-20T11:22:21Z</time>
      </trkpt>
      <trkpt lat="45.91149" lon="4.78825">
        <ele>176</ele>
        <time>2018-10-20T11:22:22Z</time>
      </trkpt>
      <trkpt lat="45.91152" lon="4.78818">
        <ele>176</ele>
        <time>2018-10-20T11:22:23Z</time>
      </trkpt>
      <trkpt lat="45.91155" lon="4.78812">
        <ele>176</ele>
        <time>2018-10-20T11:22:24Z</time>
      </trkpt>
      <trkpt lat="45.91158" lon="4.78807">
        <ele>176</ele>
        <time>2018-10-20T11:22:25Z</time>
      </trkpt>
      <trkpt lat="45.91162" lon="4.78802">
        <ele>177</ele>
        <time>2018-10-20T11:22:26Z</time>
      </trkpt>
      <trkpt lat="45.91165" lon="4.78796">
        <ele>177</ele>
        <time>2018-10-20T11:22:27Z</time>
      </trkpt>
      <trkpt lat="45.91169" lon="4.78789">
        <ele>177</ele>
        <time>2018-10-20T11:22:28Z</time>
      </trkpt>
      <trkpt lat="45.91172" lon="4.78782">
        <ele>177</ele>
        <time>2018-10-20T11:22:29Z</time>
      </trkpt>
      <trkpt lat="45.91175" lon="4.78777">
        <ele>177</ele>
        <time>2018-10-20T11:22:30Z</time>
      </trkpt>
      <trkpt lat="45.91177" lon="4.7877">
        <ele>177</ele>
        <time>2018-10-20T11:22:31Z</time>
      </trkpt>
      <trkpt lat="45.91181" lon="4.78764">
        <ele>177</ele>
        <time>2018-10-20T11:22:32Z</time>
      </trkpt>
      <trkpt lat="45.91184" lon="4.78759">
        <ele>177</ele>
        <time>2018-10-20T11:22:33Z</time>
      </trkpt>
      <trkpt lat="45.91188" lon="4.78753">
        <ele>177</ele>
        <time>2018-10-20T11:22:34Z</time>
      </trkpt>
      <trkpt lat="45.91191" lon="4.78747">
        <ele>177</ele>
        <time>2018-10-20T11:22:35Z</time>
      </trkpt>
      <trkpt lat="45.91195" lon="4.78741">
        <ele>177</ele>
        <time>2018-10-20T11:22:36Z</time>
      </trkpt>
      <trkpt lat="45.91198" lon="4.78734">
        <ele>177</ele>
        <time>2018-10-20T11:22:37Z</time>
      </trkpt>
      <trkpt lat="45.91201" lon="4.78729">
        <ele>177</ele>
        <time>2018-10-20T11:22:38Z</time>
      </trkpt>
      <trkpt lat="45.91204" lon="4.78723">
        <ele>177</ele>
        <time>2018-10-20T11:22:39Z</time>
      </trkpt>
      <trkpt lat="45.91207" lon="4.78718">
        <ele>177</ele>
        <time>2018-10-20T11:22:40Z</time>
      </trkpt>
      <trkpt lat="45.9121" lon="4.78712">
        <ele>177</ele>
        <time>2018-10-20T11:22:41Z</time>
      </trkpt>
      <trkpt lat="45.91212" lon="4.78706">
        <ele>177</ele>
        <time>2018-10-20T11:22:42Z</time>
      </trkpt>
      <trkpt lat="45.91215" lon="4.787">
        <ele>177</ele>
        <time>2018-10-20T11:22:43Z</time>
      </trkpt>
      <trkpt lat="45.91218" lon="4.78693">
        <ele>177</ele>
        <time>2018-10-20T11:22:44Z</time>
      </trkpt>
      <trkpt lat="45.9122" lon="4.78685">
        <ele>177</ele>
        <time>2018-10-20T11:22:45Z</time>
      </trkpt>
      <trkpt lat="45.91223" lon="4.7868">
        <ele>177</ele>
        <time>2018-10-20T11:22:46Z</time>
      </trkpt>
      <trkpt lat="45.91226" lon="4.78675">
        <ele>177</ele>
        <time>2018-10-20T11:22:47Z</time>
      </trkpt>
      <trkpt lat="45.91229" lon="4.78666">
        <ele>177</ele>
        <time>2018-10-20T11:22:48Z</time>
      </trkpt>
      <trkpt lat="45.91232" lon="4.7866">
        <ele>177</ele>
        <time>2018-10-20T11:22:49Z</time>
      </trkpt>
      <trkpt lat="45.91235" lon="4.78653">
        <ele>177</ele>
        <time>2018-10-20T11:22:50Z</time>
      </trkpt>
      <trkpt lat="45.91238" lon="4.78646">
        <ele>177</ele>
        <time>2018-10-20T11:22:51Z</time>
      </trkpt>
      <trkpt lat="45.9124" lon="4.78641">
        <ele>177</ele>
        <time>2018-10-20T11:22:52Z</time>
      </trkpt>
      <trkpt lat="45.91243" lon="4.78637">
        <ele>177</ele>
        <time>2018-10-20T11:22:53Z</time>
      </trkpt>
      <trkpt lat="45.91246" lon="4.78629">
        <ele>177</ele>
        <time>2018-10-20T11:22:54Z</time>
      </trkpt>
      <trkpt lat="45.91249" lon="4.78623">
        <ele>177</ele>
        <time>2018-10-20T11:22:55Z</time>
      </trkpt>
      <trkpt lat="45.91252" lon="4.78618">
        <ele>176</ele>
        <time>2018-10-20T11:22:56Z</time>
      </trkpt>
      <trkpt lat="45.91254" lon="4.78611">
        <ele>176</ele>
        <time>2018-10-20T11:22:57Z</time>
      </trkpt>
      <trkpt lat="45.91258" lon="4.78605">
        <ele>176</ele>
        <time>2018-10-20T11:22:58Z</time>
      </trkpt>
      <trkpt lat="45.9126" lon="4.786">
        <ele>176</ele>
        <time>2018-10-20T11:22:59Z</time>
      </trkpt>
      <trkpt lat="45.91263" lon="4.78593">
        <ele>176</ele>
        <time>2018-10-20T11:23:00Z</time>
      </trkpt>
      <trkpt lat="45.91266" lon="4.78588">
        <ele>176</ele>
        <time>2018-10-20T11:23:01Z</time>
      </trkpt>
      <trkpt lat="45.91269" lon="4.78582">
        <ele>176</ele>
        <time>2018-10-20T11:23:02Z</time>
      </trkpt>
      <trkpt lat="45.91271" lon="4.78577">
        <ele>176</ele>
        <time>2018-10-20T11:23:03Z</time>
      </trkpt>
      <trkpt lat="45.91275" lon="4.7857">
        <ele>176</ele>
        <time>2018-10-20T11:23:04Z</time>
      </trkpt>
      <trkpt lat="45.91278" lon="4.78564">
        <ele>176</ele>
        <time>2018-10-20T11:23:05Z</time>
      </trkpt>
      <trkpt lat="45.91281" lon="4.78559">
        <ele>176</ele>
        <time>2018-10-20T11:23:06Z</time>
      </trkpt>
      <trkpt lat="45.91284" lon="4.78553">
        <ele>176</ele>
        <time>2018-10-20T11:23:07Z</time>
      </trkpt>
      <trkpt lat="45.91286" lon="4.78547">
        <ele>176</ele>
        <time>2018-10-20T11:23:08Z</time>
      </trkpt>
      <trkpt lat="45.91289" lon="4.78542">
        <ele>176</ele>
        <time>2018-10-20T11:23:09Z</time>
      </trkpt>
      <trkpt lat="45.91293" lon="4.78535">
        <ele>175</ele>
        <time>2018-10-20T11:23:10Z</time>
      </trkpt>
      <trkpt lat="45.91296" lon="4.78529">
        <ele>175</ele>
        <time>2018-10-20T11:23:11Z</time>
      </trkpt>
      <trkpt lat="45.91298" lon="4.78523">
        <ele>175</ele>
        <time>2018-10-20T11:23:12Z</time>
      </trkpt>
      <trkpt lat="45.91301" lon="4.78518">
        <ele>175</ele>
        <time>2018-10-20T11:23:13Z</time>
      </trkpt>
      <trkpt lat="45.91304" lon="4.78512">
        <ele>175</ele>
        <time>2018-10-20T11:23:14Z</time>
      </trkpt>
      <trkpt lat="45.91306" lon="4.78506">
        <ele>175</ele>
        <time>2018-10-20T11:23:15Z</time>
      </trkpt>
      <trkpt lat="45.91309" lon="4.78499">
        <ele>175</ele>
        <time>2018-10-20T11:23:16Z</time>
      </trkpt>
      <trkpt lat="45.91312" lon="4.78493">
        <ele>175</ele>
        <time>2018-10-20T11:23:17Z</time>
      </trkpt>
      <trkpt lat="45.91315" lon="4.78487">
        <ele>175</ele>
        <time>2018-10-20T11:23:18Z</time>
      </trkpt>
      <trkpt lat="45.91317" lon="4.78481">
        <ele>175</ele>
        <time>2018-10-20T11:23:19Z</time>
      </trkpt>
      <trkpt lat="45.9132" lon="4.78475">
        <ele>176</ele>
        <time>2018-10-20T11:23:20Z</time>
      </trkpt>
      <trkpt lat="45.91323" lon="4.78468">
        <ele>176</ele>
        <time>2018-10-20T11:23:21Z</time>
      </trkpt>
      <trkpt lat="45.91326" lon="4.78462">
        <ele>176</ele>
        <time>2018-10-20T11:23:22Z</time>
      </trkpt>
      <trkpt lat="45.9133" lon="4.78456">
        <ele>176</ele>
        <time>2018-10-20T11:23:23Z</time>
      </trkpt>
      <trkpt lat="45.91334" lon="4.78447">
        <ele>176</ele>
        <time>2018-10-20T11:23:24Z</time>
      </trkpt>
      <trkpt lat="45.91337" lon="4.78441">
        <ele>176</ele>
        <time>2018-10-20T11:23:25Z</time>
      </trkpt>
      <trkpt lat="45.9134" lon="4.78434">
        <ele>176</ele>
        <time>2018-10-20T11:23:26Z</time>
      </trkpt>
      <trkpt lat="45.91343" lon="4.78427">
        <ele>176</ele>
        <time>2018-10-20T11:23:27Z</time>
      </trkpt>
      <trkpt lat="45.91346" lon="4.78421">
        <ele>176</ele>
        <time>2018-10-20T11:23:28Z</time>
      </trkpt>
      <trkpt lat="45.9135" lon="4.78415">
        <ele>176</ele>
        <time>2018-10-20T11:23:29Z</time>
      </trkpt>
      <trkpt lat="45.91353" lon="4.78408">
        <ele>176</ele>
        <time>2018-10-20T11:23:30Z</time>
      </trkpt>
      <trkpt lat="45.91357" lon="4.78402">
        <ele>176</ele>
        <time>2018-10-20T11:23:31Z</time>
      </trkpt>
      <trkpt lat="45.9136" lon="4.78395">
        <ele>176</ele>
        <time>2018-10-20T11:23:32Z</time>
      </trkpt>
      <trkpt lat="45.91364" lon="4.78388">
        <ele>176</ele>
        <time>2018-10-20T11:23:33Z</time>
      </trkpt>
      <trkpt lat="45.91366" lon="4.78383">
        <ele>176</ele>
        <time>2018-10-20T11:23:34Z</time>
      </trkpt>
      <trkpt lat="45.91368" lon="4.78375">
        <ele>177</ele>
        <time>2018-10-20T11:23:35Z</time>
      </trkpt>
      <trkpt lat="45.91372" lon="4.78368">
        <ele>177</ele>
        <time>2018-10-20T11:23:36Z</time>
      </trkpt>
      <trkpt lat="45.91375" lon="4.78362">
        <ele>177</ele>
        <time>2018-10-20T11:23:37Z</time>
      </trkpt>
      <trkpt lat="45.91377" lon="4.78356">
        <ele>177</ele>
        <time>2018-10-20T11:23:38Z</time>
      </trkpt>
      <trkpt lat="45.9138" lon="4.78349">
        <ele>177</ele>
        <time>2018-10-20T11:23:39Z</time>
      </trkpt>
      <trkpt lat="45.91383" lon="4.78342">
        <ele>177</ele>
        <time>2018-10-20T11:23:40Z</time>
      </trkpt>
      <trkpt lat="45.91387" lon="4.78336">
        <ele>177</ele>
        <time>2018-10-20T11:23:41Z</time>
      </trkpt>
      <trkpt lat="45.9139" lon="4.78328">
        <ele>177</ele>
        <time>2018-10-20T11:23:42Z</time>
      </trkpt>
      <trkpt lat="45.91394" lon="4.78323">
        <ele>177</ele>
        <time>2018-10-20T11:23:43Z</time>
      </trkpt>
      <trkpt lat="45.91396" lon="4.78317">
        <ele>177</ele>
        <time>2018-10-20T11:23:44Z</time>
      </trkpt>
      <trkpt lat="45.91399" lon="4.78309">
        <ele>177</ele>
        <time>2018-10-20T11:23:45Z</time>
      </trkpt>
      <trkpt lat="45.91402" lon="4.78303">
        <ele>177</ele>
        <time>2018-10-20T11:23:46Z</time>
      </trkpt>
      <trkpt lat="45.91406" lon="4.78297">
        <ele>177</ele>
        <time>2018-10-20T11:23:47Z</time>
      </trkpt>
      <trkpt lat="45.9141" lon="4.78289">
        <ele>177</ele>
        <time>2018-10-20T11:23:48Z</time>
      </trkpt>
      <trkpt lat="45.91413" lon="4.78281">
        <ele>177</ele>
        <time>2018-10-20T11:23:49Z</time>
      </trkpt>
      <trkpt lat="45.91416" lon="4.78276">
        <ele>177</ele>
        <time>2018-10-20T11:23:50Z</time>
      </trkpt>
      <trkpt lat="45.91418" lon="4.78268">
        <ele>176</ele>
        <time>2018-10-20T11:23:51Z</time>
      </trkpt>
      <trkpt lat="45.91421" lon="4.7826">
        <ele>177</ele>
        <time>2018-10-20T11:23:52Z</time>
      </trkpt>
      <trkpt lat="45.91425" lon="4.78252">
        <ele>177</ele>
        <time>2018-10-20T11:23:53Z</time>
      </trkpt>
      <trkpt lat="45.91429" lon="4.78244">
        <ele>177</ele>
        <time>2018-10-20T11:23:54Z</time>
      </trkpt>
      <trkpt lat="45.91432" lon="4.78237">
        <ele>177</ele>
        <time>2018-10-20T11:23:55Z</time>
      </trkpt>
      <trkpt lat="45.91435" lon="4.78229">
        <ele>177</ele>
        <time>2018-10-20T11:23:56Z</time>
      </trkpt>
      <trkpt lat="45.91439" lon="4.78221">
        <ele>177</ele>
        <time>2018-10-20T11:23:57Z</time>
      </trkpt>
      <trkpt lat="45.91442" lon="4.78213">
        <ele>177</ele>
        <time>2018-10-20T11:23:58Z</time>
      </trkpt>
      <trkpt lat="45.91446" lon="4.78206">
        <ele>177</ele>
        <time>2018-10-20T11:23:59Z</time>
      </trkpt>
      <trkpt lat="45.9145" lon="4.782">
        <ele>177</ele>
        <time>2018-10-20T11:24:00Z</time>
      </trkpt>
      <trkpt lat="45.91453" lon="4.78193">
        <ele>177</ele>
        <time>2018-10-20T11:24:01Z</time>
      </trkpt>
      <trkpt lat="45.91456" lon="4.78185">
        <ele>177</ele>
        <time>2018-10-20T11:24:02Z</time>
      </trkpt>
      <trkpt lat="45.91458" lon="4.78176">
        <ele>177</ele>
        <time>2018-10-20T11:24:03Z</time>
      </trkpt>
      <trkpt lat="45.91461" lon="4.78169">
        <ele>177</ele>
        <time>2018-10-20T11:24:04Z</time>
      </trkpt>
      <trkpt lat="45.91466" lon="4.7816">
        <ele>177</ele>
        <time>2018-10-20T11:24:05Z</time>
      </trkpt>
      <trkpt lat="45.91469" lon="4.78153">
        <ele>177</ele>
        <time>2018-10-20T11:24:06Z</time>
      </trkpt>
      <trkpt lat="45.91472" lon="4.78146">
        <ele>177</ele>
        <time>2018-10-20T11:24:07Z</time>
      </trkpt>
      <trkpt lat="45.91476" lon="4.78139">
        <ele>177</ele>
        <time>2018-10-20T11:24:08Z</time>
      </trkpt>
      <trkpt lat="45.9148" lon="4.78131">
        <ele>177</ele>
        <time>2018-10-20T11:24:09Z</time>
      </trkpt>
      <trkpt lat="45.91483" lon="4.78123">
        <ele>177</ele>
        <time>2018-10-20T11:24:10Z</time>
      </trkpt>
      <trkpt lat="45.91486" lon="4.78116">
        <ele>177</ele>
        <time>2018-10-20T11:24:11Z</time>
      </trkpt>
      <trkpt lat="45.91489" lon="4.78109">
        <ele>177</ele>
        <time>2018-10-20T11:24:12Z</time>
      </trkpt>
      <trkpt lat="45.91493" lon="4.78104">
        <ele>177</ele>
        <time>2018-10-20T11:24:13Z</time>
      </trkpt>
      <trkpt lat="45.91496" lon="4.78098">
        <ele>177</ele>
        <time>2018-10-20T11:24:14Z</time>
      </trkpt>
      <trkpt lat="45.91499" lon="4.78092">
        <ele>177</ele>
        <time>2018-10-20T11:24:15Z</time>
      </trkpt>
      <trkpt lat="45.91503" lon="4.78086">
        <ele>177</ele>
        <time>2018-10-20T11:24:16Z</time>
      </trkpt>
      <trkpt lat="45.91505" lon="4.7808">
        <ele>176</ele>
        <time>2018-10-20T11:24:17Z</time>
      </trkpt>
      <trkpt lat="45.91508" lon="4.78073">
        <ele>176</ele>
        <time>2018-10-20T11:24:18Z</time>
      </trkpt>
      <trkpt lat="45.91511" lon="4.78066">
        <ele>175</ele>
        <time>2018-10-20T11:24:19Z</time>
      </trkpt>
      <trkpt lat="45.91514" lon="4.78057">
        <ele>175</ele>
        <time>2018-10-20T11:24:20Z</time>
      </trkpt>
      <trkpt lat="45.91517" lon="4.78051">
        <ele>175</ele>
        <time>2018-10-20T11:24:21Z</time>
      </trkpt>
      <trkpt lat="45.91521" lon="4.78044">
        <ele>175</ele>
        <time>2018-10-20T11:24:22Z</time>
      </trkpt>
      <trkpt lat="45.91524" lon="4.78038">
        <ele>175</ele>
        <time>2018-10-20T11:24:23Z</time>
      </trkpt>
      <trkpt lat="45.91528" lon="4.78031">
        <ele>175</ele>
        <time>2018-10-20T11:24:24Z</time>
      </trkpt>
      <trkpt lat="45.9153" lon="4.78025">
        <ele>175</ele>
        <time>2018-10-20T11:24:25Z</time>
      </trkpt>
      <trkpt lat="45.91533" lon="4.78019">
        <ele>175</ele>
        <time>2018-10-20T11:24:26Z</time>
      </trkpt>
      <trkpt lat="45.91536" lon="4.78013">
        <ele>174</ele>
        <time>2018-10-20T11:24:27Z</time>
      </trkpt>
      <trkpt lat="45.91539" lon="4.78006">
        <ele>174</ele>
        <time>2018-10-20T11:24:28Z</time>
      </trkpt>
      <trkpt lat="45.91542" lon="4.78">
        <ele>175</ele>
        <time>2018-10-20T11:24:29Z</time>
      </trkpt>
      <trkpt lat="45.91545" lon="4.77993">
        <ele>175</ele>
        <time>2018-10-20T11:24:30Z</time>
      </trkpt>
      <trkpt lat="45.91548" lon="4.77986">
        <ele>175</ele>
        <time>2018-10-20T11:24:31Z</time>
      </trkpt>
      <trkpt lat="45.91552" lon="4.7798">
        <ele>175</ele>
        <time>2018-10-20T11:24:32Z</time>
      </trkpt>
      <trkpt lat="45.91555" lon="4.77973">
        <ele>175</ele>
        <time>2018-10-20T11:24:33Z</time>
      </trkpt>
      <trkpt lat="45.91559" lon="4.77964">
        <ele>175</ele>
        <time>2018-10-20T11:24:34Z</time>
      </trkpt>
      <trkpt lat="45.91562" lon="4.77956">
        <ele>175</ele>
        <time>2018-10-20T11:24:35Z</time>
      </trkpt>
      <trkpt lat="45.91567" lon="4.77948">
        <ele>175</ele>
        <time>2018-10-20T11:24:36Z</time>
      </trkpt>
      <trkpt lat="45.91571" lon="4.77939">
        <ele>175</ele>
        <time>2018-10-20T11:24:37Z</time>
      </trkpt>
      <trkpt lat="45.91575" lon="4.7793">
        <ele>174</ele>
        <time>2018-10-20T11:24:38Z</time>
      </trkpt>
      <trkpt lat="45.91579" lon="4.77921">
        <ele>174</ele>
        <time>2018-10-20T11:24:39Z</time>
      </trkpt>
      <trkpt lat="45.91582" lon="4.77914">
        <ele>174</ele>
        <time>2018-10-20T11:24:40Z</time>
      </trkpt>
      <trkpt lat="45.91585" lon="4.77906">
        <ele>173</ele>
        <time>2018-10-20T11:24:41Z</time>
      </trkpt>
      <trkpt lat="45.91589" lon="4.779">
        <ele>173</ele>
        <time>2018-10-20T11:24:42Z</time>
      </trkpt>
      <trkpt lat="45.91592" lon="4.77892">
        <ele>173</ele>
        <time>2018-10-20T11:24:43Z</time>
      </trkpt>
      <trkpt lat="45.91595" lon="4.77886">
        <ele>173</ele>
        <time>2018-10-20T11:24:44Z</time>
      </trkpt>
      <trkpt lat="45.91598" lon="4.7788">
        <ele>173</ele>
        <time>2018-10-20T11:24:45Z</time>
      </trkpt>
      <trkpt lat="45.91601" lon="4.77874">
        <ele>173</ele>
        <time>2018-10-20T11:24:46Z</time>
      </trkpt>
      <trkpt lat="45.91604" lon="4.77867">
        <ele>173</ele>
        <time>2018-10-20T11:24:47Z</time>
      </trkpt>
      <trkpt lat="45.91607" lon="4.7786">
        <ele>173</ele>
        <time>2018-10-20T11:24:48Z</time>
      </trkpt>
      <trkpt lat="45.9161" lon="4.77853">
        <ele>173</ele>
        <time>2018-10-20T11:24:49Z</time>
      </trkpt>
      <trkpt lat="45.91613" lon="4.77846">
        <ele>173</ele>
        <time>2018-10-20T11:24:50Z</time>
      </trkpt>
      <trkpt lat="45.91615" lon="4.77839">
        <ele>173</ele>
        <time>2018-10-20T11:24:51Z</time>
      </trkpt>
      <trkpt lat="45.91618" lon="4.77833">
        <ele>172</ele>
        <time>2018-10-20T11:24:52Z</time>
      </trkpt>
      <trkpt lat="45.91621" lon="4.77825">
        <ele>172</ele>
        <time>2018-10-20T11:24:53Z</time>
      </trkpt>
      <trkpt lat="45.91623" lon="4.77818">
        <ele>172</ele>
        <time>2018-10-20T11:24:54Z</time>
      </trkpt>
      <trkpt lat="45.91626" lon="4.77811">
        <ele>172</ele>
        <time>2018-10-20T11:24:55Z</time>
      </trkpt>
      <trkpt lat="45.91629" lon="4.77801">
        <ele>172</ele>
        <time>2018-10-20T11:24:56Z</time>
      </trkpt>
      <trkpt lat="45.91631" lon="4.77793">
        <ele>172</ele>
        <time>2018-10-20T11:24:57Z</time>
      </trkpt>
      <trkpt lat="45.91633" lon="4.77785">
        <ele>171</ele>
        <time>2018-10-20T11:24:58Z</time>
      </trkpt>
      <trkpt lat="45.91635" lon="4.77777">
        <ele>171</ele>
        <time>2018-10-20T11:24:59Z</time>
      </trkpt>
      <trkpt lat="45.91637" lon="4.77769">
        <ele>171</ele>
        <time>2018-10-20T11:25:00Z</time>
      </trkpt>
      <trkpt lat="45.9164" lon="4.77762">
        <ele>171</ele>
        <time>2018-10-20T11:25:01Z</time>
      </trkpt>
      <trkpt lat="45.91642" lon="4.77754">
        <ele>170</ele>
        <time>2018-10-20T11:25:02Z</time>
      </trkpt>
      <trkpt lat="45.91645" lon="4.77747">
        <ele>170</ele>
        <time>2018-10-20T11:25:03Z</time>
      </trkpt>
      <trkpt lat="45.91647" lon="4.77738">
        <ele>170</ele>
        <time>2018-10-20T11:25:04Z</time>
      </trkpt>
      <trkpt lat="45.9165" lon="4.77731">
        <ele>170</ele>
        <time>2018-10-20T11:25:05Z</time>
      </trkpt>
      <trkpt lat="45.91652" lon="4.77724">
        <ele>170</ele>
        <time>2018-10-20T11:25:06Z</time>
      </trkpt>
      <trkpt lat="45.91654" lon="4.77717">
        <ele>170</ele>
        <time>2018-10-20T11:25:07Z</time>
      </trkpt>
      <trkpt lat="45.91655" lon="4.7771">
        <ele>170</ele>
        <time>2018-10-20T11:25:08Z</time>
      </trkpt>
      <trkpt lat="45.91656" lon="4.77702">
        <ele>170</ele>
        <time>2018-10-20T11:25:09Z</time>
      </trkpt>
      <trkpt lat="45.91658" lon="4.77695">
        <ele>170</ele>
        <time>2018-10-20T11:25:10Z</time>
      </trkpt>
      <trkpt lat="45.9166" lon="4.77686">
        <ele>170</ele>
        <time>2018-10-20T11:25:11Z</time>
      </trkpt>
      <trkpt lat="45.91661" lon="4.77677">
        <ele>170</ele>
        <time>2018-10-20T11:25:12Z</time>
      </trkpt>
      <trkpt lat="45.91662" lon="4.77668">
        <ele>169</ele>
        <time>2018-10-20T11:25:13Z</time>
      </trkpt>
      <trkpt lat="45.91664" lon="4.77661">
        <ele>169</ele>
        <time>2018-10-20T11:25:14Z</time>
      </trkpt>
      <trkpt lat="45.91665" lon="4.77655">
        <ele>170</ele>
        <time>2018-10-20T11:25:15Z</time>
      </trkpt>
      <trkpt lat="45.91667" lon="4.77648">
        <ele>169</ele>
        <time>2018-10-20T11:25:16Z</time>
      </trkpt>
      <trkpt lat="45.91669" lon="4.77642">
        <ele>169</ele>
        <time>2018-10-20T11:25:17Z</time>
      </trkpt>
      <trkpt lat="45.91671" lon="4.77635">
        <ele>169</ele>
        <time>2018-10-20T11:25:18Z</time>
      </trkpt>
      <trkpt lat="45.91672" lon="4.77628">
        <ele>169</ele>
        <time>2018-10-20T11:25:19Z</time>
      </trkpt>
      <trkpt lat="45.91674" lon="4.7762">
        <ele>169</ele>
        <time>2018-10-20T11:25:20Z</time>
      </trkpt>
      <trkpt lat="45.91675" lon="4.77612">
        <ele>169</ele>
        <time>2018-10-20T11:25:21Z</time>
      </trkpt>
      <trkpt lat="45.91677" lon="4.77603">
        <ele>169</ele>
        <time>2018-10-20T11:25:22Z</time>
      </trkpt>
      <trkpt lat="45.91678" lon="4.77594">
        <ele>169</ele>
        <time>2018-10-20T11:25:23Z</time>
      </trkpt>
      <trkpt lat="45.9168" lon="4.77585">
        <ele>169</ele>
        <time>2018-10-20T11:25:24Z</time>
      </trkpt>
      <trkpt lat="45.91682" lon="4.77578">
        <ele>169</ele>
        <time>2018-10-20T11:25:25Z</time>
      </trkpt>
      <trkpt lat="45.91683" lon="4.77569">
        <ele>169</ele>
        <time>2018-10-20T11:25:26Z</time>
      </trkpt>
      <trkpt lat="45.91685" lon="4.77559">
        <ele>169</ele>
        <time>2018-10-20T11:25:27Z</time>
      </trkpt>
      <trkpt lat="45.91687" lon="4.77551">
        <ele>169</ele>
        <time>2018-10-20T11:25:28Z</time>
      </trkpt>
      <trkpt lat="45.91688" lon="4.77543">
        <ele>169</ele>
        <time>2018-10-20T11:25:29Z</time>
      </trkpt>
      <trkpt lat="45.9169" lon="4.77535">
        <ele>169</ele>
        <time>2018-10-20T11:25:30Z</time>
      </trkpt>
      <trkpt lat="45.91691" lon="4.77527">
        <ele>169</ele>
        <time>2018-10-20T11:25:31Z</time>
      </trkpt>
      <trkpt lat="45.91691" lon="4.77521">
        <ele>169</ele>
        <time>2018-10-20T11:25:32Z</time>
      </trkpt>
      <trkpt lat="45.91693" lon="4.77513">
        <ele>170</ele>
        <time>2018-10-20T11:25:33Z</time>
      </trkpt>
      <trkpt lat="45.91696" lon="4.77509">
        <ele>170</ele>
        <time>2018-10-20T11:25:34Z</time>
      </trkpt>
      <trkpt lat="45.917" lon="4.77503">
        <ele>170</ele>
        <time>2018-10-20T11:25:35Z</time>
      </trkpt>
      <trkpt lat="45.91704" lon="4.77498">
        <ele>170</ele>
        <time>2018-10-20T11:25:36Z</time>
      </trkpt>
      <trkpt lat="45.91707" lon="4.7749">
        <ele>170</ele>
        <time>2018-10-20T11:25:37Z</time>
      </trkpt>
      <trkpt lat="45.91708" lon="4.77484">
        <ele>170</ele>
        <time>2018-10-20T11:25:38Z</time>
      </trkpt>
      <trkpt lat="45.91709" lon="4.77476">
        <ele>170</ele>
        <time>2018-10-20T11:25:39Z</time>
      </trkpt>
      <trkpt lat="45.91706" lon="4.77467">
        <ele>170</ele>
        <time>2018-10-20T11:25:40Z</time>
      </trkpt>
      <trkpt lat="45.91702" lon="4.7746">
        <ele>171</ele>
        <time>2018-10-20T11:25:41Z</time>
      </trkpt>
      <trkpt lat="45.91702" lon="4.77453">
        <ele>171</ele>
        <time>2018-10-20T11:25:42Z</time>
      </trkpt>
      <trkpt lat="45.91701" lon="4.77445">
        <ele>171</ele>
        <time>2018-10-20T11:25:43Z</time>
      </trkpt>
      <trkpt lat="45.91701" lon="4.77437">
        <ele>171</ele>
        <time>2018-10-20T11:25:44Z</time>
      </trkpt>
      <trkpt lat="45.91702" lon="4.7743">
        <ele>171</ele>
        <time>2018-10-20T11:25:45Z</time>
      </trkpt>
      <trkpt lat="45.91702" lon="4.77421">
        <ele>171</ele>
        <time>2018-10-20T11:25:46Z</time>
      </trkpt>
      <trkpt lat="45.91703" lon="4.77411">
        <ele>171</ele>
        <time>2018-10-20T11:25:47Z</time>
      </trkpt>
      <trkpt lat="45.91706" lon="4.77405">
        <ele>171</ele>
        <time>2018-10-20T11:25:48Z</time>
      </trkpt>
      <trkpt lat="45.91707" lon="4.77397">
        <ele>171</ele>
        <time>2018-10-20T11:25:49Z</time>
      </trkpt>
      <trkpt lat="45.91708" lon="4.77389">
        <ele>171</ele>
        <time>2018-10-20T11:25:50Z</time>
      </trkpt>
      <trkpt lat="45.91709" lon="4.77378">
        <ele>171</ele>
        <time>2018-10-20T11:25:51Z</time>
      </trkpt>
      <trkpt lat="45.9171" lon="4.77369">
        <ele>171</ele>
        <time>2018-10-20T11:25:52Z</time>
      </trkpt>
      <trkpt lat="45.91712" lon="4.77361">
        <ele>171</ele>
        <time>2018-10-20T11:25:53Z</time>
      </trkpt>
      <trkpt lat="45.91713" lon="4.77353">
        <ele>171</ele>
        <time>2018-10-20T11:25:54Z</time>
      </trkpt>
      <trkpt lat="45.91715" lon="4.77343">
        <ele>171</ele>
        <time>2018-10-20T11:25:55Z</time>
      </trkpt>
      <trkpt lat="45.91716" lon="4.77336">
        <ele>170</ele>
        <time>2018-10-20T11:25:56Z</time>
      </trkpt>
      <trkpt lat="45.91717" lon="4.77329">
        <ele>170</ele>
        <time>2018-10-20T11:25:57Z</time>
      </trkpt>
      <trkpt lat="45.91717" lon="4.77321">
        <ele>170</ele>
        <time>2018-10-20T11:25:58Z</time>
      </trkpt>
      <trkpt lat="45.91718" lon="4.77313">
        <ele>170</ele>
        <time>2018-10-20T11:25:59Z</time>
      </trkpt>
      <trkpt lat="45.9172" lon="4.77305">
        <ele>170</ele>
        <time>2018-10-20T11:26:00Z</time>
      </trkpt>
      <trkpt lat="45.91721" lon="4.77297">
        <ele>170</ele>
        <time>2018-10-20T11:26:01Z</time>
      </trkpt>
      <trkpt lat="45.91723" lon="4.77289">
        <ele>170</ele>
        <time>2018-10-20T11:26:02Z</time>
      </trkpt>
      <trkpt lat="45.91724" lon="4.7728">
        <ele>170</ele>
        <time>2018-10-20T11:26:03Z</time>
      </trkpt>
      <trkpt lat="45.91726" lon="4.77273">
        <ele>170</ele>
        <time>2018-10-20T11:26:04Z</time>
      </trkpt>
      <trkpt lat="45.91725" lon="4.77265">
        <ele>170</ele>
        <time>2018-10-20T11:26:05Z</time>
      </trkpt>
      <trkpt lat="45.91727" lon="4.77256">
        <ele>170</ele>
        <time>2018-10-20T11:26:06Z</time>
      </trkpt>
      <trkpt lat="45.91728" lon="4.77248">
        <ele>169</ele>
        <time>2018-10-20T11:26:07Z</time>
      </trkpt>
      <trkpt lat="45.9173" lon="4.77239">
        <ele>169</ele>
        <time>2018-10-20T11:26:08Z</time>
      </trkpt>
      <trkpt lat="45.91731" lon="4.77232">
        <ele>170</ele>
        <time>2018-10-20T11:26:09Z</time>
      </trkpt>
      <trkpt lat="45.91732" lon="4.77223">
        <ele>170</ele>
        <time>2018-10-20T11:26:10Z</time>
      </trkpt>
      <trkpt lat="45.91732" lon="4.77215">
        <ele>170</ele>
        <time>2018-10-20T11:26:11Z</time>
      </trkpt>
      <trkpt lat="45.91733" lon="4.77209">
        <ele>170</ele>
        <time>2018-10-20T11:26:12Z</time>
      </trkpt>
      <trkpt lat="45.91734" lon="4.77202">
        <ele>170</ele>
        <time>2018-10-20T11:26:13Z</time>
      </trkpt>
      <trkpt lat="45.91735" lon="4.77195">
        <ele>170</ele>
        <time>2018-10-20T11:26:14Z</time>
      </trkpt>
      <trkpt lat="45.91736" lon="4.77188">
        <ele>170</ele>
        <time>2018-10-20T11:26:15Z</time>
      </trkpt>
      <trkpt lat="45.91737" lon="4.77182">
        <ele>170</ele>
        <time>2018-10-20T11:26:16Z</time>
      </trkpt>
      <trkpt lat="45.91741" lon="4.77171">
        <ele>170</ele>
        <time>2018-10-20T11:26:17Z</time>
      </trkpt>
      <trkpt lat="45.91742" lon="4.77164">
        <ele>170</ele>
        <time>2018-10-20T11:26:18Z</time>
      </trkpt>
      <trkpt lat="45.91742" lon="4.77156">
        <ele>170</ele>
        <time>2018-10-20T11:26:19Z</time>
      </trkpt>
      <trkpt lat="45.91745" lon="4.7715">
        <ele>170</ele>
        <time>2018-10-20T11:26:20Z</time>
      </trkpt>
      <trkpt lat="45.91747" lon="4.77142">
        <ele>170</ele>
        <time>2018-10-20T11:26:21Z</time>
      </trkpt>
      <trkpt lat="45.91748" lon="4.77134">
        <ele>170</ele>
        <time>2018-10-20T11:26:22Z</time>
      </trkpt>
      <trkpt lat="45.91748" lon="4.77126">
        <ele>170</ele>
        <time>2018-10-20T11:26:23Z</time>
      </trkpt>
      <trkpt lat="45.91749" lon="4.77118">
        <ele>170</ele>
        <time>2018-10-20T11:26:24Z</time>
      </trkpt>
      <trkpt lat="45.9175" lon="4.77109">
        <ele>169</ele>
        <time>2018-10-20T11:26:25Z</time>
      </trkpt>
      <trkpt lat="45.91753" lon="4.77102">
        <ele>169</ele>
        <time>2018-10-20T11:26:26Z</time>
      </trkpt>
      <trkpt lat="45.91755" lon="4.77094">
        <ele>169</ele>
        <time>2018-10-20T11:26:27Z</time>
      </trkpt>
      <trkpt lat="45.91756" lon="4.77084">
        <ele>169</ele>
        <time>2018-10-20T11:26:28Z</time>
      </trkpt>
      <trkpt lat="45.91757" lon="4.77075">
        <ele>169</ele>
        <time>2018-10-20T11:26:29Z</time>
      </trkpt>
      <trkpt lat="45.91757" lon="4.77068">
        <ele>169</ele>
        <time>2018-10-20T11:26:30Z</time>
      </trkpt>
      <trkpt lat="45.91758" lon="4.77059">
        <ele>169</ele>
        <time>2018-10-20T11:26:31Z</time>
      </trkpt>
      <trkpt lat="45.91758" lon="4.77052">
        <ele>169</ele>
        <time>2018-10-20T11:26:32Z</time>
      </trkpt>
      <trkpt lat="45.91759" lon="4.77045">
        <ele>169</ele>
        <time>2018-10-20T11:26:33Z</time>
      </trkpt>
      <trkpt lat="45.91759" lon="4.77038">
        <ele>168</ele>
        <time>2018-10-20T11:26:34Z</time>
      </trkpt>
      <trkpt lat="45.91759" lon="4.77029">
        <ele>169</ele>
        <time>2018-10-20T11:26:35Z</time>
      </trkpt>
      <trkpt lat="45.9176" lon="4.77022">
        <ele>169</ele>
        <time>2018-10-20T11:26:36Z</time>
      </trkpt>
      <trkpt lat="45.91762" lon="4.77014">
        <ele>169</ele>
        <time>2018-10-20T11:26:37Z</time>
      </trkpt>
      <trkpt lat="45.91763" lon="4.77005">
        <ele>169</ele>
        <time>2018-10-20T11:26:38Z</time>
      </trkpt>
      <trkpt lat="45.91764" lon="4.76996">
        <ele>169</ele>
        <time>2018-10-20T11:26:39Z</time>
      </trkpt>
      <trkpt lat="45.91766" lon="4.76988">
        <ele>169</ele>
        <time>2018-10-20T11:26:40Z</time>
      </trkpt>
      <trkpt lat="45.91767" lon="4.7698">
        <ele>169</ele>
        <time>2018-10-20T11:26:41Z</time>
      </trkpt>
      <trkpt lat="45.91768" lon="4.76971">
        <ele>169</ele>
        <time>2018-10-20T11:26:42Z</time>
      </trkpt>
      <trkpt lat="45.91769" lon="4.76962">
        <ele>169</ele>
        <time>2018-10-20T11:26:43Z</time>
      </trkpt>
      <trkpt lat="45.9177" lon="4.76954">
        <ele>169</ele>
        <time>2018-10-20T11:26:44Z</time>
      </trkpt>
      <trkpt lat="45.91771" lon="4.76946">
        <ele>169</ele>
        <time>2018-10-20T11:26:45Z</time>
      </trkpt>
      <trkpt lat="45.91772" lon="4.76938">
        <ele>169</ele>
        <time>2018-10-20T11:26:46Z</time>
      </trkpt>
      <trkpt lat="45.91772" lon="4.76929">
        <ele>170</ele>
        <time>2018-10-20T11:26:47Z</time>
      </trkpt>
      <trkpt lat="45.91773" lon="4.76921">
        <ele>170</ele>
        <time>2018-10-20T11:26:48Z</time>
      </trkpt>
      <trkpt lat="45.91772" lon="4.76912">
        <ele>170</ele>
        <time>2018-10-20T11:26:49Z</time>
      </trkpt>
      <trkpt lat="45.91774" lon="4.76903">
        <ele>170</ele>
        <time>2018-10-20T11:26:50Z</time>
      </trkpt>
      <trkpt lat="45.91774" lon="4.76895">
        <ele>170</ele>
        <time>2018-10-20T11:26:51Z</time>
      </trkpt>
      <trkpt lat="45.91775" lon="4.76887">
        <ele>170</ele>
        <time>2018-10-20T11:26:52Z</time>
      </trkpt>
      <trkpt lat="45.91775" lon="4.76877">
        <ele>170</ele>
        <time>2018-10-20T11:26:53Z</time>
      </trkpt>
      <trkpt lat="45.91776" lon="4.76869">
        <ele>170</ele>
        <time>2018-10-20T11:26:54Z</time>
      </trkpt>
      <trkpt lat="45.91776" lon="4.7686">
        <ele>170</ele>
        <time>2018-10-20T11:26:55Z</time>
      </trkpt>
      <trkpt lat="45.91775" lon="4.76852">
        <ele>170</ele>
        <time>2018-10-20T11:26:56Z</time>
      </trkpt>
      <trkpt lat="45.91776" lon="4.76844">
        <ele>170</ele>
        <time>2018-10-20T11:26:57Z</time>
      </trkpt>
      <trkpt lat="45.91776" lon="4.76835">
        <ele>171</ele>
        <time>2018-10-20T11:26:58Z</time>
      </trkpt>
      <trkpt lat="45.91777" lon="4.76827">
        <ele>171</ele>
        <time>2018-10-20T11:26:59Z</time>
      </trkpt>
      <trkpt lat="45.91777" lon="4.7682">
        <ele>171</ele>
        <time>2018-10-20T11:27:00Z</time>
      </trkpt>
      <trkpt lat="45.91776" lon="4.76811">
        <ele>171</ele>
        <time>2018-10-20T11:27:01Z</time>
      </trkpt>
      <trkpt lat="45.91776" lon="4.76804">
        <ele>171</ele>
        <time>2018-10-20T11:27:02Z</time>
      </trkpt>
      <trkpt lat="45.91776" lon="4.76797">
        <ele>171</ele>
        <time>2018-10-20T11:27:03Z</time>
      </trkpt>
      <trkpt lat="45.91776" lon="4.76789">
        <ele>171</ele>
        <time>2018-10-20T11:27:04Z</time>
      </trkpt>
      <trkpt lat="45.91777" lon="4.76782">
        <ele>171</ele>
        <time>2018-10-20T11:27:05Z</time>
      </trkpt>
      <trkpt lat="45.91777" lon="4.76776">
        <ele>171</ele>
        <time>2018-10-20T11:27:06Z</time>
      </trkpt>
      <trkpt lat="45.91778" lon="4.76763">
        <ele>171</ele>
        <time>2018-10-20T11:27:08Z</time>
      </trkpt>
      <trkpt lat="45.91779" lon="4.76756">
        <ele>171</ele>
        <time>2018-10-20T11:27:09Z</time>
      </trkpt>
      <trkpt lat="45.91777" lon="4.76749">
        <ele>172</ele>
        <time>2018-10-20T11:27:10Z</time>
      </trkpt>
      <trkpt lat="45.91778" lon="4.76742">
        <ele>172</ele>
        <time>2018-10-20T11:27:11Z</time>
      </trkpt>
      <trkpt lat="45.91778" lon="4.76734">
        <ele>172</ele>
        <time>2018-10-20T11:27:12Z</time>
      </trkpt>
      <trkpt lat="45.91778" lon="4.76727">
        <ele>172</ele>
        <time>2018-10-20T11:27:13Z</time>
      </trkpt>
      <trkpt lat="45.9178" lon="4.76715">
        <ele>172</ele>
        <time>2018-10-20T11:27:15Z</time>
      </trkpt>
      <trkpt lat="45.91781" lon="4.76709">
        <ele>172</ele>
        <time>2018-10-20T11:27:16Z</time>
      </trkpt>
      <trkpt lat="45.91781" lon="4.76703">
        <ele>172</ele>
        <time>2018-10-20T11:27:17Z</time>
      </trkpt>
      <trkpt lat="45.91782" lon="4.76696">
        <ele>172</ele>
        <time>2018-10-20T11:27:18Z</time>
      </trkpt>
      <trkpt lat="45.91784" lon="4.76689">
        <ele>172</ele>
        <time>2018-10-20T11:27:19Z</time>
      </trkpt>
      <trkpt lat="45.91784" lon="4.76682">
        <ele>172</ele>
        <time>2018-10-20T11:27:20Z</time>
      </trkpt>
      <trkpt lat="45.91784" lon="4.76675">
        <ele>172</ele>
        <time>2018-10-20T11:27:21Z</time>
      </trkpt>
      <trkpt lat="45.91784" lon="4.76667">
        <ele>172</ele>
        <time>2018-10-20T11:27:22Z</time>
      </trkpt>
      <trkpt lat="45.91785" lon="4.7666">
        <ele>173</ele>
        <time>2018-10-20T11:27:23Z</time>
      </trkpt>
      <trkpt lat="45.91786" lon="4.76652">
        <ele>173</ele>
        <time>2018-10-20T11:27:24Z</time>
      </trkpt>
      <trkpt lat="45.91786" lon="4.76645">
        <ele>173</ele>
        <time>2018-10-20T11:27:25Z</time>
      </trkpt>
      <trkpt lat="45.91787" lon="4.76638">
        <ele>173</ele>
        <time>2018-10-20T11:27:26Z</time>
      </trkpt>
      <trkpt lat="45.91788" lon="4.76626">
        <ele>173</ele>
        <time>2018-10-20T11:27:28Z</time>
      </trkpt>
      <trkpt lat="45.91789" lon="4.76618">
        <ele>173</ele>
        <time>2018-10-20T11:27:29Z</time>
      </trkpt>
      <trkpt lat="45.91789" lon="4.76612">
        <ele>173</ele>
        <time>2018-10-20T11:27:30Z</time>
      </trkpt>
      <trkpt lat="45.9179" lon="4.76605">
        <ele>173</ele>
        <time>2018-10-20T11:27:31Z</time>
      </trkpt>
      <trkpt lat="45.9179" lon="4.76598">
        <ele>173</ele>
        <time>2018-10-20T11:27:32Z</time>
      </trkpt>
      <trkpt lat="45.91791" lon="4.7659">
        <ele>173</ele>
        <time>2018-10-20T11:27:33Z</time>
      </trkpt>
      <trkpt lat="45.91791" lon="4.76584">
        <ele>173</ele>
        <time>2018-10-20T11:27:34Z</time>
      </trkpt>
      <trkpt lat="45.91792" lon="4.76576">
        <ele>173</ele>
        <time>2018-10-20T11:27:35Z</time>
      </trkpt>
      <trkpt lat="45.91793" lon="4.7657">
        <ele>173</ele>
        <time>2018-10-20T11:27:36Z</time>
      </trkpt>
      <trkpt lat="45.91793" lon="4.76564">
        <ele>173</ele>
        <time>2018-10-20T11:27:37Z</time>
      </trkpt>
      <trkpt lat="45.91795" lon="4.76557">
        <ele>173</ele>
        <time>2018-10-20T11:27:38Z</time>
      </trkpt>
      <trkpt lat="45.91796" lon="4.7655">
        <ele>173</ele>
        <time>2018-10-20T11:27:39Z</time>
      </trkpt>
      <trkpt lat="45.91797" lon="4.76543">
        <ele>173</ele>
        <time>2018-10-20T11:27:40Z</time>
      </trkpt>
      <trkpt lat="45.91798" lon="4.76538">
        <ele>173</ele>
        <time>2018-10-20T11:27:41Z</time>
      </trkpt>
      <trkpt lat="45.91799" lon="4.7653">
        <ele>173</ele>
        <time>2018-10-20T11:27:42Z</time>
      </trkpt>
      <trkpt lat="45.91798" lon="4.76523">
        <ele>173</ele>
        <time>2018-10-20T11:27:43Z</time>
      </trkpt>
      <trkpt lat="45.918" lon="4.76511">
        <ele>173</ele>
        <time>2018-10-20T11:27:45Z</time>
      </trkpt>
      <trkpt lat="45.918" lon="4.76505">
        <ele>173</ele>
        <time>2018-10-20T11:27:46Z</time>
      </trkpt>
      <trkpt lat="45.91801" lon="4.76497">
        <ele>173</ele>
        <time>2018-10-20T11:27:47Z</time>
      </trkpt>
      <trkpt lat="45.91801" lon="4.7649">
        <ele>173</ele>
        <time>2018-10-20T11:27:48Z</time>
      </trkpt>
      <trkpt lat="45.91802" lon="4.76483">
        <ele>173</ele>
        <time>2018-10-20T11:27:49Z</time>
      </trkpt>
      <trkpt lat="45.91803" lon="4.76477">
        <ele>173</ele>
        <time>2018-10-20T11:27:50Z</time>
      </trkpt>
      <trkpt lat="45.91803" lon="4.76469">
        <ele>173</ele>
        <time>2018-10-20T11:27:51Z</time>
      </trkpt>
      <trkpt lat="45.91804" lon="4.76462">
        <ele>173</ele>
        <time>2018-10-20T11:27:52Z</time>
      </trkpt>
      <trkpt lat="45.91804" lon="4.76455">
        <ele>173</ele>
        <time>2018-10-20T11:27:53Z</time>
      </trkpt>
      <trkpt lat="45.91806" lon="4.76449">
        <ele>173</ele>
        <time>2018-10-20T11:27:54Z</time>
      </trkpt>
      <trkpt lat="45.91807" lon="4.76442">
        <ele>173</ele>
        <time>2018-10-20T11:27:55Z</time>
      </trkpt>
      <trkpt lat="45.91807" lon="4.76436">
        <ele>173</ele>
        <time>2018-10-20T11:27:56Z</time>
      </trkpt>
      <trkpt lat="45.91807" lon="4.76425">
        <ele>173</ele>
        <time>2018-10-20T11:27:58Z</time>
      </trkpt>
      <trkpt lat="45.91807" lon="4.76419">
        <ele>173</ele>
        <time>2018-10-20T11:27:59Z</time>
      </trkpt>
      <trkpt lat="45.91807" lon="4.76412">
        <ele>173</ele>
        <time>2018-10-20T11:28:00Z</time>
      </trkpt>
      <trkpt lat="45.91806" lon="4.76404">
        <ele>173</ele>
        <time>2018-10-20T11:28:01Z</time>
      </trkpt>
      <trkpt lat="45.91807" lon="4.76398">
        <ele>174</ele>
        <time>2018-10-20T11:28:02Z</time>
      </trkpt>
      <trkpt lat="45.91808" lon="4.76391">
        <ele>174</ele>
        <time>2018-10-20T11:28:03Z</time>
      </trkpt>
      <trkpt lat="45.91809" lon="4.76384">
        <ele>174</ele>
        <time>2018-10-20T11:28:04Z</time>
      </trkpt>
      <trkpt lat="45.91809" lon="4.76376">
        <ele>174</ele>
        <time>2018-10-20T11:28:05Z</time>
      </trkpt>
      <trkpt lat="45.91809" lon="4.76368">
        <ele>174</ele>
        <time>2018-10-20T11:28:06Z</time>
      </trkpt>
      <trkpt lat="45.91809" lon="4.7636">
        <ele>174</ele>
        <time>2018-10-20T11:28:07Z</time>
      </trkpt>
      <trkpt lat="45.91811" lon="4.76352">
        <ele>174</ele>
        <time>2018-10-20T11:28:08Z</time>
      </trkpt>
      <trkpt lat="45.91813" lon="4.76346">
        <ele>174</ele>
        <time>2018-10-20T11:28:09Z</time>
      </trkpt>
      <trkpt lat="45.91815" lon="4.76339">
        <ele>174</ele>
        <time>2018-10-20T11:28:10Z</time>
      </trkpt>
      <trkpt lat="45.91815" lon="4.76331">
        <ele>174</ele>
        <time>2018-10-20T11:28:11Z</time>
      </trkpt>
      <trkpt lat="45.91817" lon="4.76324">
        <ele>174</ele>
        <time>2018-10-20T11:28:12Z</time>
      </trkpt>
      <trkpt lat="45.91818" lon="4.76316">
        <ele>174</ele>
        <time>2018-10-20T11:28:13Z</time>
      </trkpt>
      <trkpt lat="45.91818" lon="4.7631">
        <ele>174</ele>
        <time>2018-10-20T11:28:14Z</time>
      </trkpt>
      <trkpt lat="45.9182" lon="4.76303">
        <ele>174</ele>
        <time>2018-10-20T11:28:15Z</time>
      </trkpt>
      <trkpt lat="45.91822" lon="4.76295">
        <ele>174</ele>
        <time>2018-10-20T11:28:16Z</time>
      </trkpt>
      <trkpt lat="45.91824" lon="4.76289">
        <ele>174</ele>
        <time>2018-10-20T11:28:17Z</time>
      </trkpt>
      <trkpt lat="45.91826" lon="4.76281">
        <ele>174</ele>
        <time>2018-10-20T11:28:18Z</time>
      </trkpt>
      <trkpt lat="45.91827" lon="4.76274">
        <ele>174</ele>
        <time>2018-10-20T11:28:19Z</time>
      </trkpt>
      <trkpt lat="45.9183" lon="4.76266">
        <ele>174</ele>
        <time>2018-10-20T11:28:20Z</time>
      </trkpt>
      <trkpt lat="45.9183" lon="4.76258">
        <ele>174</ele>
        <time>2018-10-20T11:28:21Z</time>
      </trkpt>
      <trkpt lat="45.91833" lon="4.76249">
        <ele>173</ele>
        <time>2018-10-20T11:28:22Z</time>
      </trkpt>
      <trkpt lat="45.91835" lon="4.76242">
        <ele>173</ele>
        <time>2018-10-20T11:28:23Z</time>
      </trkpt>
      <trkpt lat="45.91836" lon="4.76233">
        <ele>173</ele>
        <time>2018-10-20T11:28:24Z</time>
      </trkpt>
      <trkpt lat="45.91838" lon="4.76227">
        <ele>172</ele>
        <time>2018-10-20T11:28:25Z</time>
      </trkpt>
      <trkpt lat="45.9184" lon="4.76221">
        <ele>172</ele>
        <time>2018-10-20T11:28:26Z</time>
      </trkpt>
      <trkpt lat="45.91842" lon="4.76214">
        <ele>172</ele>
        <time>2018-10-20T11:28:27Z</time>
      </trkpt>
      <trkpt lat="45.91844" lon="4.76208">
        <ele>172</ele>
        <time>2018-10-20T11:28:28Z</time>
      </trkpt>
      <trkpt lat="45.91847" lon="4.76201">
        <ele>172</ele>
        <time>2018-10-20T11:28:29Z</time>
      </trkpt>
      <trkpt lat="45.9185" lon="4.7619">
        <ele>172</ele>
        <time>2018-10-20T11:28:31Z</time>
      </trkpt>
      <trkpt lat="45.91852" lon="4.76183">
        <ele>172</ele>
        <time>2018-10-20T11:28:32Z</time>
      </trkpt>
      <trkpt lat="45.91854" lon="4.76175">
        <ele>172</ele>
        <time>2018-10-20T11:28:33Z</time>
      </trkpt>
      <trkpt lat="45.91855" lon="4.76169">
        <ele>172</ele>
        <time>2018-10-20T11:28:34Z</time>
      </trkpt>
      <trkpt lat="45.91858" lon="4.76162">
        <ele>173</ele>
        <time>2018-10-20T11:28:35Z</time>
      </trkpt>
      <trkpt lat="45.91859" lon="4.76156">
        <ele>173</ele>
        <time>2018-10-20T11:28:36Z</time>
      </trkpt>
      <trkpt lat="45.91861" lon="4.7615">
        <ele>173</ele>
        <time>2018-10-20T11:28:37Z</time>
      </trkpt>
      <trkpt lat="45.91863" lon="4.76142">
        <ele>173</ele>
        <time>2018-10-20T11:28:38Z</time>
      </trkpt>
      <trkpt lat="45.91864" lon="4.76135">
        <ele>173</ele>
        <time>2018-10-20T11:28:39Z</time>
      </trkpt>
      <trkpt lat="45.91866" lon="4.76129">
        <ele>173</ele>
        <time>2018-10-20T11:28:40Z</time>
      </trkpt>
      <trkpt lat="45.91868" lon="4.76122">
        <ele>173</ele>
        <time>2018-10-20T11:28:41Z</time>
      </trkpt>
      <trkpt lat="45.9187" lon="4.76113">
        <ele>173</ele>
        <time>2018-10-20T11:28:42Z</time>
      </trkpt>
      <trkpt lat="45.91872" lon="4.76106">
        <ele>173</ele>
        <time>2018-10-20T11:28:43Z</time>
      </trkpt>
      <trkpt lat="45.91874" lon="4.76098">
        <ele>173</ele>
        <time>2018-10-20T11:28:44Z</time>
      </trkpt>
      <trkpt lat="45.91876" lon="4.76092">
        <ele>173</ele>
        <time>2018-10-20T11:28:45Z</time>
      </trkpt>
      <trkpt lat="45.91877" lon="4.76085">
        <ele>173</ele>
        <time>2018-10-20T11:28:46Z</time>
      </trkpt>
      <trkpt lat="45.91879" lon="4.76078">
        <ele>173</ele>
        <time>2018-10-20T11:28:47Z</time>
      </trkpt>
      <trkpt lat="45.9188" lon="4.76072">
        <ele>173</ele>
        <time>2018-10-20T11:28:48Z</time>
      </trkpt>
      <trkpt lat="45.91883" lon="4.76065">
        <ele>173</ele>
        <time>2018-10-20T11:28:49Z</time>
      </trkpt>
      <trkpt lat="45.91883" lon="4.7606">
        <ele>173</ele>
        <time>2018-10-20T11:28:50Z</time>
      </trkpt>
      <trkpt lat="45.91885" lon="4.76053">
        <ele>173</ele>
        <time>2018-10-20T11:28:51Z</time>
      </trkpt>
      <trkpt lat="45.91886" lon="4.76047">
        <ele>173</ele>
        <time>2018-10-20T11:28:52Z</time>
      </trkpt>
      <trkpt lat="45.91889" lon="4.76037">
        <ele>173</ele>
        <time>2018-10-20T11:28:54Z</time>
      </trkpt>
      <trkpt lat="45.91892" lon="4.76031">
        <ele>173</ele>
        <time>2018-10-20T11:28:55Z</time>
      </trkpt>
      <trkpt lat="45.91894" lon="4.76024">
        <ele>173</ele>
        <time>2018-10-20T11:28:56Z</time>
      </trkpt>
      <trkpt lat="45.91896" lon="4.76017">
        <ele>173</ele>
        <time>2018-10-20T11:28:57Z</time>
      </trkpt>
      <trkpt lat="45.91898" lon="4.76008">
        <ele>173</ele>
        <time>2018-10-20T11:28:58Z</time>
      </trkpt>
      <trkpt lat="45.91899" lon="4.76001">
        <ele>173</ele>
        <time>2018-10-20T11:28:59Z</time>
      </trkpt>
      <trkpt lat="45.91901" lon="4.75994">
        <ele>173</ele>
        <time>2018-10-20T11:29:00Z</time>
      </trkpt>
      <trkpt lat="45.91904" lon="4.75985">
        <ele>173</ele>
        <time>2018-10-20T11:29:01Z</time>
      </trkpt>
      <trkpt lat="45.91906" lon="4.75979">
        <ele>173</ele>
        <time>2018-10-20T11:29:02Z</time>
      </trkpt>
      <trkpt lat="45.91908" lon="4.75971">
        <ele>173</ele>
        <time>2018-10-20T11:29:03Z</time>
      </trkpt>
      <trkpt lat="45.9191" lon="4.75963">
        <ele>173</ele>
        <time>2018-10-20T11:29:04Z</time>
      </trkpt>
      <trkpt lat="45.9191" lon="4.75955">
        <ele>173</ele>
        <time>2018-10-20T11:29:05Z</time>
      </trkpt>
      <trkpt lat="45.91912" lon="4.75947">
        <ele>173</ele>
        <time>2018-10-20T11:29:06Z</time>
      </trkpt>
      <trkpt lat="45.91914" lon="4.75941">
        <ele>173</ele>
        <time>2018-10-20T11:29:07Z</time>
      </trkpt>
      <trkpt lat="45.91916" lon="4.75931">
        <ele>173</ele>
        <time>2018-10-20T11:29:08Z</time>
      </trkpt>
      <trkpt lat="45.91917" lon="4.75924">
        <ele>172</ele>
        <time>2018-10-20T11:29:09Z</time>
      </trkpt>
      <trkpt lat="45.9192" lon="4.75918">
        <ele>172</ele>
        <time>2018-10-20T11:29:10Z</time>
      </trkpt>
      <trkpt lat="45.91923" lon="4.75911">
        <ele>172</ele>
        <time>2018-10-20T11:29:11Z</time>
      </trkpt>
      <trkpt lat="45.91926" lon="4.75904">
        <ele>172</ele>
        <time>2018-10-20T11:29:12Z</time>
      </trkpt>
      <trkpt lat="45.91929" lon="4.75896">
        <ele>172</ele>
        <time>2018-10-20T11:29:13Z</time>
      </trkpt>
      <trkpt lat="45.91931" lon="4.75888">
        <ele>172</ele>
        <time>2018-10-20T11:29:14Z</time>
      </trkpt>
      <trkpt lat="45.91934" lon="4.75881">
        <ele>172</ele>
        <time>2018-10-20T11:29:15Z</time>
      </trkpt>
      <trkpt lat="45.91937" lon="4.75874">
        <ele>172</ele>
        <time>2018-10-20T11:29:16Z</time>
      </trkpt>
      <trkpt lat="45.91939" lon="4.75867">
        <ele>172</ele>
        <time>2018-10-20T11:29:17Z</time>
      </trkpt>
      <trkpt lat="45.91944" lon="4.75861">
        <ele>172</ele>
        <time>2018-10-20T11:29:18Z</time>
      </trkpt>
      <trkpt lat="45.91947" lon="4.75855">
        <ele>172</ele>
        <time>2018-10-20T11:29:19Z</time>
      </trkpt>
      <trkpt lat="45.9195" lon="4.75844">
        <ele>172</ele>
        <time>2018-10-20T11:29:21Z</time>
      </trkpt>
      <trkpt lat="45.91952" lon="4.75838">
        <ele>172</ele>
        <time>2018-10-20T11:29:22Z</time>
      </trkpt>
      <trkpt lat="45.91955" lon="4.75831">
        <ele>173</ele>
        <time>2018-10-20T11:29:23Z</time>
      </trkpt>
      <trkpt lat="45.91958" lon="4.75826">
        <ele>173</ele>
        <time>2018-10-20T11:29:24Z</time>
      </trkpt>
      <trkpt lat="45.91962" lon="4.75816">
        <ele>173</ele>
        <time>2018-10-20T11:29:25Z</time>
      </trkpt>
      <trkpt lat="45.91966" lon="4.7581">
        <ele>173</ele>
        <time>2018-10-20T11:29:26Z</time>
      </trkpt>
      <trkpt lat="45.9197" lon="4.75804">
        <ele>173</ele>
        <time>2018-10-20T11:29:27Z</time>
      </trkpt>
      <trkpt lat="45.91974" lon="4.75798">
        <ele>173</ele>
        <time>2018-10-20T11:29:28Z</time>
      </trkpt>
      <trkpt lat="45.91977" lon="4.75793">
        <ele>173</ele>
        <time>2018-10-20T11:29:29Z</time>
      </trkpt>
      <trkpt lat="45.91981" lon="4.75787">
        <ele>173</ele>
        <time>2018-10-20T11:29:30Z</time>
      </trkpt>
      <trkpt lat="45.91984" lon="4.75782">
        <ele>174</ele>
        <time>2018-10-20T11:29:31Z</time>
      </trkpt>
      <trkpt lat="45.91988" lon="4.75773">
        <ele>174</ele>
        <time>2018-10-20T11:29:32Z</time>
      </trkpt>
      <trkpt lat="45.91991" lon="4.75768">
        <ele>174</ele>
        <time>2018-10-20T11:29:33Z</time>
      </trkpt>
      <trkpt lat="45.91995" lon="4.75762">
        <ele>174</ele>
        <time>2018-10-20T11:29:34Z</time>
      </trkpt>
      <trkpt lat="45.91998" lon="4.75757">
        <ele>174</ele>
        <time>2018-10-20T11:29:35Z</time>
      </trkpt>
      <trkpt lat="45.92001" lon="4.75751">
        <ele>174</ele>
        <time>2018-10-20T11:29:36Z</time>
      </trkpt>
      <trkpt lat="45.92004" lon="4.75745">
        <ele>174</ele>
        <time>2018-10-20T11:29:37Z</time>
      </trkpt>
      <trkpt lat="45.92008" lon="4.75739">
        <ele>174</ele>
        <time>2018-10-20T11:29:38Z</time>
      </trkpt>
      <trkpt lat="45.92011" lon="4.75732">
        <ele>175</ele>
        <time>2018-10-20T11:29:39Z</time>
      </trkpt>
      <trkpt lat="45.92014" lon="4.75727">
        <ele>175</ele>
        <time>2018-10-20T11:29:40Z</time>
      </trkpt>
      <trkpt lat="45.92017" lon="4.7572">
        <ele>175</ele>
        <time>2018-10-20T11:29:41Z</time>
      </trkpt>
      <trkpt lat="45.92021" lon="4.75715">
        <ele>175</ele>
        <time>2018-10-20T11:29:42Z</time>
      </trkpt>
      <trkpt lat="45.92025" lon="4.75709">
        <ele>175</ele>
        <time>2018-10-20T11:29:43Z</time>
      </trkpt>
      <trkpt lat="45.92029" lon="4.75702">
        <ele>175</ele>
        <time>2018-10-20T11:29:44Z</time>
      </trkpt>
      <trkpt lat="45.92033" lon="4.75695">
        <ele>175</ele>
        <time>2018-10-20T11:29:45Z</time>
      </trkpt>
      <trkpt lat="45.92037" lon="4.7569">
        <ele>175</ele>
        <time>2018-10-20T11:29:46Z</time>
      </trkpt>
      <trkpt lat="45.92041" lon="4.75684">
        <ele>175</ele>
        <time>2018-10-20T11:29:47Z</time>
      </trkpt>
      <trkpt lat="45.92045" lon="4.75678">
        <ele>175</ele>
        <time>2018-10-20T11:29:48Z</time>
      </trkpt>
      <trkpt lat="45.92048" lon="4.75672">
        <ele>175</ele>
        <time>2018-10-20T11:29:49Z</time>
      </trkpt>
      <trkpt lat="45.92052" lon="4.75667">
        <ele>175</ele>
        <time>2018-10-20T11:29:50Z</time>
      </trkpt>
      <trkpt lat="45.92056" lon="4.7566">
        <ele>175</ele>
        <time>2018-10-20T11:29:51Z</time>
      </trkpt>
      <trkpt lat="45.92059" lon="4.75655">
        <ele>175</ele>
        <time>2018-10-20T11:29:52Z</time>
      </trkpt>
      <trkpt lat="45.92063" lon="4.75649">
        <ele>175</ele>
        <time>2018-10-20T11:29:53Z</time>
      </trkpt>
      <trkpt lat="45.92067" lon="4.75643">
        <ele>175</ele>
        <time>2018-10-20T11:29:54Z</time>
      </trkpt>
      <trkpt lat="45.92071" lon="4.75637">
        <ele>175</ele>
        <time>2018-10-20T11:29:55Z</time>
      </trkpt>
      <trkpt lat="45.92073" lon="4.75631">
        <ele>175</ele>
        <time>2018-10-20T11:29:56Z</time>
      </trkpt>
      <trkpt lat="45.92076" lon="4.75626">
        <ele>175</ele>
        <time>2018-10-20T11:29:57Z</time>
      </trkpt>
      <trkpt lat="45.92079" lon="4.75619">
        <ele>175</ele>
        <time>2018-10-20T11:29:58Z</time>
      </trkpt>
      <trkpt lat="45.92081" lon="4.75613">
        <ele>175</ele>
        <time>2018-10-20T11:29:59Z</time>
      </trkpt>
      <trkpt lat="45.92085" lon="4.75607">
        <ele>174</ele>
        <time>2018-10-20T11:30:00Z</time>
      </trkpt>
      <trkpt lat="45.92088" lon="4.75599">
        <ele>174</ele>
        <time>2018-10-20T11:30:01Z</time>
      </trkpt>
      <trkpt lat="45.92091" lon="4.75593">
        <ele>174</ele>
        <time>2018-10-20T11:30:02Z</time>
      </trkpt>
      <trkpt lat="45.92098" lon="4.75584">
        <ele>174</ele>
        <time>2018-10-20T11:30:04Z</time>
      </trkpt>
      <trkpt lat="45.92101" lon="4.75578">
        <ele>174</ele>
        <time>2018-10-20T11:30:05Z</time>
      </trkpt>
      <trkpt lat="45.92103" lon="4.75572">
        <ele>174</ele>
        <time>2018-10-20T11:30:06Z</time>
      </trkpt>
      <trkpt lat="45.92106" lon="4.75567">
        <ele>174</ele>
        <time>2018-10-20T11:30:07Z</time>
      </trkpt>
      <trkpt lat="45.9211" lon="4.75564">
        <ele>174</ele>
        <time>2018-10-20T11:30:08Z</time>
      </trkpt>
      <trkpt lat="45.92113" lon="4.75555">
        <ele>174</ele>
        <time>2018-10-20T11:30:09Z</time>
      </trkpt>
      <trkpt lat="45.92116" lon="4.75549">
        <ele>174</ele>
        <time>2018-10-20T11:30:10Z</time>
      </trkpt>
      <trkpt lat="45.92119" lon="4.75543">
        <ele>174</ele>
        <time>2018-10-20T11:30:11Z</time>
      </trkpt>
      <trkpt lat="45.92122" lon="4.75537">
        <ele>174</ele>
        <time>2018-10-20T11:30:12Z</time>
      </trkpt>
      <trkpt lat="45.92125" lon="4.75531">
        <ele>174</ele>
        <time>2018-10-20T11:30:13Z</time>
      </trkpt>
      <trkpt lat="45.92129" lon="4.75524">
        <ele>174</ele>
        <time>2018-10-20T11:30:14Z</time>
      </trkpt>
      <trkpt lat="45.92132" lon="4.75517">
        <ele>174</ele>
        <time>2018-10-20T11:30:15Z</time>
      </trkpt>
      <trkpt lat="45.92135" lon="4.75511">
        <ele>174</ele>
        <time>2018-10-20T11:30:16Z</time>
      </trkpt>
      <trkpt lat="45.92142" lon="4.75508">
        <ele>174</ele>
        <time>2018-10-20T11:30:17Z</time>
      </trkpt>
      <trkpt lat="45.92144" lon="4.75501">
        <ele>175</ele>
        <time>2018-10-20T11:30:18Z</time>
      </trkpt>
      <trkpt lat="45.92147" lon="4.75496">
        <ele>175</ele>
        <time>2018-10-20T11:30:19Z</time>
      </trkpt>
      <trkpt lat="45.92149" lon="4.7549">
        <ele>176</ele>
        <time>2018-10-20T11:30:20Z</time>
      </trkpt>
      <trkpt lat="45.92153" lon="4.75483">
        <ele>176</ele>
        <time>2018-10-20T11:30:21Z</time>
      </trkpt>
      <trkpt lat="45.92155" lon="4.75476">
        <ele>176</ele>
        <time>2018-10-20T11:30:22Z</time>
      </trkpt>
      <trkpt lat="45.92156" lon="4.75469">
        <ele>176</ele>
        <time>2018-10-20T11:30:23Z</time>
      </trkpt>
      <trkpt lat="45.92159" lon="4.75461">
        <ele>176</ele>
        <time>2018-10-20T11:30:24Z</time>
      </trkpt>
      <trkpt lat="45.92162" lon="4.75454">
        <ele>176</ele>
        <time>2018-10-20T11:30:25Z</time>
      </trkpt>
      <trkpt lat="45.92165" lon="4.75447">
        <ele>177</ele>
        <time>2018-10-20T11:30:26Z</time>
      </trkpt>
      <trkpt lat="45.92168" lon="4.7544">
        <ele>177</ele>
        <time>2018-10-20T11:30:27Z</time>
      </trkpt>
      <trkpt lat="45.9217" lon="4.75432">
        <ele>177</ele>
        <time>2018-10-20T11:30:28Z</time>
      </trkpt>
      <trkpt lat="45.92172" lon="4.75425">
        <ele>177</ele>
        <time>2018-10-20T11:30:29Z</time>
      </trkpt>
      <trkpt lat="45.92175" lon="4.7542">
        <ele>177</ele>
        <time>2018-10-20T11:30:30Z</time>
      </trkpt>
      <trkpt lat="45.92179" lon="4.75414">
        <ele>177</ele>
        <time>2018-10-20T11:30:31Z</time>
      </trkpt>
      <trkpt lat="45.92182" lon="4.75405">
        <ele>177</ele>
        <time>2018-10-20T11:30:32Z</time>
      </trkpt>
      <trkpt lat="45.92185" lon="4.75399">
        <ele>177</ele>
        <time>2018-10-20T11:30:33Z</time>
      </trkpt>
      <trkpt lat="45.92187" lon="4.75392">
        <ele>177</ele>
        <time>2018-10-20T11:30:34Z</time>
      </trkpt>
      <trkpt lat="45.92189" lon="4.75386">
        <ele>177</ele>
        <time>2018-10-20T11:30:35Z</time>
      </trkpt>
      <trkpt lat="45.92193" lon="4.7538">
        <ele>177</ele>
        <time>2018-10-20T11:30:36Z</time>
      </trkpt>
      <trkpt lat="45.92196" lon="4.75373">
        <ele>177</ele>
        <time>2018-10-20T11:30:37Z</time>
      </trkpt>
      <trkpt lat="45.92199" lon="4.75366">
        <ele>177</ele>
        <time>2018-10-20T11:30:38Z</time>
      </trkpt>
      <trkpt lat="45.92203" lon="4.75359">
        <ele>177</ele>
        <time>2018-10-20T11:30:39Z</time>
      </trkpt>
      <trkpt lat="45.92204" lon="4.75351">
        <ele>177</ele>
        <time>2018-10-20T11:30:40Z</time>
      </trkpt>
      <trkpt lat="45.92206" lon="4.75343">
        <ele>177</ele>
        <time>2018-10-20T11:30:41Z</time>
      </trkpt>
      <trkpt lat="45.92207" lon="4.75335">
        <ele>177</ele>
        <time>2018-10-20T11:30:42Z</time>
      </trkpt>
      <trkpt lat="45.92209" lon="4.75326">
        <ele>176</ele>
        <time>2018-10-20T11:30:43Z</time>
      </trkpt>
      <trkpt lat="45.9221" lon="4.75317">
        <ele>176</ele>
        <time>2018-10-20T11:30:44Z</time>
      </trkpt>
      <trkpt lat="45.9221" lon="4.75309">
        <ele>176</ele>
        <time>2018-10-20T11:30:45Z</time>
      </trkpt>
      <trkpt lat="45.92211" lon="4.75299">
        <ele>176</ele>
        <time>2018-10-20T11:30:46Z</time>
      </trkpt>
      <trkpt lat="45.92211" lon="4.75289">
        <ele>176</ele>
        <time>2018-10-20T11:30:47Z</time>
      </trkpt>
      <trkpt lat="45.92211" lon="4.7528">
        <ele>176</ele>
        <time>2018-10-20T11:30:48Z</time>
      </trkpt>
      <trkpt lat="45.92212" lon="4.7527">
        <ele>176</ele>
        <time>2018-10-20T11:30:49Z</time>
      </trkpt>
      <trkpt lat="45.92212" lon="4.75261">
        <ele>176</ele>
        <time>2018-10-20T11:30:50Z</time>
      </trkpt>
      <trkpt lat="45.92213" lon="4.7525">
        <ele>175</ele>
        <time>2018-10-20T11:30:51Z</time>
      </trkpt>
      <trkpt lat="45.92213" lon="4.75241">
        <ele>175</ele>
        <time>2018-10-20T11:30:52Z</time>
      </trkpt>
      <trkpt lat="45.92213" lon="4.75231">
        <ele>175</ele>
        <time>2018-10-20T11:30:53Z</time>
      </trkpt>
      <trkpt lat="45.92214" lon="4.7522">
        <ele>175</ele>
        <time>2018-10-20T11:30:54Z</time>
      </trkpt>
      <trkpt lat="45.92215" lon="4.7521">
        <ele>175</ele>
        <time>2018-10-20T11:30:55Z</time>
      </trkpt>
      <trkpt lat="45.92215" lon="4.752">
        <ele>175</ele>
        <time>2018-10-20T11:30:56Z</time>
      </trkpt>
      <trkpt lat="45.92215" lon="4.7519">
        <ele>175</ele>
        <time>2018-10-20T11:30:57Z</time>
      </trkpt>
      <trkpt lat="45.92218" lon="4.75181">
        <ele>175</ele>
        <time>2018-10-20T11:30:58Z</time>
      </trkpt>
      <trkpt lat="45.92221" lon="4.75172">
        <ele>175</ele>
        <time>2018-10-20T11:30:59Z</time>
      </trkpt>
      <trkpt lat="45.92224" lon="4.75163">
        <ele>174</ele>
        <time>2018-10-20T11:31:00Z</time>
      </trkpt>
      <trkpt lat="45.92228" lon="4.75155">
        <ele>174</ele>
        <time>2018-10-20T11:31:01Z</time>
      </trkpt>
      <trkpt lat="45.92231" lon="4.75147">
        <ele>174</ele>
        <time>2018-10-20T11:31:02Z</time>
      </trkpt>
      <trkpt lat="45.92235" lon="4.75139">
        <ele>174</ele>
        <time>2018-10-20T11:31:03Z</time>
      </trkpt>
      <trkpt lat="45.9224" lon="4.75133">
        <ele>174</ele>
        <time>2018-10-20T11:31:04Z</time>
      </trkpt>
      <trkpt lat="45.92244" lon="4.75125">
        <ele>174</ele>
        <time>2018-10-20T11:31:05Z</time>
      </trkpt>
      <trkpt lat="45.9225" lon="4.75119">
        <ele>174</ele>
        <time>2018-10-20T11:31:06Z</time>
      </trkpt>
      <trkpt lat="45.92255" lon="4.75113">
        <ele>174</ele>
        <time>2018-10-20T11:31:07Z</time>
      </trkpt>
      <trkpt lat="45.9226" lon="4.75107">
        <ele>174</ele>
        <time>2018-10-20T11:31:08Z</time>
      </trkpt>
      <trkpt lat="45.92265" lon="4.75103">
        <ele>173</ele>
        <time>2018-10-20T11:31:09Z</time>
      </trkpt>
      <trkpt lat="45.9227" lon="4.75098">
        <ele>173</ele>
        <time>2018-10-20T11:31:10Z</time>
      </trkpt>
      <trkpt lat="45.92275" lon="4.75095">
        <ele>173</ele>
        <time>2018-10-20T11:31:11Z</time>
      </trkpt>
      <trkpt lat="45.9228" lon="4.7509">
        <ele>173</ele>
        <time>2018-10-20T11:31:12Z</time>
      </trkpt>
      <trkpt lat="45.92285" lon="4.75087">
        <ele>173</ele>
        <time>2018-10-20T11:31:13Z</time>
      </trkpt>
      <trkpt lat="45.9229" lon="4.75082">
        <ele>172</ele>
        <time>2018-10-20T11:31:14Z</time>
      </trkpt>
      <trkpt lat="45.92295" lon="4.75079">
        <ele>172</ele>
        <time>2018-10-20T11:31:15Z</time>
      </trkpt>
      <trkpt lat="45.92301" lon="4.75071">
        <ele>172</ele>
        <time>2018-10-20T11:31:16Z</time>
      </trkpt>
      <trkpt lat="45.92305" lon="4.75066">
        <ele>172</ele>
        <time>2018-10-20T11:31:17Z</time>
      </trkpt>
      <trkpt lat="45.92309" lon="4.7506">
        <ele>172</ele>
        <time>2018-10-20T11:31:18Z</time>
      </trkpt>
      <trkpt lat="45.92314" lon="4.75054">
        <ele>172</ele>
        <time>2018-10-20T11:31:19Z</time>
      </trkpt>
      <trkpt lat="45.92319" lon="4.75047">
        <ele>172</ele>
        <time>2018-10-20T11:31:20Z</time>
      </trkpt>
      <trkpt lat="45.92323" lon="4.75041">
        <ele>171</ele>
        <time>2018-10-20T11:31:21Z</time>
      </trkpt>
      <trkpt lat="45.92328" lon="4.75034">
        <ele>171</ele>
        <time>2018-10-20T11:31:22Z</time>
      </trkpt>
      <trkpt lat="45.92331" lon="4.75027">
        <ele>171</ele>
        <time>2018-10-20T11:31:23Z</time>
      </trkpt>
      <trkpt lat="45.92335" lon="4.7502">
        <ele>170</ele>
        <time>2018-10-20T11:31:24Z</time>
      </trkpt>
      <trkpt lat="45.92338" lon="4.75011">
        <ele>170</ele>
        <time>2018-10-20T11:31:25Z</time>
      </trkpt>
      <trkpt lat="45.92341" lon="4.75004">
        <ele>170</ele>
        <time>2018-10-20T11:31:26Z</time>
      </trkpt>
      <trkpt lat="45.92344" lon="4.74997">
        <ele>170</ele>
        <time>2018-10-20T11:31:27Z</time>
      </trkpt>
      <trkpt lat="45.92347" lon="4.74991">
        <ele>170</ele>
        <time>2018-10-20T11:31:28Z</time>
      </trkpt>
      <trkpt lat="45.92348" lon="4.74985">
        <ele>170</ele>
        <time>2018-10-20T11:31:29Z</time>
      </trkpt>
      <trkpt lat="45.92351" lon="4.74979">
        <ele>170</ele>
        <time>2018-10-20T11:31:30Z</time>
      </trkpt>
      <trkpt lat="45.92354" lon="4.74973">
        <ele>170</ele>
        <time>2018-10-20T11:31:31Z</time>
      </trkpt>
      <trkpt lat="45.92356" lon="4.74966">
        <ele>170</ele>
        <time>2018-10-20T11:31:32Z</time>
      </trkpt>
      <trkpt lat="45.92358" lon="4.74959">
        <ele>170</ele>
        <time>2018-10-20T11:31:33Z</time>
      </trkpt>
      <trkpt lat="45.92361" lon="4.74952">
        <ele>170</ele>
        <time>2018-10-20T11:31:34Z</time>
      </trkpt>
      <trkpt lat="45.92365" lon="4.74944">
        <ele>170</ele>
        <time>2018-10-20T11:31:35Z</time>
      </trkpt>
      <trkpt lat="45.92368" lon="4.74938">
        <ele>170</ele>
        <time>2018-10-20T11:31:36Z</time>
      </trkpt>
      <trkpt lat="45.92371" lon="4.7493">
        <ele>170</ele>
        <time>2018-10-20T11:31:37Z</time>
      </trkpt>
      <trkpt lat="45.92373" lon="4.74923">
        <ele>170</ele>
        <time>2018-10-20T11:31:38Z</time>
      </trkpt>
      <trkpt lat="45.92375" lon="4.74916">
        <ele>171</ele>
        <time>2018-10-20T11:31:39Z</time>
      </trkpt>
      <trkpt lat="45.92378" lon="4.74908">
        <ele>171</ele>
        <time>2018-10-20T11:31:40Z</time>
      </trkpt>
      <trkpt lat="45.9238" lon="4.74902">
        <ele>171</ele>
        <time>2018-10-20T11:31:41Z</time>
      </trkpt>
      <trkpt lat="45.92382" lon="4.74895">
        <ele>171</ele>
        <time>2018-10-20T11:31:42Z</time>
      </trkpt>
      <trkpt lat="45.92384" lon="4.74889">
        <ele>171</ele>
        <time>2018-10-20T11:31:43Z</time>
      </trkpt>
      <trkpt lat="45.92387" lon="4.74882">
        <ele>171</ele>
        <time>2018-10-20T11:31:44Z</time>
      </trkpt>
      <trkpt lat="45.92389" lon="4.74877">
        <ele>171</ele>
        <time>2018-10-20T11:31:45Z</time>
      </trkpt>
      <trkpt lat="45.92391" lon="4.74868">
        <ele>171</ele>
        <time>2018-10-20T11:31:46Z</time>
      </trkpt>
      <trkpt lat="45.92394" lon="4.7486">
        <ele>171</ele>
        <time>2018-10-20T11:31:47Z</time>
      </trkpt>
      <trkpt lat="45.92395" lon="4.74853">
        <ele>171</ele>
        <time>2018-10-20T11:31:48Z</time>
      </trkpt>
      <trkpt lat="45.92398" lon="4.74844">
        <ele>171</ele>
        <time>2018-10-20T11:31:49Z</time>
      </trkpt>
      <trkpt lat="45.924" lon="4.74837">
        <ele>171</ele>
        <time>2018-10-20T11:31:50Z</time>
      </trkpt>
      <trkpt lat="45.92402" lon="4.74829">
        <ele>171</ele>
        <time>2018-10-20T11:31:51Z</time>
      </trkpt>
      <trkpt lat="45.92404" lon="4.74822">
        <ele>171</ele>
        <time>2018-10-20T11:31:52Z</time>
      </trkpt>
      <trkpt lat="45.92406" lon="4.74814">
        <ele>171</ele>
        <time>2018-10-20T11:31:53Z</time>
      </trkpt>
      <trkpt lat="45.92407" lon="4.74806">
        <ele>171</ele>
        <time>2018-10-20T11:31:54Z</time>
      </trkpt>
      <trkpt lat="45.92409" lon="4.74798">
        <ele>171</ele>
        <time>2018-10-20T11:31:55Z</time>
      </trkpt>
      <trkpt lat="45.9241" lon="4.74791">
        <ele>171</ele>
        <time>2018-10-20T11:31:56Z</time>
      </trkpt>
      <trkpt lat="45.92411" lon="4.74784">
        <ele>171</ele>
        <time>2018-10-20T11:31:57Z</time>
      </trkpt>
      <trkpt lat="45.92413" lon="4.74777">
        <ele>171</ele>
        <time>2018-10-20T11:31:58Z</time>
      </trkpt>
      <trkpt lat="45.92414" lon="4.7477">
        <ele>172</ele>
        <time>2018-10-20T11:31:59Z</time>
      </trkpt>
      <trkpt lat="45.92415" lon="4.74762">
        <ele>172</ele>
        <time>2018-10-20T11:32:00Z</time>
      </trkpt>
      <trkpt lat="45.92417" lon="4.74755">
        <ele>172</ele>
        <time>2018-10-20T11:32:01Z</time>
      </trkpt>
      <trkpt lat="45.92419" lon="4.74747">
        <ele>172</ele>
        <time>2018-10-20T11:32:02Z</time>
      </trkpt>
      <trkpt lat="45.92421" lon="4.74738">
        <ele>172</ele>
        <time>2018-10-20T11:32:03Z</time>
      </trkpt>
      <trkpt lat="45.92424" lon="4.74732">
        <ele>171</ele>
        <time>2018-10-20T11:32:04Z</time>
      </trkpt>
      <trkpt lat="45.92427" lon="4.74725">
        <ele>171</ele>
        <time>2018-10-20T11:32:05Z</time>
      </trkpt>
      <trkpt lat="45.9243" lon="4.74717">
        <ele>171</ele>
        <time>2018-10-20T11:32:06Z</time>
      </trkpt>
      <trkpt lat="45.92433" lon="4.7471">
        <ele>171</ele>
        <time>2018-10-20T11:32:07Z</time>
      </trkpt>
      <trkpt lat="45.92436" lon="4.74702">
        <ele>171</ele>
        <time>2018-10-20T11:32:08Z</time>
      </trkpt>
      <trkpt lat="45.92438" lon="4.74695">
        <ele>171</ele>
        <time>2018-10-20T11:32:09Z</time>
      </trkpt>
      <trkpt lat="45.92442" lon="4.74689">
        <ele>171</ele>
        <time>2018-10-20T11:32:10Z</time>
      </trkpt>
      <trkpt lat="45.92445" lon="4.74682">
        <ele>171</ele>
        <time>2018-10-20T11:32:11Z</time>
      </trkpt>
      <trkpt lat="45.92448" lon="4.74675">
        <ele>171</ele>
        <time>2018-10-20T11:32:12Z</time>
      </trkpt>
      <trkpt lat="45.92452" lon="4.74668">
        <ele>171</ele>
        <time>2018-10-20T11:32:13Z</time>
      </trkpt>
      <trkpt lat="45.92455" lon="4.74662">
        <ele>171</ele>
        <time>2018-10-20T11:32:14Z</time>
      </trkpt>
      <trkpt lat="45.92459" lon="4.74656">
        <ele>171</ele>
        <time>2018-10-20T11:32:15Z</time>
      </trkpt>
      <trkpt lat="45.92464" lon="4.74648">
        <ele>171</ele>
        <time>2018-10-20T11:32:16Z</time>
      </trkpt>
      <trkpt lat="45.92468" lon="4.74641">
        <ele>171</ele>
        <time>2018-10-20T11:32:17Z</time>
      </trkpt>
      <trkpt lat="45.92472" lon="4.74634">
        <ele>171</ele>
        <time>2018-10-20T11:32:18Z</time>
      </trkpt>
      <trkpt lat="45.92477" lon="4.74627">
        <ele>171</ele>
        <time>2018-10-20T11:32:19Z</time>
      </trkpt>
      <trkpt lat="45.9248" lon="4.7462">
        <ele>171</ele>
        <time>2018-10-20T11:32:20Z</time>
      </trkpt>
      <trkpt lat="45.92484" lon="4.74613">
        <ele>171</ele>
        <time>2018-10-20T11:32:21Z</time>
      </trkpt>
      <trkpt lat="45.92488" lon="4.74604">
        <ele>171</ele>
        <time>2018-10-20T11:32:22Z</time>
      </trkpt>
      <trkpt lat="45.92492" lon="4.74595">
        <ele>171</ele>
        <time>2018-10-20T11:32:23Z</time>
      </trkpt>
      <trkpt lat="45.925" lon="4.7459">
        <ele>171</ele>
        <time>2018-10-20T11:32:25Z</time>
      </trkpt>
      <trkpt lat="45.92504" lon="4.74586">
        <ele>171</ele>
        <time>2018-10-20T11:32:26Z</time>
      </trkpt>
      <trkpt lat="45.9251" lon="4.74578">
        <ele>171</ele>
        <time>2018-10-20T11:32:28Z</time>
      </trkpt>
      <trkpt lat="45.92512" lon="4.74574">
        <ele>171</ele>
        <time>2018-10-20T11:32:29Z</time>
      </trkpt>
      <trkpt lat="45.92516" lon="4.74573">
        <ele>171</ele>
        <time>2018-10-20T11:32:30Z</time>
      </trkpt>
      <trkpt lat="45.9252" lon="4.74566">
        <ele>171</ele>
        <time>2018-10-20T11:32:31Z</time>
      </trkpt>
      <trkpt lat="45.92525" lon="4.74556">
        <ele>171</ele>
        <time>2018-10-20T11:32:32Z</time>
      </trkpt>
      <trkpt lat="45.9253" lon="4.74549">
        <ele>171</ele>
        <time>2018-10-20T11:32:33Z</time>
      </trkpt>
      <trkpt lat="45.92533" lon="4.74543">
        <ele>171</ele>
        <time>2018-10-20T11:32:34Z</time>
      </trkpt>
      <trkpt lat="45.92537" lon="4.74533">
        <ele>171</ele>
        <time>2018-10-20T11:32:35Z</time>
      </trkpt>
      <trkpt lat="45.92541" lon="4.74528">
        <ele>171</ele>
        <time>2018-10-20T11:32:36Z</time>
      </trkpt>
      <trkpt lat="45.92545" lon="4.74522">
        <ele>170</ele>
        <time>2018-10-20T11:32:37Z</time>
      </trkpt>
      <trkpt lat="45.92549" lon="4.74516">
        <ele>170</ele>
        <time>2018-10-20T11:32:38Z</time>
      </trkpt>
      <trkpt lat="45.92553" lon="4.74511">
        <ele>170</ele>
        <time>2018-10-20T11:32:39Z</time>
      </trkpt>
      <trkpt lat="45.92558" lon="4.74503">
        <ele>170</ele>
        <time>2018-10-20T11:32:40Z</time>
      </trkpt>
      <trkpt lat="45.92561" lon="4.74498">
        <ele>170</ele>
        <time>2018-10-20T11:32:41Z</time>
      </trkpt>
      <trkpt lat="45.92564" lon="4.74492">
        <ele>170</ele>
        <time>2018-10-20T11:32:42Z</time>
      </trkpt>
      <trkpt lat="45.92567" lon="4.74487">
        <ele>170</ele>
        <time>2018-10-20T11:32:43Z</time>
      </trkpt>
      <trkpt lat="45.9257" lon="4.74482">
        <ele>170</ele>
        <time>2018-10-20T11:32:44Z</time>
      </trkpt>
      <trkpt lat="45.92573" lon="4.74477">
        <ele>170</ele>
        <time>2018-10-20T11:32:45Z</time>
      </trkpt>
      <trkpt lat="45.92575" lon="4.74472">
        <ele>170</ele>
        <time>2018-10-20T11:32:46Z</time>
      </trkpt>
      <trkpt lat="45.92578" lon="4.7446">
        <ele>170</ele>
        <time>2018-10-20T11:32:47Z</time>
      </trkpt>
      <trkpt lat="45.92582" lon="4.74455">
        <ele>170</ele>
        <time>2018-10-20T11:32:48Z</time>
      </trkpt>
      <trkpt lat="45.92585" lon="4.74449">
        <ele>170</ele>
        <time>2018-10-20T11:32:49Z</time>
      </trkpt>
      <trkpt lat="45.92588" lon="4.74442">
        <ele>170</ele>
        <time>2018-10-20T11:32:50Z</time>
      </trkpt>
      <trkpt lat="45.92591" lon="4.74438">
        <ele>170</ele>
        <time>2018-10-20T11:32:51Z</time>
      </trkpt>
      <trkpt lat="45.92597" lon="4.7443">
        <ele>170</ele>
        <time>2018-10-20T11:32:53Z</time>
      </trkpt>
      <trkpt lat="45.92601" lon="4.74425">
        <ele>170</ele>
        <time>2018-10-20T11:32:54Z</time>
      </trkpt>
      <trkpt lat="45.92604" lon="4.7442">
        <ele>170</ele>
        <time>2018-10-20T11:32:55Z</time>
      </trkpt>
      <trkpt lat="45.92608" lon="4.74415">
        <ele>170</ele>
        <time>2018-10-20T11:32:56Z</time>
      </trkpt>
      <trkpt lat="45.92614" lon="4.74405">
        <ele>170</ele>
        <time>2018-10-20T11:32:58Z</time>
      </trkpt>
      <trkpt lat="45.92617" lon="4.74399">
        <ele>170</ele>
        <time>2018-10-20T11:32:59Z</time>
      </trkpt>
      <trkpt lat="45.92619" lon="4.74392">
        <ele>170</ele>
        <time>2018-10-20T11:33:00Z</time>
      </trkpt>
      <trkpt lat="45.92622" lon="4.74386">
        <ele>170</ele>
        <time>2018-10-20T11:33:01Z</time>
      </trkpt>
      <trkpt lat="45.92628" lon="4.74379">
        <ele>170</ele>
        <time>2018-10-20T11:33:03Z</time>
      </trkpt>
      <trkpt lat="45.92631" lon="4.74372">
        <ele>171</ele>
        <time>2018-10-20T11:33:04Z</time>
      </trkpt>
      <trkpt lat="45.92634" lon="4.74367">
        <ele>171</ele>
        <time>2018-10-20T11:33:05Z</time>
      </trkpt>
      <trkpt lat="45.92637" lon="4.74363">
        <ele>171</ele>
        <time>2018-10-20T11:33:06Z</time>
      </trkpt>
      <trkpt lat="45.9264" lon="4.74355">
        <ele>171</ele>
        <time>2018-10-20T11:33:07Z</time>
      </trkpt>
      <trkpt lat="45.92643" lon="4.74351">
        <ele>171</ele>
        <time>2018-10-20T11:33:08Z</time>
      </trkpt>
      <trkpt lat="45.92647" lon="4.74341">
        <ele>171</ele>
        <time>2018-10-20T11:33:10Z</time>
      </trkpt>
      <trkpt lat="45.92651" lon="4.74336">
        <ele>171</ele>
        <time>2018-10-20T11:33:11Z</time>
      </trkpt>
      <trkpt lat="45.92653" lon="4.74331">
        <ele>171</ele>
        <time>2018-10-20T11:33:12Z</time>
      </trkpt>
      <trkpt lat="45.92654" lon="4.74324">
        <ele>171</ele>
        <time>2018-10-20T11:33:13Z</time>
      </trkpt>
      <trkpt lat="45.9266" lon="4.74314">
        <ele>171</ele>
        <time>2018-10-20T11:33:15Z</time>
      </trkpt>
      <trkpt lat="45.92662" lon="4.74309">
        <ele>171</ele>
        <time>2018-10-20T11:33:16Z</time>
      </trkpt>
      <trkpt lat="45.92664" lon="4.74303">
        <ele>171</ele>
        <time>2018-10-20T11:33:17Z</time>
      </trkpt>
      <trkpt lat="45.92667" lon="4.74298">
        <ele>171</ele>
        <time>2018-10-20T11:33:18Z</time>
      </trkpt>
      <trkpt lat="45.9267" lon="4.74292">
        <ele>171</ele>
        <time>2018-10-20T11:33:19Z</time>
      </trkpt>
      <trkpt lat="45.92673" lon="4.74287">
        <ele>171</ele>
        <time>2018-10-20T11:33:20Z</time>
      </trkpt>
      <trkpt lat="45.92679" lon="4.74277">
        <ele>171</ele>
        <time>2018-10-20T11:33:22Z</time>
      </trkpt>
      <trkpt lat="45.92682" lon="4.74272">
        <ele>171</ele>
        <time>2018-10-20T11:33:23Z</time>
      </trkpt>
      <trkpt lat="45.92688" lon="4.74263">
        <ele>171</ele>
        <time>2018-10-20T11:33:25Z</time>
      </trkpt>
      <trkpt lat="45.9269" lon="4.74258">
        <ele>171</ele>
        <time>2018-10-20T11:33:26Z</time>
      </trkpt>
      <trkpt lat="45.92695" lon="4.7425">
        <ele>171</ele>
        <time>2018-10-20T11:33:28Z</time>
      </trkpt>
      <trkpt lat="45.92698" lon="4.74246">
        <ele>171</ele>
        <time>2018-10-20T11:33:29Z</time>
      </trkpt>
      <trkpt lat="45.92701" lon="4.7424">
        <ele>171</ele>
        <time>2018-10-20T11:33:30Z</time>
      </trkpt>
      <trkpt lat="45.92704" lon="4.74235">
        <ele>171</ele>
        <time>2018-10-20T11:33:31Z</time>
      </trkpt>
      <trkpt lat="45.92706" lon="4.74231">
        <ele>171</ele>
        <time>2018-10-20T11:33:32Z</time>
      </trkpt>
      <trkpt lat="45.92709" lon="4.74223">
        <ele>171</ele>
        <time>2018-10-20T11:33:33Z</time>
      </trkpt>
      <trkpt lat="45.92716" lon="4.74214">
        <ele>171</ele>
        <time>2018-10-20T11:33:35Z</time>
      </trkpt>
      <trkpt lat="45.9272" lon="4.7421">
        <ele>171</ele>
        <time>2018-10-20T11:33:36Z</time>
      </trkpt>
      <trkpt lat="45.92724" lon="4.74205">
        <ele>171</ele>
        <time>2018-10-20T11:33:37Z</time>
      </trkpt>
      <trkpt lat="45.92727" lon="4.742">
        <ele>171</ele>
        <time>2018-10-20T11:33:38Z</time>
      </trkpt>
      <trkpt lat="45.92732" lon="4.74191">
        <ele>171</ele>
        <time>2018-10-20T11:33:39Z</time>
      </trkpt>
      <trkpt lat="45.92736" lon="4.74186">
        <ele>172</ele>
        <time>2018-10-20T11:33:40Z</time>
      </trkpt>
      <trkpt lat="45.92741" lon="4.74177">
        <ele>172</ele>
        <time>2018-10-20T11:33:42Z</time>
      </trkpt>
      <trkpt lat="45.92745" lon="4.74172">
        <ele>172</ele>
        <time>2018-10-20T11:33:43Z</time>
      </trkpt>
      <trkpt lat="45.92748" lon="4.74168">
        <ele>172</ele>
        <time>2018-10-20T11:33:44Z</time>
      </trkpt>
      <trkpt lat="45.92753" lon="4.74165">
        <ele>172</ele>
        <time>2018-10-20T11:33:45Z</time>
      </trkpt>
      <trkpt lat="45.92758" lon="4.74162">
        <ele>172</ele>
        <time>2018-10-20T11:33:46Z</time>
      </trkpt>
      <trkpt lat="45.92764" lon="4.74158">
        <ele>172</ele>
        <time>2018-10-20T11:33:47Z</time>
      </trkpt>
      <trkpt lat="45.92768" lon="4.74154">
        <ele>172</ele>
        <time>2018-10-20T11:33:48Z</time>
      </trkpt>
      <trkpt lat="45.92772" lon="4.7415">
        <ele>172</ele>
        <time>2018-10-20T11:33:49Z</time>
      </trkpt>
      <trkpt lat="45.92777" lon="4.74147">
        <ele>172</ele>
        <time>2018-10-20T11:33:50Z</time>
      </trkpt>
      <trkpt lat="45.92781" lon="4.74142">
        <ele>172</ele>
        <time>2018-10-20T11:33:51Z</time>
      </trkpt>
      <trkpt lat="45.92788" lon="4.74135">
        <ele>172</ele>
        <time>2018-10-20T11:33:53Z</time>
      </trkpt>
      <trkpt lat="45.92792" lon="4.74132">
        <ele>172</ele>
        <time>2018-10-20T11:33:54Z</time>
      </trkpt>
      <trkpt lat="45.92799" lon="4.74125">
        <ele>172</ele>
        <time>2018-10-20T11:33:56Z</time>
      </trkpt>
      <trkpt lat="45.92801" lon="4.74123">
        <ele>172</ele>
        <time>2018-10-20T11:33:57Z</time>
      </trkpt>
      <trkpt lat="45.92805" lon="4.74121">
        <ele>172</ele>
        <time>2018-10-20T11:33:58Z</time>
      </trkpt>
      <trkpt lat="45.92809" lon="4.74115">
        <ele>172</ele>
        <time>2018-10-20T11:33:59Z</time>
      </trkpt>
      <trkpt lat="45.92813" lon="4.7411">
        <ele>172</ele>
        <time>2018-10-20T11:34:00Z</time>
      </trkpt>
      <trkpt lat="45.92818" lon="4.74105">
        <ele>171</ele>
        <time>2018-10-20T11:34:01Z</time>
      </trkpt>
      <trkpt lat="45.92822" lon="4.74099">
        <ele>171</ele>
        <time>2018-10-20T11:34:02Z</time>
      </trkpt>
      <trkpt lat="45.92828" lon="4.74096">
        <ele>171</ele>
        <time>2018-10-20T11:34:03Z</time>
      </trkpt>
      <trkpt lat="45.92832" lon="4.74092">
        <ele>171</ele>
        <time>2018-10-20T11:34:04Z</time>
      </trkpt>
      <trkpt lat="45.92837" lon="4.74085">
        <ele>171</ele>
        <time>2018-10-20T11:34:05Z</time>
      </trkpt>
      <trkpt lat="45.92843" lon="4.74079">
        <ele>171</ele>
        <time>2018-10-20T11:34:06Z</time>
      </trkpt>
      <trkpt lat="45.92847" lon="4.74074">
        <ele>172</ele>
        <time>2018-10-20T11:34:07Z</time>
      </trkpt>
      <trkpt lat="45.92851" lon="4.7407">
        <ele>172</ele>
        <time>2018-10-20T11:34:08Z</time>
      </trkpt>
      <trkpt lat="45.92855" lon="4.74065">
        <ele>172</ele>
        <time>2018-10-20T11:34:09Z</time>
      </trkpt>
      <trkpt lat="45.9286" lon="4.74061">
        <ele>172</ele>
        <time>2018-10-20T11:34:10Z</time>
      </trkpt>
      <trkpt lat="45.92863" lon="4.74057">
        <ele>172</ele>
        <time>2018-10-20T11:34:11Z</time>
      </trkpt>
      <trkpt lat="45.92869" lon="4.74051">
        <ele>172</ele>
        <time>2018-10-20T11:34:12Z</time>
      </trkpt>
      <trkpt lat="45.92873" lon="4.74047">
        <ele>172</ele>
        <time>2018-10-20T11:34:13Z</time>
      </trkpt>
      <trkpt lat="45.92877" lon="4.74045">
        <ele>172</ele>
        <time>2018-10-20T11:34:14Z</time>
      </trkpt>
      <trkpt lat="45.92882" lon="4.74043">
        <ele>172</ele>
        <time>2018-10-20T11:34:15Z</time>
      </trkpt>
      <trkpt lat="45.92887" lon="4.74043">
        <ele>172</ele>
        <time>2018-10-20T11:34:16Z</time>
      </trkpt>
      <trkpt lat="45.92892" lon="4.74044">
        <ele>172</ele>
        <time>2018-10-20T11:34:17Z</time>
      </trkpt>
      <trkpt lat="45.92897" lon="4.74044">
        <ele>172</ele>
        <time>2018-10-20T11:34:18Z</time>
      </trkpt>
      <trkpt lat="45.92902" lon="4.74042">
        <ele>172</ele>
        <time>2018-10-20T11:34:19Z</time>
      </trkpt>
      <trkpt lat="45.92907" lon="4.74039">
        <ele>172</ele>
        <time>2018-10-20T11:34:20Z</time>
      </trkpt>
      <trkpt lat="45.92911" lon="4.74035">
        <ele>172</ele>
        <time>2018-10-20T11:34:21Z</time>
      </trkpt>
      <trkpt lat="45.92914" lon="4.74029">
        <ele>172</ele>
        <time>2018-10-20T11:34:22Z</time>
      </trkpt>
      <trkpt lat="45.92917" lon="4.74023">
        <ele>172</ele>
        <time>2018-10-20T11:34:23Z</time>
      </trkpt>
      <trkpt lat="45.92919" lon="4.74013">
        <ele>172</ele>
        <time>2018-10-20T11:34:24Z</time>
      </trkpt>
      <trkpt lat="45.9292" lon="4.74007">
        <ele>172</ele>
        <time>2018-10-20T11:34:25Z</time>
      </trkpt>
      <trkpt lat="45.92919" lon="4.73999">
        <ele>172</ele>
        <time>2018-10-20T11:34:26Z</time>
      </trkpt>
      <trkpt lat="45.92917" lon="4.73993">
        <ele>172</ele>
        <time>2018-10-20T11:34:27Z</time>
      </trkpt>
      <trkpt lat="45.9291" lon="4.73986">
        <ele>172</ele>
        <time>2018-10-20T11:34:29Z</time>
      </trkpt>
      <trkpt lat="45.92907" lon="4.73982">
        <ele>172</ele>
        <time>2018-10-20T11:34:30Z</time>
      </trkpt>
      <trkpt lat="45.92899" lon="4.73979">
        <ele>172</ele>
        <time>2018-10-20T11:34:32Z</time>
      </trkpt>
      <trkpt lat="45.92896" lon="4.73976">
        <ele>172</ele>
        <time>2018-10-20T11:34:33Z</time>
      </trkpt>
      <trkpt lat="45.9289" lon="4.73967">
        <ele>172</ele>
        <time>2018-10-20T11:34:35Z</time>
      </trkpt>
      <trkpt lat="45.92888" lon="4.73962">
        <ele>172</ele>
        <time>2018-10-20T11:34:36Z</time>
      </trkpt>
      <trkpt lat="45.92889" lon="4.73954">
        <ele>172</ele>
        <time>2018-10-20T11:34:37Z</time>
      </trkpt>
      <trkpt lat="45.92886" lon="4.73947">
        <ele>172</ele>
        <time>2018-10-20T11:34:38Z</time>
      </trkpt>
      <trkpt lat="45.92886" lon="4.7394">
        <ele>172</ele>
        <time>2018-10-20T11:34:39Z</time>
      </trkpt>
      <trkpt lat="45.92885" lon="4.73933">
        <ele>172</ele>
        <time>2018-10-20T11:34:40Z</time>
      </trkpt>
      <trkpt lat="45.92884" lon="4.73924">
        <ele>172</ele>
        <time>2018-10-20T11:34:41Z</time>
      </trkpt>
      <trkpt lat="45.92882" lon="4.73914">
        <ele>173</ele>
        <time>2018-10-20T11:34:42Z</time>
      </trkpt>
      <trkpt lat="45.9288" lon="4.73905">
        <ele>173</ele>
        <time>2018-10-20T11:34:43Z</time>
      </trkpt>
      <trkpt lat="45.92878" lon="4.73896">
        <ele>173</ele>
        <time>2018-10-20T11:34:44Z</time>
      </trkpt>
      <trkpt lat="45.92877" lon="4.73886">
        <ele>173</ele>
        <time>2018-10-20T11:34:45Z</time>
      </trkpt>
      <trkpt lat="45.92875" lon="4.73876">
        <ele>173</ele>
        <time>2018-10-20T11:34:46Z</time>
      </trkpt>
      <trkpt lat="45.92873" lon="4.73866">
        <ele>173</ele>
        <time>2018-10-20T11:34:47Z</time>
      </trkpt>
      <trkpt lat="45.92869" lon="4.73855">
        <ele>173</ele>
        <time>2018-10-20T11:34:48Z</time>
      </trkpt>
      <trkpt lat="45.92866" lon="4.73845">
        <ele>173</ele>
        <time>2018-10-20T11:34:49Z</time>
      </trkpt>
      <trkpt lat="45.92864" lon="4.73839">
        <ele>173</ele>
        <time>2018-10-20T11:34:50Z</time>
      </trkpt>
      <trkpt lat="45.92864" lon="4.73832">
        <ele>173</ele>
        <time>2018-10-20T11:34:51Z</time>
      </trkpt>
      <trkpt lat="45.92862" lon="4.73824">
        <ele>173</ele>
        <time>2018-10-20T11:34:52Z</time>
      </trkpt>
      <trkpt lat="45.92859" lon="4.73812">
        <ele>173</ele>
        <time>2018-10-20T11:34:54Z</time>
      </trkpt>
      <trkpt lat="45.92857" lon="4.73804">
        <ele>173</ele>
        <time>2018-10-20T11:34:55Z</time>
      </trkpt>
      <trkpt lat="45.92854" lon="4.73798">
        <ele>173</ele>
        <time>2018-10-20T11:34:56Z</time>
      </trkpt>
      <trkpt lat="45.9285" lon="4.73793">
        <ele>173</ele>
        <time>2018-10-20T11:34:57Z</time>
      </trkpt>
      <trkpt lat="45.92846" lon="4.73789">
        <ele>173</ele>
        <time>2018-10-20T11:34:58Z</time>
      </trkpt>
      <trkpt lat="45.92842" lon="4.73786">
        <ele>173</ele>
        <time>2018-10-20T11:34:59Z</time>
      </trkpt>
      <trkpt lat="45.92837" lon="4.73782">
        <ele>173</ele>
        <time>2018-10-20T11:35:00Z</time>
      </trkpt>
      <trkpt lat="45.92832" lon="4.73781">
        <ele>173</ele>
        <time>2018-10-20T11:35:01Z</time>
      </trkpt>
      <trkpt lat="45.92826" lon="4.73775">
        <ele>173</ele>
        <time>2018-10-20T11:35:03Z</time>
      </trkpt>
      <trkpt lat="45.92823" lon="4.73772">
        <ele>173</ele>
        <time>2018-10-20T11:35:04Z</time>
      </trkpt>
      <trkpt lat="45.92815" lon="4.73767">
        <ele>173</ele>
        <time>2018-10-20T11:35:06Z</time>
      </trkpt>
      <trkpt lat="45.92808" lon="4.73763">
        <ele>173</ele>
        <time>2018-10-20T11:35:07Z</time>
      </trkpt>
      <trkpt lat="45.92802" lon="4.73761">
        <ele>173</ele>
        <time>2018-10-20T11:35:09Z</time>
      </trkpt>
      <trkpt lat="45.92798" lon="4.73758">
        <ele>173</ele>
        <time>2018-10-20T11:35:10Z</time>
      </trkpt>
      <trkpt lat="45.92791" lon="4.73755">
        <ele>173</ele>
        <time>2018-10-20T11:35:11Z</time>
      </trkpt>
      <trkpt lat="45.92786" lon="4.73754">
        <ele>173</ele>
        <time>2018-10-20T11:35:12Z</time>
      </trkpt>
      <trkpt lat="45.92785" lon="4.73747">
        <ele>172</ele>
        <time>2018-10-20T11:35:13Z</time>
      </trkpt>
      <trkpt lat="45.92782" lon="4.7374">
        <ele>172</ele>
        <time>2018-10-20T11:35:14Z</time>
      </trkpt>
      <trkpt lat="45.92776" lon="4.73733">
        <ele>172</ele>
        <time>2018-10-20T11:35:16Z</time>
      </trkpt>
      <trkpt lat="45.9277" lon="4.7373">
        <ele>172</ele>
        <time>2018-10-20T11:35:17Z</time>
      </trkpt>
      <trkpt lat="45.92764" lon="4.73728">
        <ele>172</ele>
        <time>2018-10-20T11:35:18Z</time>
      </trkpt>
      <trkpt lat="45.9276" lon="4.73727">
        <ele>172</ele>
        <time>2018-10-20T11:35:19Z</time>
      </trkpt>
      <trkpt lat="45.92755" lon="4.73723">
        <ele>172</ele>
        <time>2018-10-20T11:35:20Z</time>
      </trkpt>
      <trkpt lat="45.92749" lon="4.73719">
        <ele>173</ele>
        <time>2018-10-20T11:35:21Z</time>
      </trkpt>
      <trkpt lat="45.92744" lon="4.73719">
        <ele>173</ele>
        <time>2018-10-20T11:35:22Z</time>
      </trkpt>
      <trkpt lat="45.92739" lon="4.73719">
        <ele>173</ele>
        <time>2018-10-20T11:35:23Z</time>
      </trkpt>
      <trkpt lat="45.92732" lon="4.73716">
        <ele>173</ele>
        <time>2018-10-20T11:35:24Z</time>
      </trkpt>
      <trkpt lat="45.92726" lon="4.73716">
        <ele>173</ele>
        <time>2018-10-20T11:35:25Z</time>
      </trkpt>
      <trkpt lat="45.9272" lon="4.73715">
        <ele>173</ele>
        <time>2018-10-20T11:35:26Z</time>
      </trkpt>
      <trkpt lat="45.92716" lon="4.73718">
        <ele>173</ele>
        <time>2018-10-20T11:35:27Z</time>
      </trkpt>
      <trkpt lat="45.92711" lon="4.73716">
        <ele>173</ele>
        <time>2018-10-20T11:35:28Z</time>
      </trkpt>
      <trkpt lat="45.92706" lon="4.73713">
        <ele>173</ele>
        <time>2018-10-20T11:35:29Z</time>
      </trkpt>
      <trkpt lat="45.927" lon="4.73709">
        <ele>173</ele>
        <time>2018-10-20T11:35:30Z</time>
      </trkpt>
      <trkpt lat="45.92695" lon="4.73708">
        <ele>173</ele>
        <time>2018-10-20T11:35:31Z</time>
      </trkpt>
      <trkpt lat="45.92689" lon="4.73707">
        <ele>173</ele>
        <time>2018-10-20T11:35:32Z</time>
      </trkpt>
      <trkpt lat="45.92683" lon="4.73708">
        <ele>173</ele>
        <time>2018-10-20T11:35:33Z</time>
      </trkpt>
      <trkpt lat="45.92678" lon="4.73707">
        <ele>173</ele>
        <time>2018-10-20T11:35:34Z</time>
      </trkpt>
      <trkpt lat="45.92673" lon="4.73703">
        <ele>174</ele>
        <time>2018-10-20T11:35:35Z</time>
      </trkpt>
      <trkpt lat="45.92667" lon="4.737">
        <ele>173</ele>
        <time>2018-10-20T11:35:36Z</time>
      </trkpt>
      <trkpt lat="45.92661" lon="4.73697">
        <ele>173</ele>
        <time>2018-10-20T11:35:37Z</time>
      </trkpt>
      <trkpt lat="45.92656" lon="4.73692">
        <ele>173</ele>
        <time>2018-10-20T11:35:38Z</time>
      </trkpt>
      <trkpt lat="45.92651" lon="4.73687">
        <ele>173</ele>
        <time>2018-10-20T11:35:39Z</time>
      </trkpt>
      <trkpt lat="45.92647" lon="4.73682">
        <ele>173</ele>
        <time>2018-10-20T11:35:40Z</time>
      </trkpt>
      <trkpt lat="45.92642" lon="4.73677">
        <ele>173</ele>
        <time>2018-10-20T11:35:41Z</time>
      </trkpt>
      <trkpt lat="45.92638" lon="4.73669">
        <ele>173</ele>
        <time>2018-10-20T11:35:42Z</time>
      </trkpt>
      <trkpt lat="45.92633" lon="4.73662">
        <ele>173</ele>
        <time>2018-10-20T11:35:43Z</time>
      </trkpt>
      <trkpt lat="45.92632" lon="4.73655">
        <ele>173</ele>
        <time>2018-10-20T11:35:44Z</time>
      </trkpt>
      <trkpt lat="45.9263" lon="4.73647">
        <ele>173</ele>
        <time>2018-10-20T11:35:45Z</time>
      </trkpt>
      <trkpt lat="45.92626" lon="4.73641">
        <ele>173</ele>
        <time>2018-10-20T11:35:46Z</time>
      </trkpt>
      <trkpt lat="45.92622" lon="4.73635">
        <ele>173</ele>
        <time>2018-10-20T11:35:47Z</time>
      </trkpt>
      <trkpt lat="45.92617" lon="4.73629">
        <ele>173</ele>
        <time>2018-10-20T11:35:48Z</time>
      </trkpt>
      <trkpt lat="45.92613" lon="4.73624">
        <ele>173</ele>
        <time>2018-10-20T11:35:49Z</time>
      </trkpt>
      <trkpt lat="45.92606" lon="4.73622">
        <ele>173</ele>
        <time>2018-10-20T11:35:50Z</time>
      </trkpt>
      <trkpt lat="45.92596" lon="4.73617">
        <ele>173</ele>
        <time>2018-10-20T11:35:51Z</time>
      </trkpt>
      <trkpt lat="45.92594" lon="4.73623">
        <ele>173</ele>
        <time>2018-10-20T11:35:52Z</time>
      </trkpt>
      <trkpt lat="45.92588" lon="4.73626">
        <ele>172</ele>
        <time>2018-10-20T11:35:53Z</time>
      </trkpt>
      <trkpt lat="45.92584" lon="4.73628">
        <ele>172</ele>
        <time>2018-10-20T11:35:54Z</time>
      </trkpt>
      <trkpt lat="45.92577" lon="4.73632">
        <ele>173</ele>
        <time>2018-10-20T11:35:55Z</time>
      </trkpt>
      <trkpt lat="45.92571" lon="4.73635">
        <ele>173</ele>
        <time>2018-10-20T11:35:56Z</time>
      </trkpt>
      <trkpt lat="45.92565" lon="4.73637">
        <ele>173</ele>
        <time>2018-10-20T11:35:57Z</time>
      </trkpt>
      <trkpt lat="45.92557" lon="4.73635">
        <ele>173</ele>
        <time>2018-10-20T11:35:58Z</time>
      </trkpt>
      <trkpt lat="45.92549" lon="4.73636">
        <ele>173</ele>
        <time>2018-10-20T11:35:59Z</time>
      </trkpt>
      <trkpt lat="45.92543" lon="4.73637">
        <ele>173</ele>
        <time>2018-10-20T11:36:00Z</time>
      </trkpt>
      <trkpt lat="45.92539" lon="4.73637">
        <ele>173</ele>
        <time>2018-10-20T11:36:01Z</time>
      </trkpt>
      <trkpt lat="45.92533" lon="4.73637">
        <ele>173</ele>
        <time>2018-10-20T11:36:02Z</time>
      </trkpt>
      <trkpt lat="45.92529" lon="4.73636">
        <ele>173</ele>
        <time>2018-10-20T11:36:03Z</time>
      </trkpt>
      <trkpt lat="45.92523" lon="4.73637">
        <ele>173</ele>
        <time>2018-10-20T11:36:04Z</time>
      </trkpt>
      <trkpt lat="45.92518" lon="4.73635">
        <ele>173</ele>
        <time>2018-10-20T11:36:05Z</time>
      </trkpt>
      <trkpt lat="45.92514" lon="4.73634">
        <ele>173</ele>
        <time>2018-10-20T11:36:06Z</time>
      </trkpt>
      <trkpt lat="45.92509" lon="4.73635">
        <ele>174</ele>
        <time>2018-10-20T11:36:07Z</time>
      </trkpt>
      <trkpt lat="45.92504" lon="4.73635">
        <ele>174</ele>
        <time>2018-10-20T11:36:08Z</time>
      </trkpt>
      <trkpt lat="45.92499" lon="4.73634">
        <ele>174</ele>
        <time>2018-10-20T11:36:09Z</time>
      </trkpt>
      <trkpt lat="45.92492" lon="4.73635">
        <ele>174</ele>
        <time>2018-10-20T11:36:11Z</time>
      </trkpt>
      <trkpt lat="45.92487" lon="4.73634">
        <ele>174</ele>
        <time>2018-10-20T11:36:12Z</time>
      </trkpt>
      <trkpt lat="45.92482" lon="4.73632">
        <ele>174</ele>
        <time>2018-10-20T11:36:13Z</time>
      </trkpt>
      <trkpt lat="45.92477" lon="4.7363">
        <ele>174</ele>
        <time>2018-10-20T11:36:14Z</time>
      </trkpt>
      <trkpt lat="45.92472" lon="4.7363">
        <ele>174</ele>
        <time>2018-10-20T11:36:15Z</time>
      </trkpt>
      <trkpt lat="45.92471" lon="4.73644">
        <ele>174</ele>
        <time>2018-10-20T11:36:16Z</time>
      </trkpt>
      <trkpt lat="45.92468" lon="4.73654">
        <ele>174</ele>
        <time>2018-10-20T11:36:18Z</time>
      </trkpt>
      <trkpt lat="45.92468" lon="4.73662">
        <ele>174</ele>
        <time>2018-10-20T11:36:19Z</time>
      </trkpt>
      <trkpt lat="45.92467" lon="4.73675">
        <ele>174</ele>
        <time>2018-10-20T11:36:22Z</time>
      </trkpt>
      <trkpt lat="45.92467" lon="4.73682">
        <ele>174</ele>
        <time>2018-10-20T11:36:23Z</time>
      </trkpt>
      <trkpt lat="45.92466" lon="4.73695">
        <ele>174</ele>
        <time>2018-10-20T11:36:24Z</time>
      </trkpt>
      <trkpt lat="45.92466" lon="4.73697">
        <ele>174</ele>
        <time>2018-10-20T11:36:25Z</time>
      </trkpt>
      <trkpt lat="45.92464" lon="4.7371">
        <ele>174</ele>
        <time>2018-10-20T11:36:35Z</time>
      </trkpt>
      <trkpt lat="45.92463" lon="4.7371">
        <ele>174</ele>
        <time>2018-10-20T11:36:36Z</time>
      </trkpt>
      <trkpt lat="45.92458" lon="4.73711">
        <ele>174</ele>
        <time>2018-10-20T11:36:50Z</time>
      </trkpt>
      <trkpt lat="45.92458" lon="4.73711">
        <ele>174</ele>
        <time>2018-10-20T11:36:51Z</time>
      </trkpt>
      <trkpt lat="45.92457" lon="4.73711">
        <ele>174</ele>
        <time>2018-10-20T11:36:52Z</time>
      </trkpt>
      <trkpt lat="45.92457" lon="4.73711">
        <ele>174</ele>
        <time>2018-10-20T11:36:53Z</time>
      </trkpt>
      <trkpt lat="45.92456" lon="4.73711">
        <ele>174</ele>
        <time>2018-10-20T11:36:57Z</time>
      </trkpt>
      <trkpt lat="45.92455" lon="4.73712">
        <ele>174</ele>
        <time>2018-10-20T11:36:58Z</time>
      </trkpt>
      <trkpt lat="45.92455" lon="4.73712">
        <ele>174</ele>
        <time>2018-10-20T11:37:06.323Z</time>
      </trkpt>
    </trkseg>
  </trk>
</gpx>